<?xml version="1.0" encoding="UTF-8" standalone="no" ?>
<gpx xmlns="http://www.topografix.com/GPX/1/1" xmlns:xsi="http://www.w3.org/2001/XMLSchema-instance" xsi:schemaLocation="http://www.topografix.com/GPX/1/1 http://www.topografix.com/GPX/1/1/gpx.xsd" version="1.1" creator="VisuGPX - https://www.visugpx.com">
  <metadata>
    <name>Mtp_Clapiers 21032021</name>
  </metadata>
  <trk>
    <name><![CDATA[Mtp_Clapiers 21032021_1]]></name>
    <trkseg>
      <trkpt lat="43.61172" lon="3.87744">
        <ele>46.6</ele>
        <time>2021-03-21T08:29:35Z</time>
      </trkpt>
      <trkpt lat="43.61172" lon="3.87742">
        <ele>46.6</ele>
        <time>2021-03-21T08:30:20Z</time>
      </trkpt>
      <trkpt lat="43.61172" lon="3.87742">
        <ele>46.6</ele>
        <time>2021-03-21T08:30:21Z</time>
      </trkpt>
      <trkpt lat="43.61172" lon="3.87742">
        <ele>65</ele>
        <time>2021-03-21T08:30:25Z</time>
      </trkpt>
      <trkpt lat="43.61175" lon="3.8775">
        <ele>65</ele>
        <time>2021-03-21T08:32:58Z</time>
      </trkpt>
      <trkpt lat="43.61175" lon="3.87749">
        <ele>65</ele>
        <time>2021-03-21T08:33:05Z</time>
      </trkpt>
      <trkpt lat="43.61172" lon="3.87747">
        <ele>64</ele>
        <time>2021-03-21T08:33:36Z</time>
      </trkpt>
      <trkpt lat="43.61173" lon="3.87748">
        <ele>64</ele>
        <time>2021-03-21T08:33:38Z</time>
      </trkpt>
      <trkpt lat="43.61175" lon="3.8775">
        <ele>64</ele>
        <time>2021-03-21T08:33:43Z</time>
      </trkpt>
      <trkpt lat="43.61177" lon="3.87752">
        <ele>64</ele>
        <time>2021-03-21T08:33:46Z</time>
      </trkpt>
      <trkpt lat="43.61177" lon="3.87751">
        <ele>65</ele>
        <time>2021-03-21T08:33:55Z</time>
      </trkpt>
      <trkpt lat="43.61178" lon="3.87746">
        <ele>64</ele>
        <time>2021-03-21T08:34:06Z</time>
      </trkpt>
      <trkpt lat="43.61178" lon="3.87747">
        <ele>64</ele>
        <time>2021-03-21T08:34:10Z</time>
      </trkpt>
      <trkpt lat="43.61171" lon="3.87746">
        <ele>65</ele>
        <time>2021-03-21T08:34:32Z</time>
      </trkpt>
      <trkpt lat="43.61169" lon="3.87747">
        <ele>65</ele>
        <time>2021-03-21T08:34:35Z</time>
      </trkpt>
      <trkpt lat="43.61179" lon="3.87754">
        <ele>65</ele>
        <time>2021-03-21T08:35:44Z</time>
      </trkpt>
      <trkpt lat="43.61183" lon="3.8775">
        <ele>65</ele>
        <time>2021-03-21T08:37:28Z</time>
      </trkpt>
      <trkpt lat="43.61183" lon="3.8775">
        <ele>65</ele>
        <time>2021-03-21T08:37:33Z</time>
      </trkpt>
      <trkpt lat="43.61175" lon="3.87748">
        <ele>64</ele>
        <time>2021-03-21T08:38:30Z</time>
      </trkpt>
      <trkpt lat="43.61175" lon="3.87748">
        <ele>64</ele>
        <time>2021-03-21T08:38:35Z</time>
      </trkpt>
      <trkpt lat="43.6117" lon="3.8775">
        <ele>63</ele>
        <time>2021-03-21T08:38:44Z</time>
      </trkpt>
      <trkpt lat="43.61151" lon="3.87733">
        <ele>63</ele>
        <time>2021-03-21T08:39:02Z</time>
      </trkpt>
      <trkpt lat="43.61145" lon="3.87743">
        <ele>63</ele>
        <time>2021-03-21T08:39:11Z</time>
      </trkpt>
      <trkpt lat="43.6114" lon="3.87754">
        <ele>63</ele>
        <time>2021-03-21T08:39:17Z</time>
      </trkpt>
      <trkpt lat="43.61145" lon="3.87746">
        <ele>63</ele>
        <time>2021-03-21T08:39:19Z</time>
      </trkpt>
      <trkpt lat="43.61147" lon="3.87743">
        <ele>63</ele>
        <time>2021-03-21T08:39:20Z</time>
      </trkpt>
      <trkpt lat="43.61149" lon="3.87742">
        <ele>63</ele>
        <time>2021-03-21T08:39:22Z</time>
      </trkpt>
      <trkpt lat="43.61151" lon="3.87741">
        <ele>63</ele>
        <time>2021-03-21T08:39:28Z</time>
      </trkpt>
      <trkpt lat="43.61154" lon="3.87734">
        <ele>70</ele>
        <time>2021-03-21T08:39:34Z</time>
      </trkpt>
      <trkpt lat="43.61153" lon="3.87733">
        <ele>70</ele>
        <time>2021-03-21T08:39:35Z</time>
      </trkpt>
      <trkpt lat="43.61154" lon="3.87729">
        <ele>70</ele>
        <time>2021-03-21T08:39:39Z</time>
      </trkpt>
      <trkpt lat="43.61155" lon="3.8773">
        <ele>72</ele>
        <time>2021-03-21T08:39:43Z</time>
      </trkpt>
      <trkpt lat="43.61156" lon="3.87728">
        <ele>73</ele>
        <time>2021-03-21T08:39:46Z</time>
      </trkpt>
      <trkpt lat="43.61156" lon="3.87726">
        <ele>73</ele>
        <time>2021-03-21T08:39:53Z</time>
      </trkpt>
      <trkpt lat="43.61154" lon="3.87725">
        <ele>75</ele>
        <time>2021-03-21T08:39:55Z</time>
      </trkpt>
      <trkpt lat="43.61153" lon="3.87724">
        <ele>77</ele>
        <time>2021-03-21T08:39:58Z</time>
      </trkpt>
      <trkpt lat="43.61153" lon="3.87727">
        <ele>77</ele>
        <time>2021-03-21T08:40:00Z</time>
      </trkpt>
      <trkpt lat="43.61153" lon="3.87727">
        <ele>76</ele>
        <time>2021-03-21T08:40:03Z</time>
      </trkpt>
      <trkpt lat="43.61151" lon="3.87733">
        <ele>74</ele>
        <time>2021-03-21T08:40:10Z</time>
      </trkpt>
      <trkpt lat="43.61155" lon="3.87726">
        <ele>73</ele>
        <time>2021-03-21T08:41:00Z</time>
      </trkpt>
      <trkpt lat="43.61154" lon="3.87722">
        <ele>73</ele>
        <time>2021-03-21T08:41:02Z</time>
      </trkpt>
      <trkpt lat="43.61155" lon="3.87719">
        <ele>73</ele>
        <time>2021-03-21T08:41:04Z</time>
      </trkpt>
      <trkpt lat="43.61157" lon="3.87716">
        <ele>73</ele>
        <time>2021-03-21T08:41:06Z</time>
      </trkpt>
      <trkpt lat="43.61159" lon="3.87713">
        <ele>73</ele>
        <time>2021-03-21T08:41:07Z</time>
      </trkpt>
      <trkpt lat="43.61161" lon="3.87711">
        <ele>73</ele>
        <time>2021-03-21T08:41:08Z</time>
      </trkpt>
      <trkpt lat="43.61162" lon="3.87709">
        <ele>72</ele>
        <time>2021-03-21T08:41:09Z</time>
      </trkpt>
      <trkpt lat="43.61163" lon="3.87706">
        <ele>72</ele>
        <time>2021-03-21T08:41:10Z</time>
      </trkpt>
      <trkpt lat="43.61165" lon="3.87703">
        <ele>72</ele>
        <time>2021-03-21T08:41:11Z</time>
      </trkpt>
      <trkpt lat="43.61166" lon="3.87701">
        <ele>72</ele>
        <time>2021-03-21T08:41:12Z</time>
      </trkpt>
      <trkpt lat="43.61167" lon="3.87699">
        <ele>72</ele>
        <time>2021-03-21T08:41:13Z</time>
      </trkpt>
      <trkpt lat="43.61168" lon="3.87695">
        <ele>72</ele>
        <time>2021-03-21T08:41:14Z</time>
      </trkpt>
      <trkpt lat="43.61169" lon="3.87691">
        <ele>72</ele>
        <time>2021-03-21T08:41:15Z</time>
      </trkpt>
      <trkpt lat="43.6117" lon="3.87687">
        <ele>72</ele>
        <time>2021-03-21T08:41:16Z</time>
      </trkpt>
      <trkpt lat="43.61172" lon="3.87682">
        <ele>72</ele>
        <time>2021-03-21T08:41:17Z</time>
      </trkpt>
      <trkpt lat="43.61174" lon="3.87679">
        <ele>72</ele>
        <time>2021-03-21T08:41:18Z</time>
      </trkpt>
      <trkpt lat="43.61176" lon="3.87675">
        <ele>72</ele>
        <time>2021-03-21T08:41:19Z</time>
      </trkpt>
      <trkpt lat="43.61181" lon="3.87668">
        <ele>68</ele>
        <time>2021-03-21T08:41:20Z</time>
      </trkpt>
      <trkpt lat="43.61184" lon="3.87664">
        <ele>68</ele>
        <time>2021-03-21T08:41:21Z</time>
      </trkpt>
      <trkpt lat="43.61187" lon="3.87657">
        <ele>68</ele>
        <time>2021-03-21T08:41:22Z</time>
      </trkpt>
      <trkpt lat="43.6119" lon="3.87652">
        <ele>68</ele>
        <time>2021-03-21T08:41:23Z</time>
      </trkpt>
      <trkpt lat="43.61191" lon="3.87647">
        <ele>68</ele>
        <time>2021-03-21T08:41:24Z</time>
      </trkpt>
      <trkpt lat="43.61193" lon="3.87642">
        <ele>68</ele>
        <time>2021-03-21T08:41:25Z</time>
      </trkpt>
      <trkpt lat="43.61195" lon="3.87632">
        <ele>68</ele>
        <time>2021-03-21T08:41:27Z</time>
      </trkpt>
      <trkpt lat="43.61197" lon="3.87628">
        <ele>68</ele>
        <time>2021-03-21T08:41:28Z</time>
      </trkpt>
      <trkpt lat="43.61197" lon="3.87624">
        <ele>68</ele>
        <time>2021-03-21T08:41:29Z</time>
      </trkpt>
      <trkpt lat="43.61198" lon="3.8762">
        <ele>68</ele>
        <time>2021-03-21T08:41:31Z</time>
      </trkpt>
      <trkpt lat="43.61198" lon="3.87616">
        <ele>68</ele>
        <time>2021-03-21T08:41:32Z</time>
      </trkpt>
      <trkpt lat="43.61199" lon="3.87613">
        <ele>68</ele>
        <time>2021-03-21T08:41:33Z</time>
      </trkpt>
      <trkpt lat="43.612" lon="3.8761">
        <ele>68</ele>
        <time>2021-03-21T08:41:34Z</time>
      </trkpt>
      <trkpt lat="43.61201" lon="3.87606">
        <ele>68</ele>
        <time>2021-03-21T08:41:35Z</time>
      </trkpt>
      <trkpt lat="43.61203" lon="3.87603">
        <ele>68</ele>
        <time>2021-03-21T08:41:36Z</time>
      </trkpt>
      <trkpt lat="43.61204" lon="3.876">
        <ele>68</ele>
        <time>2021-03-21T08:41:37Z</time>
      </trkpt>
      <trkpt lat="43.61206" lon="3.87598">
        <ele>68</ele>
        <time>2021-03-21T08:41:38Z</time>
      </trkpt>
      <trkpt lat="43.61207" lon="3.87595">
        <ele>64</ele>
        <time>2021-03-21T08:41:39Z</time>
      </trkpt>
      <trkpt lat="43.61208" lon="3.87592">
        <ele>64</ele>
        <time>2021-03-21T08:41:40Z</time>
      </trkpt>
      <trkpt lat="43.61208" lon="3.87589">
        <ele>64</ele>
        <time>2021-03-21T08:41:41Z</time>
      </trkpt>
      <trkpt lat="43.61208" lon="3.87586">
        <ele>64</ele>
        <time>2021-03-21T08:41:42Z</time>
      </trkpt>
      <trkpt lat="43.61209" lon="3.87583">
        <ele>64</ele>
        <time>2021-03-21T08:41:43Z</time>
      </trkpt>
      <trkpt lat="43.6121" lon="3.8758">
        <ele>64</ele>
        <time>2021-03-21T08:41:44Z</time>
      </trkpt>
      <trkpt lat="43.6121" lon="3.87578">
        <ele>64</ele>
        <time>2021-03-21T08:41:45Z</time>
      </trkpt>
      <trkpt lat="43.61211" lon="3.87575">
        <ele>64</ele>
        <time>2021-03-21T08:41:46Z</time>
      </trkpt>
      <trkpt lat="43.61214" lon="3.87567">
        <ele>63</ele>
        <time>2021-03-21T08:41:49Z</time>
      </trkpt>
      <trkpt lat="43.61215" lon="3.87563">
        <ele>63</ele>
        <time>2021-03-21T08:41:50Z</time>
      </trkpt>
      <trkpt lat="43.61216" lon="3.87559">
        <ele>63</ele>
        <time>2021-03-21T08:41:51Z</time>
      </trkpt>
      <trkpt lat="43.61216" lon="3.87554">
        <ele>63</ele>
        <time>2021-03-21T08:41:52Z</time>
      </trkpt>
      <trkpt lat="43.61216" lon="3.87548">
        <ele>63</ele>
        <time>2021-03-21T08:41:53Z</time>
      </trkpt>
      <trkpt lat="43.61217" lon="3.87542">
        <ele>63</ele>
        <time>2021-03-21T08:41:54Z</time>
      </trkpt>
      <trkpt lat="43.61218" lon="3.87538">
        <ele>63</ele>
        <time>2021-03-21T08:41:55Z</time>
      </trkpt>
      <trkpt lat="43.61218" lon="3.87534">
        <ele>63</ele>
        <time>2021-03-21T08:41:56Z</time>
      </trkpt>
      <trkpt lat="43.61207" lon="3.87534">
        <ele>63</ele>
        <time>2021-03-21T08:42:01Z</time>
      </trkpt>
      <trkpt lat="43.61198" lon="3.87537">
        <ele>63</ele>
        <time>2021-03-21T08:42:06Z</time>
      </trkpt>
      <trkpt lat="43.6119" lon="3.87527">
        <ele>63</ele>
        <time>2021-03-21T08:42:13Z</time>
      </trkpt>
      <trkpt lat="43.61189" lon="3.87522">
        <ele>63</ele>
        <time>2021-03-21T08:42:14Z</time>
      </trkpt>
      <trkpt lat="43.61188" lon="3.87517">
        <ele>63</ele>
        <time>2021-03-21T08:42:15Z</time>
      </trkpt>
      <trkpt lat="43.61188" lon="3.87513">
        <ele>63</ele>
        <time>2021-03-21T08:42:16Z</time>
      </trkpt>
      <trkpt lat="43.61188" lon="3.87509">
        <ele>63</ele>
        <time>2021-03-21T08:42:17Z</time>
      </trkpt>
      <trkpt lat="43.61187" lon="3.87505">
        <ele>63</ele>
        <time>2021-03-21T08:42:18Z</time>
      </trkpt>
      <trkpt lat="43.61186" lon="3.87502">
        <ele>63</ele>
        <time>2021-03-21T08:42:19Z</time>
      </trkpt>
      <trkpt lat="43.61186" lon="3.87498">
        <ele>64</ele>
        <time>2021-03-21T08:42:20Z</time>
      </trkpt>
      <trkpt lat="43.61186" lon="3.87495">
        <ele>64</ele>
        <time>2021-03-21T08:42:21Z</time>
      </trkpt>
      <trkpt lat="43.61186" lon="3.87491">
        <ele>64</ele>
        <time>2021-03-21T08:42:22Z</time>
      </trkpt>
      <trkpt lat="43.61186" lon="3.87487">
        <ele>64</ele>
        <time>2021-03-21T08:42:23Z</time>
      </trkpt>
      <trkpt lat="43.61186" lon="3.87483">
        <ele>64</ele>
        <time>2021-03-21T08:42:24Z</time>
      </trkpt>
      <trkpt lat="43.61186" lon="3.87479">
        <ele>64</ele>
        <time>2021-03-21T08:42:25Z</time>
      </trkpt>
      <trkpt lat="43.61184" lon="3.87473">
        <ele>64</ele>
        <time>2021-03-21T08:42:26Z</time>
      </trkpt>
      <trkpt lat="43.61182" lon="3.87469">
        <ele>64</ele>
        <time>2021-03-21T08:42:27Z</time>
      </trkpt>
      <trkpt lat="43.61182" lon="3.87465">
        <ele>64</ele>
        <time>2021-03-21T08:42:28Z</time>
      </trkpt>
      <trkpt lat="43.61181" lon="3.87456">
        <ele>61</ele>
        <time>2021-03-21T08:42:29Z</time>
      </trkpt>
      <trkpt lat="43.61181" lon="3.87452">
        <ele>61</ele>
        <time>2021-03-21T08:42:30Z</time>
      </trkpt>
      <trkpt lat="43.61181" lon="3.87448">
        <ele>61</ele>
        <time>2021-03-21T08:42:31Z</time>
      </trkpt>
      <trkpt lat="43.61181" lon="3.87445">
        <ele>61</ele>
        <time>2021-03-21T08:42:32Z</time>
      </trkpt>
      <trkpt lat="43.61181" lon="3.87442">
        <ele>61</ele>
        <time>2021-03-21T08:42:33Z</time>
      </trkpt>
      <trkpt lat="43.6118" lon="3.87439">
        <ele>61</ele>
        <time>2021-03-21T08:42:34Z</time>
      </trkpt>
      <trkpt lat="43.61179" lon="3.87436">
        <ele>61</ele>
        <time>2021-03-21T08:42:35Z</time>
      </trkpt>
      <trkpt lat="43.61176" lon="3.87433">
        <ele>61</ele>
        <time>2021-03-21T08:42:36Z</time>
      </trkpt>
      <trkpt lat="43.61174" lon="3.8743">
        <ele>61</ele>
        <time>2021-03-21T08:42:37Z</time>
      </trkpt>
      <trkpt lat="43.61172" lon="3.87427">
        <ele>61</ele>
        <time>2021-03-21T08:42:38Z</time>
      </trkpt>
      <trkpt lat="43.61171" lon="3.87424">
        <ele>61</ele>
        <time>2021-03-21T08:42:40Z</time>
      </trkpt>
      <trkpt lat="43.61171" lon="3.8742">
        <ele>61</ele>
        <time>2021-03-21T08:42:41Z</time>
      </trkpt>
      <trkpt lat="43.61172" lon="3.87416">
        <ele>61</ele>
        <time>2021-03-21T08:42:42Z</time>
      </trkpt>
      <trkpt lat="43.61173" lon="3.87412">
        <ele>61</ele>
        <time>2021-03-21T08:42:43Z</time>
      </trkpt>
      <trkpt lat="43.61174" lon="3.87408">
        <ele>61</ele>
        <time>2021-03-21T08:42:44Z</time>
      </trkpt>
      <trkpt lat="43.61175" lon="3.87405">
        <ele>61</ele>
        <time>2021-03-21T08:42:45Z</time>
      </trkpt>
      <trkpt lat="43.61176" lon="3.87401">
        <ele>61</ele>
        <time>2021-03-21T08:42:46Z</time>
      </trkpt>
      <trkpt lat="43.61177" lon="3.87397">
        <ele>61</ele>
        <time>2021-03-21T08:42:47Z</time>
      </trkpt>
      <trkpt lat="43.61178" lon="3.87393">
        <ele>61</ele>
        <time>2021-03-21T08:42:48Z</time>
      </trkpt>
      <trkpt lat="43.6118" lon="3.8739">
        <ele>60</ele>
        <time>2021-03-21T08:42:49Z</time>
      </trkpt>
      <trkpt lat="43.61182" lon="3.87387">
        <ele>60</ele>
        <time>2021-03-21T08:42:50Z</time>
      </trkpt>
      <trkpt lat="43.61184" lon="3.87384">
        <ele>60</ele>
        <time>2021-03-21T08:42:51Z</time>
      </trkpt>
      <trkpt lat="43.61187" lon="3.8738">
        <ele>60</ele>
        <time>2021-03-21T08:42:52Z</time>
      </trkpt>
      <trkpt lat="43.61189" lon="3.87376">
        <ele>60</ele>
        <time>2021-03-21T08:42:53Z</time>
      </trkpt>
      <trkpt lat="43.61192" lon="3.87373">
        <ele>60</ele>
        <time>2021-03-21T08:42:54Z</time>
      </trkpt>
      <trkpt lat="43.61195" lon="3.87369">
        <ele>60</ele>
        <time>2021-03-21T08:42:55Z</time>
      </trkpt>
      <trkpt lat="43.61198" lon="3.87364">
        <ele>60</ele>
        <time>2021-03-21T08:42:56Z</time>
      </trkpt>
      <trkpt lat="43.61202" lon="3.8736">
        <ele>60</ele>
        <time>2021-03-21T08:42:57Z</time>
      </trkpt>
      <trkpt lat="43.61205" lon="3.87355">
        <ele>60</ele>
        <time>2021-03-21T08:42:58Z</time>
      </trkpt>
      <trkpt lat="43.61209" lon="3.87351">
        <ele>59</ele>
        <time>2021-03-21T08:42:59Z</time>
      </trkpt>
      <trkpt lat="43.61212" lon="3.87344">
        <ele>59</ele>
        <time>2021-03-21T08:43:00Z</time>
      </trkpt>
      <trkpt lat="43.61214" lon="3.87338">
        <ele>59</ele>
        <time>2021-03-21T08:43:01Z</time>
      </trkpt>
      <trkpt lat="43.61218" lon="3.87332">
        <ele>59</ele>
        <time>2021-03-21T08:43:02Z</time>
      </trkpt>
      <trkpt lat="43.61221" lon="3.87325">
        <ele>59</ele>
        <time>2021-03-21T08:43:03Z</time>
      </trkpt>
      <trkpt lat="43.61226" lon="3.87319">
        <ele>59</ele>
        <time>2021-03-21T08:43:04Z</time>
      </trkpt>
      <trkpt lat="43.6123" lon="3.87313">
        <ele>59</ele>
        <time>2021-03-21T08:43:05Z</time>
      </trkpt>
      <trkpt lat="43.61234" lon="3.87307">
        <ele>59</ele>
        <time>2021-03-21T08:43:06Z</time>
      </trkpt>
      <trkpt lat="43.61238" lon="3.87301">
        <ele>59</ele>
        <time>2021-03-21T08:43:07Z</time>
      </trkpt>
      <trkpt lat="43.61242" lon="3.87297">
        <ele>59</ele>
        <time>2021-03-21T08:43:08Z</time>
      </trkpt>
      <trkpt lat="43.61245" lon="3.87293">
        <ele>59</ele>
        <time>2021-03-21T08:43:09Z</time>
      </trkpt>
      <trkpt lat="43.61249" lon="3.87285">
        <ele>59</ele>
        <time>2021-03-21T08:43:11Z</time>
      </trkpt>
      <trkpt lat="43.61252" lon="3.87282">
        <ele>59</ele>
        <time>2021-03-21T08:43:12Z</time>
      </trkpt>
      <trkpt lat="43.61255" lon="3.87278">
        <ele>59</ele>
        <time>2021-03-21T08:43:13Z</time>
      </trkpt>
      <trkpt lat="43.61258" lon="3.87274">
        <ele>59</ele>
        <time>2021-03-21T08:43:14Z</time>
      </trkpt>
      <trkpt lat="43.6126" lon="3.8727">
        <ele>59</ele>
        <time>2021-03-21T08:43:15Z</time>
      </trkpt>
      <trkpt lat="43.6126" lon="3.87267">
        <ele>59</ele>
        <time>2021-03-21T08:43:16Z</time>
      </trkpt>
      <trkpt lat="43.6126" lon="3.87263">
        <ele>59</ele>
        <time>2021-03-21T08:43:17Z</time>
      </trkpt>
      <trkpt lat="43.6126" lon="3.87259">
        <ele>59</ele>
        <time>2021-03-21T08:43:18Z</time>
      </trkpt>
      <trkpt lat="43.6126" lon="3.87256">
        <ele>59</ele>
        <time>2021-03-21T08:43:19Z</time>
      </trkpt>
      <trkpt lat="43.6126" lon="3.87253">
        <ele>56</ele>
        <time>2021-03-21T08:43:20Z</time>
      </trkpt>
      <trkpt lat="43.6126" lon="3.87249">
        <ele>56</ele>
        <time>2021-03-21T08:43:21Z</time>
      </trkpt>
      <trkpt lat="43.61259" lon="3.87245">
        <ele>56</ele>
        <time>2021-03-21T08:43:22Z</time>
      </trkpt>
      <trkpt lat="43.61258" lon="3.87241">
        <ele>56</ele>
        <time>2021-03-21T08:43:23Z</time>
      </trkpt>
      <trkpt lat="43.61257" lon="3.87235">
        <ele>56</ele>
        <time>2021-03-21T08:43:24Z</time>
      </trkpt>
      <trkpt lat="43.61256" lon="3.8723">
        <ele>56</ele>
        <time>2021-03-21T08:43:25Z</time>
      </trkpt>
      <trkpt lat="43.61256" lon="3.87224">
        <ele>56</ele>
        <time>2021-03-21T08:43:26Z</time>
      </trkpt>
      <trkpt lat="43.61256" lon="3.87219">
        <ele>56</ele>
        <time>2021-03-21T08:43:27Z</time>
      </trkpt>
      <trkpt lat="43.61257" lon="3.87213">
        <ele>56</ele>
        <time>2021-03-21T08:43:28Z</time>
      </trkpt>
      <trkpt lat="43.61258" lon="3.87207">
        <ele>56</ele>
        <time>2021-03-21T08:43:29Z</time>
      </trkpt>
      <trkpt lat="43.61258" lon="3.87202">
        <ele>56</ele>
        <time>2021-03-21T08:43:30Z</time>
      </trkpt>
      <trkpt lat="43.6126" lon="3.87197">
        <ele>56</ele>
        <time>2021-03-21T08:43:31Z</time>
      </trkpt>
      <trkpt lat="43.61261" lon="3.87192">
        <ele>56</ele>
        <time>2021-03-21T08:43:32Z</time>
      </trkpt>
      <trkpt lat="43.61262" lon="3.87187">
        <ele>56</ele>
        <time>2021-03-21T08:43:33Z</time>
      </trkpt>
      <trkpt lat="43.61263" lon="3.87181">
        <ele>56</ele>
        <time>2021-03-21T08:43:34Z</time>
      </trkpt>
      <trkpt lat="43.61263" lon="3.87175">
        <ele>56</ele>
        <time>2021-03-21T08:43:35Z</time>
      </trkpt>
      <trkpt lat="43.61264" lon="3.87169">
        <ele>56</ele>
        <time>2021-03-21T08:43:36Z</time>
      </trkpt>
      <trkpt lat="43.61264" lon="3.87163">
        <ele>56</ele>
        <time>2021-03-21T08:43:37Z</time>
      </trkpt>
      <trkpt lat="43.61265" lon="3.87157">
        <ele>56</ele>
        <time>2021-03-21T08:43:38Z</time>
      </trkpt>
      <trkpt lat="43.61267" lon="3.87152">
        <ele>54</ele>
        <time>2021-03-21T08:43:39Z</time>
      </trkpt>
      <trkpt lat="43.61268" lon="3.87146">
        <ele>54</ele>
        <time>2021-03-21T08:43:40Z</time>
      </trkpt>
      <trkpt lat="43.61269" lon="3.87141">
        <ele>54</ele>
        <time>2021-03-21T08:43:41Z</time>
      </trkpt>
      <trkpt lat="43.6127" lon="3.87134">
        <ele>54</ele>
        <time>2021-03-21T08:43:42Z</time>
      </trkpt>
      <trkpt lat="43.61271" lon="3.87128">
        <ele>54</ele>
        <time>2021-03-21T08:43:43Z</time>
      </trkpt>
      <trkpt lat="43.61272" lon="3.87121">
        <ele>54</ele>
        <time>2021-03-21T08:43:44Z</time>
      </trkpt>
      <trkpt lat="43.61273" lon="3.87116">
        <ele>54</ele>
        <time>2021-03-21T08:43:45Z</time>
      </trkpt>
      <trkpt lat="43.61274" lon="3.8711">
        <ele>54</ele>
        <time>2021-03-21T08:43:46Z</time>
      </trkpt>
      <trkpt lat="43.61274" lon="3.87103">
        <ele>54</ele>
        <time>2021-03-21T08:43:47Z</time>
      </trkpt>
      <trkpt lat="43.61274" lon="3.87096">
        <ele>54</ele>
        <time>2021-03-21T08:43:48Z</time>
      </trkpt>
      <trkpt lat="43.61276" lon="3.8709">
        <ele>53</ele>
        <time>2021-03-21T08:43:49Z</time>
      </trkpt>
      <trkpt lat="43.61278" lon="3.87085">
        <ele>53</ele>
        <time>2021-03-21T08:43:50Z</time>
      </trkpt>
      <trkpt lat="43.6128" lon="3.87079">
        <ele>53</ele>
        <time>2021-03-21T08:43:51Z</time>
      </trkpt>
      <trkpt lat="43.61281" lon="3.87074">
        <ele>53</ele>
        <time>2021-03-21T08:43:52Z</time>
      </trkpt>
      <trkpt lat="43.61282" lon="3.87068">
        <ele>53</ele>
        <time>2021-03-21T08:43:53Z</time>
      </trkpt>
      <trkpt lat="43.61283" lon="3.87061">
        <ele>53</ele>
        <time>2021-03-21T08:43:54Z</time>
      </trkpt>
      <trkpt lat="43.61285" lon="3.87055">
        <ele>53</ele>
        <time>2021-03-21T08:43:55Z</time>
      </trkpt>
      <trkpt lat="43.61287" lon="3.8705">
        <ele>53</ele>
        <time>2021-03-21T08:43:56Z</time>
      </trkpt>
      <trkpt lat="43.61288" lon="3.87044">
        <ele>53</ele>
        <time>2021-03-21T08:43:57Z</time>
      </trkpt>
      <trkpt lat="43.61289" lon="3.87038">
        <ele>53</ele>
        <time>2021-03-21T08:43:58Z</time>
      </trkpt>
      <trkpt lat="43.6129" lon="3.87032">
        <ele>52</ele>
        <time>2021-03-21T08:43:59Z</time>
      </trkpt>
      <trkpt lat="43.61293" lon="3.8702">
        <ele>52</ele>
        <time>2021-03-21T08:44:00Z</time>
      </trkpt>
      <trkpt lat="43.61294" lon="3.87013">
        <ele>52</ele>
        <time>2021-03-21T08:44:01Z</time>
      </trkpt>
      <trkpt lat="43.61296" lon="3.87007">
        <ele>52</ele>
        <time>2021-03-21T08:44:02Z</time>
      </trkpt>
      <trkpt lat="43.61297" lon="3.87">
        <ele>52</ele>
        <time>2021-03-21T08:44:03Z</time>
      </trkpt>
      <trkpt lat="43.61299" lon="3.86994">
        <ele>52</ele>
        <time>2021-03-21T08:44:04Z</time>
      </trkpt>
      <trkpt lat="43.613" lon="3.86987">
        <ele>52</ele>
        <time>2021-03-21T08:44:05Z</time>
      </trkpt>
      <trkpt lat="43.61302" lon="3.86975">
        <ele>52</ele>
        <time>2021-03-21T08:44:07Z</time>
      </trkpt>
      <trkpt lat="43.61304" lon="3.86969">
        <ele>52</ele>
        <time>2021-03-21T08:44:08Z</time>
      </trkpt>
      <trkpt lat="43.61306" lon="3.86962">
        <ele>52</ele>
        <time>2021-03-21T08:44:10Z</time>
      </trkpt>
      <trkpt lat="43.61308" lon="3.86955">
        <ele>52</ele>
        <time>2021-03-21T08:44:11Z</time>
      </trkpt>
      <trkpt lat="43.61308" lon="3.86948">
        <ele>52</ele>
        <time>2021-03-21T08:44:12Z</time>
      </trkpt>
      <trkpt lat="43.61308" lon="3.8694">
        <ele>52</ele>
        <time>2021-03-21T08:44:13Z</time>
      </trkpt>
      <trkpt lat="43.61308" lon="3.86932">
        <ele>52</ele>
        <time>2021-03-21T08:44:14Z</time>
      </trkpt>
      <trkpt lat="43.61308" lon="3.86925">
        <ele>52</ele>
        <time>2021-03-21T08:44:15Z</time>
      </trkpt>
      <trkpt lat="43.61309" lon="3.86919">
        <ele>52</ele>
        <time>2021-03-21T08:44:16Z</time>
      </trkpt>
      <trkpt lat="43.6131" lon="3.86914">
        <ele>52</ele>
        <time>2021-03-21T08:44:17Z</time>
      </trkpt>
      <trkpt lat="43.61313" lon="3.86908">
        <ele>52</ele>
        <time>2021-03-21T08:44:18Z</time>
      </trkpt>
      <trkpt lat="43.61315" lon="3.86902">
        <ele>47</ele>
        <time>2021-03-21T08:44:19Z</time>
      </trkpt>
      <trkpt lat="43.61317" lon="3.86895">
        <ele>47</ele>
        <time>2021-03-21T08:44:20Z</time>
      </trkpt>
      <trkpt lat="43.61318" lon="3.86886">
        <ele>47</ele>
        <time>2021-03-21T08:44:21Z</time>
      </trkpt>
      <trkpt lat="43.61319" lon="3.86878">
        <ele>47</ele>
        <time>2021-03-21T08:44:22Z</time>
      </trkpt>
      <trkpt lat="43.6132" lon="3.8687">
        <ele>47</ele>
        <time>2021-03-21T08:44:23Z</time>
      </trkpt>
      <trkpt lat="43.61322" lon="3.86864">
        <ele>47</ele>
        <time>2021-03-21T08:44:24Z</time>
      </trkpt>
      <trkpt lat="43.61323" lon="3.86857">
        <ele>47</ele>
        <time>2021-03-21T08:44:25Z</time>
      </trkpt>
      <trkpt lat="43.61322" lon="3.8685">
        <ele>47</ele>
        <time>2021-03-21T08:44:26Z</time>
      </trkpt>
      <trkpt lat="43.61322" lon="3.86843">
        <ele>47</ele>
        <time>2021-03-21T08:44:27Z</time>
      </trkpt>
      <trkpt lat="43.61322" lon="3.86836">
        <ele>47</ele>
        <time>2021-03-21T08:44:28Z</time>
      </trkpt>
      <trkpt lat="43.61323" lon="3.86829">
        <ele>47</ele>
        <time>2021-03-21T08:44:29Z</time>
      </trkpt>
      <trkpt lat="43.61324" lon="3.86815">
        <ele>45</ele>
        <time>2021-03-21T08:44:30Z</time>
      </trkpt>
      <trkpt lat="43.61324" lon="3.86809">
        <ele>45</ele>
        <time>2021-03-21T08:44:31Z</time>
      </trkpt>
      <trkpt lat="43.61325" lon="3.86802">
        <ele>45</ele>
        <time>2021-03-21T08:44:32Z</time>
      </trkpt>
      <trkpt lat="43.61326" lon="3.86796">
        <ele>45</ele>
        <time>2021-03-21T08:44:33Z</time>
      </trkpt>
      <trkpt lat="43.61327" lon="3.86791">
        <ele>45</ele>
        <time>2021-03-21T08:44:34Z</time>
      </trkpt>
      <trkpt lat="43.61327" lon="3.86787">
        <ele>45</ele>
        <time>2021-03-21T08:44:35Z</time>
      </trkpt>
      <trkpt lat="43.61327" lon="3.86783">
        <ele>45</ele>
        <time>2021-03-21T08:44:36Z</time>
      </trkpt>
      <trkpt lat="43.61329" lon="3.86778">
        <ele>45</ele>
        <time>2021-03-21T08:44:37Z</time>
      </trkpt>
      <trkpt lat="43.61331" lon="3.86773">
        <ele>45</ele>
        <time>2021-03-21T08:44:38Z</time>
      </trkpt>
      <trkpt lat="43.61334" lon="3.86769">
        <ele>45</ele>
        <time>2021-03-21T08:44:40Z</time>
      </trkpt>
      <trkpt lat="43.61336" lon="3.86764">
        <ele>45</ele>
        <time>2021-03-21T08:44:41Z</time>
      </trkpt>
      <trkpt lat="43.61339" lon="3.86758">
        <ele>45</ele>
        <time>2021-03-21T08:44:42Z</time>
      </trkpt>
      <trkpt lat="43.61341" lon="3.86753">
        <ele>45</ele>
        <time>2021-03-21T08:44:43Z</time>
      </trkpt>
      <trkpt lat="43.61344" lon="3.86747">
        <ele>45</ele>
        <time>2021-03-21T08:44:44Z</time>
      </trkpt>
      <trkpt lat="43.61346" lon="3.86741">
        <ele>45</ele>
        <time>2021-03-21T08:44:45Z</time>
      </trkpt>
      <trkpt lat="43.61348" lon="3.86735">
        <ele>45</ele>
        <time>2021-03-21T08:44:46Z</time>
      </trkpt>
      <trkpt lat="43.61351" lon="3.8673">
        <ele>45</ele>
        <time>2021-03-21T08:44:47Z</time>
      </trkpt>
      <trkpt lat="43.61353" lon="3.86724">
        <ele>45</ele>
        <time>2021-03-21T08:44:48Z</time>
      </trkpt>
      <trkpt lat="43.61355" lon="3.86718">
        <ele>43</ele>
        <time>2021-03-21T08:44:49Z</time>
      </trkpt>
      <trkpt lat="43.61359" lon="3.86706">
        <ele>43</ele>
        <time>2021-03-21T08:44:50Z</time>
      </trkpt>
      <trkpt lat="43.61361" lon="3.86701">
        <ele>43</ele>
        <time>2021-03-21T08:44:51Z</time>
      </trkpt>
      <trkpt lat="43.61362" lon="3.86696">
        <ele>43</ele>
        <time>2021-03-21T08:44:52Z</time>
      </trkpt>
      <trkpt lat="43.61364" lon="3.86691">
        <ele>43</ele>
        <time>2021-03-21T08:44:53Z</time>
      </trkpt>
      <trkpt lat="43.61366" lon="3.86685">
        <ele>43</ele>
        <time>2021-03-21T08:44:54Z</time>
      </trkpt>
      <trkpt lat="43.61367" lon="3.86679">
        <ele>43</ele>
        <time>2021-03-21T08:44:55Z</time>
      </trkpt>
      <trkpt lat="43.61369" lon="3.86674">
        <ele>43</ele>
        <time>2021-03-21T08:44:56Z</time>
      </trkpt>
      <trkpt lat="43.6137" lon="3.86668">
        <ele>43</ele>
        <time>2021-03-21T08:44:57Z</time>
      </trkpt>
      <trkpt lat="43.61372" lon="3.86663">
        <ele>43</ele>
        <time>2021-03-21T08:44:58Z</time>
      </trkpt>
      <trkpt lat="43.61372" lon="3.86659">
        <ele>43</ele>
        <time>2021-03-21T08:45:00Z</time>
      </trkpt>
      <trkpt lat="43.61371" lon="3.86656">
        <ele>43</ele>
        <time>2021-03-21T08:45:01Z</time>
      </trkpt>
      <trkpt lat="43.61373" lon="3.86651">
        <ele>43</ele>
        <time>2021-03-21T08:45:03Z</time>
      </trkpt>
      <trkpt lat="43.61373" lon="3.86647">
        <ele>43</ele>
        <time>2021-03-21T08:45:04Z</time>
      </trkpt>
      <trkpt lat="43.61373" lon="3.86643">
        <ele>43</ele>
        <time>2021-03-21T08:45:05Z</time>
      </trkpt>
      <trkpt lat="43.61374" lon="3.86639">
        <ele>43</ele>
        <time>2021-03-21T08:45:06Z</time>
      </trkpt>
      <trkpt lat="43.61374" lon="3.86634">
        <ele>43</ele>
        <time>2021-03-21T08:45:07Z</time>
      </trkpt>
      <trkpt lat="43.61375" lon="3.8663">
        <ele>43</ele>
        <time>2021-03-21T08:45:08Z</time>
      </trkpt>
      <trkpt lat="43.61376" lon="3.86625">
        <ele>43</ele>
        <time>2021-03-21T08:45:09Z</time>
      </trkpt>
      <trkpt lat="43.61378" lon="3.86621">
        <ele>43</ele>
        <time>2021-03-21T08:45:10Z</time>
      </trkpt>
      <trkpt lat="43.61379" lon="3.86616">
        <ele>43</ele>
        <time>2021-03-21T08:45:11Z</time>
      </trkpt>
      <trkpt lat="43.6138" lon="3.86612">
        <ele>43</ele>
        <time>2021-03-21T08:45:12Z</time>
      </trkpt>
      <trkpt lat="43.61382" lon="3.86608">
        <ele>43</ele>
        <time>2021-03-21T08:45:13Z</time>
      </trkpt>
      <trkpt lat="43.61385" lon="3.86603">
        <ele>43</ele>
        <time>2021-03-21T08:45:14Z</time>
      </trkpt>
      <trkpt lat="43.61387" lon="3.86599">
        <ele>43</ele>
        <time>2021-03-21T08:45:15Z</time>
      </trkpt>
      <trkpt lat="43.6139" lon="3.86594">
        <ele>43</ele>
        <time>2021-03-21T08:45:16Z</time>
      </trkpt>
      <trkpt lat="43.61393" lon="3.8659">
        <ele>43</ele>
        <time>2021-03-21T08:45:17Z</time>
      </trkpt>
      <trkpt lat="43.61396" lon="3.86586">
        <ele>43</ele>
        <time>2021-03-21T08:45:18Z</time>
      </trkpt>
      <trkpt lat="43.61399" lon="3.86582">
        <ele>42</ele>
        <time>2021-03-21T08:45:19Z</time>
      </trkpt>
      <trkpt lat="43.61402" lon="3.86578">
        <ele>42</ele>
        <time>2021-03-21T08:45:20Z</time>
      </trkpt>
      <trkpt lat="43.61404" lon="3.86574">
        <ele>42</ele>
        <time>2021-03-21T08:45:21Z</time>
      </trkpt>
      <trkpt lat="43.61406" lon="3.86568">
        <ele>42</ele>
        <time>2021-03-21T08:45:22Z</time>
      </trkpt>
      <trkpt lat="43.61407" lon="3.86563">
        <ele>42</ele>
        <time>2021-03-21T08:45:23Z</time>
      </trkpt>
      <trkpt lat="43.61409" lon="3.86559">
        <ele>42</ele>
        <time>2021-03-21T08:45:24Z</time>
      </trkpt>
      <trkpt lat="43.61412" lon="3.86555">
        <ele>42</ele>
        <time>2021-03-21T08:45:25Z</time>
      </trkpt>
      <trkpt lat="43.61415" lon="3.86551">
        <ele>42</ele>
        <time>2021-03-21T08:45:26Z</time>
      </trkpt>
      <trkpt lat="43.61417" lon="3.86547">
        <ele>42</ele>
        <time>2021-03-21T08:45:27Z</time>
      </trkpt>
      <trkpt lat="43.6142" lon="3.86543">
        <ele>42</ele>
        <time>2021-03-21T08:45:28Z</time>
      </trkpt>
      <trkpt lat="43.61422" lon="3.86539">
        <ele>43</ele>
        <time>2021-03-21T08:45:29Z</time>
      </trkpt>
      <trkpt lat="43.61425" lon="3.86535">
        <ele>43</ele>
        <time>2021-03-21T08:45:30Z</time>
      </trkpt>
      <trkpt lat="43.61427" lon="3.86531">
        <ele>43</ele>
        <time>2021-03-21T08:45:31Z</time>
      </trkpt>
      <trkpt lat="43.6143" lon="3.86527">
        <ele>43</ele>
        <time>2021-03-21T08:45:32Z</time>
      </trkpt>
      <trkpt lat="43.61433" lon="3.86524">
        <ele>43</ele>
        <time>2021-03-21T08:45:33Z</time>
      </trkpt>
      <trkpt lat="43.61436" lon="3.8652">
        <ele>43</ele>
        <time>2021-03-21T08:45:34Z</time>
      </trkpt>
      <trkpt lat="43.61439" lon="3.86517">
        <ele>43</ele>
        <time>2021-03-21T08:45:35Z</time>
      </trkpt>
      <trkpt lat="43.61441" lon="3.86513">
        <ele>43</ele>
        <time>2021-03-21T08:45:36Z</time>
      </trkpt>
      <trkpt lat="43.61444" lon="3.86509">
        <ele>43</ele>
        <time>2021-03-21T08:45:37Z</time>
      </trkpt>
      <trkpt lat="43.61446" lon="3.86505">
        <ele>43</ele>
        <time>2021-03-21T08:45:38Z</time>
      </trkpt>
      <trkpt lat="43.61449" lon="3.86502">
        <ele>43</ele>
        <time>2021-03-21T08:45:39Z</time>
      </trkpt>
      <trkpt lat="43.61452" lon="3.86497">
        <ele>43</ele>
        <time>2021-03-21T08:45:40Z</time>
      </trkpt>
      <trkpt lat="43.61454" lon="3.86493">
        <ele>43</ele>
        <time>2021-03-21T08:45:41Z</time>
      </trkpt>
      <trkpt lat="43.61457" lon="3.8649">
        <ele>43</ele>
        <time>2021-03-21T08:45:42Z</time>
      </trkpt>
      <trkpt lat="43.6146" lon="3.86486">
        <ele>43</ele>
        <time>2021-03-21T08:45:43Z</time>
      </trkpt>
      <trkpt lat="43.61463" lon="3.86482">
        <ele>43</ele>
        <time>2021-03-21T08:45:44Z</time>
      </trkpt>
      <trkpt lat="43.61465" lon="3.86478">
        <ele>43</ele>
        <time>2021-03-21T08:45:45Z</time>
      </trkpt>
      <trkpt lat="43.61468" lon="3.86474">
        <ele>43</ele>
        <time>2021-03-21T08:45:46Z</time>
      </trkpt>
      <trkpt lat="43.6147" lon="3.8647">
        <ele>43</ele>
        <time>2021-03-21T08:45:47Z</time>
      </trkpt>
      <trkpt lat="43.61473" lon="3.86466">
        <ele>43</ele>
        <time>2021-03-21T08:45:48Z</time>
      </trkpt>
      <trkpt lat="43.61475" lon="3.86463">
        <ele>43</ele>
        <time>2021-03-21T08:45:49Z</time>
      </trkpt>
      <trkpt lat="43.61478" lon="3.86459">
        <ele>43</ele>
        <time>2021-03-21T08:45:50Z</time>
      </trkpt>
      <trkpt lat="43.61481" lon="3.86455">
        <ele>43</ele>
        <time>2021-03-21T08:45:51Z</time>
      </trkpt>
      <trkpt lat="43.61484" lon="3.86452">
        <ele>43</ele>
        <time>2021-03-21T08:45:52Z</time>
      </trkpt>
      <trkpt lat="43.61487" lon="3.86448">
        <ele>43</ele>
        <time>2021-03-21T08:45:53Z</time>
      </trkpt>
      <trkpt lat="43.61489" lon="3.86443">
        <ele>43</ele>
        <time>2021-03-21T08:45:54Z</time>
      </trkpt>
      <trkpt lat="43.61492" lon="3.86439">
        <ele>43</ele>
        <time>2021-03-21T08:45:55Z</time>
      </trkpt>
      <trkpt lat="43.61495" lon="3.86435">
        <ele>43</ele>
        <time>2021-03-21T08:45:56Z</time>
      </trkpt>
      <trkpt lat="43.61498" lon="3.86431">
        <ele>43</ele>
        <time>2021-03-21T08:45:57Z</time>
      </trkpt>
      <trkpt lat="43.61501" lon="3.86427">
        <ele>43</ele>
        <time>2021-03-21T08:45:58Z</time>
      </trkpt>
      <trkpt lat="43.61504" lon="3.86423">
        <ele>44</ele>
        <time>2021-03-21T08:45:59Z</time>
      </trkpt>
      <trkpt lat="43.61507" lon="3.86419">
        <ele>44</ele>
        <time>2021-03-21T08:46:00Z</time>
      </trkpt>
      <trkpt lat="43.6151" lon="3.86414">
        <ele>44</ele>
        <time>2021-03-21T08:46:01Z</time>
      </trkpt>
      <trkpt lat="43.61513" lon="3.86409">
        <ele>44</ele>
        <time>2021-03-21T08:46:02Z</time>
      </trkpt>
      <trkpt lat="43.61516" lon="3.86405">
        <ele>44</ele>
        <time>2021-03-21T08:46:03Z</time>
      </trkpt>
      <trkpt lat="43.61519" lon="3.86401">
        <ele>44</ele>
        <time>2021-03-21T08:46:04Z</time>
      </trkpt>
      <trkpt lat="43.61522" lon="3.86397">
        <ele>44</ele>
        <time>2021-03-21T08:46:05Z</time>
      </trkpt>
      <trkpt lat="43.61525" lon="3.86393">
        <ele>44</ele>
        <time>2021-03-21T08:46:06Z</time>
      </trkpt>
      <trkpt lat="43.61527" lon="3.86389">
        <ele>44</ele>
        <time>2021-03-21T08:46:07Z</time>
      </trkpt>
      <trkpt lat="43.61529" lon="3.86384">
        <ele>44</ele>
        <time>2021-03-21T08:46:08Z</time>
      </trkpt>
      <trkpt lat="43.61532" lon="3.8638">
        <ele>44</ele>
        <time>2021-03-21T08:46:09Z</time>
      </trkpt>
      <trkpt lat="43.61535" lon="3.86375">
        <ele>44</ele>
        <time>2021-03-21T08:46:10Z</time>
      </trkpt>
      <trkpt lat="43.61537" lon="3.86371">
        <ele>44</ele>
        <time>2021-03-21T08:46:11Z</time>
      </trkpt>
      <trkpt lat="43.6154" lon="3.86366">
        <ele>44</ele>
        <time>2021-03-21T08:46:12Z</time>
      </trkpt>
      <trkpt lat="43.61543" lon="3.86362">
        <ele>44</ele>
        <time>2021-03-21T08:46:13Z</time>
      </trkpt>
      <trkpt lat="43.61546" lon="3.86359">
        <ele>44</ele>
        <time>2021-03-21T08:46:14Z</time>
      </trkpt>
      <trkpt lat="43.61549" lon="3.86354">
        <ele>44</ele>
        <time>2021-03-21T08:46:15Z</time>
      </trkpt>
      <trkpt lat="43.61552" lon="3.86349">
        <ele>44</ele>
        <time>2021-03-21T08:46:16Z</time>
      </trkpt>
      <trkpt lat="43.61555" lon="3.86345">
        <ele>44</ele>
        <time>2021-03-21T08:46:17Z</time>
      </trkpt>
      <trkpt lat="43.61557" lon="3.8634">
        <ele>44</ele>
        <time>2021-03-21T08:46:18Z</time>
      </trkpt>
      <trkpt lat="43.6156" lon="3.86336">
        <ele>44</ele>
        <time>2021-03-21T08:46:19Z</time>
      </trkpt>
      <trkpt lat="43.61563" lon="3.86332">
        <ele>44</ele>
        <time>2021-03-21T08:46:20Z</time>
      </trkpt>
      <trkpt lat="43.61566" lon="3.86327">
        <ele>44</ele>
        <time>2021-03-21T08:46:21Z</time>
      </trkpt>
      <trkpt lat="43.61569" lon="3.86323">
        <ele>44</ele>
        <time>2021-03-21T08:46:22Z</time>
      </trkpt>
      <trkpt lat="43.61573" lon="3.86319">
        <ele>44</ele>
        <time>2021-03-21T08:46:23Z</time>
      </trkpt>
      <trkpt lat="43.61575" lon="3.86314">
        <ele>44</ele>
        <time>2021-03-21T08:46:24Z</time>
      </trkpt>
      <trkpt lat="43.61578" lon="3.8631">
        <ele>44</ele>
        <time>2021-03-21T08:46:25Z</time>
      </trkpt>
      <trkpt lat="43.61581" lon="3.86306">
        <ele>44</ele>
        <time>2021-03-21T08:46:26Z</time>
      </trkpt>
      <trkpt lat="43.61583" lon="3.86302">
        <ele>44</ele>
        <time>2021-03-21T08:46:27Z</time>
      </trkpt>
      <trkpt lat="43.61586" lon="3.86298">
        <ele>44</ele>
        <time>2021-03-21T08:46:28Z</time>
      </trkpt>
      <trkpt lat="43.61589" lon="3.86294">
        <ele>45</ele>
        <time>2021-03-21T08:46:29Z</time>
      </trkpt>
      <trkpt lat="43.61591" lon="3.8629">
        <ele>45</ele>
        <time>2021-03-21T08:46:30Z</time>
      </trkpt>
      <trkpt lat="43.61594" lon="3.86286">
        <ele>45</ele>
        <time>2021-03-21T08:46:31Z</time>
      </trkpt>
      <trkpt lat="43.61597" lon="3.86282">
        <ele>45</ele>
        <time>2021-03-21T08:46:32Z</time>
      </trkpt>
      <trkpt lat="43.616" lon="3.86279">
        <ele>45</ele>
        <time>2021-03-21T08:46:33Z</time>
      </trkpt>
      <trkpt lat="43.61603" lon="3.86275">
        <ele>45</ele>
        <time>2021-03-21T08:46:34Z</time>
      </trkpt>
      <trkpt lat="43.61606" lon="3.86271">
        <ele>45</ele>
        <time>2021-03-21T08:46:35Z</time>
      </trkpt>
      <trkpt lat="43.61609" lon="3.86267">
        <ele>45</ele>
        <time>2021-03-21T08:46:36Z</time>
      </trkpt>
      <trkpt lat="43.61612" lon="3.86263">
        <ele>45</ele>
        <time>2021-03-21T08:46:37Z</time>
      </trkpt>
      <trkpt lat="43.61615" lon="3.86259">
        <ele>45</ele>
        <time>2021-03-21T08:46:38Z</time>
      </trkpt>
      <trkpt lat="43.61618" lon="3.86255">
        <ele>45</ele>
        <time>2021-03-21T08:46:39Z</time>
      </trkpt>
      <trkpt lat="43.61621" lon="3.86251">
        <ele>45</ele>
        <time>2021-03-21T08:46:40Z</time>
      </trkpt>
      <trkpt lat="43.61623" lon="3.86247">
        <ele>45</ele>
        <time>2021-03-21T08:46:41Z</time>
      </trkpt>
      <trkpt lat="43.61626" lon="3.86242">
        <ele>45</ele>
        <time>2021-03-21T08:46:42Z</time>
      </trkpt>
      <trkpt lat="43.61629" lon="3.86238">
        <ele>45</ele>
        <time>2021-03-21T08:46:43Z</time>
      </trkpt>
      <trkpt lat="43.61632" lon="3.86234">
        <ele>45</ele>
        <time>2021-03-21T08:46:44Z</time>
      </trkpt>
      <trkpt lat="43.61635" lon="3.8623">
        <ele>45</ele>
        <time>2021-03-21T08:46:45Z</time>
      </trkpt>
      <trkpt lat="43.61638" lon="3.86226">
        <ele>45</ele>
        <time>2021-03-21T08:46:46Z</time>
      </trkpt>
      <trkpt lat="43.61641" lon="3.86221">
        <ele>45</ele>
        <time>2021-03-21T08:46:47Z</time>
      </trkpt>
      <trkpt lat="43.61644" lon="3.86217">
        <ele>45</ele>
        <time>2021-03-21T08:46:48Z</time>
      </trkpt>
      <trkpt lat="43.61647" lon="3.86213">
        <ele>46</ele>
        <time>2021-03-21T08:46:49Z</time>
      </trkpt>
      <trkpt lat="43.6165" lon="3.86208">
        <ele>46</ele>
        <time>2021-03-21T08:46:50Z</time>
      </trkpt>
      <trkpt lat="43.61653" lon="3.86204">
        <ele>46</ele>
        <time>2021-03-21T08:46:51Z</time>
      </trkpt>
      <trkpt lat="43.61656" lon="3.862">
        <ele>46</ele>
        <time>2021-03-21T08:46:52Z</time>
      </trkpt>
      <trkpt lat="43.61659" lon="3.86196">
        <ele>46</ele>
        <time>2021-03-21T08:46:53Z</time>
      </trkpt>
      <trkpt lat="43.61662" lon="3.86192">
        <ele>46</ele>
        <time>2021-03-21T08:46:54Z</time>
      </trkpt>
      <trkpt lat="43.61665" lon="3.86187">
        <ele>46</ele>
        <time>2021-03-21T08:46:55Z</time>
      </trkpt>
      <trkpt lat="43.61667" lon="3.86183">
        <ele>46</ele>
        <time>2021-03-21T08:46:56Z</time>
      </trkpt>
      <trkpt lat="43.6167" lon="3.86179">
        <ele>46</ele>
        <time>2021-03-21T08:46:57Z</time>
      </trkpt>
      <trkpt lat="43.61673" lon="3.86174">
        <ele>46</ele>
        <time>2021-03-21T08:46:58Z</time>
      </trkpt>
      <trkpt lat="43.61676" lon="3.8617">
        <ele>45</ele>
        <time>2021-03-21T08:46:59Z</time>
      </trkpt>
      <trkpt lat="43.61679" lon="3.86166">
        <ele>45</ele>
        <time>2021-03-21T08:47:00Z</time>
      </trkpt>
      <trkpt lat="43.61682" lon="3.86162">
        <ele>45</ele>
        <time>2021-03-21T08:47:01Z</time>
      </trkpt>
      <trkpt lat="43.61684" lon="3.86158">
        <ele>45</ele>
        <time>2021-03-21T08:47:02Z</time>
      </trkpt>
      <trkpt lat="43.61687" lon="3.86154">
        <ele>45</ele>
        <time>2021-03-21T08:47:03Z</time>
      </trkpt>
      <trkpt lat="43.6169" lon="3.8615">
        <ele>45</ele>
        <time>2021-03-21T08:47:04Z</time>
      </trkpt>
      <trkpt lat="43.61692" lon="3.86146">
        <ele>45</ele>
        <time>2021-03-21T08:47:05Z</time>
      </trkpt>
      <trkpt lat="43.61695" lon="3.86143">
        <ele>45</ele>
        <time>2021-03-21T08:47:06Z</time>
      </trkpt>
      <trkpt lat="43.61697" lon="3.8614">
        <ele>45</ele>
        <time>2021-03-21T08:47:07Z</time>
      </trkpt>
      <trkpt lat="43.61699" lon="3.86138">
        <ele>45</ele>
        <time>2021-03-21T08:47:08Z</time>
      </trkpt>
      <trkpt lat="43.61701" lon="3.86135">
        <ele>45</ele>
        <time>2021-03-21T08:47:10Z</time>
      </trkpt>
      <trkpt lat="43.61703" lon="3.86133">
        <ele>45</ele>
        <time>2021-03-21T08:47:11Z</time>
      </trkpt>
      <trkpt lat="43.61705" lon="3.8613">
        <ele>45</ele>
        <time>2021-03-21T08:47:12Z</time>
      </trkpt>
      <trkpt lat="43.61707" lon="3.86126">
        <ele>45</ele>
        <time>2021-03-21T08:47:13Z</time>
      </trkpt>
      <trkpt lat="43.61709" lon="3.86123">
        <ele>45</ele>
        <time>2021-03-21T08:47:14Z</time>
      </trkpt>
      <trkpt lat="43.61711" lon="3.86119">
        <ele>45</ele>
        <time>2021-03-21T08:47:15Z</time>
      </trkpt>
      <trkpt lat="43.61714" lon="3.86115">
        <ele>45</ele>
        <time>2021-03-21T08:47:16Z</time>
      </trkpt>
      <trkpt lat="43.61717" lon="3.86111">
        <ele>45</ele>
        <time>2021-03-21T08:47:17Z</time>
      </trkpt>
      <trkpt lat="43.61719" lon="3.86107">
        <ele>45</ele>
        <time>2021-03-21T08:47:18Z</time>
      </trkpt>
      <trkpt lat="43.61722" lon="3.86103">
        <ele>46</ele>
        <time>2021-03-21T08:47:19Z</time>
      </trkpt>
      <trkpt lat="43.61725" lon="3.86098">
        <ele>46</ele>
        <time>2021-03-21T08:47:20Z</time>
      </trkpt>
      <trkpt lat="43.61728" lon="3.86094">
        <ele>46</ele>
        <time>2021-03-21T08:47:21Z</time>
      </trkpt>
      <trkpt lat="43.61731" lon="3.8609">
        <ele>46</ele>
        <time>2021-03-21T08:47:22Z</time>
      </trkpt>
      <trkpt lat="43.61734" lon="3.86086">
        <ele>46</ele>
        <time>2021-03-21T08:47:23Z</time>
      </trkpt>
      <trkpt lat="43.61737" lon="3.86082">
        <ele>46</ele>
        <time>2021-03-21T08:47:24Z</time>
      </trkpt>
      <trkpt lat="43.6174" lon="3.86077">
        <ele>46</ele>
        <time>2021-03-21T08:47:25Z</time>
      </trkpt>
      <trkpt lat="43.61742" lon="3.86073">
        <ele>46</ele>
        <time>2021-03-21T08:47:26Z</time>
      </trkpt>
      <trkpt lat="43.61745" lon="3.86068">
        <ele>46</ele>
        <time>2021-03-21T08:47:27Z</time>
      </trkpt>
      <trkpt lat="43.61748" lon="3.86064">
        <ele>46</ele>
        <time>2021-03-21T08:47:28Z</time>
      </trkpt>
      <trkpt lat="43.61751" lon="3.8606">
        <ele>47</ele>
        <time>2021-03-21T08:47:29Z</time>
      </trkpt>
      <trkpt lat="43.61754" lon="3.86055">
        <ele>47</ele>
        <time>2021-03-21T08:47:30Z</time>
      </trkpt>
      <trkpt lat="43.61757" lon="3.86051">
        <ele>47</ele>
        <time>2021-03-21T08:47:31Z</time>
      </trkpt>
      <trkpt lat="43.6176" lon="3.86047">
        <ele>47</ele>
        <time>2021-03-21T08:47:32Z</time>
      </trkpt>
      <trkpt lat="43.61763" lon="3.86043">
        <ele>47</ele>
        <time>2021-03-21T08:47:33Z</time>
      </trkpt>
      <trkpt lat="43.61766" lon="3.86038">
        <ele>47</ele>
        <time>2021-03-21T08:47:34Z</time>
      </trkpt>
      <trkpt lat="43.61769" lon="3.86034">
        <ele>47</ele>
        <time>2021-03-21T08:47:35Z</time>
      </trkpt>
      <trkpt lat="43.61772" lon="3.8603">
        <ele>47</ele>
        <time>2021-03-21T08:47:36Z</time>
      </trkpt>
      <trkpt lat="43.61775" lon="3.86025">
        <ele>47</ele>
        <time>2021-03-21T08:47:37Z</time>
      </trkpt>
      <trkpt lat="43.61778" lon="3.86021">
        <ele>47</ele>
        <time>2021-03-21T08:47:38Z</time>
      </trkpt>
      <trkpt lat="43.61781" lon="3.86017">
        <ele>47</ele>
        <time>2021-03-21T08:47:39Z</time>
      </trkpt>
      <trkpt lat="43.61787" lon="3.86007">
        <ele>48</ele>
        <time>2021-03-21T08:47:40Z</time>
      </trkpt>
      <trkpt lat="43.6179" lon="3.86003">
        <ele>48</ele>
        <time>2021-03-21T08:47:41Z</time>
      </trkpt>
      <trkpt lat="43.61793" lon="3.85998">
        <ele>48</ele>
        <time>2021-03-21T08:47:42Z</time>
      </trkpt>
      <trkpt lat="43.61799" lon="3.85989">
        <ele>48</ele>
        <time>2021-03-21T08:47:44Z</time>
      </trkpt>
      <trkpt lat="43.61802" lon="3.85984">
        <ele>48</ele>
        <time>2021-03-21T08:47:45Z</time>
      </trkpt>
      <trkpt lat="43.61806" lon="3.85979">
        <ele>48</ele>
        <time>2021-03-21T08:47:46Z</time>
      </trkpt>
      <trkpt lat="43.61809" lon="3.85974">
        <ele>48</ele>
        <time>2021-03-21T08:47:47Z</time>
      </trkpt>
      <trkpt lat="43.61812" lon="3.85969">
        <ele>48</ele>
        <time>2021-03-21T08:47:48Z</time>
      </trkpt>
      <trkpt lat="43.61816" lon="3.85964">
        <ele>48</ele>
        <time>2021-03-21T08:47:50Z</time>
      </trkpt>
      <trkpt lat="43.6182" lon="3.85959">
        <ele>48</ele>
        <time>2021-03-21T08:47:51Z</time>
      </trkpt>
      <trkpt lat="43.61824" lon="3.85954">
        <ele>48</ele>
        <time>2021-03-21T08:47:52Z</time>
      </trkpt>
      <trkpt lat="43.61828" lon="3.85948">
        <ele>48</ele>
        <time>2021-03-21T08:47:53Z</time>
      </trkpt>
      <trkpt lat="43.61832" lon="3.85943">
        <ele>48</ele>
        <time>2021-03-21T08:47:54Z</time>
      </trkpt>
      <trkpt lat="43.61835" lon="3.85937">
        <ele>48</ele>
        <time>2021-03-21T08:47:55Z</time>
      </trkpt>
      <trkpt lat="43.61839" lon="3.85931">
        <ele>48</ele>
        <time>2021-03-21T08:47:56Z</time>
      </trkpt>
      <trkpt lat="43.61843" lon="3.85925">
        <ele>48</ele>
        <time>2021-03-21T08:47:57Z</time>
      </trkpt>
      <trkpt lat="43.61847" lon="3.85919">
        <ele>48</ele>
        <time>2021-03-21T08:47:58Z</time>
      </trkpt>
      <trkpt lat="43.61851" lon="3.85914">
        <ele>47</ele>
        <time>2021-03-21T08:47:59Z</time>
      </trkpt>
      <trkpt lat="43.61856" lon="3.85909">
        <ele>47</ele>
        <time>2021-03-21T08:48:00Z</time>
      </trkpt>
      <trkpt lat="43.6186" lon="3.85904">
        <ele>47</ele>
        <time>2021-03-21T08:48:01Z</time>
      </trkpt>
      <trkpt lat="43.61864" lon="3.859">
        <ele>47</ele>
        <time>2021-03-21T08:48:02Z</time>
      </trkpt>
      <trkpt lat="43.61869" lon="3.85896">
        <ele>47</ele>
        <time>2021-03-21T08:48:03Z</time>
      </trkpt>
      <trkpt lat="43.61873" lon="3.85893">
        <ele>47</ele>
        <time>2021-03-21T08:48:04Z</time>
      </trkpt>
      <trkpt lat="43.61877" lon="3.85889">
        <ele>47</ele>
        <time>2021-03-21T08:48:05Z</time>
      </trkpt>
      <trkpt lat="43.61882" lon="3.85886">
        <ele>47</ele>
        <time>2021-03-21T08:48:06Z</time>
      </trkpt>
      <trkpt lat="43.61886" lon="3.85882">
        <ele>47</ele>
        <time>2021-03-21T08:48:07Z</time>
      </trkpt>
      <trkpt lat="43.6189" lon="3.85878">
        <ele>47</ele>
        <time>2021-03-21T08:48:08Z</time>
      </trkpt>
      <trkpt lat="43.61894" lon="3.85874">
        <ele>47</ele>
        <time>2021-03-21T08:48:09Z</time>
      </trkpt>
      <trkpt lat="43.61899" lon="3.85871">
        <ele>47</ele>
        <time>2021-03-21T08:48:10Z</time>
      </trkpt>
      <trkpt lat="43.61905" lon="3.85868">
        <ele>47</ele>
        <time>2021-03-21T08:48:11Z</time>
      </trkpt>
      <trkpt lat="43.61911" lon="3.85866">
        <ele>47</ele>
        <time>2021-03-21T08:48:12Z</time>
      </trkpt>
      <trkpt lat="43.61918" lon="3.85865">
        <ele>47</ele>
        <time>2021-03-21T08:48:13Z</time>
      </trkpt>
      <trkpt lat="43.61924" lon="3.85864">
        <ele>47</ele>
        <time>2021-03-21T08:48:14Z</time>
      </trkpt>
      <trkpt lat="43.61931" lon="3.85862">
        <ele>47</ele>
        <time>2021-03-21T08:48:15Z</time>
      </trkpt>
      <trkpt lat="43.61937" lon="3.85861">
        <ele>47</ele>
        <time>2021-03-21T08:48:16Z</time>
      </trkpt>
      <trkpt lat="43.61943" lon="3.85861">
        <ele>47</ele>
        <time>2021-03-21T08:48:17Z</time>
      </trkpt>
      <trkpt lat="43.61949" lon="3.85863">
        <ele>47</ele>
        <time>2021-03-21T08:48:18Z</time>
      </trkpt>
      <trkpt lat="43.61955" lon="3.85864">
        <ele>47</ele>
        <time>2021-03-21T08:48:19Z</time>
      </trkpt>
      <trkpt lat="43.61961" lon="3.85866">
        <ele>47</ele>
        <time>2021-03-21T08:48:20Z</time>
      </trkpt>
      <trkpt lat="43.61967" lon="3.85866">
        <ele>47</ele>
        <time>2021-03-21T08:48:21Z</time>
      </trkpt>
      <trkpt lat="43.61973" lon="3.85867">
        <ele>47</ele>
        <time>2021-03-21T08:48:22Z</time>
      </trkpt>
      <trkpt lat="43.61979" lon="3.85867">
        <ele>47</ele>
        <time>2021-03-21T08:48:23Z</time>
      </trkpt>
      <trkpt lat="43.61985" lon="3.85868">
        <ele>47</ele>
        <time>2021-03-21T08:48:24Z</time>
      </trkpt>
      <trkpt lat="43.6199" lon="3.85867">
        <ele>47</ele>
        <time>2021-03-21T08:48:25Z</time>
      </trkpt>
      <trkpt lat="43.61996" lon="3.85866">
        <ele>47</ele>
        <time>2021-03-21T08:48:26Z</time>
      </trkpt>
      <trkpt lat="43.62002" lon="3.85865">
        <ele>47</ele>
        <time>2021-03-21T08:48:27Z</time>
      </trkpt>
      <trkpt lat="43.62007" lon="3.85863">
        <ele>47</ele>
        <time>2021-03-21T08:48:28Z</time>
      </trkpt>
      <trkpt lat="43.62012" lon="3.8586">
        <ele>47</ele>
        <time>2021-03-21T08:48:29Z</time>
      </trkpt>
      <trkpt lat="43.62017" lon="3.85858">
        <ele>47</ele>
        <time>2021-03-21T08:48:30Z</time>
      </trkpt>
      <trkpt lat="43.62022" lon="3.85854">
        <ele>47</ele>
        <time>2021-03-21T08:48:31Z</time>
      </trkpt>
      <trkpt lat="43.62027" lon="3.85851">
        <ele>47</ele>
        <time>2021-03-21T08:48:32Z</time>
      </trkpt>
      <trkpt lat="43.62032" lon="3.85846">
        <ele>47</ele>
        <time>2021-03-21T08:48:33Z</time>
      </trkpt>
      <trkpt lat="43.62037" lon="3.85841">
        <ele>47</ele>
        <time>2021-03-21T08:48:34Z</time>
      </trkpt>
      <trkpt lat="43.62041" lon="3.85836">
        <ele>47</ele>
        <time>2021-03-21T08:48:35Z</time>
      </trkpt>
      <trkpt lat="43.62044" lon="3.8583">
        <ele>47</ele>
        <time>2021-03-21T08:48:36Z</time>
      </trkpt>
      <trkpt lat="43.62047" lon="3.85824">
        <ele>47</ele>
        <time>2021-03-21T08:48:37Z</time>
      </trkpt>
      <trkpt lat="43.62049" lon="3.85818">
        <ele>47</ele>
        <time>2021-03-21T08:48:38Z</time>
      </trkpt>
      <trkpt lat="43.62051" lon="3.85811">
        <ele>45</ele>
        <time>2021-03-21T08:48:39Z</time>
      </trkpt>
      <trkpt lat="43.62054" lon="3.85805">
        <ele>45</ele>
        <time>2021-03-21T08:48:40Z</time>
      </trkpt>
      <trkpt lat="43.62056" lon="3.858">
        <ele>45</ele>
        <time>2021-03-21T08:48:41Z</time>
      </trkpt>
      <trkpt lat="43.62058" lon="3.85794">
        <ele>45</ele>
        <time>2021-03-21T08:48:42Z</time>
      </trkpt>
      <trkpt lat="43.6206" lon="3.85789">
        <ele>45</ele>
        <time>2021-03-21T08:48:43Z</time>
      </trkpt>
      <trkpt lat="43.62062" lon="3.85784">
        <ele>45</ele>
        <time>2021-03-21T08:48:44Z</time>
      </trkpt>
      <trkpt lat="43.62064" lon="3.8578">
        <ele>45</ele>
        <time>2021-03-21T08:48:45Z</time>
      </trkpt>
      <trkpt lat="43.62064" lon="3.85776">
        <ele>45</ele>
        <time>2021-03-21T08:48:46Z</time>
      </trkpt>
      <trkpt lat="43.62064" lon="3.85772">
        <ele>45</ele>
        <time>2021-03-21T08:48:47Z</time>
      </trkpt>
      <trkpt lat="43.62064" lon="3.85769">
        <ele>45</ele>
        <time>2021-03-21T08:48:48Z</time>
      </trkpt>
      <trkpt lat="43.62065" lon="3.85766">
        <ele>45</ele>
        <time>2021-03-21T08:48:49Z</time>
      </trkpt>
      <trkpt lat="43.62066" lon="3.85763">
        <ele>44</ele>
        <time>2021-03-21T08:48:50Z</time>
      </trkpt>
      <trkpt lat="43.62068" lon="3.85761">
        <ele>44</ele>
        <time>2021-03-21T08:48:51Z</time>
      </trkpt>
      <trkpt lat="43.62071" lon="3.85758">
        <ele>44</ele>
        <time>2021-03-21T08:48:52Z</time>
      </trkpt>
      <trkpt lat="43.62073" lon="3.85756">
        <ele>44</ele>
        <time>2021-03-21T08:48:53Z</time>
      </trkpt>
      <trkpt lat="43.62076" lon="3.85755">
        <ele>44</ele>
        <time>2021-03-21T08:48:54Z</time>
      </trkpt>
      <trkpt lat="43.6208" lon="3.85755">
        <ele>44</ele>
        <time>2021-03-21T08:48:55Z</time>
      </trkpt>
      <trkpt lat="43.62083" lon="3.85756">
        <ele>44</ele>
        <time>2021-03-21T08:48:56Z</time>
      </trkpt>
      <trkpt lat="43.62086" lon="3.8576">
        <ele>44</ele>
        <time>2021-03-21T08:48:57Z</time>
      </trkpt>
      <trkpt lat="43.62088" lon="3.85765">
        <ele>44</ele>
        <time>2021-03-21T08:48:58Z</time>
      </trkpt>
      <trkpt lat="43.62089" lon="3.85769">
        <ele>42</ele>
        <time>2021-03-21T08:48:59Z</time>
      </trkpt>
      <trkpt lat="43.62089" lon="3.85773">
        <ele>42</ele>
        <time>2021-03-21T08:49:00Z</time>
      </trkpt>
      <trkpt lat="43.6209" lon="3.85775">
        <ele>42</ele>
        <time>2021-03-21T08:49:01Z</time>
      </trkpt>
      <trkpt lat="43.6209" lon="3.85779">
        <ele>42</ele>
        <time>2021-03-21T08:49:03Z</time>
      </trkpt>
      <trkpt lat="43.62089" lon="3.85779">
        <ele>41</ele>
        <time>2021-03-21T08:49:10Z</time>
      </trkpt>
      <trkpt lat="43.62083" lon="3.85782">
        <ele>42</ele>
        <time>2021-03-21T08:59:50Z</time>
      </trkpt>
      <trkpt lat="43.62084" lon="3.85783">
        <ele>42</ele>
        <time>2021-03-21T08:59:51Z</time>
      </trkpt>
      <trkpt lat="43.62084" lon="3.85783">
        <ele>41</ele>
        <time>2021-03-21T09:00:01Z</time>
      </trkpt>
      <trkpt lat="43.6209" lon="3.85801">
        <ele>40</ele>
        <time>2021-03-21T09:00:12Z</time>
      </trkpt>
      <trkpt lat="43.62092" lon="3.85806">
        <ele>40</ele>
        <time>2021-03-21T09:00:13Z</time>
      </trkpt>
      <trkpt lat="43.62094" lon="3.8581">
        <ele>40</ele>
        <time>2021-03-21T09:00:14Z</time>
      </trkpt>
      <trkpt lat="43.62097" lon="3.85814">
        <ele>40</ele>
        <time>2021-03-21T09:00:15Z</time>
      </trkpt>
      <trkpt lat="43.62101" lon="3.85818">
        <ele>40</ele>
        <time>2021-03-21T09:00:16Z</time>
      </trkpt>
      <trkpt lat="43.62105" lon="3.85821">
        <ele>40</ele>
        <time>2021-03-21T09:00:17Z</time>
      </trkpt>
      <trkpt lat="43.62108" lon="3.85825">
        <ele>40</ele>
        <time>2021-03-21T09:00:18Z</time>
      </trkpt>
      <trkpt lat="43.62113" lon="3.85829">
        <ele>40</ele>
        <time>2021-03-21T09:00:19Z</time>
      </trkpt>
      <trkpt lat="43.62117" lon="3.85833">
        <ele>40</ele>
        <time>2021-03-21T09:00:20Z</time>
      </trkpt>
      <trkpt lat="43.62121" lon="3.85838">
        <ele>40</ele>
        <time>2021-03-21T09:00:21Z</time>
      </trkpt>
      <trkpt lat="43.62126" lon="3.85842">
        <ele>39</ele>
        <time>2021-03-21T09:00:22Z</time>
      </trkpt>
      <trkpt lat="43.62131" lon="3.85846">
        <ele>39</ele>
        <time>2021-03-21T09:00:23Z</time>
      </trkpt>
      <trkpt lat="43.62135" lon="3.85851">
        <ele>39</ele>
        <time>2021-03-21T09:00:24Z</time>
      </trkpt>
      <trkpt lat="43.62139" lon="3.85855">
        <ele>39</ele>
        <time>2021-03-21T09:00:25Z</time>
      </trkpt>
      <trkpt lat="43.62143" lon="3.85859">
        <ele>39</ele>
        <time>2021-03-21T09:00:26Z</time>
      </trkpt>
      <trkpt lat="43.62147" lon="3.85862">
        <ele>39</ele>
        <time>2021-03-21T09:00:27Z</time>
      </trkpt>
      <trkpt lat="43.62151" lon="3.85866">
        <ele>39</ele>
        <time>2021-03-21T09:00:28Z</time>
      </trkpt>
      <trkpt lat="43.62155" lon="3.8587">
        <ele>39</ele>
        <time>2021-03-21T09:00:29Z</time>
      </trkpt>
      <trkpt lat="43.62159" lon="3.85873">
        <ele>39</ele>
        <time>2021-03-21T09:00:30Z</time>
      </trkpt>
      <trkpt lat="43.62162" lon="3.85876">
        <ele>39</ele>
        <time>2021-03-21T09:00:31Z</time>
      </trkpt>
      <trkpt lat="43.62166" lon="3.8588">
        <ele>39</ele>
        <time>2021-03-21T09:00:32Z</time>
      </trkpt>
      <trkpt lat="43.6217" lon="3.85883">
        <ele>39</ele>
        <time>2021-03-21T09:00:33Z</time>
      </trkpt>
      <trkpt lat="43.62173" lon="3.85886">
        <ele>39</ele>
        <time>2021-03-21T09:00:34Z</time>
      </trkpt>
      <trkpt lat="43.62175" lon="3.85889">
        <ele>39</ele>
        <time>2021-03-21T09:00:35Z</time>
      </trkpt>
      <trkpt lat="43.62178" lon="3.85891">
        <ele>39</ele>
        <time>2021-03-21T09:00:36Z</time>
      </trkpt>
      <trkpt lat="43.62181" lon="3.85895">
        <ele>39</ele>
        <time>2021-03-21T09:00:37Z</time>
      </trkpt>
      <trkpt lat="43.62184" lon="3.85898">
        <ele>39</ele>
        <time>2021-03-21T09:00:38Z</time>
      </trkpt>
      <trkpt lat="43.62187" lon="3.85902">
        <ele>39</ele>
        <time>2021-03-21T09:00:39Z</time>
      </trkpt>
      <trkpt lat="43.6219" lon="3.85906">
        <ele>39</ele>
        <time>2021-03-21T09:00:40Z</time>
      </trkpt>
      <trkpt lat="43.62193" lon="3.8591">
        <ele>39</ele>
        <time>2021-03-21T09:00:41Z</time>
      </trkpt>
      <trkpt lat="43.62197" lon="3.85914">
        <ele>40</ele>
        <time>2021-03-21T09:00:42Z</time>
      </trkpt>
      <trkpt lat="43.622" lon="3.85918">
        <ele>40</ele>
        <time>2021-03-21T09:00:43Z</time>
      </trkpt>
      <trkpt lat="43.62203" lon="3.85923">
        <ele>40</ele>
        <time>2021-03-21T09:00:44Z</time>
      </trkpt>
      <trkpt lat="43.62206" lon="3.85927">
        <ele>40</ele>
        <time>2021-03-21T09:00:45Z</time>
      </trkpt>
      <trkpt lat="43.62209" lon="3.85931">
        <ele>40</ele>
        <time>2021-03-21T09:00:46Z</time>
      </trkpt>
      <trkpt lat="43.62211" lon="3.85935">
        <ele>40</ele>
        <time>2021-03-21T09:00:47Z</time>
      </trkpt>
      <trkpt lat="43.62214" lon="3.8594">
        <ele>40</ele>
        <time>2021-03-21T09:00:48Z</time>
      </trkpt>
      <trkpt lat="43.62217" lon="3.85943">
        <ele>40</ele>
        <time>2021-03-21T09:00:49Z</time>
      </trkpt>
      <trkpt lat="43.6222" lon="3.85947">
        <ele>40</ele>
        <time>2021-03-21T09:00:50Z</time>
      </trkpt>
      <trkpt lat="43.62223" lon="3.8595">
        <ele>40</ele>
        <time>2021-03-21T09:00:51Z</time>
      </trkpt>
      <trkpt lat="43.62225" lon="3.85954">
        <ele>40</ele>
        <time>2021-03-21T09:00:52Z</time>
      </trkpt>
      <trkpt lat="43.62228" lon="3.85957">
        <ele>40</ele>
        <time>2021-03-21T09:00:53Z</time>
      </trkpt>
      <trkpt lat="43.6223" lon="3.8596">
        <ele>40</ele>
        <time>2021-03-21T09:00:54Z</time>
      </trkpt>
      <trkpt lat="43.62233" lon="3.85964">
        <ele>40</ele>
        <time>2021-03-21T09:00:55Z</time>
      </trkpt>
      <trkpt lat="43.62235" lon="3.85968">
        <ele>40</ele>
        <time>2021-03-21T09:00:56Z</time>
      </trkpt>
      <trkpt lat="43.62238" lon="3.85971">
        <ele>40</ele>
        <time>2021-03-21T09:00:57Z</time>
      </trkpt>
      <trkpt lat="43.62241" lon="3.85975">
        <ele>40</ele>
        <time>2021-03-21T09:00:58Z</time>
      </trkpt>
      <trkpt lat="43.62244" lon="3.85979">
        <ele>40</ele>
        <time>2021-03-21T09:00:59Z</time>
      </trkpt>
      <trkpt lat="43.62247" lon="3.85983">
        <ele>40</ele>
        <time>2021-03-21T09:01:00Z</time>
      </trkpt>
      <trkpt lat="43.6225" lon="3.85986">
        <ele>40</ele>
        <time>2021-03-21T09:01:01Z</time>
      </trkpt>
      <trkpt lat="43.62254" lon="3.85989">
        <ele>41</ele>
        <time>2021-03-21T09:01:02Z</time>
      </trkpt>
      <trkpt lat="43.62257" lon="3.85993">
        <ele>41</ele>
        <time>2021-03-21T09:01:03Z</time>
      </trkpt>
      <trkpt lat="43.6226" lon="3.85998">
        <ele>41</ele>
        <time>2021-03-21T09:01:04Z</time>
      </trkpt>
      <trkpt lat="43.62262" lon="3.86003">
        <ele>41</ele>
        <time>2021-03-21T09:01:05Z</time>
      </trkpt>
      <trkpt lat="43.62265" lon="3.86008">
        <ele>41</ele>
        <time>2021-03-21T09:01:06Z</time>
      </trkpt>
      <trkpt lat="43.62268" lon="3.86012">
        <ele>41</ele>
        <time>2021-03-21T09:01:07Z</time>
      </trkpt>
      <trkpt lat="43.6227" lon="3.86016">
        <ele>41</ele>
        <time>2021-03-21T09:01:08Z</time>
      </trkpt>
      <trkpt lat="43.62273" lon="3.8602">
        <ele>41</ele>
        <time>2021-03-21T09:01:09Z</time>
      </trkpt>
      <trkpt lat="43.62275" lon="3.86024">
        <ele>41</ele>
        <time>2021-03-21T09:01:10Z</time>
      </trkpt>
      <trkpt lat="43.62278" lon="3.86028">
        <ele>41</ele>
        <time>2021-03-21T09:01:11Z</time>
      </trkpt>
      <trkpt lat="43.62281" lon="3.86032">
        <ele>41</ele>
        <time>2021-03-21T09:01:12Z</time>
      </trkpt>
      <trkpt lat="43.62284" lon="3.86036">
        <ele>41</ele>
        <time>2021-03-21T09:01:13Z</time>
      </trkpt>
      <trkpt lat="43.62286" lon="3.8604">
        <ele>41</ele>
        <time>2021-03-21T09:01:14Z</time>
      </trkpt>
      <trkpt lat="43.62289" lon="3.86044">
        <ele>41</ele>
        <time>2021-03-21T09:01:15Z</time>
      </trkpt>
      <trkpt lat="43.62292" lon="3.86048">
        <ele>41</ele>
        <time>2021-03-21T09:01:16Z</time>
      </trkpt>
      <trkpt lat="43.62295" lon="3.86052">
        <ele>41</ele>
        <time>2021-03-21T09:01:17Z</time>
      </trkpt>
      <trkpt lat="43.62298" lon="3.86056">
        <ele>41</ele>
        <time>2021-03-21T09:01:18Z</time>
      </trkpt>
      <trkpt lat="43.62301" lon="3.8606">
        <ele>41</ele>
        <time>2021-03-21T09:01:19Z</time>
      </trkpt>
      <trkpt lat="43.62303" lon="3.86064">
        <ele>41</ele>
        <time>2021-03-21T09:01:20Z</time>
      </trkpt>
      <trkpt lat="43.62306" lon="3.86068">
        <ele>41</ele>
        <time>2021-03-21T09:01:21Z</time>
      </trkpt>
      <trkpt lat="43.62309" lon="3.86072">
        <ele>41</ele>
        <time>2021-03-21T09:01:22Z</time>
      </trkpt>
      <trkpt lat="43.62312" lon="3.86076">
        <ele>41</ele>
        <time>2021-03-21T09:01:23Z</time>
      </trkpt>
      <trkpt lat="43.62314" lon="3.86081">
        <ele>41</ele>
        <time>2021-03-21T09:01:24Z</time>
      </trkpt>
      <trkpt lat="43.62316" lon="3.86085">
        <ele>41</ele>
        <time>2021-03-21T09:01:25Z</time>
      </trkpt>
      <trkpt lat="43.62318" lon="3.86088">
        <ele>41</ele>
        <time>2021-03-21T09:01:26Z</time>
      </trkpt>
      <trkpt lat="43.6232" lon="3.86092">
        <ele>41</ele>
        <time>2021-03-21T09:01:27Z</time>
      </trkpt>
      <trkpt lat="43.62322" lon="3.86096">
        <ele>41</ele>
        <time>2021-03-21T09:01:28Z</time>
      </trkpt>
      <trkpt lat="43.62324" lon="3.861">
        <ele>41</ele>
        <time>2021-03-21T09:01:29Z</time>
      </trkpt>
      <trkpt lat="43.62327" lon="3.86105">
        <ele>41</ele>
        <time>2021-03-21T09:01:30Z</time>
      </trkpt>
      <trkpt lat="43.62328" lon="3.8611">
        <ele>41</ele>
        <time>2021-03-21T09:01:31Z</time>
      </trkpt>
      <trkpt lat="43.6233" lon="3.86114">
        <ele>41</ele>
        <time>2021-03-21T09:01:32Z</time>
      </trkpt>
      <trkpt lat="43.62333" lon="3.86118">
        <ele>41</ele>
        <time>2021-03-21T09:01:33Z</time>
      </trkpt>
      <trkpt lat="43.62335" lon="3.86122">
        <ele>41</ele>
        <time>2021-03-21T09:01:34Z</time>
      </trkpt>
      <trkpt lat="43.62338" lon="3.86126">
        <ele>41</ele>
        <time>2021-03-21T09:01:35Z</time>
      </trkpt>
      <trkpt lat="43.62341" lon="3.8613">
        <ele>41</ele>
        <time>2021-03-21T09:01:36Z</time>
      </trkpt>
      <trkpt lat="43.62344" lon="3.86134">
        <ele>41</ele>
        <time>2021-03-21T09:01:37Z</time>
      </trkpt>
      <trkpt lat="43.62347" lon="3.86138">
        <ele>41</ele>
        <time>2021-03-21T09:01:38Z</time>
      </trkpt>
      <trkpt lat="43.6235" lon="3.86142">
        <ele>41</ele>
        <time>2021-03-21T09:01:39Z</time>
      </trkpt>
      <trkpt lat="43.62352" lon="3.86146">
        <ele>41</ele>
        <time>2021-03-21T09:01:40Z</time>
      </trkpt>
      <trkpt lat="43.62355" lon="3.86149">
        <ele>42</ele>
        <time>2021-03-21T09:01:41Z</time>
      </trkpt>
      <trkpt lat="43.62358" lon="3.86153">
        <ele>42</ele>
        <time>2021-03-21T09:01:42Z</time>
      </trkpt>
      <trkpt lat="43.6236" lon="3.86156">
        <ele>42</ele>
        <time>2021-03-21T09:01:43Z</time>
      </trkpt>
      <trkpt lat="43.62362" lon="3.86159">
        <ele>42</ele>
        <time>2021-03-21T09:01:44Z</time>
      </trkpt>
      <trkpt lat="43.62364" lon="3.86162">
        <ele>42</ele>
        <time>2021-03-21T09:01:45Z</time>
      </trkpt>
      <trkpt lat="43.62366" lon="3.86165">
        <ele>42</ele>
        <time>2021-03-21T09:01:46Z</time>
      </trkpt>
      <trkpt lat="43.62368" lon="3.86167">
        <ele>42</ele>
        <time>2021-03-21T09:01:47Z</time>
      </trkpt>
      <trkpt lat="43.6237" lon="3.8617">
        <ele>42</ele>
        <time>2021-03-21T09:01:48Z</time>
      </trkpt>
      <trkpt lat="43.62372" lon="3.86172">
        <ele>42</ele>
        <time>2021-03-21T09:01:49Z</time>
      </trkpt>
      <trkpt lat="43.62374" lon="3.86175">
        <ele>42</ele>
        <time>2021-03-21T09:01:50Z</time>
      </trkpt>
      <trkpt lat="43.62376" lon="3.86178">
        <ele>42</ele>
        <time>2021-03-21T09:01:51Z</time>
      </trkpt>
      <trkpt lat="43.62377" lon="3.86181">
        <ele>42</ele>
        <time>2021-03-21T09:01:52Z</time>
      </trkpt>
      <trkpt lat="43.62379" lon="3.86184">
        <ele>42</ele>
        <time>2021-03-21T09:01:53Z</time>
      </trkpt>
      <trkpt lat="43.6238" lon="3.86187">
        <ele>42</ele>
        <time>2021-03-21T09:01:54Z</time>
      </trkpt>
      <trkpt lat="43.62382" lon="3.86189">
        <ele>42</ele>
        <time>2021-03-21T09:01:55Z</time>
      </trkpt>
      <trkpt lat="43.62384" lon="3.86192">
        <ele>42</ele>
        <time>2021-03-21T09:01:56Z</time>
      </trkpt>
      <trkpt lat="43.62386" lon="3.86195">
        <ele>42</ele>
        <time>2021-03-21T09:01:57Z</time>
      </trkpt>
      <trkpt lat="43.62388" lon="3.86198">
        <ele>42</ele>
        <time>2021-03-21T09:01:58Z</time>
      </trkpt>
      <trkpt lat="43.62391" lon="3.86202">
        <ele>42</ele>
        <time>2021-03-21T09:01:59Z</time>
      </trkpt>
      <trkpt lat="43.62393" lon="3.86205">
        <ele>42</ele>
        <time>2021-03-21T09:02:00Z</time>
      </trkpt>
      <trkpt lat="43.62396" lon="3.86207">
        <ele>42</ele>
        <time>2021-03-21T09:02:01Z</time>
      </trkpt>
      <trkpt lat="43.62399" lon="3.86207">
        <ele>42</ele>
        <time>2021-03-21T09:02:02Z</time>
      </trkpt>
      <trkpt lat="43.62402" lon="3.86209">
        <ele>42</ele>
        <time>2021-03-21T09:02:03Z</time>
      </trkpt>
      <trkpt lat="43.62404" lon="3.86211">
        <ele>42</ele>
        <time>2021-03-21T09:02:04Z</time>
      </trkpt>
      <trkpt lat="43.62406" lon="3.86215">
        <ele>42</ele>
        <time>2021-03-21T09:02:05Z</time>
      </trkpt>
      <trkpt lat="43.62409" lon="3.86218">
        <ele>42</ele>
        <time>2021-03-21T09:02:06Z</time>
      </trkpt>
      <trkpt lat="43.62411" lon="3.86222">
        <ele>42</ele>
        <time>2021-03-21T09:02:07Z</time>
      </trkpt>
      <trkpt lat="43.62414" lon="3.86226">
        <ele>42</ele>
        <time>2021-03-21T09:02:08Z</time>
      </trkpt>
      <trkpt lat="43.62417" lon="3.8623">
        <ele>42</ele>
        <time>2021-03-21T09:02:09Z</time>
      </trkpt>
      <trkpt lat="43.62419" lon="3.86235">
        <ele>42</ele>
        <time>2021-03-21T09:02:10Z</time>
      </trkpt>
      <trkpt lat="43.62422" lon="3.86239">
        <ele>42</ele>
        <time>2021-03-21T09:02:11Z</time>
      </trkpt>
      <trkpt lat="43.62424" lon="3.86244">
        <ele>42</ele>
        <time>2021-03-21T09:02:12Z</time>
      </trkpt>
      <trkpt lat="43.62427" lon="3.86248">
        <ele>42</ele>
        <time>2021-03-21T09:02:13Z</time>
      </trkpt>
      <trkpt lat="43.62429" lon="3.86252">
        <ele>42</ele>
        <time>2021-03-21T09:02:14Z</time>
      </trkpt>
      <trkpt lat="43.62432" lon="3.86256">
        <ele>42</ele>
        <time>2021-03-21T09:02:15Z</time>
      </trkpt>
      <trkpt lat="43.62435" lon="3.8626">
        <ele>42</ele>
        <time>2021-03-21T09:02:16Z</time>
      </trkpt>
      <trkpt lat="43.62437" lon="3.86264">
        <ele>42</ele>
        <time>2021-03-21T09:02:17Z</time>
      </trkpt>
      <trkpt lat="43.6244" lon="3.86268">
        <ele>42</ele>
        <time>2021-03-21T09:02:18Z</time>
      </trkpt>
      <trkpt lat="43.62442" lon="3.86272">
        <ele>42</ele>
        <time>2021-03-21T09:02:19Z</time>
      </trkpt>
      <trkpt lat="43.62445" lon="3.86277">
        <ele>42</ele>
        <time>2021-03-21T09:02:20Z</time>
      </trkpt>
      <trkpt lat="43.62447" lon="3.86281">
        <ele>42</ele>
        <time>2021-03-21T09:02:21Z</time>
      </trkpt>
      <trkpt lat="43.6245" lon="3.86285">
        <ele>42</ele>
        <time>2021-03-21T09:02:22Z</time>
      </trkpt>
      <trkpt lat="43.62452" lon="3.86289">
        <ele>42</ele>
        <time>2021-03-21T09:02:23Z</time>
      </trkpt>
      <trkpt lat="43.62455" lon="3.86293">
        <ele>42</ele>
        <time>2021-03-21T09:02:24Z</time>
      </trkpt>
      <trkpt lat="43.62457" lon="3.86297">
        <ele>42</ele>
        <time>2021-03-21T09:02:25Z</time>
      </trkpt>
      <trkpt lat="43.6246" lon="3.863">
        <ele>42</ele>
        <time>2021-03-21T09:02:26Z</time>
      </trkpt>
      <trkpt lat="43.62463" lon="3.86303">
        <ele>42</ele>
        <time>2021-03-21T09:02:27Z</time>
      </trkpt>
      <trkpt lat="43.62465" lon="3.86307">
        <ele>42</ele>
        <time>2021-03-21T09:02:28Z</time>
      </trkpt>
      <trkpt lat="43.62468" lon="3.8631">
        <ele>42</ele>
        <time>2021-03-21T09:02:29Z</time>
      </trkpt>
      <trkpt lat="43.6247" lon="3.86314">
        <ele>42</ele>
        <time>2021-03-21T09:02:30Z</time>
      </trkpt>
      <trkpt lat="43.62473" lon="3.86318">
        <ele>42</ele>
        <time>2021-03-21T09:02:31Z</time>
      </trkpt>
      <trkpt lat="43.62475" lon="3.86322">
        <ele>43</ele>
        <time>2021-03-21T09:02:32Z</time>
      </trkpt>
      <trkpt lat="43.62478" lon="3.86326">
        <ele>43</ele>
        <time>2021-03-21T09:02:33Z</time>
      </trkpt>
      <trkpt lat="43.6248" lon="3.8633">
        <ele>43</ele>
        <time>2021-03-21T09:02:34Z</time>
      </trkpt>
      <trkpt lat="43.62483" lon="3.86335">
        <ele>43</ele>
        <time>2021-03-21T09:02:35Z</time>
      </trkpt>
      <trkpt lat="43.62486" lon="3.86339">
        <ele>43</ele>
        <time>2021-03-21T09:02:36Z</time>
      </trkpt>
      <trkpt lat="43.62488" lon="3.86343">
        <ele>43</ele>
        <time>2021-03-21T09:02:37Z</time>
      </trkpt>
      <trkpt lat="43.62491" lon="3.86347">
        <ele>43</ele>
        <time>2021-03-21T09:02:38Z</time>
      </trkpt>
      <trkpt lat="43.62494" lon="3.86351">
        <ele>43</ele>
        <time>2021-03-21T09:02:39Z</time>
      </trkpt>
      <trkpt lat="43.62496" lon="3.86355">
        <ele>43</ele>
        <time>2021-03-21T09:02:40Z</time>
      </trkpt>
      <trkpt lat="43.62499" lon="3.86359">
        <ele>43</ele>
        <time>2021-03-21T09:02:41Z</time>
      </trkpt>
      <trkpt lat="43.62501" lon="3.86363">
        <ele>45</ele>
        <time>2021-03-21T09:02:42Z</time>
      </trkpt>
      <trkpt lat="43.62504" lon="3.86367">
        <ele>45</ele>
        <time>2021-03-21T09:02:43Z</time>
      </trkpt>
      <trkpt lat="43.62506" lon="3.86371">
        <ele>45</ele>
        <time>2021-03-21T09:02:44Z</time>
      </trkpt>
      <trkpt lat="43.62509" lon="3.86374">
        <ele>45</ele>
        <time>2021-03-21T09:02:45Z</time>
      </trkpt>
      <trkpt lat="43.62511" lon="3.86378">
        <ele>45</ele>
        <time>2021-03-21T09:02:46Z</time>
      </trkpt>
      <trkpt lat="43.62514" lon="3.86382">
        <ele>45</ele>
        <time>2021-03-21T09:02:47Z</time>
      </trkpt>
      <trkpt lat="43.62516" lon="3.86386">
        <ele>45</ele>
        <time>2021-03-21T09:02:48Z</time>
      </trkpt>
      <trkpt lat="43.62519" lon="3.86389">
        <ele>45</ele>
        <time>2021-03-21T09:02:49Z</time>
      </trkpt>
      <trkpt lat="43.62521" lon="3.86393">
        <ele>45</ele>
        <time>2021-03-21T09:02:50Z</time>
      </trkpt>
      <trkpt lat="43.62524" lon="3.86397">
        <ele>45</ele>
        <time>2021-03-21T09:02:51Z</time>
      </trkpt>
      <trkpt lat="43.62526" lon="3.86401">
        <ele>46</ele>
        <time>2021-03-21T09:02:52Z</time>
      </trkpt>
      <trkpt lat="43.62528" lon="3.86404">
        <ele>46</ele>
        <time>2021-03-21T09:02:53Z</time>
      </trkpt>
      <trkpt lat="43.6253" lon="3.86408">
        <ele>46</ele>
        <time>2021-03-21T09:02:54Z</time>
      </trkpt>
      <trkpt lat="43.62533" lon="3.86411">
        <ele>46</ele>
        <time>2021-03-21T09:02:55Z</time>
      </trkpt>
      <trkpt lat="43.62535" lon="3.86415">
        <ele>46</ele>
        <time>2021-03-21T09:02:56Z</time>
      </trkpt>
      <trkpt lat="43.62537" lon="3.86419">
        <ele>46</ele>
        <time>2021-03-21T09:02:57Z</time>
      </trkpt>
      <trkpt lat="43.62539" lon="3.86423">
        <ele>46</ele>
        <time>2021-03-21T09:02:58Z</time>
      </trkpt>
      <trkpt lat="43.62542" lon="3.86425">
        <ele>46</ele>
        <time>2021-03-21T09:02:59Z</time>
      </trkpt>
      <trkpt lat="43.62544" lon="3.86428">
        <ele>46</ele>
        <time>2021-03-21T09:03:00Z</time>
      </trkpt>
      <trkpt lat="43.62547" lon="3.86431">
        <ele>47</ele>
        <time>2021-03-21T09:03:01Z</time>
      </trkpt>
      <trkpt lat="43.6255" lon="3.86435">
        <ele>47</ele>
        <time>2021-03-21T09:03:02Z</time>
      </trkpt>
      <trkpt lat="43.62552" lon="3.86438">
        <ele>47</ele>
        <time>2021-03-21T09:03:03Z</time>
      </trkpt>
      <trkpt lat="43.62554" lon="3.86441">
        <ele>47</ele>
        <time>2021-03-21T09:03:04Z</time>
      </trkpt>
      <trkpt lat="43.62555" lon="3.86443">
        <ele>47</ele>
        <time>2021-03-21T09:03:05Z</time>
      </trkpt>
      <trkpt lat="43.62558" lon="3.86445">
        <ele>47</ele>
        <time>2021-03-21T09:03:06Z</time>
      </trkpt>
      <trkpt lat="43.62561" lon="3.86447">
        <ele>47</ele>
        <time>2021-03-21T09:03:07Z</time>
      </trkpt>
      <trkpt lat="43.62563" lon="3.86451">
        <ele>47</ele>
        <time>2021-03-21T09:03:08Z</time>
      </trkpt>
      <trkpt lat="43.62565" lon="3.86455">
        <ele>47</ele>
        <time>2021-03-21T09:03:09Z</time>
      </trkpt>
      <trkpt lat="43.62567" lon="3.86459">
        <ele>47</ele>
        <time>2021-03-21T09:03:10Z</time>
      </trkpt>
      <trkpt lat="43.62569" lon="3.86464">
        <ele>47</ele>
        <time>2021-03-21T09:03:11Z</time>
      </trkpt>
      <trkpt lat="43.62571" lon="3.86468">
        <ele>47</ele>
        <time>2021-03-21T09:03:12Z</time>
      </trkpt>
      <trkpt lat="43.62574" lon="3.86472">
        <ele>47</ele>
        <time>2021-03-21T09:03:13Z</time>
      </trkpt>
      <trkpt lat="43.62577" lon="3.86477">
        <ele>47</ele>
        <time>2021-03-21T09:03:14Z</time>
      </trkpt>
      <trkpt lat="43.62579" lon="3.86481">
        <ele>47</ele>
        <time>2021-03-21T09:03:15Z</time>
      </trkpt>
      <trkpt lat="43.62582" lon="3.86485">
        <ele>47</ele>
        <time>2021-03-21T09:03:16Z</time>
      </trkpt>
      <trkpt lat="43.62585" lon="3.8649">
        <ele>47</ele>
        <time>2021-03-21T09:03:17Z</time>
      </trkpt>
      <trkpt lat="43.62588" lon="3.86494">
        <ele>47</ele>
        <time>2021-03-21T09:03:18Z</time>
      </trkpt>
      <trkpt lat="43.6259" lon="3.86498">
        <ele>47</ele>
        <time>2021-03-21T09:03:19Z</time>
      </trkpt>
      <trkpt lat="43.62593" lon="3.86503">
        <ele>47</ele>
        <time>2021-03-21T09:03:20Z</time>
      </trkpt>
      <trkpt lat="43.62596" lon="3.86508">
        <ele>47</ele>
        <time>2021-03-21T09:03:21Z</time>
      </trkpt>
      <trkpt lat="43.62598" lon="3.86512">
        <ele>47</ele>
        <time>2021-03-21T09:03:22Z</time>
      </trkpt>
      <trkpt lat="43.62601" lon="3.86516">
        <ele>47</ele>
        <time>2021-03-21T09:03:23Z</time>
      </trkpt>
      <trkpt lat="43.62603" lon="3.8652">
        <ele>47</ele>
        <time>2021-03-21T09:03:24Z</time>
      </trkpt>
      <trkpt lat="43.62605" lon="3.86524">
        <ele>47</ele>
        <time>2021-03-21T09:03:25Z</time>
      </trkpt>
      <trkpt lat="43.62607" lon="3.86528">
        <ele>47</ele>
        <time>2021-03-21T09:03:26Z</time>
      </trkpt>
      <trkpt lat="43.6261" lon="3.86532">
        <ele>47</ele>
        <time>2021-03-21T09:03:27Z</time>
      </trkpt>
      <trkpt lat="43.62612" lon="3.86536">
        <ele>47</ele>
        <time>2021-03-21T09:03:28Z</time>
      </trkpt>
      <trkpt lat="43.62614" lon="3.86541">
        <ele>47</ele>
        <time>2021-03-21T09:03:29Z</time>
      </trkpt>
      <trkpt lat="43.62617" lon="3.86545">
        <ele>47</ele>
        <time>2021-03-21T09:03:30Z</time>
      </trkpt>
      <trkpt lat="43.62619" lon="3.86551">
        <ele>47</ele>
        <time>2021-03-21T09:03:31Z</time>
      </trkpt>
      <trkpt lat="43.62622" lon="3.86556">
        <ele>47</ele>
        <time>2021-03-21T09:03:32Z</time>
      </trkpt>
      <trkpt lat="43.62624" lon="3.86562">
        <ele>47</ele>
        <time>2021-03-21T09:03:33Z</time>
      </trkpt>
      <trkpt lat="43.62627" lon="3.86568">
        <ele>47</ele>
        <time>2021-03-21T09:03:34Z</time>
      </trkpt>
      <trkpt lat="43.6263" lon="3.86574">
        <ele>47</ele>
        <time>2021-03-21T09:03:35Z</time>
      </trkpt>
      <trkpt lat="43.62633" lon="3.86579">
        <ele>47</ele>
        <time>2021-03-21T09:03:36Z</time>
      </trkpt>
      <trkpt lat="43.62636" lon="3.86585">
        <ele>47</ele>
        <time>2021-03-21T09:03:37Z</time>
      </trkpt>
      <trkpt lat="43.62638" lon="3.86591">
        <ele>47</ele>
        <time>2021-03-21T09:03:38Z</time>
      </trkpt>
      <trkpt lat="43.62641" lon="3.86596">
        <ele>47</ele>
        <time>2021-03-21T09:03:39Z</time>
      </trkpt>
      <trkpt lat="43.62643" lon="3.86602">
        <ele>47</ele>
        <time>2021-03-21T09:03:40Z</time>
      </trkpt>
      <trkpt lat="43.62645" lon="3.86608">
        <ele>47</ele>
        <time>2021-03-21T09:03:41Z</time>
      </trkpt>
      <trkpt lat="43.62648" lon="3.86619">
        <ele>48</ele>
        <time>2021-03-21T09:03:43Z</time>
      </trkpt>
      <trkpt lat="43.62649" lon="3.86625">
        <ele>48</ele>
        <time>2021-03-21T09:03:44Z</time>
      </trkpt>
      <trkpt lat="43.6265" lon="3.86629">
        <ele>48</ele>
        <time>2021-03-21T09:03:45Z</time>
      </trkpt>
      <trkpt lat="43.6265" lon="3.86631">
        <ele>48</ele>
        <time>2021-03-21T09:03:46Z</time>
      </trkpt>
      <trkpt lat="43.62651" lon="3.86634">
        <ele>48</ele>
        <time>2021-03-21T09:03:47Z</time>
      </trkpt>
      <trkpt lat="43.62653" lon="3.86636">
        <ele>48</ele>
        <time>2021-03-21T09:03:48Z</time>
      </trkpt>
      <trkpt lat="43.62656" lon="3.86637">
        <ele>48</ele>
        <time>2021-03-21T09:03:49Z</time>
      </trkpt>
      <trkpt lat="43.62659" lon="3.86637">
        <ele>48</ele>
        <time>2021-03-21T09:03:50Z</time>
      </trkpt>
      <trkpt lat="43.62663" lon="3.86637">
        <ele>48</ele>
        <time>2021-03-21T09:03:51Z</time>
      </trkpt>
      <trkpt lat="43.62668" lon="3.86637">
        <ele>48</ele>
        <time>2021-03-21T09:03:52Z</time>
      </trkpt>
      <trkpt lat="43.62672" lon="3.86637">
        <ele>48</ele>
        <time>2021-03-21T09:03:53Z</time>
      </trkpt>
      <trkpt lat="43.62676" lon="3.86638">
        <ele>48</ele>
        <time>2021-03-21T09:03:54Z</time>
      </trkpt>
      <trkpt lat="43.6268" lon="3.86638">
        <ele>48</ele>
        <time>2021-03-21T09:03:55Z</time>
      </trkpt>
      <trkpt lat="43.62684" lon="3.86639">
        <ele>48</ele>
        <time>2021-03-21T09:03:56Z</time>
      </trkpt>
      <trkpt lat="43.62688" lon="3.86641">
        <ele>48</ele>
        <time>2021-03-21T09:03:57Z</time>
      </trkpt>
      <trkpt lat="43.62691" lon="3.86646">
        <ele>48</ele>
        <time>2021-03-21T09:03:58Z</time>
      </trkpt>
      <trkpt lat="43.62694" lon="3.8665">
        <ele>48</ele>
        <time>2021-03-21T09:03:59Z</time>
      </trkpt>
      <trkpt lat="43.62697" lon="3.86654">
        <ele>48</ele>
        <time>2021-03-21T09:04:00Z</time>
      </trkpt>
      <trkpt lat="43.62701" lon="3.86659">
        <ele>48</ele>
        <time>2021-03-21T09:04:01Z</time>
      </trkpt>
      <trkpt lat="43.62704" lon="3.86664">
        <ele>48</ele>
        <time>2021-03-21T09:04:02Z</time>
      </trkpt>
      <trkpt lat="43.62708" lon="3.86668">
        <ele>48</ele>
        <time>2021-03-21T09:04:03Z</time>
      </trkpt>
      <trkpt lat="43.62711" lon="3.86673">
        <ele>48</ele>
        <time>2021-03-21T09:04:04Z</time>
      </trkpt>
      <trkpt lat="43.62715" lon="3.86677">
        <ele>48</ele>
        <time>2021-03-21T09:04:05Z</time>
      </trkpt>
      <trkpt lat="43.62718" lon="3.86682">
        <ele>48</ele>
        <time>2021-03-21T09:04:06Z</time>
      </trkpt>
      <trkpt lat="43.62721" lon="3.86687">
        <ele>48</ele>
        <time>2021-03-21T09:04:07Z</time>
      </trkpt>
      <trkpt lat="43.62724" lon="3.86692">
        <ele>48</ele>
        <time>2021-03-21T09:04:08Z</time>
      </trkpt>
      <trkpt lat="43.62728" lon="3.86696">
        <ele>48</ele>
        <time>2021-03-21T09:04:09Z</time>
      </trkpt>
      <trkpt lat="43.62731" lon="3.86701">
        <ele>48</ele>
        <time>2021-03-21T09:04:10Z</time>
      </trkpt>
      <trkpt lat="43.62734" lon="3.86706">
        <ele>49</ele>
        <time>2021-03-21T09:04:11Z</time>
      </trkpt>
      <trkpt lat="43.62737" lon="3.8671">
        <ele>49</ele>
        <time>2021-03-21T09:04:12Z</time>
      </trkpt>
      <trkpt lat="43.62741" lon="3.86715">
        <ele>49</ele>
        <time>2021-03-21T09:04:13Z</time>
      </trkpt>
      <trkpt lat="43.62744" lon="3.86719">
        <ele>49</ele>
        <time>2021-03-21T09:04:14Z</time>
      </trkpt>
      <trkpt lat="43.62747" lon="3.86724">
        <ele>49</ele>
        <time>2021-03-21T09:04:15Z</time>
      </trkpt>
      <trkpt lat="43.6275" lon="3.86728">
        <ele>49</ele>
        <time>2021-03-21T09:04:16Z</time>
      </trkpt>
      <trkpt lat="43.62753" lon="3.86732">
        <ele>49</ele>
        <time>2021-03-21T09:04:17Z</time>
      </trkpt>
      <trkpt lat="43.62756" lon="3.86736">
        <ele>49</ele>
        <time>2021-03-21T09:04:18Z</time>
      </trkpt>
      <trkpt lat="43.62759" lon="3.86741">
        <ele>49</ele>
        <time>2021-03-21T09:04:19Z</time>
      </trkpt>
      <trkpt lat="43.62762" lon="3.86745">
        <ele>49</ele>
        <time>2021-03-21T09:04:20Z</time>
      </trkpt>
      <trkpt lat="43.62765" lon="3.86749">
        <ele>49</ele>
        <time>2021-03-21T09:04:21Z</time>
      </trkpt>
      <trkpt lat="43.62771" lon="3.86758">
        <ele>49</ele>
        <time>2021-03-21T09:04:22Z</time>
      </trkpt>
      <trkpt lat="43.62774" lon="3.86762">
        <ele>49</ele>
        <time>2021-03-21T09:04:23Z</time>
      </trkpt>
      <trkpt lat="43.62778" lon="3.86766">
        <ele>49</ele>
        <time>2021-03-21T09:04:24Z</time>
      </trkpt>
      <trkpt lat="43.62781" lon="3.8677">
        <ele>49</ele>
        <time>2021-03-21T09:04:25Z</time>
      </trkpt>
      <trkpt lat="43.62784" lon="3.86774">
        <ele>49</ele>
        <time>2021-03-21T09:04:26Z</time>
      </trkpt>
      <trkpt lat="43.62787" lon="3.86778">
        <ele>49</ele>
        <time>2021-03-21T09:04:27Z</time>
      </trkpt>
      <trkpt lat="43.62793" lon="3.86787">
        <ele>49</ele>
        <time>2021-03-21T09:04:29Z</time>
      </trkpt>
      <trkpt lat="43.62796" lon="3.86791">
        <ele>49</ele>
        <time>2021-03-21T09:04:30Z</time>
      </trkpt>
      <trkpt lat="43.62799" lon="3.86795">
        <ele>49</ele>
        <time>2021-03-21T09:04:32Z</time>
      </trkpt>
      <trkpt lat="43.62802" lon="3.86798">
        <ele>49</ele>
        <time>2021-03-21T09:04:33Z</time>
      </trkpt>
      <trkpt lat="43.62805" lon="3.86802">
        <ele>49</ele>
        <time>2021-03-21T09:04:34Z</time>
      </trkpt>
      <trkpt lat="43.62807" lon="3.86806">
        <ele>49</ele>
        <time>2021-03-21T09:04:35Z</time>
      </trkpt>
      <trkpt lat="43.6281" lon="3.86809">
        <ele>49</ele>
        <time>2021-03-21T09:04:36Z</time>
      </trkpt>
      <trkpt lat="43.62813" lon="3.86813">
        <ele>49</ele>
        <time>2021-03-21T09:04:37Z</time>
      </trkpt>
      <trkpt lat="43.62816" lon="3.86816">
        <ele>49</ele>
        <time>2021-03-21T09:04:38Z</time>
      </trkpt>
      <trkpt lat="43.62818" lon="3.86819">
        <ele>49</ele>
        <time>2021-03-21T09:04:39Z</time>
      </trkpt>
      <trkpt lat="43.62821" lon="3.86823">
        <ele>49</ele>
        <time>2021-03-21T09:04:40Z</time>
      </trkpt>
      <trkpt lat="43.62823" lon="3.86827">
        <ele>51</ele>
        <time>2021-03-21T09:04:41Z</time>
      </trkpt>
      <trkpt lat="43.62825" lon="3.86831">
        <ele>51</ele>
        <time>2021-03-21T09:04:42Z</time>
      </trkpt>
      <trkpt lat="43.62827" lon="3.86834">
        <ele>51</ele>
        <time>2021-03-21T09:04:43Z</time>
      </trkpt>
      <trkpt lat="43.6283" lon="3.86836">
        <ele>51</ele>
        <time>2021-03-21T09:04:44Z</time>
      </trkpt>
      <trkpt lat="43.62834" lon="3.86836">
        <ele>51</ele>
        <time>2021-03-21T09:04:45Z</time>
      </trkpt>
      <trkpt lat="43.62837" lon="3.86836">
        <ele>51</ele>
        <time>2021-03-21T09:04:46Z</time>
      </trkpt>
      <trkpt lat="43.6284" lon="3.86837">
        <ele>51</ele>
        <time>2021-03-21T09:04:47Z</time>
      </trkpt>
      <trkpt lat="43.62843" lon="3.8684">
        <ele>51</ele>
        <time>2021-03-21T09:04:48Z</time>
      </trkpt>
      <trkpt lat="43.62845" lon="3.86844">
        <ele>51</ele>
        <time>2021-03-21T09:04:49Z</time>
      </trkpt>
      <trkpt lat="43.62847" lon="3.86847">
        <ele>51</ele>
        <time>2021-03-21T09:04:50Z</time>
      </trkpt>
      <trkpt lat="43.62849" lon="3.86851">
        <ele>52</ele>
        <time>2021-03-21T09:04:51Z</time>
      </trkpt>
      <trkpt lat="43.62851" lon="3.86854">
        <ele>52</ele>
        <time>2021-03-21T09:04:52Z</time>
      </trkpt>
      <trkpt lat="43.62854" lon="3.86858">
        <ele>52</ele>
        <time>2021-03-21T09:04:53Z</time>
      </trkpt>
      <trkpt lat="43.62856" lon="3.86861">
        <ele>52</ele>
        <time>2021-03-21T09:04:54Z</time>
      </trkpt>
      <trkpt lat="43.62858" lon="3.86864">
        <ele>52</ele>
        <time>2021-03-21T09:04:55Z</time>
      </trkpt>
      <trkpt lat="43.62861" lon="3.86868">
        <ele>52</ele>
        <time>2021-03-21T09:04:56Z</time>
      </trkpt>
      <trkpt lat="43.62863" lon="3.86871">
        <ele>52</ele>
        <time>2021-03-21T09:04:57Z</time>
      </trkpt>
      <trkpt lat="43.62865" lon="3.86874">
        <ele>52</ele>
        <time>2021-03-21T09:04:58Z</time>
      </trkpt>
      <trkpt lat="43.62868" lon="3.86878">
        <ele>52</ele>
        <time>2021-03-21T09:04:59Z</time>
      </trkpt>
      <trkpt lat="43.62871" lon="3.86881">
        <ele>52</ele>
        <time>2021-03-21T09:05:00Z</time>
      </trkpt>
      <trkpt lat="43.62873" lon="3.86884">
        <ele>53</ele>
        <time>2021-03-21T09:05:01Z</time>
      </trkpt>
      <trkpt lat="43.62876" lon="3.86888">
        <ele>53</ele>
        <time>2021-03-21T09:05:02Z</time>
      </trkpt>
      <trkpt lat="43.62878" lon="3.86892">
        <ele>53</ele>
        <time>2021-03-21T09:05:03Z</time>
      </trkpt>
      <trkpt lat="43.62881" lon="3.86896">
        <ele>53</ele>
        <time>2021-03-21T09:05:04Z</time>
      </trkpt>
      <trkpt lat="43.62884" lon="3.869">
        <ele>53</ele>
        <time>2021-03-21T09:05:05Z</time>
      </trkpt>
      <trkpt lat="43.62887" lon="3.86903">
        <ele>53</ele>
        <time>2021-03-21T09:05:06Z</time>
      </trkpt>
      <trkpt lat="43.6289" lon="3.86907">
        <ele>53</ele>
        <time>2021-03-21T09:05:07Z</time>
      </trkpt>
      <trkpt lat="43.62892" lon="3.8691">
        <ele>53</ele>
        <time>2021-03-21T09:05:08Z</time>
      </trkpt>
      <trkpt lat="43.62894" lon="3.86913">
        <ele>53</ele>
        <time>2021-03-21T09:05:09Z</time>
      </trkpt>
      <trkpt lat="43.62896" lon="3.86915">
        <ele>53</ele>
        <time>2021-03-21T09:05:10Z</time>
      </trkpt>
      <trkpt lat="43.62897" lon="3.86917">
        <ele>53</ele>
        <time>2021-03-21T09:05:11Z</time>
      </trkpt>
      <trkpt lat="43.62898" lon="3.86919">
        <ele>53</ele>
        <time>2021-03-21T09:05:12Z</time>
      </trkpt>
      <trkpt lat="43.629" lon="3.86921">
        <ele>53</ele>
        <time>2021-03-21T09:05:13Z</time>
      </trkpt>
      <trkpt lat="43.62902" lon="3.86923">
        <ele>53</ele>
        <time>2021-03-21T09:05:14Z</time>
      </trkpt>
      <trkpt lat="43.62903" lon="3.86926">
        <ele>53</ele>
        <time>2021-03-21T09:05:15Z</time>
      </trkpt>
      <trkpt lat="43.62905" lon="3.86929">
        <ele>53</ele>
        <time>2021-03-21T09:05:16Z</time>
      </trkpt>
      <trkpt lat="43.62907" lon="3.86932">
        <ele>53</ele>
        <time>2021-03-21T09:05:17Z</time>
      </trkpt>
      <trkpt lat="43.62909" lon="3.86935">
        <ele>53</ele>
        <time>2021-03-21T09:05:18Z</time>
      </trkpt>
      <trkpt lat="43.62912" lon="3.86938">
        <ele>53</ele>
        <time>2021-03-21T09:05:19Z</time>
      </trkpt>
      <trkpt lat="43.62915" lon="3.86942">
        <ele>53</ele>
        <time>2021-03-21T09:05:20Z</time>
      </trkpt>
      <trkpt lat="43.62918" lon="3.86945">
        <ele>53</ele>
        <time>2021-03-21T09:05:21Z</time>
      </trkpt>
      <trkpt lat="43.62921" lon="3.86949">
        <ele>53</ele>
        <time>2021-03-21T09:05:22Z</time>
      </trkpt>
      <trkpt lat="43.62924" lon="3.86953">
        <ele>53</ele>
        <time>2021-03-21T09:05:23Z</time>
      </trkpt>
      <trkpt lat="43.62927" lon="3.86957">
        <ele>53</ele>
        <time>2021-03-21T09:05:24Z</time>
      </trkpt>
      <trkpt lat="43.62929" lon="3.8696">
        <ele>53</ele>
        <time>2021-03-21T09:05:25Z</time>
      </trkpt>
      <trkpt lat="43.62931" lon="3.86962">
        <ele>53</ele>
        <time>2021-03-21T09:05:26Z</time>
      </trkpt>
      <trkpt lat="43.62932" lon="3.86964">
        <ele>53</ele>
        <time>2021-03-21T09:05:27Z</time>
      </trkpt>
      <trkpt lat="43.62934" lon="3.86966">
        <ele>53</ele>
        <time>2021-03-21T09:05:28Z</time>
      </trkpt>
      <trkpt lat="43.62937" lon="3.86968">
        <ele>53</ele>
        <time>2021-03-21T09:05:29Z</time>
      </trkpt>
      <trkpt lat="43.62939" lon="3.86971">
        <ele>53</ele>
        <time>2021-03-21T09:05:30Z</time>
      </trkpt>
      <trkpt lat="43.62942" lon="3.86974">
        <ele>53</ele>
        <time>2021-03-21T09:05:31Z</time>
      </trkpt>
      <trkpt lat="43.62945" lon="3.86977">
        <ele>53</ele>
        <time>2021-03-21T09:05:32Z</time>
      </trkpt>
      <trkpt lat="43.62948" lon="3.86979">
        <ele>53</ele>
        <time>2021-03-21T09:05:33Z</time>
      </trkpt>
      <trkpt lat="43.62951" lon="3.8698">
        <ele>53</ele>
        <time>2021-03-21T09:05:34Z</time>
      </trkpt>
      <trkpt lat="43.62954" lon="3.8698">
        <ele>53</ele>
        <time>2021-03-21T09:05:35Z</time>
      </trkpt>
      <trkpt lat="43.62958" lon="3.8698">
        <ele>53</ele>
        <time>2021-03-21T09:05:36Z</time>
      </trkpt>
      <trkpt lat="43.62961" lon="3.86979">
        <ele>53</ele>
        <time>2021-03-21T09:05:37Z</time>
      </trkpt>
      <trkpt lat="43.62965" lon="3.86977">
        <ele>53</ele>
        <time>2021-03-21T09:05:38Z</time>
      </trkpt>
      <trkpt lat="43.62968" lon="3.86976">
        <ele>53</ele>
        <time>2021-03-21T09:05:39Z</time>
      </trkpt>
      <trkpt lat="43.62972" lon="3.86974">
        <ele>53</ele>
        <time>2021-03-21T09:05:40Z</time>
      </trkpt>
      <trkpt lat="43.62975" lon="3.86972">
        <ele>53</ele>
        <time>2021-03-21T09:05:41Z</time>
      </trkpt>
      <trkpt lat="43.62979" lon="3.86971">
        <ele>53</ele>
        <time>2021-03-21T09:05:42Z</time>
      </trkpt>
      <trkpt lat="43.62981" lon="3.86969">
        <ele>53</ele>
        <time>2021-03-21T09:05:43Z</time>
      </trkpt>
      <trkpt lat="43.62983" lon="3.86967">
        <ele>53</ele>
        <time>2021-03-21T09:05:44Z</time>
      </trkpt>
      <trkpt lat="43.62985" lon="3.86966">
        <ele>53</ele>
        <time>2021-03-21T09:05:45Z</time>
      </trkpt>
      <trkpt lat="43.62987" lon="3.86964">
        <ele>53</ele>
        <time>2021-03-21T09:05:46Z</time>
      </trkpt>
      <trkpt lat="43.6299" lon="3.86963">
        <ele>53</ele>
        <time>2021-03-21T09:05:47Z</time>
      </trkpt>
      <trkpt lat="43.62993" lon="3.86961">
        <ele>53</ele>
        <time>2021-03-21T09:05:48Z</time>
      </trkpt>
      <trkpt lat="43.62996" lon="3.86961">
        <ele>53</ele>
        <time>2021-03-21T09:05:49Z</time>
      </trkpt>
      <trkpt lat="43.62999" lon="3.8696">
        <ele>53</ele>
        <time>2021-03-21T09:05:50Z</time>
      </trkpt>
      <trkpt lat="43.63003" lon="3.86958">
        <ele>53</ele>
        <time>2021-03-21T09:05:51Z</time>
      </trkpt>
      <trkpt lat="43.63007" lon="3.86957">
        <ele>54</ele>
        <time>2021-03-21T09:05:52Z</time>
      </trkpt>
      <trkpt lat="43.6301" lon="3.86955">
        <ele>54</ele>
        <time>2021-03-21T09:05:53Z</time>
      </trkpt>
      <trkpt lat="43.63014" lon="3.86953">
        <ele>54</ele>
        <time>2021-03-21T09:05:54Z</time>
      </trkpt>
      <trkpt lat="43.63018" lon="3.8695">
        <ele>54</ele>
        <time>2021-03-21T09:05:55Z</time>
      </trkpt>
      <trkpt lat="43.63022" lon="3.86948">
        <ele>54</ele>
        <time>2021-03-21T09:05:56Z</time>
      </trkpt>
      <trkpt lat="43.63026" lon="3.86946">
        <ele>54</ele>
        <time>2021-03-21T09:05:57Z</time>
      </trkpt>
      <trkpt lat="43.6303" lon="3.86944">
        <ele>54</ele>
        <time>2021-03-21T09:05:58Z</time>
      </trkpt>
      <trkpt lat="43.63035" lon="3.86942">
        <ele>54</ele>
        <time>2021-03-21T09:05:59Z</time>
      </trkpt>
      <trkpt lat="43.63039" lon="3.8694">
        <ele>54</ele>
        <time>2021-03-21T09:06:00Z</time>
      </trkpt>
      <trkpt lat="43.63043" lon="3.86938">
        <ele>54</ele>
        <time>2021-03-21T09:06:01Z</time>
      </trkpt>
      <trkpt lat="43.63047" lon="3.86935">
        <ele>55</ele>
        <time>2021-03-21T09:06:02Z</time>
      </trkpt>
      <trkpt lat="43.63051" lon="3.86933">
        <ele>55</ele>
        <time>2021-03-21T09:06:03Z</time>
      </trkpt>
      <trkpt lat="43.63056" lon="3.86931">
        <ele>55</ele>
        <time>2021-03-21T09:06:04Z</time>
      </trkpt>
      <trkpt lat="43.6306" lon="3.86928">
        <ele>55</ele>
        <time>2021-03-21T09:06:05Z</time>
      </trkpt>
      <trkpt lat="43.63064" lon="3.86925">
        <ele>55</ele>
        <time>2021-03-21T09:06:06Z</time>
      </trkpt>
      <trkpt lat="43.63068" lon="3.86923">
        <ele>55</ele>
        <time>2021-03-21T09:06:07Z</time>
      </trkpt>
      <trkpt lat="43.63072" lon="3.8692">
        <ele>55</ele>
        <time>2021-03-21T09:06:08Z</time>
      </trkpt>
      <trkpt lat="43.63077" lon="3.86917">
        <ele>55</ele>
        <time>2021-03-21T09:06:09Z</time>
      </trkpt>
      <trkpt lat="43.63081" lon="3.86915">
        <ele>55</ele>
        <time>2021-03-21T09:06:10Z</time>
      </trkpt>
      <trkpt lat="43.63085" lon="3.86912">
        <ele>55</ele>
        <time>2021-03-21T09:06:11Z</time>
      </trkpt>
      <trkpt lat="43.63089" lon="3.86909">
        <ele>55</ele>
        <time>2021-03-21T09:06:12Z</time>
      </trkpt>
      <trkpt lat="43.63093" lon="3.86907">
        <ele>55</ele>
        <time>2021-03-21T09:06:13Z</time>
      </trkpt>
      <trkpt lat="43.63097" lon="3.86904">
        <ele>55</ele>
        <time>2021-03-21T09:06:14Z</time>
      </trkpt>
      <trkpt lat="43.63101" lon="3.86901">
        <ele>55</ele>
        <time>2021-03-21T09:06:15Z</time>
      </trkpt>
      <trkpt lat="43.63105" lon="3.86899">
        <ele>55</ele>
        <time>2021-03-21T09:06:16Z</time>
      </trkpt>
      <trkpt lat="43.63109" lon="3.86896">
        <ele>55</ele>
        <time>2021-03-21T09:06:17Z</time>
      </trkpt>
      <trkpt lat="43.63113" lon="3.86893">
        <ele>55</ele>
        <time>2021-03-21T09:06:18Z</time>
      </trkpt>
      <trkpt lat="43.63117" lon="3.8689">
        <ele>55</ele>
        <time>2021-03-21T09:06:19Z</time>
      </trkpt>
      <trkpt lat="43.63121" lon="3.86888">
        <ele>55</ele>
        <time>2021-03-21T09:06:20Z</time>
      </trkpt>
      <trkpt lat="43.63124" lon="3.86885">
        <ele>55</ele>
        <time>2021-03-21T09:06:21Z</time>
      </trkpt>
      <trkpt lat="43.63128" lon="3.86882">
        <ele>57</ele>
        <time>2021-03-21T09:06:22Z</time>
      </trkpt>
      <trkpt lat="43.63132" lon="3.86879">
        <ele>57</ele>
        <time>2021-03-21T09:06:23Z</time>
      </trkpt>
      <trkpt lat="43.63136" lon="3.86876">
        <ele>57</ele>
        <time>2021-03-21T09:06:24Z</time>
      </trkpt>
      <trkpt lat="43.63139" lon="3.86873">
        <ele>57</ele>
        <time>2021-03-21T09:06:25Z</time>
      </trkpt>
      <trkpt lat="43.63143" lon="3.8687">
        <ele>57</ele>
        <time>2021-03-21T09:06:26Z</time>
      </trkpt>
      <trkpt lat="43.63147" lon="3.86868">
        <ele>57</ele>
        <time>2021-03-21T09:06:27Z</time>
      </trkpt>
      <trkpt lat="43.6315" lon="3.86865">
        <ele>57</ele>
        <time>2021-03-21T09:06:28Z</time>
      </trkpt>
      <trkpt lat="43.63154" lon="3.86862">
        <ele>57</ele>
        <time>2021-03-21T09:06:29Z</time>
      </trkpt>
      <trkpt lat="43.63158" lon="3.8686">
        <ele>57</ele>
        <time>2021-03-21T09:06:30Z</time>
      </trkpt>
      <trkpt lat="43.63161" lon="3.86857">
        <ele>58</ele>
        <time>2021-03-21T09:06:31Z</time>
      </trkpt>
      <trkpt lat="43.63165" lon="3.86854">
        <ele>58</ele>
        <time>2021-03-21T09:06:32Z</time>
      </trkpt>
      <trkpt lat="43.63169" lon="3.86852">
        <ele>58</ele>
        <time>2021-03-21T09:06:33Z</time>
      </trkpt>
      <trkpt lat="43.63172" lon="3.86849">
        <ele>58</ele>
        <time>2021-03-21T09:06:34Z</time>
      </trkpt>
      <trkpt lat="43.63176" lon="3.86846">
        <ele>58</ele>
        <time>2021-03-21T09:06:35Z</time>
      </trkpt>
      <trkpt lat="43.6318" lon="3.86844">
        <ele>58</ele>
        <time>2021-03-21T09:06:36Z</time>
      </trkpt>
      <trkpt lat="43.63183" lon="3.86841">
        <ele>58</ele>
        <time>2021-03-21T09:06:37Z</time>
      </trkpt>
      <trkpt lat="43.63187" lon="3.86838">
        <ele>58</ele>
        <time>2021-03-21T09:06:38Z</time>
      </trkpt>
      <trkpt lat="43.63191" lon="3.86835">
        <ele>58</ele>
        <time>2021-03-21T09:06:39Z</time>
      </trkpt>
      <trkpt lat="43.63194" lon="3.86833">
        <ele>58</ele>
        <time>2021-03-21T09:06:40Z</time>
      </trkpt>
      <trkpt lat="43.63198" lon="3.8683">
        <ele>58</ele>
        <time>2021-03-21T09:06:41Z</time>
      </trkpt>
      <trkpt lat="43.63201" lon="3.86827">
        <ele>58</ele>
        <time>2021-03-21T09:06:42Z</time>
      </trkpt>
      <trkpt lat="43.63205" lon="3.86824">
        <ele>58</ele>
        <time>2021-03-21T09:06:43Z</time>
      </trkpt>
      <trkpt lat="43.63208" lon="3.86822">
        <ele>58</ele>
        <time>2021-03-21T09:06:44Z</time>
      </trkpt>
      <trkpt lat="43.63212" lon="3.86819">
        <ele>58</ele>
        <time>2021-03-21T09:06:45Z</time>
      </trkpt>
      <trkpt lat="43.63216" lon="3.86816">
        <ele>58</ele>
        <time>2021-03-21T09:06:46Z</time>
      </trkpt>
      <trkpt lat="43.63219" lon="3.86814">
        <ele>58</ele>
        <time>2021-03-21T09:06:47Z</time>
      </trkpt>
      <trkpt lat="43.63223" lon="3.86811">
        <ele>58</ele>
        <time>2021-03-21T09:06:48Z</time>
      </trkpt>
      <trkpt lat="43.63227" lon="3.86809">
        <ele>58</ele>
        <time>2021-03-21T09:06:49Z</time>
      </trkpt>
      <trkpt lat="43.6323" lon="3.86807">
        <ele>58</ele>
        <time>2021-03-21T09:06:50Z</time>
      </trkpt>
      <trkpt lat="43.63234" lon="3.86805">
        <ele>58</ele>
        <time>2021-03-21T09:06:51Z</time>
      </trkpt>
      <trkpt lat="43.63242" lon="3.86801">
        <ele>59</ele>
        <time>2021-03-21T09:06:52Z</time>
      </trkpt>
      <trkpt lat="43.63245" lon="3.86799">
        <ele>59</ele>
        <time>2021-03-21T09:06:54Z</time>
      </trkpt>
      <trkpt lat="43.63249" lon="3.86797">
        <ele>59</ele>
        <time>2021-03-21T09:06:55Z</time>
      </trkpt>
      <trkpt lat="43.63256" lon="3.86792">
        <ele>59</ele>
        <time>2021-03-21T09:06:56Z</time>
      </trkpt>
      <trkpt lat="43.6326" lon="3.8679">
        <ele>59</ele>
        <time>2021-03-21T09:06:58Z</time>
      </trkpt>
      <trkpt lat="43.63264" lon="3.86789">
        <ele>59</ele>
        <time>2021-03-21T09:06:59Z</time>
      </trkpt>
      <trkpt lat="43.63271" lon="3.86787">
        <ele>59</ele>
        <time>2021-03-21T09:07:00Z</time>
      </trkpt>
      <trkpt lat="43.63275" lon="3.86786">
        <ele>61</ele>
        <time>2021-03-21T09:07:02Z</time>
      </trkpt>
      <trkpt lat="43.63278" lon="3.86785">
        <ele>61</ele>
        <time>2021-03-21T09:07:03Z</time>
      </trkpt>
      <trkpt lat="43.63282" lon="3.86784">
        <ele>61</ele>
        <time>2021-03-21T09:07:04Z</time>
      </trkpt>
      <trkpt lat="43.63286" lon="3.86784">
        <ele>61</ele>
        <time>2021-03-21T09:07:05Z</time>
      </trkpt>
      <trkpt lat="43.63289" lon="3.86783">
        <ele>61</ele>
        <time>2021-03-21T09:07:06Z</time>
      </trkpt>
      <trkpt lat="43.63293" lon="3.86782">
        <ele>61</ele>
        <time>2021-03-21T09:07:07Z</time>
      </trkpt>
      <trkpt lat="43.63296" lon="3.86782">
        <ele>61</ele>
        <time>2021-03-21T09:07:08Z</time>
      </trkpt>
      <trkpt lat="43.633" lon="3.86781">
        <ele>61</ele>
        <time>2021-03-21T09:07:09Z</time>
      </trkpt>
      <trkpt lat="43.63303" lon="3.86781">
        <ele>61</ele>
        <time>2021-03-21T09:07:10Z</time>
      </trkpt>
      <trkpt lat="43.63307" lon="3.86781">
        <ele>61</ele>
        <time>2021-03-21T09:07:11Z</time>
      </trkpt>
      <trkpt lat="43.6331" lon="3.8678">
        <ele>62</ele>
        <time>2021-03-21T09:07:12Z</time>
      </trkpt>
      <trkpt lat="43.63314" lon="3.8678">
        <ele>62</ele>
        <time>2021-03-21T09:07:13Z</time>
      </trkpt>
      <trkpt lat="43.63317" lon="3.8678">
        <ele>62</ele>
        <time>2021-03-21T09:07:14Z</time>
      </trkpt>
      <trkpt lat="43.63321" lon="3.86779">
        <ele>62</ele>
        <time>2021-03-21T09:07:15Z</time>
      </trkpt>
      <trkpt lat="43.63324" lon="3.86779">
        <ele>62</ele>
        <time>2021-03-21T09:07:16Z</time>
      </trkpt>
      <trkpt lat="43.63328" lon="3.86779">
        <ele>62</ele>
        <time>2021-03-21T09:07:17Z</time>
      </trkpt>
      <trkpt lat="43.63332" lon="3.86779">
        <ele>62</ele>
        <time>2021-03-21T09:07:18Z</time>
      </trkpt>
      <trkpt lat="43.63335" lon="3.86779">
        <ele>62</ele>
        <time>2021-03-21T09:07:19Z</time>
      </trkpt>
      <trkpt lat="43.63339" lon="3.86779">
        <ele>62</ele>
        <time>2021-03-21T09:07:20Z</time>
      </trkpt>
      <trkpt lat="43.63342" lon="3.86779">
        <ele>62</ele>
        <time>2021-03-21T09:07:21Z</time>
      </trkpt>
      <trkpt lat="43.63346" lon="3.8678">
        <ele>62</ele>
        <time>2021-03-21T09:07:22Z</time>
      </trkpt>
      <trkpt lat="43.6335" lon="3.8678">
        <ele>62</ele>
        <time>2021-03-21T09:07:23Z</time>
      </trkpt>
      <trkpt lat="43.63353" lon="3.8678">
        <ele>62</ele>
        <time>2021-03-21T09:07:24Z</time>
      </trkpt>
      <trkpt lat="43.6336" lon="3.86781">
        <ele>62</ele>
        <time>2021-03-21T09:07:26Z</time>
      </trkpt>
      <trkpt lat="43.63363" lon="3.86781">
        <ele>62</ele>
        <time>2021-03-21T09:07:27Z</time>
      </trkpt>
      <trkpt lat="43.63366" lon="3.86782">
        <ele>62</ele>
        <time>2021-03-21T09:07:28Z</time>
      </trkpt>
      <trkpt lat="43.63369" lon="3.86784">
        <ele>62</ele>
        <time>2021-03-21T09:07:29Z</time>
      </trkpt>
      <trkpt lat="43.63372" lon="3.86785">
        <ele>62</ele>
        <time>2021-03-21T09:07:30Z</time>
      </trkpt>
      <trkpt lat="43.63375" lon="3.86788">
        <ele>63</ele>
        <time>2021-03-21T09:07:31Z</time>
      </trkpt>
      <trkpt lat="43.63378" lon="3.8679">
        <ele>63</ele>
        <time>2021-03-21T09:07:32Z</time>
      </trkpt>
      <trkpt lat="43.63381" lon="3.86793">
        <ele>63</ele>
        <time>2021-03-21T09:07:33Z</time>
      </trkpt>
      <trkpt lat="43.63385" lon="3.86795">
        <ele>63</ele>
        <time>2021-03-21T09:07:34Z</time>
      </trkpt>
      <trkpt lat="43.63388" lon="3.86797">
        <ele>63</ele>
        <time>2021-03-21T09:07:35Z</time>
      </trkpt>
      <trkpt lat="43.63391" lon="3.86798">
        <ele>63</ele>
        <time>2021-03-21T09:07:36Z</time>
      </trkpt>
      <trkpt lat="43.63395" lon="3.868">
        <ele>63</ele>
        <time>2021-03-21T09:07:37Z</time>
      </trkpt>
      <trkpt lat="43.63398" lon="3.86803">
        <ele>63</ele>
        <time>2021-03-21T09:07:38Z</time>
      </trkpt>
      <trkpt lat="43.63401" lon="3.86806">
        <ele>63</ele>
        <time>2021-03-21T09:07:39Z</time>
      </trkpt>
      <trkpt lat="43.63403" lon="3.8681">
        <ele>63</ele>
        <time>2021-03-21T09:07:40Z</time>
      </trkpt>
      <trkpt lat="43.63405" lon="3.86813">
        <ele>63</ele>
        <time>2021-03-21T09:07:41Z</time>
      </trkpt>
      <trkpt lat="43.63408" lon="3.86815">
        <ele>63</ele>
        <time>2021-03-21T09:07:42Z</time>
      </trkpt>
      <trkpt lat="43.63412" lon="3.86816">
        <ele>63</ele>
        <time>2021-03-21T09:07:43Z</time>
      </trkpt>
      <trkpt lat="43.63416" lon="3.86818">
        <ele>63</ele>
        <time>2021-03-21T09:07:44Z</time>
      </trkpt>
      <trkpt lat="43.6342" lon="3.86819">
        <ele>63</ele>
        <time>2021-03-21T09:07:45Z</time>
      </trkpt>
      <trkpt lat="43.63424" lon="3.8682">
        <ele>63</ele>
        <time>2021-03-21T09:07:46Z</time>
      </trkpt>
      <trkpt lat="43.63428" lon="3.86821">
        <ele>63</ele>
        <time>2021-03-21T09:07:47Z</time>
      </trkpt>
      <trkpt lat="43.63432" lon="3.86822">
        <ele>63</ele>
        <time>2021-03-21T09:07:48Z</time>
      </trkpt>
      <trkpt lat="43.63436" lon="3.86822">
        <ele>63</ele>
        <time>2021-03-21T09:07:49Z</time>
      </trkpt>
      <trkpt lat="43.6344" lon="3.86823">
        <ele>63</ele>
        <time>2021-03-21T09:07:50Z</time>
      </trkpt>
      <trkpt lat="43.63444" lon="3.86825">
        <ele>63</ele>
        <time>2021-03-21T09:07:51Z</time>
      </trkpt>
      <trkpt lat="43.63448" lon="3.86827">
        <ele>64</ele>
        <time>2021-03-21T09:07:52Z</time>
      </trkpt>
      <trkpt lat="43.63451" lon="3.86829">
        <ele>64</ele>
        <time>2021-03-21T09:07:53Z</time>
      </trkpt>
      <trkpt lat="43.63455" lon="3.8683">
        <ele>64</ele>
        <time>2021-03-21T09:07:54Z</time>
      </trkpt>
      <trkpt lat="43.63459" lon="3.8683">
        <ele>64</ele>
        <time>2021-03-21T09:07:55Z</time>
      </trkpt>
      <trkpt lat="43.63463" lon="3.8683">
        <ele>64</ele>
        <time>2021-03-21T09:07:56Z</time>
      </trkpt>
      <trkpt lat="43.63467" lon="3.8683">
        <ele>64</ele>
        <time>2021-03-21T09:07:57Z</time>
      </trkpt>
      <trkpt lat="43.6347" lon="3.8683">
        <ele>64</ele>
        <time>2021-03-21T09:07:58Z</time>
      </trkpt>
      <trkpt lat="43.63474" lon="3.8683">
        <ele>64</ele>
        <time>2021-03-21T09:07:59Z</time>
      </trkpt>
      <trkpt lat="43.63478" lon="3.86831">
        <ele>64</ele>
        <time>2021-03-21T09:08:00Z</time>
      </trkpt>
      <trkpt lat="43.63481" lon="3.86831">
        <ele>64</ele>
        <time>2021-03-21T09:08:01Z</time>
      </trkpt>
      <trkpt lat="43.63485" lon="3.8683">
        <ele>64</ele>
        <time>2021-03-21T09:08:02Z</time>
      </trkpt>
      <trkpt lat="43.63489" lon="3.8683">
        <ele>64</ele>
        <time>2021-03-21T09:08:03Z</time>
      </trkpt>
      <trkpt lat="43.63493" lon="3.86831">
        <ele>64</ele>
        <time>2021-03-21T09:08:04Z</time>
      </trkpt>
      <trkpt lat="43.63496" lon="3.86832">
        <ele>64</ele>
        <time>2021-03-21T09:08:05Z</time>
      </trkpt>
      <trkpt lat="43.635" lon="3.86834">
        <ele>64</ele>
        <time>2021-03-21T09:08:06Z</time>
      </trkpt>
      <trkpt lat="43.63504" lon="3.86835">
        <ele>64</ele>
        <time>2021-03-21T09:08:07Z</time>
      </trkpt>
      <trkpt lat="43.63508" lon="3.86836">
        <ele>64</ele>
        <time>2021-03-21T09:08:08Z</time>
      </trkpt>
      <trkpt lat="43.63513" lon="3.86836">
        <ele>64</ele>
        <time>2021-03-21T09:08:09Z</time>
      </trkpt>
      <trkpt lat="43.63517" lon="3.86836">
        <ele>64</ele>
        <time>2021-03-21T09:08:10Z</time>
      </trkpt>
      <trkpt lat="43.63521" lon="3.86837">
        <ele>64</ele>
        <time>2021-03-21T09:08:11Z</time>
      </trkpt>
      <trkpt lat="43.63525" lon="3.86838">
        <ele>64</ele>
        <time>2021-03-21T09:08:12Z</time>
      </trkpt>
      <trkpt lat="43.63529" lon="3.86839">
        <ele>64</ele>
        <time>2021-03-21T09:08:13Z</time>
      </trkpt>
      <trkpt lat="43.63533" lon="3.86839">
        <ele>64</ele>
        <time>2021-03-21T09:08:14Z</time>
      </trkpt>
      <trkpt lat="43.63536" lon="3.8684">
        <ele>64</ele>
        <time>2021-03-21T09:08:15Z</time>
      </trkpt>
      <trkpt lat="43.6354" lon="3.8684">
        <ele>64</ele>
        <time>2021-03-21T09:08:16Z</time>
      </trkpt>
      <trkpt lat="43.63543" lon="3.86841">
        <ele>64</ele>
        <time>2021-03-21T09:08:17Z</time>
      </trkpt>
      <trkpt lat="43.63547" lon="3.86842">
        <ele>64</ele>
        <time>2021-03-21T09:08:18Z</time>
      </trkpt>
      <trkpt lat="43.6355" lon="3.86844">
        <ele>64</ele>
        <time>2021-03-21T09:08:19Z</time>
      </trkpt>
      <trkpt lat="43.63552" lon="3.86846">
        <ele>64</ele>
        <time>2021-03-21T09:08:20Z</time>
      </trkpt>
      <trkpt lat="43.63555" lon="3.86848">
        <ele>64</ele>
        <time>2021-03-21T09:08:21Z</time>
      </trkpt>
      <trkpt lat="43.63557" lon="3.86848">
        <ele>64</ele>
        <time>2021-03-21T09:08:22Z</time>
      </trkpt>
      <trkpt lat="43.6356" lon="3.86848">
        <ele>64</ele>
        <time>2021-03-21T09:08:23Z</time>
      </trkpt>
      <trkpt lat="43.63562" lon="3.86847">
        <ele>64</ele>
        <time>2021-03-21T09:08:24Z</time>
      </trkpt>
      <trkpt lat="43.63564" lon="3.86845">
        <ele>64</ele>
        <time>2021-03-21T09:08:25Z</time>
      </trkpt>
      <trkpt lat="43.63566" lon="3.86843">
        <ele>64</ele>
        <time>2021-03-21T09:08:26Z</time>
      </trkpt>
      <trkpt lat="43.63569" lon="3.86843">
        <ele>64</ele>
        <time>2021-03-21T09:08:27Z</time>
      </trkpt>
      <trkpt lat="43.63572" lon="3.86844">
        <ele>64</ele>
        <time>2021-03-21T09:08:28Z</time>
      </trkpt>
      <trkpt lat="43.63575" lon="3.86845">
        <ele>64</ele>
        <time>2021-03-21T09:08:29Z</time>
      </trkpt>
      <trkpt lat="43.63578" lon="3.86846">
        <ele>64</ele>
        <time>2021-03-21T09:08:30Z</time>
      </trkpt>
      <trkpt lat="43.6358" lon="3.86847">
        <ele>64</ele>
        <time>2021-03-21T09:08:31Z</time>
      </trkpt>
      <trkpt lat="43.63583" lon="3.86847">
        <ele>64</ele>
        <time>2021-03-21T09:08:33Z</time>
      </trkpt>
      <trkpt lat="43.63585" lon="3.86848">
        <ele>64</ele>
        <time>2021-03-21T09:08:34Z</time>
      </trkpt>
      <trkpt lat="43.63588" lon="3.86849">
        <ele>64</ele>
        <time>2021-03-21T09:08:35Z</time>
      </trkpt>
      <trkpt lat="43.63591" lon="3.8685">
        <ele>64</ele>
        <time>2021-03-21T09:08:36Z</time>
      </trkpt>
      <trkpt lat="43.63594" lon="3.86852">
        <ele>64</ele>
        <time>2021-03-21T09:08:37Z</time>
      </trkpt>
      <trkpt lat="43.63598" lon="3.86853">
        <ele>64</ele>
        <time>2021-03-21T09:08:38Z</time>
      </trkpt>
      <trkpt lat="43.63601" lon="3.86854">
        <ele>64</ele>
        <time>2021-03-21T09:08:39Z</time>
      </trkpt>
      <trkpt lat="43.63605" lon="3.86855">
        <ele>64</ele>
        <time>2021-03-21T09:08:40Z</time>
      </trkpt>
      <trkpt lat="43.63609" lon="3.86857">
        <ele>64</ele>
        <time>2021-03-21T09:08:41Z</time>
      </trkpt>
      <trkpt lat="43.63613" lon="3.86859">
        <ele>67</ele>
        <time>2021-03-21T09:08:42Z</time>
      </trkpt>
      <trkpt lat="43.63617" lon="3.8686">
        <ele>67</ele>
        <time>2021-03-21T09:08:43Z</time>
      </trkpt>
      <trkpt lat="43.63621" lon="3.86862">
        <ele>67</ele>
        <time>2021-03-21T09:08:44Z</time>
      </trkpt>
      <trkpt lat="43.63626" lon="3.86864">
        <ele>67</ele>
        <time>2021-03-21T09:08:45Z</time>
      </trkpt>
      <trkpt lat="43.6363" lon="3.86865">
        <ele>67</ele>
        <time>2021-03-21T09:08:46Z</time>
      </trkpt>
      <trkpt lat="43.63635" lon="3.86867">
        <ele>67</ele>
        <time>2021-03-21T09:08:47Z</time>
      </trkpt>
      <trkpt lat="43.63639" lon="3.86868">
        <ele>67</ele>
        <time>2021-03-21T09:08:48Z</time>
      </trkpt>
      <trkpt lat="43.63644" lon="3.8687">
        <ele>67</ele>
        <time>2021-03-21T09:08:49Z</time>
      </trkpt>
      <trkpt lat="43.63649" lon="3.86871">
        <ele>67</ele>
        <time>2021-03-21T09:08:50Z</time>
      </trkpt>
      <trkpt lat="43.63654" lon="3.86874">
        <ele>67</ele>
        <time>2021-03-21T09:08:51Z</time>
      </trkpt>
      <trkpt lat="43.63659" lon="3.86878">
        <ele>67</ele>
        <time>2021-03-21T09:08:52Z</time>
      </trkpt>
      <trkpt lat="43.63664" lon="3.86882">
        <ele>67</ele>
        <time>2021-03-21T09:08:53Z</time>
      </trkpt>
      <trkpt lat="43.63669" lon="3.86885">
        <ele>67</ele>
        <time>2021-03-21T09:08:54Z</time>
      </trkpt>
      <trkpt lat="43.63674" lon="3.86887">
        <ele>67</ele>
        <time>2021-03-21T09:08:55Z</time>
      </trkpt>
      <trkpt lat="43.63678" lon="3.86889">
        <ele>67</ele>
        <time>2021-03-21T09:08:56Z</time>
      </trkpt>
      <trkpt lat="43.63682" lon="3.86891">
        <ele>67</ele>
        <time>2021-03-21T09:08:57Z</time>
      </trkpt>
      <trkpt lat="43.63686" lon="3.86892">
        <ele>67</ele>
        <time>2021-03-21T09:08:58Z</time>
      </trkpt>
      <trkpt lat="43.6369" lon="3.86894">
        <ele>67</ele>
        <time>2021-03-21T09:08:59Z</time>
      </trkpt>
      <trkpt lat="43.63693" lon="3.86896">
        <ele>67</ele>
        <time>2021-03-21T09:09:00Z</time>
      </trkpt>
      <trkpt lat="43.63697" lon="3.86898">
        <ele>67</ele>
        <time>2021-03-21T09:09:01Z</time>
      </trkpt>
      <trkpt lat="43.63702" lon="3.86899">
        <ele>67</ele>
        <time>2021-03-21T09:09:02Z</time>
      </trkpt>
      <trkpt lat="43.63706" lon="3.869">
        <ele>67</ele>
        <time>2021-03-21T09:09:03Z</time>
      </trkpt>
      <trkpt lat="43.63711" lon="3.86901">
        <ele>67</ele>
        <time>2021-03-21T09:09:04Z</time>
      </trkpt>
      <trkpt lat="43.63716" lon="3.86902">
        <ele>67</ele>
        <time>2021-03-21T09:09:05Z</time>
      </trkpt>
      <trkpt lat="43.6372" lon="3.86904">
        <ele>67</ele>
        <time>2021-03-21T09:09:06Z</time>
      </trkpt>
      <trkpt lat="43.63725" lon="3.86906">
        <ele>67</ele>
        <time>2021-03-21T09:09:07Z</time>
      </trkpt>
      <trkpt lat="43.6373" lon="3.86908">
        <ele>67</ele>
        <time>2021-03-21T09:09:08Z</time>
      </trkpt>
      <trkpt lat="43.63735" lon="3.8691">
        <ele>67</ele>
        <time>2021-03-21T09:09:09Z</time>
      </trkpt>
      <trkpt lat="43.6374" lon="3.86913">
        <ele>67</ele>
        <time>2021-03-21T09:09:10Z</time>
      </trkpt>
      <trkpt lat="43.63745" lon="3.86915">
        <ele>67</ele>
        <time>2021-03-21T09:09:11Z</time>
      </trkpt>
      <trkpt lat="43.63749" lon="3.86918">
        <ele>67</ele>
        <time>2021-03-21T09:09:12Z</time>
      </trkpt>
      <trkpt lat="43.63754" lon="3.8692">
        <ele>67</ele>
        <time>2021-03-21T09:09:13Z</time>
      </trkpt>
      <trkpt lat="43.63758" lon="3.86922">
        <ele>67</ele>
        <time>2021-03-21T09:09:14Z</time>
      </trkpt>
      <trkpt lat="43.63763" lon="3.86925">
        <ele>67</ele>
        <time>2021-03-21T09:09:15Z</time>
      </trkpt>
      <trkpt lat="43.63767" lon="3.86927">
        <ele>67</ele>
        <time>2021-03-21T09:09:16Z</time>
      </trkpt>
      <trkpt lat="43.63771" lon="3.8693">
        <ele>67</ele>
        <time>2021-03-21T09:09:17Z</time>
      </trkpt>
      <trkpt lat="43.63774" lon="3.86933">
        <ele>67</ele>
        <time>2021-03-21T09:09:18Z</time>
      </trkpt>
      <trkpt lat="43.63778" lon="3.86935">
        <ele>67</ele>
        <time>2021-03-21T09:09:19Z</time>
      </trkpt>
      <trkpt lat="43.63781" lon="3.86937">
        <ele>67</ele>
        <time>2021-03-21T09:09:20Z</time>
      </trkpt>
      <trkpt lat="43.63784" lon="3.8694">
        <ele>67</ele>
        <time>2021-03-21T09:09:21Z</time>
      </trkpt>
      <trkpt lat="43.63787" lon="3.86942">
        <ele>69</ele>
        <time>2021-03-21T09:09:22Z</time>
      </trkpt>
      <trkpt lat="43.63789" lon="3.86945">
        <ele>69</ele>
        <time>2021-03-21T09:09:23Z</time>
      </trkpt>
      <trkpt lat="43.63792" lon="3.86947">
        <ele>69</ele>
        <time>2021-03-21T09:09:24Z</time>
      </trkpt>
      <trkpt lat="43.63795" lon="3.86949">
        <ele>69</ele>
        <time>2021-03-21T09:09:25Z</time>
      </trkpt>
      <trkpt lat="43.63797" lon="3.86952">
        <ele>69</ele>
        <time>2021-03-21T09:09:26Z</time>
      </trkpt>
      <trkpt lat="43.638" lon="3.86955">
        <ele>69</ele>
        <time>2021-03-21T09:09:27Z</time>
      </trkpt>
      <trkpt lat="43.63801" lon="3.86959">
        <ele>69</ele>
        <time>2021-03-21T09:09:28Z</time>
      </trkpt>
      <trkpt lat="43.63803" lon="3.86962">
        <ele>69</ele>
        <time>2021-03-21T09:09:29Z</time>
      </trkpt>
      <trkpt lat="43.63805" lon="3.86966">
        <ele>69</ele>
        <time>2021-03-21T09:09:30Z</time>
      </trkpt>
      <trkpt lat="43.63807" lon="3.86969">
        <ele>69</ele>
        <time>2021-03-21T09:09:31Z</time>
      </trkpt>
      <trkpt lat="43.63809" lon="3.86973">
        <ele>70</ele>
        <time>2021-03-21T09:09:32Z</time>
      </trkpt>
      <trkpt lat="43.63811" lon="3.86977">
        <ele>70</ele>
        <time>2021-03-21T09:09:33Z</time>
      </trkpt>
      <trkpt lat="43.63812" lon="3.8698">
        <ele>70</ele>
        <time>2021-03-21T09:09:34Z</time>
      </trkpt>
      <trkpt lat="43.63814" lon="3.86984">
        <ele>70</ele>
        <time>2021-03-21T09:09:35Z</time>
      </trkpt>
      <trkpt lat="43.63815" lon="3.86988">
        <ele>70</ele>
        <time>2021-03-21T09:09:36Z</time>
      </trkpt>
      <trkpt lat="43.63817" lon="3.86992">
        <ele>70</ele>
        <time>2021-03-21T09:09:37Z</time>
      </trkpt>
      <trkpt lat="43.63818" lon="3.86997">
        <ele>70</ele>
        <time>2021-03-21T09:09:38Z</time>
      </trkpt>
      <trkpt lat="43.6382" lon="3.87001">
        <ele>70</ele>
        <time>2021-03-21T09:09:39Z</time>
      </trkpt>
      <trkpt lat="43.63821" lon="3.87005">
        <ele>70</ele>
        <time>2021-03-21T09:09:40Z</time>
      </trkpt>
      <trkpt lat="43.63823" lon="3.87009">
        <ele>71</ele>
        <time>2021-03-21T09:09:41Z</time>
      </trkpt>
      <trkpt lat="43.63825" lon="3.87014">
        <ele>71</ele>
        <time>2021-03-21T09:09:42Z</time>
      </trkpt>
      <trkpt lat="43.63826" lon="3.87018">
        <ele>71</ele>
        <time>2021-03-21T09:09:43Z</time>
      </trkpt>
      <trkpt lat="43.63828" lon="3.87023">
        <ele>71</ele>
        <time>2021-03-21T09:09:44Z</time>
      </trkpt>
      <trkpt lat="43.63829" lon="3.87027">
        <ele>71</ele>
        <time>2021-03-21T09:09:45Z</time>
      </trkpt>
      <trkpt lat="43.6383" lon="3.87032">
        <ele>71</ele>
        <time>2021-03-21T09:09:46Z</time>
      </trkpt>
      <trkpt lat="43.63831" lon="3.87036">
        <ele>71</ele>
        <time>2021-03-21T09:09:47Z</time>
      </trkpt>
      <trkpt lat="43.63833" lon="3.87041">
        <ele>71</ele>
        <time>2021-03-21T09:09:48Z</time>
      </trkpt>
      <trkpt lat="43.63834" lon="3.87045">
        <ele>71</ele>
        <time>2021-03-21T09:09:49Z</time>
      </trkpt>
      <trkpt lat="43.63835" lon="3.87049">
        <ele>71</ele>
        <time>2021-03-21T09:09:50Z</time>
      </trkpt>
      <trkpt lat="43.63836" lon="3.87053">
        <ele>71</ele>
        <time>2021-03-21T09:09:51Z</time>
      </trkpt>
      <trkpt lat="43.63837" lon="3.87057">
        <ele>73</ele>
        <time>2021-03-21T09:09:52Z</time>
      </trkpt>
      <trkpt lat="43.63838" lon="3.87061">
        <ele>73</ele>
        <time>2021-03-21T09:09:53Z</time>
      </trkpt>
      <trkpt lat="43.63839" lon="3.87065">
        <ele>73</ele>
        <time>2021-03-21T09:09:54Z</time>
      </trkpt>
      <trkpt lat="43.6384" lon="3.87069">
        <ele>73</ele>
        <time>2021-03-21T09:09:55Z</time>
      </trkpt>
      <trkpt lat="43.63841" lon="3.87072">
        <ele>73</ele>
        <time>2021-03-21T09:09:56Z</time>
      </trkpt>
      <trkpt lat="43.63842" lon="3.87076">
        <ele>73</ele>
        <time>2021-03-21T09:09:57Z</time>
      </trkpt>
      <trkpt lat="43.63842" lon="3.87079">
        <ele>73</ele>
        <time>2021-03-21T09:09:58Z</time>
      </trkpt>
      <trkpt lat="43.63843" lon="3.87082">
        <ele>73</ele>
        <time>2021-03-21T09:09:59Z</time>
      </trkpt>
      <trkpt lat="43.63844" lon="3.87086">
        <ele>73</ele>
        <time>2021-03-21T09:10:00Z</time>
      </trkpt>
      <trkpt lat="43.63845" lon="3.87089">
        <ele>73</ele>
        <time>2021-03-21T09:10:01Z</time>
      </trkpt>
      <trkpt lat="43.63846" lon="3.87094">
        <ele>74</ele>
        <time>2021-03-21T09:10:02Z</time>
      </trkpt>
      <trkpt lat="43.63849" lon="3.87102">
        <ele>74</ele>
        <time>2021-03-21T09:10:03Z</time>
      </trkpt>
      <trkpt lat="43.63851" lon="3.8711">
        <ele>74</ele>
        <time>2021-03-21T09:10:05Z</time>
      </trkpt>
      <trkpt lat="43.63853" lon="3.87119">
        <ele>74</ele>
        <time>2021-03-21T09:10:07Z</time>
      </trkpt>
      <trkpt lat="43.63854" lon="3.87123">
        <ele>74</ele>
        <time>2021-03-21T09:10:09Z</time>
      </trkpt>
      <trkpt lat="43.63855" lon="3.87127">
        <ele>74</ele>
        <time>2021-03-21T09:10:10Z</time>
      </trkpt>
      <trkpt lat="43.63856" lon="3.87131">
        <ele>74</ele>
        <time>2021-03-21T09:10:11Z</time>
      </trkpt>
      <trkpt lat="43.63857" lon="3.87134">
        <ele>75</ele>
        <time>2021-03-21T09:10:12Z</time>
      </trkpt>
      <trkpt lat="43.63858" lon="3.87138">
        <ele>75</ele>
        <time>2021-03-21T09:10:13Z</time>
      </trkpt>
      <trkpt lat="43.63859" lon="3.87142">
        <ele>75</ele>
        <time>2021-03-21T09:10:14Z</time>
      </trkpt>
      <trkpt lat="43.6386" lon="3.87146">
        <ele>75</ele>
        <time>2021-03-21T09:10:15Z</time>
      </trkpt>
      <trkpt lat="43.63861" lon="3.8715">
        <ele>75</ele>
        <time>2021-03-21T09:10:16Z</time>
      </trkpt>
      <trkpt lat="43.63862" lon="3.87154">
        <ele>75</ele>
        <time>2021-03-21T09:10:17Z</time>
      </trkpt>
      <trkpt lat="43.63863" lon="3.87158">
        <ele>75</ele>
        <time>2021-03-21T09:10:18Z</time>
      </trkpt>
      <trkpt lat="43.63864" lon="3.87162">
        <ele>75</ele>
        <time>2021-03-21T09:10:19Z</time>
      </trkpt>
      <trkpt lat="43.63865" lon="3.87166">
        <ele>75</ele>
        <time>2021-03-21T09:10:20Z</time>
      </trkpt>
      <trkpt lat="43.63866" lon="3.87171">
        <ele>75</ele>
        <time>2021-03-21T09:10:21Z</time>
      </trkpt>
      <trkpt lat="43.63867" lon="3.87175">
        <ele>76</ele>
        <time>2021-03-21T09:10:22Z</time>
      </trkpt>
      <trkpt lat="43.63868" lon="3.87178">
        <ele>76</ele>
        <time>2021-03-21T09:10:23Z</time>
      </trkpt>
      <trkpt lat="43.63869" lon="3.87182">
        <ele>76</ele>
        <time>2021-03-21T09:10:24Z</time>
      </trkpt>
      <trkpt lat="43.6387" lon="3.87186">
        <ele>76</ele>
        <time>2021-03-21T09:10:25Z</time>
      </trkpt>
      <trkpt lat="43.63872" lon="3.8719">
        <ele>76</ele>
        <time>2021-03-21T09:10:26Z</time>
      </trkpt>
      <trkpt lat="43.63873" lon="3.87194">
        <ele>76</ele>
        <time>2021-03-21T09:10:27Z</time>
      </trkpt>
      <trkpt lat="43.63874" lon="3.87198">
        <ele>76</ele>
        <time>2021-03-21T09:10:28Z</time>
      </trkpt>
      <trkpt lat="43.63875" lon="3.87203">
        <ele>76</ele>
        <time>2021-03-21T09:10:29Z</time>
      </trkpt>
      <trkpt lat="43.63876" lon="3.87207">
        <ele>76</ele>
        <time>2021-03-21T09:10:30Z</time>
      </trkpt>
      <trkpt lat="43.63877" lon="3.87211">
        <ele>76</ele>
        <time>2021-03-21T09:10:31Z</time>
      </trkpt>
      <trkpt lat="43.63878" lon="3.87215">
        <ele>77</ele>
        <time>2021-03-21T09:10:32Z</time>
      </trkpt>
      <trkpt lat="43.6388" lon="3.87219">
        <ele>77</ele>
        <time>2021-03-21T09:10:33Z</time>
      </trkpt>
      <trkpt lat="43.63881" lon="3.87223">
        <ele>77</ele>
        <time>2021-03-21T09:10:34Z</time>
      </trkpt>
      <trkpt lat="43.63882" lon="3.87228">
        <ele>77</ele>
        <time>2021-03-21T09:10:35Z</time>
      </trkpt>
      <trkpt lat="43.63884" lon="3.87232">
        <ele>77</ele>
        <time>2021-03-21T09:10:36Z</time>
      </trkpt>
      <trkpt lat="43.63885" lon="3.87236">
        <ele>77</ele>
        <time>2021-03-21T09:10:37Z</time>
      </trkpt>
      <trkpt lat="43.63886" lon="3.8724">
        <ele>77</ele>
        <time>2021-03-21T09:10:38Z</time>
      </trkpt>
      <trkpt lat="43.63888" lon="3.87244">
        <ele>77</ele>
        <time>2021-03-21T09:10:39Z</time>
      </trkpt>
      <trkpt lat="43.63889" lon="3.87248">
        <ele>77</ele>
        <time>2021-03-21T09:10:40Z</time>
      </trkpt>
      <trkpt lat="43.6389" lon="3.87252">
        <ele>77</ele>
        <time>2021-03-21T09:10:41Z</time>
      </trkpt>
      <trkpt lat="43.63891" lon="3.87256">
        <ele>78</ele>
        <time>2021-03-21T09:10:42Z</time>
      </trkpt>
      <trkpt lat="43.63892" lon="3.87261">
        <ele>78</ele>
        <time>2021-03-21T09:10:43Z</time>
      </trkpt>
      <trkpt lat="43.63893" lon="3.87264">
        <ele>78</ele>
        <time>2021-03-21T09:10:44Z</time>
      </trkpt>
      <trkpt lat="43.63894" lon="3.87268">
        <ele>78</ele>
        <time>2021-03-21T09:10:45Z</time>
      </trkpt>
      <trkpt lat="43.63895" lon="3.87272">
        <ele>78</ele>
        <time>2021-03-21T09:10:46Z</time>
      </trkpt>
      <trkpt lat="43.63896" lon="3.87276">
        <ele>78</ele>
        <time>2021-03-21T09:10:47Z</time>
      </trkpt>
      <trkpt lat="43.63897" lon="3.8728">
        <ele>78</ele>
        <time>2021-03-21T09:10:48Z</time>
      </trkpt>
      <trkpt lat="43.63898" lon="3.87284">
        <ele>78</ele>
        <time>2021-03-21T09:10:49Z</time>
      </trkpt>
      <trkpt lat="43.63899" lon="3.87287">
        <ele>78</ele>
        <time>2021-03-21T09:10:50Z</time>
      </trkpt>
      <trkpt lat="43.639" lon="3.87291">
        <ele>78</ele>
        <time>2021-03-21T09:10:51Z</time>
      </trkpt>
      <trkpt lat="43.63901" lon="3.87295">
        <ele>78</ele>
        <time>2021-03-21T09:10:52Z</time>
      </trkpt>
      <trkpt lat="43.63902" lon="3.87298">
        <ele>78</ele>
        <time>2021-03-21T09:10:53Z</time>
      </trkpt>
      <trkpt lat="43.63903" lon="3.87301">
        <ele>78</ele>
        <time>2021-03-21T09:10:54Z</time>
      </trkpt>
      <trkpt lat="43.63904" lon="3.87304">
        <ele>78</ele>
        <time>2021-03-21T09:10:55Z</time>
      </trkpt>
      <trkpt lat="43.63905" lon="3.87307">
        <ele>78</ele>
        <time>2021-03-21T09:10:56Z</time>
      </trkpt>
      <trkpt lat="43.63907" lon="3.87311">
        <ele>78</ele>
        <time>2021-03-21T09:10:57Z</time>
      </trkpt>
      <trkpt lat="43.63908" lon="3.87314">
        <ele>78</ele>
        <time>2021-03-21T09:10:58Z</time>
      </trkpt>
      <trkpt lat="43.63909" lon="3.87318">
        <ele>78</ele>
        <time>2021-03-21T09:10:59Z</time>
      </trkpt>
      <trkpt lat="43.6391" lon="3.87321">
        <ele>78</ele>
        <time>2021-03-21T09:11:00Z</time>
      </trkpt>
      <trkpt lat="43.63911" lon="3.87325">
        <ele>78</ele>
        <time>2021-03-21T09:11:01Z</time>
      </trkpt>
      <trkpt lat="43.63912" lon="3.87327">
        <ele>80</ele>
        <time>2021-03-21T09:11:02Z</time>
      </trkpt>
      <trkpt lat="43.63914" lon="3.8733">
        <ele>80</ele>
        <time>2021-03-21T09:11:03Z</time>
      </trkpt>
      <trkpt lat="43.63916" lon="3.87333">
        <ele>80</ele>
        <time>2021-03-21T09:11:04Z</time>
      </trkpt>
      <trkpt lat="43.63917" lon="3.87335">
        <ele>80</ele>
        <time>2021-03-21T09:11:05Z</time>
      </trkpt>
      <trkpt lat="43.6392" lon="3.87337">
        <ele>80</ele>
        <time>2021-03-21T09:11:06Z</time>
      </trkpt>
      <trkpt lat="43.63922" lon="3.87339">
        <ele>80</ele>
        <time>2021-03-21T09:11:07Z</time>
      </trkpt>
      <trkpt lat="43.63925" lon="3.87341">
        <ele>80</ele>
        <time>2021-03-21T09:11:08Z</time>
      </trkpt>
      <trkpt lat="43.63928" lon="3.87343">
        <ele>80</ele>
        <time>2021-03-21T09:11:09Z</time>
      </trkpt>
      <trkpt lat="43.6393" lon="3.87344">
        <ele>80</ele>
        <time>2021-03-21T09:11:10Z</time>
      </trkpt>
      <trkpt lat="43.63933" lon="3.87345">
        <ele>80</ele>
        <time>2021-03-21T09:11:11Z</time>
      </trkpt>
      <trkpt lat="43.63935" lon="3.87345">
        <ele>82</ele>
        <time>2021-03-21T09:11:12Z</time>
      </trkpt>
      <trkpt lat="43.63938" lon="3.87346">
        <ele>82</ele>
        <time>2021-03-21T09:11:13Z</time>
      </trkpt>
      <trkpt lat="43.6394" lon="3.87347">
        <ele>82</ele>
        <time>2021-03-21T09:11:14Z</time>
      </trkpt>
      <trkpt lat="43.63943" lon="3.87348">
        <ele>82</ele>
        <time>2021-03-21T09:11:15Z</time>
      </trkpt>
      <trkpt lat="43.63946" lon="3.87348">
        <ele>82</ele>
        <time>2021-03-21T09:11:16Z</time>
      </trkpt>
      <trkpt lat="43.63948" lon="3.87348">
        <ele>82</ele>
        <time>2021-03-21T09:11:17Z</time>
      </trkpt>
      <trkpt lat="43.63951" lon="3.87348">
        <ele>82</ele>
        <time>2021-03-21T09:11:18Z</time>
      </trkpt>
      <trkpt lat="43.63953" lon="3.87348">
        <ele>82</ele>
        <time>2021-03-21T09:11:19Z</time>
      </trkpt>
      <trkpt lat="43.63956" lon="3.87347">
        <ele>82</ele>
        <time>2021-03-21T09:11:20Z</time>
      </trkpt>
      <trkpt lat="43.63958" lon="3.87347">
        <ele>82</ele>
        <time>2021-03-21T09:11:21Z</time>
      </trkpt>
      <trkpt lat="43.63961" lon="3.87348">
        <ele>85</ele>
        <time>2021-03-21T09:11:22Z</time>
      </trkpt>
      <trkpt lat="43.63963" lon="3.87347">
        <ele>85</ele>
        <time>2021-03-21T09:11:23Z</time>
      </trkpt>
      <trkpt lat="43.63965" lon="3.87346">
        <ele>85</ele>
        <time>2021-03-21T09:11:24Z</time>
      </trkpt>
      <trkpt lat="43.63967" lon="3.87345">
        <ele>85</ele>
        <time>2021-03-21T09:11:25Z</time>
      </trkpt>
      <trkpt lat="43.63969" lon="3.87343">
        <ele>85</ele>
        <time>2021-03-21T09:11:26Z</time>
      </trkpt>
      <trkpt lat="43.63972" lon="3.87343">
        <ele>85</ele>
        <time>2021-03-21T09:11:27Z</time>
      </trkpt>
      <trkpt lat="43.63974" lon="3.87341">
        <ele>85</ele>
        <time>2021-03-21T09:11:28Z</time>
      </trkpt>
      <trkpt lat="43.63976" lon="3.8734">
        <ele>85</ele>
        <time>2021-03-21T09:11:29Z</time>
      </trkpt>
      <trkpt lat="43.63977" lon="3.87339">
        <ele>85</ele>
        <time>2021-03-21T09:11:30Z</time>
      </trkpt>
      <trkpt lat="43.63979" lon="3.87337">
        <ele>85</ele>
        <time>2021-03-21T09:11:31Z</time>
      </trkpt>
      <trkpt lat="43.63981" lon="3.87335">
        <ele>86</ele>
        <time>2021-03-21T09:11:32Z</time>
      </trkpt>
      <trkpt lat="43.63983" lon="3.87334">
        <ele>86</ele>
        <time>2021-03-21T09:11:33Z</time>
      </trkpt>
      <trkpt lat="43.63986" lon="3.87332">
        <ele>86</ele>
        <time>2021-03-21T09:11:34Z</time>
      </trkpt>
      <trkpt lat="43.63987" lon="3.8733">
        <ele>86</ele>
        <time>2021-03-21T09:11:35Z</time>
      </trkpt>
      <trkpt lat="43.63989" lon="3.87328">
        <ele>86</ele>
        <time>2021-03-21T09:11:36Z</time>
      </trkpt>
      <trkpt lat="43.63991" lon="3.87327">
        <ele>86</ele>
        <time>2021-03-21T09:11:37Z</time>
      </trkpt>
      <trkpt lat="43.63993" lon="3.87325">
        <ele>86</ele>
        <time>2021-03-21T09:11:38Z</time>
      </trkpt>
      <trkpt lat="43.63995" lon="3.87324">
        <ele>86</ele>
        <time>2021-03-21T09:11:39Z</time>
      </trkpt>
      <trkpt lat="43.63997" lon="3.87322">
        <ele>86</ele>
        <time>2021-03-21T09:11:40Z</time>
      </trkpt>
      <trkpt lat="43.63999" lon="3.8732">
        <ele>86</ele>
        <time>2021-03-21T09:11:41Z</time>
      </trkpt>
      <trkpt lat="43.64001" lon="3.87318">
        <ele>87</ele>
        <time>2021-03-21T09:11:42Z</time>
      </trkpt>
      <trkpt lat="43.64003" lon="3.87316">
        <ele>87</ele>
        <time>2021-03-21T09:11:43Z</time>
      </trkpt>
      <trkpt lat="43.64004" lon="3.87314">
        <ele>87</ele>
        <time>2021-03-21T09:11:44Z</time>
      </trkpt>
      <trkpt lat="43.64006" lon="3.87312">
        <ele>87</ele>
        <time>2021-03-21T09:11:45Z</time>
      </trkpt>
      <trkpt lat="43.64008" lon="3.87309">
        <ele>87</ele>
        <time>2021-03-21T09:11:47Z</time>
      </trkpt>
      <trkpt lat="43.64011" lon="3.87306">
        <ele>87</ele>
        <time>2021-03-21T09:11:49Z</time>
      </trkpt>
      <trkpt lat="43.64013" lon="3.87304">
        <ele>87</ele>
        <time>2021-03-21T09:11:51Z</time>
      </trkpt>
      <trkpt lat="43.64015" lon="3.87302">
        <ele>87</ele>
        <time>2021-03-21T09:11:52Z</time>
      </trkpt>
      <trkpt lat="43.64017" lon="3.87301">
        <ele>87</ele>
        <time>2021-03-21T09:11:53Z</time>
      </trkpt>
      <trkpt lat="43.64019" lon="3.87299">
        <ele>87</ele>
        <time>2021-03-21T09:11:54Z</time>
      </trkpt>
      <trkpt lat="43.64021" lon="3.87297">
        <ele>87</ele>
        <time>2021-03-21T09:11:55Z</time>
      </trkpt>
      <trkpt lat="43.64023" lon="3.87294">
        <ele>87</ele>
        <time>2021-03-21T09:11:56Z</time>
      </trkpt>
      <trkpt lat="43.64025" lon="3.87292">
        <ele>87</ele>
        <time>2021-03-21T09:11:57Z</time>
      </trkpt>
      <trkpt lat="43.64027" lon="3.8729">
        <ele>87</ele>
        <time>2021-03-21T09:11:58Z</time>
      </trkpt>
      <trkpt lat="43.64029" lon="3.87288">
        <ele>87</ele>
        <time>2021-03-21T09:11:59Z</time>
      </trkpt>
      <trkpt lat="43.64031" lon="3.87285">
        <ele>87</ele>
        <time>2021-03-21T09:12:00Z</time>
      </trkpt>
      <trkpt lat="43.64033" lon="3.87282">
        <ele>87</ele>
        <time>2021-03-21T09:12:01Z</time>
      </trkpt>
      <trkpt lat="43.64036" lon="3.8728">
        <ele>87</ele>
        <time>2021-03-21T09:12:02Z</time>
      </trkpt>
      <trkpt lat="43.64038" lon="3.87278">
        <ele>87</ele>
        <time>2021-03-21T09:12:03Z</time>
      </trkpt>
      <trkpt lat="43.6404" lon="3.87276">
        <ele>87</ele>
        <time>2021-03-21T09:12:04Z</time>
      </trkpt>
      <trkpt lat="43.64042" lon="3.87273">
        <ele>87</ele>
        <time>2021-03-21T09:12:05Z</time>
      </trkpt>
      <trkpt lat="43.64045" lon="3.87271">
        <ele>87</ele>
        <time>2021-03-21T09:12:06Z</time>
      </trkpt>
      <trkpt lat="43.64047" lon="3.87269">
        <ele>87</ele>
        <time>2021-03-21T09:12:07Z</time>
      </trkpt>
      <trkpt lat="43.6405" lon="3.87267">
        <ele>87</ele>
        <time>2021-03-21T09:12:08Z</time>
      </trkpt>
      <trkpt lat="43.64053" lon="3.87265">
        <ele>87</ele>
        <time>2021-03-21T09:12:09Z</time>
      </trkpt>
      <trkpt lat="43.64055" lon="3.87262">
        <ele>87</ele>
        <time>2021-03-21T09:12:10Z</time>
      </trkpt>
      <trkpt lat="43.64058" lon="3.8726">
        <ele>87</ele>
        <time>2021-03-21T09:12:11Z</time>
      </trkpt>
      <trkpt lat="43.64062" lon="3.87257">
        <ele>87</ele>
        <time>2021-03-21T09:12:12Z</time>
      </trkpt>
      <trkpt lat="43.64065" lon="3.87253">
        <ele>87</ele>
        <time>2021-03-21T09:12:13Z</time>
      </trkpt>
      <trkpt lat="43.64069" lon="3.8725">
        <ele>87</ele>
        <time>2021-03-21T09:12:14Z</time>
      </trkpt>
      <trkpt lat="43.64073" lon="3.87246">
        <ele>87</ele>
        <time>2021-03-21T09:12:15Z</time>
      </trkpt>
      <trkpt lat="43.64077" lon="3.87242">
        <ele>87</ele>
        <time>2021-03-21T09:12:16Z</time>
      </trkpt>
      <trkpt lat="43.64081" lon="3.87237">
        <ele>87</ele>
        <time>2021-03-21T09:12:17Z</time>
      </trkpt>
      <trkpt lat="43.64086" lon="3.87233">
        <ele>87</ele>
        <time>2021-03-21T09:12:18Z</time>
      </trkpt>
      <trkpt lat="43.64091" lon="3.87228">
        <ele>87</ele>
        <time>2021-03-21T09:12:19Z</time>
      </trkpt>
      <trkpt lat="43.64096" lon="3.87223">
        <ele>87</ele>
        <time>2021-03-21T09:12:20Z</time>
      </trkpt>
      <trkpt lat="43.64101" lon="3.87218">
        <ele>87</ele>
        <time>2021-03-21T09:12:21Z</time>
      </trkpt>
      <trkpt lat="43.64107" lon="3.87215">
        <ele>87</ele>
        <time>2021-03-21T09:12:22Z</time>
      </trkpt>
      <trkpt lat="43.64113" lon="3.87212">
        <ele>87</ele>
        <time>2021-03-21T09:12:23Z</time>
      </trkpt>
      <trkpt lat="43.64119" lon="3.87208">
        <ele>87</ele>
        <time>2021-03-21T09:12:24Z</time>
      </trkpt>
      <trkpt lat="43.64124" lon="3.87204">
        <ele>87</ele>
        <time>2021-03-21T09:12:25Z</time>
      </trkpt>
      <trkpt lat="43.64129" lon="3.87199">
        <ele>87</ele>
        <time>2021-03-21T09:12:26Z</time>
      </trkpt>
      <trkpt lat="43.64134" lon="3.87195">
        <ele>87</ele>
        <time>2021-03-21T09:12:27Z</time>
      </trkpt>
      <trkpt lat="43.64139" lon="3.87191">
        <ele>87</ele>
        <time>2021-03-21T09:12:28Z</time>
      </trkpt>
      <trkpt lat="43.64143" lon="3.87187">
        <ele>87</ele>
        <time>2021-03-21T09:12:29Z</time>
      </trkpt>
      <trkpt lat="43.64147" lon="3.87183">
        <ele>87</ele>
        <time>2021-03-21T09:12:30Z</time>
      </trkpt>
      <trkpt lat="43.64152" lon="3.87179">
        <ele>87</ele>
        <time>2021-03-21T09:12:31Z</time>
      </trkpt>
      <trkpt lat="43.64157" lon="3.87175">
        <ele>84</ele>
        <time>2021-03-21T09:12:32Z</time>
      </trkpt>
      <trkpt lat="43.64162" lon="3.8717">
        <ele>84</ele>
        <time>2021-03-21T09:12:33Z</time>
      </trkpt>
      <trkpt lat="43.64168" lon="3.87166">
        <ele>84</ele>
        <time>2021-03-21T09:12:34Z</time>
      </trkpt>
      <trkpt lat="43.64173" lon="3.87161">
        <ele>84</ele>
        <time>2021-03-21T09:12:35Z</time>
      </trkpt>
      <trkpt lat="43.64177" lon="3.87157">
        <ele>84</ele>
        <time>2021-03-21T09:12:36Z</time>
      </trkpt>
      <trkpt lat="43.64181" lon="3.87154">
        <ele>84</ele>
        <time>2021-03-21T09:12:37Z</time>
      </trkpt>
      <trkpt lat="43.64185" lon="3.8715">
        <ele>84</ele>
        <time>2021-03-21T09:12:38Z</time>
      </trkpt>
      <trkpt lat="43.64189" lon="3.87147">
        <ele>84</ele>
        <time>2021-03-21T09:12:39Z</time>
      </trkpt>
      <trkpt lat="43.64194" lon="3.87144">
        <ele>84</ele>
        <time>2021-03-21T09:12:40Z</time>
      </trkpt>
      <trkpt lat="43.64199" lon="3.87142">
        <ele>84</ele>
        <time>2021-03-21T09:12:41Z</time>
      </trkpt>
      <trkpt lat="43.64204" lon="3.8714">
        <ele>83</ele>
        <time>2021-03-21T09:12:42Z</time>
      </trkpt>
      <trkpt lat="43.64209" lon="3.87138">
        <ele>83</ele>
        <time>2021-03-21T09:12:43Z</time>
      </trkpt>
      <trkpt lat="43.64215" lon="3.87135">
        <ele>83</ele>
        <time>2021-03-21T09:12:44Z</time>
      </trkpt>
      <trkpt lat="43.64222" lon="3.87134">
        <ele>83</ele>
        <time>2021-03-21T09:12:45Z</time>
      </trkpt>
      <trkpt lat="43.64228" lon="3.87133">
        <ele>83</ele>
        <time>2021-03-21T09:12:46Z</time>
      </trkpt>
      <trkpt lat="43.64235" lon="3.87133">
        <ele>83</ele>
        <time>2021-03-21T09:12:47Z</time>
      </trkpt>
      <trkpt lat="43.64241" lon="3.87133">
        <ele>83</ele>
        <time>2021-03-21T09:12:48Z</time>
      </trkpt>
      <trkpt lat="43.64247" lon="3.87133">
        <ele>83</ele>
        <time>2021-03-21T09:12:49Z</time>
      </trkpt>
      <trkpt lat="43.64254" lon="3.87134">
        <ele>83</ele>
        <time>2021-03-21T09:12:50Z</time>
      </trkpt>
      <trkpt lat="43.64259" lon="3.87135">
        <ele>83</ele>
        <time>2021-03-21T09:12:51Z</time>
      </trkpt>
      <trkpt lat="43.64265" lon="3.87136">
        <ele>80</ele>
        <time>2021-03-21T09:12:52Z</time>
      </trkpt>
      <trkpt lat="43.6427" lon="3.87136">
        <ele>80</ele>
        <time>2021-03-21T09:12:53Z</time>
      </trkpt>
      <trkpt lat="43.64276" lon="3.87136">
        <ele>80</ele>
        <time>2021-03-21T09:12:54Z</time>
      </trkpt>
      <trkpt lat="43.64281" lon="3.87137">
        <ele>80</ele>
        <time>2021-03-21T09:12:55Z</time>
      </trkpt>
      <trkpt lat="43.64287" lon="3.87137">
        <ele>80</ele>
        <time>2021-03-21T09:12:56Z</time>
      </trkpt>
      <trkpt lat="43.64293" lon="3.87137">
        <ele>80</ele>
        <time>2021-03-21T09:12:57Z</time>
      </trkpt>
      <trkpt lat="43.643" lon="3.87137">
        <ele>80</ele>
        <time>2021-03-21T09:12:58Z</time>
      </trkpt>
      <trkpt lat="43.64306" lon="3.87137">
        <ele>80</ele>
        <time>2021-03-21T09:12:59Z</time>
      </trkpt>
      <trkpt lat="43.64312" lon="3.87137">
        <ele>80</ele>
        <time>2021-03-21T09:13:00Z</time>
      </trkpt>
      <trkpt lat="43.64319" lon="3.87138">
        <ele>80</ele>
        <time>2021-03-21T09:13:01Z</time>
      </trkpt>
      <trkpt lat="43.64325" lon="3.87138">
        <ele>76</ele>
        <time>2021-03-21T09:13:02Z</time>
      </trkpt>
      <trkpt lat="43.64331" lon="3.87139">
        <ele>76</ele>
        <time>2021-03-21T09:13:03Z</time>
      </trkpt>
      <trkpt lat="43.64337" lon="3.87139">
        <ele>76</ele>
        <time>2021-03-21T09:13:04Z</time>
      </trkpt>
      <trkpt lat="43.64343" lon="3.87139">
        <ele>76</ele>
        <time>2021-03-21T09:13:05Z</time>
      </trkpt>
      <trkpt lat="43.64349" lon="3.87138">
        <ele>76</ele>
        <time>2021-03-21T09:13:06Z</time>
      </trkpt>
      <trkpt lat="43.64356" lon="3.87137">
        <ele>76</ele>
        <time>2021-03-21T09:13:07Z</time>
      </trkpt>
      <trkpt lat="43.64362" lon="3.87134">
        <ele>76</ele>
        <time>2021-03-21T09:13:08Z</time>
      </trkpt>
      <trkpt lat="43.64368" lon="3.8713">
        <ele>76</ele>
        <time>2021-03-21T09:13:09Z</time>
      </trkpt>
      <trkpt lat="43.64374" lon="3.87125">
        <ele>76</ele>
        <time>2021-03-21T09:13:10Z</time>
      </trkpt>
      <trkpt lat="43.64379" lon="3.87121">
        <ele>76</ele>
        <time>2021-03-21T09:13:11Z</time>
      </trkpt>
      <trkpt lat="43.64385" lon="3.87115">
        <ele>74</ele>
        <time>2021-03-21T09:13:12Z</time>
      </trkpt>
      <trkpt lat="43.6439" lon="3.87109">
        <ele>74</ele>
        <time>2021-03-21T09:13:13Z</time>
      </trkpt>
      <trkpt lat="43.64395" lon="3.87102">
        <ele>74</ele>
        <time>2021-03-21T09:13:14Z</time>
      </trkpt>
      <trkpt lat="43.64399" lon="3.87095">
        <ele>74</ele>
        <time>2021-03-21T09:13:15Z</time>
      </trkpt>
      <trkpt lat="43.64402" lon="3.87087">
        <ele>74</ele>
        <time>2021-03-21T09:13:16Z</time>
      </trkpt>
      <trkpt lat="43.64406" lon="3.8708">
        <ele>74</ele>
        <time>2021-03-21T09:13:17Z</time>
      </trkpt>
      <trkpt lat="43.64409" lon="3.87072">
        <ele>74</ele>
        <time>2021-03-21T09:13:18Z</time>
      </trkpt>
      <trkpt lat="43.64413" lon="3.87065">
        <ele>74</ele>
        <time>2021-03-21T09:13:19Z</time>
      </trkpt>
      <trkpt lat="43.64417" lon="3.87058">
        <ele>74</ele>
        <time>2021-03-21T09:13:20Z</time>
      </trkpt>
      <trkpt lat="43.64421" lon="3.8705">
        <ele>74</ele>
        <time>2021-03-21T09:13:21Z</time>
      </trkpt>
      <trkpt lat="43.64425" lon="3.87043">
        <ele>69</ele>
        <time>2021-03-21T09:13:22Z</time>
      </trkpt>
      <trkpt lat="43.64429" lon="3.87036">
        <ele>69</ele>
        <time>2021-03-21T09:13:23Z</time>
      </trkpt>
      <trkpt lat="43.64433" lon="3.87028">
        <ele>69</ele>
        <time>2021-03-21T09:13:24Z</time>
      </trkpt>
      <trkpt lat="43.64437" lon="3.8702">
        <ele>69</ele>
        <time>2021-03-21T09:13:25Z</time>
      </trkpt>
      <trkpt lat="43.64441" lon="3.87012">
        <ele>69</ele>
        <time>2021-03-21T09:13:26Z</time>
      </trkpt>
      <trkpt lat="43.64445" lon="3.87004">
        <ele>69</ele>
        <time>2021-03-21T09:13:27Z</time>
      </trkpt>
      <trkpt lat="43.64449" lon="3.86996">
        <ele>69</ele>
        <time>2021-03-21T09:13:28Z</time>
      </trkpt>
      <trkpt lat="43.64453" lon="3.86989">
        <ele>69</ele>
        <time>2021-03-21T09:13:29Z</time>
      </trkpt>
      <trkpt lat="43.64456" lon="3.86983">
        <ele>69</ele>
        <time>2021-03-21T09:13:30Z</time>
      </trkpt>
      <trkpt lat="43.64459" lon="3.86977">
        <ele>69</ele>
        <time>2021-03-21T09:13:31Z</time>
      </trkpt>
      <trkpt lat="43.64463" lon="3.8697">
        <ele>64</ele>
        <time>2021-03-21T09:13:32Z</time>
      </trkpt>
      <trkpt lat="43.64466" lon="3.86964">
        <ele>64</ele>
        <time>2021-03-21T09:13:33Z</time>
      </trkpt>
      <trkpt lat="43.64469" lon="3.86958">
        <ele>64</ele>
        <time>2021-03-21T09:13:34Z</time>
      </trkpt>
      <trkpt lat="43.64472" lon="3.86953">
        <ele>64</ele>
        <time>2021-03-21T09:13:35Z</time>
      </trkpt>
      <trkpt lat="43.64474" lon="3.86947">
        <ele>64</ele>
        <time>2021-03-21T09:13:36Z</time>
      </trkpt>
      <trkpt lat="43.64478" lon="3.86942">
        <ele>64</ele>
        <time>2021-03-21T09:13:37Z</time>
      </trkpt>
      <trkpt lat="43.64483" lon="3.8694">
        <ele>64</ele>
        <time>2021-03-21T09:13:38Z</time>
      </trkpt>
      <trkpt lat="43.64487" lon="3.86942">
        <ele>64</ele>
        <time>2021-03-21T09:13:39Z</time>
      </trkpt>
      <trkpt lat="43.64491" lon="3.86945">
        <ele>64</ele>
        <time>2021-03-21T09:13:40Z</time>
      </trkpt>
      <trkpt lat="43.64495" lon="3.86947">
        <ele>64</ele>
        <time>2021-03-21T09:13:41Z</time>
      </trkpt>
      <trkpt lat="43.645" lon="3.86946">
        <ele>59</ele>
        <time>2021-03-21T09:13:42Z</time>
      </trkpt>
      <trkpt lat="43.64503" lon="3.86943">
        <ele>59</ele>
        <time>2021-03-21T09:13:43Z</time>
      </trkpt>
      <trkpt lat="43.64506" lon="3.8694">
        <ele>59</ele>
        <time>2021-03-21T09:13:44Z</time>
      </trkpt>
      <trkpt lat="43.64509" lon="3.86936">
        <ele>59</ele>
        <time>2021-03-21T09:13:45Z</time>
      </trkpt>
      <trkpt lat="43.64512" lon="3.86932">
        <ele>59</ele>
        <time>2021-03-21T09:13:46Z</time>
      </trkpt>
      <trkpt lat="43.64514" lon="3.86926">
        <ele>59</ele>
        <time>2021-03-21T09:13:47Z</time>
      </trkpt>
      <trkpt lat="43.64515" lon="3.86921">
        <ele>59</ele>
        <time>2021-03-21T09:13:48Z</time>
      </trkpt>
      <trkpt lat="43.64516" lon="3.86915">
        <ele>59</ele>
        <time>2021-03-21T09:13:49Z</time>
      </trkpt>
      <trkpt lat="43.64515" lon="3.86909">
        <ele>59</ele>
        <time>2021-03-21T09:13:50Z</time>
      </trkpt>
      <trkpt lat="43.64514" lon="3.86903">
        <ele>59</ele>
        <time>2021-03-21T09:13:51Z</time>
      </trkpt>
      <trkpt lat="43.64513" lon="3.86896">
        <ele>56</ele>
        <time>2021-03-21T09:13:52Z</time>
      </trkpt>
      <trkpt lat="43.64512" lon="3.86889">
        <ele>56</ele>
        <time>2021-03-21T09:13:53Z</time>
      </trkpt>
      <trkpt lat="43.64514" lon="3.86881">
        <ele>56</ele>
        <time>2021-03-21T09:13:54Z</time>
      </trkpt>
      <trkpt lat="43.64516" lon="3.86875">
        <ele>56</ele>
        <time>2021-03-21T09:13:55Z</time>
      </trkpt>
      <trkpt lat="43.6452" lon="3.86869">
        <ele>56</ele>
        <time>2021-03-21T09:13:56Z</time>
      </trkpt>
      <trkpt lat="43.64524" lon="3.86865">
        <ele>56</ele>
        <time>2021-03-21T09:13:57Z</time>
      </trkpt>
      <trkpt lat="43.64528" lon="3.86861">
        <ele>56</ele>
        <time>2021-03-21T09:13:58Z</time>
      </trkpt>
      <trkpt lat="43.64533" lon="3.86858">
        <ele>56</ele>
        <time>2021-03-21T09:13:59Z</time>
      </trkpt>
      <trkpt lat="43.64538" lon="3.86855">
        <ele>56</ele>
        <time>2021-03-21T09:14:00Z</time>
      </trkpt>
      <trkpt lat="43.64544" lon="3.86854">
        <ele>56</ele>
        <time>2021-03-21T09:14:01Z</time>
      </trkpt>
      <trkpt lat="43.64549" lon="3.86853">
        <ele>53</ele>
        <time>2021-03-21T09:14:02Z</time>
      </trkpt>
      <trkpt lat="43.64554" lon="3.86853">
        <ele>53</ele>
        <time>2021-03-21T09:14:03Z</time>
      </trkpt>
      <trkpt lat="43.6456" lon="3.86852">
        <ele>53</ele>
        <time>2021-03-21T09:14:04Z</time>
      </trkpt>
      <trkpt lat="43.64565" lon="3.86852">
        <ele>53</ele>
        <time>2021-03-21T09:14:05Z</time>
      </trkpt>
      <trkpt lat="43.6457" lon="3.86852">
        <ele>53</ele>
        <time>2021-03-21T09:14:06Z</time>
      </trkpt>
      <trkpt lat="43.64575" lon="3.86853">
        <ele>53</ele>
        <time>2021-03-21T09:14:07Z</time>
      </trkpt>
      <trkpt lat="43.6458" lon="3.86853">
        <ele>53</ele>
        <time>2021-03-21T09:14:08Z</time>
      </trkpt>
      <trkpt lat="43.64585" lon="3.86853">
        <ele>53</ele>
        <time>2021-03-21T09:14:09Z</time>
      </trkpt>
      <trkpt lat="43.6459" lon="3.86853">
        <ele>53</ele>
        <time>2021-03-21T09:14:10Z</time>
      </trkpt>
      <trkpt lat="43.64594" lon="3.86853">
        <ele>53</ele>
        <time>2021-03-21T09:14:11Z</time>
      </trkpt>
      <trkpt lat="43.64599" lon="3.86854">
        <ele>51</ele>
        <time>2021-03-21T09:14:12Z</time>
      </trkpt>
      <trkpt lat="43.64605" lon="3.86854">
        <ele>51</ele>
        <time>2021-03-21T09:14:13Z</time>
      </trkpt>
      <trkpt lat="43.6461" lon="3.86854">
        <ele>51</ele>
        <time>2021-03-21T09:14:14Z</time>
      </trkpt>
      <trkpt lat="43.64615" lon="3.86854">
        <ele>51</ele>
        <time>2021-03-21T09:14:15Z</time>
      </trkpt>
      <trkpt lat="43.6462" lon="3.86854">
        <ele>51</ele>
        <time>2021-03-21T09:14:16Z</time>
      </trkpt>
      <trkpt lat="43.64625" lon="3.86855">
        <ele>51</ele>
        <time>2021-03-21T09:14:17Z</time>
      </trkpt>
      <trkpt lat="43.6463" lon="3.86855">
        <ele>51</ele>
        <time>2021-03-21T09:14:18Z</time>
      </trkpt>
      <trkpt lat="43.64635" lon="3.86855">
        <ele>51</ele>
        <time>2021-03-21T09:14:19Z</time>
      </trkpt>
      <trkpt lat="43.6464" lon="3.86855">
        <ele>51</ele>
        <time>2021-03-21T09:14:20Z</time>
      </trkpt>
      <trkpt lat="43.64645" lon="3.86856">
        <ele>51</ele>
        <time>2021-03-21T09:14:21Z</time>
      </trkpt>
      <trkpt lat="43.6465" lon="3.86856">
        <ele>49</ele>
        <time>2021-03-21T09:14:22Z</time>
      </trkpt>
      <trkpt lat="43.64655" lon="3.86856">
        <ele>49</ele>
        <time>2021-03-21T09:14:23Z</time>
      </trkpt>
      <trkpt lat="43.6466" lon="3.86857">
        <ele>49</ele>
        <time>2021-03-21T09:14:24Z</time>
      </trkpt>
      <trkpt lat="43.64665" lon="3.86857">
        <ele>49</ele>
        <time>2021-03-21T09:14:25Z</time>
      </trkpt>
      <trkpt lat="43.6467" lon="3.86857">
        <ele>49</ele>
        <time>2021-03-21T09:14:26Z</time>
      </trkpt>
      <trkpt lat="43.64675" lon="3.86858">
        <ele>49</ele>
        <time>2021-03-21T09:14:27Z</time>
      </trkpt>
      <trkpt lat="43.6468" lon="3.86857">
        <ele>49</ele>
        <time>2021-03-21T09:14:28Z</time>
      </trkpt>
      <trkpt lat="43.64684" lon="3.86857">
        <ele>49</ele>
        <time>2021-03-21T09:14:29Z</time>
      </trkpt>
      <trkpt lat="43.64688" lon="3.86857">
        <ele>49</ele>
        <time>2021-03-21T09:14:30Z</time>
      </trkpt>
      <trkpt lat="43.64693" lon="3.86858">
        <ele>48</ele>
        <time>2021-03-21T09:14:31Z</time>
      </trkpt>
      <trkpt lat="43.64697" lon="3.86859">
        <ele>48</ele>
        <time>2021-03-21T09:14:32Z</time>
      </trkpt>
      <trkpt lat="43.64702" lon="3.8686">
        <ele>48</ele>
        <time>2021-03-21T09:14:33Z</time>
      </trkpt>
      <trkpt lat="43.64706" lon="3.86859">
        <ele>48</ele>
        <time>2021-03-21T09:14:34Z</time>
      </trkpt>
      <trkpt lat="43.6471" lon="3.86858">
        <ele>48</ele>
        <time>2021-03-21T09:14:35Z</time>
      </trkpt>
      <trkpt lat="43.64714" lon="3.86857">
        <ele>48</ele>
        <time>2021-03-21T09:14:36Z</time>
      </trkpt>
      <trkpt lat="43.64719" lon="3.86857">
        <ele>48</ele>
        <time>2021-03-21T09:14:37Z</time>
      </trkpt>
      <trkpt lat="43.64723" lon="3.86857">
        <ele>48</ele>
        <time>2021-03-21T09:14:38Z</time>
      </trkpt>
      <trkpt lat="43.64728" lon="3.86857">
        <ele>48</ele>
        <time>2021-03-21T09:14:39Z</time>
      </trkpt>
      <trkpt lat="43.64732" lon="3.86857">
        <ele>48</ele>
        <time>2021-03-21T09:14:40Z</time>
      </trkpt>
      <trkpt lat="43.64737" lon="3.86858">
        <ele>48</ele>
        <time>2021-03-21T09:14:41Z</time>
      </trkpt>
      <trkpt lat="43.64741" lon="3.86857">
        <ele>50</ele>
        <time>2021-03-21T09:14:42Z</time>
      </trkpt>
      <trkpt lat="43.64746" lon="3.86857">
        <ele>50</ele>
        <time>2021-03-21T09:14:43Z</time>
      </trkpt>
      <trkpt lat="43.64751" lon="3.86857">
        <ele>50</ele>
        <time>2021-03-21T09:14:44Z</time>
      </trkpt>
      <trkpt lat="43.64756" lon="3.86857">
        <ele>50</ele>
        <time>2021-03-21T09:14:45Z</time>
      </trkpt>
      <trkpt lat="43.64761" lon="3.86856">
        <ele>50</ele>
        <time>2021-03-21T09:14:46Z</time>
      </trkpt>
      <trkpt lat="43.64765" lon="3.86857">
        <ele>50</ele>
        <time>2021-03-21T09:14:47Z</time>
      </trkpt>
      <trkpt lat="43.6477" lon="3.86858">
        <ele>50</ele>
        <time>2021-03-21T09:14:48Z</time>
      </trkpt>
      <trkpt lat="43.64775" lon="3.86857">
        <ele>50</ele>
        <time>2021-03-21T09:14:49Z</time>
      </trkpt>
      <trkpt lat="43.6478" lon="3.86857">
        <ele>50</ele>
        <time>2021-03-21T09:14:50Z</time>
      </trkpt>
      <trkpt lat="43.64785" lon="3.86857">
        <ele>50</ele>
        <time>2021-03-21T09:14:51Z</time>
      </trkpt>
      <trkpt lat="43.6479" lon="3.86858">
        <ele>51</ele>
        <time>2021-03-21T09:14:52Z</time>
      </trkpt>
      <trkpt lat="43.64795" lon="3.86858">
        <ele>51</ele>
        <time>2021-03-21T09:14:53Z</time>
      </trkpt>
      <trkpt lat="43.648" lon="3.86857">
        <ele>51</ele>
        <time>2021-03-21T09:14:54Z</time>
      </trkpt>
      <trkpt lat="43.64804" lon="3.86857">
        <ele>51</ele>
        <time>2021-03-21T09:14:55Z</time>
      </trkpt>
      <trkpt lat="43.64809" lon="3.86857">
        <ele>51</ele>
        <time>2021-03-21T09:14:56Z</time>
      </trkpt>
      <trkpt lat="43.64813" lon="3.86856">
        <ele>51</ele>
        <time>2021-03-21T09:14:57Z</time>
      </trkpt>
      <trkpt lat="43.64817" lon="3.86856">
        <ele>51</ele>
        <time>2021-03-21T09:14:58Z</time>
      </trkpt>
      <trkpt lat="43.64822" lon="3.86855">
        <ele>51</ele>
        <time>2021-03-21T09:14:59Z</time>
      </trkpt>
      <trkpt lat="43.64827" lon="3.86854">
        <ele>51</ele>
        <time>2021-03-21T09:15:00Z</time>
      </trkpt>
      <trkpt lat="43.64831" lon="3.86854">
        <ele>51</ele>
        <time>2021-03-21T09:15:01Z</time>
      </trkpt>
      <trkpt lat="43.64835" lon="3.86853">
        <ele>53</ele>
        <time>2021-03-21T09:15:02Z</time>
      </trkpt>
      <trkpt lat="43.64839" lon="3.86851">
        <ele>53</ele>
        <time>2021-03-21T09:15:03Z</time>
      </trkpt>
      <trkpt lat="43.64842" lon="3.8685">
        <ele>53</ele>
        <time>2021-03-21T09:15:04Z</time>
      </trkpt>
      <trkpt lat="43.64846" lon="3.86849">
        <ele>53</ele>
        <time>2021-03-21T09:15:05Z</time>
      </trkpt>
      <trkpt lat="43.64849" lon="3.86847">
        <ele>53</ele>
        <time>2021-03-21T09:15:06Z</time>
      </trkpt>
      <trkpt lat="43.64852" lon="3.86845">
        <ele>53</ele>
        <time>2021-03-21T09:15:07Z</time>
      </trkpt>
      <trkpt lat="43.64856" lon="3.86843">
        <ele>53</ele>
        <time>2021-03-21T09:15:08Z</time>
      </trkpt>
      <trkpt lat="43.6486" lon="3.8684">
        <ele>53</ele>
        <time>2021-03-21T09:15:09Z</time>
      </trkpt>
      <trkpt lat="43.64863" lon="3.86838">
        <ele>53</ele>
        <time>2021-03-21T09:15:10Z</time>
      </trkpt>
      <trkpt lat="43.64867" lon="3.86835">
        <ele>53</ele>
        <time>2021-03-21T09:15:11Z</time>
      </trkpt>
      <trkpt lat="43.64872" lon="3.86832">
        <ele>54</ele>
        <time>2021-03-21T09:15:12Z</time>
      </trkpt>
      <trkpt lat="43.64877" lon="3.86829">
        <ele>54</ele>
        <time>2021-03-21T09:15:13Z</time>
      </trkpt>
      <trkpt lat="43.64881" lon="3.86825">
        <ele>54</ele>
        <time>2021-03-21T09:15:14Z</time>
      </trkpt>
      <trkpt lat="43.64884" lon="3.86821">
        <ele>54</ele>
        <time>2021-03-21T09:15:15Z</time>
      </trkpt>
      <trkpt lat="43.64888" lon="3.86817">
        <ele>54</ele>
        <time>2021-03-21T09:15:16Z</time>
      </trkpt>
      <trkpt lat="43.64891" lon="3.86814">
        <ele>54</ele>
        <time>2021-03-21T09:15:17Z</time>
      </trkpt>
      <trkpt lat="43.64895" lon="3.8681">
        <ele>54</ele>
        <time>2021-03-21T09:15:18Z</time>
      </trkpt>
      <trkpt lat="43.64899" lon="3.86807">
        <ele>54</ele>
        <time>2021-03-21T09:15:19Z</time>
      </trkpt>
      <trkpt lat="43.64903" lon="3.86803">
        <ele>54</ele>
        <time>2021-03-21T09:15:20Z</time>
      </trkpt>
      <trkpt lat="43.64907" lon="3.868">
        <ele>53</ele>
        <time>2021-03-21T09:15:21Z</time>
      </trkpt>
      <trkpt lat="43.64911" lon="3.86796">
        <ele>53</ele>
        <time>2021-03-21T09:15:22Z</time>
      </trkpt>
      <trkpt lat="43.64915" lon="3.86792">
        <ele>53</ele>
        <time>2021-03-21T09:15:23Z</time>
      </trkpt>
      <trkpt lat="43.64918" lon="3.86788">
        <ele>53</ele>
        <time>2021-03-21T09:15:24Z</time>
      </trkpt>
      <trkpt lat="43.64922" lon="3.86785">
        <ele>53</ele>
        <time>2021-03-21T09:15:25Z</time>
      </trkpt>
      <trkpt lat="43.64926" lon="3.86781">
        <ele>53</ele>
        <time>2021-03-21T09:15:26Z</time>
      </trkpt>
      <trkpt lat="43.64929" lon="3.86778">
        <ele>53</ele>
        <time>2021-03-21T09:15:27Z</time>
      </trkpt>
      <trkpt lat="43.64932" lon="3.86773">
        <ele>53</ele>
        <time>2021-03-21T09:15:28Z</time>
      </trkpt>
      <trkpt lat="43.64935" lon="3.8677">
        <ele>53</ele>
        <time>2021-03-21T09:15:29Z</time>
      </trkpt>
      <trkpt lat="43.64939" lon="3.86766">
        <ele>53</ele>
        <time>2021-03-21T09:15:30Z</time>
      </trkpt>
      <trkpt lat="43.64942" lon="3.8676">
        <ele>53</ele>
        <time>2021-03-21T09:15:31Z</time>
      </trkpt>
      <trkpt lat="43.64946" lon="3.86755">
        <ele>51</ele>
        <time>2021-03-21T09:15:32Z</time>
      </trkpt>
      <trkpt lat="43.6495" lon="3.8675">
        <ele>51</ele>
        <time>2021-03-21T09:15:33Z</time>
      </trkpt>
      <trkpt lat="43.64954" lon="3.86746">
        <ele>51</ele>
        <time>2021-03-21T09:15:34Z</time>
      </trkpt>
      <trkpt lat="43.64957" lon="3.86741">
        <ele>51</ele>
        <time>2021-03-21T09:15:35Z</time>
      </trkpt>
      <trkpt lat="43.64961" lon="3.86738">
        <ele>51</ele>
        <time>2021-03-21T09:15:36Z</time>
      </trkpt>
      <trkpt lat="43.64965" lon="3.86734">
        <ele>51</ele>
        <time>2021-03-21T09:15:37Z</time>
      </trkpt>
      <trkpt lat="43.64968" lon="3.86729">
        <ele>51</ele>
        <time>2021-03-21T09:15:38Z</time>
      </trkpt>
      <trkpt lat="43.64972" lon="3.86725">
        <ele>51</ele>
        <time>2021-03-21T09:15:39Z</time>
      </trkpt>
      <trkpt lat="43.64976" lon="3.8672">
        <ele>51</ele>
        <time>2021-03-21T09:15:40Z</time>
      </trkpt>
      <trkpt lat="43.64979" lon="3.86716">
        <ele>51</ele>
        <time>2021-03-21T09:15:41Z</time>
      </trkpt>
      <trkpt lat="43.64983" lon="3.86711">
        <ele>51</ele>
        <time>2021-03-21T09:15:42Z</time>
      </trkpt>
      <trkpt lat="43.64986" lon="3.86707">
        <ele>51</ele>
        <time>2021-03-21T09:15:43Z</time>
      </trkpt>
      <trkpt lat="43.64989" lon="3.86703">
        <ele>51</ele>
        <time>2021-03-21T09:15:44Z</time>
      </trkpt>
      <trkpt lat="43.64992" lon="3.86699">
        <ele>51</ele>
        <time>2021-03-21T09:15:45Z</time>
      </trkpt>
      <trkpt lat="43.64995" lon="3.86695">
        <ele>51</ele>
        <time>2021-03-21T09:15:46Z</time>
      </trkpt>
      <trkpt lat="43.64998" lon="3.8669">
        <ele>51</ele>
        <time>2021-03-21T09:15:47Z</time>
      </trkpt>
      <trkpt lat="43.65001" lon="3.86686">
        <ele>51</ele>
        <time>2021-03-21T09:15:48Z</time>
      </trkpt>
      <trkpt lat="43.65004" lon="3.86682">
        <ele>51</ele>
        <time>2021-03-21T09:15:49Z</time>
      </trkpt>
      <trkpt lat="43.65008" lon="3.86679">
        <ele>51</ele>
        <time>2021-03-21T09:15:50Z</time>
      </trkpt>
      <trkpt lat="43.65012" lon="3.86676">
        <ele>51</ele>
        <time>2021-03-21T09:15:51Z</time>
      </trkpt>
      <trkpt lat="43.65016" lon="3.86674">
        <ele>51</ele>
        <time>2021-03-21T09:15:52Z</time>
      </trkpt>
      <trkpt lat="43.6502" lon="3.86673">
        <ele>51</ele>
        <time>2021-03-21T09:15:53Z</time>
      </trkpt>
      <trkpt lat="43.65024" lon="3.86672">
        <ele>51</ele>
        <time>2021-03-21T09:15:54Z</time>
      </trkpt>
      <trkpt lat="43.65028" lon="3.86671">
        <ele>51</ele>
        <time>2021-03-21T09:15:55Z</time>
      </trkpt>
      <trkpt lat="43.65032" lon="3.8667">
        <ele>51</ele>
        <time>2021-03-21T09:15:56Z</time>
      </trkpt>
      <trkpt lat="43.65036" lon="3.86667">
        <ele>51</ele>
        <time>2021-03-21T09:15:57Z</time>
      </trkpt>
      <trkpt lat="43.65039" lon="3.86664">
        <ele>51</ele>
        <time>2021-03-21T09:15:58Z</time>
      </trkpt>
      <trkpt lat="43.65042" lon="3.86661">
        <ele>51</ele>
        <time>2021-03-21T09:15:59Z</time>
      </trkpt>
      <trkpt lat="43.65046" lon="3.86659">
        <ele>51</ele>
        <time>2021-03-21T09:16:00Z</time>
      </trkpt>
      <trkpt lat="43.65049" lon="3.86657">
        <ele>52</ele>
        <time>2021-03-21T09:16:01Z</time>
      </trkpt>
      <trkpt lat="43.65053" lon="3.86656">
        <ele>52</ele>
        <time>2021-03-21T09:16:02Z</time>
      </trkpt>
      <trkpt lat="43.65056" lon="3.86656">
        <ele>52</ele>
        <time>2021-03-21T09:16:03Z</time>
      </trkpt>
      <trkpt lat="43.65059" lon="3.86656">
        <ele>52</ele>
        <time>2021-03-21T09:16:04Z</time>
      </trkpt>
      <trkpt lat="43.65062" lon="3.86658">
        <ele>52</ele>
        <time>2021-03-21T09:16:05Z</time>
      </trkpt>
      <trkpt lat="43.65065" lon="3.86659">
        <ele>52</ele>
        <time>2021-03-21T09:16:06Z</time>
      </trkpt>
      <trkpt lat="43.65068" lon="3.86661">
        <ele>52</ele>
        <time>2021-03-21T09:16:07Z</time>
      </trkpt>
      <trkpt lat="43.65071" lon="3.86663">
        <ele>52</ele>
        <time>2021-03-21T09:16:08Z</time>
      </trkpt>
      <trkpt lat="43.65074" lon="3.86666">
        <ele>52</ele>
        <time>2021-03-21T09:16:09Z</time>
      </trkpt>
      <trkpt lat="43.65077" lon="3.86671">
        <ele>52</ele>
        <time>2021-03-21T09:16:10Z</time>
      </trkpt>
      <trkpt lat="43.65078" lon="3.86676">
        <ele>52</ele>
        <time>2021-03-21T09:16:11Z</time>
      </trkpt>
      <trkpt lat="43.65079" lon="3.86682">
        <ele>52</ele>
        <time>2021-03-21T09:16:12Z</time>
      </trkpt>
      <trkpt lat="43.6508" lon="3.86687">
        <ele>52</ele>
        <time>2021-03-21T09:16:13Z</time>
      </trkpt>
      <trkpt lat="43.65081" lon="3.86693">
        <ele>52</ele>
        <time>2021-03-21T09:16:14Z</time>
      </trkpt>
      <trkpt lat="43.65081" lon="3.86698">
        <ele>52</ele>
        <time>2021-03-21T09:16:15Z</time>
      </trkpt>
      <trkpt lat="43.65082" lon="3.86704">
        <ele>52</ele>
        <time>2021-03-21T09:16:16Z</time>
      </trkpt>
      <trkpt lat="43.65082" lon="3.86709">
        <ele>52</ele>
        <time>2021-03-21T09:16:17Z</time>
      </trkpt>
      <trkpt lat="43.65083" lon="3.86714">
        <ele>52</ele>
        <time>2021-03-21T09:16:18Z</time>
      </trkpt>
      <trkpt lat="43.65084" lon="3.86719">
        <ele>52</ele>
        <time>2021-03-21T09:16:19Z</time>
      </trkpt>
      <trkpt lat="43.65084" lon="3.86723">
        <ele>52</ele>
        <time>2021-03-21T09:16:20Z</time>
      </trkpt>
      <trkpt lat="43.65084" lon="3.86728">
        <ele>52</ele>
        <time>2021-03-21T09:16:21Z</time>
      </trkpt>
      <trkpt lat="43.65085" lon="3.86733">
        <ele>52</ele>
        <time>2021-03-21T09:16:22Z</time>
      </trkpt>
      <trkpt lat="43.65085" lon="3.86738">
        <ele>52</ele>
        <time>2021-03-21T09:16:23Z</time>
      </trkpt>
      <trkpt lat="43.65086" lon="3.86742">
        <ele>52</ele>
        <time>2021-03-21T09:16:24Z</time>
      </trkpt>
      <trkpt lat="43.65086" lon="3.86747">
        <ele>52</ele>
        <time>2021-03-21T09:16:25Z</time>
      </trkpt>
      <trkpt lat="43.65087" lon="3.86752">
        <ele>52</ele>
        <time>2021-03-21T09:16:26Z</time>
      </trkpt>
      <trkpt lat="43.65087" lon="3.86757">
        <ele>52</ele>
        <time>2021-03-21T09:16:27Z</time>
      </trkpt>
      <trkpt lat="43.65088" lon="3.86762">
        <ele>52</ele>
        <time>2021-03-21T09:16:28Z</time>
      </trkpt>
      <trkpt lat="43.65089" lon="3.86767">
        <ele>52</ele>
        <time>2021-03-21T09:16:29Z</time>
      </trkpt>
      <trkpt lat="43.65089" lon="3.86772">
        <ele>52</ele>
        <time>2021-03-21T09:16:30Z</time>
      </trkpt>
      <trkpt lat="43.6509" lon="3.86778">
        <ele>52</ele>
        <time>2021-03-21T09:16:31Z</time>
      </trkpt>
      <trkpt lat="43.6509" lon="3.86783">
        <ele>51</ele>
        <time>2021-03-21T09:16:32Z</time>
      </trkpt>
      <trkpt lat="43.65091" lon="3.86788">
        <ele>51</ele>
        <time>2021-03-21T09:16:33Z</time>
      </trkpt>
      <trkpt lat="43.65091" lon="3.86793">
        <ele>51</ele>
        <time>2021-03-21T09:16:34Z</time>
      </trkpt>
      <trkpt lat="43.65092" lon="3.86799">
        <ele>51</ele>
        <time>2021-03-21T09:16:35Z</time>
      </trkpt>
      <trkpt lat="43.65094" lon="3.86804">
        <ele>51</ele>
        <time>2021-03-21T09:16:36Z</time>
      </trkpt>
      <trkpt lat="43.65095" lon="3.86809">
        <ele>51</ele>
        <time>2021-03-21T09:16:37Z</time>
      </trkpt>
      <trkpt lat="43.65096" lon="3.86815">
        <ele>51</ele>
        <time>2021-03-21T09:16:38Z</time>
      </trkpt>
      <trkpt lat="43.65097" lon="3.86821">
        <ele>51</ele>
        <time>2021-03-21T09:16:39Z</time>
      </trkpt>
      <trkpt lat="43.65098" lon="3.86826">
        <ele>51</ele>
        <time>2021-03-21T09:16:40Z</time>
      </trkpt>
      <trkpt lat="43.65099" lon="3.86832">
        <ele>50</ele>
        <time>2021-03-21T09:16:41Z</time>
      </trkpt>
      <trkpt lat="43.651" lon="3.86837">
        <ele>50</ele>
        <time>2021-03-21T09:16:42Z</time>
      </trkpt>
      <trkpt lat="43.65102" lon="3.86842">
        <ele>50</ele>
        <time>2021-03-21T09:16:43Z</time>
      </trkpt>
      <trkpt lat="43.65103" lon="3.86847">
        <ele>50</ele>
        <time>2021-03-21T09:16:44Z</time>
      </trkpt>
      <trkpt lat="43.65104" lon="3.86852">
        <ele>50</ele>
        <time>2021-03-21T09:16:45Z</time>
      </trkpt>
      <trkpt lat="43.65106" lon="3.86857">
        <ele>50</ele>
        <time>2021-03-21T09:16:46Z</time>
      </trkpt>
      <trkpt lat="43.65107" lon="3.86863">
        <ele>50</ele>
        <time>2021-03-21T09:16:47Z</time>
      </trkpt>
      <trkpt lat="43.65109" lon="3.86868">
        <ele>50</ele>
        <time>2021-03-21T09:16:48Z</time>
      </trkpt>
      <trkpt lat="43.6511" lon="3.86873">
        <ele>50</ele>
        <time>2021-03-21T09:16:49Z</time>
      </trkpt>
      <trkpt lat="43.65111" lon="3.86878">
        <ele>50</ele>
        <time>2021-03-21T09:16:50Z</time>
      </trkpt>
      <trkpt lat="43.65112" lon="3.86883">
        <ele>50</ele>
        <time>2021-03-21T09:16:51Z</time>
      </trkpt>
      <trkpt lat="43.65114" lon="3.86888">
        <ele>50</ele>
        <time>2021-03-21T09:16:52Z</time>
      </trkpt>
      <trkpt lat="43.65115" lon="3.86893">
        <ele>50</ele>
        <time>2021-03-21T09:16:53Z</time>
      </trkpt>
      <trkpt lat="43.65117" lon="3.86897">
        <ele>50</ele>
        <time>2021-03-21T09:16:54Z</time>
      </trkpt>
      <trkpt lat="43.65118" lon="3.86902">
        <ele>50</ele>
        <time>2021-03-21T09:16:55Z</time>
      </trkpt>
      <trkpt lat="43.6512" lon="3.86907">
        <ele>50</ele>
        <time>2021-03-21T09:16:56Z</time>
      </trkpt>
      <trkpt lat="43.65121" lon="3.86912">
        <ele>50</ele>
        <time>2021-03-21T09:16:57Z</time>
      </trkpt>
      <trkpt lat="43.65122" lon="3.86917">
        <ele>50</ele>
        <time>2021-03-21T09:16:58Z</time>
      </trkpt>
      <trkpt lat="43.65124" lon="3.86922">
        <ele>50</ele>
        <time>2021-03-21T09:16:59Z</time>
      </trkpt>
      <trkpt lat="43.65125" lon="3.86928">
        <ele>50</ele>
        <time>2021-03-21T09:17:00Z</time>
      </trkpt>
      <trkpt lat="43.65127" lon="3.86933">
        <ele>49</ele>
        <time>2021-03-21T09:17:01Z</time>
      </trkpt>
      <trkpt lat="43.65128" lon="3.86938">
        <ele>49</ele>
        <time>2021-03-21T09:17:02Z</time>
      </trkpt>
      <trkpt lat="43.6513" lon="3.86943">
        <ele>49</ele>
        <time>2021-03-21T09:17:03Z</time>
      </trkpt>
      <trkpt lat="43.65132" lon="3.86948">
        <ele>49</ele>
        <time>2021-03-21T09:17:04Z</time>
      </trkpt>
      <trkpt lat="43.65134" lon="3.86953">
        <ele>49</ele>
        <time>2021-03-21T09:17:05Z</time>
      </trkpt>
      <trkpt lat="43.65136" lon="3.86958">
        <ele>49</ele>
        <time>2021-03-21T09:17:06Z</time>
      </trkpt>
      <trkpt lat="43.65138" lon="3.86963">
        <ele>49</ele>
        <time>2021-03-21T09:17:07Z</time>
      </trkpt>
      <trkpt lat="43.65139" lon="3.86968">
        <ele>49</ele>
        <time>2021-03-21T09:17:08Z</time>
      </trkpt>
      <trkpt lat="43.65141" lon="3.86972">
        <ele>49</ele>
        <time>2021-03-21T09:17:09Z</time>
      </trkpt>
      <trkpt lat="43.65143" lon="3.86976">
        <ele>49</ele>
        <time>2021-03-21T09:17:10Z</time>
      </trkpt>
      <trkpt lat="43.65144" lon="3.8698">
        <ele>49</ele>
        <time>2021-03-21T09:17:11Z</time>
      </trkpt>
      <trkpt lat="43.65146" lon="3.86985">
        <ele>49</ele>
        <time>2021-03-21T09:17:12Z</time>
      </trkpt>
      <trkpt lat="43.65148" lon="3.86989">
        <ele>49</ele>
        <time>2021-03-21T09:17:13Z</time>
      </trkpt>
      <trkpt lat="43.65152" lon="3.86998">
        <ele>49</ele>
        <time>2021-03-21T09:17:14Z</time>
      </trkpt>
      <trkpt lat="43.65155" lon="3.87009">
        <ele>49</ele>
        <time>2021-03-21T09:17:16Z</time>
      </trkpt>
      <trkpt lat="43.65157" lon="3.87015">
        <ele>49</ele>
        <time>2021-03-21T09:17:17Z</time>
      </trkpt>
      <trkpt lat="43.65162" lon="3.87027">
        <ele>49</ele>
        <time>2021-03-21T09:17:19Z</time>
      </trkpt>
      <trkpt lat="43.65164" lon="3.87033">
        <ele>49</ele>
        <time>2021-03-21T09:17:20Z</time>
      </trkpt>
      <trkpt lat="43.65166" lon="3.87039">
        <ele>48</ele>
        <time>2021-03-21T09:17:22Z</time>
      </trkpt>
      <trkpt lat="43.65168" lon="3.87044">
        <ele>48</ele>
        <time>2021-03-21T09:17:23Z</time>
      </trkpt>
      <trkpt lat="43.65171" lon="3.8705">
        <ele>48</ele>
        <time>2021-03-21T09:17:24Z</time>
      </trkpt>
      <trkpt lat="43.65173" lon="3.87055">
        <ele>48</ele>
        <time>2021-03-21T09:17:25Z</time>
      </trkpt>
      <trkpt lat="43.65175" lon="3.8706">
        <ele>48</ele>
        <time>2021-03-21T09:17:26Z</time>
      </trkpt>
      <trkpt lat="43.65177" lon="3.87065">
        <ele>48</ele>
        <time>2021-03-21T09:17:27Z</time>
      </trkpt>
      <trkpt lat="43.65179" lon="3.8707">
        <ele>48</ele>
        <time>2021-03-21T09:17:28Z</time>
      </trkpt>
      <trkpt lat="43.65181" lon="3.87075">
        <ele>48</ele>
        <time>2021-03-21T09:17:29Z</time>
      </trkpt>
      <trkpt lat="43.65183" lon="3.8708">
        <ele>48</ele>
        <time>2021-03-21T09:17:30Z</time>
      </trkpt>
      <trkpt lat="43.65185" lon="3.87085">
        <ele>48</ele>
        <time>2021-03-21T09:17:31Z</time>
      </trkpt>
      <trkpt lat="43.65189" lon="3.87096">
        <ele>48</ele>
        <time>2021-03-21T09:17:32Z</time>
      </trkpt>
      <trkpt lat="43.65192" lon="3.87101">
        <ele>48</ele>
        <time>2021-03-21T09:17:33Z</time>
      </trkpt>
      <trkpt lat="43.65196" lon="3.8711">
        <ele>48</ele>
        <time>2021-03-21T09:17:35Z</time>
      </trkpt>
      <trkpt lat="43.65198" lon="3.87114">
        <ele>48</ele>
        <time>2021-03-21T09:17:37Z</time>
      </trkpt>
      <trkpt lat="43.65201" lon="3.87122">
        <ele>48</ele>
        <time>2021-03-21T09:17:38Z</time>
      </trkpt>
      <trkpt lat="43.65203" lon="3.87125">
        <ele>48</ele>
        <time>2021-03-21T09:17:39Z</time>
      </trkpt>
      <trkpt lat="43.65205" lon="3.87128">
        <ele>48</ele>
        <time>2021-03-21T09:17:41Z</time>
      </trkpt>
      <trkpt lat="43.65207" lon="3.87132">
        <ele>48</ele>
        <time>2021-03-21T09:17:42Z</time>
      </trkpt>
      <trkpt lat="43.65209" lon="3.87135">
        <ele>48</ele>
        <time>2021-03-21T09:17:43Z</time>
      </trkpt>
      <trkpt lat="43.6521" lon="3.87139">
        <ele>48</ele>
        <time>2021-03-21T09:17:44Z</time>
      </trkpt>
      <trkpt lat="43.65208" lon="3.87142">
        <ele>48</ele>
        <time>2021-03-21T09:17:45Z</time>
      </trkpt>
      <trkpt lat="43.65207" lon="3.87144">
        <ele>48</ele>
        <time>2021-03-21T09:17:47Z</time>
      </trkpt>
      <trkpt lat="43.65207" lon="3.87143">
        <ele>49</ele>
        <time>2021-03-21T09:17:55Z</time>
      </trkpt>
      <trkpt lat="43.65202" lon="3.87155">
        <ele>48</ele>
        <time>2021-03-21T09:19:27Z</time>
      </trkpt>
      <trkpt lat="43.65203" lon="3.87159">
        <ele>48</ele>
        <time>2021-03-21T09:19:28Z</time>
      </trkpt>
      <trkpt lat="43.65205" lon="3.87163">
        <ele>48</ele>
        <time>2021-03-21T09:19:29Z</time>
      </trkpt>
      <trkpt lat="43.65206" lon="3.87166">
        <ele>48</ele>
        <time>2021-03-21T09:19:30Z</time>
      </trkpt>
      <trkpt lat="43.65208" lon="3.8717">
        <ele>48</ele>
        <time>2021-03-21T09:19:31Z</time>
      </trkpt>
      <trkpt lat="43.6521" lon="3.87174">
        <ele>48</ele>
        <time>2021-03-21T09:19:32Z</time>
      </trkpt>
      <trkpt lat="43.65212" lon="3.87178">
        <ele>48</ele>
        <time>2021-03-21T09:19:33Z</time>
      </trkpt>
      <trkpt lat="43.65214" lon="3.87183">
        <ele>48</ele>
        <time>2021-03-21T09:19:34Z</time>
      </trkpt>
      <trkpt lat="43.65217" lon="3.87187">
        <ele>48</ele>
        <time>2021-03-21T09:19:35Z</time>
      </trkpt>
      <trkpt lat="43.65219" lon="3.87192">
        <ele>48</ele>
        <time>2021-03-21T09:19:36Z</time>
      </trkpt>
      <trkpt lat="43.65222" lon="3.87195">
        <ele>47</ele>
        <time>2021-03-21T09:19:37Z</time>
      </trkpt>
      <trkpt lat="43.65224" lon="3.87199">
        <ele>47</ele>
        <time>2021-03-21T09:19:38Z</time>
      </trkpt>
      <trkpt lat="43.65227" lon="3.87202">
        <ele>47</ele>
        <time>2021-03-21T09:19:39Z</time>
      </trkpt>
      <trkpt lat="43.6523" lon="3.87205">
        <ele>47</ele>
        <time>2021-03-21T09:19:40Z</time>
      </trkpt>
      <trkpt lat="43.65232" lon="3.87208">
        <ele>47</ele>
        <time>2021-03-21T09:19:41Z</time>
      </trkpt>
      <trkpt lat="43.65235" lon="3.87211">
        <ele>47</ele>
        <time>2021-03-21T09:19:42Z</time>
      </trkpt>
      <trkpt lat="43.65238" lon="3.87215">
        <ele>47</ele>
        <time>2021-03-21T09:19:43Z</time>
      </trkpt>
      <trkpt lat="43.6524" lon="3.87219">
        <ele>47</ele>
        <time>2021-03-21T09:19:44Z</time>
      </trkpt>
      <trkpt lat="43.65241" lon="3.87224">
        <ele>47</ele>
        <time>2021-03-21T09:19:45Z</time>
      </trkpt>
      <trkpt lat="43.65242" lon="3.8723">
        <ele>47</ele>
        <time>2021-03-21T09:19:46Z</time>
      </trkpt>
      <trkpt lat="43.65242" lon="3.87236">
        <ele>45</ele>
        <time>2021-03-21T09:19:47Z</time>
      </trkpt>
      <trkpt lat="43.65242" lon="3.87242">
        <ele>45</ele>
        <time>2021-03-21T09:19:48Z</time>
      </trkpt>
      <trkpt lat="43.6524" lon="3.87247">
        <ele>45</ele>
        <time>2021-03-21T09:19:49Z</time>
      </trkpt>
      <trkpt lat="43.65237" lon="3.87252">
        <ele>45</ele>
        <time>2021-03-21T09:19:50Z</time>
      </trkpt>
      <trkpt lat="43.65233" lon="3.87257">
        <ele>45</ele>
        <time>2021-03-21T09:19:51Z</time>
      </trkpt>
      <trkpt lat="43.65228" lon="3.87259">
        <ele>45</ele>
        <time>2021-03-21T09:19:52Z</time>
      </trkpt>
      <trkpt lat="43.65222" lon="3.8726">
        <ele>45</ele>
        <time>2021-03-21T09:19:53Z</time>
      </trkpt>
      <trkpt lat="43.65217" lon="3.87259">
        <ele>45</ele>
        <time>2021-03-21T09:19:54Z</time>
      </trkpt>
      <trkpt lat="43.65211" lon="3.87255">
        <ele>45</ele>
        <time>2021-03-21T09:19:55Z</time>
      </trkpt>
      <trkpt lat="43.65207" lon="3.8725">
        <ele>45</ele>
        <time>2021-03-21T09:19:56Z</time>
      </trkpt>
      <trkpt lat="43.65202" lon="3.87245">
        <ele>43</ele>
        <time>2021-03-21T09:19:57Z</time>
      </trkpt>
      <trkpt lat="43.65197" lon="3.8724">
        <ele>43</ele>
        <time>2021-03-21T09:19:58Z</time>
      </trkpt>
      <trkpt lat="43.65193" lon="3.87234">
        <ele>43</ele>
        <time>2021-03-21T09:19:59Z</time>
      </trkpt>
      <trkpt lat="43.65189" lon="3.87229">
        <ele>43</ele>
        <time>2021-03-21T09:20:00Z</time>
      </trkpt>
      <trkpt lat="43.65185" lon="3.87223">
        <ele>43</ele>
        <time>2021-03-21T09:20:01Z</time>
      </trkpt>
      <trkpt lat="43.65181" lon="3.87218">
        <ele>43</ele>
        <time>2021-03-21T09:20:02Z</time>
      </trkpt>
      <trkpt lat="43.65178" lon="3.87212">
        <ele>43</ele>
        <time>2021-03-21T09:20:03Z</time>
      </trkpt>
      <trkpt lat="43.65176" lon="3.87206">
        <ele>43</ele>
        <time>2021-03-21T09:20:04Z</time>
      </trkpt>
      <trkpt lat="43.65173" lon="3.872">
        <ele>43</ele>
        <time>2021-03-21T09:20:05Z</time>
      </trkpt>
      <trkpt lat="43.65171" lon="3.87195">
        <ele>43</ele>
        <time>2021-03-21T09:20:06Z</time>
      </trkpt>
      <trkpt lat="43.6517" lon="3.87189">
        <ele>42</ele>
        <time>2021-03-21T09:20:07Z</time>
      </trkpt>
      <trkpt lat="43.65168" lon="3.87184">
        <ele>42</ele>
        <time>2021-03-21T09:20:08Z</time>
      </trkpt>
      <trkpt lat="43.65166" lon="3.87178">
        <ele>42</ele>
        <time>2021-03-21T09:20:09Z</time>
      </trkpt>
      <trkpt lat="43.65165" lon="3.87173">
        <ele>42</ele>
        <time>2021-03-21T09:20:10Z</time>
      </trkpt>
      <trkpt lat="43.65165" lon="3.87168">
        <ele>42</ele>
        <time>2021-03-21T09:20:11Z</time>
      </trkpt>
      <trkpt lat="43.65164" lon="3.87162">
        <ele>42</ele>
        <time>2021-03-21T09:20:12Z</time>
      </trkpt>
      <trkpt lat="43.65163" lon="3.87156">
        <ele>42</ele>
        <time>2021-03-21T09:20:13Z</time>
      </trkpt>
      <trkpt lat="43.65161" lon="3.8715">
        <ele>42</ele>
        <time>2021-03-21T09:20:14Z</time>
      </trkpt>
      <trkpt lat="43.6516" lon="3.87143">
        <ele>42</ele>
        <time>2021-03-21T09:20:15Z</time>
      </trkpt>
      <trkpt lat="43.6516" lon="3.87137">
        <ele>42</ele>
        <time>2021-03-21T09:20:16Z</time>
      </trkpt>
      <trkpt lat="43.65159" lon="3.87131">
        <ele>42</ele>
        <time>2021-03-21T09:20:17Z</time>
      </trkpt>
      <trkpt lat="43.65158" lon="3.87124">
        <ele>42</ele>
        <time>2021-03-21T09:20:18Z</time>
      </trkpt>
      <trkpt lat="43.65158" lon="3.87117">
        <ele>42</ele>
        <time>2021-03-21T09:20:19Z</time>
      </trkpt>
      <trkpt lat="43.65158" lon="3.87111">
        <ele>42</ele>
        <time>2021-03-21T09:20:20Z</time>
      </trkpt>
      <trkpt lat="43.65159" lon="3.87104">
        <ele>42</ele>
        <time>2021-03-21T09:20:21Z</time>
      </trkpt>
      <trkpt lat="43.65161" lon="3.87098">
        <ele>42</ele>
        <time>2021-03-21T09:20:22Z</time>
      </trkpt>
      <trkpt lat="43.65164" lon="3.87092">
        <ele>42</ele>
        <time>2021-03-21T09:20:23Z</time>
      </trkpt>
      <trkpt lat="43.65167" lon="3.87087">
        <ele>42</ele>
        <time>2021-03-21T09:20:24Z</time>
      </trkpt>
      <trkpt lat="43.6517" lon="3.87082">
        <ele>42</ele>
        <time>2021-03-21T09:20:25Z</time>
      </trkpt>
      <trkpt lat="43.65174" lon="3.87078">
        <ele>42</ele>
        <time>2021-03-21T09:20:26Z</time>
      </trkpt>
      <trkpt lat="43.65178" lon="3.87074">
        <ele>43</ele>
        <time>2021-03-21T09:20:27Z</time>
      </trkpt>
      <trkpt lat="43.65181" lon="3.87071">
        <ele>43</ele>
        <time>2021-03-21T09:20:28Z</time>
      </trkpt>
      <trkpt lat="43.65185" lon="3.87069">
        <ele>43</ele>
        <time>2021-03-21T09:20:29Z</time>
      </trkpt>
      <trkpt lat="43.65188" lon="3.87067">
        <ele>43</ele>
        <time>2021-03-21T09:20:30Z</time>
      </trkpt>
      <trkpt lat="43.65192" lon="3.87063">
        <ele>43</ele>
        <time>2021-03-21T09:20:31Z</time>
      </trkpt>
      <trkpt lat="43.65196" lon="3.87059">
        <ele>43</ele>
        <time>2021-03-21T09:20:32Z</time>
      </trkpt>
      <trkpt lat="43.652" lon="3.87056">
        <ele>43</ele>
        <time>2021-03-21T09:20:33Z</time>
      </trkpt>
      <trkpt lat="43.65206" lon="3.87053">
        <ele>43</ele>
        <time>2021-03-21T09:20:34Z</time>
      </trkpt>
      <trkpt lat="43.65211" lon="3.87052">
        <ele>43</ele>
        <time>2021-03-21T09:20:35Z</time>
      </trkpt>
      <trkpt lat="43.65214" lon="3.8705">
        <ele>43</ele>
        <time>2021-03-21T09:20:36Z</time>
      </trkpt>
      <trkpt lat="43.65218" lon="3.87047">
        <ele>43</ele>
        <time>2021-03-21T09:20:37Z</time>
      </trkpt>
      <trkpt lat="43.65222" lon="3.87044">
        <ele>43</ele>
        <time>2021-03-21T09:20:38Z</time>
      </trkpt>
      <trkpt lat="43.65226" lon="3.8704">
        <ele>43</ele>
        <time>2021-03-21T09:20:39Z</time>
      </trkpt>
      <trkpt lat="43.65229" lon="3.87036">
        <ele>43</ele>
        <time>2021-03-21T09:20:40Z</time>
      </trkpt>
      <trkpt lat="43.65233" lon="3.87032">
        <ele>43</ele>
        <time>2021-03-21T09:20:41Z</time>
      </trkpt>
      <trkpt lat="43.65237" lon="3.87027">
        <ele>43</ele>
        <time>2021-03-21T09:20:42Z</time>
      </trkpt>
      <trkpt lat="43.6524" lon="3.87023">
        <ele>43</ele>
        <time>2021-03-21T09:20:43Z</time>
      </trkpt>
      <trkpt lat="43.65243" lon="3.87018">
        <ele>43</ele>
        <time>2021-03-21T09:20:44Z</time>
      </trkpt>
      <trkpt lat="43.65246" lon="3.87013">
        <ele>43</ele>
        <time>2021-03-21T09:20:45Z</time>
      </trkpt>
      <trkpt lat="43.65249" lon="3.87009">
        <ele>44</ele>
        <time>2021-03-21T09:20:46Z</time>
      </trkpt>
      <trkpt lat="43.65252" lon="3.87004">
        <ele>44</ele>
        <time>2021-03-21T09:20:47Z</time>
      </trkpt>
      <trkpt lat="43.65255" lon="3.86999">
        <ele>44</ele>
        <time>2021-03-21T09:20:48Z</time>
      </trkpt>
      <trkpt lat="43.65258" lon="3.86994">
        <ele>44</ele>
        <time>2021-03-21T09:20:49Z</time>
      </trkpt>
      <trkpt lat="43.6526" lon="3.86989">
        <ele>44</ele>
        <time>2021-03-21T09:20:50Z</time>
      </trkpt>
      <trkpt lat="43.65263" lon="3.86983">
        <ele>44</ele>
        <time>2021-03-21T09:20:51Z</time>
      </trkpt>
      <trkpt lat="43.65265" lon="3.86978">
        <ele>44</ele>
        <time>2021-03-21T09:20:52Z</time>
      </trkpt>
      <trkpt lat="43.65267" lon="3.86972">
        <ele>44</ele>
        <time>2021-03-21T09:20:53Z</time>
      </trkpt>
      <trkpt lat="43.65269" lon="3.86967">
        <ele>44</ele>
        <time>2021-03-21T09:20:54Z</time>
      </trkpt>
      <trkpt lat="43.6527" lon="3.86961">
        <ele>44</ele>
        <time>2021-03-21T09:20:55Z</time>
      </trkpt>
      <trkpt lat="43.65271" lon="3.86955">
        <ele>44</ele>
        <time>2021-03-21T09:20:56Z</time>
      </trkpt>
      <trkpt lat="43.65272" lon="3.8695">
        <ele>44</ele>
        <time>2021-03-21T09:20:57Z</time>
      </trkpt>
      <trkpt lat="43.65272" lon="3.86944">
        <ele>44</ele>
        <time>2021-03-21T09:20:58Z</time>
      </trkpt>
      <trkpt lat="43.65273" lon="3.86939">
        <ele>44</ele>
        <time>2021-03-21T09:20:59Z</time>
      </trkpt>
      <trkpt lat="43.65274" lon="3.86934">
        <ele>44</ele>
        <time>2021-03-21T09:21:00Z</time>
      </trkpt>
      <trkpt lat="43.65274" lon="3.86928">
        <ele>44</ele>
        <time>2021-03-21T09:21:01Z</time>
      </trkpt>
      <trkpt lat="43.65275" lon="3.86922">
        <ele>44</ele>
        <time>2021-03-21T09:21:02Z</time>
      </trkpt>
      <trkpt lat="43.65275" lon="3.86916">
        <ele>44</ele>
        <time>2021-03-21T09:21:03Z</time>
      </trkpt>
      <trkpt lat="43.65275" lon="3.8691">
        <ele>44</ele>
        <time>2021-03-21T09:21:04Z</time>
      </trkpt>
      <trkpt lat="43.65275" lon="3.86905">
        <ele>44</ele>
        <time>2021-03-21T09:21:05Z</time>
      </trkpt>
      <trkpt lat="43.65275" lon="3.86898">
        <ele>44</ele>
        <time>2021-03-21T09:21:06Z</time>
      </trkpt>
      <trkpt lat="43.65274" lon="3.86892">
        <ele>45</ele>
        <time>2021-03-21T09:21:07Z</time>
      </trkpt>
      <trkpt lat="43.65273" lon="3.86886">
        <ele>45</ele>
        <time>2021-03-21T09:21:08Z</time>
      </trkpt>
      <trkpt lat="43.65272" lon="3.8688">
        <ele>45</ele>
        <time>2021-03-21T09:21:09Z</time>
      </trkpt>
      <trkpt lat="43.65272" lon="3.86874">
        <ele>45</ele>
        <time>2021-03-21T09:21:10Z</time>
      </trkpt>
      <trkpt lat="43.65272" lon="3.86868">
        <ele>45</ele>
        <time>2021-03-21T09:21:11Z</time>
      </trkpt>
      <trkpt lat="43.65272" lon="3.86861">
        <ele>45</ele>
        <time>2021-03-21T09:21:12Z</time>
      </trkpt>
      <trkpt lat="43.65272" lon="3.86855">
        <ele>45</ele>
        <time>2021-03-21T09:21:13Z</time>
      </trkpt>
      <trkpt lat="43.65272" lon="3.8685">
        <ele>45</ele>
        <time>2021-03-21T09:21:14Z</time>
      </trkpt>
      <trkpt lat="43.65273" lon="3.86845">
        <ele>45</ele>
        <time>2021-03-21T09:21:15Z</time>
      </trkpt>
      <trkpt lat="43.65273" lon="3.86841">
        <ele>45</ele>
        <time>2021-03-21T09:21:16Z</time>
      </trkpt>
      <trkpt lat="43.65274" lon="3.86836">
        <ele>45</ele>
        <time>2021-03-21T09:21:17Z</time>
      </trkpt>
      <trkpt lat="43.65276" lon="3.86832">
        <ele>45</ele>
        <time>2021-03-21T09:21:18Z</time>
      </trkpt>
      <trkpt lat="43.65277" lon="3.86827">
        <ele>45</ele>
        <time>2021-03-21T09:21:19Z</time>
      </trkpt>
      <trkpt lat="43.65279" lon="3.86822">
        <ele>45</ele>
        <time>2021-03-21T09:21:20Z</time>
      </trkpt>
      <trkpt lat="43.65281" lon="3.86817">
        <ele>45</ele>
        <time>2021-03-21T09:21:21Z</time>
      </trkpt>
      <trkpt lat="43.65284" lon="3.86812">
        <ele>45</ele>
        <time>2021-03-21T09:21:22Z</time>
      </trkpt>
      <trkpt lat="43.65286" lon="3.86807">
        <ele>45</ele>
        <time>2021-03-21T09:21:23Z</time>
      </trkpt>
      <trkpt lat="43.65289" lon="3.86803">
        <ele>45</ele>
        <time>2021-03-21T09:21:24Z</time>
      </trkpt>
      <trkpt lat="43.65293" lon="3.868">
        <ele>45</ele>
        <time>2021-03-21T09:21:25Z</time>
      </trkpt>
      <trkpt lat="43.65297" lon="3.86798">
        <ele>45</ele>
        <time>2021-03-21T09:21:26Z</time>
      </trkpt>
      <trkpt lat="43.653" lon="3.86798">
        <ele>46</ele>
        <time>2021-03-21T09:21:27Z</time>
      </trkpt>
      <trkpt lat="43.65302" lon="3.86798">
        <ele>46</ele>
        <time>2021-03-21T09:21:28Z</time>
      </trkpt>
      <trkpt lat="43.65305" lon="3.86797">
        <ele>46</ele>
        <time>2021-03-21T09:21:30Z</time>
      </trkpt>
      <trkpt lat="43.65307" lon="3.86796">
        <ele>47</ele>
        <time>2021-03-21T09:21:37Z</time>
      </trkpt>
      <trkpt lat="43.65309" lon="3.86793">
        <ele>47</ele>
        <time>2021-03-21T09:21:39Z</time>
      </trkpt>
      <trkpt lat="43.6531" lon="3.8679">
        <ele>47</ele>
        <time>2021-03-21T09:21:40Z</time>
      </trkpt>
      <trkpt lat="43.65312" lon="3.86789">
        <ele>47</ele>
        <time>2021-03-21T09:21:41Z</time>
      </trkpt>
      <trkpt lat="43.65317" lon="3.86787">
        <ele>47</ele>
        <time>2021-03-21T09:21:42Z</time>
      </trkpt>
      <trkpt lat="43.6532" lon="3.86786">
        <ele>47</ele>
        <time>2021-03-21T09:21:44Z</time>
      </trkpt>
      <trkpt lat="43.65321" lon="3.86783">
        <ele>47</ele>
        <time>2021-03-21T09:21:45Z</time>
      </trkpt>
      <trkpt lat="43.65323" lon="3.8678">
        <ele>47</ele>
        <time>2021-03-21T09:21:46Z</time>
      </trkpt>
      <trkpt lat="43.65325" lon="3.86777">
        <ele>47</ele>
        <time>2021-03-21T09:21:47Z</time>
      </trkpt>
      <trkpt lat="43.65328" lon="3.86774">
        <ele>47</ele>
        <time>2021-03-21T09:21:48Z</time>
      </trkpt>
      <trkpt lat="43.6533" lon="3.86772">
        <ele>47</ele>
        <time>2021-03-21T09:21:49Z</time>
      </trkpt>
      <trkpt lat="43.65331" lon="3.86769">
        <ele>47</ele>
        <time>2021-03-21T09:21:50Z</time>
      </trkpt>
      <trkpt lat="43.65332" lon="3.86767">
        <ele>47</ele>
        <time>2021-03-21T09:21:51Z</time>
      </trkpt>
      <trkpt lat="43.65334" lon="3.86764">
        <ele>47</ele>
        <time>2021-03-21T09:21:52Z</time>
      </trkpt>
      <trkpt lat="43.65336" lon="3.86763">
        <ele>47</ele>
        <time>2021-03-21T09:21:53Z</time>
      </trkpt>
      <trkpt lat="43.65338" lon="3.86762">
        <ele>47</ele>
        <time>2021-03-21T09:21:54Z</time>
      </trkpt>
      <trkpt lat="43.65339" lon="3.8676">
        <ele>47</ele>
        <time>2021-03-21T09:21:55Z</time>
      </trkpt>
      <trkpt lat="43.65341" lon="3.86756">
        <ele>47</ele>
        <time>2021-03-21T09:21:56Z</time>
      </trkpt>
      <trkpt lat="43.65341" lon="3.86752">
        <ele>46</ele>
        <time>2021-03-21T09:21:57Z</time>
      </trkpt>
      <trkpt lat="43.65342" lon="3.86748">
        <ele>46</ele>
        <time>2021-03-21T09:21:58Z</time>
      </trkpt>
      <trkpt lat="43.65345" lon="3.86743">
        <ele>46</ele>
        <time>2021-03-21T09:21:59Z</time>
      </trkpt>
      <trkpt lat="43.65347" lon="3.86741">
        <ele>46</ele>
        <time>2021-03-21T09:22:00Z</time>
      </trkpt>
      <trkpt lat="43.6535" lon="3.86741">
        <ele>46</ele>
        <time>2021-03-21T09:22:01Z</time>
      </trkpt>
      <trkpt lat="43.65353" lon="3.8674">
        <ele>46</ele>
        <time>2021-03-21T09:22:02Z</time>
      </trkpt>
      <trkpt lat="43.65356" lon="3.86739">
        <ele>46</ele>
        <time>2021-03-21T09:22:03Z</time>
      </trkpt>
      <trkpt lat="43.65359" lon="3.86738">
        <ele>46</ele>
        <time>2021-03-21T09:22:04Z</time>
      </trkpt>
      <trkpt lat="43.65362" lon="3.86737">
        <ele>46</ele>
        <time>2021-03-21T09:22:05Z</time>
      </trkpt>
      <trkpt lat="43.65366" lon="3.86737">
        <ele>46</ele>
        <time>2021-03-21T09:22:06Z</time>
      </trkpt>
      <trkpt lat="43.6537" lon="3.86737">
        <ele>47</ele>
        <time>2021-03-21T09:22:07Z</time>
      </trkpt>
      <trkpt lat="43.65373" lon="3.86738">
        <ele>47</ele>
        <time>2021-03-21T09:22:08Z</time>
      </trkpt>
      <trkpt lat="43.65376" lon="3.86739">
        <ele>47</ele>
        <time>2021-03-21T09:22:09Z</time>
      </trkpt>
      <trkpt lat="43.65379" lon="3.86739">
        <ele>47</ele>
        <time>2021-03-21T09:22:10Z</time>
      </trkpt>
      <trkpt lat="43.65382" lon="3.86738">
        <ele>47</ele>
        <time>2021-03-21T09:22:11Z</time>
      </trkpt>
      <trkpt lat="43.65386" lon="3.86738">
        <ele>47</ele>
        <time>2021-03-21T09:22:12Z</time>
      </trkpt>
      <trkpt lat="43.6539" lon="3.86738">
        <ele>47</ele>
        <time>2021-03-21T09:22:13Z</time>
      </trkpt>
      <trkpt lat="43.65393" lon="3.86738">
        <ele>47</ele>
        <time>2021-03-21T09:22:14Z</time>
      </trkpt>
      <trkpt lat="43.65396" lon="3.86739">
        <ele>47</ele>
        <time>2021-03-21T09:22:15Z</time>
      </trkpt>
      <trkpt lat="43.65399" lon="3.8674">
        <ele>47</ele>
        <time>2021-03-21T09:22:16Z</time>
      </trkpt>
      <trkpt lat="43.65402" lon="3.86742">
        <ele>47</ele>
        <time>2021-03-21T09:22:17Z</time>
      </trkpt>
      <trkpt lat="43.65406" lon="3.86744">
        <ele>47</ele>
        <time>2021-03-21T09:22:18Z</time>
      </trkpt>
      <trkpt lat="43.65409" lon="3.86746">
        <ele>47</ele>
        <time>2021-03-21T09:22:19Z</time>
      </trkpt>
      <trkpt lat="43.65412" lon="3.86748">
        <ele>47</ele>
        <time>2021-03-21T09:22:20Z</time>
      </trkpt>
      <trkpt lat="43.65416" lon="3.86751">
        <ele>47</ele>
        <time>2021-03-21T09:22:21Z</time>
      </trkpt>
      <trkpt lat="43.65419" lon="3.86753">
        <ele>47</ele>
        <time>2021-03-21T09:22:22Z</time>
      </trkpt>
      <trkpt lat="43.65423" lon="3.86756">
        <ele>47</ele>
        <time>2021-03-21T09:22:23Z</time>
      </trkpt>
      <trkpt lat="43.65426" lon="3.86758">
        <ele>47</ele>
        <time>2021-03-21T09:22:24Z</time>
      </trkpt>
      <trkpt lat="43.6543" lon="3.86759">
        <ele>47</ele>
        <time>2021-03-21T09:22:25Z</time>
      </trkpt>
      <trkpt lat="43.65434" lon="3.86762">
        <ele>47</ele>
        <time>2021-03-21T09:22:26Z</time>
      </trkpt>
      <trkpt lat="43.65438" lon="3.86765">
        <ele>48</ele>
        <time>2021-03-21T09:22:27Z</time>
      </trkpt>
      <trkpt lat="43.65442" lon="3.86768">
        <ele>48</ele>
        <time>2021-03-21T09:22:28Z</time>
      </trkpt>
      <trkpt lat="43.65446" lon="3.86771">
        <ele>48</ele>
        <time>2021-03-21T09:22:29Z</time>
      </trkpt>
      <trkpt lat="43.65449" lon="3.86773">
        <ele>48</ele>
        <time>2021-03-21T09:22:30Z</time>
      </trkpt>
      <trkpt lat="43.65452" lon="3.86774">
        <ele>48</ele>
        <time>2021-03-21T09:22:31Z</time>
      </trkpt>
      <trkpt lat="43.65455" lon="3.86776">
        <ele>48</ele>
        <time>2021-03-21T09:22:32Z</time>
      </trkpt>
      <trkpt lat="43.65458" lon="3.86777">
        <ele>48</ele>
        <time>2021-03-21T09:22:33Z</time>
      </trkpt>
      <trkpt lat="43.65461" lon="3.86779">
        <ele>48</ele>
        <time>2021-03-21T09:22:34Z</time>
      </trkpt>
      <trkpt lat="43.65462" lon="3.86782">
        <ele>48</ele>
        <time>2021-03-21T09:22:35Z</time>
      </trkpt>
      <trkpt lat="43.65464" lon="3.86785">
        <ele>48</ele>
        <time>2021-03-21T09:22:36Z</time>
      </trkpt>
      <trkpt lat="43.65466" lon="3.86789">
        <ele>48</ele>
        <time>2021-03-21T09:22:37Z</time>
      </trkpt>
      <trkpt lat="43.65469" lon="3.86793">
        <ele>48</ele>
        <time>2021-03-21T09:22:38Z</time>
      </trkpt>
      <trkpt lat="43.65472" lon="3.86798">
        <ele>48</ele>
        <time>2021-03-21T09:22:39Z</time>
      </trkpt>
      <trkpt lat="43.65476" lon="3.86804">
        <ele>48</ele>
        <time>2021-03-21T09:22:40Z</time>
      </trkpt>
      <trkpt lat="43.65478" lon="3.8681">
        <ele>48</ele>
        <time>2021-03-21T09:22:41Z</time>
      </trkpt>
      <trkpt lat="43.65479" lon="3.86817">
        <ele>48</ele>
        <time>2021-03-21T09:22:42Z</time>
      </trkpt>
      <trkpt lat="43.65481" lon="3.86823">
        <ele>48</ele>
        <time>2021-03-21T09:22:43Z</time>
      </trkpt>
      <trkpt lat="43.65483" lon="3.86828">
        <ele>48</ele>
        <time>2021-03-21T09:22:44Z</time>
      </trkpt>
      <trkpt lat="43.65486" lon="3.86831">
        <ele>48</ele>
        <time>2021-03-21T09:22:45Z</time>
      </trkpt>
      <trkpt lat="43.6549" lon="3.86833">
        <ele>48</ele>
        <time>2021-03-21T09:22:46Z</time>
      </trkpt>
      <trkpt lat="43.65493" lon="3.86834">
        <ele>47</ele>
        <time>2021-03-21T09:22:47Z</time>
      </trkpt>
      <trkpt lat="43.65495" lon="3.86835">
        <ele>47</ele>
        <time>2021-03-21T09:22:48Z</time>
      </trkpt>
      <trkpt lat="43.65498" lon="3.86834">
        <ele>47</ele>
        <time>2021-03-21T09:22:50Z</time>
      </trkpt>
      <trkpt lat="43.655" lon="3.86834">
        <ele>47</ele>
        <time>2021-03-21T09:22:52Z</time>
      </trkpt>
      <trkpt lat="43.65498" lon="3.86834">
        <ele>47</ele>
        <time>2021-03-21T09:22:55Z</time>
      </trkpt>
      <trkpt lat="43.65496" lon="3.86833">
        <ele>47</ele>
        <time>2021-03-21T09:22:56Z</time>
      </trkpt>
      <trkpt lat="43.65495" lon="3.86831">
        <ele>47</ele>
        <time>2021-03-21T09:22:57Z</time>
      </trkpt>
      <trkpt lat="43.65494" lon="3.86829">
        <ele>47</ele>
        <time>2021-03-21T09:22:58Z</time>
      </trkpt>
      <trkpt lat="43.65494" lon="3.86826">
        <ele>47</ele>
        <time>2021-03-21T09:22:59Z</time>
      </trkpt>
      <trkpt lat="43.65493" lon="3.86823">
        <ele>47</ele>
        <time>2021-03-21T09:23:00Z</time>
      </trkpt>
      <trkpt lat="43.65492" lon="3.86818">
        <ele>47</ele>
        <time>2021-03-21T09:23:01Z</time>
      </trkpt>
      <trkpt lat="43.6549" lon="3.86809">
        <ele>47</ele>
        <time>2021-03-21T09:23:02Z</time>
      </trkpt>
      <trkpt lat="43.6549" lon="3.86804">
        <ele>47</ele>
        <time>2021-03-21T09:23:04Z</time>
      </trkpt>
      <trkpt lat="43.65491" lon="3.868">
        <ele>47</ele>
        <time>2021-03-21T09:23:05Z</time>
      </trkpt>
      <trkpt lat="43.65493" lon="3.86796">
        <ele>47</ele>
        <time>2021-03-21T09:23:06Z</time>
      </trkpt>
      <trkpt lat="43.65497" lon="3.86793">
        <ele>48</ele>
        <time>2021-03-21T09:23:07Z</time>
      </trkpt>
      <trkpt lat="43.655" lon="3.86793">
        <ele>48</ele>
        <time>2021-03-21T09:23:08Z</time>
      </trkpt>
      <trkpt lat="43.65504" lon="3.86793">
        <ele>48</ele>
        <time>2021-03-21T09:23:09Z</time>
      </trkpt>
      <trkpt lat="43.65508" lon="3.86794">
        <ele>48</ele>
        <time>2021-03-21T09:23:10Z</time>
      </trkpt>
      <trkpt lat="43.65511" lon="3.86792">
        <ele>48</ele>
        <time>2021-03-21T09:23:11Z</time>
      </trkpt>
      <trkpt lat="43.65515" lon="3.86791">
        <ele>48</ele>
        <time>2021-03-21T09:23:12Z</time>
      </trkpt>
      <trkpt lat="43.65519" lon="3.8679">
        <ele>48</ele>
        <time>2021-03-21T09:23:13Z</time>
      </trkpt>
      <trkpt lat="43.65524" lon="3.86791">
        <ele>48</ele>
        <time>2021-03-21T09:23:14Z</time>
      </trkpt>
      <trkpt lat="43.65528" lon="3.86792">
        <ele>48</ele>
        <time>2021-03-21T09:23:15Z</time>
      </trkpt>
      <trkpt lat="43.65533" lon="3.86793">
        <ele>48</ele>
        <time>2021-03-21T09:23:16Z</time>
      </trkpt>
      <trkpt lat="43.65538" lon="3.86794">
        <ele>47</ele>
        <time>2021-03-21T09:23:17Z</time>
      </trkpt>
      <trkpt lat="43.65543" lon="3.86794">
        <ele>47</ele>
        <time>2021-03-21T09:23:18Z</time>
      </trkpt>
      <trkpt lat="43.65547" lon="3.86794">
        <ele>47</ele>
        <time>2021-03-21T09:23:19Z</time>
      </trkpt>
      <trkpt lat="43.65551" lon="3.86794">
        <ele>47</ele>
        <time>2021-03-21T09:23:20Z</time>
      </trkpt>
      <trkpt lat="43.65554" lon="3.86795">
        <ele>47</ele>
        <time>2021-03-21T09:23:21Z</time>
      </trkpt>
      <trkpt lat="43.65556" lon="3.86796">
        <ele>47</ele>
        <time>2021-03-21T09:23:22Z</time>
      </trkpt>
      <trkpt lat="43.65559" lon="3.86796">
        <ele>47</ele>
        <time>2021-03-21T09:23:23Z</time>
      </trkpt>
      <trkpt lat="43.65561" lon="3.86794">
        <ele>47</ele>
        <time>2021-03-21T09:23:24Z</time>
      </trkpt>
      <trkpt lat="43.65563" lon="3.86792">
        <ele>47</ele>
        <time>2021-03-21T09:23:25Z</time>
      </trkpt>
      <trkpt lat="43.65564" lon="3.86788">
        <ele>47</ele>
        <time>2021-03-21T09:23:26Z</time>
      </trkpt>
      <trkpt lat="43.65566" lon="3.86785">
        <ele>47</ele>
        <time>2021-03-21T09:23:27Z</time>
      </trkpt>
      <trkpt lat="43.65568" lon="3.86782">
        <ele>47</ele>
        <time>2021-03-21T09:23:28Z</time>
      </trkpt>
      <trkpt lat="43.65571" lon="3.86778">
        <ele>47</ele>
        <time>2021-03-21T09:23:29Z</time>
      </trkpt>
      <trkpt lat="43.65573" lon="3.86775">
        <ele>47</ele>
        <time>2021-03-21T09:23:31Z</time>
      </trkpt>
      <trkpt lat="43.65574" lon="3.86773">
        <ele>47</ele>
        <time>2021-03-21T09:23:32Z</time>
      </trkpt>
      <trkpt lat="43.65576" lon="3.86769">
        <ele>47</ele>
        <time>2021-03-21T09:23:33Z</time>
      </trkpt>
      <trkpt lat="43.65577" lon="3.86765">
        <ele>47</ele>
        <time>2021-03-21T09:23:34Z</time>
      </trkpt>
      <trkpt lat="43.65581" lon="3.86757">
        <ele>47</ele>
        <time>2021-03-21T09:23:35Z</time>
      </trkpt>
      <trkpt lat="43.65584" lon="3.86753">
        <ele>47</ele>
        <time>2021-03-21T09:23:37Z</time>
      </trkpt>
      <trkpt lat="43.65586" lon="3.86749">
        <ele>47</ele>
        <time>2021-03-21T09:23:38Z</time>
      </trkpt>
      <trkpt lat="43.65589" lon="3.86745">
        <ele>47</ele>
        <time>2021-03-21T09:23:39Z</time>
      </trkpt>
      <trkpt lat="43.65591" lon="3.8674">
        <ele>47</ele>
        <time>2021-03-21T09:23:40Z</time>
      </trkpt>
      <trkpt lat="43.65594" lon="3.86737">
        <ele>47</ele>
        <time>2021-03-21T09:23:41Z</time>
      </trkpt>
      <trkpt lat="43.65597" lon="3.86733">
        <ele>47</ele>
        <time>2021-03-21T09:23:42Z</time>
      </trkpt>
      <trkpt lat="43.65599" lon="3.86729">
        <ele>47</ele>
        <time>2021-03-21T09:23:43Z</time>
      </trkpt>
      <trkpt lat="43.65601" lon="3.86726">
        <ele>47</ele>
        <time>2021-03-21T09:23:44Z</time>
      </trkpt>
      <trkpt lat="43.65604" lon="3.86724">
        <ele>47</ele>
        <time>2021-03-21T09:23:45Z</time>
      </trkpt>
      <trkpt lat="43.65608" lon="3.86722">
        <ele>47</ele>
        <time>2021-03-21T09:23:46Z</time>
      </trkpt>
      <trkpt lat="43.65611" lon="3.86721">
        <ele>48</ele>
        <time>2021-03-21T09:23:47Z</time>
      </trkpt>
      <trkpt lat="43.65614" lon="3.86718">
        <ele>48</ele>
        <time>2021-03-21T09:23:48Z</time>
      </trkpt>
      <trkpt lat="43.65615" lon="3.86714">
        <ele>48</ele>
        <time>2021-03-21T09:23:49Z</time>
      </trkpt>
      <trkpt lat="43.65617" lon="3.86711">
        <ele>48</ele>
        <time>2021-03-21T09:23:50Z</time>
      </trkpt>
      <trkpt lat="43.6562" lon="3.86709">
        <ele>48</ele>
        <time>2021-03-21T09:23:51Z</time>
      </trkpt>
      <trkpt lat="43.65623" lon="3.86707">
        <ele>48</ele>
        <time>2021-03-21T09:23:52Z</time>
      </trkpt>
      <trkpt lat="43.65626" lon="3.86705">
        <ele>48</ele>
        <time>2021-03-21T09:23:53Z</time>
      </trkpt>
      <trkpt lat="43.65629" lon="3.86704">
        <ele>48</ele>
        <time>2021-03-21T09:23:54Z</time>
      </trkpt>
      <trkpt lat="43.65631" lon="3.86703">
        <ele>48</ele>
        <time>2021-03-21T09:23:55Z</time>
      </trkpt>
      <trkpt lat="43.65633" lon="3.86701">
        <ele>48</ele>
        <time>2021-03-21T09:23:56Z</time>
      </trkpt>
      <trkpt lat="43.65635" lon="3.86699">
        <ele>49</ele>
        <time>2021-03-21T09:23:57Z</time>
      </trkpt>
      <trkpt lat="43.65637" lon="3.86697">
        <ele>49</ele>
        <time>2021-03-21T09:23:58Z</time>
      </trkpt>
      <trkpt lat="43.65641" lon="3.86696">
        <ele>49</ele>
        <time>2021-03-21T09:24:00Z</time>
      </trkpt>
      <trkpt lat="43.65643" lon="3.86694">
        <ele>49</ele>
        <time>2021-03-21T09:24:01Z</time>
      </trkpt>
      <trkpt lat="43.65646" lon="3.86692">
        <ele>49</ele>
        <time>2021-03-21T09:24:02Z</time>
      </trkpt>
      <trkpt lat="43.65648" lon="3.8669">
        <ele>49</ele>
        <time>2021-03-21T09:24:03Z</time>
      </trkpt>
      <trkpt lat="43.65651" lon="3.86688">
        <ele>49</ele>
        <time>2021-03-21T09:24:04Z</time>
      </trkpt>
      <trkpt lat="43.65655" lon="3.86687">
        <ele>49</ele>
        <time>2021-03-21T09:24:05Z</time>
      </trkpt>
      <trkpt lat="43.65657" lon="3.86686">
        <ele>49</ele>
        <time>2021-03-21T09:24:06Z</time>
      </trkpt>
      <trkpt lat="43.6566" lon="3.86686">
        <ele>49</ele>
        <time>2021-03-21T09:24:07Z</time>
      </trkpt>
      <trkpt lat="43.65664" lon="3.86685">
        <ele>49</ele>
        <time>2021-03-21T09:24:08Z</time>
      </trkpt>
      <trkpt lat="43.65667" lon="3.86685">
        <ele>49</ele>
        <time>2021-03-21T09:24:09Z</time>
      </trkpt>
      <trkpt lat="43.6567" lon="3.86685">
        <ele>49</ele>
        <time>2021-03-21T09:24:10Z</time>
      </trkpt>
      <trkpt lat="43.65672" lon="3.86686">
        <ele>49</ele>
        <time>2021-03-21T09:24:11Z</time>
      </trkpt>
      <trkpt lat="43.65673" lon="3.86688">
        <ele>49</ele>
        <time>2021-03-21T09:24:12Z</time>
      </trkpt>
      <trkpt lat="43.65676" lon="3.8669">
        <ele>49</ele>
        <time>2021-03-21T09:24:13Z</time>
      </trkpt>
      <trkpt lat="43.65678" lon="3.86691">
        <ele>49</ele>
        <time>2021-03-21T09:24:14Z</time>
      </trkpt>
      <trkpt lat="43.65681" lon="3.86693">
        <ele>49</ele>
        <time>2021-03-21T09:24:15Z</time>
      </trkpt>
      <trkpt lat="43.65685" lon="3.86694">
        <ele>49</ele>
        <time>2021-03-21T09:24:16Z</time>
      </trkpt>
      <trkpt lat="43.65687" lon="3.86693">
        <ele>49</ele>
        <time>2021-03-21T09:24:17Z</time>
      </trkpt>
      <trkpt lat="43.6569" lon="3.86693">
        <ele>49</ele>
        <time>2021-03-21T09:24:18Z</time>
      </trkpt>
      <trkpt lat="43.65692" lon="3.86693">
        <ele>49</ele>
        <time>2021-03-21T09:24:19Z</time>
      </trkpt>
      <trkpt lat="43.65694" lon="3.86693">
        <ele>49</ele>
        <time>2021-03-21T09:24:20Z</time>
      </trkpt>
      <trkpt lat="43.65696" lon="3.86692">
        <ele>49</ele>
        <time>2021-03-21T09:24:21Z</time>
      </trkpt>
      <trkpt lat="43.65699" lon="3.86692">
        <ele>49</ele>
        <time>2021-03-21T09:24:22Z</time>
      </trkpt>
      <trkpt lat="43.65701" lon="3.86694">
        <ele>49</ele>
        <time>2021-03-21T09:24:23Z</time>
      </trkpt>
      <trkpt lat="43.65704" lon="3.86695">
        <ele>49</ele>
        <time>2021-03-21T09:24:24Z</time>
      </trkpt>
      <trkpt lat="43.65708" lon="3.86697">
        <ele>49</ele>
        <time>2021-03-21T09:24:25Z</time>
      </trkpt>
      <trkpt lat="43.65711" lon="3.86697">
        <ele>49</ele>
        <time>2021-03-21T09:24:26Z</time>
      </trkpt>
      <trkpt lat="43.65714" lon="3.86698">
        <ele>50</ele>
        <time>2021-03-21T09:24:27Z</time>
      </trkpt>
      <trkpt lat="43.65718" lon="3.86699">
        <ele>50</ele>
        <time>2021-03-21T09:24:28Z</time>
      </trkpt>
      <trkpt lat="43.6572" lon="3.86701">
        <ele>50</ele>
        <time>2021-03-21T09:24:29Z</time>
      </trkpt>
      <trkpt lat="43.65723" lon="3.86702">
        <ele>50</ele>
        <time>2021-03-21T09:24:30Z</time>
      </trkpt>
      <trkpt lat="43.65727" lon="3.86702">
        <ele>50</ele>
        <time>2021-03-21T09:24:31Z</time>
      </trkpt>
      <trkpt lat="43.6573" lon="3.86702">
        <ele>50</ele>
        <time>2021-03-21T09:24:32Z</time>
      </trkpt>
      <trkpt lat="43.65733" lon="3.86701">
        <ele>50</ele>
        <time>2021-03-21T09:24:33Z</time>
      </trkpt>
      <trkpt lat="43.65736" lon="3.86701">
        <ele>50</ele>
        <time>2021-03-21T09:24:34Z</time>
      </trkpt>
      <trkpt lat="43.65738" lon="3.86701">
        <ele>50</ele>
        <time>2021-03-21T09:24:35Z</time>
      </trkpt>
      <trkpt lat="43.65741" lon="3.86702">
        <ele>50</ele>
        <time>2021-03-21T09:24:36Z</time>
      </trkpt>
      <trkpt lat="43.65743" lon="3.86702">
        <ele>50</ele>
        <time>2021-03-21T09:24:37Z</time>
      </trkpt>
      <trkpt lat="43.65746" lon="3.86702">
        <ele>50</ele>
        <time>2021-03-21T09:24:38Z</time>
      </trkpt>
      <trkpt lat="43.65748" lon="3.86702">
        <ele>50</ele>
        <time>2021-03-21T09:24:39Z</time>
      </trkpt>
      <trkpt lat="43.6575" lon="3.86703">
        <ele>50</ele>
        <time>2021-03-21T09:24:41Z</time>
      </trkpt>
      <trkpt lat="43.65752" lon="3.86703">
        <ele>50</ele>
        <time>2021-03-21T09:24:43Z</time>
      </trkpt>
      <trkpt lat="43.65755" lon="3.86703">
        <ele>50</ele>
        <time>2021-03-21T09:24:46Z</time>
      </trkpt>
      <trkpt lat="43.65758" lon="3.86703">
        <ele>50</ele>
        <time>2021-03-21T09:24:48Z</time>
      </trkpt>
      <trkpt lat="43.65761" lon="3.86702">
        <ele>50</ele>
        <time>2021-03-21T09:24:50Z</time>
      </trkpt>
      <trkpt lat="43.65763" lon="3.86702">
        <ele>50</ele>
        <time>2021-03-21T09:24:51Z</time>
      </trkpt>
      <trkpt lat="43.65765" lon="3.86702">
        <ele>50</ele>
        <time>2021-03-21T09:24:52Z</time>
      </trkpt>
      <trkpt lat="43.65768" lon="3.86702">
        <ele>50</ele>
        <time>2021-03-21T09:24:53Z</time>
      </trkpt>
      <trkpt lat="43.65771" lon="3.86701">
        <ele>50</ele>
        <time>2021-03-21T09:24:54Z</time>
      </trkpt>
      <trkpt lat="43.65773" lon="3.86701">
        <ele>50</ele>
        <time>2021-03-21T09:24:55Z</time>
      </trkpt>
      <trkpt lat="43.65776" lon="3.867">
        <ele>50</ele>
        <time>2021-03-21T09:24:56Z</time>
      </trkpt>
      <trkpt lat="43.65779" lon="3.867">
        <ele>51</ele>
        <time>2021-03-21T09:24:57Z</time>
      </trkpt>
      <trkpt lat="43.65782" lon="3.86699">
        <ele>51</ele>
        <time>2021-03-21T09:24:58Z</time>
      </trkpt>
      <trkpt lat="43.65785" lon="3.86699">
        <ele>51</ele>
        <time>2021-03-21T09:24:59Z</time>
      </trkpt>
      <trkpt lat="43.65789" lon="3.86699">
        <ele>51</ele>
        <time>2021-03-21T09:25:00Z</time>
      </trkpt>
      <trkpt lat="43.65793" lon="3.867">
        <ele>51</ele>
        <time>2021-03-21T09:25:01Z</time>
      </trkpt>
      <trkpt lat="43.65796" lon="3.86701">
        <ele>51</ele>
        <time>2021-03-21T09:25:02Z</time>
      </trkpt>
      <trkpt lat="43.658" lon="3.867">
        <ele>51</ele>
        <time>2021-03-21T09:25:03Z</time>
      </trkpt>
      <trkpt lat="43.65804" lon="3.867">
        <ele>51</ele>
        <time>2021-03-21T09:25:04Z</time>
      </trkpt>
      <trkpt lat="43.65809" lon="3.86701">
        <ele>51</ele>
        <time>2021-03-21T09:25:05Z</time>
      </trkpt>
      <trkpt lat="43.65812" lon="3.86702">
        <ele>51</ele>
        <time>2021-03-21T09:25:06Z</time>
      </trkpt>
      <trkpt lat="43.65816" lon="3.86702">
        <ele>52</ele>
        <time>2021-03-21T09:25:07Z</time>
      </trkpt>
      <trkpt lat="43.65819" lon="3.86701">
        <ele>52</ele>
        <time>2021-03-21T09:25:08Z</time>
      </trkpt>
      <trkpt lat="43.65823" lon="3.867">
        <ele>52</ele>
        <time>2021-03-21T09:25:09Z</time>
      </trkpt>
      <trkpt lat="43.65828" lon="3.86699">
        <ele>52</ele>
        <time>2021-03-21T09:25:10Z</time>
      </trkpt>
      <trkpt lat="43.65831" lon="3.86697">
        <ele>52</ele>
        <time>2021-03-21T09:25:11Z</time>
      </trkpt>
      <trkpt lat="43.65834" lon="3.86697">
        <ele>52</ele>
        <time>2021-03-21T09:25:12Z</time>
      </trkpt>
      <trkpt lat="43.65839" lon="3.86696">
        <ele>52</ele>
        <time>2021-03-21T09:25:13Z</time>
      </trkpt>
      <trkpt lat="43.65844" lon="3.86695">
        <ele>52</ele>
        <time>2021-03-21T09:25:14Z</time>
      </trkpt>
      <trkpt lat="43.65849" lon="3.86694">
        <ele>52</ele>
        <time>2021-03-21T09:25:15Z</time>
      </trkpt>
      <trkpt lat="43.65854" lon="3.86693">
        <ele>52</ele>
        <time>2021-03-21T09:25:16Z</time>
      </trkpt>
      <trkpt lat="43.65858" lon="3.86692">
        <ele>51</ele>
        <time>2021-03-21T09:25:17Z</time>
      </trkpt>
      <trkpt lat="43.65863" lon="3.86693">
        <ele>51</ele>
        <time>2021-03-21T09:25:18Z</time>
      </trkpt>
      <trkpt lat="43.65867" lon="3.86695">
        <ele>51</ele>
        <time>2021-03-21T09:25:19Z</time>
      </trkpt>
      <trkpt lat="43.65872" lon="3.86696">
        <ele>51</ele>
        <time>2021-03-21T09:25:20Z</time>
      </trkpt>
      <trkpt lat="43.65876" lon="3.86696">
        <ele>51</ele>
        <time>2021-03-21T09:25:21Z</time>
      </trkpt>
      <trkpt lat="43.6588" lon="3.86696">
        <ele>51</ele>
        <time>2021-03-21T09:25:22Z</time>
      </trkpt>
      <trkpt lat="43.65884" lon="3.86696">
        <ele>51</ele>
        <time>2021-03-21T09:25:23Z</time>
      </trkpt>
      <trkpt lat="43.65888" lon="3.86698">
        <ele>51</ele>
        <time>2021-03-21T09:25:24Z</time>
      </trkpt>
      <trkpt lat="43.65892" lon="3.86701">
        <ele>51</ele>
        <time>2021-03-21T09:25:25Z</time>
      </trkpt>
      <trkpt lat="43.65894" lon="3.86706">
        <ele>51</ele>
        <time>2021-03-21T09:25:26Z</time>
      </trkpt>
      <trkpt lat="43.65896" lon="3.86713">
        <ele>51</ele>
        <time>2021-03-21T09:25:27Z</time>
      </trkpt>
      <trkpt lat="43.65897" lon="3.86718">
        <ele>51</ele>
        <time>2021-03-21T09:25:28Z</time>
      </trkpt>
      <trkpt lat="43.65898" lon="3.86724">
        <ele>51</ele>
        <time>2021-03-21T09:25:29Z</time>
      </trkpt>
      <trkpt lat="43.659" lon="3.86729">
        <ele>51</ele>
        <time>2021-03-21T09:25:30Z</time>
      </trkpt>
      <trkpt lat="43.65901" lon="3.86734">
        <ele>51</ele>
        <time>2021-03-21T09:25:31Z</time>
      </trkpt>
      <trkpt lat="43.65903" lon="3.86739">
        <ele>51</ele>
        <time>2021-03-21T09:25:32Z</time>
      </trkpt>
      <trkpt lat="43.65904" lon="3.86743">
        <ele>51</ele>
        <time>2021-03-21T09:25:33Z</time>
      </trkpt>
      <trkpt lat="43.65905" lon="3.86748">
        <ele>51</ele>
        <time>2021-03-21T09:25:34Z</time>
      </trkpt>
      <trkpt lat="43.65907" lon="3.86751">
        <ele>51</ele>
        <time>2021-03-21T09:25:35Z</time>
      </trkpt>
      <trkpt lat="43.65908" lon="3.86755">
        <ele>51</ele>
        <time>2021-03-21T09:25:36Z</time>
      </trkpt>
      <trkpt lat="43.6591" lon="3.86758">
        <ele>50</ele>
        <time>2021-03-21T09:25:37Z</time>
      </trkpt>
      <trkpt lat="43.65911" lon="3.86761">
        <ele>50</ele>
        <time>2021-03-21T09:25:38Z</time>
      </trkpt>
      <trkpt lat="43.65912" lon="3.86764">
        <ele>50</ele>
        <time>2021-03-21T09:25:39Z</time>
      </trkpt>
      <trkpt lat="43.65913" lon="3.86766">
        <ele>50</ele>
        <time>2021-03-21T09:25:40Z</time>
      </trkpt>
      <trkpt lat="43.65914" lon="3.86768">
        <ele>50</ele>
        <time>2021-03-21T09:25:41Z</time>
      </trkpt>
      <trkpt lat="43.65915" lon="3.8677">
        <ele>50</ele>
        <time>2021-03-21T09:25:42Z</time>
      </trkpt>
      <trkpt lat="43.65916" lon="3.86773">
        <ele>50</ele>
        <time>2021-03-21T09:25:43Z</time>
      </trkpt>
      <trkpt lat="43.65916" lon="3.86777">
        <ele>50</ele>
        <time>2021-03-21T09:25:44Z</time>
      </trkpt>
      <trkpt lat="43.65917" lon="3.86781">
        <ele>50</ele>
        <time>2021-03-21T09:25:45Z</time>
      </trkpt>
      <trkpt lat="43.65918" lon="3.86784">
        <ele>50</ele>
        <time>2021-03-21T09:25:46Z</time>
      </trkpt>
      <trkpt lat="43.6592" lon="3.86786">
        <ele>51</ele>
        <time>2021-03-21T09:25:47Z</time>
      </trkpt>
      <trkpt lat="43.65922" lon="3.86787">
        <ele>51</ele>
        <time>2021-03-21T09:25:48Z</time>
      </trkpt>
      <trkpt lat="43.65924" lon="3.86788">
        <ele>51</ele>
        <time>2021-03-21T09:25:49Z</time>
      </trkpt>
      <trkpt lat="43.65926" lon="3.86788">
        <ele>51</ele>
        <time>2021-03-21T09:25:50Z</time>
      </trkpt>
      <trkpt lat="43.65929" lon="3.86788">
        <ele>51</ele>
        <time>2021-03-21T09:25:51Z</time>
      </trkpt>
      <trkpt lat="43.65932" lon="3.86788">
        <ele>51</ele>
        <time>2021-03-21T09:25:52Z</time>
      </trkpt>
      <trkpt lat="43.65934" lon="3.86788">
        <ele>51</ele>
        <time>2021-03-21T09:25:53Z</time>
      </trkpt>
      <trkpt lat="43.65937" lon="3.86788">
        <ele>51</ele>
        <time>2021-03-21T09:25:54Z</time>
      </trkpt>
      <trkpt lat="43.65939" lon="3.86788">
        <ele>51</ele>
        <time>2021-03-21T09:25:55Z</time>
      </trkpt>
      <trkpt lat="43.65942" lon="3.86789">
        <ele>51</ele>
        <time>2021-03-21T09:25:56Z</time>
      </trkpt>
      <trkpt lat="43.65945" lon="3.86789">
        <ele>52</ele>
        <time>2021-03-21T09:25:57Z</time>
      </trkpt>
      <trkpt lat="43.65948" lon="3.86789">
        <ele>52</ele>
        <time>2021-03-21T09:25:58Z</time>
      </trkpt>
      <trkpt lat="43.65951" lon="3.86789">
        <ele>52</ele>
        <time>2021-03-21T09:25:59Z</time>
      </trkpt>
      <trkpt lat="43.65953" lon="3.86788">
        <ele>52</ele>
        <time>2021-03-21T09:26:00Z</time>
      </trkpt>
      <trkpt lat="43.65956" lon="3.86788">
        <ele>52</ele>
        <time>2021-03-21T09:26:01Z</time>
      </trkpt>
      <trkpt lat="43.65959" lon="3.86787">
        <ele>52</ele>
        <time>2021-03-21T09:26:02Z</time>
      </trkpt>
      <trkpt lat="43.65961" lon="3.86785">
        <ele>52</ele>
        <time>2021-03-21T09:26:03Z</time>
      </trkpt>
      <trkpt lat="43.65964" lon="3.86783">
        <ele>52</ele>
        <time>2021-03-21T09:26:04Z</time>
      </trkpt>
      <trkpt lat="43.65965" lon="3.86781">
        <ele>52</ele>
        <time>2021-03-21T09:26:05Z</time>
      </trkpt>
      <trkpt lat="43.65968" lon="3.8678">
        <ele>52</ele>
        <time>2021-03-21T09:26:06Z</time>
      </trkpt>
      <trkpt lat="43.6597" lon="3.86778">
        <ele>53</ele>
        <time>2021-03-21T09:26:07Z</time>
      </trkpt>
      <trkpt lat="43.65972" lon="3.86777">
        <ele>53</ele>
        <time>2021-03-21T09:26:08Z</time>
      </trkpt>
      <trkpt lat="43.65974" lon="3.86775">
        <ele>53</ele>
        <time>2021-03-21T09:26:09Z</time>
      </trkpt>
      <trkpt lat="43.65976" lon="3.86774">
        <ele>53</ele>
        <time>2021-03-21T09:26:10Z</time>
      </trkpt>
      <trkpt lat="43.65978" lon="3.86773">
        <ele>53</ele>
        <time>2021-03-21T09:26:11Z</time>
      </trkpt>
      <trkpt lat="43.6598" lon="3.86772">
        <ele>53</ele>
        <time>2021-03-21T09:26:12Z</time>
      </trkpt>
      <trkpt lat="43.65982" lon="3.86771">
        <ele>53</ele>
        <time>2021-03-21T09:26:13Z</time>
      </trkpt>
      <trkpt lat="43.65984" lon="3.86771">
        <ele>53</ele>
        <time>2021-03-21T09:26:14Z</time>
      </trkpt>
      <trkpt lat="43.65986" lon="3.8677">
        <ele>53</ele>
        <time>2021-03-21T09:26:15Z</time>
      </trkpt>
      <trkpt lat="43.65988" lon="3.8677">
        <ele>54</ele>
        <time>2021-03-21T09:26:16Z</time>
      </trkpt>
      <trkpt lat="43.6599" lon="3.86769">
        <ele>54</ele>
        <time>2021-03-21T09:26:17Z</time>
      </trkpt>
      <trkpt lat="43.65993" lon="3.86769">
        <ele>54</ele>
        <time>2021-03-21T09:26:19Z</time>
      </trkpt>
      <trkpt lat="43.65997" lon="3.86768">
        <ele>54</ele>
        <time>2021-03-21T09:26:21Z</time>
      </trkpt>
      <trkpt lat="43.66" lon="3.86767">
        <ele>54</ele>
        <time>2021-03-21T09:26:23Z</time>
      </trkpt>
      <trkpt lat="43.66003" lon="3.86766">
        <ele>54</ele>
        <time>2021-03-21T09:26:25Z</time>
      </trkpt>
      <trkpt lat="43.66006" lon="3.86766">
        <ele>57</ele>
        <time>2021-03-21T09:26:27Z</time>
      </trkpt>
      <trkpt lat="43.66009" lon="3.86767">
        <ele>57</ele>
        <time>2021-03-21T09:26:29Z</time>
      </trkpt>
      <trkpt lat="43.66014" lon="3.8677">
        <ele>57</ele>
        <time>2021-03-21T09:26:31Z</time>
      </trkpt>
      <trkpt lat="43.66016" lon="3.86773">
        <ele>57</ele>
        <time>2021-03-21T09:26:34Z</time>
      </trkpt>
      <trkpt lat="43.66018" lon="3.86777">
        <ele>59</ele>
        <time>2021-03-21T09:26:36Z</time>
      </trkpt>
      <trkpt lat="43.66019" lon="3.86781">
        <ele>59</ele>
        <time>2021-03-21T09:26:38Z</time>
      </trkpt>
      <trkpt lat="43.66019" lon="3.86786">
        <ele>59</ele>
        <time>2021-03-21T09:26:40Z</time>
      </trkpt>
      <trkpt lat="43.6602" lon="3.86791">
        <ele>59</ele>
        <time>2021-03-21T09:26:42Z</time>
      </trkpt>
      <trkpt lat="43.6602" lon="3.86793">
        <ele>59</ele>
        <time>2021-03-21T09:26:43Z</time>
      </trkpt>
      <trkpt lat="43.6602" lon="3.86798">
        <ele>59</ele>
        <time>2021-03-21T09:26:45Z</time>
      </trkpt>
      <trkpt lat="43.66019" lon="3.86802">
        <ele>60</ele>
        <time>2021-03-21T09:26:47Z</time>
      </trkpt>
      <trkpt lat="43.66019" lon="3.86806">
        <ele>60</ele>
        <time>2021-03-21T09:26:49Z</time>
      </trkpt>
      <trkpt lat="43.66019" lon="3.8681">
        <ele>60</ele>
        <time>2021-03-21T09:26:50Z</time>
      </trkpt>
      <trkpt lat="43.66019" lon="3.86813">
        <ele>60</ele>
        <time>2021-03-21T09:26:53Z</time>
      </trkpt>
      <trkpt lat="43.66019" lon="3.86817">
        <ele>60</ele>
        <time>2021-03-21T09:26:55Z</time>
      </trkpt>
      <trkpt lat="43.66018" lon="3.86819">
        <ele>60</ele>
        <time>2021-03-21T09:26:57Z</time>
      </trkpt>
      <trkpt lat="43.66018" lon="3.86822">
        <ele>60</ele>
        <time>2021-03-21T09:26:58Z</time>
      </trkpt>
      <trkpt lat="43.66019" lon="3.86823">
        <ele>62</ele>
        <time>2021-03-21T09:27:06Z</time>
      </trkpt>
      <trkpt lat="43.66025" lon="3.8683">
        <ele>62</ele>
        <time>2021-03-21T09:28:40Z</time>
      </trkpt>
      <trkpt lat="43.66025" lon="3.86833">
        <ele>62</ele>
        <time>2021-03-21T09:28:41Z</time>
      </trkpt>
      <trkpt lat="43.66025" lon="3.86835">
        <ele>62</ele>
        <time>2021-03-21T09:28:42Z</time>
      </trkpt>
      <trkpt lat="43.66025" lon="3.86838">
        <ele>62</ele>
        <time>2021-03-21T09:28:43Z</time>
      </trkpt>
      <trkpt lat="43.66026" lon="3.86841">
        <ele>62</ele>
        <time>2021-03-21T09:28:44Z</time>
      </trkpt>
      <trkpt lat="43.66027" lon="3.86843">
        <ele>62</ele>
        <time>2021-03-21T09:28:45Z</time>
      </trkpt>
      <trkpt lat="43.66027" lon="3.86846">
        <ele>62</ele>
        <time>2021-03-21T09:28:46Z</time>
      </trkpt>
      <trkpt lat="43.66028" lon="3.86848">
        <ele>62</ele>
        <time>2021-03-21T09:28:47Z</time>
      </trkpt>
      <trkpt lat="43.6603" lon="3.8685">
        <ele>62</ele>
        <time>2021-03-21T09:28:48Z</time>
      </trkpt>
      <trkpt lat="43.66031" lon="3.86851">
        <ele>62</ele>
        <time>2021-03-21T09:28:49Z</time>
      </trkpt>
      <trkpt lat="43.66034" lon="3.86852">
        <ele>62</ele>
        <time>2021-03-21T09:28:50Z</time>
      </trkpt>
      <trkpt lat="43.66036" lon="3.86853">
        <ele>62</ele>
        <time>2021-03-21T09:28:51Z</time>
      </trkpt>
      <trkpt lat="43.66039" lon="3.86854">
        <ele>62</ele>
        <time>2021-03-21T09:28:52Z</time>
      </trkpt>
      <trkpt lat="43.66041" lon="3.86855">
        <ele>62</ele>
        <time>2021-03-21T09:28:53Z</time>
      </trkpt>
      <trkpt lat="43.66044" lon="3.86856">
        <ele>62</ele>
        <time>2021-03-21T09:28:54Z</time>
      </trkpt>
      <trkpt lat="43.66046" lon="3.86858">
        <ele>62</ele>
        <time>2021-03-21T09:28:55Z</time>
      </trkpt>
      <trkpt lat="43.66048" lon="3.86861">
        <ele>62</ele>
        <time>2021-03-21T09:28:56Z</time>
      </trkpt>
      <trkpt lat="43.6605" lon="3.86864">
        <ele>62</ele>
        <time>2021-03-21T09:28:57Z</time>
      </trkpt>
      <trkpt lat="43.66051" lon="3.86868">
        <ele>62</ele>
        <time>2021-03-21T09:28:58Z</time>
      </trkpt>
      <trkpt lat="43.66053" lon="3.8687">
        <ele>62</ele>
        <time>2021-03-21T09:28:59Z</time>
      </trkpt>
      <trkpt lat="43.66055" lon="3.86873">
        <ele>63</ele>
        <time>2021-03-21T09:29:00Z</time>
      </trkpt>
      <trkpt lat="43.66058" lon="3.8688">
        <ele>63</ele>
        <time>2021-03-21T09:29:01Z</time>
      </trkpt>
      <trkpt lat="43.66059" lon="3.86883">
        <ele>63</ele>
        <time>2021-03-21T09:29:03Z</time>
      </trkpt>
      <trkpt lat="43.66063" lon="3.86889">
        <ele>63</ele>
        <time>2021-03-21T09:29:04Z</time>
      </trkpt>
      <trkpt lat="43.66065" lon="3.86892">
        <ele>63</ele>
        <time>2021-03-21T09:29:06Z</time>
      </trkpt>
      <trkpt lat="43.66068" lon="3.86898">
        <ele>63</ele>
        <time>2021-03-21T09:29:07Z</time>
      </trkpt>
      <trkpt lat="43.66069" lon="3.86902">
        <ele>63</ele>
        <time>2021-03-21T09:29:09Z</time>
      </trkpt>
      <trkpt lat="43.6607" lon="3.86905">
        <ele>64</ele>
        <time>2021-03-21T09:29:10Z</time>
      </trkpt>
      <trkpt lat="43.66071" lon="3.86908">
        <ele>64</ele>
        <time>2021-03-21T09:29:11Z</time>
      </trkpt>
      <trkpt lat="43.66073" lon="3.86911">
        <ele>64</ele>
        <time>2021-03-21T09:29:12Z</time>
      </trkpt>
      <trkpt lat="43.66074" lon="3.86914">
        <ele>64</ele>
        <time>2021-03-21T09:29:13Z</time>
      </trkpt>
      <trkpt lat="43.66076" lon="3.86917">
        <ele>64</ele>
        <time>2021-03-21T09:29:14Z</time>
      </trkpt>
      <trkpt lat="43.66077" lon="3.8692">
        <ele>64</ele>
        <time>2021-03-21T09:29:15Z</time>
      </trkpt>
      <trkpt lat="43.66079" lon="3.86923">
        <ele>64</ele>
        <time>2021-03-21T09:29:16Z</time>
      </trkpt>
      <trkpt lat="43.66081" lon="3.86925">
        <ele>64</ele>
        <time>2021-03-21T09:29:17Z</time>
      </trkpt>
      <trkpt lat="43.66082" lon="3.86928">
        <ele>64</ele>
        <time>2021-03-21T09:29:18Z</time>
      </trkpt>
      <trkpt lat="43.66084" lon="3.8693">
        <ele>64</ele>
        <time>2021-03-21T09:29:19Z</time>
      </trkpt>
      <trkpt lat="43.66085" lon="3.86933">
        <ele>66</ele>
        <time>2021-03-21T09:29:20Z</time>
      </trkpt>
      <trkpt lat="43.66086" lon="3.86936">
        <ele>66</ele>
        <time>2021-03-21T09:29:21Z</time>
      </trkpt>
      <trkpt lat="43.66087" lon="3.86939">
        <ele>66</ele>
        <time>2021-03-21T09:29:22Z</time>
      </trkpt>
      <trkpt lat="43.66087" lon="3.86941">
        <ele>66</ele>
        <time>2021-03-21T09:29:23Z</time>
      </trkpt>
      <trkpt lat="43.66088" lon="3.86944">
        <ele>66</ele>
        <time>2021-03-21T09:29:24Z</time>
      </trkpt>
      <trkpt lat="43.66088" lon="3.86947">
        <ele>66</ele>
        <time>2021-03-21T09:29:25Z</time>
      </trkpt>
      <trkpt lat="43.66088" lon="3.86951">
        <ele>66</ele>
        <time>2021-03-21T09:29:26Z</time>
      </trkpt>
      <trkpt lat="43.66089" lon="3.86955">
        <ele>66</ele>
        <time>2021-03-21T09:29:27Z</time>
      </trkpt>
      <trkpt lat="43.6609" lon="3.86957">
        <ele>66</ele>
        <time>2021-03-21T09:29:28Z</time>
      </trkpt>
      <trkpt lat="43.66092" lon="3.86963">
        <ele>67</ele>
        <time>2021-03-21T09:29:30Z</time>
      </trkpt>
      <trkpt lat="43.66094" lon="3.86965">
        <ele>67</ele>
        <time>2021-03-21T09:29:32Z</time>
      </trkpt>
      <trkpt lat="43.66096" lon="3.86971">
        <ele>67</ele>
        <time>2021-03-21T09:29:33Z</time>
      </trkpt>
      <trkpt lat="43.66097" lon="3.86974">
        <ele>67</ele>
        <time>2021-03-21T09:29:35Z</time>
      </trkpt>
      <trkpt lat="43.66098" lon="3.8698">
        <ele>67</ele>
        <time>2021-03-21T09:29:36Z</time>
      </trkpt>
      <trkpt lat="43.66099" lon="3.86983">
        <ele>67</ele>
        <time>2021-03-21T09:29:38Z</time>
      </trkpt>
      <trkpt lat="43.66099" lon="3.86986">
        <ele>67</ele>
        <time>2021-03-21T09:29:39Z</time>
      </trkpt>
      <trkpt lat="43.661" lon="3.86989">
        <ele>69</ele>
        <time>2021-03-21T09:29:40Z</time>
      </trkpt>
      <trkpt lat="43.661" lon="3.86992">
        <ele>69</ele>
        <time>2021-03-21T09:29:41Z</time>
      </trkpt>
      <trkpt lat="43.66101" lon="3.86995">
        <ele>69</ele>
        <time>2021-03-21T09:29:42Z</time>
      </trkpt>
      <trkpt lat="43.66102" lon="3.86998">
        <ele>69</ele>
        <time>2021-03-21T09:29:43Z</time>
      </trkpt>
      <trkpt lat="43.66103" lon="3.87001">
        <ele>69</ele>
        <time>2021-03-21T09:29:44Z</time>
      </trkpt>
      <trkpt lat="43.66104" lon="3.87005">
        <ele>69</ele>
        <time>2021-03-21T09:29:45Z</time>
      </trkpt>
      <trkpt lat="43.66106" lon="3.87008">
        <ele>69</ele>
        <time>2021-03-21T09:29:46Z</time>
      </trkpt>
      <trkpt lat="43.66107" lon="3.8701">
        <ele>69</ele>
        <time>2021-03-21T09:29:47Z</time>
      </trkpt>
      <trkpt lat="43.66108" lon="3.87012">
        <ele>69</ele>
        <time>2021-03-21T09:29:48Z</time>
      </trkpt>
      <trkpt lat="43.66109" lon="3.87014">
        <ele>69</ele>
        <time>2021-03-21T09:29:49Z</time>
      </trkpt>
      <trkpt lat="43.66111" lon="3.87016">
        <ele>71</ele>
        <time>2021-03-21T09:29:50Z</time>
      </trkpt>
      <trkpt lat="43.66113" lon="3.87017">
        <ele>71</ele>
        <time>2021-03-21T09:29:51Z</time>
      </trkpt>
      <trkpt lat="43.66115" lon="3.87018">
        <ele>71</ele>
        <time>2021-03-21T09:29:52Z</time>
      </trkpt>
      <trkpt lat="43.66117" lon="3.87019">
        <ele>71</ele>
        <time>2021-03-21T09:29:53Z</time>
      </trkpt>
      <trkpt lat="43.66119" lon="3.8702">
        <ele>71</ele>
        <time>2021-03-21T09:29:54Z</time>
      </trkpt>
      <trkpt lat="43.6612" lon="3.87021">
        <ele>71</ele>
        <time>2021-03-21T09:29:55Z</time>
      </trkpt>
      <trkpt lat="43.66123" lon="3.87024">
        <ele>71</ele>
        <time>2021-03-21T09:29:57Z</time>
      </trkpt>
      <trkpt lat="43.66124" lon="3.87026">
        <ele>71</ele>
        <time>2021-03-21T09:29:58Z</time>
      </trkpt>
      <trkpt lat="43.66126" lon="3.8703">
        <ele>73</ele>
        <time>2021-03-21T09:30:00Z</time>
      </trkpt>
      <trkpt lat="43.66128" lon="3.87033">
        <ele>73</ele>
        <time>2021-03-21T09:30:02Z</time>
      </trkpt>
      <trkpt lat="43.66129" lon="3.87037">
        <ele>73</ele>
        <time>2021-03-21T09:30:04Z</time>
      </trkpt>
      <trkpt lat="43.6613" lon="3.8704">
        <ele>73</ele>
        <time>2021-03-21T09:30:05Z</time>
      </trkpt>
      <trkpt lat="43.66131" lon="3.87045">
        <ele>73</ele>
        <time>2021-03-21T09:30:07Z</time>
      </trkpt>
      <trkpt lat="43.66133" lon="3.87047">
        <ele>73</ele>
        <time>2021-03-21T09:30:08Z</time>
      </trkpt>
      <trkpt lat="43.66135" lon="3.87049">
        <ele>73</ele>
        <time>2021-03-21T09:30:10Z</time>
      </trkpt>
      <trkpt lat="43.66136" lon="3.87051">
        <ele>73</ele>
        <time>2021-03-21T09:30:12Z</time>
      </trkpt>
      <trkpt lat="43.66137" lon="3.87053">
        <ele>73</ele>
        <time>2021-03-21T09:30:14Z</time>
      </trkpt>
      <trkpt lat="43.66138" lon="3.87056">
        <ele>73</ele>
        <time>2021-03-21T09:30:16Z</time>
      </trkpt>
      <trkpt lat="43.66139" lon="3.87059">
        <ele>73</ele>
        <time>2021-03-21T09:30:19Z</time>
      </trkpt>
      <trkpt lat="43.6614" lon="3.87069">
        <ele>78</ele>
        <time>2021-03-21T09:30:31Z</time>
      </trkpt>
      <trkpt lat="43.66141" lon="3.87071">
        <ele>78</ele>
        <time>2021-03-21T09:30:33Z</time>
      </trkpt>
      <trkpt lat="43.66142" lon="3.87074">
        <ele>78</ele>
        <time>2021-03-21T09:30:35Z</time>
      </trkpt>
      <trkpt lat="43.66145" lon="3.87076">
        <ele>78</ele>
        <time>2021-03-21T09:30:37Z</time>
      </trkpt>
      <trkpt lat="43.66146" lon="3.87079">
        <ele>78</ele>
        <time>2021-03-21T09:30:39Z</time>
      </trkpt>
      <trkpt lat="43.66147" lon="3.87082">
        <ele>80</ele>
        <time>2021-03-21T09:30:41Z</time>
      </trkpt>
      <trkpt lat="43.6615" lon="3.87085">
        <ele>80</ele>
        <time>2021-03-21T09:30:43Z</time>
      </trkpt>
      <trkpt lat="43.66152" lon="3.87089">
        <ele>80</ele>
        <time>2021-03-21T09:30:45Z</time>
      </trkpt>
      <trkpt lat="43.66154" lon="3.87093">
        <ele>80</ele>
        <time>2021-03-21T09:30:47Z</time>
      </trkpt>
      <trkpt lat="43.66157" lon="3.87095">
        <ele>80</ele>
        <time>2021-03-21T09:30:49Z</time>
      </trkpt>
      <trkpt lat="43.66159" lon="3.87098">
        <ele>82</ele>
        <time>2021-03-21T09:30:51Z</time>
      </trkpt>
      <trkpt lat="43.66159" lon="3.87102">
        <ele>82</ele>
        <time>2021-03-21T09:30:53Z</time>
      </trkpt>
      <trkpt lat="43.66161" lon="3.87105">
        <ele>82</ele>
        <time>2021-03-21T09:30:55Z</time>
      </trkpt>
      <trkpt lat="43.66162" lon="3.87108">
        <ele>82</ele>
        <time>2021-03-21T09:30:56Z</time>
      </trkpt>
      <trkpt lat="43.66164" lon="3.87111">
        <ele>82</ele>
        <time>2021-03-21T09:30:59Z</time>
      </trkpt>
      <trkpt lat="43.66166" lon="3.87113">
        <ele>83</ele>
        <time>2021-03-21T09:31:01Z</time>
      </trkpt>
      <trkpt lat="43.66168" lon="3.87116">
        <ele>83</ele>
        <time>2021-03-21T09:31:03Z</time>
      </trkpt>
      <trkpt lat="43.66169" lon="3.87118">
        <ele>83</ele>
        <time>2021-03-21T09:31:10Z</time>
      </trkpt>
      <trkpt lat="43.66177" lon="3.8713">
        <ele>83</ele>
        <time>2021-03-21T09:31:24Z</time>
      </trkpt>
      <trkpt lat="43.66178" lon="3.87132">
        <ele>83</ele>
        <time>2021-03-21T09:31:25Z</time>
      </trkpt>
      <trkpt lat="43.66181" lon="3.87133">
        <ele>83</ele>
        <time>2021-03-21T09:31:27Z</time>
      </trkpt>
      <trkpt lat="43.66184" lon="3.87131">
        <ele>83</ele>
        <time>2021-03-21T09:31:29Z</time>
      </trkpt>
      <trkpt lat="43.66187" lon="3.8713">
        <ele>83</ele>
        <time>2021-03-21T09:31:30Z</time>
      </trkpt>
      <trkpt lat="43.66189" lon="3.87129">
        <ele>83</ele>
        <time>2021-03-21T09:31:31Z</time>
      </trkpt>
      <trkpt lat="43.66191" lon="3.8713">
        <ele>83</ele>
        <time>2021-03-21T09:31:32Z</time>
      </trkpt>
      <trkpt lat="43.66194" lon="3.87131">
        <ele>83</ele>
        <time>2021-03-21T09:31:33Z</time>
      </trkpt>
      <trkpt lat="43.66198" lon="3.87135">
        <ele>84</ele>
        <time>2021-03-21T09:31:34Z</time>
      </trkpt>
      <trkpt lat="43.66201" lon="3.87137">
        <ele>84</ele>
        <time>2021-03-21T09:31:35Z</time>
      </trkpt>
      <trkpt lat="43.66204" lon="3.8714">
        <ele>84</ele>
        <time>2021-03-21T09:31:36Z</time>
      </trkpt>
      <trkpt lat="43.66207" lon="3.87143">
        <ele>84</ele>
        <time>2021-03-21T09:31:37Z</time>
      </trkpt>
      <trkpt lat="43.6621" lon="3.87146">
        <ele>84</ele>
        <time>2021-03-21T09:31:38Z</time>
      </trkpt>
      <trkpt lat="43.66214" lon="3.87149">
        <ele>84</ele>
        <time>2021-03-21T09:31:39Z</time>
      </trkpt>
      <trkpt lat="43.66218" lon="3.87151">
        <ele>84</ele>
        <time>2021-03-21T09:31:40Z</time>
      </trkpt>
      <trkpt lat="43.66222" lon="3.87152">
        <ele>84</ele>
        <time>2021-03-21T09:31:41Z</time>
      </trkpt>
      <trkpt lat="43.66225" lon="3.87153">
        <ele>84</ele>
        <time>2021-03-21T09:31:42Z</time>
      </trkpt>
      <trkpt lat="43.66228" lon="3.87154">
        <ele>84</ele>
        <time>2021-03-21T09:31:43Z</time>
      </trkpt>
      <trkpt lat="43.66235" lon="3.87156">
        <ele>84</ele>
        <time>2021-03-21T09:31:44Z</time>
      </trkpt>
      <trkpt lat="43.66239" lon="3.87157">
        <ele>84</ele>
        <time>2021-03-21T09:31:46Z</time>
      </trkpt>
      <trkpt lat="43.66245" lon="3.87159">
        <ele>84</ele>
        <time>2021-03-21T09:31:47Z</time>
      </trkpt>
      <trkpt lat="43.66247" lon="3.87159">
        <ele>84</ele>
        <time>2021-03-21T09:31:49Z</time>
      </trkpt>
      <trkpt lat="43.6625" lon="3.87159">
        <ele>84</ele>
        <time>2021-03-21T09:31:50Z</time>
      </trkpt>
      <trkpt lat="43.66253" lon="3.87158">
        <ele>84</ele>
        <time>2021-03-21T09:31:52Z</time>
      </trkpt>
      <trkpt lat="43.66255" lon="3.87156">
        <ele>85</ele>
        <time>2021-03-21T09:31:54Z</time>
      </trkpt>
      <trkpt lat="43.66258" lon="3.87156">
        <ele>85</ele>
        <time>2021-03-21T09:31:56Z</time>
      </trkpt>
      <trkpt lat="43.66262" lon="3.87155">
        <ele>85</ele>
        <time>2021-03-21T09:31:58Z</time>
      </trkpt>
      <trkpt lat="43.66263" lon="3.87156">
        <ele>85</ele>
        <time>2021-03-21T09:31:59Z</time>
      </trkpt>
      <trkpt lat="43.66265" lon="3.87156">
        <ele>85</ele>
        <time>2021-03-21T09:32:00Z</time>
      </trkpt>
      <trkpt lat="43.66267" lon="3.87158">
        <ele>85</ele>
        <time>2021-03-21T09:32:01Z</time>
      </trkpt>
      <trkpt lat="43.66269" lon="3.87159">
        <ele>85</ele>
        <time>2021-03-21T09:32:02Z</time>
      </trkpt>
      <trkpt lat="43.66273" lon="3.87159">
        <ele>85</ele>
        <time>2021-03-21T09:32:04Z</time>
      </trkpt>
      <trkpt lat="43.66278" lon="3.87158">
        <ele>85</ele>
        <time>2021-03-21T09:32:05Z</time>
      </trkpt>
      <trkpt lat="43.6628" lon="3.87157">
        <ele>85</ele>
        <time>2021-03-21T09:32:07Z</time>
      </trkpt>
      <trkpt lat="43.66284" lon="3.87155">
        <ele>85</ele>
        <time>2021-03-21T09:32:08Z</time>
      </trkpt>
      <trkpt lat="43.66287" lon="3.87155">
        <ele>85</ele>
        <time>2021-03-21T09:32:10Z</time>
      </trkpt>
      <trkpt lat="43.66292" lon="3.87155">
        <ele>85</ele>
        <time>2021-03-21T09:32:11Z</time>
      </trkpt>
      <trkpt lat="43.66294" lon="3.87154">
        <ele>85</ele>
        <time>2021-03-21T09:32:13Z</time>
      </trkpt>
      <trkpt lat="43.66297" lon="3.87153">
        <ele>88</ele>
        <time>2021-03-21T09:32:14Z</time>
      </trkpt>
      <trkpt lat="43.663" lon="3.87151">
        <ele>88</ele>
        <time>2021-03-21T09:32:15Z</time>
      </trkpt>
      <trkpt lat="43.66303" lon="3.8715">
        <ele>88</ele>
        <time>2021-03-21T09:32:16Z</time>
      </trkpt>
      <trkpt lat="43.66306" lon="3.8715">
        <ele>88</ele>
        <time>2021-03-21T09:32:17Z</time>
      </trkpt>
      <trkpt lat="43.66309" lon="3.87151">
        <ele>88</ele>
        <time>2021-03-21T09:32:18Z</time>
      </trkpt>
      <trkpt lat="43.66312" lon="3.87152">
        <ele>88</ele>
        <time>2021-03-21T09:32:19Z</time>
      </trkpt>
      <trkpt lat="43.66315" lon="3.87154">
        <ele>88</ele>
        <time>2021-03-21T09:32:20Z</time>
      </trkpt>
      <trkpt lat="43.66319" lon="3.87157">
        <ele>88</ele>
        <time>2021-03-21T09:32:21Z</time>
      </trkpt>
      <trkpt lat="43.66323" lon="3.8716">
        <ele>88</ele>
        <time>2021-03-21T09:32:22Z</time>
      </trkpt>
      <trkpt lat="43.66326" lon="3.87163">
        <ele>88</ele>
        <time>2021-03-21T09:32:23Z</time>
      </trkpt>
      <trkpt lat="43.66329" lon="3.87164">
        <ele>88</ele>
        <time>2021-03-21T09:32:24Z</time>
      </trkpt>
      <trkpt lat="43.66332" lon="3.87164">
        <ele>88</ele>
        <time>2021-03-21T09:32:25Z</time>
      </trkpt>
      <trkpt lat="43.66334" lon="3.87164">
        <ele>88</ele>
        <time>2021-03-21T09:32:26Z</time>
      </trkpt>
      <trkpt lat="43.66337" lon="3.87166">
        <ele>88</ele>
        <time>2021-03-21T09:32:28Z</time>
      </trkpt>
      <trkpt lat="43.66339" lon="3.87167">
        <ele>88</ele>
        <time>2021-03-21T09:32:29Z</time>
      </trkpt>
      <trkpt lat="43.66341" lon="3.87168">
        <ele>88</ele>
        <time>2021-03-21T09:32:30Z</time>
      </trkpt>
      <trkpt lat="43.66343" lon="3.87169">
        <ele>88</ele>
        <time>2021-03-21T09:32:31Z</time>
      </trkpt>
      <trkpt lat="43.66346" lon="3.8717">
        <ele>88</ele>
        <time>2021-03-21T09:32:33Z</time>
      </trkpt>
      <trkpt lat="43.66349" lon="3.87171">
        <ele>88</ele>
        <time>2021-03-21T09:32:35Z</time>
      </trkpt>
      <trkpt lat="43.66351" lon="3.87172">
        <ele>88</ele>
        <time>2021-03-21T09:32:36Z</time>
      </trkpt>
      <trkpt lat="43.66353" lon="3.87172">
        <ele>88</ele>
        <time>2021-03-21T09:32:37Z</time>
      </trkpt>
      <trkpt lat="43.66355" lon="3.87172">
        <ele>88</ele>
        <time>2021-03-21T09:32:38Z</time>
      </trkpt>
      <trkpt lat="43.66357" lon="3.87172">
        <ele>88</ele>
        <time>2021-03-21T09:32:39Z</time>
      </trkpt>
      <trkpt lat="43.66359" lon="3.87169">
        <ele>88</ele>
        <time>2021-03-21T09:32:41Z</time>
      </trkpt>
      <trkpt lat="43.6636" lon="3.87166">
        <ele>88</ele>
        <time>2021-03-21T09:32:43Z</time>
      </trkpt>
      <trkpt lat="43.66363" lon="3.87164">
        <ele>88</ele>
        <time>2021-03-21T09:32:45Z</time>
      </trkpt>
      <trkpt lat="43.66364" lon="3.87162">
        <ele>88</ele>
        <time>2021-03-21T09:32:49Z</time>
      </trkpt>
      <trkpt lat="43.66365" lon="3.8716">
        <ele>90</ele>
        <time>2021-03-21T09:32:54Z</time>
      </trkpt>
      <trkpt lat="43.66367" lon="3.87159">
        <ele>90</ele>
        <time>2021-03-21T09:32:56Z</time>
      </trkpt>
      <trkpt lat="43.66369" lon="3.87157">
        <ele>90</ele>
        <time>2021-03-21T09:33:05Z</time>
      </trkpt>
      <trkpt lat="43.6638" lon="3.87134">
        <ele>96</ele>
        <time>2021-03-21T09:33:56Z</time>
      </trkpt>
      <trkpt lat="43.66383" lon="3.87134">
        <ele>96</ele>
        <time>2021-03-21T09:33:58Z</time>
      </trkpt>
      <trkpt lat="43.66386" lon="3.87133">
        <ele>96</ele>
        <time>2021-03-21T09:34:00Z</time>
      </trkpt>
      <trkpt lat="43.66389" lon="3.87129">
        <ele>96</ele>
        <time>2021-03-21T09:34:02Z</time>
      </trkpt>
      <trkpt lat="43.66391" lon="3.87127">
        <ele>96</ele>
        <time>2021-03-21T09:34:04Z</time>
      </trkpt>
      <trkpt lat="43.66393" lon="3.87125">
        <ele>96</ele>
        <time>2021-03-21T09:34:07Z</time>
      </trkpt>
      <trkpt lat="43.66394" lon="3.87123">
        <ele>96</ele>
        <time>2021-03-21T09:34:11Z</time>
      </trkpt>
      <trkpt lat="43.66397" lon="3.87123">
        <ele>98</ele>
        <time>2021-03-21T09:34:15Z</time>
      </trkpt>
      <trkpt lat="43.66404" lon="3.8712">
        <ele>98</ele>
        <time>2021-03-21T09:34:30Z</time>
      </trkpt>
      <trkpt lat="43.66407" lon="3.87118">
        <ele>98</ele>
        <time>2021-03-21T09:34:31Z</time>
      </trkpt>
      <trkpt lat="43.66409" lon="3.87115">
        <ele>98</ele>
        <time>2021-03-21T09:34:33Z</time>
      </trkpt>
      <trkpt lat="43.66411" lon="3.87112">
        <ele>98</ele>
        <time>2021-03-21T09:34:35Z</time>
      </trkpt>
      <trkpt lat="43.66412" lon="3.87108">
        <ele>98</ele>
        <time>2021-03-21T09:34:37Z</time>
      </trkpt>
      <trkpt lat="43.66414" lon="3.87106">
        <ele>98</ele>
        <time>2021-03-21T09:34:39Z</time>
      </trkpt>
      <trkpt lat="43.66417" lon="3.87104">
        <ele>98</ele>
        <time>2021-03-21T09:34:40Z</time>
      </trkpt>
      <trkpt lat="43.6642" lon="3.87103">
        <ele>98</ele>
        <time>2021-03-21T09:34:43Z</time>
      </trkpt>
      <trkpt lat="43.66423" lon="3.87104">
        <ele>98</ele>
        <time>2021-03-21T09:34:45Z</time>
      </trkpt>
      <trkpt lat="43.66427" lon="3.87103">
        <ele>98</ele>
        <time>2021-03-21T09:34:46Z</time>
      </trkpt>
      <trkpt lat="43.66429" lon="3.87102">
        <ele>98</ele>
        <time>2021-03-21T09:34:48Z</time>
      </trkpt>
      <trkpt lat="43.66432" lon="3.87101">
        <ele>99</ele>
        <time>2021-03-21T09:34:49Z</time>
      </trkpt>
      <trkpt lat="43.66435" lon="3.871">
        <ele>99</ele>
        <time>2021-03-21T09:34:52Z</time>
      </trkpt>
      <trkpt lat="43.66439" lon="3.871">
        <ele>99</ele>
        <time>2021-03-21T09:34:54Z</time>
      </trkpt>
      <trkpt lat="43.66442" lon="3.87101">
        <ele>99</ele>
        <time>2021-03-21T09:34:55Z</time>
      </trkpt>
      <trkpt lat="43.66446" lon="3.87102">
        <ele>100</ele>
        <time>2021-03-21T09:34:58Z</time>
      </trkpt>
      <trkpt lat="43.66447" lon="3.87102">
        <ele>100</ele>
        <time>2021-03-21T09:34:59Z</time>
      </trkpt>
      <trkpt lat="43.66449" lon="3.87103">
        <ele>100</ele>
        <time>2021-03-21T09:35:00Z</time>
      </trkpt>
      <trkpt lat="43.66451" lon="3.87103">
        <ele>100</ele>
        <time>2021-03-21T09:35:01Z</time>
      </trkpt>
      <trkpt lat="43.66453" lon="3.87103">
        <ele>100</ele>
        <time>2021-03-21T09:35:02Z</time>
      </trkpt>
      <trkpt lat="43.66455" lon="3.87103">
        <ele>100</ele>
        <time>2021-03-21T09:35:03Z</time>
      </trkpt>
      <trkpt lat="43.66457" lon="3.87104">
        <ele>100</ele>
        <time>2021-03-21T09:35:04Z</time>
      </trkpt>
      <trkpt lat="43.66459" lon="3.87105">
        <ele>100</ele>
        <time>2021-03-21T09:35:05Z</time>
      </trkpt>
      <trkpt lat="43.6646" lon="3.87106">
        <ele>100</ele>
        <time>2021-03-21T09:35:06Z</time>
      </trkpt>
      <trkpt lat="43.66462" lon="3.87107">
        <ele>100</ele>
        <time>2021-03-21T09:35:07Z</time>
      </trkpt>
      <trkpt lat="43.66464" lon="3.87108">
        <ele>100</ele>
        <time>2021-03-21T09:35:08Z</time>
      </trkpt>
      <trkpt lat="43.66465" lon="3.8711">
        <ele>101</ele>
        <time>2021-03-21T09:35:09Z</time>
      </trkpt>
      <trkpt lat="43.66467" lon="3.87111">
        <ele>101</ele>
        <time>2021-03-21T09:35:10Z</time>
      </trkpt>
      <trkpt lat="43.66469" lon="3.87113">
        <ele>101</ele>
        <time>2021-03-21T09:35:11Z</time>
      </trkpt>
      <trkpt lat="43.6647" lon="3.87114">
        <ele>101</ele>
        <time>2021-03-21T09:35:12Z</time>
      </trkpt>
      <trkpt lat="43.66474" lon="3.87117">
        <ele>101</ele>
        <time>2021-03-21T09:35:14Z</time>
      </trkpt>
      <trkpt lat="43.66476" lon="3.87119">
        <ele>101</ele>
        <time>2021-03-21T09:35:15Z</time>
      </trkpt>
      <trkpt lat="43.66479" lon="3.87121">
        <ele>101</ele>
        <time>2021-03-21T09:35:16Z</time>
      </trkpt>
      <trkpt lat="43.66481" lon="3.87122">
        <ele>101</ele>
        <time>2021-03-21T09:35:17Z</time>
      </trkpt>
      <trkpt lat="43.66484" lon="3.87122">
        <ele>101</ele>
        <time>2021-03-21T09:35:18Z</time>
      </trkpt>
      <trkpt lat="43.66487" lon="3.87122">
        <ele>101</ele>
        <time>2021-03-21T09:35:19Z</time>
      </trkpt>
      <trkpt lat="43.6649" lon="3.87122">
        <ele>101</ele>
        <time>2021-03-21T09:35:20Z</time>
      </trkpt>
      <trkpt lat="43.66492" lon="3.87122">
        <ele>101</ele>
        <time>2021-03-21T09:35:21Z</time>
      </trkpt>
      <trkpt lat="43.66494" lon="3.87121">
        <ele>101</ele>
        <time>2021-03-21T09:35:22Z</time>
      </trkpt>
      <trkpt lat="43.66496" lon="3.8712">
        <ele>101</ele>
        <time>2021-03-21T09:35:23Z</time>
      </trkpt>
      <trkpt lat="43.66498" lon="3.87118">
        <ele>101</ele>
        <time>2021-03-21T09:35:25Z</time>
      </trkpt>
      <trkpt lat="43.66499" lon="3.87114">
        <ele>101</ele>
        <time>2021-03-21T09:35:27Z</time>
      </trkpt>
      <trkpt lat="43.66501" lon="3.87111">
        <ele>104</ele>
        <time>2021-03-21T09:35:29Z</time>
      </trkpt>
      <trkpt lat="43.66503" lon="3.87111">
        <ele>104</ele>
        <time>2021-03-21T09:35:31Z</time>
      </trkpt>
      <trkpt lat="43.66504" lon="3.87109">
        <ele>104</ele>
        <time>2021-03-21T09:35:32Z</time>
      </trkpt>
      <trkpt lat="43.66506" lon="3.87105">
        <ele>104</ele>
        <time>2021-03-21T09:35:34Z</time>
      </trkpt>
      <trkpt lat="43.66507" lon="3.87102">
        <ele>104</ele>
        <time>2021-03-21T09:35:36Z</time>
      </trkpt>
      <trkpt lat="43.66507" lon="3.87098">
        <ele>104</ele>
        <time>2021-03-21T09:35:38Z</time>
      </trkpt>
      <trkpt lat="43.66508" lon="3.87095">
        <ele>105</ele>
        <time>2021-03-21T09:35:39Z</time>
      </trkpt>
      <trkpt lat="43.66509" lon="3.87091">
        <ele>105</ele>
        <time>2021-03-21T09:35:40Z</time>
      </trkpt>
      <trkpt lat="43.6651" lon="3.87088">
        <ele>105</ele>
        <time>2021-03-21T09:35:41Z</time>
      </trkpt>
      <trkpt lat="43.66511" lon="3.87084">
        <ele>105</ele>
        <time>2021-03-21T09:35:42Z</time>
      </trkpt>
      <trkpt lat="43.66513" lon="3.8708">
        <ele>105</ele>
        <time>2021-03-21T09:35:43Z</time>
      </trkpt>
      <trkpt lat="43.66516" lon="3.87076">
        <ele>105</ele>
        <time>2021-03-21T09:35:44Z</time>
      </trkpt>
      <trkpt lat="43.66518" lon="3.87074">
        <ele>105</ele>
        <time>2021-03-21T09:35:45Z</time>
      </trkpt>
      <trkpt lat="43.6652" lon="3.87072">
        <ele>105</ele>
        <time>2021-03-21T09:35:46Z</time>
      </trkpt>
      <trkpt lat="43.66522" lon="3.87071">
        <ele>105</ele>
        <time>2021-03-21T09:35:47Z</time>
      </trkpt>
      <trkpt lat="43.66524" lon="3.87071">
        <ele>105</ele>
        <time>2021-03-21T09:35:48Z</time>
      </trkpt>
      <trkpt lat="43.66527" lon="3.87071">
        <ele>105</ele>
        <time>2021-03-21T09:35:49Z</time>
      </trkpt>
      <trkpt lat="43.6653" lon="3.87071">
        <ele>105</ele>
        <time>2021-03-21T09:35:50Z</time>
      </trkpt>
      <trkpt lat="43.66533" lon="3.87071">
        <ele>105</ele>
        <time>2021-03-21T09:35:51Z</time>
      </trkpt>
      <trkpt lat="43.66537" lon="3.87071">
        <ele>105</ele>
        <time>2021-03-21T09:35:52Z</time>
      </trkpt>
      <trkpt lat="43.66539" lon="3.87071">
        <ele>105</ele>
        <time>2021-03-21T09:35:53Z</time>
      </trkpt>
      <trkpt lat="43.66543" lon="3.8707">
        <ele>105</ele>
        <time>2021-03-21T09:35:54Z</time>
      </trkpt>
      <trkpt lat="43.66546" lon="3.87068">
        <ele>105</ele>
        <time>2021-03-21T09:35:55Z</time>
      </trkpt>
      <trkpt lat="43.66549" lon="3.87066">
        <ele>105</ele>
        <time>2021-03-21T09:35:56Z</time>
      </trkpt>
      <trkpt lat="43.66551" lon="3.87064">
        <ele>105</ele>
        <time>2021-03-21T09:35:57Z</time>
      </trkpt>
      <trkpt lat="43.66553" lon="3.87062">
        <ele>104</ele>
        <time>2021-03-21T09:35:58Z</time>
      </trkpt>
      <trkpt lat="43.66554" lon="3.87059">
        <ele>104</ele>
        <time>2021-03-21T09:35:59Z</time>
      </trkpt>
      <trkpt lat="43.66555" lon="3.87056">
        <ele>104</ele>
        <time>2021-03-21T09:36:00Z</time>
      </trkpt>
      <trkpt lat="43.66556" lon="3.87054">
        <ele>104</ele>
        <time>2021-03-21T09:36:01Z</time>
      </trkpt>
      <trkpt lat="43.66557" lon="3.87051">
        <ele>104</ele>
        <time>2021-03-21T09:36:02Z</time>
      </trkpt>
      <trkpt lat="43.66558" lon="3.87048">
        <ele>104</ele>
        <time>2021-03-21T09:36:03Z</time>
      </trkpt>
      <trkpt lat="43.66559" lon="3.87046">
        <ele>104</ele>
        <time>2021-03-21T09:36:04Z</time>
      </trkpt>
      <trkpt lat="43.6656" lon="3.87044">
        <ele>104</ele>
        <time>2021-03-21T09:36:05Z</time>
      </trkpt>
      <trkpt lat="43.66563" lon="3.87044">
        <ele>104</ele>
        <time>2021-03-21T09:36:07Z</time>
      </trkpt>
      <trkpt lat="43.66566" lon="3.87043">
        <ele>104</ele>
        <time>2021-03-21T09:36:09Z</time>
      </trkpt>
      <trkpt lat="43.66568" lon="3.8704">
        <ele>104</ele>
        <time>2021-03-21T09:36:11Z</time>
      </trkpt>
      <trkpt lat="43.66569" lon="3.87036">
        <ele>104</ele>
        <time>2021-03-21T09:36:13Z</time>
      </trkpt>
      <trkpt lat="43.66571" lon="3.87032">
        <ele>104</ele>
        <time>2021-03-21T09:36:15Z</time>
      </trkpt>
      <trkpt lat="43.66573" lon="3.8703">
        <ele>104</ele>
        <time>2021-03-21T09:36:17Z</time>
      </trkpt>
      <trkpt lat="43.66575" lon="3.87028">
        <ele>104</ele>
        <time>2021-03-21T09:36:18Z</time>
      </trkpt>
      <trkpt lat="43.66577" lon="3.87027">
        <ele>101</ele>
        <time>2021-03-21T09:36:19Z</time>
      </trkpt>
      <trkpt lat="43.6658" lon="3.87023">
        <ele>101</ele>
        <time>2021-03-21T09:36:20Z</time>
      </trkpt>
      <trkpt lat="43.66582" lon="3.87021">
        <ele>101</ele>
        <time>2021-03-21T09:36:22Z</time>
      </trkpt>
      <trkpt lat="43.66585" lon="3.87019">
        <ele>101</ele>
        <time>2021-03-21T09:36:23Z</time>
      </trkpt>
      <trkpt lat="43.66587" lon="3.87016">
        <ele>101</ele>
        <time>2021-03-21T09:36:24Z</time>
      </trkpt>
      <trkpt lat="43.66588" lon="3.87014">
        <ele>101</ele>
        <time>2021-03-21T09:36:25Z</time>
      </trkpt>
      <trkpt lat="43.66588" lon="3.87008">
        <ele>101</ele>
        <time>2021-03-21T09:36:26Z</time>
      </trkpt>
      <trkpt lat="43.66588" lon="3.87005">
        <ele>101</ele>
        <time>2021-03-21T09:36:28Z</time>
      </trkpt>
      <trkpt lat="43.66588" lon="3.87002">
        <ele>101</ele>
        <time>2021-03-21T09:36:34Z</time>
      </trkpt>
      <trkpt lat="43.66589" lon="3.86998">
        <ele>101</ele>
        <time>2021-03-21T09:36:37Z</time>
      </trkpt>
      <trkpt lat="43.6659" lon="3.86996">
        <ele>95</ele>
        <time>2021-03-21T09:36:39Z</time>
      </trkpt>
      <trkpt lat="43.66592" lon="3.86992">
        <ele>95</ele>
        <time>2021-03-21T09:36:41Z</time>
      </trkpt>
      <trkpt lat="43.66593" lon="3.86989">
        <ele>95</ele>
        <time>2021-03-21T09:36:42Z</time>
      </trkpt>
      <trkpt lat="43.66594" lon="3.86985">
        <ele>95</ele>
        <time>2021-03-21T09:36:43Z</time>
      </trkpt>
      <trkpt lat="43.66595" lon="3.86982">
        <ele>95</ele>
        <time>2021-03-21T09:36:44Z</time>
      </trkpt>
      <trkpt lat="43.66596" lon="3.86978">
        <ele>95</ele>
        <time>2021-03-21T09:36:45Z</time>
      </trkpt>
      <trkpt lat="43.66597" lon="3.86975">
        <ele>95</ele>
        <time>2021-03-21T09:36:46Z</time>
      </trkpt>
      <trkpt lat="43.66597" lon="3.86972">
        <ele>95</ele>
        <time>2021-03-21T09:36:47Z</time>
      </trkpt>
      <trkpt lat="43.66598" lon="3.86968">
        <ele>95</ele>
        <time>2021-03-21T09:36:48Z</time>
      </trkpt>
      <trkpt lat="43.66597" lon="3.86964">
        <ele>92</ele>
        <time>2021-03-21T09:36:49Z</time>
      </trkpt>
      <trkpt lat="43.66595" lon="3.86961">
        <ele>92</ele>
        <time>2021-03-21T09:36:50Z</time>
      </trkpt>
      <trkpt lat="43.66593" lon="3.86956">
        <ele>92</ele>
        <time>2021-03-21T09:36:51Z</time>
      </trkpt>
      <trkpt lat="43.66591" lon="3.86951">
        <ele>92</ele>
        <time>2021-03-21T09:36:52Z</time>
      </trkpt>
      <trkpt lat="43.6659" lon="3.86944">
        <ele>92</ele>
        <time>2021-03-21T09:36:53Z</time>
      </trkpt>
      <trkpt lat="43.66591" lon="3.86939">
        <ele>92</ele>
        <time>2021-03-21T09:36:54Z</time>
      </trkpt>
      <trkpt lat="43.6659" lon="3.86932">
        <ele>92</ele>
        <time>2021-03-21T09:36:55Z</time>
      </trkpt>
      <trkpt lat="43.66589" lon="3.86926">
        <ele>92</ele>
        <time>2021-03-21T09:36:56Z</time>
      </trkpt>
      <trkpt lat="43.66588" lon="3.86921">
        <ele>92</ele>
        <time>2021-03-21T09:36:57Z</time>
      </trkpt>
      <trkpt lat="43.66587" lon="3.86919">
        <ele>87</ele>
        <time>2021-03-21T09:37:10Z</time>
      </trkpt>
      <trkpt lat="43.6658" lon="3.86908">
        <ele>81</ele>
        <time>2021-03-21T09:37:28Z</time>
      </trkpt>
      <trkpt lat="43.66579" lon="3.86905">
        <ele>81</ele>
        <time>2021-03-21T09:37:29Z</time>
      </trkpt>
      <trkpt lat="43.66577" lon="3.86902">
        <ele>81</ele>
        <time>2021-03-21T09:37:30Z</time>
      </trkpt>
      <trkpt lat="43.66575" lon="3.86899">
        <ele>81</ele>
        <time>2021-03-21T09:37:31Z</time>
      </trkpt>
      <trkpt lat="43.66573" lon="3.86897">
        <ele>81</ele>
        <time>2021-03-21T09:37:32Z</time>
      </trkpt>
      <trkpt lat="43.66571" lon="3.86894">
        <ele>81</ele>
        <time>2021-03-21T09:37:33Z</time>
      </trkpt>
      <trkpt lat="43.66569" lon="3.86891">
        <ele>81</ele>
        <time>2021-03-21T09:37:34Z</time>
      </trkpt>
      <trkpt lat="43.66567" lon="3.86888">
        <ele>81</ele>
        <time>2021-03-21T09:37:35Z</time>
      </trkpt>
      <trkpt lat="43.66565" lon="3.86885">
        <ele>81</ele>
        <time>2021-03-21T09:37:36Z</time>
      </trkpt>
      <trkpt lat="43.66563" lon="3.86883">
        <ele>81</ele>
        <time>2021-03-21T09:37:37Z</time>
      </trkpt>
      <trkpt lat="43.66561" lon="3.8688">
        <ele>81</ele>
        <time>2021-03-21T09:37:38Z</time>
      </trkpt>
      <trkpt lat="43.66558" lon="3.86877">
        <ele>81</ele>
        <time>2021-03-21T09:37:39Z</time>
      </trkpt>
      <trkpt lat="43.66556" lon="3.86874">
        <ele>81</ele>
        <time>2021-03-21T09:37:40Z</time>
      </trkpt>
      <trkpt lat="43.66554" lon="3.86872">
        <ele>81</ele>
        <time>2021-03-21T09:37:41Z</time>
      </trkpt>
      <trkpt lat="43.66552" lon="3.86869">
        <ele>81</ele>
        <time>2021-03-21T09:37:42Z</time>
      </trkpt>
      <trkpt lat="43.6655" lon="3.86866">
        <ele>81</ele>
        <time>2021-03-21T09:37:43Z</time>
      </trkpt>
      <trkpt lat="43.66547" lon="3.86863">
        <ele>81</ele>
        <time>2021-03-21T09:37:44Z</time>
      </trkpt>
      <trkpt lat="43.66545" lon="3.8686">
        <ele>81</ele>
        <time>2021-03-21T09:37:45Z</time>
      </trkpt>
      <trkpt lat="43.66542" lon="3.86858">
        <ele>81</ele>
        <time>2021-03-21T09:37:46Z</time>
      </trkpt>
      <trkpt lat="43.6654" lon="3.86855">
        <ele>81</ele>
        <time>2021-03-21T09:37:47Z</time>
      </trkpt>
      <trkpt lat="43.66534" lon="3.86851">
        <ele>81</ele>
        <time>2021-03-21T09:37:48Z</time>
      </trkpt>
      <trkpt lat="43.66531" lon="3.86849">
        <ele>81</ele>
        <time>2021-03-21T09:37:49Z</time>
      </trkpt>
      <trkpt lat="43.66528" lon="3.86848">
        <ele>81</ele>
        <time>2021-03-21T09:37:50Z</time>
      </trkpt>
      <trkpt lat="43.66522" lon="3.86846">
        <ele>81</ele>
        <time>2021-03-21T09:37:52Z</time>
      </trkpt>
      <trkpt lat="43.6652" lon="3.86845">
        <ele>81</ele>
        <time>2021-03-21T09:37:53Z</time>
      </trkpt>
      <trkpt lat="43.66517" lon="3.86845">
        <ele>81</ele>
        <time>2021-03-21T09:37:54Z</time>
      </trkpt>
      <trkpt lat="43.66515" lon="3.86844">
        <ele>81</ele>
        <time>2021-03-21T09:37:55Z</time>
      </trkpt>
      <trkpt lat="43.66513" lon="3.86843">
        <ele>81</ele>
        <time>2021-03-21T09:37:56Z</time>
      </trkpt>
      <trkpt lat="43.6651" lon="3.86843">
        <ele>80</ele>
        <time>2021-03-21T09:37:58Z</time>
      </trkpt>
      <trkpt lat="43.66508" lon="3.86843">
        <ele>80</ele>
        <time>2021-03-21T09:37:59Z</time>
      </trkpt>
      <trkpt lat="43.66506" lon="3.86842">
        <ele>80</ele>
        <time>2021-03-21T09:38:00Z</time>
      </trkpt>
      <trkpt lat="43.66504" lon="3.86842">
        <ele>80</ele>
        <time>2021-03-21T09:38:01Z</time>
      </trkpt>
      <trkpt lat="43.66502" lon="3.86842">
        <ele>80</ele>
        <time>2021-03-21T09:38:02Z</time>
      </trkpt>
      <trkpt lat="43.665" lon="3.86841">
        <ele>80</ele>
        <time>2021-03-21T09:38:03Z</time>
      </trkpt>
      <trkpt lat="43.66498" lon="3.86841">
        <ele>80</ele>
        <time>2021-03-21T09:38:04Z</time>
      </trkpt>
      <trkpt lat="43.66497" lon="3.8684">
        <ele>80</ele>
        <time>2021-03-21T09:38:05Z</time>
      </trkpt>
      <trkpt lat="43.66493" lon="3.86839">
        <ele>80</ele>
        <time>2021-03-21T09:38:07Z</time>
      </trkpt>
      <trkpt lat="43.66491" lon="3.86839">
        <ele>81</ele>
        <time>2021-03-21T09:38:08Z</time>
      </trkpt>
      <trkpt lat="43.66489" lon="3.86838">
        <ele>81</ele>
        <time>2021-03-21T09:38:09Z</time>
      </trkpt>
      <trkpt lat="43.66487" lon="3.86837">
        <ele>81</ele>
        <time>2021-03-21T09:38:10Z</time>
      </trkpt>
      <trkpt lat="43.66485" lon="3.86836">
        <ele>81</ele>
        <time>2021-03-21T09:38:11Z</time>
      </trkpt>
      <trkpt lat="43.66483" lon="3.86833">
        <ele>81</ele>
        <time>2021-03-21T09:38:12Z</time>
      </trkpt>
      <trkpt lat="43.6648" lon="3.86831">
        <ele>81</ele>
        <time>2021-03-21T09:38:13Z</time>
      </trkpt>
      <trkpt lat="43.66476" lon="3.86829">
        <ele>81</ele>
        <time>2021-03-21T09:38:14Z</time>
      </trkpt>
      <trkpt lat="43.66472" lon="3.86827">
        <ele>81</ele>
        <time>2021-03-21T09:38:15Z</time>
      </trkpt>
      <trkpt lat="43.66468" lon="3.86827">
        <ele>81</ele>
        <time>2021-03-21T09:38:16Z</time>
      </trkpt>
      <trkpt lat="43.66464" lon="3.86827">
        <ele>81</ele>
        <time>2021-03-21T09:38:17Z</time>
      </trkpt>
      <trkpt lat="43.66461" lon="3.86826">
        <ele>80</ele>
        <time>2021-03-21T09:38:18Z</time>
      </trkpt>
      <trkpt lat="43.66458" lon="3.86824">
        <ele>80</ele>
        <time>2021-03-21T09:38:19Z</time>
      </trkpt>
      <trkpt lat="43.66456" lon="3.86823">
        <ele>80</ele>
        <time>2021-03-21T09:38:20Z</time>
      </trkpt>
      <trkpt lat="43.66453" lon="3.86822">
        <ele>80</ele>
        <time>2021-03-21T09:38:21Z</time>
      </trkpt>
      <trkpt lat="43.6645" lon="3.86821">
        <ele>80</ele>
        <time>2021-03-21T09:38:22Z</time>
      </trkpt>
      <trkpt lat="43.66448" lon="3.8682">
        <ele>80</ele>
        <time>2021-03-21T09:38:23Z</time>
      </trkpt>
      <trkpt lat="43.66444" lon="3.86818">
        <ele>80</ele>
        <time>2021-03-21T09:38:24Z</time>
      </trkpt>
      <trkpt lat="43.6644" lon="3.86815">
        <ele>80</ele>
        <time>2021-03-21T09:38:25Z</time>
      </trkpt>
      <trkpt lat="43.66435" lon="3.86811">
        <ele>80</ele>
        <time>2021-03-21T09:38:26Z</time>
      </trkpt>
      <trkpt lat="43.66429" lon="3.86807">
        <ele>80</ele>
        <time>2021-03-21T09:38:27Z</time>
      </trkpt>
      <trkpt lat="43.66424" lon="3.86803">
        <ele>79</ele>
        <time>2021-03-21T09:38:28Z</time>
      </trkpt>
      <trkpt lat="43.66419" lon="3.86799">
        <ele>79</ele>
        <time>2021-03-21T09:38:29Z</time>
      </trkpt>
      <trkpt lat="43.66414" lon="3.86793">
        <ele>79</ele>
        <time>2021-03-21T09:38:30Z</time>
      </trkpt>
      <trkpt lat="43.66408" lon="3.86787">
        <ele>79</ele>
        <time>2021-03-21T09:38:31Z</time>
      </trkpt>
      <trkpt lat="43.66403" lon="3.86783">
        <ele>79</ele>
        <time>2021-03-21T09:38:32Z</time>
      </trkpt>
      <trkpt lat="43.66398" lon="3.86779">
        <ele>79</ele>
        <time>2021-03-21T09:38:33Z</time>
      </trkpt>
      <trkpt lat="43.66395" lon="3.86777">
        <ele>79</ele>
        <time>2021-03-21T09:38:34Z</time>
      </trkpt>
      <trkpt lat="43.66392" lon="3.86777">
        <ele>79</ele>
        <time>2021-03-21T09:38:35Z</time>
      </trkpt>
      <trkpt lat="43.66391" lon="3.86777">
        <ele>79</ele>
        <time>2021-03-21T09:38:36Z</time>
      </trkpt>
      <trkpt lat="43.66387" lon="3.86777">
        <ele>79</ele>
        <time>2021-03-21T09:38:38Z</time>
      </trkpt>
      <trkpt lat="43.66386" lon="3.86772">
        <ele>79</ele>
        <time>2021-03-21T09:38:40Z</time>
      </trkpt>
      <trkpt lat="43.66388" lon="3.86769">
        <ele>79</ele>
        <time>2021-03-21T09:38:42Z</time>
      </trkpt>
      <trkpt lat="43.6639" lon="3.86771">
        <ele>79</ele>
        <time>2021-03-21T09:38:43Z</time>
      </trkpt>
      <trkpt lat="43.66391" lon="3.86772">
        <ele>79</ele>
        <time>2021-03-21T09:38:44Z</time>
      </trkpt>
      <trkpt lat="43.66393" lon="3.86773">
        <ele>79</ele>
        <time>2021-03-21T09:38:45Z</time>
      </trkpt>
      <trkpt lat="43.66395" lon="3.86771">
        <ele>79</ele>
        <time>2021-03-21T09:38:46Z</time>
      </trkpt>
      <trkpt lat="43.66397" lon="3.8677">
        <ele>79</ele>
        <time>2021-03-21T09:38:47Z</time>
      </trkpt>
      <trkpt lat="43.66399" lon="3.86769">
        <ele>74</ele>
        <time>2021-03-21T09:38:48Z</time>
      </trkpt>
      <trkpt lat="43.66402" lon="3.86768">
        <ele>74</ele>
        <time>2021-03-21T09:38:49Z</time>
      </trkpt>
      <trkpt lat="43.66405" lon="3.86766">
        <ele>74</ele>
        <time>2021-03-21T09:38:50Z</time>
      </trkpt>
      <trkpt lat="43.66408" lon="3.86765">
        <ele>74</ele>
        <time>2021-03-21T09:38:51Z</time>
      </trkpt>
      <trkpt lat="43.66411" lon="3.86763">
        <ele>74</ele>
        <time>2021-03-21T09:38:52Z</time>
      </trkpt>
      <trkpt lat="43.66413" lon="3.8676">
        <ele>74</ele>
        <time>2021-03-21T09:38:53Z</time>
      </trkpt>
      <trkpt lat="43.66416" lon="3.86756">
        <ele>74</ele>
        <time>2021-03-21T09:38:54Z</time>
      </trkpt>
      <trkpt lat="43.66418" lon="3.86753">
        <ele>74</ele>
        <time>2021-03-21T09:38:55Z</time>
      </trkpt>
      <trkpt lat="43.66422" lon="3.8675">
        <ele>74</ele>
        <time>2021-03-21T09:38:56Z</time>
      </trkpt>
      <trkpt lat="43.66426" lon="3.86747">
        <ele>74</ele>
        <time>2021-03-21T09:38:57Z</time>
      </trkpt>
      <trkpt lat="43.66431" lon="3.86744">
        <ele>73</ele>
        <time>2021-03-21T09:38:58Z</time>
      </trkpt>
      <trkpt lat="43.66435" lon="3.86741">
        <ele>73</ele>
        <time>2021-03-21T09:38:59Z</time>
      </trkpt>
      <trkpt lat="43.6644" lon="3.86738">
        <ele>73</ele>
        <time>2021-03-21T09:39:00Z</time>
      </trkpt>
      <trkpt lat="43.66446" lon="3.86735">
        <ele>73</ele>
        <time>2021-03-21T09:39:01Z</time>
      </trkpt>
      <trkpt lat="43.66451" lon="3.86733">
        <ele>73</ele>
        <time>2021-03-21T09:39:02Z</time>
      </trkpt>
      <trkpt lat="43.66456" lon="3.8673">
        <ele>73</ele>
        <time>2021-03-21T09:39:03Z</time>
      </trkpt>
      <trkpt lat="43.6646" lon="3.86728">
        <ele>73</ele>
        <time>2021-03-21T09:39:04Z</time>
      </trkpt>
      <trkpt lat="43.66465" lon="3.86727">
        <ele>73</ele>
        <time>2021-03-21T09:39:05Z</time>
      </trkpt>
      <trkpt lat="43.66469" lon="3.86726">
        <ele>73</ele>
        <time>2021-03-21T09:39:06Z</time>
      </trkpt>
      <trkpt lat="43.66472" lon="3.86725">
        <ele>73</ele>
        <time>2021-03-21T09:39:07Z</time>
      </trkpt>
      <trkpt lat="43.66476" lon="3.86723">
        <ele>70</ele>
        <time>2021-03-21T09:39:08Z</time>
      </trkpt>
      <trkpt lat="43.6648" lon="3.8672">
        <ele>70</ele>
        <time>2021-03-21T09:39:09Z</time>
      </trkpt>
      <trkpt lat="43.66484" lon="3.86718">
        <ele>70</ele>
        <time>2021-03-21T09:39:10Z</time>
      </trkpt>
      <trkpt lat="43.66487" lon="3.86717">
        <ele>70</ele>
        <time>2021-03-21T09:39:11Z</time>
      </trkpt>
      <trkpt lat="43.66491" lon="3.86716">
        <ele>70</ele>
        <time>2021-03-21T09:39:12Z</time>
      </trkpt>
      <trkpt lat="43.66494" lon="3.86715">
        <ele>70</ele>
        <time>2021-03-21T09:39:13Z</time>
      </trkpt>
      <trkpt lat="43.66496" lon="3.86714">
        <ele>70</ele>
        <time>2021-03-21T09:39:14Z</time>
      </trkpt>
      <trkpt lat="43.66499" lon="3.86712">
        <ele>70</ele>
        <time>2021-03-21T09:39:15Z</time>
      </trkpt>
      <trkpt lat="43.66502" lon="3.8671">
        <ele>70</ele>
        <time>2021-03-21T09:39:16Z</time>
      </trkpt>
      <trkpt lat="43.66504" lon="3.86709">
        <ele>69</ele>
        <time>2021-03-21T09:39:17Z</time>
      </trkpt>
      <trkpt lat="43.66506" lon="3.86708">
        <ele>69</ele>
        <time>2021-03-21T09:39:18Z</time>
      </trkpt>
      <trkpt lat="43.66508" lon="3.86705">
        <ele>69</ele>
        <time>2021-03-21T09:39:19Z</time>
      </trkpt>
      <trkpt lat="43.6651" lon="3.86702">
        <ele>69</ele>
        <time>2021-03-21T09:39:20Z</time>
      </trkpt>
      <trkpt lat="43.66512" lon="3.86703">
        <ele>69</ele>
        <time>2021-03-21T09:39:21Z</time>
      </trkpt>
      <trkpt lat="43.66515" lon="3.86706">
        <ele>69</ele>
        <time>2021-03-21T09:39:22Z</time>
      </trkpt>
      <trkpt lat="43.66517" lon="3.86707">
        <ele>69</ele>
        <time>2021-03-21T09:39:23Z</time>
      </trkpt>
      <trkpt lat="43.66521" lon="3.86708">
        <ele>69</ele>
        <time>2021-03-21T09:39:24Z</time>
      </trkpt>
      <trkpt lat="43.66524" lon="3.86711">
        <ele>69</ele>
        <time>2021-03-21T09:39:25Z</time>
      </trkpt>
      <trkpt lat="43.66526" lon="3.86715">
        <ele>69</ele>
        <time>2021-03-21T09:39:26Z</time>
      </trkpt>
      <trkpt lat="43.66527" lon="3.86719">
        <ele>69</ele>
        <time>2021-03-21T09:39:27Z</time>
      </trkpt>
      <trkpt lat="43.66528" lon="3.86723">
        <ele>69</ele>
        <time>2021-03-21T09:39:28Z</time>
      </trkpt>
      <trkpt lat="43.66529" lon="3.86727">
        <ele>69</ele>
        <time>2021-03-21T09:39:29Z</time>
      </trkpt>
      <trkpt lat="43.6653" lon="3.8673">
        <ele>69</ele>
        <time>2021-03-21T09:39:30Z</time>
      </trkpt>
      <trkpt lat="43.66531" lon="3.86733">
        <ele>69</ele>
        <time>2021-03-21T09:39:31Z</time>
      </trkpt>
      <trkpt lat="43.66534" lon="3.86735">
        <ele>69</ele>
        <time>2021-03-21T09:39:32Z</time>
      </trkpt>
      <trkpt lat="43.66536" lon="3.86738">
        <ele>69</ele>
        <time>2021-03-21T09:39:33Z</time>
      </trkpt>
      <trkpt lat="43.66538" lon="3.86742">
        <ele>69</ele>
        <time>2021-03-21T09:39:34Z</time>
      </trkpt>
      <trkpt lat="43.6654" lon="3.86745">
        <ele>69</ele>
        <time>2021-03-21T09:39:35Z</time>
      </trkpt>
      <trkpt lat="43.66542" lon="3.86749">
        <ele>69</ele>
        <time>2021-03-21T09:39:36Z</time>
      </trkpt>
      <trkpt lat="43.66544" lon="3.86753">
        <ele>69</ele>
        <time>2021-03-21T09:39:37Z</time>
      </trkpt>
      <trkpt lat="43.66546" lon="3.86756">
        <ele>69</ele>
        <time>2021-03-21T09:39:38Z</time>
      </trkpt>
      <trkpt lat="43.66547" lon="3.86761">
        <ele>69</ele>
        <time>2021-03-21T09:39:39Z</time>
      </trkpt>
      <trkpt lat="43.66549" lon="3.86764">
        <ele>69</ele>
        <time>2021-03-21T09:39:40Z</time>
      </trkpt>
      <trkpt lat="43.6655" lon="3.86768">
        <ele>69</ele>
        <time>2021-03-21T09:39:41Z</time>
      </trkpt>
      <trkpt lat="43.66551" lon="3.86772">
        <ele>69</ele>
        <time>2021-03-21T09:39:42Z</time>
      </trkpt>
      <trkpt lat="43.66552" lon="3.86775">
        <ele>69</ele>
        <time>2021-03-21T09:39:43Z</time>
      </trkpt>
      <trkpt lat="43.66553" lon="3.86778">
        <ele>69</ele>
        <time>2021-03-21T09:39:44Z</time>
      </trkpt>
      <trkpt lat="43.66554" lon="3.86781">
        <ele>69</ele>
        <time>2021-03-21T09:39:45Z</time>
      </trkpt>
      <trkpt lat="43.66555" lon="3.86784">
        <ele>69</ele>
        <time>2021-03-21T09:39:46Z</time>
      </trkpt>
      <trkpt lat="43.66555" lon="3.86787">
        <ele>69</ele>
        <time>2021-03-21T09:39:47Z</time>
      </trkpt>
      <trkpt lat="43.66556" lon="3.8679">
        <ele>70</ele>
        <time>2021-03-21T09:39:48Z</time>
      </trkpt>
      <trkpt lat="43.66556" lon="3.86793">
        <ele>70</ele>
        <time>2021-03-21T09:39:49Z</time>
      </trkpt>
      <trkpt lat="43.66558" lon="3.86796">
        <ele>70</ele>
        <time>2021-03-21T09:39:51Z</time>
      </trkpt>
      <trkpt lat="43.6656" lon="3.86798">
        <ele>70</ele>
        <time>2021-03-21T09:39:53Z</time>
      </trkpt>
      <trkpt lat="43.6656" lon="3.86798">
        <ele>71</ele>
        <time>2021-03-21T09:40:03Z</time>
      </trkpt>
      <trkpt lat="43.66569" lon="3.86804">
        <ele>73</ele>
        <time>2021-03-21T09:40:32Z</time>
      </trkpt>
      <trkpt lat="43.6657" lon="3.86807">
        <ele>73</ele>
        <time>2021-03-21T09:40:33Z</time>
      </trkpt>
      <trkpt lat="43.66572" lon="3.86809">
        <ele>73</ele>
        <time>2021-03-21T09:40:34Z</time>
      </trkpt>
      <trkpt lat="43.66573" lon="3.8681">
        <ele>73</ele>
        <time>2021-03-21T09:40:35Z</time>
      </trkpt>
      <trkpt lat="43.66575" lon="3.86811">
        <ele>73</ele>
        <time>2021-03-21T09:40:36Z</time>
      </trkpt>
      <trkpt lat="43.66578" lon="3.86812">
        <ele>73</ele>
        <time>2021-03-21T09:40:37Z</time>
      </trkpt>
      <trkpt lat="43.66581" lon="3.86814">
        <ele>73</ele>
        <time>2021-03-21T09:40:38Z</time>
      </trkpt>
      <trkpt lat="43.66583" lon="3.86817">
        <ele>73</ele>
        <time>2021-03-21T09:40:39Z</time>
      </trkpt>
      <trkpt lat="43.66585" lon="3.86818">
        <ele>73</ele>
        <time>2021-03-21T09:40:40Z</time>
      </trkpt>
      <trkpt lat="43.66587" lon="3.86818">
        <ele>73</ele>
        <time>2021-03-21T09:40:41Z</time>
      </trkpt>
      <trkpt lat="43.66589" lon="3.86818">
        <ele>72</ele>
        <time>2021-03-21T09:40:42Z</time>
      </trkpt>
      <trkpt lat="43.66592" lon="3.86818">
        <ele>72</ele>
        <time>2021-03-21T09:40:43Z</time>
      </trkpt>
      <trkpt lat="43.66593" lon="3.8682">
        <ele>72</ele>
        <time>2021-03-21T09:40:44Z</time>
      </trkpt>
      <trkpt lat="43.66594" lon="3.86823">
        <ele>72</ele>
        <time>2021-03-21T09:40:45Z</time>
      </trkpt>
      <trkpt lat="43.66595" lon="3.86828">
        <ele>72</ele>
        <time>2021-03-21T09:40:47Z</time>
      </trkpt>
      <trkpt lat="43.66596" lon="3.86832">
        <ele>72</ele>
        <time>2021-03-21T09:40:49Z</time>
      </trkpt>
      <trkpt lat="43.66597" lon="3.86835">
        <ele>72</ele>
        <time>2021-03-21T09:40:51Z</time>
      </trkpt>
      <trkpt lat="43.66599" lon="3.86835">
        <ele>72</ele>
        <time>2021-03-21T09:41:03Z</time>
      </trkpt>
      <trkpt lat="43.66618" lon="3.86837">
        <ele>73</ele>
        <time>2021-03-21T09:42:29Z</time>
      </trkpt>
      <trkpt lat="43.66621" lon="3.86835">
        <ele>73</ele>
        <time>2021-03-21T09:42:30Z</time>
      </trkpt>
      <trkpt lat="43.66623" lon="3.86835">
        <ele>73</ele>
        <time>2021-03-21T09:42:31Z</time>
      </trkpt>
      <trkpt lat="43.66625" lon="3.86836">
        <ele>73</ele>
        <time>2021-03-21T09:42:32Z</time>
      </trkpt>
      <trkpt lat="43.66627" lon="3.86838">
        <ele>73</ele>
        <time>2021-03-21T09:42:33Z</time>
      </trkpt>
      <trkpt lat="43.66628" lon="3.8684">
        <ele>73</ele>
        <time>2021-03-21T09:42:34Z</time>
      </trkpt>
      <trkpt lat="43.66631" lon="3.86842">
        <ele>73</ele>
        <time>2021-03-21T09:42:36Z</time>
      </trkpt>
      <trkpt lat="43.66634" lon="3.86844">
        <ele>73</ele>
        <time>2021-03-21T09:42:38Z</time>
      </trkpt>
      <trkpt lat="43.66636" lon="3.86845">
        <ele>73</ele>
        <time>2021-03-21T09:42:39Z</time>
      </trkpt>
      <trkpt lat="43.66638" lon="3.86846">
        <ele>73</ele>
        <time>2021-03-21T09:42:40Z</time>
      </trkpt>
      <trkpt lat="43.66639" lon="3.86848">
        <ele>73</ele>
        <time>2021-03-21T09:42:41Z</time>
      </trkpt>
      <trkpt lat="43.66641" lon="3.86852">
        <ele>73</ele>
        <time>2021-03-21T09:42:43Z</time>
      </trkpt>
      <trkpt lat="43.66642" lon="3.86856">
        <ele>73</ele>
        <time>2021-03-21T09:42:45Z</time>
      </trkpt>
      <trkpt lat="43.66644" lon="3.86857">
        <ele>73</ele>
        <time>2021-03-21T09:42:46Z</time>
      </trkpt>
      <trkpt lat="43.66646" lon="3.86858">
        <ele>73</ele>
        <time>2021-03-21T09:42:47Z</time>
      </trkpt>
      <trkpt lat="43.66648" lon="3.86861">
        <ele>73</ele>
        <time>2021-03-21T09:42:49Z</time>
      </trkpt>
      <trkpt lat="43.66651" lon="3.86863">
        <ele>73</ele>
        <time>2021-03-21T09:42:51Z</time>
      </trkpt>
      <trkpt lat="43.66654" lon="3.86863">
        <ele>73</ele>
        <time>2021-03-21T09:42:52Z</time>
      </trkpt>
      <trkpt lat="43.66659" lon="3.86863">
        <ele>73</ele>
        <time>2021-03-21T09:42:55Z</time>
      </trkpt>
      <trkpt lat="43.66661" lon="3.86863">
        <ele>73</ele>
        <time>2021-03-21T09:42:57Z</time>
      </trkpt>
      <trkpt lat="43.66663" lon="3.86863">
        <ele>76</ele>
        <time>2021-03-21T09:42:58Z</time>
      </trkpt>
      <trkpt lat="43.66666" lon="3.86863">
        <ele>76</ele>
        <time>2021-03-21T09:42:59Z</time>
      </trkpt>
      <trkpt lat="43.66668" lon="3.86863">
        <ele>76</ele>
        <time>2021-03-21T09:43:00Z</time>
      </trkpt>
      <trkpt lat="43.66671" lon="3.86862">
        <ele>76</ele>
        <time>2021-03-21T09:43:01Z</time>
      </trkpt>
      <trkpt lat="43.66674" lon="3.86862">
        <ele>76</ele>
        <time>2021-03-21T09:43:02Z</time>
      </trkpt>
      <trkpt lat="43.66677" lon="3.86862">
        <ele>76</ele>
        <time>2021-03-21T09:43:03Z</time>
      </trkpt>
      <trkpt lat="43.6668" lon="3.86861">
        <ele>76</ele>
        <time>2021-03-21T09:43:04Z</time>
      </trkpt>
      <trkpt lat="43.66683" lon="3.8686">
        <ele>76</ele>
        <time>2021-03-21T09:43:05Z</time>
      </trkpt>
      <trkpt lat="43.66686" lon="3.86859">
        <ele>78</ele>
        <time>2021-03-21T09:43:06Z</time>
      </trkpt>
      <trkpt lat="43.66689" lon="3.86859">
        <ele>78</ele>
        <time>2021-03-21T09:43:07Z</time>
      </trkpt>
      <trkpt lat="43.66692" lon="3.86859">
        <ele>78</ele>
        <time>2021-03-21T09:43:08Z</time>
      </trkpt>
      <trkpt lat="43.66694" lon="3.8686">
        <ele>78</ele>
        <time>2021-03-21T09:43:09Z</time>
      </trkpt>
      <trkpt lat="43.66697" lon="3.86861">
        <ele>78</ele>
        <time>2021-03-21T09:43:10Z</time>
      </trkpt>
      <trkpt lat="43.66699" lon="3.86862">
        <ele>78</ele>
        <time>2021-03-21T09:43:11Z</time>
      </trkpt>
      <trkpt lat="43.66701" lon="3.86863">
        <ele>78</ele>
        <time>2021-03-21T09:43:12Z</time>
      </trkpt>
      <trkpt lat="43.66703" lon="3.86865">
        <ele>78</ele>
        <time>2021-03-21T09:43:13Z</time>
      </trkpt>
      <trkpt lat="43.66706" lon="3.86866">
        <ele>78</ele>
        <time>2021-03-21T09:43:14Z</time>
      </trkpt>
      <trkpt lat="43.66708" lon="3.86867">
        <ele>78</ele>
        <time>2021-03-21T09:43:15Z</time>
      </trkpt>
      <trkpt lat="43.6671" lon="3.86869">
        <ele>78</ele>
        <time>2021-03-21T09:43:16Z</time>
      </trkpt>
      <trkpt lat="43.66712" lon="3.8687">
        <ele>78</ele>
        <time>2021-03-21T09:43:17Z</time>
      </trkpt>
      <trkpt lat="43.66714" lon="3.86872">
        <ele>80</ele>
        <time>2021-03-21T09:43:18Z</time>
      </trkpt>
      <trkpt lat="43.66715" lon="3.86874">
        <ele>80</ele>
        <time>2021-03-21T09:43:19Z</time>
      </trkpt>
      <trkpt lat="43.66717" lon="3.86877">
        <ele>80</ele>
        <time>2021-03-21T09:43:20Z</time>
      </trkpt>
      <trkpt lat="43.66718" lon="3.86879">
        <ele>80</ele>
        <time>2021-03-21T09:43:21Z</time>
      </trkpt>
      <trkpt lat="43.6672" lon="3.86881">
        <ele>80</ele>
        <time>2021-03-21T09:43:22Z</time>
      </trkpt>
      <trkpt lat="43.66721" lon="3.86883">
        <ele>80</ele>
        <time>2021-03-21T09:43:23Z</time>
      </trkpt>
      <trkpt lat="43.66722" lon="3.86885">
        <ele>80</ele>
        <time>2021-03-21T09:43:24Z</time>
      </trkpt>
      <trkpt lat="43.66724" lon="3.86887">
        <ele>80</ele>
        <time>2021-03-21T09:43:25Z</time>
      </trkpt>
      <trkpt lat="43.66725" lon="3.86889">
        <ele>80</ele>
        <time>2021-03-21T09:43:26Z</time>
      </trkpt>
      <trkpt lat="43.66726" lon="3.86891">
        <ele>80</ele>
        <time>2021-03-21T09:43:27Z</time>
      </trkpt>
      <trkpt lat="43.66728" lon="3.86895">
        <ele>80</ele>
        <time>2021-03-21T09:43:29Z</time>
      </trkpt>
      <trkpt lat="43.66729" lon="3.86897">
        <ele>80</ele>
        <time>2021-03-21T09:43:30Z</time>
      </trkpt>
      <trkpt lat="43.66729" lon="3.869">
        <ele>80</ele>
        <time>2021-03-21T09:43:31Z</time>
      </trkpt>
      <trkpt lat="43.6673" lon="3.86902">
        <ele>80</ele>
        <time>2021-03-21T09:43:32Z</time>
      </trkpt>
      <trkpt lat="43.66731" lon="3.86905">
        <ele>80</ele>
        <time>2021-03-21T09:43:33Z</time>
      </trkpt>
      <trkpt lat="43.66731" lon="3.86908">
        <ele>80</ele>
        <time>2021-03-21T09:43:34Z</time>
      </trkpt>
      <trkpt lat="43.66732" lon="3.86911">
        <ele>80</ele>
        <time>2021-03-21T09:43:35Z</time>
      </trkpt>
      <trkpt lat="43.66732" lon="3.86914">
        <ele>80</ele>
        <time>2021-03-21T09:43:36Z</time>
      </trkpt>
      <trkpt lat="43.66732" lon="3.86917">
        <ele>80</ele>
        <time>2021-03-21T09:43:37Z</time>
      </trkpt>
      <trkpt lat="43.66732" lon="3.86919">
        <ele>83</ele>
        <time>2021-03-21T09:43:38Z</time>
      </trkpt>
      <trkpt lat="43.66731" lon="3.86924">
        <ele>83</ele>
        <time>2021-03-21T09:43:40Z</time>
      </trkpt>
      <trkpt lat="43.66731" lon="3.86928">
        <ele>83</ele>
        <time>2021-03-21T09:43:42Z</time>
      </trkpt>
      <trkpt lat="43.66731" lon="3.86933">
        <ele>83</ele>
        <time>2021-03-21T09:43:44Z</time>
      </trkpt>
      <trkpt lat="43.66731" lon="3.86938">
        <ele>83</ele>
        <time>2021-03-21T09:43:46Z</time>
      </trkpt>
      <trkpt lat="43.66731" lon="3.86942">
        <ele>84</ele>
        <time>2021-03-21T09:43:48Z</time>
      </trkpt>
      <trkpt lat="43.66731" lon="3.86947">
        <ele>84</ele>
        <time>2021-03-21T09:43:50Z</time>
      </trkpt>
      <trkpt lat="43.66732" lon="3.86951">
        <ele>84</ele>
        <time>2021-03-21T09:43:52Z</time>
      </trkpt>
      <trkpt lat="43.66733" lon="3.86956">
        <ele>84</ele>
        <time>2021-03-21T09:43:54Z</time>
      </trkpt>
      <trkpt lat="43.66734" lon="3.8696">
        <ele>84</ele>
        <time>2021-03-21T09:43:56Z</time>
      </trkpt>
      <trkpt lat="43.66734" lon="3.86964">
        <ele>86</ele>
        <time>2021-03-21T09:43:58Z</time>
      </trkpt>
      <trkpt lat="43.66735" lon="3.86968">
        <ele>86</ele>
        <time>2021-03-21T09:44:00Z</time>
      </trkpt>
      <trkpt lat="43.66736" lon="3.86972">
        <ele>86</ele>
        <time>2021-03-21T09:44:02Z</time>
      </trkpt>
      <trkpt lat="43.66736" lon="3.86976">
        <ele>86</ele>
        <time>2021-03-21T09:44:04Z</time>
      </trkpt>
      <trkpt lat="43.66737" lon="3.86981">
        <ele>86</ele>
        <time>2021-03-21T09:44:06Z</time>
      </trkpt>
      <trkpt lat="43.66738" lon="3.86984">
        <ele>88</ele>
        <time>2021-03-21T09:44:08Z</time>
      </trkpt>
      <trkpt lat="43.66738" lon="3.86987">
        <ele>88</ele>
        <time>2021-03-21T09:44:10Z</time>
      </trkpt>
      <trkpt lat="43.66738" lon="3.8699">
        <ele>88</ele>
        <time>2021-03-21T09:44:19Z</time>
      </trkpt>
      <trkpt lat="43.66742" lon="3.87001">
        <ele>91</ele>
        <time>2021-03-21T09:44:55Z</time>
      </trkpt>
      <trkpt lat="43.66742" lon="3.87003">
        <ele>91</ele>
        <time>2021-03-21T09:44:56Z</time>
      </trkpt>
      <trkpt lat="43.66743" lon="3.87006">
        <ele>91</ele>
        <time>2021-03-21T09:44:57Z</time>
      </trkpt>
      <trkpt lat="43.66744" lon="3.8701">
        <ele>91</ele>
        <time>2021-03-21T09:44:59Z</time>
      </trkpt>
      <trkpt lat="43.66744" lon="3.87015">
        <ele>91</ele>
        <time>2021-03-21T09:45:01Z</time>
      </trkpt>
      <trkpt lat="43.66744" lon="3.87019">
        <ele>91</ele>
        <time>2021-03-21T09:45:03Z</time>
      </trkpt>
      <trkpt lat="43.66744" lon="3.87022">
        <ele>91</ele>
        <time>2021-03-21T09:45:04Z</time>
      </trkpt>
      <trkpt lat="43.66743" lon="3.87026">
        <ele>91</ele>
        <time>2021-03-21T09:45:05Z</time>
      </trkpt>
      <trkpt lat="43.66743" lon="3.87029">
        <ele>91</ele>
        <time>2021-03-21T09:45:06Z</time>
      </trkpt>
      <trkpt lat="43.66743" lon="3.87031">
        <ele>91</ele>
        <time>2021-03-21T09:45:07Z</time>
      </trkpt>
      <trkpt lat="43.66742" lon="3.87034">
        <ele>91</ele>
        <time>2021-03-21T09:45:08Z</time>
      </trkpt>
      <trkpt lat="43.66742" lon="3.87037">
        <ele>91</ele>
        <time>2021-03-21T09:45:09Z</time>
      </trkpt>
      <trkpt lat="43.66742" lon="3.8704">
        <ele>91</ele>
        <time>2021-03-21T09:45:10Z</time>
      </trkpt>
      <trkpt lat="43.66742" lon="3.87042">
        <ele>91</ele>
        <time>2021-03-21T09:45:11Z</time>
      </trkpt>
      <trkpt lat="43.66742" lon="3.87045">
        <ele>91</ele>
        <time>2021-03-21T09:45:12Z</time>
      </trkpt>
      <trkpt lat="43.66742" lon="3.87048">
        <ele>91</ele>
        <time>2021-03-21T09:45:13Z</time>
      </trkpt>
      <trkpt lat="43.66741" lon="3.87053">
        <ele>92</ele>
        <time>2021-03-21T09:45:14Z</time>
      </trkpt>
      <trkpt lat="43.66741" lon="3.87057">
        <ele>92</ele>
        <time>2021-03-21T09:45:16Z</time>
      </trkpt>
      <trkpt lat="43.6674" lon="3.87063">
        <ele>92</ele>
        <time>2021-03-21T09:45:17Z</time>
      </trkpt>
      <trkpt lat="43.6674" lon="3.87066">
        <ele>92</ele>
        <time>2021-03-21T09:45:19Z</time>
      </trkpt>
      <trkpt lat="43.66739" lon="3.87072">
        <ele>92</ele>
        <time>2021-03-21T09:45:20Z</time>
      </trkpt>
      <trkpt lat="43.66739" lon="3.87076">
        <ele>92</ele>
        <time>2021-03-21T09:45:22Z</time>
      </trkpt>
      <trkpt lat="43.66738" lon="3.87078">
        <ele>92</ele>
        <time>2021-03-21T09:45:23Z</time>
      </trkpt>
      <trkpt lat="43.66737" lon="3.87081">
        <ele>93</ele>
        <time>2021-03-21T09:45:24Z</time>
      </trkpt>
      <trkpt lat="43.66737" lon="3.87083">
        <ele>93</ele>
        <time>2021-03-21T09:45:25Z</time>
      </trkpt>
      <trkpt lat="43.66736" lon="3.87088">
        <ele>93</ele>
        <time>2021-03-21T09:45:27Z</time>
      </trkpt>
      <trkpt lat="43.66734" lon="3.87092">
        <ele>93</ele>
        <time>2021-03-21T09:45:29Z</time>
      </trkpt>
      <trkpt lat="43.66733" lon="3.87095">
        <ele>93</ele>
        <time>2021-03-21T09:45:31Z</time>
      </trkpt>
      <trkpt lat="43.66732" lon="3.87099">
        <ele>93</ele>
        <time>2021-03-21T09:45:33Z</time>
      </trkpt>
      <trkpt lat="43.66732" lon="3.87103">
        <ele>93</ele>
        <time>2021-03-21T09:45:35Z</time>
      </trkpt>
      <trkpt lat="43.66731" lon="3.87107">
        <ele>93</ele>
        <time>2021-03-21T09:45:37Z</time>
      </trkpt>
      <trkpt lat="43.66731" lon="3.87111">
        <ele>93</ele>
        <time>2021-03-21T09:45:39Z</time>
      </trkpt>
      <trkpt lat="43.66732" lon="3.87115">
        <ele>93</ele>
        <time>2021-03-21T09:45:41Z</time>
      </trkpt>
      <trkpt lat="43.66732" lon="3.8712">
        <ele>93</ele>
        <time>2021-03-21T09:45:43Z</time>
      </trkpt>
      <trkpt lat="43.66733" lon="3.87124">
        <ele>93</ele>
        <time>2021-03-21T09:45:45Z</time>
      </trkpt>
      <trkpt lat="43.66734" lon="3.87127">
        <ele>93</ele>
        <time>2021-03-21T09:45:47Z</time>
      </trkpt>
      <trkpt lat="43.66735" lon="3.8713">
        <ele>93</ele>
        <time>2021-03-21T09:45:49Z</time>
      </trkpt>
      <trkpt lat="43.66737" lon="3.87132">
        <ele>93</ele>
        <time>2021-03-21T09:45:51Z</time>
      </trkpt>
      <trkpt lat="43.66738" lon="3.87133">
        <ele>93</ele>
        <time>2021-03-21T09:45:53Z</time>
      </trkpt>
      <trkpt lat="43.6674" lon="3.87135">
        <ele>93</ele>
        <time>2021-03-21T09:45:55Z</time>
      </trkpt>
      <trkpt lat="43.66741" lon="3.87138">
        <ele>93</ele>
        <time>2021-03-21T09:45:57Z</time>
      </trkpt>
      <trkpt lat="43.66739" lon="3.8714">
        <ele>93</ele>
        <time>2021-03-21T09:45:59Z</time>
      </trkpt>
      <trkpt lat="43.66737" lon="3.87143">
        <ele>93</ele>
        <time>2021-03-21T09:46:01Z</time>
      </trkpt>
      <trkpt lat="43.66736" lon="3.87147">
        <ele>93</ele>
        <time>2021-03-21T09:46:03Z</time>
      </trkpt>
      <trkpt lat="43.66735" lon="3.87149">
        <ele>99</ele>
        <time>2021-03-21T09:46:04Z</time>
      </trkpt>
      <trkpt lat="43.66734" lon="3.87152">
        <ele>99</ele>
        <time>2021-03-21T09:46:05Z</time>
      </trkpt>
      <trkpt lat="43.66735" lon="3.87156">
        <ele>99</ele>
        <time>2021-03-21T09:46:07Z</time>
      </trkpt>
      <trkpt lat="43.66736" lon="3.87161">
        <ele>99</ele>
        <time>2021-03-21T09:46:09Z</time>
      </trkpt>
      <trkpt lat="43.66736" lon="3.87165">
        <ele>99</ele>
        <time>2021-03-21T09:46:11Z</time>
      </trkpt>
      <trkpt lat="43.66737" lon="3.87168">
        <ele>99</ele>
        <time>2021-03-21T09:46:13Z</time>
      </trkpt>
      <trkpt lat="43.66738" lon="3.87171">
        <ele>99</ele>
        <time>2021-03-21T09:46:15Z</time>
      </trkpt>
      <trkpt lat="43.66738" lon="3.87175">
        <ele>99</ele>
        <time>2021-03-21T09:46:17Z</time>
      </trkpt>
      <trkpt lat="43.66735" lon="3.87182">
        <ele>99</ele>
        <time>2021-03-21T09:46:19Z</time>
      </trkpt>
      <trkpt lat="43.66735" lon="3.87186">
        <ele>99</ele>
        <time>2021-03-21T09:46:21Z</time>
      </trkpt>
      <trkpt lat="43.66733" lon="3.87192">
        <ele>99</ele>
        <time>2021-03-21T09:46:22Z</time>
      </trkpt>
      <trkpt lat="43.66732" lon="3.87195">
        <ele>100</ele>
        <time>2021-03-21T09:46:24Z</time>
      </trkpt>
      <trkpt lat="43.6673" lon="3.87197">
        <ele>100</ele>
        <time>2021-03-21T09:46:25Z</time>
      </trkpt>
      <trkpt lat="43.66728" lon="3.87199">
        <ele>100</ele>
        <time>2021-03-21T09:46:26Z</time>
      </trkpt>
      <trkpt lat="43.66726" lon="3.872">
        <ele>100</ele>
        <time>2021-03-21T09:46:27Z</time>
      </trkpt>
      <trkpt lat="43.66724" lon="3.87201">
        <ele>100</ele>
        <time>2021-03-21T09:46:28Z</time>
      </trkpt>
      <trkpt lat="43.66722" lon="3.87202">
        <ele>100</ele>
        <time>2021-03-21T09:46:29Z</time>
      </trkpt>
      <trkpt lat="43.66719" lon="3.87203">
        <ele>100</ele>
        <time>2021-03-21T09:46:30Z</time>
      </trkpt>
      <trkpt lat="43.66717" lon="3.87203">
        <ele>100</ele>
        <time>2021-03-21T09:46:31Z</time>
      </trkpt>
      <trkpt lat="43.66715" lon="3.87203">
        <ele>100</ele>
        <time>2021-03-21T09:46:32Z</time>
      </trkpt>
      <trkpt lat="43.66713" lon="3.87202">
        <ele>100</ele>
        <time>2021-03-21T09:46:33Z</time>
      </trkpt>
      <trkpt lat="43.6671" lon="3.87202">
        <ele>100</ele>
        <time>2021-03-21T09:46:34Z</time>
      </trkpt>
      <trkpt lat="43.66708" lon="3.87201">
        <ele>100</ele>
        <time>2021-03-21T09:46:35Z</time>
      </trkpt>
      <trkpt lat="43.66705" lon="3.87201">
        <ele>100</ele>
        <time>2021-03-21T09:46:36Z</time>
      </trkpt>
      <trkpt lat="43.66702" lon="3.87202">
        <ele>100</ele>
        <time>2021-03-21T09:46:37Z</time>
      </trkpt>
      <trkpt lat="43.667" lon="3.87203">
        <ele>100</ele>
        <time>2021-03-21T09:46:38Z</time>
      </trkpt>
      <trkpt lat="43.66697" lon="3.87205">
        <ele>100</ele>
        <time>2021-03-21T09:46:39Z</time>
      </trkpt>
      <trkpt lat="43.66695" lon="3.87207">
        <ele>100</ele>
        <time>2021-03-21T09:46:40Z</time>
      </trkpt>
      <trkpt lat="43.66693" lon="3.87209">
        <ele>100</ele>
        <time>2021-03-21T09:46:41Z</time>
      </trkpt>
      <trkpt lat="43.66691" lon="3.8721">
        <ele>100</ele>
        <time>2021-03-21T09:46:42Z</time>
      </trkpt>
      <trkpt lat="43.66689" lon="3.87212">
        <ele>100</ele>
        <time>2021-03-21T09:46:43Z</time>
      </trkpt>
      <trkpt lat="43.66687" lon="3.87214">
        <ele>100</ele>
        <time>2021-03-21T09:46:44Z</time>
      </trkpt>
      <trkpt lat="43.66686" lon="3.87216">
        <ele>100</ele>
        <time>2021-03-21T09:46:45Z</time>
      </trkpt>
      <trkpt lat="43.66684" lon="3.87219">
        <ele>100</ele>
        <time>2021-03-21T09:46:46Z</time>
      </trkpt>
      <trkpt lat="43.66684" lon="3.87221">
        <ele>100</ele>
        <time>2021-03-21T09:46:47Z</time>
      </trkpt>
      <trkpt lat="43.66685" lon="3.87224">
        <ele>100</ele>
        <time>2021-03-21T09:46:48Z</time>
      </trkpt>
      <trkpt lat="43.66686" lon="3.87226">
        <ele>100</ele>
        <time>2021-03-21T09:46:49Z</time>
      </trkpt>
      <trkpt lat="43.66688" lon="3.87228">
        <ele>100</ele>
        <time>2021-03-21T09:46:50Z</time>
      </trkpt>
      <trkpt lat="43.66689" lon="3.8723">
        <ele>100</ele>
        <time>2021-03-21T09:46:51Z</time>
      </trkpt>
      <trkpt lat="43.66691" lon="3.87232">
        <ele>100</ele>
        <time>2021-03-21T09:46:52Z</time>
      </trkpt>
      <trkpt lat="43.66693" lon="3.87234">
        <ele>100</ele>
        <time>2021-03-21T09:46:53Z</time>
      </trkpt>
      <trkpt lat="43.66694" lon="3.87235">
        <ele>101</ele>
        <time>2021-03-21T09:46:54Z</time>
      </trkpt>
      <trkpt lat="43.66696" lon="3.87238">
        <ele>101</ele>
        <time>2021-03-21T09:46:55Z</time>
      </trkpt>
      <trkpt lat="43.66697" lon="3.8724">
        <ele>101</ele>
        <time>2021-03-21T09:46:56Z</time>
      </trkpt>
      <trkpt lat="43.66699" lon="3.87243">
        <ele>101</ele>
        <time>2021-03-21T09:46:57Z</time>
      </trkpt>
      <trkpt lat="43.667" lon="3.87247">
        <ele>101</ele>
        <time>2021-03-21T09:46:58Z</time>
      </trkpt>
      <trkpt lat="43.66701" lon="3.87252">
        <ele>101</ele>
        <time>2021-03-21T09:46:59Z</time>
      </trkpt>
      <trkpt lat="43.66701" lon="3.87257">
        <ele>101</ele>
        <time>2021-03-21T09:47:00Z</time>
      </trkpt>
      <trkpt lat="43.66702" lon="3.87263">
        <ele>101</ele>
        <time>2021-03-21T09:47:01Z</time>
      </trkpt>
      <trkpt lat="43.66703" lon="3.87267">
        <ele>101</ele>
        <time>2021-03-21T09:47:02Z</time>
      </trkpt>
      <trkpt lat="43.66705" lon="3.87271">
        <ele>101</ele>
        <time>2021-03-21T09:47:03Z</time>
      </trkpt>
      <trkpt lat="43.66706" lon="3.87276">
        <ele>101</ele>
        <time>2021-03-21T09:47:04Z</time>
      </trkpt>
      <trkpt lat="43.66707" lon="3.8728">
        <ele>101</ele>
        <time>2021-03-21T09:47:05Z</time>
      </trkpt>
      <trkpt lat="43.66708" lon="3.87283">
        <ele>101</ele>
        <time>2021-03-21T09:47:06Z</time>
      </trkpt>
      <trkpt lat="43.66709" lon="3.87286">
        <ele>101</ele>
        <time>2021-03-21T09:47:07Z</time>
      </trkpt>
      <trkpt lat="43.66709" lon="3.87289">
        <ele>101</ele>
        <time>2021-03-21T09:47:08Z</time>
      </trkpt>
      <trkpt lat="43.66709" lon="3.87291">
        <ele>101</ele>
        <time>2021-03-21T09:47:09Z</time>
      </trkpt>
      <trkpt lat="43.66709" lon="3.87294">
        <ele>101</ele>
        <time>2021-03-21T09:47:10Z</time>
      </trkpt>
      <trkpt lat="43.6671" lon="3.87297">
        <ele>101</ele>
        <time>2021-03-21T09:47:11Z</time>
      </trkpt>
      <trkpt lat="43.66712" lon="3.87299">
        <ele>101</ele>
        <time>2021-03-21T09:47:12Z</time>
      </trkpt>
      <trkpt lat="43.66713" lon="3.87301">
        <ele>101</ele>
        <time>2021-03-21T09:47:13Z</time>
      </trkpt>
      <trkpt lat="43.66715" lon="3.87303">
        <ele>100</ele>
        <time>2021-03-21T09:47:14Z</time>
      </trkpt>
      <trkpt lat="43.66717" lon="3.87306">
        <ele>100</ele>
        <time>2021-03-21T09:47:15Z</time>
      </trkpt>
      <trkpt lat="43.66718" lon="3.87309">
        <ele>100</ele>
        <time>2021-03-21T09:47:16Z</time>
      </trkpt>
      <trkpt lat="43.66719" lon="3.87312">
        <ele>100</ele>
        <time>2021-03-21T09:47:17Z</time>
      </trkpt>
      <trkpt lat="43.66718" lon="3.87315">
        <ele>100</ele>
        <time>2021-03-21T09:47:18Z</time>
      </trkpt>
      <trkpt lat="43.66718" lon="3.87317">
        <ele>100</ele>
        <time>2021-03-21T09:47:19Z</time>
      </trkpt>
      <trkpt lat="43.6672" lon="3.87322">
        <ele>100</ele>
        <time>2021-03-21T09:47:21Z</time>
      </trkpt>
      <trkpt lat="43.6672" lon="3.87326">
        <ele>100</ele>
        <time>2021-03-21T09:47:23Z</time>
      </trkpt>
      <trkpt lat="43.6672" lon="3.87329">
        <ele>100</ele>
        <time>2021-03-21T09:47:25Z</time>
      </trkpt>
      <trkpt lat="43.66721" lon="3.87333">
        <ele>100</ele>
        <time>2021-03-21T09:47:26Z</time>
      </trkpt>
      <trkpt lat="43.66722" lon="3.87336">
        <ele>100</ele>
        <time>2021-03-21T09:47:27Z</time>
      </trkpt>
      <trkpt lat="43.66723" lon="3.8734">
        <ele>100</ele>
        <time>2021-03-21T09:47:28Z</time>
      </trkpt>
      <trkpt lat="43.66724" lon="3.87343">
        <ele>100</ele>
        <time>2021-03-21T09:47:29Z</time>
      </trkpt>
      <trkpt lat="43.66725" lon="3.87346">
        <ele>100</ele>
        <time>2021-03-21T09:47:30Z</time>
      </trkpt>
      <trkpt lat="43.66726" lon="3.8735">
        <ele>100</ele>
        <time>2021-03-21T09:47:31Z</time>
      </trkpt>
      <trkpt lat="43.66726" lon="3.87353">
        <ele>100</ele>
        <time>2021-03-21T09:47:32Z</time>
      </trkpt>
      <trkpt lat="43.66726" lon="3.87356">
        <ele>100</ele>
        <time>2021-03-21T09:47:33Z</time>
      </trkpt>
      <trkpt lat="43.66726" lon="3.87361">
        <ele>100</ele>
        <time>2021-03-21T09:47:35Z</time>
      </trkpt>
      <trkpt lat="43.66726" lon="3.87363">
        <ele>100</ele>
        <time>2021-03-21T09:47:36Z</time>
      </trkpt>
      <trkpt lat="43.66725" lon="3.87366">
        <ele>100</ele>
        <time>2021-03-21T09:47:37Z</time>
      </trkpt>
      <trkpt lat="43.66725" lon="3.8737">
        <ele>100</ele>
        <time>2021-03-21T09:47:38Z</time>
      </trkpt>
      <trkpt lat="43.66725" lon="3.87373">
        <ele>100</ele>
        <time>2021-03-21T09:47:39Z</time>
      </trkpt>
      <trkpt lat="43.66723" lon="3.87377">
        <ele>100</ele>
        <time>2021-03-21T09:47:40Z</time>
      </trkpt>
      <trkpt lat="43.66721" lon="3.8738">
        <ele>100</ele>
        <time>2021-03-21T09:47:41Z</time>
      </trkpt>
      <trkpt lat="43.66718" lon="3.87382">
        <ele>100</ele>
        <time>2021-03-21T09:47:42Z</time>
      </trkpt>
      <trkpt lat="43.66716" lon="3.87382">
        <ele>100</ele>
        <time>2021-03-21T09:47:43Z</time>
      </trkpt>
      <trkpt lat="43.66712" lon="3.87381">
        <ele>99</ele>
        <time>2021-03-21T09:47:44Z</time>
      </trkpt>
      <trkpt lat="43.66709" lon="3.87381">
        <ele>99</ele>
        <time>2021-03-21T09:47:45Z</time>
      </trkpt>
      <trkpt lat="43.66707" lon="3.87382">
        <ele>99</ele>
        <time>2021-03-21T09:47:46Z</time>
      </trkpt>
      <trkpt lat="43.66704" lon="3.87384">
        <ele>99</ele>
        <time>2021-03-21T09:47:47Z</time>
      </trkpt>
      <trkpt lat="43.66702" lon="3.87386">
        <ele>99</ele>
        <time>2021-03-21T09:47:48Z</time>
      </trkpt>
      <trkpt lat="43.667" lon="3.87388">
        <ele>99</ele>
        <time>2021-03-21T09:47:49Z</time>
      </trkpt>
      <trkpt lat="43.66699" lon="3.87391">
        <ele>99</ele>
        <time>2021-03-21T09:47:50Z</time>
      </trkpt>
      <trkpt lat="43.667" lon="3.87393">
        <ele>99</ele>
        <time>2021-03-21T09:47:51Z</time>
      </trkpt>
      <trkpt lat="43.66701" lon="3.87396">
        <ele>99</ele>
        <time>2021-03-21T09:47:52Z</time>
      </trkpt>
      <trkpt lat="43.66702" lon="3.87398">
        <ele>99</ele>
        <time>2021-03-21T09:47:53Z</time>
      </trkpt>
      <trkpt lat="43.66703" lon="3.87401">
        <ele>96</ele>
        <time>2021-03-21T09:47:54Z</time>
      </trkpt>
      <trkpt lat="43.66702" lon="3.87404">
        <ele>96</ele>
        <time>2021-03-21T09:47:55Z</time>
      </trkpt>
      <trkpt lat="43.667" lon="3.87406">
        <ele>96</ele>
        <time>2021-03-21T09:47:56Z</time>
      </trkpt>
      <trkpt lat="43.66697" lon="3.87408">
        <ele>96</ele>
        <time>2021-03-21T09:47:57Z</time>
      </trkpt>
      <trkpt lat="43.66694" lon="3.87409">
        <ele>96</ele>
        <time>2021-03-21T09:47:58Z</time>
      </trkpt>
      <trkpt lat="43.66691" lon="3.87408">
        <ele>96</ele>
        <time>2021-03-21T09:47:59Z</time>
      </trkpt>
      <trkpt lat="43.66687" lon="3.87408">
        <ele>96</ele>
        <time>2021-03-21T09:48:00Z</time>
      </trkpt>
      <trkpt lat="43.66684" lon="3.87408">
        <ele>96</ele>
        <time>2021-03-21T09:48:01Z</time>
      </trkpt>
      <trkpt lat="43.6668" lon="3.87407">
        <ele>96</ele>
        <time>2021-03-21T09:48:02Z</time>
      </trkpt>
      <trkpt lat="43.66677" lon="3.87403">
        <ele>96</ele>
        <time>2021-03-21T09:48:03Z</time>
      </trkpt>
      <trkpt lat="43.66675" lon="3.87399">
        <ele>93</ele>
        <time>2021-03-21T09:48:04Z</time>
      </trkpt>
      <trkpt lat="43.66672" lon="3.87396">
        <ele>93</ele>
        <time>2021-03-21T09:48:05Z</time>
      </trkpt>
      <trkpt lat="43.66669" lon="3.87393">
        <ele>93</ele>
        <time>2021-03-21T09:48:06Z</time>
      </trkpt>
      <trkpt lat="43.66665" lon="3.87391">
        <ele>93</ele>
        <time>2021-03-21T09:48:07Z</time>
      </trkpt>
      <trkpt lat="43.66662" lon="3.87388">
        <ele>93</ele>
        <time>2021-03-21T09:48:08Z</time>
      </trkpt>
      <trkpt lat="43.6666" lon="3.87384">
        <ele>93</ele>
        <time>2021-03-21T09:48:09Z</time>
      </trkpt>
      <trkpt lat="43.66658" lon="3.87381">
        <ele>93</ele>
        <time>2021-03-21T09:48:10Z</time>
      </trkpt>
      <trkpt lat="43.66655" lon="3.87379">
        <ele>93</ele>
        <time>2021-03-21T09:48:11Z</time>
      </trkpt>
      <trkpt lat="43.66652" lon="3.87377">
        <ele>93</ele>
        <time>2021-03-21T09:48:12Z</time>
      </trkpt>
      <trkpt lat="43.6665" lon="3.87374">
        <ele>93</ele>
        <time>2021-03-21T09:48:13Z</time>
      </trkpt>
      <trkpt lat="43.66649" lon="3.87371">
        <ele>90</ele>
        <time>2021-03-21T09:48:14Z</time>
      </trkpt>
      <trkpt lat="43.66647" lon="3.87367">
        <ele>90</ele>
        <time>2021-03-21T09:48:15Z</time>
      </trkpt>
      <trkpt lat="43.66645" lon="3.87365">
        <ele>90</ele>
        <time>2021-03-21T09:48:16Z</time>
      </trkpt>
      <trkpt lat="43.66643" lon="3.87362">
        <ele>90</ele>
        <time>2021-03-21T09:48:17Z</time>
      </trkpt>
      <trkpt lat="43.6664" lon="3.87361">
        <ele>90</ele>
        <time>2021-03-21T09:48:18Z</time>
      </trkpt>
      <trkpt lat="43.66638" lon="3.87361">
        <ele>90</ele>
        <time>2021-03-21T09:48:19Z</time>
      </trkpt>
      <trkpt lat="43.66635" lon="3.87361">
        <ele>90</ele>
        <time>2021-03-21T09:48:20Z</time>
      </trkpt>
      <trkpt lat="43.66633" lon="3.87363">
        <ele>90</ele>
        <time>2021-03-21T09:48:21Z</time>
      </trkpt>
      <trkpt lat="43.66631" lon="3.87367">
        <ele>90</ele>
        <time>2021-03-21T09:48:23Z</time>
      </trkpt>
      <trkpt lat="43.6663" lon="3.87373">
        <ele>89</ele>
        <time>2021-03-21T09:48:24Z</time>
      </trkpt>
      <trkpt lat="43.6663" lon="3.87376">
        <ele>89</ele>
        <time>2021-03-21T09:48:26Z</time>
      </trkpt>
      <trkpt lat="43.66633" lon="3.87378">
        <ele>89</ele>
        <time>2021-03-21T09:48:27Z</time>
      </trkpt>
      <trkpt lat="43.66635" lon="3.87381">
        <ele>89</ele>
        <time>2021-03-21T09:48:29Z</time>
      </trkpt>
      <trkpt lat="43.66639" lon="3.87385">
        <ele>89</ele>
        <time>2021-03-21T09:48:30Z</time>
      </trkpt>
      <trkpt lat="43.66641" lon="3.87388">
        <ele>89</ele>
        <time>2021-03-21T09:48:32Z</time>
      </trkpt>
      <trkpt lat="43.66643" lon="3.8739">
        <ele>89</ele>
        <time>2021-03-21T09:48:33Z</time>
      </trkpt>
      <trkpt lat="43.66645" lon="3.87392">
        <ele>89</ele>
        <time>2021-03-21T09:48:34Z</time>
      </trkpt>
      <trkpt lat="43.66647" lon="3.87394">
        <ele>89</ele>
        <time>2021-03-21T09:48:35Z</time>
      </trkpt>
      <trkpt lat="43.66649" lon="3.87397">
        <ele>89</ele>
        <time>2021-03-21T09:48:36Z</time>
      </trkpt>
      <trkpt lat="43.66651" lon="3.87399">
        <ele>89</ele>
        <time>2021-03-21T09:48:37Z</time>
      </trkpt>
      <trkpt lat="43.66653" lon="3.87401">
        <ele>89</ele>
        <time>2021-03-21T09:48:38Z</time>
      </trkpt>
      <trkpt lat="43.66656" lon="3.87403">
        <ele>89</ele>
        <time>2021-03-21T09:48:39Z</time>
      </trkpt>
      <trkpt lat="43.66658" lon="3.87406">
        <ele>89</ele>
        <time>2021-03-21T09:48:40Z</time>
      </trkpt>
      <trkpt lat="43.66661" lon="3.87409">
        <ele>89</ele>
        <time>2021-03-21T09:48:41Z</time>
      </trkpt>
      <trkpt lat="43.66663" lon="3.87413">
        <ele>89</ele>
        <time>2021-03-21T09:48:42Z</time>
      </trkpt>
      <trkpt lat="43.66665" lon="3.87415">
        <ele>89</ele>
        <time>2021-03-21T09:48:43Z</time>
      </trkpt>
      <trkpt lat="43.66666" lon="3.87417">
        <ele>88</ele>
        <time>2021-03-21T09:48:44Z</time>
      </trkpt>
      <trkpt lat="43.66667" lon="3.8742">
        <ele>88</ele>
        <time>2021-03-21T09:48:45Z</time>
      </trkpt>
      <trkpt lat="43.66673" lon="3.87427">
        <ele>88</ele>
        <time>2021-03-21T09:48:46Z</time>
      </trkpt>
      <trkpt lat="43.66675" lon="3.8743">
        <ele>88</ele>
        <time>2021-03-21T09:48:48Z</time>
      </trkpt>
      <trkpt lat="43.66677" lon="3.87433">
        <ele>88</ele>
        <time>2021-03-21T09:48:49Z</time>
      </trkpt>
      <trkpt lat="43.66682" lon="3.87439">
        <ele>88</ele>
        <time>2021-03-21T09:48:50Z</time>
      </trkpt>
      <trkpt lat="43.66684" lon="3.87442">
        <ele>88</ele>
        <time>2021-03-21T09:48:52Z</time>
      </trkpt>
      <trkpt lat="43.66687" lon="3.87445">
        <ele>88</ele>
        <time>2021-03-21T09:48:53Z</time>
      </trkpt>
      <trkpt lat="43.66689" lon="3.87448">
        <ele>88</ele>
        <time>2021-03-21T09:48:54Z</time>
      </trkpt>
      <trkpt lat="43.66692" lon="3.8745">
        <ele>88</ele>
        <time>2021-03-21T09:48:55Z</time>
      </trkpt>
      <trkpt lat="43.66694" lon="3.87452">
        <ele>88</ele>
        <time>2021-03-21T09:48:56Z</time>
      </trkpt>
      <trkpt lat="43.66696" lon="3.87454">
        <ele>88</ele>
        <time>2021-03-21T09:48:57Z</time>
      </trkpt>
      <trkpt lat="43.66698" lon="3.87455">
        <ele>88</ele>
        <time>2021-03-21T09:48:58Z</time>
      </trkpt>
      <trkpt lat="43.667" lon="3.87457">
        <ele>88</ele>
        <time>2021-03-21T09:48:59Z</time>
      </trkpt>
      <trkpt lat="43.66702" lon="3.87459">
        <ele>88</ele>
        <time>2021-03-21T09:49:00Z</time>
      </trkpt>
      <trkpt lat="43.66704" lon="3.87461">
        <ele>88</ele>
        <time>2021-03-21T09:49:01Z</time>
      </trkpt>
      <trkpt lat="43.66707" lon="3.87462">
        <ele>88</ele>
        <time>2021-03-21T09:49:02Z</time>
      </trkpt>
      <trkpt lat="43.66709" lon="3.87463">
        <ele>88</ele>
        <time>2021-03-21T09:49:03Z</time>
      </trkpt>
      <trkpt lat="43.66712" lon="3.87464">
        <ele>89</ele>
        <time>2021-03-21T09:49:04Z</time>
      </trkpt>
      <trkpt lat="43.66714" lon="3.87467">
        <ele>89</ele>
        <time>2021-03-21T09:49:05Z</time>
      </trkpt>
      <trkpt lat="43.66716" lon="3.87469">
        <ele>89</ele>
        <time>2021-03-21T09:49:06Z</time>
      </trkpt>
      <trkpt lat="43.66718" lon="3.87471">
        <ele>89</ele>
        <time>2021-03-21T09:49:07Z</time>
      </trkpt>
      <trkpt lat="43.6672" lon="3.87474">
        <ele>89</ele>
        <time>2021-03-21T09:49:08Z</time>
      </trkpt>
      <trkpt lat="43.66721" lon="3.87476">
        <ele>89</ele>
        <time>2021-03-21T09:49:09Z</time>
      </trkpt>
      <trkpt lat="43.66724" lon="3.87478">
        <ele>89</ele>
        <time>2021-03-21T09:49:11Z</time>
      </trkpt>
      <trkpt lat="43.66726" lon="3.87481">
        <ele>89</ele>
        <time>2021-03-21T09:49:13Z</time>
      </trkpt>
      <trkpt lat="43.66728" lon="3.87483">
        <ele>89</ele>
        <time>2021-03-21T09:49:15Z</time>
      </trkpt>
      <trkpt lat="43.66729" lon="3.87488">
        <ele>89</ele>
        <time>2021-03-21T09:49:17Z</time>
      </trkpt>
      <trkpt lat="43.6673" lon="3.87492">
        <ele>89</ele>
        <time>2021-03-21T09:49:19Z</time>
      </trkpt>
      <trkpt lat="43.66731" lon="3.87495">
        <ele>89</ele>
        <time>2021-03-21T09:49:21Z</time>
      </trkpt>
      <trkpt lat="43.66731" lon="3.87497">
        <ele>89</ele>
        <time>2021-03-21T09:49:25Z</time>
      </trkpt>
      <trkpt lat="43.6673" lon="3.875">
        <ele>89</ele>
        <time>2021-03-21T09:49:27Z</time>
      </trkpt>
      <trkpt lat="43.66728" lon="3.87502">
        <ele>89</ele>
        <time>2021-03-21T09:49:28Z</time>
      </trkpt>
      <trkpt lat="43.66727" lon="3.87507">
        <ele>89</ele>
        <time>2021-03-21T09:49:30Z</time>
      </trkpt>
      <trkpt lat="43.66728" lon="3.87512">
        <ele>89</ele>
        <time>2021-03-21T09:49:32Z</time>
      </trkpt>
      <trkpt lat="43.66728" lon="3.87514">
        <ele>89</ele>
        <time>2021-03-21T09:49:33Z</time>
      </trkpt>
      <trkpt lat="43.66729" lon="3.87517">
        <ele>90</ele>
        <time>2021-03-21T09:49:34Z</time>
      </trkpt>
      <trkpt lat="43.66729" lon="3.8752">
        <ele>90</ele>
        <time>2021-03-21T09:49:35Z</time>
      </trkpt>
      <trkpt lat="43.6673" lon="3.87522">
        <ele>90</ele>
        <time>2021-03-21T09:49:36Z</time>
      </trkpt>
      <trkpt lat="43.66731" lon="3.87525">
        <ele>90</ele>
        <time>2021-03-21T09:49:37Z</time>
      </trkpt>
      <trkpt lat="43.66732" lon="3.87528">
        <ele>90</ele>
        <time>2021-03-21T09:49:38Z</time>
      </trkpt>
      <trkpt lat="43.66733" lon="3.87531">
        <ele>90</ele>
        <time>2021-03-21T09:49:39Z</time>
      </trkpt>
      <trkpt lat="43.66734" lon="3.87535">
        <ele>90</ele>
        <time>2021-03-21T09:49:40Z</time>
      </trkpt>
      <trkpt lat="43.66734" lon="3.87538">
        <ele>90</ele>
        <time>2021-03-21T09:49:41Z</time>
      </trkpt>
      <trkpt lat="43.66734" lon="3.87542">
        <ele>90</ele>
        <time>2021-03-21T09:49:42Z</time>
      </trkpt>
      <trkpt lat="43.66735" lon="3.87545">
        <ele>90</ele>
        <time>2021-03-21T09:49:43Z</time>
      </trkpt>
      <trkpt lat="43.66735" lon="3.87548">
        <ele>90</ele>
        <time>2021-03-21T09:49:44Z</time>
      </trkpt>
      <trkpt lat="43.66736" lon="3.87551">
        <ele>90</ele>
        <time>2021-03-21T09:49:45Z</time>
      </trkpt>
      <trkpt lat="43.66737" lon="3.87554">
        <ele>90</ele>
        <time>2021-03-21T09:49:46Z</time>
      </trkpt>
      <trkpt lat="43.66738" lon="3.87557">
        <ele>90</ele>
        <time>2021-03-21T09:49:47Z</time>
      </trkpt>
      <trkpt lat="43.66738" lon="3.87559">
        <ele>90</ele>
        <time>2021-03-21T09:49:48Z</time>
      </trkpt>
      <trkpt lat="43.6674" lon="3.87563">
        <ele>90</ele>
        <time>2021-03-21T09:49:50Z</time>
      </trkpt>
      <trkpt lat="43.66742" lon="3.87567">
        <ele>90</ele>
        <time>2021-03-21T09:49:52Z</time>
      </trkpt>
      <trkpt lat="43.66744" lon="3.87571">
        <ele>91</ele>
        <time>2021-03-21T09:49:54Z</time>
      </trkpt>
      <trkpt lat="43.66746" lon="3.87574">
        <ele>91</ele>
        <time>2021-03-21T09:49:56Z</time>
      </trkpt>
      <trkpt lat="43.66748" lon="3.87577">
        <ele>91</ele>
        <time>2021-03-21T09:49:58Z</time>
      </trkpt>
      <trkpt lat="43.6675" lon="3.8758">
        <ele>91</ele>
        <time>2021-03-21T09:50:00Z</time>
      </trkpt>
      <trkpt lat="43.6675" lon="3.87585">
        <ele>91</ele>
        <time>2021-03-21T09:50:02Z</time>
      </trkpt>
      <trkpt lat="43.6675" lon="3.87587">
        <ele>91</ele>
        <time>2021-03-21T09:50:03Z</time>
      </trkpt>
      <trkpt lat="43.66749" lon="3.87592">
        <ele>91</ele>
        <time>2021-03-21T09:50:05Z</time>
      </trkpt>
      <trkpt lat="43.66749" lon="3.87594">
        <ele>91</ele>
        <time>2021-03-21T09:50:06Z</time>
      </trkpt>
      <trkpt lat="43.66749" lon="3.87599">
        <ele>91</ele>
        <time>2021-03-21T09:50:08Z</time>
      </trkpt>
      <trkpt lat="43.66749" lon="3.87604">
        <ele>91</ele>
        <time>2021-03-21T09:50:10Z</time>
      </trkpt>
      <trkpt lat="43.66749" lon="3.87608">
        <ele>91</ele>
        <time>2021-03-21T09:50:12Z</time>
      </trkpt>
      <trkpt lat="43.66749" lon="3.87611">
        <ele>91</ele>
        <time>2021-03-21T09:50:13Z</time>
      </trkpt>
      <trkpt lat="43.66749" lon="3.87614">
        <ele>92</ele>
        <time>2021-03-21T09:50:14Z</time>
      </trkpt>
      <trkpt lat="43.66749" lon="3.87617">
        <ele>92</ele>
        <time>2021-03-21T09:50:15Z</time>
      </trkpt>
      <trkpt lat="43.6675" lon="3.8762">
        <ele>92</ele>
        <time>2021-03-21T09:50:16Z</time>
      </trkpt>
      <trkpt lat="43.6675" lon="3.87624">
        <ele>92</ele>
        <time>2021-03-21T09:50:17Z</time>
      </trkpt>
      <trkpt lat="43.66749" lon="3.87627">
        <ele>92</ele>
        <time>2021-03-21T09:50:18Z</time>
      </trkpt>
      <trkpt lat="43.66749" lon="3.8763">
        <ele>92</ele>
        <time>2021-03-21T09:50:19Z</time>
      </trkpt>
      <trkpt lat="43.66748" lon="3.87633">
        <ele>92</ele>
        <time>2021-03-21T09:50:20Z</time>
      </trkpt>
      <trkpt lat="43.66747" lon="3.87637">
        <ele>92</ele>
        <time>2021-03-21T09:50:21Z</time>
      </trkpt>
      <trkpt lat="43.66746" lon="3.8764">
        <ele>92</ele>
        <time>2021-03-21T09:50:22Z</time>
      </trkpt>
      <trkpt lat="43.66745" lon="3.87642">
        <ele>92</ele>
        <time>2021-03-21T09:50:23Z</time>
      </trkpt>
      <trkpt lat="43.66743" lon="3.87645">
        <ele>93</ele>
        <time>2021-03-21T09:50:24Z</time>
      </trkpt>
      <trkpt lat="43.66741" lon="3.87648">
        <ele>93</ele>
        <time>2021-03-21T09:50:25Z</time>
      </trkpt>
      <trkpt lat="43.6674" lon="3.8765">
        <ele>93</ele>
        <time>2021-03-21T09:50:26Z</time>
      </trkpt>
      <trkpt lat="43.66739" lon="3.87654">
        <ele>93</ele>
        <time>2021-03-21T09:50:27Z</time>
      </trkpt>
      <trkpt lat="43.66737" lon="3.87657">
        <ele>93</ele>
        <time>2021-03-21T09:50:28Z</time>
      </trkpt>
      <trkpt lat="43.66735" lon="3.8766">
        <ele>93</ele>
        <time>2021-03-21T09:50:29Z</time>
      </trkpt>
      <trkpt lat="43.66734" lon="3.87663">
        <ele>93</ele>
        <time>2021-03-21T09:50:30Z</time>
      </trkpt>
      <trkpt lat="43.66732" lon="3.87666">
        <ele>93</ele>
        <time>2021-03-21T09:50:31Z</time>
      </trkpt>
      <trkpt lat="43.66731" lon="3.87669">
        <ele>93</ele>
        <time>2021-03-21T09:50:32Z</time>
      </trkpt>
      <trkpt lat="43.66729" lon="3.87672">
        <ele>93</ele>
        <time>2021-03-21T09:50:33Z</time>
      </trkpt>
      <trkpt lat="43.66728" lon="3.87675">
        <ele>95</ele>
        <time>2021-03-21T09:50:34Z</time>
      </trkpt>
      <trkpt lat="43.66726" lon="3.87678">
        <ele>95</ele>
        <time>2021-03-21T09:50:35Z</time>
      </trkpt>
      <trkpt lat="43.66725" lon="3.8768">
        <ele>95</ele>
        <time>2021-03-21T09:50:36Z</time>
      </trkpt>
      <trkpt lat="43.66724" lon="3.87683">
        <ele>95</ele>
        <time>2021-03-21T09:50:37Z</time>
      </trkpt>
      <trkpt lat="43.66722" lon="3.87686">
        <ele>95</ele>
        <time>2021-03-21T09:50:38Z</time>
      </trkpt>
      <trkpt lat="43.66721" lon="3.87689">
        <ele>95</ele>
        <time>2021-03-21T09:50:39Z</time>
      </trkpt>
      <trkpt lat="43.66719" lon="3.87691">
        <ele>95</ele>
        <time>2021-03-21T09:50:40Z</time>
      </trkpt>
      <trkpt lat="43.66717" lon="3.87694">
        <ele>95</ele>
        <time>2021-03-21T09:50:41Z</time>
      </trkpt>
      <trkpt lat="43.66715" lon="3.87696">
        <ele>95</ele>
        <time>2021-03-21T09:50:42Z</time>
      </trkpt>
      <trkpt lat="43.66713" lon="3.87697">
        <ele>95</ele>
        <time>2021-03-21T09:50:43Z</time>
      </trkpt>
      <trkpt lat="43.66711" lon="3.877">
        <ele>96</ele>
        <time>2021-03-21T09:50:44Z</time>
      </trkpt>
      <trkpt lat="43.6671" lon="3.87702">
        <ele>96</ele>
        <time>2021-03-21T09:50:45Z</time>
      </trkpt>
      <trkpt lat="43.66708" lon="3.87704">
        <ele>96</ele>
        <time>2021-03-21T09:50:46Z</time>
      </trkpt>
      <trkpt lat="43.66706" lon="3.87707">
        <ele>96</ele>
        <time>2021-03-21T09:50:48Z</time>
      </trkpt>
      <trkpt lat="43.66703" lon="3.87709">
        <ele>96</ele>
        <time>2021-03-21T09:50:50Z</time>
      </trkpt>
      <trkpt lat="43.66702" lon="3.87712">
        <ele>96</ele>
        <time>2021-03-21T09:50:52Z</time>
      </trkpt>
      <trkpt lat="43.66703" lon="3.87711">
        <ele>97</ele>
        <time>2021-03-21T09:50:59Z</time>
      </trkpt>
      <trkpt lat="43.6671" lon="3.87721">
        <ele>99</ele>
        <time>2021-03-21T09:51:51Z</time>
      </trkpt>
      <trkpt lat="43.66712" lon="3.87722">
        <ele>99</ele>
        <time>2021-03-21T09:51:52Z</time>
      </trkpt>
      <trkpt lat="43.66714" lon="3.87722">
        <ele>99</ele>
        <time>2021-03-21T09:51:53Z</time>
      </trkpt>
      <trkpt lat="43.66716" lon="3.8772">
        <ele>99</ele>
        <time>2021-03-21T09:51:54Z</time>
      </trkpt>
      <trkpt lat="43.66719" lon="3.87718">
        <ele>99</ele>
        <time>2021-03-21T09:51:55Z</time>
      </trkpt>
      <trkpt lat="43.66722" lon="3.87715">
        <ele>99</ele>
        <time>2021-03-21T09:51:56Z</time>
      </trkpt>
      <trkpt lat="43.66726" lon="3.87712">
        <ele>99</ele>
        <time>2021-03-21T09:51:57Z</time>
      </trkpt>
      <trkpt lat="43.66731" lon="3.87711">
        <ele>99</ele>
        <time>2021-03-21T09:51:58Z</time>
      </trkpt>
      <trkpt lat="43.66735" lon="3.87711">
        <ele>99</ele>
        <time>2021-03-21T09:51:59Z</time>
      </trkpt>
      <trkpt lat="43.6674" lon="3.87712">
        <ele>98</ele>
        <time>2021-03-21T09:52:00Z</time>
      </trkpt>
      <trkpt lat="43.66744" lon="3.87713">
        <ele>98</ele>
        <time>2021-03-21T09:52:01Z</time>
      </trkpt>
      <trkpt lat="43.66749" lon="3.87713">
        <ele>98</ele>
        <time>2021-03-21T09:52:02Z</time>
      </trkpt>
      <trkpt lat="43.66754" lon="3.87713">
        <ele>98</ele>
        <time>2021-03-21T09:52:03Z</time>
      </trkpt>
      <trkpt lat="43.66757" lon="3.87713">
        <ele>98</ele>
        <time>2021-03-21T09:52:04Z</time>
      </trkpt>
      <trkpt lat="43.6676" lon="3.87712">
        <ele>98</ele>
        <time>2021-03-21T09:52:05Z</time>
      </trkpt>
      <trkpt lat="43.66764" lon="3.87711">
        <ele>98</ele>
        <time>2021-03-21T09:52:06Z</time>
      </trkpt>
      <trkpt lat="43.66766" lon="3.87711">
        <ele>98</ele>
        <time>2021-03-21T09:52:07Z</time>
      </trkpt>
      <trkpt lat="43.66769" lon="3.87711">
        <ele>98</ele>
        <time>2021-03-21T09:52:08Z</time>
      </trkpt>
      <trkpt lat="43.66772" lon="3.87711">
        <ele>98</ele>
        <time>2021-03-21T09:52:09Z</time>
      </trkpt>
      <trkpt lat="43.66777" lon="3.87712">
        <ele>97</ele>
        <time>2021-03-21T09:52:10Z</time>
      </trkpt>
      <trkpt lat="43.6678" lon="3.87711">
        <ele>97</ele>
        <time>2021-03-21T09:52:12Z</time>
      </trkpt>
      <trkpt lat="43.66785" lon="3.87712">
        <ele>97</ele>
        <time>2021-03-21T09:52:13Z</time>
      </trkpt>
      <trkpt lat="43.66787" lon="3.87712">
        <ele>97</ele>
        <time>2021-03-21T09:52:15Z</time>
      </trkpt>
      <trkpt lat="43.66792" lon="3.87711">
        <ele>97</ele>
        <time>2021-03-21T09:52:16Z</time>
      </trkpt>
      <trkpt lat="43.66796" lon="3.8771">
        <ele>97</ele>
        <time>2021-03-21T09:52:18Z</time>
      </trkpt>
      <trkpt lat="43.668" lon="3.87709">
        <ele>97</ele>
        <time>2021-03-21T09:52:19Z</time>
      </trkpt>
      <trkpt lat="43.66804" lon="3.87708">
        <ele>96</ele>
        <time>2021-03-21T09:52:20Z</time>
      </trkpt>
      <trkpt lat="43.66807" lon="3.87707">
        <ele>96</ele>
        <time>2021-03-21T09:52:21Z</time>
      </trkpt>
      <trkpt lat="43.6681" lon="3.87706">
        <ele>96</ele>
        <time>2021-03-21T09:52:22Z</time>
      </trkpt>
      <trkpt lat="43.66812" lon="3.87705">
        <ele>96</ele>
        <time>2021-03-21T09:52:23Z</time>
      </trkpt>
      <trkpt lat="43.66814" lon="3.87704">
        <ele>96</ele>
        <time>2021-03-21T09:52:24Z</time>
      </trkpt>
      <trkpt lat="43.66817" lon="3.87701">
        <ele>96</ele>
        <time>2021-03-21T09:52:25Z</time>
      </trkpt>
      <trkpt lat="43.66819" lon="3.87699">
        <ele>96</ele>
        <time>2021-03-21T09:52:26Z</time>
      </trkpt>
      <trkpt lat="43.66821" lon="3.87697">
        <ele>96</ele>
        <time>2021-03-21T09:52:27Z</time>
      </trkpt>
      <trkpt lat="43.66824" lon="3.87695">
        <ele>96</ele>
        <time>2021-03-21T09:52:28Z</time>
      </trkpt>
      <trkpt lat="43.66826" lon="3.87692">
        <ele>96</ele>
        <time>2021-03-21T09:52:29Z</time>
      </trkpt>
      <trkpt lat="43.66829" lon="3.8769">
        <ele>95</ele>
        <time>2021-03-21T09:52:30Z</time>
      </trkpt>
      <trkpt lat="43.66833" lon="3.87689">
        <ele>95</ele>
        <time>2021-03-21T09:52:31Z</time>
      </trkpt>
      <trkpt lat="43.66837" lon="3.87688">
        <ele>95</ele>
        <time>2021-03-21T09:52:32Z</time>
      </trkpt>
      <trkpt lat="43.66841" lon="3.87688">
        <ele>95</ele>
        <time>2021-03-21T09:52:33Z</time>
      </trkpt>
      <trkpt lat="43.66844" lon="3.87689">
        <ele>95</ele>
        <time>2021-03-21T09:52:34Z</time>
      </trkpt>
      <trkpt lat="43.66847" lon="3.8769">
        <ele>95</ele>
        <time>2021-03-21T09:52:35Z</time>
      </trkpt>
      <trkpt lat="43.6685" lon="3.87691">
        <ele>95</ele>
        <time>2021-03-21T09:52:36Z</time>
      </trkpt>
      <trkpt lat="43.66853" lon="3.87693">
        <ele>95</ele>
        <time>2021-03-21T09:52:37Z</time>
      </trkpt>
      <trkpt lat="43.66855" lon="3.87694">
        <ele>95</ele>
        <time>2021-03-21T09:52:38Z</time>
      </trkpt>
      <trkpt lat="43.66858" lon="3.87695">
        <ele>95</ele>
        <time>2021-03-21T09:52:39Z</time>
      </trkpt>
      <trkpt lat="43.66861" lon="3.87695">
        <ele>96</ele>
        <time>2021-03-21T09:52:40Z</time>
      </trkpt>
      <trkpt lat="43.66864" lon="3.87695">
        <ele>96</ele>
        <time>2021-03-21T09:52:41Z</time>
      </trkpt>
      <trkpt lat="43.66867" lon="3.87696">
        <ele>96</ele>
        <time>2021-03-21T09:52:42Z</time>
      </trkpt>
      <trkpt lat="43.6687" lon="3.87697">
        <ele>96</ele>
        <time>2021-03-21T09:52:43Z</time>
      </trkpt>
      <trkpt lat="43.66873" lon="3.87698">
        <ele>96</ele>
        <time>2021-03-21T09:52:44Z</time>
      </trkpt>
      <trkpt lat="43.66876" lon="3.877">
        <ele>96</ele>
        <time>2021-03-21T09:52:45Z</time>
      </trkpt>
      <trkpt lat="43.66879" lon="3.87701">
        <ele>96</ele>
        <time>2021-03-21T09:52:46Z</time>
      </trkpt>
      <trkpt lat="43.66882" lon="3.87703">
        <ele>96</ele>
        <time>2021-03-21T09:52:47Z</time>
      </trkpt>
      <trkpt lat="43.66885" lon="3.87704">
        <ele>96</ele>
        <time>2021-03-21T09:52:48Z</time>
      </trkpt>
      <trkpt lat="43.66888" lon="3.87706">
        <ele>96</ele>
        <time>2021-03-21T09:52:49Z</time>
      </trkpt>
      <trkpt lat="43.66891" lon="3.87709">
        <ele>95</ele>
        <time>2021-03-21T09:52:50Z</time>
      </trkpt>
      <trkpt lat="43.66893" lon="3.87711">
        <ele>95</ele>
        <time>2021-03-21T09:52:51Z</time>
      </trkpt>
      <trkpt lat="43.66895" lon="3.87713">
        <ele>95</ele>
        <time>2021-03-21T09:52:52Z</time>
      </trkpt>
      <trkpt lat="43.66898" lon="3.87714">
        <ele>95</ele>
        <time>2021-03-21T09:52:53Z</time>
      </trkpt>
      <trkpt lat="43.66901" lon="3.87715">
        <ele>95</ele>
        <time>2021-03-21T09:52:54Z</time>
      </trkpt>
      <trkpt lat="43.66904" lon="3.87716">
        <ele>95</ele>
        <time>2021-03-21T09:52:55Z</time>
      </trkpt>
      <trkpt lat="43.66906" lon="3.87718">
        <ele>95</ele>
        <time>2021-03-21T09:52:56Z</time>
      </trkpt>
      <trkpt lat="43.66909" lon="3.8772">
        <ele>95</ele>
        <time>2021-03-21T09:52:57Z</time>
      </trkpt>
      <trkpt lat="43.66911" lon="3.87723">
        <ele>95</ele>
        <time>2021-03-21T09:52:58Z</time>
      </trkpt>
      <trkpt lat="43.66912" lon="3.87726">
        <ele>95</ele>
        <time>2021-03-21T09:52:59Z</time>
      </trkpt>
      <trkpt lat="43.66914" lon="3.87729">
        <ele>94</ele>
        <time>2021-03-21T09:53:00Z</time>
      </trkpt>
      <trkpt lat="43.66916" lon="3.87731">
        <ele>94</ele>
        <time>2021-03-21T09:53:01Z</time>
      </trkpt>
      <trkpt lat="43.66917" lon="3.87733">
        <ele>94</ele>
        <time>2021-03-21T09:53:02Z</time>
      </trkpt>
      <trkpt lat="43.66919" lon="3.87735">
        <ele>94</ele>
        <time>2021-03-21T09:53:03Z</time>
      </trkpt>
      <trkpt lat="43.6692" lon="3.87738">
        <ele>94</ele>
        <time>2021-03-21T09:53:04Z</time>
      </trkpt>
      <trkpt lat="43.66922" lon="3.87741">
        <ele>94</ele>
        <time>2021-03-21T09:53:05Z</time>
      </trkpt>
      <trkpt lat="43.66923" lon="3.87744">
        <ele>94</ele>
        <time>2021-03-21T09:53:06Z</time>
      </trkpt>
      <trkpt lat="43.66924" lon="3.87748">
        <ele>94</ele>
        <time>2021-03-21T09:53:07Z</time>
      </trkpt>
      <trkpt lat="43.66926" lon="3.87751">
        <ele>94</ele>
        <time>2021-03-21T09:53:08Z</time>
      </trkpt>
      <trkpt lat="43.66927" lon="3.87755">
        <ele>94</ele>
        <time>2021-03-21T09:53:09Z</time>
      </trkpt>
      <trkpt lat="43.66928" lon="3.87758">
        <ele>93</ele>
        <time>2021-03-21T09:53:10Z</time>
      </trkpt>
      <trkpt lat="43.6693" lon="3.87761">
        <ele>93</ele>
        <time>2021-03-21T09:53:11Z</time>
      </trkpt>
      <trkpt lat="43.66931" lon="3.87764">
        <ele>93</ele>
        <time>2021-03-21T09:53:12Z</time>
      </trkpt>
      <trkpt lat="43.66933" lon="3.87767">
        <ele>93</ele>
        <time>2021-03-21T09:53:13Z</time>
      </trkpt>
      <trkpt lat="43.66934" lon="3.87769">
        <ele>93</ele>
        <time>2021-03-21T09:53:14Z</time>
      </trkpt>
      <trkpt lat="43.66936" lon="3.87772">
        <ele>93</ele>
        <time>2021-03-21T09:53:15Z</time>
      </trkpt>
      <trkpt lat="43.66937" lon="3.87774">
        <ele>93</ele>
        <time>2021-03-21T09:53:16Z</time>
      </trkpt>
      <trkpt lat="43.66939" lon="3.87776">
        <ele>93</ele>
        <time>2021-03-21T09:53:17Z</time>
      </trkpt>
      <trkpt lat="43.6694" lon="3.87777">
        <ele>93</ele>
        <time>2021-03-21T09:53:18Z</time>
      </trkpt>
      <trkpt lat="43.66942" lon="3.87779">
        <ele>93</ele>
        <time>2021-03-21T09:53:19Z</time>
      </trkpt>
      <trkpt lat="43.66944" lon="3.87781">
        <ele>93</ele>
        <time>2021-03-21T09:53:20Z</time>
      </trkpt>
      <trkpt lat="43.66945" lon="3.87783">
        <ele>93</ele>
        <time>2021-03-21T09:53:21Z</time>
      </trkpt>
      <trkpt lat="43.66946" lon="3.87786">
        <ele>93</ele>
        <time>2021-03-21T09:53:22Z</time>
      </trkpt>
      <trkpt lat="43.66946" lon="3.87788">
        <ele>93</ele>
        <time>2021-03-21T09:53:23Z</time>
      </trkpt>
      <trkpt lat="43.66946" lon="3.87791">
        <ele>93</ele>
        <time>2021-03-21T09:53:24Z</time>
      </trkpt>
      <trkpt lat="43.66946" lon="3.87794">
        <ele>93</ele>
        <time>2021-03-21T09:53:26Z</time>
      </trkpt>
      <trkpt lat="43.66946" lon="3.87799">
        <ele>93</ele>
        <time>2021-03-21T09:53:28Z</time>
      </trkpt>
      <trkpt lat="43.66947" lon="3.87801">
        <ele>93</ele>
        <time>2021-03-21T09:53:29Z</time>
      </trkpt>
      <trkpt lat="43.66948" lon="3.87803">
        <ele>94</ele>
        <time>2021-03-21T09:53:30Z</time>
      </trkpt>
      <trkpt lat="43.6695" lon="3.87806">
        <ele>94</ele>
        <time>2021-03-21T09:53:31Z</time>
      </trkpt>
      <trkpt lat="43.66951" lon="3.87809">
        <ele>94</ele>
        <time>2021-03-21T09:53:32Z</time>
      </trkpt>
      <trkpt lat="43.66952" lon="3.87812">
        <ele>94</ele>
        <time>2021-03-21T09:53:33Z</time>
      </trkpt>
      <trkpt lat="43.66953" lon="3.87814">
        <ele>94</ele>
        <time>2021-03-21T09:53:34Z</time>
      </trkpt>
      <trkpt lat="43.66954" lon="3.87817">
        <ele>94</ele>
        <time>2021-03-21T09:53:35Z</time>
      </trkpt>
      <trkpt lat="43.66956" lon="3.8782">
        <ele>94</ele>
        <time>2021-03-21T09:53:36Z</time>
      </trkpt>
      <trkpt lat="43.66957" lon="3.87823">
        <ele>94</ele>
        <time>2021-03-21T09:53:37Z</time>
      </trkpt>
      <trkpt lat="43.66958" lon="3.87826">
        <ele>94</ele>
        <time>2021-03-21T09:53:38Z</time>
      </trkpt>
      <trkpt lat="43.66959" lon="3.87829">
        <ele>94</ele>
        <time>2021-03-21T09:53:39Z</time>
      </trkpt>
      <trkpt lat="43.6696" lon="3.87832">
        <ele>94</ele>
        <time>2021-03-21T09:53:40Z</time>
      </trkpt>
      <trkpt lat="43.66961" lon="3.87836">
        <ele>94</ele>
        <time>2021-03-21T09:53:41Z</time>
      </trkpt>
      <trkpt lat="43.66962" lon="3.87838">
        <ele>94</ele>
        <time>2021-03-21T09:53:42Z</time>
      </trkpt>
      <trkpt lat="43.66963" lon="3.87841">
        <ele>94</ele>
        <time>2021-03-21T09:53:43Z</time>
      </trkpt>
      <trkpt lat="43.66965" lon="3.87844">
        <ele>94</ele>
        <time>2021-03-21T09:53:44Z</time>
      </trkpt>
      <trkpt lat="43.66965" lon="3.87847">
        <ele>94</ele>
        <time>2021-03-21T09:53:45Z</time>
      </trkpt>
      <trkpt lat="43.66966" lon="3.8785">
        <ele>94</ele>
        <time>2021-03-21T09:53:46Z</time>
      </trkpt>
      <trkpt lat="43.66967" lon="3.87853">
        <ele>94</ele>
        <time>2021-03-21T09:53:47Z</time>
      </trkpt>
      <trkpt lat="43.66968" lon="3.87856">
        <ele>94</ele>
        <time>2021-03-21T09:53:48Z</time>
      </trkpt>
      <trkpt lat="43.6697" lon="3.87858">
        <ele>94</ele>
        <time>2021-03-21T09:53:49Z</time>
      </trkpt>
      <trkpt lat="43.66972" lon="3.8786">
        <ele>95</ele>
        <time>2021-03-21T09:53:50Z</time>
      </trkpt>
      <trkpt lat="43.66974" lon="3.87862">
        <ele>95</ele>
        <time>2021-03-21T09:53:51Z</time>
      </trkpt>
      <trkpt lat="43.66976" lon="3.87864">
        <ele>95</ele>
        <time>2021-03-21T09:53:52Z</time>
      </trkpt>
      <trkpt lat="43.66977" lon="3.87867">
        <ele>95</ele>
        <time>2021-03-21T09:53:53Z</time>
      </trkpt>
      <trkpt lat="43.66979" lon="3.8787">
        <ele>95</ele>
        <time>2021-03-21T09:53:54Z</time>
      </trkpt>
      <trkpt lat="43.6698" lon="3.87873">
        <ele>95</ele>
        <time>2021-03-21T09:53:55Z</time>
      </trkpt>
      <trkpt lat="43.6698" lon="3.87876">
        <ele>95</ele>
        <time>2021-03-21T09:53:56Z</time>
      </trkpt>
      <trkpt lat="43.6698" lon="3.87879">
        <ele>95</ele>
        <time>2021-03-21T09:53:57Z</time>
      </trkpt>
      <trkpt lat="43.66981" lon="3.87883">
        <ele>95</ele>
        <time>2021-03-21T09:53:58Z</time>
      </trkpt>
      <trkpt lat="43.66981" lon="3.87886">
        <ele>95</ele>
        <time>2021-03-21T09:53:59Z</time>
      </trkpt>
      <trkpt lat="43.66981" lon="3.8789">
        <ele>95</ele>
        <time>2021-03-21T09:54:00Z</time>
      </trkpt>
      <trkpt lat="43.66981" lon="3.87893">
        <ele>95</ele>
        <time>2021-03-21T09:54:01Z</time>
      </trkpt>
      <trkpt lat="43.66981" lon="3.87896">
        <ele>95</ele>
        <time>2021-03-21T09:54:02Z</time>
      </trkpt>
      <trkpt lat="43.66981" lon="3.87899">
        <ele>95</ele>
        <time>2021-03-21T09:54:03Z</time>
      </trkpt>
      <trkpt lat="43.66982" lon="3.87903">
        <ele>95</ele>
        <time>2021-03-21T09:54:04Z</time>
      </trkpt>
      <trkpt lat="43.66982" lon="3.87906">
        <ele>95</ele>
        <time>2021-03-21T09:54:05Z</time>
      </trkpt>
      <trkpt lat="43.66983" lon="3.87909">
        <ele>95</ele>
        <time>2021-03-21T09:54:06Z</time>
      </trkpt>
      <trkpt lat="43.66984" lon="3.87911">
        <ele>95</ele>
        <time>2021-03-21T09:54:07Z</time>
      </trkpt>
      <trkpt lat="43.66984" lon="3.87914">
        <ele>95</ele>
        <time>2021-03-21T09:54:08Z</time>
      </trkpt>
      <trkpt lat="43.66984" lon="3.87916">
        <ele>95</ele>
        <time>2021-03-21T09:54:09Z</time>
      </trkpt>
      <trkpt lat="43.66984" lon="3.87919">
        <ele>96</ele>
        <time>2021-03-21T09:54:10Z</time>
      </trkpt>
      <trkpt lat="43.66984" lon="3.87922">
        <ele>96</ele>
        <time>2021-03-21T09:54:11Z</time>
      </trkpt>
      <trkpt lat="43.66984" lon="3.87925">
        <ele>96</ele>
        <time>2021-03-21T09:54:12Z</time>
      </trkpt>
      <trkpt lat="43.66984" lon="3.87928">
        <ele>96</ele>
        <time>2021-03-21T09:54:13Z</time>
      </trkpt>
      <trkpt lat="43.66984" lon="3.8793">
        <ele>96</ele>
        <time>2021-03-21T09:54:14Z</time>
      </trkpt>
      <trkpt lat="43.66983" lon="3.87933">
        <ele>96</ele>
        <time>2021-03-21T09:54:15Z</time>
      </trkpt>
      <trkpt lat="43.66982" lon="3.87935">
        <ele>96</ele>
        <time>2021-03-21T09:54:16Z</time>
      </trkpt>
      <trkpt lat="43.66981" lon="3.87938">
        <ele>96</ele>
        <time>2021-03-21T09:54:17Z</time>
      </trkpt>
      <trkpt lat="43.6698" lon="3.8794">
        <ele>96</ele>
        <time>2021-03-21T09:54:18Z</time>
      </trkpt>
      <trkpt lat="43.66979" lon="3.87942">
        <ele>97</ele>
        <time>2021-03-21T09:54:19Z</time>
      </trkpt>
      <trkpt lat="43.66978" lon="3.87945">
        <ele>97</ele>
        <time>2021-03-21T09:54:20Z</time>
      </trkpt>
      <trkpt lat="43.66978" lon="3.87948">
        <ele>97</ele>
        <time>2021-03-21T09:54:21Z</time>
      </trkpt>
      <trkpt lat="43.66977" lon="3.87951">
        <ele>97</ele>
        <time>2021-03-21T09:54:22Z</time>
      </trkpt>
      <trkpt lat="43.66976" lon="3.87953">
        <ele>97</ele>
        <time>2021-03-21T09:54:23Z</time>
      </trkpt>
      <trkpt lat="43.66975" lon="3.87955">
        <ele>97</ele>
        <time>2021-03-21T09:54:24Z</time>
      </trkpt>
      <trkpt lat="43.66974" lon="3.87959">
        <ele>97</ele>
        <time>2021-03-21T09:54:26Z</time>
      </trkpt>
      <trkpt lat="43.66974" lon="3.87962">
        <ele>97</ele>
        <time>2021-03-21T09:54:27Z</time>
      </trkpt>
      <trkpt lat="43.66975" lon="3.87964">
        <ele>97</ele>
        <time>2021-03-21T09:54:28Z</time>
      </trkpt>
      <trkpt lat="43.66975" lon="3.87967">
        <ele>97</ele>
        <time>2021-03-21T09:54:29Z</time>
      </trkpt>
      <trkpt lat="43.66975" lon="3.8797">
        <ele>98</ele>
        <time>2021-03-21T09:54:30Z</time>
      </trkpt>
      <trkpt lat="43.66976" lon="3.87972">
        <ele>98</ele>
        <time>2021-03-21T09:54:31Z</time>
      </trkpt>
      <trkpt lat="43.66977" lon="3.87975">
        <ele>98</ele>
        <time>2021-03-21T09:54:32Z</time>
      </trkpt>
      <trkpt lat="43.66978" lon="3.87977">
        <ele>98</ele>
        <time>2021-03-21T09:54:33Z</time>
      </trkpt>
      <trkpt lat="43.66979" lon="3.87979">
        <ele>98</ele>
        <time>2021-03-21T09:54:34Z</time>
      </trkpt>
      <trkpt lat="43.66981" lon="3.87981">
        <ele>98</ele>
        <time>2021-03-21T09:54:35Z</time>
      </trkpt>
      <trkpt lat="43.66982" lon="3.87982">
        <ele>98</ele>
        <time>2021-03-21T09:54:36Z</time>
      </trkpt>
      <trkpt lat="43.66984" lon="3.87984">
        <ele>98</ele>
        <time>2021-03-21T09:54:37Z</time>
      </trkpt>
      <trkpt lat="43.66986" lon="3.87987">
        <ele>98</ele>
        <time>2021-03-21T09:54:38Z</time>
      </trkpt>
      <trkpt lat="43.66987" lon="3.87989">
        <ele>98</ele>
        <time>2021-03-21T09:54:39Z</time>
      </trkpt>
      <trkpt lat="43.66989" lon="3.87991">
        <ele>99</ele>
        <time>2021-03-21T09:54:40Z</time>
      </trkpt>
      <trkpt lat="43.6699" lon="3.87993">
        <ele>99</ele>
        <time>2021-03-21T09:54:41Z</time>
      </trkpt>
      <trkpt lat="43.66992" lon="3.87995">
        <ele>99</ele>
        <time>2021-03-21T09:54:42Z</time>
      </trkpt>
      <trkpt lat="43.66994" lon="3.87998">
        <ele>99</ele>
        <time>2021-03-21T09:54:43Z</time>
      </trkpt>
      <trkpt lat="43.66995" lon="3.88">
        <ele>99</ele>
        <time>2021-03-21T09:54:44Z</time>
      </trkpt>
      <trkpt lat="43.66996" lon="3.88003">
        <ele>99</ele>
        <time>2021-03-21T09:54:45Z</time>
      </trkpt>
      <trkpt lat="43.66997" lon="3.88006">
        <ele>99</ele>
        <time>2021-03-21T09:54:46Z</time>
      </trkpt>
      <trkpt lat="43.66998" lon="3.88009">
        <ele>99</ele>
        <time>2021-03-21T09:54:47Z</time>
      </trkpt>
      <trkpt lat="43.66999" lon="3.88012">
        <ele>99</ele>
        <time>2021-03-21T09:54:48Z</time>
      </trkpt>
      <trkpt lat="43.67001" lon="3.88013">
        <ele>99</ele>
        <time>2021-03-21T09:54:49Z</time>
      </trkpt>
      <trkpt lat="43.67004" lon="3.88014">
        <ele>99</ele>
        <time>2021-03-21T09:54:51Z</time>
      </trkpt>
      <trkpt lat="43.67005" lon="3.88013">
        <ele>99</ele>
        <time>2021-03-21T09:54:52Z</time>
      </trkpt>
      <trkpt lat="43.67008" lon="3.88013">
        <ele>99</ele>
        <time>2021-03-21T09:54:53Z</time>
      </trkpt>
      <trkpt lat="43.6701" lon="3.88012">
        <ele>99</ele>
        <time>2021-03-21T09:54:54Z</time>
      </trkpt>
      <trkpt lat="43.67012" lon="3.88012">
        <ele>99</ele>
        <time>2021-03-21T09:54:55Z</time>
      </trkpt>
      <trkpt lat="43.67015" lon="3.88011">
        <ele>99</ele>
        <time>2021-03-21T09:54:56Z</time>
      </trkpt>
      <trkpt lat="43.67017" lon="3.88011">
        <ele>99</ele>
        <time>2021-03-21T09:54:57Z</time>
      </trkpt>
      <trkpt lat="43.6702" lon="3.88011">
        <ele>99</ele>
        <time>2021-03-21T09:54:58Z</time>
      </trkpt>
      <trkpt lat="43.67022" lon="3.8801">
        <ele>99</ele>
        <time>2021-03-21T09:54:59Z</time>
      </trkpt>
      <trkpt lat="43.67025" lon="3.8801">
        <ele>101</ele>
        <time>2021-03-21T09:55:00Z</time>
      </trkpt>
      <trkpt lat="43.67028" lon="3.8801">
        <ele>101</ele>
        <time>2021-03-21T09:55:01Z</time>
      </trkpt>
      <trkpt lat="43.6703" lon="3.8801">
        <ele>101</ele>
        <time>2021-03-21T09:55:02Z</time>
      </trkpt>
      <trkpt lat="43.67032" lon="3.8801">
        <ele>101</ele>
        <time>2021-03-21T09:55:03Z</time>
      </trkpt>
      <trkpt lat="43.67035" lon="3.8801">
        <ele>101</ele>
        <time>2021-03-21T09:55:04Z</time>
      </trkpt>
      <trkpt lat="43.67038" lon="3.8801">
        <ele>101</ele>
        <time>2021-03-21T09:55:05Z</time>
      </trkpt>
      <trkpt lat="43.67041" lon="3.8801">
        <ele>101</ele>
        <time>2021-03-21T09:55:06Z</time>
      </trkpt>
      <trkpt lat="43.67044" lon="3.88012">
        <ele>101</ele>
        <time>2021-03-21T09:55:07Z</time>
      </trkpt>
      <trkpt lat="43.67047" lon="3.88014">
        <ele>101</ele>
        <time>2021-03-21T09:55:08Z</time>
      </trkpt>
      <trkpt lat="43.67049" lon="3.88015">
        <ele>102</ele>
        <time>2021-03-21T09:55:09Z</time>
      </trkpt>
      <trkpt lat="43.67051" lon="3.88017">
        <ele>102</ele>
        <time>2021-03-21T09:55:10Z</time>
      </trkpt>
      <trkpt lat="43.67054" lon="3.88019">
        <ele>102</ele>
        <time>2021-03-21T09:55:11Z</time>
      </trkpt>
      <trkpt lat="43.67056" lon="3.88021">
        <ele>102</ele>
        <time>2021-03-21T09:55:12Z</time>
      </trkpt>
      <trkpt lat="43.67059" lon="3.88023">
        <ele>102</ele>
        <time>2021-03-21T09:55:13Z</time>
      </trkpt>
      <trkpt lat="43.67061" lon="3.88025">
        <ele>102</ele>
        <time>2021-03-21T09:55:14Z</time>
      </trkpt>
      <trkpt lat="43.67063" lon="3.88026">
        <ele>102</ele>
        <time>2021-03-21T09:55:15Z</time>
      </trkpt>
      <trkpt lat="43.67065" lon="3.88027">
        <ele>102</ele>
        <time>2021-03-21T09:55:16Z</time>
      </trkpt>
      <trkpt lat="43.67067" lon="3.88028">
        <ele>102</ele>
        <time>2021-03-21T09:55:17Z</time>
      </trkpt>
      <trkpt lat="43.67069" lon="3.88029">
        <ele>102</ele>
        <time>2021-03-21T09:55:18Z</time>
      </trkpt>
      <trkpt lat="43.67071" lon="3.88029">
        <ele>102</ele>
        <time>2021-03-21T09:55:19Z</time>
      </trkpt>
      <trkpt lat="43.67075" lon="3.8803">
        <ele>105</ele>
        <time>2021-03-21T09:55:20Z</time>
      </trkpt>
      <trkpt lat="43.67078" lon="3.88031">
        <ele>105</ele>
        <time>2021-03-21T09:55:23Z</time>
      </trkpt>
      <trkpt lat="43.67081" lon="3.88032">
        <ele>105</ele>
        <time>2021-03-21T09:55:25Z</time>
      </trkpt>
      <trkpt lat="43.67084" lon="3.88032">
        <ele>105</ele>
        <time>2021-03-21T09:55:27Z</time>
      </trkpt>
      <trkpt lat="43.67087" lon="3.88034">
        <ele>105</ele>
        <time>2021-03-21T09:55:28Z</time>
      </trkpt>
      <trkpt lat="43.6709" lon="3.88033">
        <ele>105</ele>
        <time>2021-03-21T09:55:31Z</time>
      </trkpt>
      <trkpt lat="43.67092" lon="3.88032">
        <ele>105</ele>
        <time>2021-03-21T09:55:33Z</time>
      </trkpt>
      <trkpt lat="43.67093" lon="3.88029">
        <ele>105</ele>
        <time>2021-03-21T09:55:35Z</time>
      </trkpt>
      <trkpt lat="43.67094" lon="3.88025">
        <ele>105</ele>
        <time>2021-03-21T09:55:37Z</time>
      </trkpt>
      <trkpt lat="43.67094" lon="3.88021">
        <ele>105</ele>
        <time>2021-03-21T09:55:39Z</time>
      </trkpt>
      <trkpt lat="43.67096" lon="3.88016">
        <ele>105</ele>
        <time>2021-03-21T09:55:41Z</time>
      </trkpt>
      <trkpt lat="43.67097" lon="3.88014">
        <ele>105</ele>
        <time>2021-03-21T09:55:42Z</time>
      </trkpt>
      <trkpt lat="43.67098" lon="3.88009">
        <ele>105</ele>
        <time>2021-03-21T09:55:44Z</time>
      </trkpt>
      <trkpt lat="43.67098" lon="3.88006">
        <ele>105</ele>
        <time>2021-03-21T09:55:46Z</time>
      </trkpt>
      <trkpt lat="43.67098" lon="3.88002">
        <ele>105</ele>
        <time>2021-03-21T09:55:48Z</time>
      </trkpt>
      <trkpt lat="43.67099" lon="3.87998">
        <ele>111</ele>
        <time>2021-03-21T09:55:50Z</time>
      </trkpt>
      <trkpt lat="43.67099" lon="3.87995">
        <ele>111</ele>
        <time>2021-03-21T09:55:53Z</time>
      </trkpt>
      <trkpt lat="43.671" lon="3.87992">
        <ele>111</ele>
        <time>2021-03-21T09:55:56Z</time>
      </trkpt>
      <trkpt lat="43.67101" lon="3.87989">
        <ele>111</ele>
        <time>2021-03-21T09:55:57Z</time>
      </trkpt>
      <trkpt lat="43.67102" lon="3.87986">
        <ele>111</ele>
        <time>2021-03-21T09:55:59Z</time>
      </trkpt>
      <trkpt lat="43.67101" lon="3.87983">
        <ele>111</ele>
        <time>2021-03-21T09:56:05Z</time>
      </trkpt>
      <trkpt lat="43.67101" lon="3.87979">
        <ele>111</ele>
        <time>2021-03-21T09:56:08Z</time>
      </trkpt>
      <trkpt lat="43.67102" lon="3.87972">
        <ele>112</ele>
        <time>2021-03-21T09:56:10Z</time>
      </trkpt>
      <trkpt lat="43.67102" lon="3.8797">
        <ele>112</ele>
        <time>2021-03-21T09:56:12Z</time>
      </trkpt>
      <trkpt lat="43.67103" lon="3.87965">
        <ele>112</ele>
        <time>2021-03-21T09:56:14Z</time>
      </trkpt>
      <trkpt lat="43.67103" lon="3.87962">
        <ele>112</ele>
        <time>2021-03-21T09:56:16Z</time>
      </trkpt>
      <trkpt lat="43.67103" lon="3.87959">
        <ele>112</ele>
        <time>2021-03-21T09:56:17Z</time>
      </trkpt>
      <trkpt lat="43.67104" lon="3.87955">
        <ele>112</ele>
        <time>2021-03-21T09:56:19Z</time>
      </trkpt>
      <trkpt lat="43.67104" lon="3.87951">
        <ele>112</ele>
        <time>2021-03-21T09:56:21Z</time>
      </trkpt>
      <trkpt lat="43.67105" lon="3.87948">
        <ele>112</ele>
        <time>2021-03-21T09:56:23Z</time>
      </trkpt>
      <trkpt lat="43.67107" lon="3.87943">
        <ele>112</ele>
        <time>2021-03-21T09:56:25Z</time>
      </trkpt>
      <trkpt lat="43.67109" lon="3.87941">
        <ele>112</ele>
        <time>2021-03-21T09:56:26Z</time>
      </trkpt>
      <trkpt lat="43.67111" lon="3.87939">
        <ele>112</ele>
        <time>2021-03-21T09:56:28Z</time>
      </trkpt>
      <trkpt lat="43.67113" lon="3.87938">
        <ele>112</ele>
        <time>2021-03-21T09:56:29Z</time>
      </trkpt>
      <trkpt lat="43.67115" lon="3.87936">
        <ele>112</ele>
        <time>2021-03-21T09:56:31Z</time>
      </trkpt>
      <trkpt lat="43.67118" lon="3.87934">
        <ele>112</ele>
        <time>2021-03-21T09:56:33Z</time>
      </trkpt>
      <trkpt lat="43.67122" lon="3.87933">
        <ele>112</ele>
        <time>2021-03-21T09:56:35Z</time>
      </trkpt>
      <trkpt lat="43.67125" lon="3.87933">
        <ele>112</ele>
        <time>2021-03-21T09:56:37Z</time>
      </trkpt>
      <trkpt lat="43.67128" lon="3.87933">
        <ele>112</ele>
        <time>2021-03-21T09:56:39Z</time>
      </trkpt>
      <trkpt lat="43.6713" lon="3.87934">
        <ele>112</ele>
        <time>2021-03-21T09:56:41Z</time>
      </trkpt>
      <trkpt lat="43.67134" lon="3.87933">
        <ele>112</ele>
        <time>2021-03-21T09:56:43Z</time>
      </trkpt>
      <trkpt lat="43.67136" lon="3.87933">
        <ele>112</ele>
        <time>2021-03-21T09:56:44Z</time>
      </trkpt>
      <trkpt lat="43.67138" lon="3.87933">
        <ele>112</ele>
        <time>2021-03-21T09:56:46Z</time>
      </trkpt>
      <trkpt lat="43.67141" lon="3.87931">
        <ele>112</ele>
        <time>2021-03-21T09:56:48Z</time>
      </trkpt>
      <trkpt lat="43.67143" lon="3.87932">
        <ele>112</ele>
        <time>2021-03-21T09:56:50Z</time>
      </trkpt>
      <trkpt lat="43.67145" lon="3.87934">
        <ele>112</ele>
        <time>2021-03-21T09:56:52Z</time>
      </trkpt>
      <trkpt lat="43.67146" lon="3.87934">
        <ele>119</ele>
        <time>2021-03-21T09:57:01Z</time>
      </trkpt>
      <trkpt lat="43.67155" lon="3.87932">
        <ele>119</ele>
        <time>2021-03-21T09:57:57Z</time>
      </trkpt>
      <trkpt lat="43.67158" lon="3.87934">
        <ele>119</ele>
        <time>2021-03-21T09:57:58Z</time>
      </trkpt>
      <trkpt lat="43.6716" lon="3.87935">
        <ele>119</ele>
        <time>2021-03-21T09:57:59Z</time>
      </trkpt>
      <trkpt lat="43.67161" lon="3.87937">
        <ele>119</ele>
        <time>2021-03-21T09:58:00Z</time>
      </trkpt>
      <trkpt lat="43.67163" lon="3.87939">
        <ele>119</ele>
        <time>2021-03-21T09:58:01Z</time>
      </trkpt>
      <trkpt lat="43.67165" lon="3.87941">
        <ele>119</ele>
        <time>2021-03-21T09:58:02Z</time>
      </trkpt>
      <trkpt lat="43.67166" lon="3.87943">
        <ele>119</ele>
        <time>2021-03-21T09:58:03Z</time>
      </trkpt>
      <trkpt lat="43.67168" lon="3.87945">
        <ele>119</ele>
        <time>2021-03-21T09:58:04Z</time>
      </trkpt>
      <trkpt lat="43.6717" lon="3.87948">
        <ele>119</ele>
        <time>2021-03-21T09:58:05Z</time>
      </trkpt>
      <trkpt lat="43.67172" lon="3.87949">
        <ele>119</ele>
        <time>2021-03-21T09:58:06Z</time>
      </trkpt>
      <trkpt lat="43.67173" lon="3.87951">
        <ele>117</ele>
        <time>2021-03-21T09:58:07Z</time>
      </trkpt>
      <trkpt lat="43.67177" lon="3.87955">
        <ele>117</ele>
        <time>2021-03-21T09:58:08Z</time>
      </trkpt>
      <trkpt lat="43.67179" lon="3.87957">
        <ele>117</ele>
        <time>2021-03-21T09:58:10Z</time>
      </trkpt>
      <trkpt lat="43.6718" lon="3.87959">
        <ele>117</ele>
        <time>2021-03-21T09:58:11Z</time>
      </trkpt>
      <trkpt lat="43.67184" lon="3.87963">
        <ele>117</ele>
        <time>2021-03-21T09:58:12Z</time>
      </trkpt>
      <trkpt lat="43.67186" lon="3.87964">
        <ele>117</ele>
        <time>2021-03-21T09:58:14Z</time>
      </trkpt>
      <trkpt lat="43.67189" lon="3.87968">
        <ele>117</ele>
        <time>2021-03-21T09:58:15Z</time>
      </trkpt>
      <trkpt lat="43.6719" lon="3.8797">
        <ele>117</ele>
        <time>2021-03-21T09:58:17Z</time>
      </trkpt>
      <trkpt lat="43.67192" lon="3.87972">
        <ele>117</ele>
        <time>2021-03-21T09:58:18Z</time>
      </trkpt>
      <trkpt lat="43.67194" lon="3.87976">
        <ele>117</ele>
        <time>2021-03-21T09:58:19Z</time>
      </trkpt>
      <trkpt lat="43.67196" lon="3.87977">
        <ele>117</ele>
        <time>2021-03-21T09:58:21Z</time>
      </trkpt>
      <trkpt lat="43.67199" lon="3.87979">
        <ele>117</ele>
        <time>2021-03-21T09:58:22Z</time>
      </trkpt>
      <trkpt lat="43.67202" lon="3.87981">
        <ele>117</ele>
        <time>2021-03-21T09:58:25Z</time>
      </trkpt>
      <trkpt lat="43.67204" lon="3.87985">
        <ele>119</ele>
        <time>2021-03-21T09:58:27Z</time>
      </trkpt>
      <trkpt lat="43.67207" lon="3.87988">
        <ele>119</ele>
        <time>2021-03-21T09:58:29Z</time>
      </trkpt>
      <trkpt lat="43.67209" lon="3.87991">
        <ele>119</ele>
        <time>2021-03-21T09:58:31Z</time>
      </trkpt>
      <trkpt lat="43.67211" lon="3.87994">
        <ele>119</ele>
        <time>2021-03-21T09:58:33Z</time>
      </trkpt>
      <trkpt lat="43.67214" lon="3.87998">
        <ele>119</ele>
        <time>2021-03-21T09:58:35Z</time>
      </trkpt>
      <trkpt lat="43.67215" lon="3.88">
        <ele>119</ele>
        <time>2021-03-21T09:58:36Z</time>
      </trkpt>
      <trkpt lat="43.67217" lon="3.88003">
        <ele>119</ele>
        <time>2021-03-21T09:58:38Z</time>
      </trkpt>
      <trkpt lat="43.67219" lon="3.88005">
        <ele>119</ele>
        <time>2021-03-21T09:58:39Z</time>
      </trkpt>
      <trkpt lat="43.6722" lon="3.88009">
        <ele>119</ele>
        <time>2021-03-21T09:58:41Z</time>
      </trkpt>
      <trkpt lat="43.67222" lon="3.88012">
        <ele>119</ele>
        <time>2021-03-21T09:58:43Z</time>
      </trkpt>
      <trkpt lat="43.67225" lon="3.88013">
        <ele>119</ele>
        <time>2021-03-21T09:58:45Z</time>
      </trkpt>
      <trkpt lat="43.67227" lon="3.88013">
        <ele>119</ele>
        <time>2021-03-21T09:58:46Z</time>
      </trkpt>
      <trkpt lat="43.67229" lon="3.88014">
        <ele>121</ele>
        <time>2021-03-21T09:58:47Z</time>
      </trkpt>
      <trkpt lat="43.67231" lon="3.88014">
        <ele>121</ele>
        <time>2021-03-21T09:58:48Z</time>
      </trkpt>
      <trkpt lat="43.67234" lon="3.88014">
        <ele>121</ele>
        <time>2021-03-21T09:58:50Z</time>
      </trkpt>
      <trkpt lat="43.67236" lon="3.8801">
        <ele>121</ele>
        <time>2021-03-21T09:58:52Z</time>
      </trkpt>
      <trkpt lat="43.67237" lon="3.88008">
        <ele>121</ele>
        <time>2021-03-21T09:58:53Z</time>
      </trkpt>
      <trkpt lat="43.67238" lon="3.88005">
        <ele>121</ele>
        <time>2021-03-21T09:58:54Z</time>
      </trkpt>
      <trkpt lat="43.67239" lon="3.88002">
        <ele>121</ele>
        <time>2021-03-21T09:58:55Z</time>
      </trkpt>
      <trkpt lat="43.6724" lon="3.87998">
        <ele>121</ele>
        <time>2021-03-21T09:58:56Z</time>
      </trkpt>
      <trkpt lat="43.67242" lon="3.87993">
        <ele>121</ele>
        <time>2021-03-21T09:58:57Z</time>
      </trkpt>
      <trkpt lat="43.67243" lon="3.87987">
        <ele>121</ele>
        <time>2021-03-21T09:58:58Z</time>
      </trkpt>
      <trkpt lat="43.67244" lon="3.8798">
        <ele>121</ele>
        <time>2021-03-21T09:58:59Z</time>
      </trkpt>
      <trkpt lat="43.67246" lon="3.87974">
        <ele>121</ele>
        <time>2021-03-21T09:59:00Z</time>
      </trkpt>
      <trkpt lat="43.67249" lon="3.87969">
        <ele>121</ele>
        <time>2021-03-21T09:59:01Z</time>
      </trkpt>
      <trkpt lat="43.67253" lon="3.87966">
        <ele>121</ele>
        <time>2021-03-21T09:59:02Z</time>
      </trkpt>
      <trkpt lat="43.67257" lon="3.87963">
        <ele>121</ele>
        <time>2021-03-21T09:59:03Z</time>
      </trkpt>
      <trkpt lat="43.6726" lon="3.8796">
        <ele>121</ele>
        <time>2021-03-21T09:59:04Z</time>
      </trkpt>
      <trkpt lat="43.67264" lon="3.87957">
        <ele>121</ele>
        <time>2021-03-21T09:59:05Z</time>
      </trkpt>
      <trkpt lat="43.67268" lon="3.87954">
        <ele>121</ele>
        <time>2021-03-21T09:59:06Z</time>
      </trkpt>
      <trkpt lat="43.67272" lon="3.8795">
        <ele>120</ele>
        <time>2021-03-21T09:59:07Z</time>
      </trkpt>
      <trkpt lat="43.67276" lon="3.87948">
        <ele>120</ele>
        <time>2021-03-21T09:59:08Z</time>
      </trkpt>
      <trkpt lat="43.6728" lon="3.87948">
        <ele>120</ele>
        <time>2021-03-21T09:59:09Z</time>
      </trkpt>
      <trkpt lat="43.67283" lon="3.87949">
        <ele>120</ele>
        <time>2021-03-21T09:59:10Z</time>
      </trkpt>
      <trkpt lat="43.67287" lon="3.87954">
        <ele>120</ele>
        <time>2021-03-21T09:59:11Z</time>
      </trkpt>
      <trkpt lat="43.67289" lon="3.87958">
        <ele>120</ele>
        <time>2021-03-21T09:59:12Z</time>
      </trkpt>
      <trkpt lat="43.67292" lon="3.8796">
        <ele>120</ele>
        <time>2021-03-21T09:59:13Z</time>
      </trkpt>
      <trkpt lat="43.67296" lon="3.87962">
        <ele>120</ele>
        <time>2021-03-21T09:59:14Z</time>
      </trkpt>
      <trkpt lat="43.67299" lon="3.87966">
        <ele>120</ele>
        <time>2021-03-21T09:59:15Z</time>
      </trkpt>
      <trkpt lat="43.67303" lon="3.8797">
        <ele>120</ele>
        <time>2021-03-21T09:59:16Z</time>
      </trkpt>
      <trkpt lat="43.67306" lon="3.87973">
        <ele>119</ele>
        <time>2021-03-21T09:59:17Z</time>
      </trkpt>
      <trkpt lat="43.6731" lon="3.87976">
        <ele>119</ele>
        <time>2021-03-21T09:59:18Z</time>
      </trkpt>
      <trkpt lat="43.67313" lon="3.87978">
        <ele>119</ele>
        <time>2021-03-21T09:59:19Z</time>
      </trkpt>
      <trkpt lat="43.67316" lon="3.8798">
        <ele>119</ele>
        <time>2021-03-21T09:59:20Z</time>
      </trkpt>
      <trkpt lat="43.67319" lon="3.87981">
        <ele>119</ele>
        <time>2021-03-21T09:59:21Z</time>
      </trkpt>
      <trkpt lat="43.67322" lon="3.87983">
        <ele>119</ele>
        <time>2021-03-21T09:59:22Z</time>
      </trkpt>
      <trkpt lat="43.67324" lon="3.87984">
        <ele>119</ele>
        <time>2021-03-21T09:59:23Z</time>
      </trkpt>
      <trkpt lat="43.67327" lon="3.87982">
        <ele>119</ele>
        <time>2021-03-21T09:59:24Z</time>
      </trkpt>
      <trkpt lat="43.67329" lon="3.87978">
        <ele>119</ele>
        <time>2021-03-21T09:59:25Z</time>
      </trkpt>
      <trkpt lat="43.67332" lon="3.87976">
        <ele>119</ele>
        <time>2021-03-21T09:59:26Z</time>
      </trkpt>
      <trkpt lat="43.67333" lon="3.87973">
        <ele>118</ele>
        <time>2021-03-21T09:59:27Z</time>
      </trkpt>
      <trkpt lat="43.67333" lon="3.8797">
        <ele>118</ele>
        <time>2021-03-21T09:59:29Z</time>
      </trkpt>
      <trkpt lat="43.67331" lon="3.87969">
        <ele>118</ele>
        <time>2021-03-21T09:59:30Z</time>
      </trkpt>
      <trkpt lat="43.67329" lon="3.87965">
        <ele>118</ele>
        <time>2021-03-21T09:59:31Z</time>
      </trkpt>
      <trkpt lat="43.67327" lon="3.87959">
        <ele>118</ele>
        <time>2021-03-21T09:59:32Z</time>
      </trkpt>
      <trkpt lat="43.67326" lon="3.87954">
        <ele>118</ele>
        <time>2021-03-21T09:59:33Z</time>
      </trkpt>
      <trkpt lat="43.67327" lon="3.8795">
        <ele>118</ele>
        <time>2021-03-21T09:59:34Z</time>
      </trkpt>
      <trkpt lat="43.67328" lon="3.87947">
        <ele>118</ele>
        <time>2021-03-21T09:59:35Z</time>
      </trkpt>
      <trkpt lat="43.6733" lon="3.87945">
        <ele>118</ele>
        <time>2021-03-21T09:59:36Z</time>
      </trkpt>
      <trkpt lat="43.67333" lon="3.87944">
        <ele>116</ele>
        <time>2021-03-21T09:59:37Z</time>
      </trkpt>
      <trkpt lat="43.67335" lon="3.87943">
        <ele>116</ele>
        <time>2021-03-21T09:59:38Z</time>
      </trkpt>
      <trkpt lat="43.67338" lon="3.87941">
        <ele>116</ele>
        <time>2021-03-21T09:59:39Z</time>
      </trkpt>
      <trkpt lat="43.67341" lon="3.87939">
        <ele>116</ele>
        <time>2021-03-21T09:59:40Z</time>
      </trkpt>
      <trkpt lat="43.67345" lon="3.87937">
        <ele>116</ele>
        <time>2021-03-21T09:59:41Z</time>
      </trkpt>
      <trkpt lat="43.67348" lon="3.87934">
        <ele>116</ele>
        <time>2021-03-21T09:59:42Z</time>
      </trkpt>
      <trkpt lat="43.67351" lon="3.87932">
        <ele>116</ele>
        <time>2021-03-21T09:59:43Z</time>
      </trkpt>
      <trkpt lat="43.67353" lon="3.87928">
        <ele>116</ele>
        <time>2021-03-21T09:59:44Z</time>
      </trkpt>
      <trkpt lat="43.67356" lon="3.87924">
        <ele>116</ele>
        <time>2021-03-21T09:59:45Z</time>
      </trkpt>
      <trkpt lat="43.67357" lon="3.87918">
        <ele>116</ele>
        <time>2021-03-21T09:59:46Z</time>
      </trkpt>
      <trkpt lat="43.67359" lon="3.87913">
        <ele>113</ele>
        <time>2021-03-21T09:59:47Z</time>
      </trkpt>
      <trkpt lat="43.67362" lon="3.87907">
        <ele>113</ele>
        <time>2021-03-21T09:59:48Z</time>
      </trkpt>
      <trkpt lat="43.67365" lon="3.87902">
        <ele>113</ele>
        <time>2021-03-21T09:59:49Z</time>
      </trkpt>
      <trkpt lat="43.67369" lon="3.87899">
        <ele>113</ele>
        <time>2021-03-21T09:59:50Z</time>
      </trkpt>
      <trkpt lat="43.67372" lon="3.87895">
        <ele>113</ele>
        <time>2021-03-21T09:59:51Z</time>
      </trkpt>
      <trkpt lat="43.67375" lon="3.87892">
        <ele>113</ele>
        <time>2021-03-21T09:59:52Z</time>
      </trkpt>
      <trkpt lat="43.67378" lon="3.87888">
        <ele>113</ele>
        <time>2021-03-21T09:59:53Z</time>
      </trkpt>
      <trkpt lat="43.67382" lon="3.87884">
        <ele>113</ele>
        <time>2021-03-21T09:59:54Z</time>
      </trkpt>
      <trkpt lat="43.67385" lon="3.87881">
        <ele>113</ele>
        <time>2021-03-21T09:59:55Z</time>
      </trkpt>
      <trkpt lat="43.67387" lon="3.87878">
        <ele>113</ele>
        <time>2021-03-21T09:59:56Z</time>
      </trkpt>
      <trkpt lat="43.67389" lon="3.87874">
        <ele>108</ele>
        <time>2021-03-21T09:59:57Z</time>
      </trkpt>
      <trkpt lat="43.67391" lon="3.87872">
        <ele>108</ele>
        <time>2021-03-21T09:59:58Z</time>
      </trkpt>
      <trkpt lat="43.67393" lon="3.87869">
        <ele>108</ele>
        <time>2021-03-21T09:59:59Z</time>
      </trkpt>
      <trkpt lat="43.67396" lon="3.87866">
        <ele>108</ele>
        <time>2021-03-21T10:00:00Z</time>
      </trkpt>
      <trkpt lat="43.67399" lon="3.87863">
        <ele>108</ele>
        <time>2021-03-21T10:00:01Z</time>
      </trkpt>
      <trkpt lat="43.67401" lon="3.8786">
        <ele>108</ele>
        <time>2021-03-21T10:00:02Z</time>
      </trkpt>
      <trkpt lat="43.67403" lon="3.87858">
        <ele>108</ele>
        <time>2021-03-21T10:00:03Z</time>
      </trkpt>
      <trkpt lat="43.67406" lon="3.87857">
        <ele>108</ele>
        <time>2021-03-21T10:00:04Z</time>
      </trkpt>
      <trkpt lat="43.67408" lon="3.87856">
        <ele>108</ele>
        <time>2021-03-21T10:00:05Z</time>
      </trkpt>
      <trkpt lat="43.6741" lon="3.87854">
        <ele>104</ele>
        <time>2021-03-21T10:00:06Z</time>
      </trkpt>
      <trkpt lat="43.67412" lon="3.87852">
        <ele>104</ele>
        <time>2021-03-21T10:00:07Z</time>
      </trkpt>
      <trkpt lat="43.67414" lon="3.87848">
        <ele>104</ele>
        <time>2021-03-21T10:00:08Z</time>
      </trkpt>
      <trkpt lat="43.67416" lon="3.87845">
        <ele>104</ele>
        <time>2021-03-21T10:00:09Z</time>
      </trkpt>
      <trkpt lat="43.67417" lon="3.87844">
        <ele>104</ele>
        <time>2021-03-21T10:00:10Z</time>
      </trkpt>
      <trkpt lat="43.6742" lon="3.87845">
        <ele>104</ele>
        <time>2021-03-21T10:00:12Z</time>
      </trkpt>
      <trkpt lat="43.67423" lon="3.87845">
        <ele>104</ele>
        <time>2021-03-21T10:00:14Z</time>
      </trkpt>
      <trkpt lat="43.67427" lon="3.87846">
        <ele>104</ele>
        <time>2021-03-21T10:00:16Z</time>
      </trkpt>
      <trkpt lat="43.67429" lon="3.87847">
        <ele>102</ele>
        <time>2021-03-21T10:00:17Z</time>
      </trkpt>
      <trkpt lat="43.6743" lon="3.87848">
        <ele>102</ele>
        <time>2021-03-21T10:00:18Z</time>
      </trkpt>
      <trkpt lat="43.67431" lon="3.8785">
        <ele>102</ele>
        <time>2021-03-21T10:00:19Z</time>
      </trkpt>
      <trkpt lat="43.67432" lon="3.87853">
        <ele>102</ele>
        <time>2021-03-21T10:00:20Z</time>
      </trkpt>
      <trkpt lat="43.67433" lon="3.87855">
        <ele>102</ele>
        <time>2021-03-21T10:00:21Z</time>
      </trkpt>
      <trkpt lat="43.67434" lon="3.87858">
        <ele>102</ele>
        <time>2021-03-21T10:00:22Z</time>
      </trkpt>
      <trkpt lat="43.67436" lon="3.8786">
        <ele>102</ele>
        <time>2021-03-21T10:00:23Z</time>
      </trkpt>
      <trkpt lat="43.67437" lon="3.87863">
        <ele>102</ele>
        <time>2021-03-21T10:00:24Z</time>
      </trkpt>
      <trkpt lat="43.67438" lon="3.87867">
        <ele>102</ele>
        <time>2021-03-21T10:00:26Z</time>
      </trkpt>
      <trkpt lat="43.6744" lon="3.8787">
        <ele>102</ele>
        <time>2021-03-21T10:00:28Z</time>
      </trkpt>
      <trkpt lat="43.67441" lon="3.87872">
        <ele>102</ele>
        <time>2021-03-21T10:00:29Z</time>
      </trkpt>
      <trkpt lat="43.67442" lon="3.87875">
        <ele>102</ele>
        <time>2021-03-21T10:00:30Z</time>
      </trkpt>
      <trkpt lat="43.67442" lon="3.87878">
        <ele>102</ele>
        <time>2021-03-21T10:00:32Z</time>
      </trkpt>
      <trkpt lat="43.67444" lon="3.8788">
        <ele>102</ele>
        <time>2021-03-21T10:00:34Z</time>
      </trkpt>
      <trkpt lat="43.67446" lon="3.87882">
        <ele>98</ele>
        <time>2021-03-21T10:00:36Z</time>
      </trkpt>
      <trkpt lat="43.67448" lon="3.87881">
        <ele>98</ele>
        <time>2021-03-21T10:00:44Z</time>
      </trkpt>
      <trkpt lat="43.6745" lon="3.8788">
        <ele>98</ele>
        <time>2021-03-21T10:00:49Z</time>
      </trkpt>
      <trkpt lat="43.67452" lon="3.87882">
        <ele>99</ele>
        <time>2021-03-21T10:00:55Z</time>
      </trkpt>
      <trkpt lat="43.67464" lon="3.87885">
        <ele>101</ele>
        <time>2021-03-21T10:02:42Z</time>
      </trkpt>
      <trkpt lat="43.67465" lon="3.87887">
        <ele>101</ele>
        <time>2021-03-21T10:02:43Z</time>
      </trkpt>
      <trkpt lat="43.67467" lon="3.87889">
        <ele>101</ele>
        <time>2021-03-21T10:02:44Z</time>
      </trkpt>
      <trkpt lat="43.67469" lon="3.87891">
        <ele>101</ele>
        <time>2021-03-21T10:02:45Z</time>
      </trkpt>
      <trkpt lat="43.67471" lon="3.87892">
        <ele>101</ele>
        <time>2021-03-21T10:02:46Z</time>
      </trkpt>
      <trkpt lat="43.67473" lon="3.87892">
        <ele>101</ele>
        <time>2021-03-21T10:02:47Z</time>
      </trkpt>
      <trkpt lat="43.67475" lon="3.87893">
        <ele>101</ele>
        <time>2021-03-21T10:02:48Z</time>
      </trkpt>
      <trkpt lat="43.67477" lon="3.87894">
        <ele>101</ele>
        <time>2021-03-21T10:02:49Z</time>
      </trkpt>
      <trkpt lat="43.67478" lon="3.87898">
        <ele>101</ele>
        <time>2021-03-21T10:02:51Z</time>
      </trkpt>
      <trkpt lat="43.67478" lon="3.87901">
        <ele>101</ele>
        <time>2021-03-21T10:02:53Z</time>
      </trkpt>
      <trkpt lat="43.67479" lon="3.87904">
        <ele>101</ele>
        <time>2021-03-21T10:02:55Z</time>
      </trkpt>
      <trkpt lat="43.67481" lon="3.87908">
        <ele>101</ele>
        <time>2021-03-21T10:02:57Z</time>
      </trkpt>
      <trkpt lat="43.67481" lon="3.87912">
        <ele>101</ele>
        <time>2021-03-21T10:02:59Z</time>
      </trkpt>
      <trkpt lat="43.67483" lon="3.87916">
        <ele>101</ele>
        <time>2021-03-21T10:03:01Z</time>
      </trkpt>
      <trkpt lat="43.67484" lon="3.87919">
        <ele>101</ele>
        <time>2021-03-21T10:03:03Z</time>
      </trkpt>
      <trkpt lat="43.67485" lon="3.8792">
        <ele>103</ele>
        <time>2021-03-21T10:03:14Z</time>
      </trkpt>
      <trkpt lat="43.67477" lon="3.87907">
        <ele>102</ele>
        <time>2021-03-21T10:03:25Z</time>
      </trkpt>
      <trkpt lat="43.67477" lon="3.87904">
        <ele>102</ele>
        <time>2021-03-21T10:03:26Z</time>
      </trkpt>
      <trkpt lat="43.67477" lon="3.879">
        <ele>102</ele>
        <time>2021-03-21T10:03:28Z</time>
      </trkpt>
      <trkpt lat="43.67475" lon="3.87898">
        <ele>102</ele>
        <time>2021-03-21T10:03:30Z</time>
      </trkpt>
      <trkpt lat="43.67472" lon="3.87898">
        <ele>102</ele>
        <time>2021-03-21T10:03:32Z</time>
      </trkpt>
      <trkpt lat="43.6747" lon="3.87896">
        <ele>102</ele>
        <time>2021-03-21T10:03:33Z</time>
      </trkpt>
      <trkpt lat="43.67469" lon="3.87893">
        <ele>102</ele>
        <time>2021-03-21T10:03:34Z</time>
      </trkpt>
      <trkpt lat="43.67467" lon="3.87891">
        <ele>102</ele>
        <time>2021-03-21T10:03:35Z</time>
      </trkpt>
      <trkpt lat="43.67466" lon="3.87888">
        <ele>102</ele>
        <time>2021-03-21T10:03:36Z</time>
      </trkpt>
      <trkpt lat="43.67464" lon="3.87887">
        <ele>102</ele>
        <time>2021-03-21T10:03:37Z</time>
      </trkpt>
      <trkpt lat="43.67462" lon="3.87886">
        <ele>102</ele>
        <time>2021-03-21T10:03:38Z</time>
      </trkpt>
      <trkpt lat="43.6746" lon="3.87885">
        <ele>102</ele>
        <time>2021-03-21T10:03:39Z</time>
      </trkpt>
      <trkpt lat="43.67458" lon="3.87884">
        <ele>102</ele>
        <time>2021-03-21T10:03:40Z</time>
      </trkpt>
      <trkpt lat="43.67456" lon="3.87881">
        <ele>102</ele>
        <time>2021-03-21T10:03:42Z</time>
      </trkpt>
      <trkpt lat="43.67455" lon="3.87878">
        <ele>102</ele>
        <time>2021-03-21T10:03:43Z</time>
      </trkpt>
      <trkpt lat="43.67454" lon="3.87874">
        <ele>102</ele>
        <time>2021-03-21T10:03:44Z</time>
      </trkpt>
      <trkpt lat="43.67453" lon="3.8787">
        <ele>99</ele>
        <time>2021-03-21T10:03:45Z</time>
      </trkpt>
      <trkpt lat="43.67452" lon="3.87866">
        <ele>99</ele>
        <time>2021-03-21T10:03:46Z</time>
      </trkpt>
      <trkpt lat="43.67451" lon="3.87861">
        <ele>99</ele>
        <time>2021-03-21T10:03:47Z</time>
      </trkpt>
      <trkpt lat="43.67452" lon="3.87852">
        <ele>99</ele>
        <time>2021-03-21T10:03:48Z</time>
      </trkpt>
      <trkpt lat="43.67452" lon="3.87848">
        <ele>99</ele>
        <time>2021-03-21T10:03:50Z</time>
      </trkpt>
      <trkpt lat="43.6745" lon="3.87841">
        <ele>99</ele>
        <time>2021-03-21T10:03:51Z</time>
      </trkpt>
      <trkpt lat="43.6745" lon="3.87837">
        <ele>99</ele>
        <time>2021-03-21T10:03:53Z</time>
      </trkpt>
      <trkpt lat="43.67449" lon="3.87834">
        <ele>99</ele>
        <time>2021-03-21T10:03:54Z</time>
      </trkpt>
      <trkpt lat="43.67448" lon="3.87831">
        <ele>99</ele>
        <time>2021-03-21T10:03:55Z</time>
      </trkpt>
      <trkpt lat="43.67448" lon="3.87828">
        <ele>99</ele>
        <time>2021-03-21T10:03:56Z</time>
      </trkpt>
      <trkpt lat="43.67447" lon="3.87825">
        <ele>99</ele>
        <time>2021-03-21T10:03:57Z</time>
      </trkpt>
      <trkpt lat="43.67446" lon="3.87821">
        <ele>99</ele>
        <time>2021-03-21T10:03:58Z</time>
      </trkpt>
      <trkpt lat="43.67445" lon="3.87818">
        <ele>99</ele>
        <time>2021-03-21T10:03:59Z</time>
      </trkpt>
      <trkpt lat="43.67444" lon="3.87815">
        <ele>99</ele>
        <time>2021-03-21T10:04:00Z</time>
      </trkpt>
      <trkpt lat="43.67443" lon="3.87812">
        <ele>99</ele>
        <time>2021-03-21T10:04:01Z</time>
      </trkpt>
      <trkpt lat="43.67442" lon="3.87809">
        <ele>99</ele>
        <time>2021-03-21T10:04:02Z</time>
      </trkpt>
      <trkpt lat="43.67444" lon="3.87807">
        <ele>99</ele>
        <time>2021-03-21T10:04:04Z</time>
      </trkpt>
      <trkpt lat="43.67446" lon="3.87808">
        <ele>98</ele>
        <time>2021-03-21T10:04:05Z</time>
      </trkpt>
      <trkpt lat="43.67449" lon="3.87808">
        <ele>98</ele>
        <time>2021-03-21T10:04:07Z</time>
      </trkpt>
      <trkpt lat="43.67452" lon="3.87808">
        <ele>98</ele>
        <time>2021-03-21T10:04:09Z</time>
      </trkpt>
      <trkpt lat="43.67454" lon="3.87808">
        <ele>98</ele>
        <time>2021-03-21T10:04:10Z</time>
      </trkpt>
      <trkpt lat="43.67458" lon="3.87807">
        <ele>98</ele>
        <time>2021-03-21T10:04:12Z</time>
      </trkpt>
      <trkpt lat="43.67459" lon="3.87806">
        <ele>98</ele>
        <time>2021-03-21T10:04:13Z</time>
      </trkpt>
      <trkpt lat="43.67461" lon="3.87804">
        <ele>98</ele>
        <time>2021-03-21T10:04:14Z</time>
      </trkpt>
      <trkpt lat="43.67463" lon="3.87799">
        <ele>98</ele>
        <time>2021-03-21T10:04:16Z</time>
      </trkpt>
      <trkpt lat="43.67464" lon="3.87796">
        <ele>98</ele>
        <time>2021-03-21T10:04:17Z</time>
      </trkpt>
      <trkpt lat="43.67465" lon="3.87794">
        <ele>98</ele>
        <time>2021-03-21T10:04:18Z</time>
      </trkpt>
      <trkpt lat="43.67466" lon="3.87791">
        <ele>98</ele>
        <time>2021-03-21T10:04:19Z</time>
      </trkpt>
      <trkpt lat="43.67468" lon="3.87788">
        <ele>98</ele>
        <time>2021-03-21T10:04:21Z</time>
      </trkpt>
      <trkpt lat="43.67469" lon="3.87786">
        <ele>98</ele>
        <time>2021-03-21T10:04:22Z</time>
      </trkpt>
      <trkpt lat="43.6747" lon="3.87783">
        <ele>98</ele>
        <time>2021-03-21T10:04:23Z</time>
      </trkpt>
      <trkpt lat="43.67471" lon="3.8778">
        <ele>98</ele>
        <time>2021-03-21T10:04:24Z</time>
      </trkpt>
      <trkpt lat="43.67472" lon="3.87778">
        <ele>100</ele>
        <time>2021-03-21T10:04:25Z</time>
      </trkpt>
      <trkpt lat="43.67474" lon="3.87776">
        <ele>100</ele>
        <time>2021-03-21T10:04:26Z</time>
      </trkpt>
      <trkpt lat="43.67475" lon="3.87772">
        <ele>100</ele>
        <time>2021-03-21T10:04:28Z</time>
      </trkpt>
      <trkpt lat="43.67476" lon="3.87768">
        <ele>100</ele>
        <time>2021-03-21T10:04:30Z</time>
      </trkpt>
      <trkpt lat="43.67477" lon="3.87764">
        <ele>100</ele>
        <time>2021-03-21T10:04:31Z</time>
      </trkpt>
      <trkpt lat="43.67477" lon="3.87762">
        <ele>100</ele>
        <time>2021-03-21T10:04:32Z</time>
      </trkpt>
      <trkpt lat="43.67477" lon="3.87759">
        <ele>100</ele>
        <time>2021-03-21T10:04:33Z</time>
      </trkpt>
      <trkpt lat="43.67477" lon="3.87756">
        <ele>100</ele>
        <time>2021-03-21T10:04:34Z</time>
      </trkpt>
      <trkpt lat="43.67477" lon="3.87752">
        <ele>100</ele>
        <time>2021-03-21T10:04:35Z</time>
      </trkpt>
      <trkpt lat="43.67477" lon="3.87749">
        <ele>100</ele>
        <time>2021-03-21T10:04:36Z</time>
      </trkpt>
      <trkpt lat="43.67477" lon="3.87747">
        <ele>100</ele>
        <time>2021-03-21T10:04:37Z</time>
      </trkpt>
      <trkpt lat="43.67477" lon="3.87744">
        <ele>100</ele>
        <time>2021-03-21T10:04:39Z</time>
      </trkpt>
      <trkpt lat="43.67477" lon="3.87739">
        <ele>100</ele>
        <time>2021-03-21T10:04:42Z</time>
      </trkpt>
      <trkpt lat="43.67478" lon="3.87737">
        <ele>100</ele>
        <time>2021-03-21T10:04:43Z</time>
      </trkpt>
      <trkpt lat="43.67479" lon="3.87735">
        <ele>100</ele>
        <time>2021-03-21T10:04:44Z</time>
      </trkpt>
      <trkpt lat="43.67482" lon="3.87733">
        <ele>101</ele>
        <time>2021-03-21T10:04:45Z</time>
      </trkpt>
      <trkpt lat="43.67484" lon="3.87732">
        <ele>101</ele>
        <time>2021-03-21T10:04:46Z</time>
      </trkpt>
      <trkpt lat="43.67486" lon="3.87732">
        <ele>101</ele>
        <time>2021-03-21T10:04:47Z</time>
      </trkpt>
      <trkpt lat="43.67489" lon="3.87732">
        <ele>101</ele>
        <time>2021-03-21T10:04:48Z</time>
      </trkpt>
      <trkpt lat="43.67491" lon="3.87732">
        <ele>101</ele>
        <time>2021-03-21T10:04:49Z</time>
      </trkpt>
      <trkpt lat="43.67494" lon="3.87729">
        <ele>101</ele>
        <time>2021-03-21T10:04:51Z</time>
      </trkpt>
      <trkpt lat="43.67493" lon="3.87726">
        <ele>101</ele>
        <time>2021-03-21T10:04:52Z</time>
      </trkpt>
      <trkpt lat="43.67493" lon="3.87723">
        <ele>101</ele>
        <time>2021-03-21T10:04:53Z</time>
      </trkpt>
      <trkpt lat="43.67493" lon="3.8772">
        <ele>101</ele>
        <time>2021-03-21T10:04:54Z</time>
      </trkpt>
      <trkpt lat="43.67494" lon="3.87718">
        <ele>101</ele>
        <time>2021-03-21T10:04:55Z</time>
      </trkpt>
      <trkpt lat="43.67495" lon="3.87715">
        <ele>101</ele>
        <time>2021-03-21T10:04:56Z</time>
      </trkpt>
      <trkpt lat="43.67496" lon="3.87711">
        <ele>101</ele>
        <time>2021-03-21T10:04:57Z</time>
      </trkpt>
      <trkpt lat="43.67499" lon="3.87707">
        <ele>101</ele>
        <time>2021-03-21T10:04:58Z</time>
      </trkpt>
      <trkpt lat="43.67502" lon="3.87701">
        <ele>101</ele>
        <time>2021-03-21T10:04:59Z</time>
      </trkpt>
      <trkpt lat="43.67504" lon="3.87696">
        <ele>101</ele>
        <time>2021-03-21T10:05:00Z</time>
      </trkpt>
      <trkpt lat="43.67507" lon="3.87691">
        <ele>101</ele>
        <time>2021-03-21T10:05:01Z</time>
      </trkpt>
      <trkpt lat="43.67509" lon="3.87687">
        <ele>101</ele>
        <time>2021-03-21T10:05:02Z</time>
      </trkpt>
      <trkpt lat="43.67511" lon="3.87683">
        <ele>101</ele>
        <time>2021-03-21T10:05:03Z</time>
      </trkpt>
      <trkpt lat="43.67513" lon="3.87679">
        <ele>101</ele>
        <time>2021-03-21T10:05:04Z</time>
      </trkpt>
      <trkpt lat="43.67517" lon="3.87677">
        <ele>100</ele>
        <time>2021-03-21T10:05:05Z</time>
      </trkpt>
      <trkpt lat="43.6752" lon="3.87674">
        <ele>100</ele>
        <time>2021-03-21T10:05:06Z</time>
      </trkpt>
      <trkpt lat="43.67522" lon="3.87671">
        <ele>100</ele>
        <time>2021-03-21T10:05:07Z</time>
      </trkpt>
      <trkpt lat="43.67525" lon="3.87668">
        <ele>100</ele>
        <time>2021-03-21T10:05:08Z</time>
      </trkpt>
      <trkpt lat="43.67527" lon="3.87664">
        <ele>100</ele>
        <time>2021-03-21T10:05:09Z</time>
      </trkpt>
      <trkpt lat="43.67528" lon="3.8766">
        <ele>100</ele>
        <time>2021-03-21T10:05:10Z</time>
      </trkpt>
      <trkpt lat="43.67529" lon="3.87656">
        <ele>100</ele>
        <time>2021-03-21T10:05:11Z</time>
      </trkpt>
      <trkpt lat="43.6753" lon="3.87652">
        <ele>100</ele>
        <time>2021-03-21T10:05:12Z</time>
      </trkpt>
      <trkpt lat="43.67531" lon="3.8765">
        <ele>100</ele>
        <time>2021-03-21T10:05:13Z</time>
      </trkpt>
      <trkpt lat="43.67533" lon="3.87649">
        <ele>100</ele>
        <time>2021-03-21T10:05:14Z</time>
      </trkpt>
      <trkpt lat="43.67536" lon="3.87649">
        <ele>100</ele>
        <time>2021-03-21T10:05:15Z</time>
      </trkpt>
      <trkpt lat="43.67539" lon="3.8765">
        <ele>100</ele>
        <time>2021-03-21T10:05:16Z</time>
      </trkpt>
      <trkpt lat="43.67541" lon="3.87652">
        <ele>100</ele>
        <time>2021-03-21T10:05:17Z</time>
      </trkpt>
      <trkpt lat="43.67543" lon="3.87653">
        <ele>100</ele>
        <time>2021-03-21T10:05:22Z</time>
      </trkpt>
      <trkpt lat="43.67557" lon="3.87668">
        <ele>98</ele>
        <time>2021-03-21T10:05:53Z</time>
      </trkpt>
      <trkpt lat="43.67561" lon="3.87673">
        <ele>98</ele>
        <time>2021-03-21T10:05:54Z</time>
      </trkpt>
      <trkpt lat="43.67564" lon="3.87678">
        <ele>98</ele>
        <time>2021-03-21T10:05:55Z</time>
      </trkpt>
      <trkpt lat="43.67567" lon="3.87683">
        <ele>98</ele>
        <time>2021-03-21T10:05:56Z</time>
      </trkpt>
      <trkpt lat="43.67569" lon="3.87687">
        <ele>98</ele>
        <time>2021-03-21T10:05:57Z</time>
      </trkpt>
      <trkpt lat="43.6757" lon="3.87689">
        <ele>98</ele>
        <time>2021-03-21T10:05:58Z</time>
      </trkpt>
      <trkpt lat="43.67573" lon="3.8769">
        <ele>98</ele>
        <time>2021-03-21T10:06:00Z</time>
      </trkpt>
      <trkpt lat="43.67575" lon="3.87692">
        <ele>98</ele>
        <time>2021-03-21T10:06:01Z</time>
      </trkpt>
      <trkpt lat="43.67576" lon="3.87694">
        <ele>98</ele>
        <time>2021-03-21T10:06:02Z</time>
      </trkpt>
      <trkpt lat="43.67578" lon="3.87697">
        <ele>98</ele>
        <time>2021-03-21T10:06:04Z</time>
      </trkpt>
      <trkpt lat="43.6758" lon="3.87701">
        <ele>98</ele>
        <time>2021-03-21T10:06:06Z</time>
      </trkpt>
      <trkpt lat="43.6758" lon="3.87704">
        <ele>98</ele>
        <time>2021-03-21T10:06:08Z</time>
      </trkpt>
      <trkpt lat="43.6758" lon="3.87701">
        <ele>98</ele>
        <time>2021-03-21T10:06:18Z</time>
      </trkpt>
      <trkpt lat="43.67579" lon="3.87697">
        <ele>98</ele>
        <time>2021-03-21T10:06:19Z</time>
      </trkpt>
      <trkpt lat="43.67578" lon="3.87695">
        <ele>98</ele>
        <time>2021-03-21T10:06:20Z</time>
      </trkpt>
      <trkpt lat="43.67576" lon="3.87692">
        <ele>98</ele>
        <time>2021-03-21T10:06:22Z</time>
      </trkpt>
      <trkpt lat="43.67573" lon="3.8769">
        <ele>97</ele>
        <time>2021-03-21T10:06:23Z</time>
      </trkpt>
      <trkpt lat="43.6757" lon="3.87687">
        <ele>97</ele>
        <time>2021-03-21T10:06:24Z</time>
      </trkpt>
      <trkpt lat="43.67567" lon="3.87684">
        <ele>97</ele>
        <time>2021-03-21T10:06:25Z</time>
      </trkpt>
      <trkpt lat="43.67564" lon="3.87681">
        <ele>97</ele>
        <time>2021-03-21T10:06:26Z</time>
      </trkpt>
      <trkpt lat="43.67562" lon="3.87676">
        <ele>97</ele>
        <time>2021-03-21T10:06:27Z</time>
      </trkpt>
      <trkpt lat="43.67561" lon="3.87672">
        <ele>97</ele>
        <time>2021-03-21T10:06:28Z</time>
      </trkpt>
      <trkpt lat="43.6756" lon="3.87667">
        <ele>97</ele>
        <time>2021-03-21T10:06:29Z</time>
      </trkpt>
      <trkpt lat="43.67559" lon="3.87664">
        <ele>97</ele>
        <time>2021-03-21T10:06:30Z</time>
      </trkpt>
      <trkpt lat="43.67557" lon="3.87662">
        <ele>97</ele>
        <time>2021-03-21T10:06:31Z</time>
      </trkpt>
      <trkpt lat="43.67555" lon="3.87661">
        <ele>97</ele>
        <time>2021-03-21T10:06:32Z</time>
      </trkpt>
      <trkpt lat="43.67553" lon="3.87662">
        <ele>97</ele>
        <time>2021-03-21T10:06:34Z</time>
      </trkpt>
      <trkpt lat="43.67552" lon="3.87664">
        <ele>97</ele>
        <time>2021-03-21T10:06:36Z</time>
      </trkpt>
      <trkpt lat="43.67551" lon="3.87668">
        <ele>97</ele>
        <time>2021-03-21T10:06:38Z</time>
      </trkpt>
      <trkpt lat="43.6755" lon="3.87672">
        <ele>97</ele>
        <time>2021-03-21T10:06:40Z</time>
      </trkpt>
      <trkpt lat="43.67549" lon="3.87675">
        <ele>97</ele>
        <time>2021-03-21T10:06:41Z</time>
      </trkpt>
      <trkpt lat="43.67549" lon="3.87678">
        <ele>97</ele>
        <time>2021-03-21T10:06:42Z</time>
      </trkpt>
      <trkpt lat="43.67549" lon="3.87682">
        <ele>96</ele>
        <time>2021-03-21T10:06:43Z</time>
      </trkpt>
      <trkpt lat="43.67548" lon="3.87685">
        <ele>96</ele>
        <time>2021-03-21T10:06:44Z</time>
      </trkpt>
      <trkpt lat="43.67548" lon="3.87688">
        <ele>96</ele>
        <time>2021-03-21T10:06:45Z</time>
      </trkpt>
      <trkpt lat="43.67547" lon="3.87692">
        <ele>96</ele>
        <time>2021-03-21T10:06:46Z</time>
      </trkpt>
      <trkpt lat="43.67546" lon="3.87695">
        <ele>96</ele>
        <time>2021-03-21T10:06:47Z</time>
      </trkpt>
      <trkpt lat="43.67545" lon="3.87698">
        <ele>96</ele>
        <time>2021-03-21T10:06:48Z</time>
      </trkpt>
      <trkpt lat="43.67545" lon="3.877">
        <ele>96</ele>
        <time>2021-03-21T10:06:49Z</time>
      </trkpt>
      <trkpt lat="43.67544" lon="3.87703">
        <ele>96</ele>
        <time>2021-03-21T10:06:50Z</time>
      </trkpt>
      <trkpt lat="43.67543" lon="3.87706">
        <ele>96</ele>
        <time>2021-03-21T10:06:51Z</time>
      </trkpt>
      <trkpt lat="43.67542" lon="3.87708">
        <ele>98</ele>
        <time>2021-03-21T10:06:52Z</time>
      </trkpt>
      <trkpt lat="43.67541" lon="3.87711">
        <ele>98</ele>
        <time>2021-03-21T10:06:53Z</time>
      </trkpt>
      <trkpt lat="43.6754" lon="3.87716">
        <ele>98</ele>
        <time>2021-03-21T10:06:55Z</time>
      </trkpt>
      <trkpt lat="43.6754" lon="3.87719">
        <ele>98</ele>
        <time>2021-03-21T10:06:56Z</time>
      </trkpt>
      <trkpt lat="43.67539" lon="3.87724">
        <ele>98</ele>
        <time>2021-03-21T10:06:58Z</time>
      </trkpt>
      <trkpt lat="43.67539" lon="3.87728">
        <ele>98</ele>
        <time>2021-03-21T10:07:00Z</time>
      </trkpt>
      <trkpt lat="43.67538" lon="3.87732">
        <ele>98</ele>
        <time>2021-03-21T10:07:02Z</time>
      </trkpt>
      <trkpt lat="43.67537" lon="3.87736">
        <ele>98</ele>
        <time>2021-03-21T10:07:04Z</time>
      </trkpt>
      <trkpt lat="43.67537" lon="3.87739">
        <ele>98</ele>
        <time>2021-03-21T10:07:06Z</time>
      </trkpt>
      <trkpt lat="43.67537" lon="3.87743">
        <ele>98</ele>
        <time>2021-03-21T10:07:08Z</time>
      </trkpt>
      <trkpt lat="43.67537" lon="3.87747">
        <ele>98</ele>
        <time>2021-03-21T10:07:10Z</time>
      </trkpt>
      <trkpt lat="43.67537" lon="3.87751">
        <ele>98</ele>
        <time>2021-03-21T10:07:12Z</time>
      </trkpt>
      <trkpt lat="43.67537" lon="3.87755">
        <ele>98</ele>
        <time>2021-03-21T10:07:14Z</time>
      </trkpt>
      <trkpt lat="43.67538" lon="3.87759">
        <ele>98</ele>
        <time>2021-03-21T10:07:16Z</time>
      </trkpt>
      <trkpt lat="43.67539" lon="3.87762">
        <ele>98</ele>
        <time>2021-03-21T10:07:18Z</time>
      </trkpt>
      <trkpt lat="43.6754" lon="3.87766">
        <ele>98</ele>
        <time>2021-03-21T10:07:20Z</time>
      </trkpt>
      <trkpt lat="43.6754" lon="3.8777">
        <ele>98</ele>
        <time>2021-03-21T10:07:22Z</time>
      </trkpt>
      <trkpt lat="43.67541" lon="3.87774">
        <ele>98</ele>
        <time>2021-03-21T10:07:24Z</time>
      </trkpt>
      <trkpt lat="43.67542" lon="3.87778">
        <ele>98</ele>
        <time>2021-03-21T10:07:25Z</time>
      </trkpt>
      <trkpt lat="43.67542" lon="3.87782">
        <ele>98</ele>
        <time>2021-03-21T10:07:28Z</time>
      </trkpt>
      <trkpt lat="43.67541" lon="3.87786">
        <ele>98</ele>
        <time>2021-03-21T10:07:30Z</time>
      </trkpt>
      <trkpt lat="43.67541" lon="3.8779">
        <ele>98</ele>
        <time>2021-03-21T10:07:32Z</time>
      </trkpt>
      <trkpt lat="43.67542" lon="3.87794">
        <ele>98</ele>
        <time>2021-03-21T10:07:34Z</time>
      </trkpt>
      <trkpt lat="43.67543" lon="3.87796">
        <ele>98</ele>
        <time>2021-03-21T10:07:35Z</time>
      </trkpt>
      <trkpt lat="43.67545" lon="3.87801">
        <ele>98</ele>
        <time>2021-03-21T10:07:37Z</time>
      </trkpt>
      <trkpt lat="43.67546" lon="3.87803">
        <ele>98</ele>
        <time>2021-03-21T10:07:38Z</time>
      </trkpt>
      <trkpt lat="43.67547" lon="3.87805">
        <ele>98</ele>
        <time>2021-03-21T10:07:39Z</time>
      </trkpt>
      <trkpt lat="43.67547" lon="3.87808">
        <ele>98</ele>
        <time>2021-03-21T10:07:40Z</time>
      </trkpt>
      <trkpt lat="43.67548" lon="3.87813">
        <ele>98</ele>
        <time>2021-03-21T10:07:42Z</time>
      </trkpt>
      <trkpt lat="43.67548" lon="3.87817">
        <ele>98</ele>
        <time>2021-03-21T10:07:44Z</time>
      </trkpt>
      <trkpt lat="43.67548" lon="3.8782">
        <ele>98</ele>
        <time>2021-03-21T10:07:45Z</time>
      </trkpt>
      <trkpt lat="43.67547" lon="3.87823">
        <ele>98</ele>
        <time>2021-03-21T10:07:46Z</time>
      </trkpt>
      <trkpt lat="43.67547" lon="3.87826">
        <ele>98</ele>
        <time>2021-03-21T10:07:47Z</time>
      </trkpt>
      <trkpt lat="43.67547" lon="3.87828">
        <ele>98</ele>
        <time>2021-03-21T10:07:48Z</time>
      </trkpt>
      <trkpt lat="43.67548" lon="3.87831">
        <ele>98</ele>
        <time>2021-03-21T10:07:49Z</time>
      </trkpt>
      <trkpt lat="43.67547" lon="3.87834">
        <ele>98</ele>
        <time>2021-03-21T10:07:50Z</time>
      </trkpt>
      <trkpt lat="43.67546" lon="3.87838">
        <ele>98</ele>
        <time>2021-03-21T10:07:54Z</time>
      </trkpt>
      <trkpt lat="43.67545" lon="3.8784">
        <ele>98</ele>
        <time>2021-03-21T10:07:56Z</time>
      </trkpt>
      <trkpt lat="43.67546" lon="3.87844">
        <ele>98</ele>
        <time>2021-03-21T10:08:00Z</time>
      </trkpt>
      <trkpt lat="43.67546" lon="3.8785">
        <ele>98</ele>
        <time>2021-03-21T10:08:02Z</time>
      </trkpt>
      <trkpt lat="43.67546" lon="3.87853">
        <ele>107</ele>
        <time>2021-03-21T10:08:03Z</time>
      </trkpt>
      <trkpt lat="43.67545" lon="3.87856">
        <ele>107</ele>
        <time>2021-03-21T10:08:04Z</time>
      </trkpt>
      <trkpt lat="43.67545" lon="3.87859">
        <ele>107</ele>
        <time>2021-03-21T10:08:05Z</time>
      </trkpt>
      <trkpt lat="43.67544" lon="3.87863">
        <ele>107</ele>
        <time>2021-03-21T10:08:09Z</time>
      </trkpt>
      <trkpt lat="43.67544" lon="3.87865">
        <ele>107</ele>
        <time>2021-03-21T10:08:13Z</time>
      </trkpt>
      <trkpt lat="43.67543" lon="3.87885">
        <ele>107</ele>
        <time>2021-03-21T10:08:30Z</time>
      </trkpt>
      <trkpt lat="43.67543" lon="3.87888">
        <ele>107</ele>
        <time>2021-03-21T10:08:31Z</time>
      </trkpt>
      <trkpt lat="43.67543" lon="3.8789">
        <ele>107</ele>
        <time>2021-03-21T10:08:32Z</time>
      </trkpt>
      <trkpt lat="43.67544" lon="3.87893">
        <ele>107</ele>
        <time>2021-03-21T10:08:33Z</time>
      </trkpt>
      <trkpt lat="43.67544" lon="3.87896">
        <ele>107</ele>
        <time>2021-03-21T10:08:34Z</time>
      </trkpt>
      <trkpt lat="43.67544" lon="3.87899">
        <ele>107</ele>
        <time>2021-03-21T10:08:35Z</time>
      </trkpt>
      <trkpt lat="43.67545" lon="3.87902">
        <ele>107</ele>
        <time>2021-03-21T10:08:36Z</time>
      </trkpt>
      <trkpt lat="43.67546" lon="3.87905">
        <ele>107</ele>
        <time>2021-03-21T10:08:37Z</time>
      </trkpt>
      <trkpt lat="43.67546" lon="3.8791">
        <ele>107</ele>
        <time>2021-03-21T10:08:39Z</time>
      </trkpt>
      <trkpt lat="43.67546" lon="3.87914">
        <ele>107</ele>
        <time>2021-03-21T10:08:40Z</time>
      </trkpt>
      <trkpt lat="43.67546" lon="3.87917">
        <ele>107</ele>
        <time>2021-03-21T10:08:41Z</time>
      </trkpt>
      <trkpt lat="43.67545" lon="3.8792">
        <ele>107</ele>
        <time>2021-03-21T10:08:42Z</time>
      </trkpt>
      <trkpt lat="43.67545" lon="3.87923">
        <ele>107</ele>
        <time>2021-03-21T10:08:43Z</time>
      </trkpt>
      <trkpt lat="43.67546" lon="3.87925">
        <ele>107</ele>
        <time>2021-03-21T10:08:44Z</time>
      </trkpt>
      <trkpt lat="43.67546" lon="3.87928">
        <ele>107</ele>
        <time>2021-03-21T10:08:45Z</time>
      </trkpt>
      <trkpt lat="43.67546" lon="3.87931">
        <ele>107</ele>
        <time>2021-03-21T10:08:46Z</time>
      </trkpt>
      <trkpt lat="43.67546" lon="3.87934">
        <ele>107</ele>
        <time>2021-03-21T10:08:47Z</time>
      </trkpt>
      <trkpt lat="43.67546" lon="3.87937">
        <ele>107</ele>
        <time>2021-03-21T10:08:48Z</time>
      </trkpt>
      <trkpt lat="43.67546" lon="3.87941">
        <ele>107</ele>
        <time>2021-03-21T10:08:49Z</time>
      </trkpt>
      <trkpt lat="43.67547" lon="3.87945">
        <ele>107</ele>
        <time>2021-03-21T10:08:50Z</time>
      </trkpt>
      <trkpt lat="43.67548" lon="3.87949">
        <ele>107</ele>
        <time>2021-03-21T10:08:51Z</time>
      </trkpt>
      <trkpt lat="43.67548" lon="3.87952">
        <ele>107</ele>
        <time>2021-03-21T10:08:52Z</time>
      </trkpt>
      <trkpt lat="43.67549" lon="3.87956">
        <ele>107</ele>
        <time>2021-03-21T10:08:53Z</time>
      </trkpt>
      <trkpt lat="43.6755" lon="3.8796">
        <ele>107</ele>
        <time>2021-03-21T10:08:54Z</time>
      </trkpt>
      <trkpt lat="43.6755" lon="3.87963">
        <ele>107</ele>
        <time>2021-03-21T10:08:55Z</time>
      </trkpt>
      <trkpt lat="43.67551" lon="3.87966">
        <ele>107</ele>
        <time>2021-03-21T10:08:56Z</time>
      </trkpt>
      <trkpt lat="43.67552" lon="3.87969">
        <ele>107</ele>
        <time>2021-03-21T10:08:57Z</time>
      </trkpt>
      <trkpt lat="43.67553" lon="3.87972">
        <ele>107</ele>
        <time>2021-03-21T10:08:58Z</time>
      </trkpt>
      <trkpt lat="43.67553" lon="3.87975">
        <ele>108</ele>
        <time>2021-03-21T10:08:59Z</time>
      </trkpt>
      <trkpt lat="43.67554" lon="3.87978">
        <ele>108</ele>
        <time>2021-03-21T10:09:00Z</time>
      </trkpt>
      <trkpt lat="43.67554" lon="3.87981">
        <ele>108</ele>
        <time>2021-03-21T10:09:01Z</time>
      </trkpt>
      <trkpt lat="43.67555" lon="3.87984">
        <ele>108</ele>
        <time>2021-03-21T10:09:02Z</time>
      </trkpt>
      <trkpt lat="43.67555" lon="3.87987">
        <ele>108</ele>
        <time>2021-03-21T10:09:03Z</time>
      </trkpt>
      <trkpt lat="43.67556" lon="3.8799">
        <ele>108</ele>
        <time>2021-03-21T10:09:04Z</time>
      </trkpt>
      <trkpt lat="43.67557" lon="3.87993">
        <ele>108</ele>
        <time>2021-03-21T10:09:05Z</time>
      </trkpt>
      <trkpt lat="43.67558" lon="3.87996">
        <ele>108</ele>
        <time>2021-03-21T10:09:06Z</time>
      </trkpt>
      <trkpt lat="43.67559" lon="3.88">
        <ele>108</ele>
        <time>2021-03-21T10:09:07Z</time>
      </trkpt>
      <trkpt lat="43.67561" lon="3.88003">
        <ele>108</ele>
        <time>2021-03-21T10:09:08Z</time>
      </trkpt>
      <trkpt lat="43.67562" lon="3.88006">
        <ele>107</ele>
        <time>2021-03-21T10:09:09Z</time>
      </trkpt>
      <trkpt lat="43.67563" lon="3.88009">
        <ele>107</ele>
        <time>2021-03-21T10:09:10Z</time>
      </trkpt>
      <trkpt lat="43.67563" lon="3.88012">
        <ele>107</ele>
        <time>2021-03-21T10:09:11Z</time>
      </trkpt>
      <trkpt lat="43.67563" lon="3.88015">
        <ele>107</ele>
        <time>2021-03-21T10:09:12Z</time>
      </trkpt>
      <trkpt lat="43.67563" lon="3.88018">
        <ele>107</ele>
        <time>2021-03-21T10:09:13Z</time>
      </trkpt>
      <trkpt lat="43.67563" lon="3.88021">
        <ele>107</ele>
        <time>2021-03-21T10:09:14Z</time>
      </trkpt>
      <trkpt lat="43.67564" lon="3.88024">
        <ele>107</ele>
        <time>2021-03-21T10:09:15Z</time>
      </trkpt>
      <trkpt lat="43.67564" lon="3.88027">
        <ele>107</ele>
        <time>2021-03-21T10:09:16Z</time>
      </trkpt>
      <trkpt lat="43.67563" lon="3.88029">
        <ele>107</ele>
        <time>2021-03-21T10:09:17Z</time>
      </trkpt>
      <trkpt lat="43.67563" lon="3.88032">
        <ele>107</ele>
        <time>2021-03-21T10:09:18Z</time>
      </trkpt>
      <trkpt lat="43.67563" lon="3.88034">
        <ele>109</ele>
        <time>2021-03-21T10:09:19Z</time>
      </trkpt>
      <trkpt lat="43.67562" lon="3.88037">
        <ele>109</ele>
        <time>2021-03-21T10:09:20Z</time>
      </trkpt>
      <trkpt lat="43.67562" lon="3.8804">
        <ele>109</ele>
        <time>2021-03-21T10:09:21Z</time>
      </trkpt>
      <trkpt lat="43.67561" lon="3.88042">
        <ele>109</ele>
        <time>2021-03-21T10:09:22Z</time>
      </trkpt>
      <trkpt lat="43.67561" lon="3.88045">
        <ele>109</ele>
        <time>2021-03-21T10:09:23Z</time>
      </trkpt>
      <trkpt lat="43.67562" lon="3.88049">
        <ele>109</ele>
        <time>2021-03-21T10:09:25Z</time>
      </trkpt>
      <trkpt lat="43.67562" lon="3.88054">
        <ele>109</ele>
        <time>2021-03-21T10:09:27Z</time>
      </trkpt>
      <trkpt lat="43.67562" lon="3.88058">
        <ele>110</ele>
        <time>2021-03-21T10:09:29Z</time>
      </trkpt>
      <trkpt lat="43.67562" lon="3.88062">
        <ele>110</ele>
        <time>2021-03-21T10:09:31Z</time>
      </trkpt>
      <trkpt lat="43.67562" lon="3.88067">
        <ele>110</ele>
        <time>2021-03-21T10:09:33Z</time>
      </trkpt>
      <trkpt lat="43.67562" lon="3.88071">
        <ele>110</ele>
        <time>2021-03-21T10:09:35Z</time>
      </trkpt>
      <trkpt lat="43.67561" lon="3.88074">
        <ele>110</ele>
        <time>2021-03-21T10:09:37Z</time>
      </trkpt>
      <trkpt lat="43.67562" lon="3.88078">
        <ele>112</ele>
        <time>2021-03-21T10:09:39Z</time>
      </trkpt>
      <trkpt lat="43.67562" lon="3.88081">
        <ele>112</ele>
        <time>2021-03-21T10:09:41Z</time>
      </trkpt>
      <trkpt lat="43.67562" lon="3.88084">
        <ele>112</ele>
        <time>2021-03-21T10:09:43Z</time>
      </trkpt>
      <trkpt lat="43.67563" lon="3.88088">
        <ele>112</ele>
        <time>2021-03-21T10:09:45Z</time>
      </trkpt>
      <trkpt lat="43.67564" lon="3.88091">
        <ele>112</ele>
        <time>2021-03-21T10:09:47Z</time>
      </trkpt>
      <trkpt lat="43.67565" lon="3.88095">
        <ele>114</ele>
        <time>2021-03-21T10:09:49Z</time>
      </trkpt>
      <trkpt lat="43.67566" lon="3.88098">
        <ele>114</ele>
        <time>2021-03-21T10:09:51Z</time>
      </trkpt>
      <trkpt lat="43.67567" lon="3.88101">
        <ele>114</ele>
        <time>2021-03-21T10:09:53Z</time>
      </trkpt>
      <trkpt lat="43.67568" lon="3.88105">
        <ele>114</ele>
        <time>2021-03-21T10:09:55Z</time>
      </trkpt>
      <trkpt lat="43.67569" lon="3.88108">
        <ele>114</ele>
        <time>2021-03-21T10:09:57Z</time>
      </trkpt>
      <trkpt lat="43.6757" lon="3.88111">
        <ele>114</ele>
        <time>2021-03-21T10:09:59Z</time>
      </trkpt>
      <trkpt lat="43.67572" lon="3.88115">
        <ele>114</ele>
        <time>2021-03-21T10:10:01Z</time>
      </trkpt>
      <trkpt lat="43.67572" lon="3.88119">
        <ele>114</ele>
        <time>2021-03-21T10:10:03Z</time>
      </trkpt>
      <trkpt lat="43.67573" lon="3.88122">
        <ele>114</ele>
        <time>2021-03-21T10:10:05Z</time>
      </trkpt>
      <trkpt lat="43.67575" lon="3.88123">
        <ele>114</ele>
        <time>2021-03-21T10:10:07Z</time>
      </trkpt>
      <trkpt lat="43.67578" lon="3.88125">
        <ele>116</ele>
        <time>2021-03-21T10:10:09Z</time>
      </trkpt>
      <trkpt lat="43.6758" lon="3.88128">
        <ele>116</ele>
        <time>2021-03-21T10:10:11Z</time>
      </trkpt>
      <trkpt lat="43.67582" lon="3.88131">
        <ele>116</ele>
        <time>2021-03-21T10:10:13Z</time>
      </trkpt>
      <trkpt lat="43.67584" lon="3.88135">
        <ele>116</ele>
        <time>2021-03-21T10:10:15Z</time>
      </trkpt>
      <trkpt lat="43.67586" lon="3.88138">
        <ele>116</ele>
        <time>2021-03-21T10:10:17Z</time>
      </trkpt>
      <trkpt lat="43.67587" lon="3.88141">
        <ele>118</ele>
        <time>2021-03-21T10:10:19Z</time>
      </trkpt>
      <trkpt lat="43.67589" lon="3.88143">
        <ele>118</ele>
        <time>2021-03-21T10:10:21Z</time>
      </trkpt>
      <trkpt lat="43.67591" lon="3.88146">
        <ele>118</ele>
        <time>2021-03-21T10:10:23Z</time>
      </trkpt>
      <trkpt lat="43.67593" lon="3.88149">
        <ele>118</ele>
        <time>2021-03-21T10:10:25Z</time>
      </trkpt>
      <trkpt lat="43.67594" lon="3.88152">
        <ele>118</ele>
        <time>2021-03-21T10:10:27Z</time>
      </trkpt>
      <trkpt lat="43.67596" lon="3.88155">
        <ele>119</ele>
        <time>2021-03-21T10:10:29Z</time>
      </trkpt>
      <trkpt lat="43.67598" lon="3.88158">
        <ele>119</ele>
        <time>2021-03-21T10:10:31Z</time>
      </trkpt>
      <trkpt lat="43.67599" lon="3.88161">
        <ele>119</ele>
        <time>2021-03-21T10:10:33Z</time>
      </trkpt>
      <trkpt lat="43.67602" lon="3.88163">
        <ele>119</ele>
        <time>2021-03-21T10:10:35Z</time>
      </trkpt>
      <trkpt lat="43.67603" lon="3.88166">
        <ele>119</ele>
        <time>2021-03-21T10:10:37Z</time>
      </trkpt>
      <trkpt lat="43.67604" lon="3.8817">
        <ele>121</ele>
        <time>2021-03-21T10:10:39Z</time>
      </trkpt>
      <trkpt lat="43.67605" lon="3.88173">
        <ele>121</ele>
        <time>2021-03-21T10:10:41Z</time>
      </trkpt>
      <trkpt lat="43.67606" lon="3.88178">
        <ele>121</ele>
        <time>2021-03-21T10:10:43Z</time>
      </trkpt>
      <trkpt lat="43.67605" lon="3.8818">
        <ele>121</ele>
        <time>2021-03-21T10:10:44Z</time>
      </trkpt>
      <trkpt lat="43.67604" lon="3.88182">
        <ele>121</ele>
        <time>2021-03-21T10:10:45Z</time>
      </trkpt>
      <trkpt lat="43.67603" lon="3.88186">
        <ele>121</ele>
        <time>2021-03-21T10:10:47Z</time>
      </trkpt>
      <trkpt lat="43.67601" lon="3.88189">
        <ele>121</ele>
        <time>2021-03-21T10:10:51Z</time>
      </trkpt>
      <trkpt lat="43.67599" lon="3.88193">
        <ele>121</ele>
        <time>2021-03-21T10:10:53Z</time>
      </trkpt>
      <trkpt lat="43.67598" lon="3.88195">
        <ele>121</ele>
        <time>2021-03-21T10:10:54Z</time>
      </trkpt>
      <trkpt lat="43.67597" lon="3.88198">
        <ele>121</ele>
        <time>2021-03-21T10:10:55Z</time>
      </trkpt>
      <trkpt lat="43.67596" lon="3.88201">
        <ele>121</ele>
        <time>2021-03-21T10:10:56Z</time>
      </trkpt>
      <trkpt lat="43.67596" lon="3.88203">
        <ele>121</ele>
        <time>2021-03-21T10:10:57Z</time>
      </trkpt>
      <trkpt lat="43.67594" lon="3.88206">
        <ele>123</ele>
        <time>2021-03-21T10:10:59Z</time>
      </trkpt>
      <trkpt lat="43.67592" lon="3.88209">
        <ele>123</ele>
        <time>2021-03-21T10:11:01Z</time>
      </trkpt>
      <trkpt lat="43.6759" lon="3.88211">
        <ele>123</ele>
        <time>2021-03-21T10:11:02Z</time>
      </trkpt>
      <trkpt lat="43.6759" lon="3.88214">
        <ele>123</ele>
        <time>2021-03-21T10:11:03Z</time>
      </trkpt>
      <trkpt lat="43.67589" lon="3.88218">
        <ele>123</ele>
        <time>2021-03-21T10:11:04Z</time>
      </trkpt>
      <trkpt lat="43.67588" lon="3.88222">
        <ele>123</ele>
        <time>2021-03-21T10:11:05Z</time>
      </trkpt>
      <trkpt lat="43.67588" lon="3.88226">
        <ele>123</ele>
        <time>2021-03-21T10:11:06Z</time>
      </trkpt>
      <trkpt lat="43.67587" lon="3.8823">
        <ele>123</ele>
        <time>2021-03-21T10:11:07Z</time>
      </trkpt>
      <trkpt lat="43.67586" lon="3.88233">
        <ele>123</ele>
        <time>2021-03-21T10:11:08Z</time>
      </trkpt>
      <trkpt lat="43.67584" lon="3.88236">
        <ele>124</ele>
        <time>2021-03-21T10:11:09Z</time>
      </trkpt>
      <trkpt lat="43.67583" lon="3.88239">
        <ele>124</ele>
        <time>2021-03-21T10:11:10Z</time>
      </trkpt>
      <trkpt lat="43.67581" lon="3.88241">
        <ele>124</ele>
        <time>2021-03-21T10:11:11Z</time>
      </trkpt>
      <trkpt lat="43.6758" lon="3.88243">
        <ele>124</ele>
        <time>2021-03-21T10:11:12Z</time>
      </trkpt>
      <trkpt lat="43.67579" lon="3.88246">
        <ele>124</ele>
        <time>2021-03-21T10:11:13Z</time>
      </trkpt>
      <trkpt lat="43.67578" lon="3.88249">
        <ele>124</ele>
        <time>2021-03-21T10:11:14Z</time>
      </trkpt>
      <trkpt lat="43.67578" lon="3.88252">
        <ele>124</ele>
        <time>2021-03-21T10:11:15Z</time>
      </trkpt>
      <trkpt lat="43.67578" lon="3.88254">
        <ele>124</ele>
        <time>2021-03-21T10:11:16Z</time>
      </trkpt>
      <trkpt lat="43.67575" lon="3.88257">
        <ele>124</ele>
        <time>2021-03-21T10:11:18Z</time>
      </trkpt>
      <trkpt lat="43.67572" lon="3.8826">
        <ele>124</ele>
        <time>2021-03-21T10:11:20Z</time>
      </trkpt>
      <trkpt lat="43.6757" lon="3.88263">
        <ele>124</ele>
        <time>2021-03-21T10:11:22Z</time>
      </trkpt>
      <trkpt lat="43.67568" lon="3.88265">
        <ele>124</ele>
        <time>2021-03-21T10:11:24Z</time>
      </trkpt>
      <trkpt lat="43.67565" lon="3.88267">
        <ele>124</ele>
        <time>2021-03-21T10:11:26Z</time>
      </trkpt>
      <trkpt lat="43.67562" lon="3.8827">
        <ele>124</ele>
        <time>2021-03-21T10:11:28Z</time>
      </trkpt>
      <trkpt lat="43.6756" lon="3.88273">
        <ele>124</ele>
        <time>2021-03-21T10:11:30Z</time>
      </trkpt>
      <trkpt lat="43.67557" lon="3.88274">
        <ele>124</ele>
        <time>2021-03-21T10:11:32Z</time>
      </trkpt>
      <trkpt lat="43.67556" lon="3.88275">
        <ele>124</ele>
        <time>2021-03-21T10:11:33Z</time>
      </trkpt>
      <trkpt lat="43.67554" lon="3.88275">
        <ele>124</ele>
        <time>2021-03-21T10:11:34Z</time>
      </trkpt>
      <trkpt lat="43.6755" lon="3.88275">
        <ele>124</ele>
        <time>2021-03-21T10:11:36Z</time>
      </trkpt>
      <trkpt lat="43.67547" lon="3.88276">
        <ele>128</ele>
        <time>2021-03-21T10:11:38Z</time>
      </trkpt>
      <trkpt lat="43.67546" lon="3.88279">
        <ele>128</ele>
        <time>2021-03-21T10:11:40Z</time>
      </trkpt>
      <trkpt lat="43.67546" lon="3.88283">
        <ele>128</ele>
        <time>2021-03-21T10:11:43Z</time>
      </trkpt>
      <trkpt lat="43.67545" lon="3.88286">
        <ele>128</ele>
        <time>2021-03-21T10:11:45Z</time>
      </trkpt>
      <trkpt lat="43.67543" lon="3.88289">
        <ele>128</ele>
        <time>2021-03-21T10:11:47Z</time>
      </trkpt>
      <trkpt lat="43.67542" lon="3.88279">
        <ele>125</ele>
        <time>2021-03-21T10:16:52Z</time>
      </trkpt>
      <trkpt lat="43.67544" lon="3.88276">
        <ele>125</ele>
        <time>2021-03-21T10:16:53Z</time>
      </trkpt>
      <trkpt lat="43.67546" lon="3.88275">
        <ele>125</ele>
        <time>2021-03-21T10:16:54Z</time>
      </trkpt>
      <trkpt lat="43.67549" lon="3.88274">
        <ele>125</ele>
        <time>2021-03-21T10:16:55Z</time>
      </trkpt>
      <trkpt lat="43.67551" lon="3.88272">
        <ele>125</ele>
        <time>2021-03-21T10:16:56Z</time>
      </trkpt>
      <trkpt lat="43.67554" lon="3.88271">
        <ele>125</ele>
        <time>2021-03-21T10:16:57Z</time>
      </trkpt>
      <trkpt lat="43.67556" lon="3.88269">
        <ele>125</ele>
        <time>2021-03-21T10:16:58Z</time>
      </trkpt>
      <trkpt lat="43.67559" lon="3.88268">
        <ele>125</ele>
        <time>2021-03-21T10:16:59Z</time>
      </trkpt>
      <trkpt lat="43.67561" lon="3.88266">
        <ele>125</ele>
        <time>2021-03-21T10:17:00Z</time>
      </trkpt>
      <trkpt lat="43.67564" lon="3.88264">
        <ele>125</ele>
        <time>2021-03-21T10:17:01Z</time>
      </trkpt>
      <trkpt lat="43.67567" lon="3.88262">
        <ele>124</ele>
        <time>2021-03-21T10:17:02Z</time>
      </trkpt>
      <trkpt lat="43.6757" lon="3.8826">
        <ele>124</ele>
        <time>2021-03-21T10:17:03Z</time>
      </trkpt>
      <trkpt lat="43.67573" lon="3.88259">
        <ele>124</ele>
        <time>2021-03-21T10:17:04Z</time>
      </trkpt>
      <trkpt lat="43.67576" lon="3.88258">
        <ele>124</ele>
        <time>2021-03-21T10:17:05Z</time>
      </trkpt>
      <trkpt lat="43.67578" lon="3.88256">
        <ele>124</ele>
        <time>2021-03-21T10:17:06Z</time>
      </trkpt>
      <trkpt lat="43.67579" lon="3.88252">
        <ele>124</ele>
        <time>2021-03-21T10:17:07Z</time>
      </trkpt>
      <trkpt lat="43.6758" lon="3.88248">
        <ele>124</ele>
        <time>2021-03-21T10:17:08Z</time>
      </trkpt>
      <trkpt lat="43.67581" lon="3.88244">
        <ele>124</ele>
        <time>2021-03-21T10:17:09Z</time>
      </trkpt>
      <trkpt lat="43.67582" lon="3.88241">
        <ele>124</ele>
        <time>2021-03-21T10:17:10Z</time>
      </trkpt>
      <trkpt lat="43.67585" lon="3.88237">
        <ele>123</ele>
        <time>2021-03-21T10:17:12Z</time>
      </trkpt>
      <trkpt lat="43.67586" lon="3.88232">
        <ele>123</ele>
        <time>2021-03-21T10:17:13Z</time>
      </trkpt>
      <trkpt lat="43.67587" lon="3.88229">
        <ele>123</ele>
        <time>2021-03-21T10:17:15Z</time>
      </trkpt>
      <trkpt lat="43.67588" lon="3.88221">
        <ele>123</ele>
        <time>2021-03-21T10:17:16Z</time>
      </trkpt>
      <trkpt lat="43.67591" lon="3.88213">
        <ele>123</ele>
        <time>2021-03-21T10:17:18Z</time>
      </trkpt>
      <trkpt lat="43.67592" lon="3.8821">
        <ele>123</ele>
        <time>2021-03-21T10:17:20Z</time>
      </trkpt>
      <trkpt lat="43.67594" lon="3.88208">
        <ele>123</ele>
        <time>2021-03-21T10:17:21Z</time>
      </trkpt>
      <trkpt lat="43.67596" lon="3.88205">
        <ele>122</ele>
        <time>2021-03-21T10:17:22Z</time>
      </trkpt>
      <trkpt lat="43.67597" lon="3.88201">
        <ele>122</ele>
        <time>2021-03-21T10:17:23Z</time>
      </trkpt>
      <trkpt lat="43.67598" lon="3.88196">
        <ele>122</ele>
        <time>2021-03-21T10:17:24Z</time>
      </trkpt>
      <trkpt lat="43.676" lon="3.88192">
        <ele>122</ele>
        <time>2021-03-21T10:17:25Z</time>
      </trkpt>
      <trkpt lat="43.67602" lon="3.88188">
        <ele>122</ele>
        <time>2021-03-21T10:17:26Z</time>
      </trkpt>
      <trkpt lat="43.67603" lon="3.88183">
        <ele>122</ele>
        <time>2021-03-21T10:17:27Z</time>
      </trkpt>
      <trkpt lat="43.67604" lon="3.88179">
        <ele>122</ele>
        <time>2021-03-21T10:17:28Z</time>
      </trkpt>
      <trkpt lat="43.67604" lon="3.88175">
        <ele>122</ele>
        <time>2021-03-21T10:17:29Z</time>
      </trkpt>
      <trkpt lat="43.67602" lon="3.88171">
        <ele>122</ele>
        <time>2021-03-21T10:17:30Z</time>
      </trkpt>
      <trkpt lat="43.67599" lon="3.88167">
        <ele>122</ele>
        <time>2021-03-21T10:17:31Z</time>
      </trkpt>
      <trkpt lat="43.67597" lon="3.88162">
        <ele>121</ele>
        <time>2021-03-21T10:17:32Z</time>
      </trkpt>
      <trkpt lat="43.67594" lon="3.88157">
        <ele>121</ele>
        <time>2021-03-21T10:17:33Z</time>
      </trkpt>
      <trkpt lat="43.67591" lon="3.88151">
        <ele>121</ele>
        <time>2021-03-21T10:17:34Z</time>
      </trkpt>
      <trkpt lat="43.67587" lon="3.88146">
        <ele>121</ele>
        <time>2021-03-21T10:17:35Z</time>
      </trkpt>
      <trkpt lat="43.67583" lon="3.8814">
        <ele>121</ele>
        <time>2021-03-21T10:17:36Z</time>
      </trkpt>
      <trkpt lat="43.6758" lon="3.88135">
        <ele>121</ele>
        <time>2021-03-21T10:17:37Z</time>
      </trkpt>
      <trkpt lat="43.67576" lon="3.88129">
        <ele>121</ele>
        <time>2021-03-21T10:17:38Z</time>
      </trkpt>
      <trkpt lat="43.67572" lon="3.88126">
        <ele>121</ele>
        <time>2021-03-21T10:17:39Z</time>
      </trkpt>
      <trkpt lat="43.67569" lon="3.88123">
        <ele>121</ele>
        <time>2021-03-21T10:17:40Z</time>
      </trkpt>
      <trkpt lat="43.67568" lon="3.88119">
        <ele>119</ele>
        <time>2021-03-21T10:17:41Z</time>
      </trkpt>
      <trkpt lat="43.67567" lon="3.88114">
        <ele>119</ele>
        <time>2021-03-21T10:17:42Z</time>
      </trkpt>
      <trkpt lat="43.67566" lon="3.88109">
        <ele>119</ele>
        <time>2021-03-21T10:17:43Z</time>
      </trkpt>
      <trkpt lat="43.67564" lon="3.88104">
        <ele>119</ele>
        <time>2021-03-21T10:17:44Z</time>
      </trkpt>
      <trkpt lat="43.67562" lon="3.88098">
        <ele>119</ele>
        <time>2021-03-21T10:17:45Z</time>
      </trkpt>
      <trkpt lat="43.6756" lon="3.88091">
        <ele>119</ele>
        <time>2021-03-21T10:17:46Z</time>
      </trkpt>
      <trkpt lat="43.67559" lon="3.88084">
        <ele>119</ele>
        <time>2021-03-21T10:17:47Z</time>
      </trkpt>
      <trkpt lat="43.67558" lon="3.88077">
        <ele>119</ele>
        <time>2021-03-21T10:17:48Z</time>
      </trkpt>
      <trkpt lat="43.67559" lon="3.88071">
        <ele>119</ele>
        <time>2021-03-21T10:17:49Z</time>
      </trkpt>
      <trkpt lat="43.67559" lon="3.88064">
        <ele>119</ele>
        <time>2021-03-21T10:17:50Z</time>
      </trkpt>
      <trkpt lat="43.67559" lon="3.88056">
        <ele>119</ele>
        <time>2021-03-21T10:17:51Z</time>
      </trkpt>
      <trkpt lat="43.67559" lon="3.88048">
        <ele>117</ele>
        <time>2021-03-21T10:17:52Z</time>
      </trkpt>
      <trkpt lat="43.67558" lon="3.88042">
        <ele>117</ele>
        <time>2021-03-21T10:17:53Z</time>
      </trkpt>
      <trkpt lat="43.67559" lon="3.88036">
        <ele>117</ele>
        <time>2021-03-21T10:17:54Z</time>
      </trkpt>
      <trkpt lat="43.6756" lon="3.88032">
        <ele>117</ele>
        <time>2021-03-21T10:17:55Z</time>
      </trkpt>
      <trkpt lat="43.67561" lon="3.88026">
        <ele>117</ele>
        <time>2021-03-21T10:17:56Z</time>
      </trkpt>
      <trkpt lat="43.67561" lon="3.8802">
        <ele>117</ele>
        <time>2021-03-21T10:17:57Z</time>
      </trkpt>
      <trkpt lat="43.67561" lon="3.88014">
        <ele>117</ele>
        <time>2021-03-21T10:17:58Z</time>
      </trkpt>
      <trkpt lat="43.6756" lon="3.88008">
        <ele>117</ele>
        <time>2021-03-21T10:17:59Z</time>
      </trkpt>
      <trkpt lat="43.6756" lon="3.88004">
        <ele>117</ele>
        <time>2021-03-21T10:18:00Z</time>
      </trkpt>
      <trkpt lat="43.67558" lon="3.87999">
        <ele>117</ele>
        <time>2021-03-21T10:18:01Z</time>
      </trkpt>
      <trkpt lat="43.67556" lon="3.87995">
        <ele>113</ele>
        <time>2021-03-21T10:18:02Z</time>
      </trkpt>
      <trkpt lat="43.67554" lon="3.8799">
        <ele>113</ele>
        <time>2021-03-21T10:18:03Z</time>
      </trkpt>
      <trkpt lat="43.67552" lon="3.87984">
        <ele>113</ele>
        <time>2021-03-21T10:18:04Z</time>
      </trkpt>
      <trkpt lat="43.67551" lon="3.87978">
        <ele>113</ele>
        <time>2021-03-21T10:18:05Z</time>
      </trkpt>
      <trkpt lat="43.67549" lon="3.87971">
        <ele>113</ele>
        <time>2021-03-21T10:18:06Z</time>
      </trkpt>
      <trkpt lat="43.67547" lon="3.87964">
        <ele>113</ele>
        <time>2021-03-21T10:18:07Z</time>
      </trkpt>
      <trkpt lat="43.67546" lon="3.87956">
        <ele>113</ele>
        <time>2021-03-21T10:18:08Z</time>
      </trkpt>
      <trkpt lat="43.67544" lon="3.87949">
        <ele>113</ele>
        <time>2021-03-21T10:18:09Z</time>
      </trkpt>
      <trkpt lat="43.67543" lon="3.87942">
        <ele>113</ele>
        <time>2021-03-21T10:18:10Z</time>
      </trkpt>
      <trkpt lat="43.67542" lon="3.87934">
        <ele>113</ele>
        <time>2021-03-21T10:18:11Z</time>
      </trkpt>
      <trkpt lat="43.67542" lon="3.87928">
        <ele>111</ele>
        <time>2021-03-21T10:18:12Z</time>
      </trkpt>
      <trkpt lat="43.67543" lon="3.87924">
        <ele>111</ele>
        <time>2021-03-21T10:18:13Z</time>
      </trkpt>
      <trkpt lat="43.67543" lon="3.87922">
        <ele>111</ele>
        <time>2021-03-21T10:18:14Z</time>
      </trkpt>
      <trkpt lat="43.67543" lon="3.87918">
        <ele>111</ele>
        <time>2021-03-21T10:18:15Z</time>
      </trkpt>
      <trkpt lat="43.67543" lon="3.87914">
        <ele>111</ele>
        <time>2021-03-21T10:18:16Z</time>
      </trkpt>
      <trkpt lat="43.67543" lon="3.8791">
        <ele>111</ele>
        <time>2021-03-21T10:18:17Z</time>
      </trkpt>
      <trkpt lat="43.67543" lon="3.87907">
        <ele>111</ele>
        <time>2021-03-21T10:18:18Z</time>
      </trkpt>
      <trkpt lat="43.67542" lon="3.87903">
        <ele>111</ele>
        <time>2021-03-21T10:18:19Z</time>
      </trkpt>
      <trkpt lat="43.67541" lon="3.879">
        <ele>111</ele>
        <time>2021-03-21T10:18:20Z</time>
      </trkpt>
      <trkpt lat="43.67541" lon="3.87896">
        <ele>111</ele>
        <time>2021-03-21T10:18:21Z</time>
      </trkpt>
      <trkpt lat="43.6754" lon="3.87891">
        <ele>110</ele>
        <time>2021-03-21T10:18:22Z</time>
      </trkpt>
      <trkpt lat="43.6754" lon="3.87887">
        <ele>110</ele>
        <time>2021-03-21T10:18:23Z</time>
      </trkpt>
      <trkpt lat="43.6754" lon="3.87882">
        <ele>110</ele>
        <time>2021-03-21T10:18:24Z</time>
      </trkpt>
      <trkpt lat="43.67541" lon="3.87877">
        <ele>110</ele>
        <time>2021-03-21T10:18:25Z</time>
      </trkpt>
      <trkpt lat="43.67542" lon="3.87871">
        <ele>110</ele>
        <time>2021-03-21T10:18:26Z</time>
      </trkpt>
      <trkpt lat="43.67542" lon="3.87866">
        <ele>110</ele>
        <time>2021-03-21T10:18:27Z</time>
      </trkpt>
      <trkpt lat="43.67544" lon="3.8786">
        <ele>110</ele>
        <time>2021-03-21T10:18:28Z</time>
      </trkpt>
      <trkpt lat="43.67544" lon="3.87854">
        <ele>110</ele>
        <time>2021-03-21T10:18:29Z</time>
      </trkpt>
      <trkpt lat="43.67545" lon="3.87848">
        <ele>110</ele>
        <time>2021-03-21T10:18:30Z</time>
      </trkpt>
      <trkpt lat="43.67547" lon="3.87843">
        <ele>110</ele>
        <time>2021-03-21T10:18:31Z</time>
      </trkpt>
      <trkpt lat="43.67547" lon="3.87838">
        <ele>109</ele>
        <time>2021-03-21T10:18:32Z</time>
      </trkpt>
      <trkpt lat="43.67548" lon="3.87832">
        <ele>109</ele>
        <time>2021-03-21T10:18:33Z</time>
      </trkpt>
      <trkpt lat="43.67548" lon="3.87827">
        <ele>109</ele>
        <time>2021-03-21T10:18:34Z</time>
      </trkpt>
      <trkpt lat="43.67549" lon="3.87823">
        <ele>109</ele>
        <time>2021-03-21T10:18:35Z</time>
      </trkpt>
      <trkpt lat="43.67548" lon="3.87818">
        <ele>109</ele>
        <time>2021-03-21T10:18:36Z</time>
      </trkpt>
      <trkpt lat="43.67548" lon="3.87812">
        <ele>109</ele>
        <time>2021-03-21T10:18:37Z</time>
      </trkpt>
      <trkpt lat="43.67548" lon="3.87807">
        <ele>109</ele>
        <time>2021-03-21T10:18:38Z</time>
      </trkpt>
      <trkpt lat="43.67547" lon="3.87802">
        <ele>109</ele>
        <time>2021-03-21T10:18:39Z</time>
      </trkpt>
      <trkpt lat="43.67545" lon="3.87796">
        <ele>109</ele>
        <time>2021-03-21T10:18:40Z</time>
      </trkpt>
      <trkpt lat="43.67544" lon="3.87791">
        <ele>108</ele>
        <time>2021-03-21T10:18:41Z</time>
      </trkpt>
      <trkpt lat="43.67542" lon="3.87784">
        <ele>108</ele>
        <time>2021-03-21T10:18:42Z</time>
      </trkpt>
      <trkpt lat="43.6754" lon="3.87777">
        <ele>108</ele>
        <time>2021-03-21T10:18:43Z</time>
      </trkpt>
      <trkpt lat="43.67539" lon="3.8777">
        <ele>108</ele>
        <time>2021-03-21T10:18:44Z</time>
      </trkpt>
      <trkpt lat="43.67537" lon="3.87763">
        <ele>108</ele>
        <time>2021-03-21T10:18:45Z</time>
      </trkpt>
      <trkpt lat="43.67536" lon="3.87756">
        <ele>108</ele>
        <time>2021-03-21T10:18:46Z</time>
      </trkpt>
      <trkpt lat="43.67537" lon="3.87747">
        <ele>108</ele>
        <time>2021-03-21T10:18:47Z</time>
      </trkpt>
      <trkpt lat="43.67538" lon="3.87738">
        <ele>108</ele>
        <time>2021-03-21T10:18:48Z</time>
      </trkpt>
      <trkpt lat="43.6754" lon="3.8773">
        <ele>108</ele>
        <time>2021-03-21T10:18:49Z</time>
      </trkpt>
      <trkpt lat="43.67541" lon="3.87722">
        <ele>108</ele>
        <time>2021-03-21T10:18:50Z</time>
      </trkpt>
      <trkpt lat="43.67542" lon="3.87714">
        <ele>108</ele>
        <time>2021-03-21T10:18:51Z</time>
      </trkpt>
      <trkpt lat="43.67546" lon="3.87702">
        <ele>108</ele>
        <time>2021-03-21T10:18:53Z</time>
      </trkpt>
      <trkpt lat="43.67548" lon="3.8769">
        <ele>108</ele>
        <time>2021-03-21T10:18:55Z</time>
      </trkpt>
      <trkpt lat="43.67549" lon="3.87683">
        <ele>108</ele>
        <time>2021-03-21T10:18:56Z</time>
      </trkpt>
      <trkpt lat="43.67552" lon="3.87669">
        <ele>108</ele>
        <time>2021-03-21T10:18:58Z</time>
      </trkpt>
      <trkpt lat="43.67554" lon="3.87665">
        <ele>108</ele>
        <time>2021-03-21T10:18:59Z</time>
      </trkpt>
      <trkpt lat="43.67555" lon="3.87662">
        <ele>108</ele>
        <time>2021-03-21T10:19:00Z</time>
      </trkpt>
      <trkpt lat="43.67556" lon="3.8766">
        <ele>108</ele>
        <time>2021-03-21T10:19:03Z</time>
      </trkpt>
      <trkpt lat="43.67554" lon="3.87659">
        <ele>108</ele>
        <time>2021-03-21T10:19:15Z</time>
      </trkpt>
      <trkpt lat="43.6756" lon="3.87662">
        <ele>103</ele>
        <time>2021-03-21T10:19:27Z</time>
      </trkpt>
      <trkpt lat="43.67559" lon="3.87659">
        <ele>100</ele>
        <time>2021-03-21T10:19:42Z</time>
      </trkpt>
      <trkpt lat="43.67567" lon="3.87648">
        <ele>97</ele>
        <time>2021-03-21T10:20:11Z</time>
      </trkpt>
      <trkpt lat="43.67569" lon="3.87645">
        <ele>97</ele>
        <time>2021-03-21T10:20:12Z</time>
      </trkpt>
      <trkpt lat="43.67572" lon="3.87642">
        <ele>97</ele>
        <time>2021-03-21T10:20:13Z</time>
      </trkpt>
      <trkpt lat="43.67575" lon="3.8764">
        <ele>97</ele>
        <time>2021-03-21T10:20:14Z</time>
      </trkpt>
      <trkpt lat="43.67579" lon="3.87641">
        <ele>97</ele>
        <time>2021-03-21T10:20:15Z</time>
      </trkpt>
      <trkpt lat="43.67584" lon="3.87643">
        <ele>97</ele>
        <time>2021-03-21T10:20:16Z</time>
      </trkpt>
      <trkpt lat="43.67589" lon="3.87648">
        <ele>97</ele>
        <time>2021-03-21T10:20:17Z</time>
      </trkpt>
      <trkpt lat="43.67592" lon="3.87654">
        <ele>97</ele>
        <time>2021-03-21T10:20:18Z</time>
      </trkpt>
      <trkpt lat="43.67596" lon="3.8766">
        <ele>97</ele>
        <time>2021-03-21T10:20:19Z</time>
      </trkpt>
      <trkpt lat="43.676" lon="3.87666">
        <ele>97</ele>
        <time>2021-03-21T10:20:20Z</time>
      </trkpt>
      <trkpt lat="43.67603" lon="3.87671">
        <ele>95</ele>
        <time>2021-03-21T10:20:21Z</time>
      </trkpt>
      <trkpt lat="43.67607" lon="3.87675">
        <ele>95</ele>
        <time>2021-03-21T10:20:22Z</time>
      </trkpt>
      <trkpt lat="43.67611" lon="3.8768">
        <ele>95</ele>
        <time>2021-03-21T10:20:23Z</time>
      </trkpt>
      <trkpt lat="43.67615" lon="3.87685">
        <ele>95</ele>
        <time>2021-03-21T10:20:24Z</time>
      </trkpt>
      <trkpt lat="43.67619" lon="3.87689">
        <ele>95</ele>
        <time>2021-03-21T10:20:25Z</time>
      </trkpt>
      <trkpt lat="43.67622" lon="3.87693">
        <ele>95</ele>
        <time>2021-03-21T10:20:26Z</time>
      </trkpt>
      <trkpt lat="43.67625" lon="3.87697">
        <ele>95</ele>
        <time>2021-03-21T10:20:27Z</time>
      </trkpt>
      <trkpt lat="43.67627" lon="3.87701">
        <ele>95</ele>
        <time>2021-03-21T10:20:28Z</time>
      </trkpt>
      <trkpt lat="43.6763" lon="3.87705">
        <ele>95</ele>
        <time>2021-03-21T10:20:29Z</time>
      </trkpt>
      <trkpt lat="43.67633" lon="3.87709">
        <ele>95</ele>
        <time>2021-03-21T10:20:30Z</time>
      </trkpt>
      <trkpt lat="43.67635" lon="3.87713">
        <ele>93</ele>
        <time>2021-03-21T10:20:31Z</time>
      </trkpt>
      <trkpt lat="43.67641" lon="3.87722">
        <ele>93</ele>
        <time>2021-03-21T10:20:32Z</time>
      </trkpt>
      <trkpt lat="43.67642" lon="3.87727">
        <ele>93</ele>
        <time>2021-03-21T10:20:34Z</time>
      </trkpt>
      <trkpt lat="43.67644" lon="3.87732">
        <ele>93</ele>
        <time>2021-03-21T10:20:35Z</time>
      </trkpt>
      <trkpt lat="43.67647" lon="3.87743">
        <ele>93</ele>
        <time>2021-03-21T10:20:36Z</time>
      </trkpt>
      <trkpt lat="43.67648" lon="3.87749">
        <ele>93</ele>
        <time>2021-03-21T10:20:38Z</time>
      </trkpt>
      <trkpt lat="43.67648" lon="3.87754">
        <ele>93</ele>
        <time>2021-03-21T10:20:39Z</time>
      </trkpt>
      <trkpt lat="43.67649" lon="3.8776">
        <ele>93</ele>
        <time>2021-03-21T10:20:40Z</time>
      </trkpt>
      <trkpt lat="43.6765" lon="3.87765">
        <ele>92</ele>
        <time>2021-03-21T10:20:41Z</time>
      </trkpt>
      <trkpt lat="43.67651" lon="3.87771">
        <ele>92</ele>
        <time>2021-03-21T10:20:42Z</time>
      </trkpt>
      <trkpt lat="43.67652" lon="3.87777">
        <ele>92</ele>
        <time>2021-03-21T10:20:43Z</time>
      </trkpt>
      <trkpt lat="43.67653" lon="3.87783">
        <ele>92</ele>
        <time>2021-03-21T10:20:44Z</time>
      </trkpt>
      <trkpt lat="43.67654" lon="3.87788">
        <ele>92</ele>
        <time>2021-03-21T10:20:45Z</time>
      </trkpt>
      <trkpt lat="43.67655" lon="3.87794">
        <ele>92</ele>
        <time>2021-03-21T10:20:46Z</time>
      </trkpt>
      <trkpt lat="43.67656" lon="3.87799">
        <ele>92</ele>
        <time>2021-03-21T10:20:47Z</time>
      </trkpt>
      <trkpt lat="43.67657" lon="3.87805">
        <ele>92</ele>
        <time>2021-03-21T10:20:48Z</time>
      </trkpt>
      <trkpt lat="43.67658" lon="3.8781">
        <ele>92</ele>
        <time>2021-03-21T10:20:49Z</time>
      </trkpt>
      <trkpt lat="43.67659" lon="3.87815">
        <ele>92</ele>
        <time>2021-03-21T10:20:50Z</time>
      </trkpt>
      <trkpt lat="43.6766" lon="3.87821">
        <ele>92</ele>
        <time>2021-03-21T10:20:51Z</time>
      </trkpt>
      <trkpt lat="43.67663" lon="3.87826">
        <ele>92</ele>
        <time>2021-03-21T10:20:52Z</time>
      </trkpt>
      <trkpt lat="43.67665" lon="3.87831">
        <ele>92</ele>
        <time>2021-03-21T10:20:53Z</time>
      </trkpt>
      <trkpt lat="43.67667" lon="3.87836">
        <ele>92</ele>
        <time>2021-03-21T10:20:54Z</time>
      </trkpt>
      <trkpt lat="43.6767" lon="3.8784">
        <ele>92</ele>
        <time>2021-03-21T10:20:55Z</time>
      </trkpt>
      <trkpt lat="43.67672" lon="3.87843">
        <ele>92</ele>
        <time>2021-03-21T10:20:56Z</time>
      </trkpt>
      <trkpt lat="43.67674" lon="3.87846">
        <ele>92</ele>
        <time>2021-03-21T10:20:57Z</time>
      </trkpt>
      <trkpt lat="43.67675" lon="3.8785">
        <ele>92</ele>
        <time>2021-03-21T10:20:58Z</time>
      </trkpt>
      <trkpt lat="43.67677" lon="3.87853">
        <ele>92</ele>
        <time>2021-03-21T10:20:59Z</time>
      </trkpt>
      <trkpt lat="43.67678" lon="3.87857">
        <ele>93</ele>
        <time>2021-03-21T10:21:00Z</time>
      </trkpt>
      <trkpt lat="43.6768" lon="3.8786">
        <ele>93</ele>
        <time>2021-03-21T10:21:01Z</time>
      </trkpt>
      <trkpt lat="43.67681" lon="3.87864">
        <ele>93</ele>
        <time>2021-03-21T10:21:02Z</time>
      </trkpt>
      <trkpt lat="43.67682" lon="3.87868">
        <ele>93</ele>
        <time>2021-03-21T10:21:03Z</time>
      </trkpt>
      <trkpt lat="43.67682" lon="3.87872">
        <ele>93</ele>
        <time>2021-03-21T10:21:04Z</time>
      </trkpt>
      <trkpt lat="43.67682" lon="3.87875">
        <ele>93</ele>
        <time>2021-03-21T10:21:05Z</time>
      </trkpt>
      <trkpt lat="43.67683" lon="3.87879">
        <ele>93</ele>
        <time>2021-03-21T10:21:07Z</time>
      </trkpt>
      <trkpt lat="43.67683" lon="3.87882">
        <ele>93</ele>
        <time>2021-03-21T10:21:09Z</time>
      </trkpt>
      <trkpt lat="43.67682" lon="3.87885">
        <ele>93</ele>
        <time>2021-03-21T10:21:11Z</time>
      </trkpt>
      <trkpt lat="43.6768" lon="3.87887">
        <ele>93</ele>
        <time>2021-03-21T10:21:13Z</time>
      </trkpt>
      <trkpt lat="43.67683" lon="3.87888">
        <ele>93</ele>
        <time>2021-03-21T10:21:16Z</time>
      </trkpt>
      <trkpt lat="43.67682" lon="3.87884">
        <ele>93</ele>
        <time>2021-03-21T10:21:19Z</time>
      </trkpt>
      <trkpt lat="43.6768" lon="3.8788">
        <ele>92</ele>
        <time>2021-03-21T10:21:21Z</time>
      </trkpt>
      <trkpt lat="43.67679" lon="3.87878">
        <ele>92</ele>
        <time>2021-03-21T10:21:22Z</time>
      </trkpt>
      <trkpt lat="43.67681" lon="3.87875">
        <ele>92</ele>
        <time>2021-03-21T10:21:24Z</time>
      </trkpt>
      <trkpt lat="43.67684" lon="3.87876">
        <ele>92</ele>
        <time>2021-03-21T10:21:26Z</time>
      </trkpt>
      <trkpt lat="43.67686" lon="3.87878">
        <ele>92</ele>
        <time>2021-03-21T10:21:27Z</time>
      </trkpt>
      <trkpt lat="43.67688" lon="3.87878">
        <ele>92</ele>
        <time>2021-03-21T10:21:28Z</time>
      </trkpt>
      <trkpt lat="43.67692" lon="3.87877">
        <ele>92</ele>
        <time>2021-03-21T10:21:30Z</time>
      </trkpt>
      <trkpt lat="43.67694" lon="3.87876">
        <ele>92</ele>
        <time>2021-03-21T10:21:31Z</time>
      </trkpt>
      <trkpt lat="43.67696" lon="3.87877">
        <ele>92</ele>
        <time>2021-03-21T10:21:32Z</time>
      </trkpt>
      <trkpt lat="43.67698" lon="3.87877">
        <ele>92</ele>
        <time>2021-03-21T10:21:33Z</time>
      </trkpt>
      <trkpt lat="43.677" lon="3.87877">
        <ele>92</ele>
        <time>2021-03-21T10:21:34Z</time>
      </trkpt>
      <trkpt lat="43.67702" lon="3.87878">
        <ele>92</ele>
        <time>2021-03-21T10:21:35Z</time>
      </trkpt>
      <trkpt lat="43.67704" lon="3.87877">
        <ele>92</ele>
        <time>2021-03-21T10:21:36Z</time>
      </trkpt>
      <trkpt lat="43.67706" lon="3.87877">
        <ele>92</ele>
        <time>2021-03-21T10:21:37Z</time>
      </trkpt>
      <trkpt lat="43.67708" lon="3.87876">
        <ele>92</ele>
        <time>2021-03-21T10:21:38Z</time>
      </trkpt>
      <trkpt lat="43.6771" lon="3.87873">
        <ele>92</ele>
        <time>2021-03-21T10:21:39Z</time>
      </trkpt>
      <trkpt lat="43.67712" lon="3.87871">
        <ele>92</ele>
        <time>2021-03-21T10:21:40Z</time>
      </trkpt>
      <trkpt lat="43.67713" lon="3.87868">
        <ele>91</ele>
        <time>2021-03-21T10:21:41Z</time>
      </trkpt>
      <trkpt lat="43.67715" lon="3.87866">
        <ele>91</ele>
        <time>2021-03-21T10:21:42Z</time>
      </trkpt>
      <trkpt lat="43.67717" lon="3.87863">
        <ele>91</ele>
        <time>2021-03-21T10:21:43Z</time>
      </trkpt>
      <trkpt lat="43.67719" lon="3.87859">
        <ele>91</ele>
        <time>2021-03-21T10:21:44Z</time>
      </trkpt>
      <trkpt lat="43.6772" lon="3.87854">
        <ele>91</ele>
        <time>2021-03-21T10:21:45Z</time>
      </trkpt>
      <trkpt lat="43.67723" lon="3.8785">
        <ele>91</ele>
        <time>2021-03-21T10:21:46Z</time>
      </trkpt>
      <trkpt lat="43.67725" lon="3.87845">
        <ele>91</ele>
        <time>2021-03-21T10:21:47Z</time>
      </trkpt>
      <trkpt lat="43.67728" lon="3.87841">
        <ele>91</ele>
        <time>2021-03-21T10:21:48Z</time>
      </trkpt>
      <trkpt lat="43.6773" lon="3.87837">
        <ele>91</ele>
        <time>2021-03-21T10:21:49Z</time>
      </trkpt>
      <trkpt lat="43.6773" lon="3.87832">
        <ele>91</ele>
        <time>2021-03-21T10:21:50Z</time>
      </trkpt>
      <trkpt lat="43.67731" lon="3.87827">
        <ele>90</ele>
        <time>2021-03-21T10:21:51Z</time>
      </trkpt>
      <trkpt lat="43.6773" lon="3.87822">
        <ele>90</ele>
        <time>2021-03-21T10:21:52Z</time>
      </trkpt>
      <trkpt lat="43.67728" lon="3.87818">
        <ele>90</ele>
        <time>2021-03-21T10:21:53Z</time>
      </trkpt>
      <trkpt lat="43.67725" lon="3.87813">
        <ele>90</ele>
        <time>2021-03-21T10:21:54Z</time>
      </trkpt>
      <trkpt lat="43.67723" lon="3.87807">
        <ele>90</ele>
        <time>2021-03-21T10:21:55Z</time>
      </trkpt>
      <trkpt lat="43.67722" lon="3.87802">
        <ele>90</ele>
        <time>2021-03-21T10:21:56Z</time>
      </trkpt>
      <trkpt lat="43.67721" lon="3.87798">
        <ele>90</ele>
        <time>2021-03-21T10:21:57Z</time>
      </trkpt>
      <trkpt lat="43.67721" lon="3.87793">
        <ele>90</ele>
        <time>2021-03-21T10:21:58Z</time>
      </trkpt>
      <trkpt lat="43.6772" lon="3.87789">
        <ele>90</ele>
        <time>2021-03-21T10:21:59Z</time>
      </trkpt>
      <trkpt lat="43.67718" lon="3.87786">
        <ele>90</ele>
        <time>2021-03-21T10:22:00Z</time>
      </trkpt>
      <trkpt lat="43.67717" lon="3.87782">
        <ele>88</ele>
        <time>2021-03-21T10:22:01Z</time>
      </trkpt>
      <trkpt lat="43.67717" lon="3.87778">
        <ele>88</ele>
        <time>2021-03-21T10:22:02Z</time>
      </trkpt>
      <trkpt lat="43.67716" lon="3.87775">
        <ele>88</ele>
        <time>2021-03-21T10:22:03Z</time>
      </trkpt>
      <trkpt lat="43.67714" lon="3.87772">
        <ele>88</ele>
        <time>2021-03-21T10:22:04Z</time>
      </trkpt>
      <trkpt lat="43.67712" lon="3.87769">
        <ele>88</ele>
        <time>2021-03-21T10:22:05Z</time>
      </trkpt>
      <trkpt lat="43.67712" lon="3.87765">
        <ele>88</ele>
        <time>2021-03-21T10:22:06Z</time>
      </trkpt>
      <trkpt lat="43.67711" lon="3.87762">
        <ele>88</ele>
        <time>2021-03-21T10:22:07Z</time>
      </trkpt>
      <trkpt lat="43.6771" lon="3.87759">
        <ele>88</ele>
        <time>2021-03-21T10:22:08Z</time>
      </trkpt>
      <trkpt lat="43.67709" lon="3.87755">
        <ele>88</ele>
        <time>2021-03-21T10:22:10Z</time>
      </trkpt>
      <trkpt lat="43.67709" lon="3.87752">
        <ele>88</ele>
        <time>2021-03-21T10:22:12Z</time>
      </trkpt>
      <trkpt lat="43.6771" lon="3.87748">
        <ele>85</ele>
        <time>2021-03-21T10:22:21Z</time>
      </trkpt>
      <trkpt lat="43.67712" lon="3.87746">
        <ele>85</ele>
        <time>2021-03-21T10:22:23Z</time>
      </trkpt>
      <trkpt lat="43.67715" lon="3.87745">
        <ele>85</ele>
        <time>2021-03-21T10:22:25Z</time>
      </trkpt>
      <trkpt lat="43.67718" lon="3.87743">
        <ele>85</ele>
        <time>2021-03-21T10:22:27Z</time>
      </trkpt>
      <trkpt lat="43.67719" lon="3.8774">
        <ele>85</ele>
        <time>2021-03-21T10:22:28Z</time>
      </trkpt>
      <trkpt lat="43.67723" lon="3.87736">
        <ele>85</ele>
        <time>2021-03-21T10:22:29Z</time>
      </trkpt>
      <trkpt lat="43.67725" lon="3.87735">
        <ele>85</ele>
        <time>2021-03-21T10:22:31Z</time>
      </trkpt>
      <trkpt lat="43.67728" lon="3.87734">
        <ele>85</ele>
        <time>2021-03-21T10:22:32Z</time>
      </trkpt>
      <trkpt lat="43.6773" lon="3.87733">
        <ele>85</ele>
        <time>2021-03-21T10:22:33Z</time>
      </trkpt>
      <trkpt lat="43.67733" lon="3.87731">
        <ele>85</ele>
        <time>2021-03-21T10:22:34Z</time>
      </trkpt>
      <trkpt lat="43.67735" lon="3.87729">
        <ele>85</ele>
        <time>2021-03-21T10:22:35Z</time>
      </trkpt>
      <trkpt lat="43.67737" lon="3.87728">
        <ele>85</ele>
        <time>2021-03-21T10:22:36Z</time>
      </trkpt>
      <trkpt lat="43.67739" lon="3.87728">
        <ele>85</ele>
        <time>2021-03-21T10:22:37Z</time>
      </trkpt>
      <trkpt lat="43.67741" lon="3.8773">
        <ele>85</ele>
        <time>2021-03-21T10:22:38Z</time>
      </trkpt>
      <trkpt lat="43.67743" lon="3.87733">
        <ele>85</ele>
        <time>2021-03-21T10:22:39Z</time>
      </trkpt>
      <trkpt lat="43.67745" lon="3.87736">
        <ele>86</ele>
        <time>2021-03-21T10:22:40Z</time>
      </trkpt>
      <trkpt lat="43.67746" lon="3.87739">
        <ele>86</ele>
        <time>2021-03-21T10:22:41Z</time>
      </trkpt>
      <trkpt lat="43.67748" lon="3.87742">
        <ele>86</ele>
        <time>2021-03-21T10:22:42Z</time>
      </trkpt>
      <trkpt lat="43.67749" lon="3.87745">
        <ele>86</ele>
        <time>2021-03-21T10:22:43Z</time>
      </trkpt>
      <trkpt lat="43.67751" lon="3.87748">
        <ele>86</ele>
        <time>2021-03-21T10:22:44Z</time>
      </trkpt>
      <trkpt lat="43.67752" lon="3.87751">
        <ele>86</ele>
        <time>2021-03-21T10:22:45Z</time>
      </trkpt>
      <trkpt lat="43.67754" lon="3.87754">
        <ele>86</ele>
        <time>2021-03-21T10:22:46Z</time>
      </trkpt>
      <trkpt lat="43.67756" lon="3.87756">
        <ele>86</ele>
        <time>2021-03-21T10:22:47Z</time>
      </trkpt>
      <trkpt lat="43.67758" lon="3.87759">
        <ele>86</ele>
        <time>2021-03-21T10:22:48Z</time>
      </trkpt>
      <trkpt lat="43.67759" lon="3.87762">
        <ele>86</ele>
        <time>2021-03-21T10:22:49Z</time>
      </trkpt>
      <trkpt lat="43.67761" lon="3.87764">
        <ele>86</ele>
        <time>2021-03-21T10:22:50Z</time>
      </trkpt>
      <trkpt lat="43.67762" lon="3.87768">
        <ele>87</ele>
        <time>2021-03-21T10:22:51Z</time>
      </trkpt>
      <trkpt lat="43.67764" lon="3.87771">
        <ele>87</ele>
        <time>2021-03-21T10:22:52Z</time>
      </trkpt>
      <trkpt lat="43.67765" lon="3.87774">
        <ele>87</ele>
        <time>2021-03-21T10:22:53Z</time>
      </trkpt>
      <trkpt lat="43.67767" lon="3.87777">
        <ele>87</ele>
        <time>2021-03-21T10:22:54Z</time>
      </trkpt>
      <trkpt lat="43.67769" lon="3.8778">
        <ele>87</ele>
        <time>2021-03-21T10:22:55Z</time>
      </trkpt>
      <trkpt lat="43.6777" lon="3.87782">
        <ele>87</ele>
        <time>2021-03-21T10:22:56Z</time>
      </trkpt>
      <trkpt lat="43.67772" lon="3.87784">
        <ele>87</ele>
        <time>2021-03-21T10:22:57Z</time>
      </trkpt>
      <trkpt lat="43.67773" lon="3.87786">
        <ele>87</ele>
        <time>2021-03-21T10:22:58Z</time>
      </trkpt>
      <trkpt lat="43.67775" lon="3.87787">
        <ele>87</ele>
        <time>2021-03-21T10:22:59Z</time>
      </trkpt>
      <trkpt lat="43.67776" lon="3.87789">
        <ele>87</ele>
        <time>2021-03-21T10:23:00Z</time>
      </trkpt>
      <trkpt lat="43.67778" lon="3.87793">
        <ele>87</ele>
        <time>2021-03-21T10:23:02Z</time>
      </trkpt>
      <trkpt lat="43.67779" lon="3.87795">
        <ele>87</ele>
        <time>2021-03-21T10:23:03Z</time>
      </trkpt>
      <trkpt lat="43.67781" lon="3.87799">
        <ele>87</ele>
        <time>2021-03-21T10:23:05Z</time>
      </trkpt>
      <trkpt lat="43.67783" lon="3.87801">
        <ele>87</ele>
        <time>2021-03-21T10:23:06Z</time>
      </trkpt>
      <trkpt lat="43.67785" lon="3.87805">
        <ele>87</ele>
        <time>2021-03-21T10:23:08Z</time>
      </trkpt>
      <trkpt lat="43.67786" lon="3.87807">
        <ele>87</ele>
        <time>2021-03-21T10:23:09Z</time>
      </trkpt>
      <trkpt lat="43.67788" lon="3.87809">
        <ele>87</ele>
        <time>2021-03-21T10:23:10Z</time>
      </trkpt>
      <trkpt lat="43.6779" lon="3.87811">
        <ele>90</ele>
        <time>2021-03-21T10:23:11Z</time>
      </trkpt>
      <trkpt lat="43.67791" lon="3.87813">
        <ele>90</ele>
        <time>2021-03-21T10:23:12Z</time>
      </trkpt>
      <trkpt lat="43.67793" lon="3.87815">
        <ele>90</ele>
        <time>2021-03-21T10:23:13Z</time>
      </trkpt>
      <trkpt lat="43.67795" lon="3.87817">
        <ele>90</ele>
        <time>2021-03-21T10:23:14Z</time>
      </trkpt>
      <trkpt lat="43.67796" lon="3.87819">
        <ele>90</ele>
        <time>2021-03-21T10:23:15Z</time>
      </trkpt>
      <trkpt lat="43.67798" lon="3.87822">
        <ele>90</ele>
        <time>2021-03-21T10:23:16Z</time>
      </trkpt>
      <trkpt lat="43.678" lon="3.87824">
        <ele>90</ele>
        <time>2021-03-21T10:23:17Z</time>
      </trkpt>
      <trkpt lat="43.67801" lon="3.87826">
        <ele>90</ele>
        <time>2021-03-21T10:23:18Z</time>
      </trkpt>
      <trkpt lat="43.67803" lon="3.87828">
        <ele>90</ele>
        <time>2021-03-21T10:23:19Z</time>
      </trkpt>
      <trkpt lat="43.67805" lon="3.87831">
        <ele>90</ele>
        <time>2021-03-21T10:23:20Z</time>
      </trkpt>
      <trkpt lat="43.67806" lon="3.87833">
        <ele>91</ele>
        <time>2021-03-21T10:23:21Z</time>
      </trkpt>
      <trkpt lat="43.67808" lon="3.87835">
        <ele>91</ele>
        <time>2021-03-21T10:23:22Z</time>
      </trkpt>
      <trkpt lat="43.67809" lon="3.87838">
        <ele>91</ele>
        <time>2021-03-21T10:23:23Z</time>
      </trkpt>
      <trkpt lat="43.67811" lon="3.87841">
        <ele>91</ele>
        <time>2021-03-21T10:23:24Z</time>
      </trkpt>
      <trkpt lat="43.67812" lon="3.87843">
        <ele>91</ele>
        <time>2021-03-21T10:23:25Z</time>
      </trkpt>
      <trkpt lat="43.67814" lon="3.87845">
        <ele>91</ele>
        <time>2021-03-21T10:23:26Z</time>
      </trkpt>
      <trkpt lat="43.67815" lon="3.87848">
        <ele>91</ele>
        <time>2021-03-21T10:23:27Z</time>
      </trkpt>
      <trkpt lat="43.67817" lon="3.8785">
        <ele>91</ele>
        <time>2021-03-21T10:23:28Z</time>
      </trkpt>
      <trkpt lat="43.67819" lon="3.87852">
        <ele>91</ele>
        <time>2021-03-21T10:23:29Z</time>
      </trkpt>
      <trkpt lat="43.67821" lon="3.87853">
        <ele>91</ele>
        <time>2021-03-21T10:23:30Z</time>
      </trkpt>
      <trkpt lat="43.67823" lon="3.87854">
        <ele>92</ele>
        <time>2021-03-21T10:23:31Z</time>
      </trkpt>
      <trkpt lat="43.67825" lon="3.87857">
        <ele>92</ele>
        <time>2021-03-21T10:23:32Z</time>
      </trkpt>
      <trkpt lat="43.67827" lon="3.8786">
        <ele>92</ele>
        <time>2021-03-21T10:23:33Z</time>
      </trkpt>
      <trkpt lat="43.67828" lon="3.87863">
        <ele>92</ele>
        <time>2021-03-21T10:23:34Z</time>
      </trkpt>
      <trkpt lat="43.67829" lon="3.87864">
        <ele>92</ele>
        <time>2021-03-21T10:23:35Z</time>
      </trkpt>
      <trkpt lat="43.67832" lon="3.87862">
        <ele>92</ele>
        <time>2021-03-21T10:23:37Z</time>
      </trkpt>
      <trkpt lat="43.67833" lon="3.8786">
        <ele>92</ele>
        <time>2021-03-21T10:23:38Z</time>
      </trkpt>
      <trkpt lat="43.67834" lon="3.87857">
        <ele>92</ele>
        <time>2021-03-21T10:23:39Z</time>
      </trkpt>
      <trkpt lat="43.67835" lon="3.87854">
        <ele>92</ele>
        <time>2021-03-21T10:23:40Z</time>
      </trkpt>
      <trkpt lat="43.67837" lon="3.87852">
        <ele>93</ele>
        <time>2021-03-21T10:23:41Z</time>
      </trkpt>
      <trkpt lat="43.67839" lon="3.87849">
        <ele>93</ele>
        <time>2021-03-21T10:23:42Z</time>
      </trkpt>
      <trkpt lat="43.67842" lon="3.87842">
        <ele>93</ele>
        <time>2021-03-21T10:23:43Z</time>
      </trkpt>
      <trkpt lat="43.67843" lon="3.87838">
        <ele>93</ele>
        <time>2021-03-21T10:23:45Z</time>
      </trkpt>
      <trkpt lat="43.67844" lon="3.87832">
        <ele>93</ele>
        <time>2021-03-21T10:23:46Z</time>
      </trkpt>
      <trkpt lat="43.67846" lon="3.87826">
        <ele>93</ele>
        <time>2021-03-21T10:23:47Z</time>
      </trkpt>
      <trkpt lat="43.67847" lon="3.87821">
        <ele>93</ele>
        <time>2021-03-21T10:23:48Z</time>
      </trkpt>
      <trkpt lat="43.6785" lon="3.87805">
        <ele>93</ele>
        <time>2021-03-21T10:23:49Z</time>
      </trkpt>
      <trkpt lat="43.6785" lon="3.87798">
        <ele>91</ele>
        <time>2021-03-21T10:23:51Z</time>
      </trkpt>
      <trkpt lat="43.67852" lon="3.8779">
        <ele>91</ele>
        <time>2021-03-21T10:23:52Z</time>
      </trkpt>
      <trkpt lat="43.67852" lon="3.87784">
        <ele>91</ele>
        <time>2021-03-21T10:23:53Z</time>
      </trkpt>
      <trkpt lat="43.67852" lon="3.87777">
        <ele>91</ele>
        <time>2021-03-21T10:23:54Z</time>
      </trkpt>
      <trkpt lat="43.67852" lon="3.87771">
        <ele>91</ele>
        <time>2021-03-21T10:23:55Z</time>
      </trkpt>
      <trkpt lat="43.67854" lon="3.87765">
        <ele>91</ele>
        <time>2021-03-21T10:23:56Z</time>
      </trkpt>
      <trkpt lat="43.67856" lon="3.87759">
        <ele>91</ele>
        <time>2021-03-21T10:23:57Z</time>
      </trkpt>
      <trkpt lat="43.67856" lon="3.87752">
        <ele>91</ele>
        <time>2021-03-21T10:23:58Z</time>
      </trkpt>
      <trkpt lat="43.67857" lon="3.87746">
        <ele>91</ele>
        <time>2021-03-21T10:23:59Z</time>
      </trkpt>
      <trkpt lat="43.67857" lon="3.87743">
        <ele>91</ele>
        <time>2021-03-21T10:24:00Z</time>
      </trkpt>
      <trkpt lat="43.67859" lon="3.8774">
        <ele>91</ele>
        <time>2021-03-21T10:24:02Z</time>
      </trkpt>
      <trkpt lat="43.6786" lon="3.87737">
        <ele>91</ele>
        <time>2021-03-21T10:24:05Z</time>
      </trkpt>
      <trkpt lat="43.67862" lon="3.87735">
        <ele>91</ele>
        <time>2021-03-21T10:24:07Z</time>
      </trkpt>
      <trkpt lat="43.67865" lon="3.87732">
        <ele>91</ele>
        <time>2021-03-21T10:24:09Z</time>
      </trkpt>
      <trkpt lat="43.67867" lon="3.87732">
        <ele>89</ele>
        <time>2021-03-21T10:24:10Z</time>
      </trkpt>
      <trkpt lat="43.6787" lon="3.87732">
        <ele>89</ele>
        <time>2021-03-21T10:24:11Z</time>
      </trkpt>
      <trkpt lat="43.67872" lon="3.8773">
        <ele>89</ele>
        <time>2021-03-21T10:24:12Z</time>
      </trkpt>
      <trkpt lat="43.67874" lon="3.87728">
        <ele>89</ele>
        <time>2021-03-21T10:24:13Z</time>
      </trkpt>
      <trkpt lat="43.67876" lon="3.87725">
        <ele>89</ele>
        <time>2021-03-21T10:24:14Z</time>
      </trkpt>
      <trkpt lat="43.67878" lon="3.87723">
        <ele>89</ele>
        <time>2021-03-21T10:24:15Z</time>
      </trkpt>
      <trkpt lat="43.67879" lon="3.87721">
        <ele>89</ele>
        <time>2021-03-21T10:24:16Z</time>
      </trkpt>
      <trkpt lat="43.67881" lon="3.87719">
        <ele>89</ele>
        <time>2021-03-21T10:24:17Z</time>
      </trkpt>
      <trkpt lat="43.67883" lon="3.87717">
        <ele>89</ele>
        <time>2021-03-21T10:24:19Z</time>
      </trkpt>
      <trkpt lat="43.67885" lon="3.87716">
        <ele>89</ele>
        <time>2021-03-21T10:24:21Z</time>
      </trkpt>
      <trkpt lat="43.67888" lon="3.87713">
        <ele>89</ele>
        <time>2021-03-21T10:24:23Z</time>
      </trkpt>
      <trkpt lat="43.6789" lon="3.87713">
        <ele>89</ele>
        <time>2021-03-21T10:24:24Z</time>
      </trkpt>
      <trkpt lat="43.67892" lon="3.87713">
        <ele>89</ele>
        <time>2021-03-21T10:24:25Z</time>
      </trkpt>
      <trkpt lat="43.67894" lon="3.87714">
        <ele>89</ele>
        <time>2021-03-21T10:24:26Z</time>
      </trkpt>
      <trkpt lat="43.67896" lon="3.87715">
        <ele>89</ele>
        <time>2021-03-21T10:24:27Z</time>
      </trkpt>
      <trkpt lat="43.67898" lon="3.87716">
        <ele>89</ele>
        <time>2021-03-21T10:24:28Z</time>
      </trkpt>
      <trkpt lat="43.679" lon="3.87718">
        <ele>89</ele>
        <time>2021-03-21T10:24:29Z</time>
      </trkpt>
      <trkpt lat="43.67902" lon="3.87718">
        <ele>87</ele>
        <time>2021-03-21T10:24:30Z</time>
      </trkpt>
      <trkpt lat="43.67904" lon="3.87719">
        <ele>87</ele>
        <time>2021-03-21T10:24:31Z</time>
      </trkpt>
      <trkpt lat="43.67907" lon="3.8772">
        <ele>87</ele>
        <time>2021-03-21T10:24:32Z</time>
      </trkpt>
      <trkpt lat="43.67909" lon="3.87721">
        <ele>87</ele>
        <time>2021-03-21T10:24:33Z</time>
      </trkpt>
      <trkpt lat="43.67912" lon="3.8772">
        <ele>87</ele>
        <time>2021-03-21T10:24:34Z</time>
      </trkpt>
      <trkpt lat="43.67915" lon="3.87719">
        <ele>87</ele>
        <time>2021-03-21T10:24:35Z</time>
      </trkpt>
      <trkpt lat="43.67916" lon="3.87717">
        <ele>87</ele>
        <time>2021-03-21T10:24:36Z</time>
      </trkpt>
      <trkpt lat="43.67918" lon="3.87714">
        <ele>87</ele>
        <time>2021-03-21T10:24:37Z</time>
      </trkpt>
      <trkpt lat="43.67921" lon="3.8771">
        <ele>87</ele>
        <time>2021-03-21T10:24:39Z</time>
      </trkpt>
      <trkpt lat="43.67921" lon="3.87707">
        <ele>87</ele>
        <time>2021-03-21T10:24:40Z</time>
      </trkpt>
      <trkpt lat="43.67922" lon="3.87704">
        <ele>85</ele>
        <time>2021-03-21T10:24:41Z</time>
      </trkpt>
      <trkpt lat="43.67925" lon="3.87703">
        <ele>85</ele>
        <time>2021-03-21T10:24:42Z</time>
      </trkpt>
      <trkpt lat="43.67927" lon="3.87703">
        <ele>85</ele>
        <time>2021-03-21T10:24:43Z</time>
      </trkpt>
      <trkpt lat="43.67929" lon="3.87703">
        <ele>85</ele>
        <time>2021-03-21T10:24:44Z</time>
      </trkpt>
      <trkpt lat="43.67931" lon="3.87703">
        <ele>85</ele>
        <time>2021-03-21T10:24:45Z</time>
      </trkpt>
      <trkpt lat="43.67933" lon="3.87703">
        <ele>85</ele>
        <time>2021-03-21T10:24:46Z</time>
      </trkpt>
      <trkpt lat="43.67935" lon="3.87704">
        <ele>85</ele>
        <time>2021-03-21T10:24:47Z</time>
      </trkpt>
      <trkpt lat="43.67938" lon="3.87705">
        <ele>85</ele>
        <time>2021-03-21T10:24:48Z</time>
      </trkpt>
      <trkpt lat="43.6794" lon="3.87707">
        <ele>85</ele>
        <time>2021-03-21T10:24:49Z</time>
      </trkpt>
      <trkpt lat="43.67943" lon="3.87708">
        <ele>85</ele>
        <time>2021-03-21T10:24:50Z</time>
      </trkpt>
      <trkpt lat="43.67945" lon="3.87708">
        <ele>83</ele>
        <time>2021-03-21T10:24:51Z</time>
      </trkpt>
      <trkpt lat="43.67948" lon="3.87706">
        <ele>83</ele>
        <time>2021-03-21T10:24:52Z</time>
      </trkpt>
      <trkpt lat="43.67951" lon="3.87706">
        <ele>83</ele>
        <time>2021-03-21T10:24:53Z</time>
      </trkpt>
      <trkpt lat="43.67953" lon="3.87708">
        <ele>83</ele>
        <time>2021-03-21T10:24:54Z</time>
      </trkpt>
      <trkpt lat="43.67955" lon="3.87709">
        <ele>83</ele>
        <time>2021-03-21T10:24:55Z</time>
      </trkpt>
      <trkpt lat="43.67958" lon="3.8771">
        <ele>83</ele>
        <time>2021-03-21T10:24:56Z</time>
      </trkpt>
      <trkpt lat="43.6796" lon="3.8771">
        <ele>83</ele>
        <time>2021-03-21T10:24:57Z</time>
      </trkpt>
      <trkpt lat="43.67964" lon="3.87711">
        <ele>83</ele>
        <time>2021-03-21T10:24:58Z</time>
      </trkpt>
      <trkpt lat="43.67967" lon="3.87712">
        <ele>83</ele>
        <time>2021-03-21T10:24:59Z</time>
      </trkpt>
      <trkpt lat="43.67969" lon="3.87714">
        <ele>83</ele>
        <time>2021-03-21T10:25:00Z</time>
      </trkpt>
      <trkpt lat="43.67973" lon="3.87714">
        <ele>82</ele>
        <time>2021-03-21T10:25:01Z</time>
      </trkpt>
      <trkpt lat="43.67976" lon="3.87715">
        <ele>82</ele>
        <time>2021-03-21T10:25:02Z</time>
      </trkpt>
      <trkpt lat="43.67978" lon="3.87713">
        <ele>82</ele>
        <time>2021-03-21T10:25:03Z</time>
      </trkpt>
      <trkpt lat="43.67982" lon="3.87711">
        <ele>82</ele>
        <time>2021-03-21T10:25:04Z</time>
      </trkpt>
      <trkpt lat="43.67985" lon="3.8771">
        <ele>82</ele>
        <time>2021-03-21T10:25:05Z</time>
      </trkpt>
      <trkpt lat="43.67988" lon="3.87711">
        <ele>82</ele>
        <time>2021-03-21T10:25:06Z</time>
      </trkpt>
      <trkpt lat="43.67997" lon="3.87713">
        <ele>82</ele>
        <time>2021-03-21T10:25:09Z</time>
      </trkpt>
      <trkpt lat="43.68001" lon="3.87712">
        <ele>82</ele>
        <time>2021-03-21T10:25:10Z</time>
      </trkpt>
      <trkpt lat="43.68004" lon="3.87711">
        <ele>80</ele>
        <time>2021-03-21T10:25:11Z</time>
      </trkpt>
      <trkpt lat="43.68015" lon="3.87719">
        <ele>80</ele>
        <time>2021-03-21T10:25:15Z</time>
      </trkpt>
      <trkpt lat="43.68018" lon="3.87725">
        <ele>80</ele>
        <time>2021-03-21T10:25:17Z</time>
      </trkpt>
      <trkpt lat="43.68027" lon="3.87734">
        <ele>80</ele>
        <time>2021-03-21T10:25:22Z</time>
      </trkpt>
      <trkpt lat="43.68032" lon="3.87746">
        <ele>80</ele>
        <time>2021-03-21T10:25:26Z</time>
      </trkpt>
      <trkpt lat="43.68035" lon="3.87751">
        <ele>80</ele>
        <time>2021-03-21T10:25:28Z</time>
      </trkpt>
      <trkpt lat="43.68036" lon="3.87755">
        <ele>80</ele>
        <time>2021-03-21T10:25:29Z</time>
      </trkpt>
      <trkpt lat="43.68036" lon="3.87759">
        <ele>80</ele>
        <time>2021-03-21T10:25:30Z</time>
      </trkpt>
      <trkpt lat="43.68037" lon="3.87762">
        <ele>80</ele>
        <time>2021-03-21T10:25:31Z</time>
      </trkpt>
      <trkpt lat="43.68038" lon="3.87765">
        <ele>80</ele>
        <time>2021-03-21T10:25:32Z</time>
      </trkpt>
      <trkpt lat="43.6804" lon="3.87768">
        <ele>80</ele>
        <time>2021-03-21T10:25:33Z</time>
      </trkpt>
      <trkpt lat="43.68041" lon="3.87771">
        <ele>80</ele>
        <time>2021-03-21T10:25:34Z</time>
      </trkpt>
      <trkpt lat="43.68042" lon="3.87775">
        <ele>80</ele>
        <time>2021-03-21T10:25:35Z</time>
      </trkpt>
      <trkpt lat="43.68044" lon="3.87778">
        <ele>80</ele>
        <time>2021-03-21T10:25:36Z</time>
      </trkpt>
      <trkpt lat="43.68046" lon="3.87781">
        <ele>80</ele>
        <time>2021-03-21T10:25:37Z</time>
      </trkpt>
      <trkpt lat="43.68055" lon="3.87784">
        <ele>80</ele>
        <time>2021-03-21T10:25:42Z</time>
      </trkpt>
      <trkpt lat="43.68057" lon="3.87784">
        <ele>80</ele>
        <time>2021-03-21T10:25:43Z</time>
      </trkpt>
      <trkpt lat="43.68058" lon="3.87785">
        <ele>80</ele>
        <time>2021-03-21T10:25:44Z</time>
      </trkpt>
      <trkpt lat="43.68061" lon="3.87785">
        <ele>80</ele>
        <time>2021-03-21T10:25:45Z</time>
      </trkpt>
      <trkpt lat="43.68062" lon="3.87786">
        <ele>80</ele>
        <time>2021-03-21T10:25:46Z</time>
      </trkpt>
      <trkpt lat="43.68065" lon="3.87786">
        <ele>80</ele>
        <time>2021-03-21T10:25:47Z</time>
      </trkpt>
      <trkpt lat="43.68067" lon="3.87787">
        <ele>80</ele>
        <time>2021-03-21T10:25:48Z</time>
      </trkpt>
      <trkpt lat="43.68069" lon="3.87789">
        <ele>80</ele>
        <time>2021-03-21T10:25:49Z</time>
      </trkpt>
      <trkpt lat="43.68071" lon="3.8779">
        <ele>80</ele>
        <time>2021-03-21T10:25:50Z</time>
      </trkpt>
      <trkpt lat="43.68074" lon="3.87791">
        <ele>80</ele>
        <time>2021-03-21T10:25:52Z</time>
      </trkpt>
      <trkpt lat="43.68076" lon="3.87792">
        <ele>80</ele>
        <time>2021-03-21T10:25:53Z</time>
      </trkpt>
      <trkpt lat="43.68078" lon="3.87794">
        <ele>80</ele>
        <time>2021-03-21T10:25:55Z</time>
      </trkpt>
      <trkpt lat="43.6808" lon="3.87798">
        <ele>80</ele>
        <time>2021-03-21T10:25:57Z</time>
      </trkpt>
      <trkpt lat="43.6808" lon="3.87801">
        <ele>80</ele>
        <time>2021-03-21T10:25:58Z</time>
      </trkpt>
      <trkpt lat="43.6808" lon="3.87805">
        <ele>80</ele>
        <time>2021-03-21T10:26:00Z</time>
      </trkpt>
      <trkpt lat="43.68079" lon="3.8781">
        <ele>80</ele>
        <time>2021-03-21T10:26:02Z</time>
      </trkpt>
      <trkpt lat="43.68079" lon="3.87812">
        <ele>80</ele>
        <time>2021-03-21T10:26:03Z</time>
      </trkpt>
      <trkpt lat="43.68078" lon="3.87815">
        <ele>80</ele>
        <time>2021-03-21T10:26:04Z</time>
      </trkpt>
      <trkpt lat="43.68079" lon="3.87819">
        <ele>80</ele>
        <time>2021-03-21T10:26:06Z</time>
      </trkpt>
      <trkpt lat="43.68081" lon="3.87822">
        <ele>80</ele>
        <time>2021-03-21T10:26:08Z</time>
      </trkpt>
      <trkpt lat="43.68083" lon="3.87822">
        <ele>80</ele>
        <time>2021-03-21T10:26:09Z</time>
      </trkpt>
      <trkpt lat="43.68087" lon="3.87821">
        <ele>85</ele>
        <time>2021-03-21T10:26:11Z</time>
      </trkpt>
      <trkpt lat="43.68089" lon="3.8782">
        <ele>85</ele>
        <time>2021-03-21T10:26:12Z</time>
      </trkpt>
      <trkpt lat="43.68092" lon="3.8782">
        <ele>85</ele>
        <time>2021-03-21T10:26:13Z</time>
      </trkpt>
      <trkpt lat="43.68094" lon="3.8782">
        <ele>85</ele>
        <time>2021-03-21T10:26:14Z</time>
      </trkpt>
      <trkpt lat="43.68096" lon="3.8782">
        <ele>85</ele>
        <time>2021-03-21T10:26:15Z</time>
      </trkpt>
      <trkpt lat="43.68098" lon="3.8782">
        <ele>85</ele>
        <time>2021-03-21T10:26:16Z</time>
      </trkpt>
      <trkpt lat="43.681" lon="3.87819">
        <ele>85</ele>
        <time>2021-03-21T10:26:17Z</time>
      </trkpt>
      <trkpt lat="43.68102" lon="3.87818">
        <ele>85</ele>
        <time>2021-03-21T10:26:18Z</time>
      </trkpt>
      <trkpt lat="43.68104" lon="3.87816">
        <ele>85</ele>
        <time>2021-03-21T10:26:19Z</time>
      </trkpt>
      <trkpt lat="43.68106" lon="3.87815">
        <ele>85</ele>
        <time>2021-03-21T10:26:20Z</time>
      </trkpt>
      <trkpt lat="43.6811" lon="3.87815">
        <ele>85</ele>
        <time>2021-03-21T10:26:22Z</time>
      </trkpt>
      <trkpt lat="43.68112" lon="3.87815">
        <ele>85</ele>
        <time>2021-03-21T10:26:23Z</time>
      </trkpt>
      <trkpt lat="43.68115" lon="3.87815">
        <ele>85</ele>
        <time>2021-03-21T10:26:24Z</time>
      </trkpt>
      <trkpt lat="43.68117" lon="3.87815">
        <ele>85</ele>
        <time>2021-03-21T10:26:25Z</time>
      </trkpt>
      <trkpt lat="43.68119" lon="3.87815">
        <ele>85</ele>
        <time>2021-03-21T10:26:26Z</time>
      </trkpt>
      <trkpt lat="43.68121" lon="3.87814">
        <ele>85</ele>
        <time>2021-03-21T10:26:27Z</time>
      </trkpt>
      <trkpt lat="43.68123" lon="3.87815">
        <ele>85</ele>
        <time>2021-03-21T10:26:28Z</time>
      </trkpt>
      <trkpt lat="43.68125" lon="3.87816">
        <ele>85</ele>
        <time>2021-03-21T10:26:29Z</time>
      </trkpt>
      <trkpt lat="43.68127" lon="3.87815">
        <ele>85</ele>
        <time>2021-03-21T10:26:30Z</time>
      </trkpt>
      <trkpt lat="43.6813" lon="3.87813">
        <ele>86</ele>
        <time>2021-03-21T10:26:31Z</time>
      </trkpt>
      <trkpt lat="43.6813" lon="3.87813">
        <ele>87</ele>
        <time>2021-03-21T10:26:41Z</time>
      </trkpt>
      <trkpt lat="43.68133" lon="3.87824">
        <ele>86</ele>
        <time>2021-03-21T10:27:15Z</time>
      </trkpt>
      <trkpt lat="43.68132" lon="3.87827">
        <ele>86</ele>
        <time>2021-03-21T10:27:16Z</time>
      </trkpt>
      <trkpt lat="43.68131" lon="3.8783">
        <ele>86</ele>
        <time>2021-03-21T10:27:17Z</time>
      </trkpt>
      <trkpt lat="43.68129" lon="3.87833">
        <ele>86</ele>
        <time>2021-03-21T10:27:18Z</time>
      </trkpt>
      <trkpt lat="43.68128" lon="3.87835">
        <ele>86</ele>
        <time>2021-03-21T10:27:19Z</time>
      </trkpt>
      <trkpt lat="43.68126" lon="3.87838">
        <ele>86</ele>
        <time>2021-03-21T10:27:20Z</time>
      </trkpt>
      <trkpt lat="43.68124" lon="3.87839">
        <ele>86</ele>
        <time>2021-03-21T10:27:21Z</time>
      </trkpt>
      <trkpt lat="43.68122" lon="3.87841">
        <ele>86</ele>
        <time>2021-03-21T10:27:22Z</time>
      </trkpt>
      <trkpt lat="43.6812" lon="3.87843">
        <ele>87</ele>
        <time>2021-03-21T10:27:23Z</time>
      </trkpt>
      <trkpt lat="43.68118" lon="3.87847">
        <ele>87</ele>
        <time>2021-03-21T10:27:25Z</time>
      </trkpt>
      <trkpt lat="43.68117" lon="3.87849">
        <ele>87</ele>
        <time>2021-03-21T10:27:26Z</time>
      </trkpt>
      <trkpt lat="43.68115" lon="3.87851">
        <ele>87</ele>
        <time>2021-03-21T10:27:27Z</time>
      </trkpt>
      <trkpt lat="43.68113" lon="3.87855">
        <ele>87</ele>
        <time>2021-03-21T10:27:29Z</time>
      </trkpt>
      <trkpt lat="43.68113" lon="3.87857">
        <ele>87</ele>
        <time>2021-03-21T10:27:30Z</time>
      </trkpt>
      <trkpt lat="43.68114" lon="3.8786">
        <ele>87</ele>
        <time>2021-03-21T10:27:31Z</time>
      </trkpt>
      <trkpt lat="43.68114" lon="3.87863">
        <ele>87</ele>
        <time>2021-03-21T10:27:32Z</time>
      </trkpt>
      <trkpt lat="43.68114" lon="3.87867">
        <ele>87</ele>
        <time>2021-03-21T10:27:33Z</time>
      </trkpt>
      <trkpt lat="43.68114" lon="3.8787">
        <ele>88</ele>
        <time>2021-03-21T10:27:34Z</time>
      </trkpt>
      <trkpt lat="43.68113" lon="3.87872">
        <ele>88</ele>
        <time>2021-03-21T10:27:35Z</time>
      </trkpt>
      <trkpt lat="43.68112" lon="3.87875">
        <ele>88</ele>
        <time>2021-03-21T10:27:36Z</time>
      </trkpt>
      <trkpt lat="43.68113" lon="3.87879">
        <ele>88</ele>
        <time>2021-03-21T10:27:38Z</time>
      </trkpt>
      <trkpt lat="43.68115" lon="3.87882">
        <ele>88</ele>
        <time>2021-03-21T10:27:39Z</time>
      </trkpt>
      <trkpt lat="43.68117" lon="3.87883">
        <ele>88</ele>
        <time>2021-03-21T10:27:41Z</time>
      </trkpt>
      <trkpt lat="43.68119" lon="3.87887">
        <ele>88</ele>
        <time>2021-03-21T10:27:42Z</time>
      </trkpt>
      <trkpt lat="43.6812" lon="3.8789">
        <ele>90</ele>
        <time>2021-03-21T10:27:44Z</time>
      </trkpt>
      <trkpt lat="43.6812" lon="3.87892">
        <ele>90</ele>
        <time>2021-03-21T10:27:45Z</time>
      </trkpt>
      <trkpt lat="43.68121" lon="3.87896">
        <ele>90</ele>
        <time>2021-03-21T10:27:47Z</time>
      </trkpt>
      <trkpt lat="43.68122" lon="3.87901">
        <ele>90</ele>
        <time>2021-03-21T10:27:49Z</time>
      </trkpt>
      <trkpt lat="43.68121" lon="3.87904">
        <ele>90</ele>
        <time>2021-03-21T10:27:50Z</time>
      </trkpt>
      <trkpt lat="43.68121" lon="3.87907">
        <ele>90</ele>
        <time>2021-03-21T10:27:52Z</time>
      </trkpt>
      <trkpt lat="43.68122" lon="3.8791">
        <ele>93</ele>
        <time>2021-03-21T10:27:54Z</time>
      </trkpt>
      <trkpt lat="43.68125" lon="3.87912">
        <ele>93</ele>
        <time>2021-03-21T10:27:56Z</time>
      </trkpt>
      <trkpt lat="43.68127" lon="3.87915">
        <ele>93</ele>
        <time>2021-03-21T10:27:58Z</time>
      </trkpt>
      <trkpt lat="43.68128" lon="3.87919">
        <ele>93</ele>
        <time>2021-03-21T10:28:00Z</time>
      </trkpt>
      <trkpt lat="43.68129" lon="3.87923">
        <ele>93</ele>
        <time>2021-03-21T10:28:02Z</time>
      </trkpt>
      <trkpt lat="43.68129" lon="3.87927">
        <ele>94</ele>
        <time>2021-03-21T10:28:04Z</time>
      </trkpt>
      <trkpt lat="43.68129" lon="3.87931">
        <ele>94</ele>
        <time>2021-03-21T10:28:06Z</time>
      </trkpt>
      <trkpt lat="43.6813" lon="3.87935">
        <ele>94</ele>
        <time>2021-03-21T10:28:08Z</time>
      </trkpt>
      <trkpt lat="43.6813" lon="3.8794">
        <ele>94</ele>
        <time>2021-03-21T10:28:10Z</time>
      </trkpt>
      <trkpt lat="43.68129" lon="3.87945">
        <ele>94</ele>
        <time>2021-03-21T10:28:12Z</time>
      </trkpt>
      <trkpt lat="43.6813" lon="3.87948">
        <ele>94</ele>
        <time>2021-03-21T10:28:15Z</time>
      </trkpt>
      <trkpt lat="43.6813" lon="3.87951">
        <ele>94</ele>
        <time>2021-03-21T10:28:17Z</time>
      </trkpt>
      <trkpt lat="43.68128" lon="3.87952">
        <ele>94</ele>
        <time>2021-03-21T10:28:21Z</time>
      </trkpt>
      <trkpt lat="43.68125" lon="3.87954">
        <ele>94</ele>
        <time>2021-03-21T10:28:23Z</time>
      </trkpt>
      <trkpt lat="43.68123" lon="3.87955">
        <ele>99</ele>
        <time>2021-03-21T10:28:24Z</time>
      </trkpt>
      <trkpt lat="43.68121" lon="3.87956">
        <ele>99</ele>
        <time>2021-03-21T10:28:25Z</time>
      </trkpt>
      <trkpt lat="43.68118" lon="3.87958">
        <ele>99</ele>
        <time>2021-03-21T10:28:27Z</time>
      </trkpt>
      <trkpt lat="43.68117" lon="3.8796">
        <ele>99</ele>
        <time>2021-03-21T10:28:37Z</time>
      </trkpt>
      <trkpt lat="43.68116" lon="3.87974">
        <ele>104</ele>
        <time>2021-03-21T10:29:19Z</time>
      </trkpt>
      <trkpt lat="43.68117" lon="3.87977">
        <ele>104</ele>
        <time>2021-03-21T10:29:20Z</time>
      </trkpt>
      <trkpt lat="43.68118" lon="3.87981">
        <ele>104</ele>
        <time>2021-03-21T10:29:22Z</time>
      </trkpt>
      <trkpt lat="43.68119" lon="3.87983">
        <ele>104</ele>
        <time>2021-03-21T10:29:23Z</time>
      </trkpt>
      <trkpt lat="43.6812" lon="3.87985">
        <ele>104</ele>
        <time>2021-03-21T10:29:24Z</time>
      </trkpt>
      <trkpt lat="43.68121" lon="3.87988">
        <ele>104</ele>
        <time>2021-03-21T10:29:25Z</time>
      </trkpt>
      <trkpt lat="43.68121" lon="3.87991">
        <ele>104</ele>
        <time>2021-03-21T10:29:26Z</time>
      </trkpt>
      <trkpt lat="43.68122" lon="3.87993">
        <ele>104</ele>
        <time>2021-03-21T10:29:27Z</time>
      </trkpt>
      <trkpt lat="43.68124" lon="3.87995">
        <ele>104</ele>
        <time>2021-03-21T10:29:28Z</time>
      </trkpt>
      <trkpt lat="43.68125" lon="3.87998">
        <ele>105</ele>
        <time>2021-03-21T10:29:29Z</time>
      </trkpt>
      <trkpt lat="43.68126" lon="3.88">
        <ele>105</ele>
        <time>2021-03-21T10:29:30Z</time>
      </trkpt>
      <trkpt lat="43.68128" lon="3.88002">
        <ele>105</ele>
        <time>2021-03-21T10:29:31Z</time>
      </trkpt>
      <trkpt lat="43.6813" lon="3.88004">
        <ele>105</ele>
        <time>2021-03-21T10:29:32Z</time>
      </trkpt>
      <trkpt lat="43.68133" lon="3.88005">
        <ele>105</ele>
        <time>2021-03-21T10:29:33Z</time>
      </trkpt>
      <trkpt lat="43.68135" lon="3.88006">
        <ele>105</ele>
        <time>2021-03-21T10:29:34Z</time>
      </trkpt>
      <trkpt lat="43.68137" lon="3.88006">
        <ele>105</ele>
        <time>2021-03-21T10:29:35Z</time>
      </trkpt>
      <trkpt lat="43.6814" lon="3.88006">
        <ele>105</ele>
        <time>2021-03-21T10:29:36Z</time>
      </trkpt>
      <trkpt lat="43.68142" lon="3.88007">
        <ele>105</ele>
        <time>2021-03-21T10:29:37Z</time>
      </trkpt>
      <trkpt lat="43.68145" lon="3.88007">
        <ele>105</ele>
        <time>2021-03-21T10:29:38Z</time>
      </trkpt>
      <trkpt lat="43.68149" lon="3.88007">
        <ele>106</ele>
        <time>2021-03-21T10:29:39Z</time>
      </trkpt>
      <trkpt lat="43.68152" lon="3.88009">
        <ele>106</ele>
        <time>2021-03-21T10:29:40Z</time>
      </trkpt>
      <trkpt lat="43.68154" lon="3.8801">
        <ele>106</ele>
        <time>2021-03-21T10:29:42Z</time>
      </trkpt>
      <trkpt lat="43.68156" lon="3.88012">
        <ele>106</ele>
        <time>2021-03-21T10:29:43Z</time>
      </trkpt>
      <trkpt lat="43.68162" lon="3.88014">
        <ele>106</ele>
        <time>2021-03-21T10:29:44Z</time>
      </trkpt>
      <trkpt lat="43.68164" lon="3.88017">
        <ele>106</ele>
        <time>2021-03-21T10:29:45Z</time>
      </trkpt>
      <trkpt lat="43.68166" lon="3.88019">
        <ele>106</ele>
        <time>2021-03-21T10:29:46Z</time>
      </trkpt>
      <trkpt lat="43.68167" lon="3.8802">
        <ele>105</ele>
        <time>2021-03-21T10:29:48Z</time>
      </trkpt>
      <trkpt lat="43.68169" lon="3.88022">
        <ele>105</ele>
        <time>2021-03-21T10:29:49Z</time>
      </trkpt>
      <trkpt lat="43.68171" lon="3.88024">
        <ele>105</ele>
        <time>2021-03-21T10:29:50Z</time>
      </trkpt>
      <trkpt lat="43.68173" lon="3.88026">
        <ele>105</ele>
        <time>2021-03-21T10:29:51Z</time>
      </trkpt>
      <trkpt lat="43.68175" lon="3.88028">
        <ele>105</ele>
        <time>2021-03-21T10:29:52Z</time>
      </trkpt>
      <trkpt lat="43.68177" lon="3.8803">
        <ele>105</ele>
        <time>2021-03-21T10:29:53Z</time>
      </trkpt>
      <trkpt lat="43.68179" lon="3.88031">
        <ele>105</ele>
        <time>2021-03-21T10:29:54Z</time>
      </trkpt>
      <trkpt lat="43.68181" lon="3.88033">
        <ele>105</ele>
        <time>2021-03-21T10:29:55Z</time>
      </trkpt>
      <trkpt lat="43.68184" lon="3.88035">
        <ele>105</ele>
        <time>2021-03-21T10:29:56Z</time>
      </trkpt>
      <trkpt lat="43.68186" lon="3.88037">
        <ele>105</ele>
        <time>2021-03-21T10:29:57Z</time>
      </trkpt>
      <trkpt lat="43.68188" lon="3.8804">
        <ele>105</ele>
        <time>2021-03-21T10:29:58Z</time>
      </trkpt>
      <trkpt lat="43.6819" lon="3.88042">
        <ele>105</ele>
        <time>2021-03-21T10:29:59Z</time>
      </trkpt>
      <trkpt lat="43.68192" lon="3.88045">
        <ele>105</ele>
        <time>2021-03-21T10:30:00Z</time>
      </trkpt>
      <trkpt lat="43.68194" lon="3.88048">
        <ele>105</ele>
        <time>2021-03-21T10:30:01Z</time>
      </trkpt>
      <trkpt lat="43.68195" lon="3.8805">
        <ele>105</ele>
        <time>2021-03-21T10:30:02Z</time>
      </trkpt>
      <trkpt lat="43.68197" lon="3.88053">
        <ele>105</ele>
        <time>2021-03-21T10:30:03Z</time>
      </trkpt>
      <trkpt lat="43.68198" lon="3.88055">
        <ele>105</ele>
        <time>2021-03-21T10:30:04Z</time>
      </trkpt>
      <trkpt lat="43.682" lon="3.88056">
        <ele>105</ele>
        <time>2021-03-21T10:30:05Z</time>
      </trkpt>
      <trkpt lat="43.68203" lon="3.88056">
        <ele>105</ele>
        <time>2021-03-21T10:30:06Z</time>
      </trkpt>
      <trkpt lat="43.68205" lon="3.88057">
        <ele>105</ele>
        <time>2021-03-21T10:30:07Z</time>
      </trkpt>
      <trkpt lat="43.68208" lon="3.88058">
        <ele>106</ele>
        <time>2021-03-21T10:30:09Z</time>
      </trkpt>
      <trkpt lat="43.6821" lon="3.88057">
        <ele>106</ele>
        <time>2021-03-21T10:30:10Z</time>
      </trkpt>
      <trkpt lat="43.68212" lon="3.88056">
        <ele>106</ele>
        <time>2021-03-21T10:30:11Z</time>
      </trkpt>
      <trkpt lat="43.68214" lon="3.88054">
        <ele>106</ele>
        <time>2021-03-21T10:30:12Z</time>
      </trkpt>
      <trkpt lat="43.68215" lon="3.88051">
        <ele>106</ele>
        <time>2021-03-21T10:30:13Z</time>
      </trkpt>
      <trkpt lat="43.68215" lon="3.88048">
        <ele>106</ele>
        <time>2021-03-21T10:30:14Z</time>
      </trkpt>
      <trkpt lat="43.68214" lon="3.88045">
        <ele>106</ele>
        <time>2021-03-21T10:30:15Z</time>
      </trkpt>
      <trkpt lat="43.68213" lon="3.88041">
        <ele>106</ele>
        <time>2021-03-21T10:30:16Z</time>
      </trkpt>
      <trkpt lat="43.68212" lon="3.88038">
        <ele>106</ele>
        <time>2021-03-21T10:30:17Z</time>
      </trkpt>
      <trkpt lat="43.68211" lon="3.88035">
        <ele>106</ele>
        <time>2021-03-21T10:30:18Z</time>
      </trkpt>
      <trkpt lat="43.6821" lon="3.88031">
        <ele>105</ele>
        <time>2021-03-21T10:30:19Z</time>
      </trkpt>
      <trkpt lat="43.68209" lon="3.88027">
        <ele>105</ele>
        <time>2021-03-21T10:30:20Z</time>
      </trkpt>
      <trkpt lat="43.68208" lon="3.88024">
        <ele>105</ele>
        <time>2021-03-21T10:30:21Z</time>
      </trkpt>
      <trkpt lat="43.68208" lon="3.88021">
        <ele>105</ele>
        <time>2021-03-21T10:30:22Z</time>
      </trkpt>
      <trkpt lat="43.68207" lon="3.88017">
        <ele>105</ele>
        <time>2021-03-21T10:30:23Z</time>
      </trkpt>
      <trkpt lat="43.68206" lon="3.88013">
        <ele>105</ele>
        <time>2021-03-21T10:30:24Z</time>
      </trkpt>
      <trkpt lat="43.68205" lon="3.88009">
        <ele>105</ele>
        <time>2021-03-21T10:30:25Z</time>
      </trkpt>
      <trkpt lat="43.68204" lon="3.88006">
        <ele>105</ele>
        <time>2021-03-21T10:30:26Z</time>
      </trkpt>
      <trkpt lat="43.68204" lon="3.88002">
        <ele>105</ele>
        <time>2021-03-21T10:30:27Z</time>
      </trkpt>
      <trkpt lat="43.68203" lon="3.87998">
        <ele>105</ele>
        <time>2021-03-21T10:30:28Z</time>
      </trkpt>
      <trkpt lat="43.68204" lon="3.87994">
        <ele>105</ele>
        <time>2021-03-21T10:30:29Z</time>
      </trkpt>
      <trkpt lat="43.68204" lon="3.8799">
        <ele>105</ele>
        <time>2021-03-21T10:30:30Z</time>
      </trkpt>
      <trkpt lat="43.68205" lon="3.87986">
        <ele>105</ele>
        <time>2021-03-21T10:30:31Z</time>
      </trkpt>
      <trkpt lat="43.68206" lon="3.87982">
        <ele>105</ele>
        <time>2021-03-21T10:30:32Z</time>
      </trkpt>
      <trkpt lat="43.68208" lon="3.8798">
        <ele>105</ele>
        <time>2021-03-21T10:30:33Z</time>
      </trkpt>
      <trkpt lat="43.68209" lon="3.87978">
        <ele>105</ele>
        <time>2021-03-21T10:30:34Z</time>
      </trkpt>
      <trkpt lat="43.68211" lon="3.87977">
        <ele>105</ele>
        <time>2021-03-21T10:30:35Z</time>
      </trkpt>
      <trkpt lat="43.68213" lon="3.87976">
        <ele>105</ele>
        <time>2021-03-21T10:30:36Z</time>
      </trkpt>
      <trkpt lat="43.68215" lon="3.87976">
        <ele>105</ele>
        <time>2021-03-21T10:30:37Z</time>
      </trkpt>
      <trkpt lat="43.68217" lon="3.87976">
        <ele>105</ele>
        <time>2021-03-21T10:30:38Z</time>
      </trkpt>
      <trkpt lat="43.68219" lon="3.87977">
        <ele>105</ele>
        <time>2021-03-21T10:30:40Z</time>
      </trkpt>
      <trkpt lat="43.68223" lon="3.87978">
        <ele>105</ele>
        <time>2021-03-21T10:30:42Z</time>
      </trkpt>
      <trkpt lat="43.68226" lon="3.87979">
        <ele>105</ele>
        <time>2021-03-21T10:30:44Z</time>
      </trkpt>
      <trkpt lat="43.68229" lon="3.8798">
        <ele>105</ele>
        <time>2021-03-21T10:30:46Z</time>
      </trkpt>
      <trkpt lat="43.68232" lon="3.8798">
        <ele>105</ele>
        <time>2021-03-21T10:30:47Z</time>
      </trkpt>
      <trkpt lat="43.68234" lon="3.87981">
        <ele>107</ele>
        <time>2021-03-21T10:30:48Z</time>
      </trkpt>
      <trkpt lat="43.68236" lon="3.87982">
        <ele>107</ele>
        <time>2021-03-21T10:30:49Z</time>
      </trkpt>
      <trkpt lat="43.68238" lon="3.87983">
        <ele>107</ele>
        <time>2021-03-21T10:30:50Z</time>
      </trkpt>
      <trkpt lat="43.68241" lon="3.87983">
        <ele>107</ele>
        <time>2021-03-21T10:30:51Z</time>
      </trkpt>
      <trkpt lat="43.68243" lon="3.87983">
        <ele>107</ele>
        <time>2021-03-21T10:30:52Z</time>
      </trkpt>
      <trkpt lat="43.68245" lon="3.87982">
        <ele>107</ele>
        <time>2021-03-21T10:30:53Z</time>
      </trkpt>
      <trkpt lat="43.68248" lon="3.87982">
        <ele>107</ele>
        <time>2021-03-21T10:30:54Z</time>
      </trkpt>
      <trkpt lat="43.6825" lon="3.87982">
        <ele>107</ele>
        <time>2021-03-21T10:30:55Z</time>
      </trkpt>
      <trkpt lat="43.68252" lon="3.87982">
        <ele>107</ele>
        <time>2021-03-21T10:30:56Z</time>
      </trkpt>
      <trkpt lat="43.68254" lon="3.87981">
        <ele>107</ele>
        <time>2021-03-21T10:30:57Z</time>
      </trkpt>
      <trkpt lat="43.68257" lon="3.87981">
        <ele>107</ele>
        <time>2021-03-21T10:30:58Z</time>
      </trkpt>
      <trkpt lat="43.68259" lon="3.8798">
        <ele>108</ele>
        <time>2021-03-21T10:30:59Z</time>
      </trkpt>
      <trkpt lat="43.68262" lon="3.8798">
        <ele>108</ele>
        <time>2021-03-21T10:31:00Z</time>
      </trkpt>
      <trkpt lat="43.68264" lon="3.8798">
        <ele>108</ele>
        <time>2021-03-21T10:31:01Z</time>
      </trkpt>
      <trkpt lat="43.68266" lon="3.8798">
        <ele>108</ele>
        <time>2021-03-21T10:31:02Z</time>
      </trkpt>
      <trkpt lat="43.68268" lon="3.8798">
        <ele>108</ele>
        <time>2021-03-21T10:31:03Z</time>
      </trkpt>
      <trkpt lat="43.6827" lon="3.8798">
        <ele>108</ele>
        <time>2021-03-21T10:31:04Z</time>
      </trkpt>
      <trkpt lat="43.68272" lon="3.87981">
        <ele>108</ele>
        <time>2021-03-21T10:31:05Z</time>
      </trkpt>
      <trkpt lat="43.68275" lon="3.87981">
        <ele>108</ele>
        <time>2021-03-21T10:31:06Z</time>
      </trkpt>
      <trkpt lat="43.68277" lon="3.87982">
        <ele>108</ele>
        <time>2021-03-21T10:31:07Z</time>
      </trkpt>
      <trkpt lat="43.68279" lon="3.87983">
        <ele>108</ele>
        <time>2021-03-21T10:31:08Z</time>
      </trkpt>
      <trkpt lat="43.68281" lon="3.87984">
        <ele>108</ele>
        <time>2021-03-21T10:31:09Z</time>
      </trkpt>
      <trkpt lat="43.68283" lon="3.87985">
        <ele>108</ele>
        <time>2021-03-21T10:31:10Z</time>
      </trkpt>
      <trkpt lat="43.68285" lon="3.87986">
        <ele>108</ele>
        <time>2021-03-21T10:31:11Z</time>
      </trkpt>
      <trkpt lat="43.68287" lon="3.87987">
        <ele>108</ele>
        <time>2021-03-21T10:31:12Z</time>
      </trkpt>
      <trkpt lat="43.68289" lon="3.87989">
        <ele>108</ele>
        <time>2021-03-21T10:31:13Z</time>
      </trkpt>
      <trkpt lat="43.68291" lon="3.8799">
        <ele>108</ele>
        <time>2021-03-21T10:31:14Z</time>
      </trkpt>
      <trkpt lat="43.68293" lon="3.87994">
        <ele>108</ele>
        <time>2021-03-21T10:31:16Z</time>
      </trkpt>
      <trkpt lat="43.68295" lon="3.87996">
        <ele>108</ele>
        <time>2021-03-21T10:31:17Z</time>
      </trkpt>
      <trkpt lat="43.68297" lon="3.87997">
        <ele>107</ele>
        <time>2021-03-21T10:31:18Z</time>
      </trkpt>
      <trkpt lat="43.68299" lon="3.87998">
        <ele>107</ele>
        <time>2021-03-21T10:31:19Z</time>
      </trkpt>
      <trkpt lat="43.68301" lon="3.88">
        <ele>107</ele>
        <time>2021-03-21T10:31:20Z</time>
      </trkpt>
      <trkpt lat="43.68303" lon="3.88002">
        <ele>107</ele>
        <time>2021-03-21T10:31:21Z</time>
      </trkpt>
      <trkpt lat="43.68305" lon="3.88003">
        <ele>107</ele>
        <time>2021-03-21T10:31:22Z</time>
      </trkpt>
      <trkpt lat="43.68307" lon="3.88004">
        <ele>107</ele>
        <time>2021-03-21T10:31:23Z</time>
      </trkpt>
      <trkpt lat="43.68309" lon="3.88006">
        <ele>107</ele>
        <time>2021-03-21T10:31:24Z</time>
      </trkpt>
      <trkpt lat="43.68311" lon="3.88007">
        <ele>107</ele>
        <time>2021-03-21T10:31:25Z</time>
      </trkpt>
      <trkpt lat="43.68313" lon="3.88009">
        <ele>107</ele>
        <time>2021-03-21T10:31:26Z</time>
      </trkpt>
      <trkpt lat="43.68315" lon="3.8801">
        <ele>107</ele>
        <time>2021-03-21T10:31:27Z</time>
      </trkpt>
      <trkpt lat="43.68316" lon="3.88012">
        <ele>107</ele>
        <time>2021-03-21T10:31:28Z</time>
      </trkpt>
      <trkpt lat="43.68319" lon="3.88014">
        <ele>107</ele>
        <time>2021-03-21T10:31:30Z</time>
      </trkpt>
      <trkpt lat="43.68322" lon="3.88017">
        <ele>107</ele>
        <time>2021-03-21T10:31:32Z</time>
      </trkpt>
      <trkpt lat="43.68325" lon="3.88019">
        <ele>107</ele>
        <time>2021-03-21T10:31:34Z</time>
      </trkpt>
      <trkpt lat="43.68328" lon="3.88022">
        <ele>107</ele>
        <time>2021-03-21T10:31:36Z</time>
      </trkpt>
      <trkpt lat="43.6833" lon="3.88024">
        <ele>107</ele>
        <time>2021-03-21T10:31:38Z</time>
      </trkpt>
      <trkpt lat="43.68333" lon="3.88026">
        <ele>107</ele>
        <time>2021-03-21T10:31:40Z</time>
      </trkpt>
      <trkpt lat="43.68335" lon="3.88027">
        <ele>107</ele>
        <time>2021-03-21T10:31:42Z</time>
      </trkpt>
      <trkpt lat="43.68338" lon="3.88029">
        <ele>107</ele>
        <time>2021-03-21T10:31:44Z</time>
      </trkpt>
      <trkpt lat="43.68341" lon="3.88031">
        <ele>107</ele>
        <time>2021-03-21T10:31:46Z</time>
      </trkpt>
      <trkpt lat="43.68344" lon="3.88033">
        <ele>107</ele>
        <time>2021-03-21T10:31:48Z</time>
      </trkpt>
      <trkpt lat="43.68347" lon="3.88035">
        <ele>107</ele>
        <time>2021-03-21T10:31:50Z</time>
      </trkpt>
      <trkpt lat="43.6835" lon="3.88036">
        <ele>107</ele>
        <time>2021-03-21T10:31:52Z</time>
      </trkpt>
      <trkpt lat="43.68353" lon="3.88039">
        <ele>107</ele>
        <time>2021-03-21T10:31:54Z</time>
      </trkpt>
      <trkpt lat="43.68355" lon="3.88041">
        <ele>107</ele>
        <time>2021-03-21T10:31:56Z</time>
      </trkpt>
      <trkpt lat="43.68358" lon="3.88044">
        <ele>107</ele>
        <time>2021-03-21T10:31:58Z</time>
      </trkpt>
      <trkpt lat="43.68359" lon="3.88047">
        <ele>107</ele>
        <time>2021-03-21T10:32:00Z</time>
      </trkpt>
      <trkpt lat="43.68361" lon="3.8805">
        <ele>107</ele>
        <time>2021-03-21T10:32:02Z</time>
      </trkpt>
      <trkpt lat="43.68363" lon="3.88051">
        <ele>107</ele>
        <time>2021-03-21T10:32:03Z</time>
      </trkpt>
      <trkpt lat="43.68364" lon="3.88052">
        <ele>107</ele>
        <time>2021-03-21T10:32:04Z</time>
      </trkpt>
      <trkpt lat="43.68366" lon="3.88054">
        <ele>107</ele>
        <time>2021-03-21T10:32:05Z</time>
      </trkpt>
      <trkpt lat="43.68367" lon="3.88056">
        <ele>107</ele>
        <time>2021-03-21T10:32:06Z</time>
      </trkpt>
      <trkpt lat="43.68369" lon="3.88059">
        <ele>107</ele>
        <time>2021-03-21T10:32:08Z</time>
      </trkpt>
      <trkpt lat="43.68371" lon="3.88061">
        <ele>108</ele>
        <time>2021-03-21T10:32:09Z</time>
      </trkpt>
      <trkpt lat="43.68372" lon="3.88063">
        <ele>108</ele>
        <time>2021-03-21T10:32:10Z</time>
      </trkpt>
      <trkpt lat="43.68373" lon="3.88067">
        <ele>108</ele>
        <time>2021-03-21T10:32:12Z</time>
      </trkpt>
      <trkpt lat="43.68375" lon="3.88069">
        <ele>108</ele>
        <time>2021-03-21T10:32:13Z</time>
      </trkpt>
      <trkpt lat="43.68376" lon="3.88072">
        <ele>108</ele>
        <time>2021-03-21T10:32:14Z</time>
      </trkpt>
      <trkpt lat="43.68377" lon="3.88074">
        <ele>108</ele>
        <time>2021-03-21T10:32:15Z</time>
      </trkpt>
      <trkpt lat="43.68378" lon="3.88076">
        <ele>108</ele>
        <time>2021-03-21T10:32:16Z</time>
      </trkpt>
      <trkpt lat="43.68379" lon="3.88078">
        <ele>108</ele>
        <time>2021-03-21T10:32:17Z</time>
      </trkpt>
      <trkpt lat="43.68381" lon="3.88079">
        <ele>108</ele>
        <time>2021-03-21T10:32:18Z</time>
      </trkpt>
      <trkpt lat="43.68384" lon="3.88081">
        <ele>107</ele>
        <time>2021-03-21T10:32:19Z</time>
      </trkpt>
      <trkpt lat="43.68387" lon="3.88083">
        <ele>107</ele>
        <time>2021-03-21T10:32:20Z</time>
      </trkpt>
      <trkpt lat="43.6839" lon="3.88085">
        <ele>107</ele>
        <time>2021-03-21T10:32:21Z</time>
      </trkpt>
      <trkpt lat="43.68393" lon="3.88087">
        <ele>107</ele>
        <time>2021-03-21T10:32:22Z</time>
      </trkpt>
      <trkpt lat="43.68396" lon="3.88088">
        <ele>107</ele>
        <time>2021-03-21T10:32:23Z</time>
      </trkpt>
      <trkpt lat="43.68398" lon="3.8809">
        <ele>107</ele>
        <time>2021-03-21T10:32:24Z</time>
      </trkpt>
      <trkpt lat="43.68401" lon="3.88091">
        <ele>107</ele>
        <time>2021-03-21T10:32:25Z</time>
      </trkpt>
      <trkpt lat="43.68404" lon="3.88092">
        <ele>107</ele>
        <time>2021-03-21T10:32:26Z</time>
      </trkpt>
      <trkpt lat="43.68406" lon="3.88093">
        <ele>107</ele>
        <time>2021-03-21T10:32:27Z</time>
      </trkpt>
      <trkpt lat="43.68409" lon="3.88094">
        <ele>109</ele>
        <time>2021-03-21T10:32:29Z</time>
      </trkpt>
      <trkpt lat="43.68411" lon="3.88097">
        <ele>109</ele>
        <time>2021-03-21T10:32:31Z</time>
      </trkpt>
      <trkpt lat="43.68414" lon="3.881">
        <ele>109</ele>
        <time>2021-03-21T10:32:33Z</time>
      </trkpt>
      <trkpt lat="43.68415" lon="3.88103">
        <ele>109</ele>
        <time>2021-03-21T10:32:35Z</time>
      </trkpt>
      <trkpt lat="43.68417" lon="3.88106">
        <ele>109</ele>
        <time>2021-03-21T10:32:37Z</time>
      </trkpt>
      <trkpt lat="43.68419" lon="3.88108">
        <ele>109</ele>
        <time>2021-03-21T10:32:39Z</time>
      </trkpt>
      <trkpt lat="43.68422" lon="3.88109">
        <ele>109</ele>
        <time>2021-03-21T10:32:41Z</time>
      </trkpt>
      <trkpt lat="43.68425" lon="3.8811">
        <ele>109</ele>
        <time>2021-03-21T10:32:43Z</time>
      </trkpt>
      <trkpt lat="43.68428" lon="3.8811">
        <ele>109</ele>
        <time>2021-03-21T10:32:45Z</time>
      </trkpt>
      <trkpt lat="43.6843" lon="3.88111">
        <ele>109</ele>
        <time>2021-03-21T10:32:47Z</time>
      </trkpt>
      <trkpt lat="43.68433" lon="3.88113">
        <ele>112</ele>
        <time>2021-03-21T10:32:49Z</time>
      </trkpt>
      <trkpt lat="43.68435" lon="3.88116">
        <ele>112</ele>
        <time>2021-03-21T10:32:51Z</time>
      </trkpt>
      <trkpt lat="43.68437" lon="3.8812">
        <ele>112</ele>
        <time>2021-03-21T10:32:53Z</time>
      </trkpt>
      <trkpt lat="43.68439" lon="3.88124">
        <ele>112</ele>
        <time>2021-03-21T10:32:54Z</time>
      </trkpt>
      <trkpt lat="43.6844" lon="3.88128">
        <ele>112</ele>
        <time>2021-03-21T10:32:56Z</time>
      </trkpt>
      <trkpt lat="43.68442" lon="3.88132">
        <ele>112</ele>
        <time>2021-03-21T10:32:59Z</time>
      </trkpt>
      <trkpt lat="43.68444" lon="3.88135">
        <ele>112</ele>
        <time>2021-03-21T10:33:01Z</time>
      </trkpt>
      <trkpt lat="43.68446" lon="3.88139">
        <ele>112</ele>
        <time>2021-03-21T10:33:03Z</time>
      </trkpt>
      <trkpt lat="43.68448" lon="3.88142">
        <ele>112</ele>
        <time>2021-03-21T10:33:05Z</time>
      </trkpt>
      <trkpt lat="43.68449" lon="3.88145">
        <ele>112</ele>
        <time>2021-03-21T10:33:07Z</time>
      </trkpt>
      <trkpt lat="43.68452" lon="3.88147">
        <ele>114</ele>
        <time>2021-03-21T10:33:09Z</time>
      </trkpt>
      <trkpt lat="43.68456" lon="3.88147">
        <ele>114</ele>
        <time>2021-03-21T10:33:10Z</time>
      </trkpt>
      <trkpt lat="43.68458" lon="3.88148">
        <ele>114</ele>
        <time>2021-03-21T10:33:13Z</time>
      </trkpt>
      <trkpt lat="43.6846" lon="3.88151">
        <ele>114</ele>
        <time>2021-03-21T10:33:15Z</time>
      </trkpt>
      <trkpt lat="43.68463" lon="3.88153">
        <ele>114</ele>
        <time>2021-03-21T10:33:16Z</time>
      </trkpt>
      <trkpt lat="43.68465" lon="3.88157">
        <ele>114</ele>
        <time>2021-03-21T10:33:19Z</time>
      </trkpt>
      <trkpt lat="43.68467" lon="3.8816">
        <ele>114</ele>
        <time>2021-03-21T10:33:21Z</time>
      </trkpt>
      <trkpt lat="43.68469" lon="3.88161">
        <ele>114</ele>
        <time>2021-03-21T10:33:22Z</time>
      </trkpt>
      <trkpt lat="43.68471" lon="3.88162">
        <ele>114</ele>
        <time>2021-03-21T10:33:23Z</time>
      </trkpt>
      <trkpt lat="43.68472" lon="3.88164">
        <ele>114</ele>
        <time>2021-03-21T10:33:24Z</time>
      </trkpt>
      <trkpt lat="43.68474" lon="3.88166">
        <ele>114</ele>
        <time>2021-03-21T10:33:26Z</time>
      </trkpt>
      <trkpt lat="43.68476" lon="3.88168">
        <ele>114</ele>
        <time>2021-03-21T10:33:27Z</time>
      </trkpt>
      <trkpt lat="43.68478" lon="3.88169">
        <ele>114</ele>
        <time>2021-03-21T10:33:28Z</time>
      </trkpt>
      <trkpt lat="43.68479" lon="3.88171">
        <ele>116</ele>
        <time>2021-03-21T10:33:29Z</time>
      </trkpt>
      <trkpt lat="43.68481" lon="3.88173">
        <ele>116</ele>
        <time>2021-03-21T10:33:30Z</time>
      </trkpt>
      <trkpt lat="43.68482" lon="3.88175">
        <ele>116</ele>
        <time>2021-03-21T10:33:31Z</time>
      </trkpt>
      <trkpt lat="43.68484" lon="3.88177">
        <ele>116</ele>
        <time>2021-03-21T10:33:32Z</time>
      </trkpt>
      <trkpt lat="43.68486" lon="3.88181">
        <ele>116</ele>
        <time>2021-03-21T10:33:34Z</time>
      </trkpt>
      <trkpt lat="43.68487" lon="3.88183">
        <ele>116</ele>
        <time>2021-03-21T10:33:35Z</time>
      </trkpt>
      <trkpt lat="43.68488" lon="3.88185">
        <ele>116</ele>
        <time>2021-03-21T10:33:36Z</time>
      </trkpt>
      <trkpt lat="43.68489" lon="3.88187">
        <ele>116</ele>
        <time>2021-03-21T10:33:37Z</time>
      </trkpt>
      <trkpt lat="43.68492" lon="3.8819">
        <ele>116</ele>
        <time>2021-03-21T10:33:39Z</time>
      </trkpt>
      <trkpt lat="43.68493" lon="3.88191">
        <ele>116</ele>
        <time>2021-03-21T10:33:40Z</time>
      </trkpt>
      <trkpt lat="43.68495" lon="3.88193">
        <ele>116</ele>
        <time>2021-03-21T10:33:41Z</time>
      </trkpt>
      <trkpt lat="43.68497" lon="3.88195">
        <ele>116</ele>
        <time>2021-03-21T10:33:42Z</time>
      </trkpt>
      <trkpt lat="43.68499" lon="3.88196">
        <ele>116</ele>
        <time>2021-03-21T10:33:43Z</time>
      </trkpt>
      <trkpt lat="43.685" lon="3.88198">
        <ele>116</ele>
        <time>2021-03-21T10:33:44Z</time>
      </trkpt>
      <trkpt lat="43.68501" lon="3.882">
        <ele>116</ele>
        <time>2021-03-21T10:33:45Z</time>
      </trkpt>
      <trkpt lat="43.68502" lon="3.88202">
        <ele>116</ele>
        <time>2021-03-21T10:33:46Z</time>
      </trkpt>
      <trkpt lat="43.68504" lon="3.88204">
        <ele>116</ele>
        <time>2021-03-21T10:33:47Z</time>
      </trkpt>
      <trkpt lat="43.6851" lon="3.88212">
        <ele>116</ele>
        <time>2021-03-21T10:33:50Z</time>
      </trkpt>
      <trkpt lat="43.68512" lon="3.88214">
        <ele>116</ele>
        <time>2021-03-21T10:33:51Z</time>
      </trkpt>
      <trkpt lat="43.68513" lon="3.88216">
        <ele>116</ele>
        <time>2021-03-21T10:33:52Z</time>
      </trkpt>
      <trkpt lat="43.68515" lon="3.88219">
        <ele>116</ele>
        <time>2021-03-21T10:33:54Z</time>
      </trkpt>
      <trkpt lat="43.68517" lon="3.88221">
        <ele>116</ele>
        <time>2021-03-21T10:33:55Z</time>
      </trkpt>
      <trkpt lat="43.68519" lon="3.88222">
        <ele>116</ele>
        <time>2021-03-21T10:33:56Z</time>
      </trkpt>
      <trkpt lat="43.6852" lon="3.88224">
        <ele>116</ele>
        <time>2021-03-21T10:33:57Z</time>
      </trkpt>
      <trkpt lat="43.68522" lon="3.88225">
        <ele>116</ele>
        <time>2021-03-21T10:33:58Z</time>
      </trkpt>
      <trkpt lat="43.68524" lon="3.88227">
        <ele>118</ele>
        <time>2021-03-21T10:33:59Z</time>
      </trkpt>
      <trkpt lat="43.68527" lon="3.88229">
        <ele>118</ele>
        <time>2021-03-21T10:34:01Z</time>
      </trkpt>
      <trkpt lat="43.68529" lon="3.8823">
        <ele>118</ele>
        <time>2021-03-21T10:34:02Z</time>
      </trkpt>
      <trkpt lat="43.68532" lon="3.88233">
        <ele>118</ele>
        <time>2021-03-21T10:34:04Z</time>
      </trkpt>
      <trkpt lat="43.68533" lon="3.88236">
        <ele>118</ele>
        <time>2021-03-21T10:34:05Z</time>
      </trkpt>
      <trkpt lat="43.68534" lon="3.88238">
        <ele>118</ele>
        <time>2021-03-21T10:34:06Z</time>
      </trkpt>
      <trkpt lat="43.68535" lon="3.88241">
        <ele>118</ele>
        <time>2021-03-21T10:34:07Z</time>
      </trkpt>
      <trkpt lat="43.68537" lon="3.88242">
        <ele>118</ele>
        <time>2021-03-21T10:34:08Z</time>
      </trkpt>
      <trkpt lat="43.68539" lon="3.88244">
        <ele>118</ele>
        <time>2021-03-21T10:34:10Z</time>
      </trkpt>
      <trkpt lat="43.68542" lon="3.88248">
        <ele>118</ele>
        <time>2021-03-21T10:34:12Z</time>
      </trkpt>
      <trkpt lat="43.68543" lon="3.88251">
        <ele>118</ele>
        <time>2021-03-21T10:34:13Z</time>
      </trkpt>
      <trkpt lat="43.68544" lon="3.88253">
        <ele>118</ele>
        <time>2021-03-21T10:34:14Z</time>
      </trkpt>
      <trkpt lat="43.68544" lon="3.88257">
        <ele>118</ele>
        <time>2021-03-21T10:34:16Z</time>
      </trkpt>
      <trkpt lat="43.68542" lon="3.88261">
        <ele>121</ele>
        <time>2021-03-21T10:34:18Z</time>
      </trkpt>
      <trkpt lat="43.68541" lon="3.88264">
        <ele>121</ele>
        <time>2021-03-21T10:34:19Z</time>
      </trkpt>
      <trkpt lat="43.68539" lon="3.88266">
        <ele>121</ele>
        <time>2021-03-21T10:34:21Z</time>
      </trkpt>
      <trkpt lat="43.68537" lon="3.88267">
        <ele>121</ele>
        <time>2021-03-21T10:34:22Z</time>
      </trkpt>
      <trkpt lat="43.68535" lon="3.88269">
        <ele>121</ele>
        <time>2021-03-21T10:34:23Z</time>
      </trkpt>
      <trkpt lat="43.68534" lon="3.8827">
        <ele>121</ele>
        <time>2021-03-21T10:34:24Z</time>
      </trkpt>
      <trkpt lat="43.68531" lon="3.88272">
        <ele>121</ele>
        <time>2021-03-21T10:34:26Z</time>
      </trkpt>
      <trkpt lat="43.68529" lon="3.88274">
        <ele>124</ele>
        <time>2021-03-21T10:34:28Z</time>
      </trkpt>
      <trkpt lat="43.68526" lon="3.88275">
        <ele>124</ele>
        <time>2021-03-21T10:34:30Z</time>
      </trkpt>
      <trkpt lat="43.68524" lon="3.88274">
        <ele>124</ele>
        <time>2021-03-21T10:34:32Z</time>
      </trkpt>
      <trkpt lat="43.68521" lon="3.88273">
        <ele>124</ele>
        <time>2021-03-21T10:34:34Z</time>
      </trkpt>
      <trkpt lat="43.68518" lon="3.88272">
        <ele>124</ele>
        <time>2021-03-21T10:34:36Z</time>
      </trkpt>
      <trkpt lat="43.68516" lon="3.8827">
        <ele>124</ele>
        <time>2021-03-21T10:34:38Z</time>
      </trkpt>
      <trkpt lat="43.68512" lon="3.88269">
        <ele>124</ele>
        <time>2021-03-21T10:34:40Z</time>
      </trkpt>
      <trkpt lat="43.68509" lon="3.88268">
        <ele>124</ele>
        <time>2021-03-21T10:34:42Z</time>
      </trkpt>
      <trkpt lat="43.68506" lon="3.88268">
        <ele>124</ele>
        <time>2021-03-21T10:34:44Z</time>
      </trkpt>
      <trkpt lat="43.68503" lon="3.88267">
        <ele>124</ele>
        <time>2021-03-21T10:34:46Z</time>
      </trkpt>
      <trkpt lat="43.685" lon="3.88267">
        <ele>124</ele>
        <time>2021-03-21T10:34:48Z</time>
      </trkpt>
      <trkpt lat="43.68496" lon="3.88266">
        <ele>124</ele>
        <time>2021-03-21T10:34:50Z</time>
      </trkpt>
      <trkpt lat="43.68494" lon="3.88265">
        <ele>124</ele>
        <time>2021-03-21T10:34:51Z</time>
      </trkpt>
      <trkpt lat="43.68492" lon="3.88264">
        <ele>124</ele>
        <time>2021-03-21T10:34:52Z</time>
      </trkpt>
      <trkpt lat="43.68489" lon="3.88264">
        <ele>124</ele>
        <time>2021-03-21T10:34:53Z</time>
      </trkpt>
      <trkpt lat="43.68487" lon="3.88264">
        <ele>124</ele>
        <time>2021-03-21T10:34:54Z</time>
      </trkpt>
      <trkpt lat="43.68485" lon="3.88264">
        <ele>124</ele>
        <time>2021-03-21T10:34:55Z</time>
      </trkpt>
      <trkpt lat="43.68483" lon="3.88264">
        <ele>124</ele>
        <time>2021-03-21T10:34:56Z</time>
      </trkpt>
      <trkpt lat="43.6848" lon="3.88264">
        <ele>124</ele>
        <time>2021-03-21T10:34:57Z</time>
      </trkpt>
      <trkpt lat="43.68478" lon="3.88264">
        <ele>125</ele>
        <time>2021-03-21T10:34:58Z</time>
      </trkpt>
      <trkpt lat="43.68476" lon="3.88264">
        <ele>125</ele>
        <time>2021-03-21T10:34:59Z</time>
      </trkpt>
      <trkpt lat="43.68474" lon="3.88264">
        <ele>125</ele>
        <time>2021-03-21T10:35:00Z</time>
      </trkpt>
      <trkpt lat="43.68471" lon="3.88264">
        <ele>125</ele>
        <time>2021-03-21T10:35:01Z</time>
      </trkpt>
      <trkpt lat="43.68469" lon="3.88264">
        <ele>125</ele>
        <time>2021-03-21T10:35:02Z</time>
      </trkpt>
      <trkpt lat="43.68467" lon="3.88264">
        <ele>125</ele>
        <time>2021-03-21T10:35:03Z</time>
      </trkpt>
      <trkpt lat="43.68466" lon="3.88264">
        <ele>125</ele>
        <time>2021-03-21T10:35:04Z</time>
      </trkpt>
      <trkpt lat="43.68463" lon="3.88265">
        <ele>125</ele>
        <time>2021-03-21T10:35:06Z</time>
      </trkpt>
      <trkpt lat="43.68461" lon="3.88264">
        <ele>125</ele>
        <time>2021-03-21T10:35:07Z</time>
      </trkpt>
      <trkpt lat="43.68459" lon="3.88263">
        <ele>125</ele>
        <time>2021-03-21T10:35:08Z</time>
      </trkpt>
      <trkpt lat="43.68456" lon="3.88263">
        <ele>126</ele>
        <time>2021-03-21T10:35:09Z</time>
      </trkpt>
      <trkpt lat="43.68454" lon="3.88262">
        <ele>126</ele>
        <time>2021-03-21T10:35:10Z</time>
      </trkpt>
      <trkpt lat="43.68451" lon="3.88262">
        <ele>126</ele>
        <time>2021-03-21T10:35:12Z</time>
      </trkpt>
      <trkpt lat="43.68449" lon="3.88261">
        <ele>126</ele>
        <time>2021-03-21T10:35:13Z</time>
      </trkpt>
      <trkpt lat="43.68447" lon="3.8826">
        <ele>126</ele>
        <time>2021-03-21T10:35:15Z</time>
      </trkpt>
      <trkpt lat="43.68444" lon="3.88259">
        <ele>126</ele>
        <time>2021-03-21T10:35:17Z</time>
      </trkpt>
      <trkpt lat="43.6844" lon="3.88258">
        <ele>127</ele>
        <time>2021-03-21T10:35:19Z</time>
      </trkpt>
      <trkpt lat="43.68437" lon="3.88258">
        <ele>127</ele>
        <time>2021-03-21T10:35:20Z</time>
      </trkpt>
      <trkpt lat="43.68435" lon="3.88257">
        <ele>127</ele>
        <time>2021-03-21T10:35:21Z</time>
      </trkpt>
      <trkpt lat="43.68433" lon="3.88257">
        <ele>127</ele>
        <time>2021-03-21T10:35:22Z</time>
      </trkpt>
      <trkpt lat="43.68432" lon="3.88256">
        <ele>127</ele>
        <time>2021-03-21T10:35:23Z</time>
      </trkpt>
      <trkpt lat="43.68429" lon="3.88256">
        <ele>127</ele>
        <time>2021-03-21T10:35:24Z</time>
      </trkpt>
      <trkpt lat="43.68427" lon="3.88255">
        <ele>127</ele>
        <time>2021-03-21T10:35:25Z</time>
      </trkpt>
      <trkpt lat="43.68425" lon="3.88255">
        <ele>127</ele>
        <time>2021-03-21T10:35:26Z</time>
      </trkpt>
      <trkpt lat="43.68423" lon="3.88255">
        <ele>127</ele>
        <time>2021-03-21T10:35:27Z</time>
      </trkpt>
      <trkpt lat="43.68421" lon="3.88255">
        <ele>127</ele>
        <time>2021-03-21T10:35:28Z</time>
      </trkpt>
      <trkpt lat="43.68419" lon="3.88255">
        <ele>127</ele>
        <time>2021-03-21T10:35:29Z</time>
      </trkpt>
      <trkpt lat="43.68416" lon="3.88255">
        <ele>127</ele>
        <time>2021-03-21T10:35:32Z</time>
      </trkpt>
      <trkpt lat="43.68414" lon="3.88255">
        <ele>127</ele>
        <time>2021-03-21T10:35:33Z</time>
      </trkpt>
      <trkpt lat="43.68411" lon="3.88256">
        <ele>127</ele>
        <time>2021-03-21T10:35:34Z</time>
      </trkpt>
      <trkpt lat="43.68407" lon="3.88257">
        <ele>127</ele>
        <time>2021-03-21T10:35:35Z</time>
      </trkpt>
      <trkpt lat="43.68404" lon="3.88257">
        <ele>127</ele>
        <time>2021-03-21T10:35:36Z</time>
      </trkpt>
      <trkpt lat="43.684" lon="3.88258">
        <ele>127</ele>
        <time>2021-03-21T10:35:37Z</time>
      </trkpt>
      <trkpt lat="43.68397" lon="3.88258">
        <ele>127</ele>
        <time>2021-03-21T10:35:38Z</time>
      </trkpt>
      <trkpt lat="43.68393" lon="3.88258">
        <ele>128</ele>
        <time>2021-03-21T10:35:39Z</time>
      </trkpt>
      <trkpt lat="43.6839" lon="3.88258">
        <ele>128</ele>
        <time>2021-03-21T10:35:40Z</time>
      </trkpt>
      <trkpt lat="43.68386" lon="3.88257">
        <ele>128</ele>
        <time>2021-03-21T10:35:41Z</time>
      </trkpt>
      <trkpt lat="43.68382" lon="3.88257">
        <ele>128</ele>
        <time>2021-03-21T10:35:42Z</time>
      </trkpt>
      <trkpt lat="43.68377" lon="3.88257">
        <ele>128</ele>
        <time>2021-03-21T10:35:43Z</time>
      </trkpt>
      <trkpt lat="43.68373" lon="3.88258">
        <ele>128</ele>
        <time>2021-03-21T10:35:44Z</time>
      </trkpt>
      <trkpt lat="43.68369" lon="3.88258">
        <ele>128</ele>
        <time>2021-03-21T10:35:45Z</time>
      </trkpt>
      <trkpt lat="43.68365" lon="3.88259">
        <ele>128</ele>
        <time>2021-03-21T10:35:46Z</time>
      </trkpt>
      <trkpt lat="43.68362" lon="3.8826">
        <ele>128</ele>
        <time>2021-03-21T10:35:47Z</time>
      </trkpt>
      <trkpt lat="43.68359" lon="3.88259">
        <ele>127</ele>
        <time>2021-03-21T10:35:48Z</time>
      </trkpt>
      <trkpt lat="43.68356" lon="3.88258">
        <ele>127</ele>
        <time>2021-03-21T10:35:49Z</time>
      </trkpt>
      <trkpt lat="43.68352" lon="3.88258">
        <ele>127</ele>
        <time>2021-03-21T10:35:50Z</time>
      </trkpt>
      <trkpt lat="43.68348" lon="3.88258">
        <ele>127</ele>
        <time>2021-03-21T10:35:51Z</time>
      </trkpt>
      <trkpt lat="43.68343" lon="3.88259">
        <ele>127</ele>
        <time>2021-03-21T10:35:52Z</time>
      </trkpt>
      <trkpt lat="43.68338" lon="3.88259">
        <ele>127</ele>
        <time>2021-03-21T10:35:53Z</time>
      </trkpt>
      <trkpt lat="43.68333" lon="3.88259">
        <ele>127</ele>
        <time>2021-03-21T10:35:54Z</time>
      </trkpt>
      <trkpt lat="43.68328" lon="3.88259">
        <ele>127</ele>
        <time>2021-03-21T10:35:55Z</time>
      </trkpt>
      <trkpt lat="43.68324" lon="3.8826">
        <ele>127</ele>
        <time>2021-03-21T10:35:56Z</time>
      </trkpt>
      <trkpt lat="43.68321" lon="3.88261">
        <ele>127</ele>
        <time>2021-03-21T10:35:57Z</time>
      </trkpt>
      <trkpt lat="43.68319" lon="3.88264">
        <ele>127</ele>
        <time>2021-03-21T10:35:58Z</time>
      </trkpt>
      <trkpt lat="43.68313" lon="3.88269">
        <ele>127</ele>
        <time>2021-03-21T10:35:59Z</time>
      </trkpt>
      <trkpt lat="43.6831" lon="3.88272">
        <ele>127</ele>
        <time>2021-03-21T10:36:01Z</time>
      </trkpt>
      <trkpt lat="43.68307" lon="3.88276">
        <ele>127</ele>
        <time>2021-03-21T10:36:02Z</time>
      </trkpt>
      <trkpt lat="43.683" lon="3.88283">
        <ele>127</ele>
        <time>2021-03-21T10:36:03Z</time>
      </trkpt>
      <trkpt lat="43.68298" lon="3.88287">
        <ele>127</ele>
        <time>2021-03-21T10:36:05Z</time>
      </trkpt>
      <trkpt lat="43.68293" lon="3.88296">
        <ele>127</ele>
        <time>2021-03-21T10:36:06Z</time>
      </trkpt>
      <trkpt lat="43.6829" lon="3.883">
        <ele>127</ele>
        <time>2021-03-21T10:36:08Z</time>
      </trkpt>
      <trkpt lat="43.68287" lon="3.88304">
        <ele>126</ele>
        <time>2021-03-21T10:36:09Z</time>
      </trkpt>
      <trkpt lat="43.68283" lon="3.88308">
        <ele>126</ele>
        <time>2021-03-21T10:36:10Z</time>
      </trkpt>
      <trkpt lat="43.6828" lon="3.88311">
        <ele>126</ele>
        <time>2021-03-21T10:36:11Z</time>
      </trkpt>
      <trkpt lat="43.68277" lon="3.88314">
        <ele>126</ele>
        <time>2021-03-21T10:36:12Z</time>
      </trkpt>
      <trkpt lat="43.68273" lon="3.88316">
        <ele>126</ele>
        <time>2021-03-21T10:36:13Z</time>
      </trkpt>
      <trkpt lat="43.6827" lon="3.88319">
        <ele>126</ele>
        <time>2021-03-21T10:36:14Z</time>
      </trkpt>
      <trkpt lat="43.68266" lon="3.88323">
        <ele>126</ele>
        <time>2021-03-21T10:36:15Z</time>
      </trkpt>
      <trkpt lat="43.68263" lon="3.88327">
        <ele>126</ele>
        <time>2021-03-21T10:36:16Z</time>
      </trkpt>
      <trkpt lat="43.68259" lon="3.88332">
        <ele>126</ele>
        <time>2021-03-21T10:36:17Z</time>
      </trkpt>
      <trkpt lat="43.68256" lon="3.88337">
        <ele>126</ele>
        <time>2021-03-21T10:36:18Z</time>
      </trkpt>
      <trkpt lat="43.68253" lon="3.88341">
        <ele>125</ele>
        <time>2021-03-21T10:36:19Z</time>
      </trkpt>
      <trkpt lat="43.6825" lon="3.88345">
        <ele>125</ele>
        <time>2021-03-21T10:36:20Z</time>
      </trkpt>
      <trkpt lat="43.68247" lon="3.88348">
        <ele>125</ele>
        <time>2021-03-21T10:36:21Z</time>
      </trkpt>
      <trkpt lat="43.68244" lon="3.88352">
        <ele>125</ele>
        <time>2021-03-21T10:36:22Z</time>
      </trkpt>
      <trkpt lat="43.68241" lon="3.88357">
        <ele>125</ele>
        <time>2021-03-21T10:36:23Z</time>
      </trkpt>
      <trkpt lat="43.68239" lon="3.88363">
        <ele>125</ele>
        <time>2021-03-21T10:36:24Z</time>
      </trkpt>
      <trkpt lat="43.68236" lon="3.8837">
        <ele>125</ele>
        <time>2021-03-21T10:36:25Z</time>
      </trkpt>
      <trkpt lat="43.68233" lon="3.88376">
        <ele>125</ele>
        <time>2021-03-21T10:36:26Z</time>
      </trkpt>
      <trkpt lat="43.6823" lon="3.88381">
        <ele>125</ele>
        <time>2021-03-21T10:36:27Z</time>
      </trkpt>
      <trkpt lat="43.68226" lon="3.88386">
        <ele>125</ele>
        <time>2021-03-21T10:36:28Z</time>
      </trkpt>
      <trkpt lat="43.6822" lon="3.88389">
        <ele>124</ele>
        <time>2021-03-21T10:36:29Z</time>
      </trkpt>
      <trkpt lat="43.68214" lon="3.88391">
        <ele>124</ele>
        <time>2021-03-21T10:36:30Z</time>
      </trkpt>
      <trkpt lat="43.68209" lon="3.88392">
        <ele>124</ele>
        <time>2021-03-21T10:36:31Z</time>
      </trkpt>
      <trkpt lat="43.68205" lon="3.88393">
        <ele>124</ele>
        <time>2021-03-21T10:36:32Z</time>
      </trkpt>
      <trkpt lat="43.682" lon="3.88392">
        <ele>124</ele>
        <time>2021-03-21T10:36:33Z</time>
      </trkpt>
      <trkpt lat="43.68196" lon="3.8839">
        <ele>124</ele>
        <time>2021-03-21T10:36:34Z</time>
      </trkpt>
      <trkpt lat="43.68193" lon="3.88388">
        <ele>124</ele>
        <time>2021-03-21T10:36:35Z</time>
      </trkpt>
      <trkpt lat="43.6819" lon="3.88388">
        <ele>124</ele>
        <time>2021-03-21T10:36:36Z</time>
      </trkpt>
      <trkpt lat="43.68188" lon="3.88389">
        <ele>124</ele>
        <time>2021-03-21T10:36:37Z</time>
      </trkpt>
      <trkpt lat="43.68186" lon="3.88391">
        <ele>124</ele>
        <time>2021-03-21T10:36:38Z</time>
      </trkpt>
      <trkpt lat="43.68185" lon="3.88394">
        <ele>123</ele>
        <time>2021-03-21T10:36:39Z</time>
      </trkpt>
      <trkpt lat="43.68183" lon="3.88398">
        <ele>123</ele>
        <time>2021-03-21T10:36:40Z</time>
      </trkpt>
      <trkpt lat="43.68181" lon="3.88403">
        <ele>123</ele>
        <time>2021-03-21T10:36:41Z</time>
      </trkpt>
      <trkpt lat="43.68177" lon="3.88406">
        <ele>123</ele>
        <time>2021-03-21T10:36:42Z</time>
      </trkpt>
      <trkpt lat="43.68175" lon="3.88408">
        <ele>123</ele>
        <time>2021-03-21T10:36:43Z</time>
      </trkpt>
      <trkpt lat="43.68173" lon="3.8841">
        <ele>123</ele>
        <time>2021-03-21T10:36:44Z</time>
      </trkpt>
      <trkpt lat="43.68171" lon="3.88412">
        <ele>123</ele>
        <time>2021-03-21T10:36:45Z</time>
      </trkpt>
      <trkpt lat="43.68169" lon="3.88414">
        <ele>123</ele>
        <time>2021-03-21T10:36:46Z</time>
      </trkpt>
      <trkpt lat="43.68167" lon="3.88416">
        <ele>123</ele>
        <time>2021-03-21T10:36:47Z</time>
      </trkpt>
      <trkpt lat="43.68166" lon="3.88418">
        <ele>123</ele>
        <time>2021-03-21T10:36:48Z</time>
      </trkpt>
      <trkpt lat="43.68163" lon="3.88421">
        <ele>123</ele>
        <time>2021-03-21T10:36:49Z</time>
      </trkpt>
      <trkpt lat="43.6816" lon="3.88422">
        <ele>123</ele>
        <time>2021-03-21T10:36:50Z</time>
      </trkpt>
      <trkpt lat="43.68157" lon="3.88423">
        <ele>123</ele>
        <time>2021-03-21T10:36:51Z</time>
      </trkpt>
      <trkpt lat="43.68155" lon="3.88424">
        <ele>123</ele>
        <time>2021-03-21T10:36:52Z</time>
      </trkpt>
      <trkpt lat="43.68153" lon="3.88425">
        <ele>123</ele>
        <time>2021-03-21T10:36:53Z</time>
      </trkpt>
      <trkpt lat="43.68151" lon="3.88426">
        <ele>123</ele>
        <time>2021-03-21T10:36:54Z</time>
      </trkpt>
      <trkpt lat="43.68148" lon="3.88428">
        <ele>123</ele>
        <time>2021-03-21T10:36:56Z</time>
      </trkpt>
      <trkpt lat="43.68145" lon="3.8843">
        <ele>123</ele>
        <time>2021-03-21T10:36:58Z</time>
      </trkpt>
      <trkpt lat="43.68143" lon="3.88433">
        <ele>123</ele>
        <time>2021-03-21T10:36:59Z</time>
      </trkpt>
      <trkpt lat="43.68141" lon="3.88434">
        <ele>123</ele>
        <time>2021-03-21T10:37:00Z</time>
      </trkpt>
      <trkpt lat="43.68138" lon="3.88435">
        <ele>123</ele>
        <time>2021-03-21T10:37:01Z</time>
      </trkpt>
      <trkpt lat="43.68135" lon="3.88435">
        <ele>123</ele>
        <time>2021-03-21T10:37:02Z</time>
      </trkpt>
      <trkpt lat="43.68133" lon="3.88435">
        <ele>123</ele>
        <time>2021-03-21T10:37:03Z</time>
      </trkpt>
      <trkpt lat="43.68131" lon="3.88434">
        <ele>123</ele>
        <time>2021-03-21T10:37:04Z</time>
      </trkpt>
      <trkpt lat="43.68128" lon="3.88434">
        <ele>123</ele>
        <time>2021-03-21T10:37:06Z</time>
      </trkpt>
      <trkpt lat="43.68125" lon="3.88435">
        <ele>123</ele>
        <time>2021-03-21T10:37:08Z</time>
      </trkpt>
      <trkpt lat="43.68124" lon="3.88437">
        <ele>123</ele>
        <time>2021-03-21T10:37:10Z</time>
      </trkpt>
      <trkpt lat="43.68123" lon="3.88442">
        <ele>123</ele>
        <time>2021-03-21T10:37:12Z</time>
      </trkpt>
      <trkpt lat="43.68122" lon="3.88445">
        <ele>123</ele>
        <time>2021-03-21T10:37:13Z</time>
      </trkpt>
      <trkpt lat="43.68122" lon="3.88449">
        <ele>123</ele>
        <time>2021-03-21T10:37:14Z</time>
      </trkpt>
      <trkpt lat="43.68122" lon="3.88453">
        <ele>123</ele>
        <time>2021-03-21T10:37:15Z</time>
      </trkpt>
      <trkpt lat="43.68122" lon="3.88458">
        <ele>123</ele>
        <time>2021-03-21T10:37:16Z</time>
      </trkpt>
      <trkpt lat="43.68121" lon="3.88462">
        <ele>123</ele>
        <time>2021-03-21T10:37:17Z</time>
      </trkpt>
      <trkpt lat="43.6812" lon="3.88466">
        <ele>123</ele>
        <time>2021-03-21T10:37:18Z</time>
      </trkpt>
      <trkpt lat="43.68118" lon="3.8847">
        <ele>122</ele>
        <time>2021-03-21T10:37:19Z</time>
      </trkpt>
      <trkpt lat="43.68115" lon="3.88473">
        <ele>122</ele>
        <time>2021-03-21T10:37:20Z</time>
      </trkpt>
      <trkpt lat="43.68113" lon="3.88478">
        <ele>122</ele>
        <time>2021-03-21T10:37:21Z</time>
      </trkpt>
      <trkpt lat="43.6811" lon="3.88482">
        <ele>122</ele>
        <time>2021-03-21T10:37:22Z</time>
      </trkpt>
      <trkpt lat="43.68107" lon="3.88488">
        <ele>122</ele>
        <time>2021-03-21T10:37:23Z</time>
      </trkpt>
      <trkpt lat="43.68103" lon="3.88492">
        <ele>122</ele>
        <time>2021-03-21T10:37:24Z</time>
      </trkpt>
      <trkpt lat="43.68098" lon="3.88496">
        <ele>122</ele>
        <time>2021-03-21T10:37:25Z</time>
      </trkpt>
      <trkpt lat="43.68093" lon="3.88499">
        <ele>122</ele>
        <time>2021-03-21T10:37:26Z</time>
      </trkpt>
      <trkpt lat="43.68088" lon="3.88501">
        <ele>122</ele>
        <time>2021-03-21T10:37:27Z</time>
      </trkpt>
      <trkpt lat="43.68083" lon="3.88501">
        <ele>122</ele>
        <time>2021-03-21T10:37:28Z</time>
      </trkpt>
      <trkpt lat="43.68079" lon="3.885">
        <ele>120</ele>
        <time>2021-03-21T10:37:29Z</time>
      </trkpt>
      <trkpt lat="43.68074" lon="3.885">
        <ele>120</ele>
        <time>2021-03-21T10:37:30Z</time>
      </trkpt>
      <trkpt lat="43.68071" lon="3.885">
        <ele>120</ele>
        <time>2021-03-21T10:37:31Z</time>
      </trkpt>
      <trkpt lat="43.68067" lon="3.88499">
        <ele>120</ele>
        <time>2021-03-21T10:37:32Z</time>
      </trkpt>
      <trkpt lat="43.68064" lon="3.88498">
        <ele>120</ele>
        <time>2021-03-21T10:37:33Z</time>
      </trkpt>
      <trkpt lat="43.6806" lon="3.88497">
        <ele>120</ele>
        <time>2021-03-21T10:37:34Z</time>
      </trkpt>
      <trkpt lat="43.68057" lon="3.88496">
        <ele>120</ele>
        <time>2021-03-21T10:37:35Z</time>
      </trkpt>
      <trkpt lat="43.68054" lon="3.88495">
        <ele>120</ele>
        <time>2021-03-21T10:37:36Z</time>
      </trkpt>
      <trkpt lat="43.68051" lon="3.88494">
        <ele>120</ele>
        <time>2021-03-21T10:37:37Z</time>
      </trkpt>
      <trkpt lat="43.68048" lon="3.88494">
        <ele>120</ele>
        <time>2021-03-21T10:37:38Z</time>
      </trkpt>
      <trkpt lat="43.68045" lon="3.88493">
        <ele>120</ele>
        <time>2021-03-21T10:37:39Z</time>
      </trkpt>
      <trkpt lat="43.68042" lon="3.88494">
        <ele>120</ele>
        <time>2021-03-21T10:37:40Z</time>
      </trkpt>
      <trkpt lat="43.68039" lon="3.88494">
        <ele>120</ele>
        <time>2021-03-21T10:37:41Z</time>
      </trkpt>
      <trkpt lat="43.68036" lon="3.88494">
        <ele>120</ele>
        <time>2021-03-21T10:37:42Z</time>
      </trkpt>
      <trkpt lat="43.68033" lon="3.88494">
        <ele>120</ele>
        <time>2021-03-21T10:37:43Z</time>
      </trkpt>
      <trkpt lat="43.68029" lon="3.88494">
        <ele>120</ele>
        <time>2021-03-21T10:37:44Z</time>
      </trkpt>
      <trkpt lat="43.68026" lon="3.88493">
        <ele>120</ele>
        <time>2021-03-21T10:37:45Z</time>
      </trkpt>
      <trkpt lat="43.68023" lon="3.88493">
        <ele>120</ele>
        <time>2021-03-21T10:37:46Z</time>
      </trkpt>
      <trkpt lat="43.6802" lon="3.88492">
        <ele>120</ele>
        <time>2021-03-21T10:37:47Z</time>
      </trkpt>
      <trkpt lat="43.68017" lon="3.88491">
        <ele>120</ele>
        <time>2021-03-21T10:37:48Z</time>
      </trkpt>
      <trkpt lat="43.68014" lon="3.88491">
        <ele>120</ele>
        <time>2021-03-21T10:37:49Z</time>
      </trkpt>
      <trkpt lat="43.68011" lon="3.88491">
        <ele>120</ele>
        <time>2021-03-21T10:37:50Z</time>
      </trkpt>
      <trkpt lat="43.68007" lon="3.88492">
        <ele>120</ele>
        <time>2021-03-21T10:37:51Z</time>
      </trkpt>
      <trkpt lat="43.68003" lon="3.88492">
        <ele>120</ele>
        <time>2021-03-21T10:37:52Z</time>
      </trkpt>
      <trkpt lat="43.67998" lon="3.88491">
        <ele>120</ele>
        <time>2021-03-21T10:37:53Z</time>
      </trkpt>
      <trkpt lat="43.67993" lon="3.8849">
        <ele>120</ele>
        <time>2021-03-21T10:37:54Z</time>
      </trkpt>
      <trkpt lat="43.67987" lon="3.88489">
        <ele>120</ele>
        <time>2021-03-21T10:37:55Z</time>
      </trkpt>
      <trkpt lat="43.67982" lon="3.88489">
        <ele>120</ele>
        <time>2021-03-21T10:37:56Z</time>
      </trkpt>
      <trkpt lat="43.67976" lon="3.88489">
        <ele>120</ele>
        <time>2021-03-21T10:37:57Z</time>
      </trkpt>
      <trkpt lat="43.67972" lon="3.88488">
        <ele>120</ele>
        <time>2021-03-21T10:37:58Z</time>
      </trkpt>
      <trkpt lat="43.67967" lon="3.88486">
        <ele>116</ele>
        <time>2021-03-21T10:37:59Z</time>
      </trkpt>
      <trkpt lat="43.67962" lon="3.88484">
        <ele>116</ele>
        <time>2021-03-21T10:38:00Z</time>
      </trkpt>
      <trkpt lat="43.67958" lon="3.88483">
        <ele>116</ele>
        <time>2021-03-21T10:38:01Z</time>
      </trkpt>
      <trkpt lat="43.67954" lon="3.88482">
        <ele>116</ele>
        <time>2021-03-21T10:38:02Z</time>
      </trkpt>
      <trkpt lat="43.6795" lon="3.88481">
        <ele>116</ele>
        <time>2021-03-21T10:38:03Z</time>
      </trkpt>
      <trkpt lat="43.67946" lon="3.88481">
        <ele>116</ele>
        <time>2021-03-21T10:38:04Z</time>
      </trkpt>
      <trkpt lat="43.67943" lon="3.88482">
        <ele>116</ele>
        <time>2021-03-21T10:38:05Z</time>
      </trkpt>
      <trkpt lat="43.6794" lon="3.88481">
        <ele>116</ele>
        <time>2021-03-21T10:38:06Z</time>
      </trkpt>
      <trkpt lat="43.67937" lon="3.8848">
        <ele>116</ele>
        <time>2021-03-21T10:38:07Z</time>
      </trkpt>
      <trkpt lat="43.67933" lon="3.88478">
        <ele>116</ele>
        <time>2021-03-21T10:38:08Z</time>
      </trkpt>
      <trkpt lat="43.6793" lon="3.88475">
        <ele>113</ele>
        <time>2021-03-21T10:38:09Z</time>
      </trkpt>
      <trkpt lat="43.67925" lon="3.88472">
        <ele>113</ele>
        <time>2021-03-21T10:38:10Z</time>
      </trkpt>
      <trkpt lat="43.6792" lon="3.88468">
        <ele>113</ele>
        <time>2021-03-21T10:38:11Z</time>
      </trkpt>
      <trkpt lat="43.67915" lon="3.88464">
        <ele>113</ele>
        <time>2021-03-21T10:38:12Z</time>
      </trkpt>
      <trkpt lat="43.6791" lon="3.8846">
        <ele>113</ele>
        <time>2021-03-21T10:38:13Z</time>
      </trkpt>
      <trkpt lat="43.67904" lon="3.88456">
        <ele>113</ele>
        <time>2021-03-21T10:38:14Z</time>
      </trkpt>
      <trkpt lat="43.67899" lon="3.88452">
        <ele>113</ele>
        <time>2021-03-21T10:38:15Z</time>
      </trkpt>
      <trkpt lat="43.67894" lon="3.88448">
        <ele>113</ele>
        <time>2021-03-21T10:38:16Z</time>
      </trkpt>
      <trkpt lat="43.67889" lon="3.88446">
        <ele>113</ele>
        <time>2021-03-21T10:38:17Z</time>
      </trkpt>
      <trkpt lat="43.67884" lon="3.88443">
        <ele>113</ele>
        <time>2021-03-21T10:38:18Z</time>
      </trkpt>
      <trkpt lat="43.67879" lon="3.88441">
        <ele>109</ele>
        <time>2021-03-21T10:38:19Z</time>
      </trkpt>
      <trkpt lat="43.67875" lon="3.88439">
        <ele>109</ele>
        <time>2021-03-21T10:38:20Z</time>
      </trkpt>
      <trkpt lat="43.67871" lon="3.88438">
        <ele>109</ele>
        <time>2021-03-21T10:38:21Z</time>
      </trkpt>
      <trkpt lat="43.67868" lon="3.88437">
        <ele>109</ele>
        <time>2021-03-21T10:38:22Z</time>
      </trkpt>
      <trkpt lat="43.67865" lon="3.88438">
        <ele>109</ele>
        <time>2021-03-21T10:38:23Z</time>
      </trkpt>
      <trkpt lat="43.67863" lon="3.88439">
        <ele>109</ele>
        <time>2021-03-21T10:38:24Z</time>
      </trkpt>
      <trkpt lat="43.67861" lon="3.88442">
        <ele>109</ele>
        <time>2021-03-21T10:38:26Z</time>
      </trkpt>
      <trkpt lat="43.6786" lon="3.88445">
        <ele>109</ele>
        <time>2021-03-21T10:38:27Z</time>
      </trkpt>
      <trkpt lat="43.67859" lon="3.88448">
        <ele>109</ele>
        <time>2021-03-21T10:38:28Z</time>
      </trkpt>
      <trkpt lat="43.67857" lon="3.88453">
        <ele>107</ele>
        <time>2021-03-21T10:38:29Z</time>
      </trkpt>
      <trkpt lat="43.67855" lon="3.88457">
        <ele>107</ele>
        <time>2021-03-21T10:38:30Z</time>
      </trkpt>
      <trkpt lat="43.67853" lon="3.88461">
        <ele>107</ele>
        <time>2021-03-21T10:38:31Z</time>
      </trkpt>
      <trkpt lat="43.67851" lon="3.88465">
        <ele>107</ele>
        <time>2021-03-21T10:38:32Z</time>
      </trkpt>
      <trkpt lat="43.6785" lon="3.88469">
        <ele>107</ele>
        <time>2021-03-21T10:38:33Z</time>
      </trkpt>
      <trkpt lat="43.67849" lon="3.88474">
        <ele>107</ele>
        <time>2021-03-21T10:38:34Z</time>
      </trkpt>
      <trkpt lat="43.67847" lon="3.88478">
        <ele>107</ele>
        <time>2021-03-21T10:38:35Z</time>
      </trkpt>
      <trkpt lat="43.67845" lon="3.88483">
        <ele>107</ele>
        <time>2021-03-21T10:38:36Z</time>
      </trkpt>
      <trkpt lat="43.67842" lon="3.88486">
        <ele>107</ele>
        <time>2021-03-21T10:38:37Z</time>
      </trkpt>
      <trkpt lat="43.67839" lon="3.8849">
        <ele>107</ele>
        <time>2021-03-21T10:38:38Z</time>
      </trkpt>
      <trkpt lat="43.67835" lon="3.88491">
        <ele>105</ele>
        <time>2021-03-21T10:38:39Z</time>
      </trkpt>
      <trkpt lat="43.67831" lon="3.88492">
        <ele>105</ele>
        <time>2021-03-21T10:38:40Z</time>
      </trkpt>
      <trkpt lat="43.67827" lon="3.88494">
        <ele>105</ele>
        <time>2021-03-21T10:38:41Z</time>
      </trkpt>
      <trkpt lat="43.67823" lon="3.88495">
        <ele>105</ele>
        <time>2021-03-21T10:38:42Z</time>
      </trkpt>
      <trkpt lat="43.6782" lon="3.88497">
        <ele>105</ele>
        <time>2021-03-21T10:38:43Z</time>
      </trkpt>
      <trkpt lat="43.67819" lon="3.88499">
        <ele>105</ele>
        <time>2021-03-21T10:38:44Z</time>
      </trkpt>
      <trkpt lat="43.67816" lon="3.88502">
        <ele>105</ele>
        <time>2021-03-21T10:38:45Z</time>
      </trkpt>
      <trkpt lat="43.67814" lon="3.88505">
        <ele>105</ele>
        <time>2021-03-21T10:38:46Z</time>
      </trkpt>
      <trkpt lat="43.67812" lon="3.88508">
        <ele>105</ele>
        <time>2021-03-21T10:38:47Z</time>
      </trkpt>
      <trkpt lat="43.67811" lon="3.88512">
        <ele>105</ele>
        <time>2021-03-21T10:38:48Z</time>
      </trkpt>
      <trkpt lat="43.67809" lon="3.88516">
        <ele>105</ele>
        <time>2021-03-21T10:38:49Z</time>
      </trkpt>
      <trkpt lat="43.67807" lon="3.8852">
        <ele>105</ele>
        <time>2021-03-21T10:38:50Z</time>
      </trkpt>
      <trkpt lat="43.67806" lon="3.88523">
        <ele>105</ele>
        <time>2021-03-21T10:38:51Z</time>
      </trkpt>
      <trkpt lat="43.67804" lon="3.88526">
        <ele>105</ele>
        <time>2021-03-21T10:38:52Z</time>
      </trkpt>
      <trkpt lat="43.67803" lon="3.88529">
        <ele>105</ele>
        <time>2021-03-21T10:38:53Z</time>
      </trkpt>
      <trkpt lat="43.67802" lon="3.88532">
        <ele>105</ele>
        <time>2021-03-21T10:38:54Z</time>
      </trkpt>
      <trkpt lat="43.67801" lon="3.88535">
        <ele>105</ele>
        <time>2021-03-21T10:38:55Z</time>
      </trkpt>
      <trkpt lat="43.67799" lon="3.88537">
        <ele>105</ele>
        <time>2021-03-21T10:38:56Z</time>
      </trkpt>
      <trkpt lat="43.67798" lon="3.8854">
        <ele>105</ele>
        <time>2021-03-21T10:38:57Z</time>
      </trkpt>
      <trkpt lat="43.67796" lon="3.88543">
        <ele>105</ele>
        <time>2021-03-21T10:38:58Z</time>
      </trkpt>
      <trkpt lat="43.67795" lon="3.88545">
        <ele>106</ele>
        <time>2021-03-21T10:38:59Z</time>
      </trkpt>
      <trkpt lat="43.67794" lon="3.88548">
        <ele>106</ele>
        <time>2021-03-21T10:39:00Z</time>
      </trkpt>
      <trkpt lat="43.67792" lon="3.8855">
        <ele>106</ele>
        <time>2021-03-21T10:39:01Z</time>
      </trkpt>
      <trkpt lat="43.6779" lon="3.88551">
        <ele>106</ele>
        <time>2021-03-21T10:39:02Z</time>
      </trkpt>
      <trkpt lat="43.67789" lon="3.88554">
        <ele>106</ele>
        <time>2021-03-21T10:39:03Z</time>
      </trkpt>
      <trkpt lat="43.67787" lon="3.88555">
        <ele>106</ele>
        <time>2021-03-21T10:39:04Z</time>
      </trkpt>
      <trkpt lat="43.67785" lon="3.88557">
        <ele>106</ele>
        <time>2021-03-21T10:39:05Z</time>
      </trkpt>
      <trkpt lat="43.67782" lon="3.88559">
        <ele>106</ele>
        <time>2021-03-21T10:39:06Z</time>
      </trkpt>
      <trkpt lat="43.67779" lon="3.88561">
        <ele>106</ele>
        <time>2021-03-21T10:39:07Z</time>
      </trkpt>
      <trkpt lat="43.67776" lon="3.88562">
        <ele>106</ele>
        <time>2021-03-21T10:39:08Z</time>
      </trkpt>
      <trkpt lat="43.6777" lon="3.88564">
        <ele>109</ele>
        <time>2021-03-21T10:39:09Z</time>
      </trkpt>
      <trkpt lat="43.67768" lon="3.88565">
        <ele>109</ele>
        <time>2021-03-21T10:39:11Z</time>
      </trkpt>
      <trkpt lat="43.67762" lon="3.88567">
        <ele>109</ele>
        <time>2021-03-21T10:39:12Z</time>
      </trkpt>
      <trkpt lat="43.67759" lon="3.88568">
        <ele>109</ele>
        <time>2021-03-21T10:39:14Z</time>
      </trkpt>
      <trkpt lat="43.67753" lon="3.88571">
        <ele>109</ele>
        <time>2021-03-21T10:39:15Z</time>
      </trkpt>
      <trkpt lat="43.6775" lon="3.88572">
        <ele>109</ele>
        <time>2021-03-21T10:39:17Z</time>
      </trkpt>
      <trkpt lat="43.67747" lon="3.88572">
        <ele>109</ele>
        <time>2021-03-21T10:39:18Z</time>
      </trkpt>
      <trkpt lat="43.67744" lon="3.88573">
        <ele>109</ele>
        <time>2021-03-21T10:39:19Z</time>
      </trkpt>
      <trkpt lat="43.67741" lon="3.88574">
        <ele>109</ele>
        <time>2021-03-21T10:39:20Z</time>
      </trkpt>
      <trkpt lat="43.67737" lon="3.88575">
        <ele>109</ele>
        <time>2021-03-21T10:39:21Z</time>
      </trkpt>
      <trkpt lat="43.67734" lon="3.88575">
        <ele>109</ele>
        <time>2021-03-21T10:39:22Z</time>
      </trkpt>
      <trkpt lat="43.67731" lon="3.88576">
        <ele>109</ele>
        <time>2021-03-21T10:39:23Z</time>
      </trkpt>
      <trkpt lat="43.67728" lon="3.88577">
        <ele>109</ele>
        <time>2021-03-21T10:39:24Z</time>
      </trkpt>
      <trkpt lat="43.67726" lon="3.88579">
        <ele>109</ele>
        <time>2021-03-21T10:39:25Z</time>
      </trkpt>
      <trkpt lat="43.67723" lon="3.88581">
        <ele>109</ele>
        <time>2021-03-21T10:39:26Z</time>
      </trkpt>
      <trkpt lat="43.6772" lon="3.88583">
        <ele>109</ele>
        <time>2021-03-21T10:39:27Z</time>
      </trkpt>
      <trkpt lat="43.67718" lon="3.88586">
        <ele>109</ele>
        <time>2021-03-21T10:39:28Z</time>
      </trkpt>
      <trkpt lat="43.67715" lon="3.88589">
        <ele>111</ele>
        <time>2021-03-21T10:39:29Z</time>
      </trkpt>
      <trkpt lat="43.67712" lon="3.88592">
        <ele>111</ele>
        <time>2021-03-21T10:39:30Z</time>
      </trkpt>
      <trkpt lat="43.67709" lon="3.88595">
        <ele>111</ele>
        <time>2021-03-21T10:39:31Z</time>
      </trkpt>
      <trkpt lat="43.67704" lon="3.88598">
        <ele>111</ele>
        <time>2021-03-21T10:39:32Z</time>
      </trkpt>
      <trkpt lat="43.677" lon="3.886">
        <ele>111</ele>
        <time>2021-03-21T10:39:33Z</time>
      </trkpt>
      <trkpt lat="43.67696" lon="3.88602">
        <ele>111</ele>
        <time>2021-03-21T10:39:34Z</time>
      </trkpt>
      <trkpt lat="43.67692" lon="3.88604">
        <ele>111</ele>
        <time>2021-03-21T10:39:35Z</time>
      </trkpt>
      <trkpt lat="43.67688" lon="3.88606">
        <ele>111</ele>
        <time>2021-03-21T10:39:36Z</time>
      </trkpt>
      <trkpt lat="43.67685" lon="3.88608">
        <ele>111</ele>
        <time>2021-03-21T10:39:37Z</time>
      </trkpt>
      <trkpt lat="43.67681" lon="3.88608">
        <ele>111</ele>
        <time>2021-03-21T10:39:38Z</time>
      </trkpt>
      <trkpt lat="43.67678" lon="3.88609">
        <ele>112</ele>
        <time>2021-03-21T10:39:39Z</time>
      </trkpt>
      <trkpt lat="43.67675" lon="3.8861">
        <ele>112</ele>
        <time>2021-03-21T10:39:40Z</time>
      </trkpt>
      <trkpt lat="43.67672" lon="3.88611">
        <ele>112</ele>
        <time>2021-03-21T10:39:41Z</time>
      </trkpt>
      <trkpt lat="43.67669" lon="3.88612">
        <ele>112</ele>
        <time>2021-03-21T10:39:42Z</time>
      </trkpt>
      <trkpt lat="43.67665" lon="3.88613">
        <ele>112</ele>
        <time>2021-03-21T10:39:43Z</time>
      </trkpt>
      <trkpt lat="43.6766" lon="3.88614">
        <ele>112</ele>
        <time>2021-03-21T10:39:44Z</time>
      </trkpt>
      <trkpt lat="43.67656" lon="3.88615">
        <ele>112</ele>
        <time>2021-03-21T10:39:45Z</time>
      </trkpt>
      <trkpt lat="43.67652" lon="3.88617">
        <ele>112</ele>
        <time>2021-03-21T10:39:46Z</time>
      </trkpt>
      <trkpt lat="43.67647" lon="3.88618">
        <ele>112</ele>
        <time>2021-03-21T10:39:47Z</time>
      </trkpt>
      <trkpt lat="43.67642" lon="3.88618">
        <ele>112</ele>
        <time>2021-03-21T10:39:48Z</time>
      </trkpt>
      <trkpt lat="43.67638" lon="3.88619">
        <ele>112</ele>
        <time>2021-03-21T10:39:49Z</time>
      </trkpt>
      <trkpt lat="43.67634" lon="3.88619">
        <ele>112</ele>
        <time>2021-03-21T10:39:50Z</time>
      </trkpt>
      <trkpt lat="43.67628" lon="3.8862">
        <ele>112</ele>
        <time>2021-03-21T10:39:51Z</time>
      </trkpt>
      <trkpt lat="43.67623" lon="3.8862">
        <ele>112</ele>
        <time>2021-03-21T10:39:52Z</time>
      </trkpt>
      <trkpt lat="43.67618" lon="3.8862">
        <ele>112</ele>
        <time>2021-03-21T10:39:53Z</time>
      </trkpt>
      <trkpt lat="43.67612" lon="3.88621">
        <ele>112</ele>
        <time>2021-03-21T10:39:54Z</time>
      </trkpt>
      <trkpt lat="43.67607" lon="3.88624">
        <ele>112</ele>
        <time>2021-03-21T10:39:55Z</time>
      </trkpt>
      <trkpt lat="43.67602" lon="3.88626">
        <ele>112</ele>
        <time>2021-03-21T10:39:56Z</time>
      </trkpt>
      <trkpt lat="43.67597" lon="3.88627">
        <ele>112</ele>
        <time>2021-03-21T10:39:57Z</time>
      </trkpt>
      <trkpt lat="43.67592" lon="3.88629">
        <ele>112</ele>
        <time>2021-03-21T10:39:58Z</time>
      </trkpt>
      <trkpt lat="43.67586" lon="3.88629">
        <ele>112</ele>
        <time>2021-03-21T10:39:59Z</time>
      </trkpt>
      <trkpt lat="43.67581" lon="3.8863">
        <ele>112</ele>
        <time>2021-03-21T10:40:00Z</time>
      </trkpt>
      <trkpt lat="43.67577" lon="3.8863">
        <ele>112</ele>
        <time>2021-03-21T10:40:01Z</time>
      </trkpt>
      <trkpt lat="43.67574" lon="3.8863">
        <ele>112</ele>
        <time>2021-03-21T10:40:02Z</time>
      </trkpt>
      <trkpt lat="43.67573" lon="3.88629">
        <ele>112</ele>
        <time>2021-03-21T10:40:03Z</time>
      </trkpt>
      <trkpt lat="43.6757" lon="3.8863">
        <ele>112</ele>
        <time>2021-03-21T10:40:05Z</time>
      </trkpt>
      <trkpt lat="43.67568" lon="3.88632">
        <ele>112</ele>
        <time>2021-03-21T10:40:06Z</time>
      </trkpt>
      <trkpt lat="43.67565" lon="3.88634">
        <ele>112</ele>
        <time>2021-03-21T10:40:07Z</time>
      </trkpt>
      <trkpt lat="43.67562" lon="3.88635">
        <ele>112</ele>
        <time>2021-03-21T10:40:08Z</time>
      </trkpt>
      <trkpt lat="43.67558" lon="3.88636">
        <ele>112</ele>
        <time>2021-03-21T10:40:09Z</time>
      </trkpt>
      <trkpt lat="43.67556" lon="3.88636">
        <ele>112</ele>
        <time>2021-03-21T10:40:10Z</time>
      </trkpt>
      <trkpt lat="43.67553" lon="3.88636">
        <ele>112</ele>
        <time>2021-03-21T10:40:11Z</time>
      </trkpt>
      <trkpt lat="43.67551" lon="3.88635">
        <ele>112</ele>
        <time>2021-03-21T10:40:12Z</time>
      </trkpt>
      <trkpt lat="43.67549" lon="3.88635">
        <ele>112</ele>
        <time>2021-03-21T10:40:14Z</time>
      </trkpt>
      <trkpt lat="43.67546" lon="3.88637">
        <ele>112</ele>
        <time>2021-03-21T10:40:16Z</time>
      </trkpt>
      <trkpt lat="43.67543" lon="3.88639">
        <ele>112</ele>
        <time>2021-03-21T10:40:17Z</time>
      </trkpt>
      <trkpt lat="43.67539" lon="3.8864">
        <ele>112</ele>
        <time>2021-03-21T10:40:18Z</time>
      </trkpt>
      <trkpt lat="43.67535" lon="3.88641">
        <ele>112</ele>
        <time>2021-03-21T10:40:19Z</time>
      </trkpt>
      <trkpt lat="43.67531" lon="3.88642">
        <ele>112</ele>
        <time>2021-03-21T10:40:20Z</time>
      </trkpt>
      <trkpt lat="43.67528" lon="3.88643">
        <ele>112</ele>
        <time>2021-03-21T10:40:21Z</time>
      </trkpt>
      <trkpt lat="43.67524" lon="3.88644">
        <ele>112</ele>
        <time>2021-03-21T10:40:22Z</time>
      </trkpt>
      <trkpt lat="43.67521" lon="3.88646">
        <ele>112</ele>
        <time>2021-03-21T10:40:23Z</time>
      </trkpt>
      <trkpt lat="43.67517" lon="3.88648">
        <ele>112</ele>
        <time>2021-03-21T10:40:24Z</time>
      </trkpt>
      <trkpt lat="43.67513" lon="3.8865">
        <ele>112</ele>
        <time>2021-03-21T10:40:25Z</time>
      </trkpt>
      <trkpt lat="43.67509" lon="3.88651">
        <ele>112</ele>
        <time>2021-03-21T10:40:26Z</time>
      </trkpt>
      <trkpt lat="43.67505" lon="3.88652">
        <ele>112</ele>
        <time>2021-03-21T10:40:27Z</time>
      </trkpt>
      <trkpt lat="43.67501" lon="3.88652">
        <ele>112</ele>
        <time>2021-03-21T10:40:28Z</time>
      </trkpt>
      <trkpt lat="43.67497" lon="3.88652">
        <ele>111</ele>
        <time>2021-03-21T10:40:29Z</time>
      </trkpt>
      <trkpt lat="43.67493" lon="3.88653">
        <ele>111</ele>
        <time>2021-03-21T10:40:30Z</time>
      </trkpt>
      <trkpt lat="43.67489" lon="3.88655">
        <ele>111</ele>
        <time>2021-03-21T10:40:31Z</time>
      </trkpt>
      <trkpt lat="43.67485" lon="3.88657">
        <ele>111</ele>
        <time>2021-03-21T10:40:32Z</time>
      </trkpt>
      <trkpt lat="43.67482" lon="3.8866">
        <ele>111</ele>
        <time>2021-03-21T10:40:33Z</time>
      </trkpt>
      <trkpt lat="43.67478" lon="3.88662">
        <ele>111</ele>
        <time>2021-03-21T10:40:34Z</time>
      </trkpt>
      <trkpt lat="43.67475" lon="3.88665">
        <ele>111</ele>
        <time>2021-03-21T10:40:35Z</time>
      </trkpt>
      <trkpt lat="43.6747" lon="3.88667">
        <ele>111</ele>
        <time>2021-03-21T10:40:36Z</time>
      </trkpt>
      <trkpt lat="43.67467" lon="3.8867">
        <ele>111</ele>
        <time>2021-03-21T10:40:37Z</time>
      </trkpt>
      <trkpt lat="43.67463" lon="3.88672">
        <ele>111</ele>
        <time>2021-03-21T10:40:38Z</time>
      </trkpt>
      <trkpt lat="43.67458" lon="3.88675">
        <ele>110</ele>
        <time>2021-03-21T10:40:39Z</time>
      </trkpt>
      <trkpt lat="43.67453" lon="3.88678">
        <ele>110</ele>
        <time>2021-03-21T10:40:40Z</time>
      </trkpt>
      <trkpt lat="43.67448" lon="3.8868">
        <ele>110</ele>
        <time>2021-03-21T10:40:41Z</time>
      </trkpt>
      <trkpt lat="43.67444" lon="3.88682">
        <ele>110</ele>
        <time>2021-03-21T10:40:42Z</time>
      </trkpt>
      <trkpt lat="43.6744" lon="3.88685">
        <ele>110</ele>
        <time>2021-03-21T10:40:43Z</time>
      </trkpt>
      <trkpt lat="43.67436" lon="3.88688">
        <ele>110</ele>
        <time>2021-03-21T10:40:44Z</time>
      </trkpt>
      <trkpt lat="43.67431" lon="3.88691">
        <ele>110</ele>
        <time>2021-03-21T10:40:45Z</time>
      </trkpt>
      <trkpt lat="43.67426" lon="3.88694">
        <ele>110</ele>
        <time>2021-03-21T10:40:46Z</time>
      </trkpt>
      <trkpt lat="43.67421" lon="3.88696">
        <ele>110</ele>
        <time>2021-03-21T10:40:47Z</time>
      </trkpt>
      <trkpt lat="43.67416" lon="3.88699">
        <ele>110</ele>
        <time>2021-03-21T10:40:48Z</time>
      </trkpt>
      <trkpt lat="43.6741" lon="3.88702">
        <ele>109</ele>
        <time>2021-03-21T10:40:49Z</time>
      </trkpt>
      <trkpt lat="43.67403" lon="3.88706">
        <ele>109</ele>
        <time>2021-03-21T10:40:50Z</time>
      </trkpt>
      <trkpt lat="43.67397" lon="3.88711">
        <ele>109</ele>
        <time>2021-03-21T10:40:51Z</time>
      </trkpt>
      <trkpt lat="43.67392" lon="3.88717">
        <ele>109</ele>
        <time>2021-03-21T10:40:52Z</time>
      </trkpt>
      <trkpt lat="43.67387" lon="3.88723">
        <ele>109</ele>
        <time>2021-03-21T10:40:53Z</time>
      </trkpt>
      <trkpt lat="43.67382" lon="3.88728">
        <ele>109</ele>
        <time>2021-03-21T10:40:54Z</time>
      </trkpt>
      <trkpt lat="43.67376" lon="3.88733">
        <ele>109</ele>
        <time>2021-03-21T10:40:55Z</time>
      </trkpt>
      <trkpt lat="43.67371" lon="3.88735">
        <ele>109</ele>
        <time>2021-03-21T10:40:56Z</time>
      </trkpt>
      <trkpt lat="43.67366" lon="3.88733">
        <ele>109</ele>
        <time>2021-03-21T10:40:57Z</time>
      </trkpt>
      <trkpt lat="43.67362" lon="3.88731">
        <ele>109</ele>
        <time>2021-03-21T10:40:58Z</time>
      </trkpt>
      <trkpt lat="43.67358" lon="3.8873">
        <ele>105</ele>
        <time>2021-03-21T10:40:59Z</time>
      </trkpt>
      <trkpt lat="43.67355" lon="3.8873">
        <ele>105</ele>
        <time>2021-03-21T10:41:00Z</time>
      </trkpt>
      <trkpt lat="43.6735" lon="3.8873">
        <ele>105</ele>
        <time>2021-03-21T10:41:01Z</time>
      </trkpt>
      <trkpt lat="43.67346" lon="3.88729">
        <ele>105</ele>
        <time>2021-03-21T10:41:02Z</time>
      </trkpt>
      <trkpt lat="43.67342" lon="3.88728">
        <ele>105</ele>
        <time>2021-03-21T10:41:03Z</time>
      </trkpt>
      <trkpt lat="43.67338" lon="3.88727">
        <ele>105</ele>
        <time>2021-03-21T10:41:04Z</time>
      </trkpt>
      <trkpt lat="43.67333" lon="3.88726">
        <ele>105</ele>
        <time>2021-03-21T10:41:05Z</time>
      </trkpt>
      <trkpt lat="43.67329" lon="3.88726">
        <ele>105</ele>
        <time>2021-03-21T10:41:06Z</time>
      </trkpt>
      <trkpt lat="43.67325" lon="3.88725">
        <ele>105</ele>
        <time>2021-03-21T10:41:07Z</time>
      </trkpt>
      <trkpt lat="43.67322" lon="3.88724">
        <ele>105</ele>
        <time>2021-03-21T10:41:08Z</time>
      </trkpt>
      <trkpt lat="43.67319" lon="3.88724">
        <ele>102</ele>
        <time>2021-03-21T10:41:09Z</time>
      </trkpt>
      <trkpt lat="43.67317" lon="3.88724">
        <ele>102</ele>
        <time>2021-03-21T10:41:10Z</time>
      </trkpt>
      <trkpt lat="43.67315" lon="3.88725">
        <ele>102</ele>
        <time>2021-03-21T10:41:12Z</time>
      </trkpt>
      <trkpt lat="43.67312" lon="3.88724">
        <ele>102</ele>
        <time>2021-03-21T10:41:14Z</time>
      </trkpt>
      <trkpt lat="43.6731" lon="3.88723">
        <ele>102</ele>
        <time>2021-03-21T10:41:16Z</time>
      </trkpt>
      <trkpt lat="43.67309" lon="3.88725">
        <ele>102</ele>
        <time>2021-03-21T10:41:22Z</time>
      </trkpt>
      <trkpt lat="43.67322" lon="3.88725">
        <ele>99</ele>
        <time>2021-03-21T10:41:32Z</time>
      </trkpt>
      <trkpt lat="43.67324" lon="3.88726">
        <ele>99</ele>
        <time>2021-03-21T10:41:33Z</time>
      </trkpt>
      <trkpt lat="43.67326" lon="3.88726">
        <ele>99</ele>
        <time>2021-03-21T10:41:34Z</time>
      </trkpt>
      <trkpt lat="43.67328" lon="3.88727">
        <ele>99</ele>
        <time>2021-03-21T10:41:35Z</time>
      </trkpt>
      <trkpt lat="43.6733" lon="3.88727">
        <ele>99</ele>
        <time>2021-03-21T10:41:36Z</time>
      </trkpt>
      <trkpt lat="43.67332" lon="3.88728">
        <ele>99</ele>
        <time>2021-03-21T10:41:37Z</time>
      </trkpt>
      <trkpt lat="43.67334" lon="3.8873">
        <ele>99</ele>
        <time>2021-03-21T10:41:38Z</time>
      </trkpt>
      <trkpt lat="43.67336" lon="3.88732">
        <ele>99</ele>
        <time>2021-03-21T10:41:39Z</time>
      </trkpt>
      <trkpt lat="43.67338" lon="3.88735">
        <ele>99</ele>
        <time>2021-03-21T10:41:40Z</time>
      </trkpt>
      <trkpt lat="43.6734" lon="3.88737">
        <ele>98</ele>
        <time>2021-03-21T10:41:41Z</time>
      </trkpt>
      <trkpt lat="43.67342" lon="3.8874">
        <ele>98</ele>
        <time>2021-03-21T10:41:42Z</time>
      </trkpt>
      <trkpt lat="43.67344" lon="3.88744">
        <ele>98</ele>
        <time>2021-03-21T10:41:43Z</time>
      </trkpt>
      <trkpt lat="43.67346" lon="3.88747">
        <ele>98</ele>
        <time>2021-03-21T10:41:44Z</time>
      </trkpt>
      <trkpt lat="43.67349" lon="3.8875">
        <ele>98</ele>
        <time>2021-03-21T10:41:45Z</time>
      </trkpt>
      <trkpt lat="43.67351" lon="3.88753">
        <ele>98</ele>
        <time>2021-03-21T10:41:46Z</time>
      </trkpt>
      <trkpt lat="43.67353" lon="3.88757">
        <ele>98</ele>
        <time>2021-03-21T10:41:47Z</time>
      </trkpt>
      <trkpt lat="43.67352" lon="3.8876">
        <ele>98</ele>
        <time>2021-03-21T10:41:48Z</time>
      </trkpt>
      <trkpt lat="43.67349" lon="3.88763">
        <ele>98</ele>
        <time>2021-03-21T10:41:49Z</time>
      </trkpt>
      <trkpt lat="43.67346" lon="3.88766">
        <ele>98</ele>
        <time>2021-03-21T10:41:50Z</time>
      </trkpt>
      <trkpt lat="43.67342" lon="3.88768">
        <ele>97</ele>
        <time>2021-03-21T10:41:51Z</time>
      </trkpt>
      <trkpt lat="43.67339" lon="3.8877">
        <ele>97</ele>
        <time>2021-03-21T10:41:52Z</time>
      </trkpt>
      <trkpt lat="43.67333" lon="3.88776">
        <ele>97</ele>
        <time>2021-03-21T10:41:53Z</time>
      </trkpt>
      <trkpt lat="43.67327" lon="3.88783">
        <ele>97</ele>
        <time>2021-03-21T10:41:55Z</time>
      </trkpt>
      <trkpt lat="43.67324" lon="3.88786">
        <ele>97</ele>
        <time>2021-03-21T10:41:56Z</time>
      </trkpt>
      <trkpt lat="43.67321" lon="3.8879">
        <ele>97</ele>
        <time>2021-03-21T10:41:58Z</time>
      </trkpt>
      <trkpt lat="43.67314" lon="3.88798">
        <ele>97</ele>
        <time>2021-03-21T10:41:59Z</time>
      </trkpt>
      <trkpt lat="43.6731" lon="3.88801">
        <ele>96</ele>
        <time>2021-03-21T10:42:01Z</time>
      </trkpt>
      <trkpt lat="43.67306" lon="3.88805">
        <ele>96</ele>
        <time>2021-03-21T10:42:02Z</time>
      </trkpt>
      <trkpt lat="43.67303" lon="3.88809">
        <ele>96</ele>
        <time>2021-03-21T10:42:03Z</time>
      </trkpt>
      <trkpt lat="43.67299" lon="3.88812">
        <ele>96</ele>
        <time>2021-03-21T10:42:04Z</time>
      </trkpt>
      <trkpt lat="43.67296" lon="3.88815">
        <ele>96</ele>
        <time>2021-03-21T10:42:05Z</time>
      </trkpt>
      <trkpt lat="43.67292" lon="3.88818">
        <ele>96</ele>
        <time>2021-03-21T10:42:06Z</time>
      </trkpt>
      <trkpt lat="43.67289" lon="3.88821">
        <ele>96</ele>
        <time>2021-03-21T10:42:07Z</time>
      </trkpt>
      <trkpt lat="43.67285" lon="3.88824">
        <ele>96</ele>
        <time>2021-03-21T10:42:08Z</time>
      </trkpt>
      <trkpt lat="43.67282" lon="3.88827">
        <ele>96</ele>
        <time>2021-03-21T10:42:09Z</time>
      </trkpt>
      <trkpt lat="43.67278" lon="3.8883">
        <ele>96</ele>
        <time>2021-03-21T10:42:10Z</time>
      </trkpt>
      <trkpt lat="43.67275" lon="3.88833">
        <ele>96</ele>
        <time>2021-03-21T10:42:11Z</time>
      </trkpt>
      <trkpt lat="43.67271" lon="3.88835">
        <ele>96</ele>
        <time>2021-03-21T10:42:12Z</time>
      </trkpt>
      <trkpt lat="43.67268" lon="3.88837">
        <ele>96</ele>
        <time>2021-03-21T10:42:13Z</time>
      </trkpt>
      <trkpt lat="43.67264" lon="3.88838">
        <ele>96</ele>
        <time>2021-03-21T10:42:14Z</time>
      </trkpt>
      <trkpt lat="43.67261" lon="3.8884">
        <ele>96</ele>
        <time>2021-03-21T10:42:15Z</time>
      </trkpt>
      <trkpt lat="43.67257" lon="3.88841">
        <ele>96</ele>
        <time>2021-03-21T10:42:16Z</time>
      </trkpt>
      <trkpt lat="43.67253" lon="3.88842">
        <ele>96</ele>
        <time>2021-03-21T10:42:17Z</time>
      </trkpt>
      <trkpt lat="43.6725" lon="3.88843">
        <ele>96</ele>
        <time>2021-03-21T10:42:18Z</time>
      </trkpt>
      <trkpt lat="43.67246" lon="3.88844">
        <ele>96</ele>
        <time>2021-03-21T10:42:19Z</time>
      </trkpt>
      <trkpt lat="43.67243" lon="3.88845">
        <ele>96</ele>
        <time>2021-03-21T10:42:20Z</time>
      </trkpt>
      <trkpt lat="43.67239" lon="3.88846">
        <ele>95</ele>
        <time>2021-03-21T10:42:21Z</time>
      </trkpt>
      <trkpt lat="43.67236" lon="3.88848">
        <ele>95</ele>
        <time>2021-03-21T10:42:22Z</time>
      </trkpt>
      <trkpt lat="43.67233" lon="3.88849">
        <ele>95</ele>
        <time>2021-03-21T10:42:23Z</time>
      </trkpt>
      <trkpt lat="43.6723" lon="3.88851">
        <ele>95</ele>
        <time>2021-03-21T10:42:24Z</time>
      </trkpt>
      <trkpt lat="43.67227" lon="3.88852">
        <ele>95</ele>
        <time>2021-03-21T10:42:25Z</time>
      </trkpt>
      <trkpt lat="43.67224" lon="3.88854">
        <ele>95</ele>
        <time>2021-03-21T10:42:26Z</time>
      </trkpt>
      <trkpt lat="43.67221" lon="3.88856">
        <ele>95</ele>
        <time>2021-03-21T10:42:27Z</time>
      </trkpt>
      <trkpt lat="43.67219" lon="3.88858">
        <ele>95</ele>
        <time>2021-03-21T10:42:28Z</time>
      </trkpt>
      <trkpt lat="43.67216" lon="3.88861">
        <ele>95</ele>
        <time>2021-03-21T10:42:29Z</time>
      </trkpt>
      <trkpt lat="43.67214" lon="3.88863">
        <ele>96</ele>
        <time>2021-03-21T10:42:30Z</time>
      </trkpt>
      <trkpt lat="43.67211" lon="3.88865">
        <ele>96</ele>
        <time>2021-03-21T10:42:31Z</time>
      </trkpt>
      <trkpt lat="43.67209" lon="3.88867">
        <ele>96</ele>
        <time>2021-03-21T10:42:32Z</time>
      </trkpt>
      <trkpt lat="43.67206" lon="3.88869">
        <ele>96</ele>
        <time>2021-03-21T10:42:33Z</time>
      </trkpt>
      <trkpt lat="43.67204" lon="3.88872">
        <ele>96</ele>
        <time>2021-03-21T10:42:34Z</time>
      </trkpt>
      <trkpt lat="43.67202" lon="3.88875">
        <ele>96</ele>
        <time>2021-03-21T10:42:35Z</time>
      </trkpt>
      <trkpt lat="43.67201" lon="3.88877">
        <ele>96</ele>
        <time>2021-03-21T10:42:36Z</time>
      </trkpt>
      <trkpt lat="43.67199" lon="3.88879">
        <ele>96</ele>
        <time>2021-03-21T10:42:37Z</time>
      </trkpt>
      <trkpt lat="43.67191" lon="3.88892">
        <ele>97</ele>
        <time>2021-03-21T10:42:52Z</time>
      </trkpt>
      <trkpt lat="43.67189" lon="3.88896">
        <ele>97</ele>
        <time>2021-03-21T10:42:53Z</time>
      </trkpt>
      <trkpt lat="43.67188" lon="3.88899">
        <ele>97</ele>
        <time>2021-03-21T10:42:54Z</time>
      </trkpt>
      <trkpt lat="43.67187" lon="3.88903">
        <ele>97</ele>
        <time>2021-03-21T10:42:55Z</time>
      </trkpt>
      <trkpt lat="43.67186" lon="3.88907">
        <ele>97</ele>
        <time>2021-03-21T10:42:56Z</time>
      </trkpt>
      <trkpt lat="43.67185" lon="3.8891">
        <ele>97</ele>
        <time>2021-03-21T10:42:57Z</time>
      </trkpt>
      <trkpt lat="43.67185" lon="3.88914">
        <ele>97</ele>
        <time>2021-03-21T10:42:58Z</time>
      </trkpt>
      <trkpt lat="43.67184" lon="3.88918">
        <ele>97</ele>
        <time>2021-03-21T10:42:59Z</time>
      </trkpt>
      <trkpt lat="43.67183" lon="3.88921">
        <ele>97</ele>
        <time>2021-03-21T10:43:00Z</time>
      </trkpt>
      <trkpt lat="43.67183" lon="3.88925">
        <ele>98</ele>
        <time>2021-03-21T10:43:01Z</time>
      </trkpt>
      <trkpt lat="43.67183" lon="3.88929">
        <ele>98</ele>
        <time>2021-03-21T10:43:02Z</time>
      </trkpt>
      <trkpt lat="43.67183" lon="3.88933">
        <ele>98</ele>
        <time>2021-03-21T10:43:03Z</time>
      </trkpt>
      <trkpt lat="43.67184" lon="3.88937">
        <ele>98</ele>
        <time>2021-03-21T10:43:04Z</time>
      </trkpt>
      <trkpt lat="43.67184" lon="3.88941">
        <ele>98</ele>
        <time>2021-03-21T10:43:05Z</time>
      </trkpt>
      <trkpt lat="43.67185" lon="3.88945">
        <ele>98</ele>
        <time>2021-03-21T10:43:06Z</time>
      </trkpt>
      <trkpt lat="43.67185" lon="3.88949">
        <ele>98</ele>
        <time>2021-03-21T10:43:07Z</time>
      </trkpt>
      <trkpt lat="43.67185" lon="3.88953">
        <ele>98</ele>
        <time>2021-03-21T10:43:08Z</time>
      </trkpt>
      <trkpt lat="43.67186" lon="3.88958">
        <ele>98</ele>
        <time>2021-03-21T10:43:09Z</time>
      </trkpt>
      <trkpt lat="43.67186" lon="3.88962">
        <ele>98</ele>
        <time>2021-03-21T10:43:10Z</time>
      </trkpt>
      <trkpt lat="43.67187" lon="3.88969">
        <ele>99</ele>
        <time>2021-03-21T10:43:11Z</time>
      </trkpt>
      <trkpt lat="43.67188" lon="3.88973">
        <ele>99</ele>
        <time>2021-03-21T10:43:13Z</time>
      </trkpt>
      <trkpt lat="43.67188" lon="3.88981">
        <ele>99</ele>
        <time>2021-03-21T10:43:14Z</time>
      </trkpt>
      <trkpt lat="43.67189" lon="3.88984">
        <ele>99</ele>
        <time>2021-03-21T10:43:16Z</time>
      </trkpt>
      <trkpt lat="43.67189" lon="3.88992">
        <ele>99</ele>
        <time>2021-03-21T10:43:17Z</time>
      </trkpt>
      <trkpt lat="43.67189" lon="3.88996">
        <ele>99</ele>
        <time>2021-03-21T10:43:19Z</time>
      </trkpt>
      <trkpt lat="43.67189" lon="3.88999">
        <ele>99</ele>
        <time>2021-03-21T10:43:20Z</time>
      </trkpt>
      <trkpt lat="43.67189" lon="3.89003">
        <ele>100</ele>
        <time>2021-03-21T10:43:21Z</time>
      </trkpt>
      <trkpt lat="43.67189" lon="3.89007">
        <ele>100</ele>
        <time>2021-03-21T10:43:22Z</time>
      </trkpt>
      <trkpt lat="43.67189" lon="3.89011">
        <ele>100</ele>
        <time>2021-03-21T10:43:23Z</time>
      </trkpt>
      <trkpt lat="43.67189" lon="3.89015">
        <ele>100</ele>
        <time>2021-03-21T10:43:24Z</time>
      </trkpt>
      <trkpt lat="43.67189" lon="3.89019">
        <ele>100</ele>
        <time>2021-03-21T10:43:25Z</time>
      </trkpt>
      <trkpt lat="43.67188" lon="3.89023">
        <ele>100</ele>
        <time>2021-03-21T10:43:26Z</time>
      </trkpt>
      <trkpt lat="43.67188" lon="3.89027">
        <ele>100</ele>
        <time>2021-03-21T10:43:27Z</time>
      </trkpt>
      <trkpt lat="43.67189" lon="3.89031">
        <ele>100</ele>
        <time>2021-03-21T10:43:28Z</time>
      </trkpt>
      <trkpt lat="43.67189" lon="3.89035">
        <ele>100</ele>
        <time>2021-03-21T10:43:29Z</time>
      </trkpt>
      <trkpt lat="43.67189" lon="3.89039">
        <ele>100</ele>
        <time>2021-03-21T10:43:30Z</time>
      </trkpt>
      <trkpt lat="43.67189" lon="3.89043">
        <ele>103</ele>
        <time>2021-03-21T10:43:31Z</time>
      </trkpt>
      <trkpt lat="43.67188" lon="3.89047">
        <ele>103</ele>
        <time>2021-03-21T10:43:32Z</time>
      </trkpt>
      <trkpt lat="43.67188" lon="3.89052">
        <ele>103</ele>
        <time>2021-03-21T10:43:33Z</time>
      </trkpt>
      <trkpt lat="43.67188" lon="3.89056">
        <ele>103</ele>
        <time>2021-03-21T10:43:34Z</time>
      </trkpt>
      <trkpt lat="43.67188" lon="3.8906">
        <ele>103</ele>
        <time>2021-03-21T10:43:35Z</time>
      </trkpt>
      <trkpt lat="43.67187" lon="3.89064">
        <ele>103</ele>
        <time>2021-03-21T10:43:36Z</time>
      </trkpt>
      <trkpt lat="43.67186" lon="3.89068">
        <ele>103</ele>
        <time>2021-03-21T10:43:37Z</time>
      </trkpt>
      <trkpt lat="43.67185" lon="3.89072">
        <ele>103</ele>
        <time>2021-03-21T10:43:38Z</time>
      </trkpt>
      <trkpt lat="43.67184" lon="3.89076">
        <ele>103</ele>
        <time>2021-03-21T10:43:39Z</time>
      </trkpt>
      <trkpt lat="43.67183" lon="3.8908">
        <ele>103</ele>
        <time>2021-03-21T10:43:40Z</time>
      </trkpt>
      <trkpt lat="43.67182" lon="3.89084">
        <ele>104</ele>
        <time>2021-03-21T10:43:41Z</time>
      </trkpt>
      <trkpt lat="43.6718" lon="3.89088">
        <ele>104</ele>
        <time>2021-03-21T10:43:42Z</time>
      </trkpt>
      <trkpt lat="43.67179" lon="3.89092">
        <ele>104</ele>
        <time>2021-03-21T10:43:43Z</time>
      </trkpt>
      <trkpt lat="43.67178" lon="3.89097">
        <ele>104</ele>
        <time>2021-03-21T10:43:44Z</time>
      </trkpt>
      <trkpt lat="43.67176" lon="3.89101">
        <ele>104</ele>
        <time>2021-03-21T10:43:45Z</time>
      </trkpt>
      <trkpt lat="43.67175" lon="3.89105">
        <ele>104</ele>
        <time>2021-03-21T10:43:46Z</time>
      </trkpt>
      <trkpt lat="43.67174" lon="3.89109">
        <ele>104</ele>
        <time>2021-03-21T10:43:47Z</time>
      </trkpt>
      <trkpt lat="43.67172" lon="3.89113">
        <ele>104</ele>
        <time>2021-03-21T10:43:48Z</time>
      </trkpt>
      <trkpt lat="43.67171" lon="3.89117">
        <ele>104</ele>
        <time>2021-03-21T10:43:49Z</time>
      </trkpt>
      <trkpt lat="43.6717" lon="3.89122">
        <ele>104</ele>
        <time>2021-03-21T10:43:50Z</time>
      </trkpt>
      <trkpt lat="43.67169" lon="3.89126">
        <ele>104</ele>
        <time>2021-03-21T10:43:51Z</time>
      </trkpt>
      <trkpt lat="43.67168" lon="3.8913">
        <ele>104</ele>
        <time>2021-03-21T10:43:52Z</time>
      </trkpt>
      <trkpt lat="43.67168" lon="3.89134">
        <ele>104</ele>
        <time>2021-03-21T10:43:53Z</time>
      </trkpt>
      <trkpt lat="43.67167" lon="3.89138">
        <ele>104</ele>
        <time>2021-03-21T10:43:54Z</time>
      </trkpt>
      <trkpt lat="43.67167" lon="3.89142">
        <ele>104</ele>
        <time>2021-03-21T10:43:55Z</time>
      </trkpt>
      <trkpt lat="43.67167" lon="3.89146">
        <ele>104</ele>
        <time>2021-03-21T10:43:56Z</time>
      </trkpt>
      <trkpt lat="43.67167" lon="3.8915">
        <ele>104</ele>
        <time>2021-03-21T10:43:57Z</time>
      </trkpt>
      <trkpt lat="43.67166" lon="3.89154">
        <ele>104</ele>
        <time>2021-03-21T10:43:58Z</time>
      </trkpt>
      <trkpt lat="43.67166" lon="3.89157">
        <ele>104</ele>
        <time>2021-03-21T10:43:59Z</time>
      </trkpt>
      <trkpt lat="43.67165" lon="3.89161">
        <ele>104</ele>
        <time>2021-03-21T10:44:00Z</time>
      </trkpt>
      <trkpt lat="43.67165" lon="3.89165">
        <ele>105</ele>
        <time>2021-03-21T10:44:01Z</time>
      </trkpt>
      <trkpt lat="43.67164" lon="3.89168">
        <ele>105</ele>
        <time>2021-03-21T10:44:02Z</time>
      </trkpt>
      <trkpt lat="43.67163" lon="3.89172">
        <ele>105</ele>
        <time>2021-03-21T10:44:03Z</time>
      </trkpt>
      <trkpt lat="43.67163" lon="3.89176">
        <ele>105</ele>
        <time>2021-03-21T10:44:04Z</time>
      </trkpt>
      <trkpt lat="43.67162" lon="3.8918">
        <ele>105</ele>
        <time>2021-03-21T10:44:05Z</time>
      </trkpt>
      <trkpt lat="43.67161" lon="3.89184">
        <ele>105</ele>
        <time>2021-03-21T10:44:06Z</time>
      </trkpt>
      <trkpt lat="43.6716" lon="3.89188">
        <ele>105</ele>
        <time>2021-03-21T10:44:07Z</time>
      </trkpt>
      <trkpt lat="43.67159" lon="3.89192">
        <ele>105</ele>
        <time>2021-03-21T10:44:08Z</time>
      </trkpt>
      <trkpt lat="43.67159" lon="3.89195">
        <ele>105</ele>
        <time>2021-03-21T10:44:09Z</time>
      </trkpt>
      <trkpt lat="43.67158" lon="3.89199">
        <ele>106</ele>
        <time>2021-03-21T10:44:10Z</time>
      </trkpt>
      <trkpt lat="43.67158" lon="3.89203">
        <ele>106</ele>
        <time>2021-03-21T10:44:11Z</time>
      </trkpt>
      <trkpt lat="43.67158" lon="3.89207">
        <ele>106</ele>
        <time>2021-03-21T10:44:12Z</time>
      </trkpt>
      <trkpt lat="43.67157" lon="3.8921">
        <ele>106</ele>
        <time>2021-03-21T10:44:13Z</time>
      </trkpt>
      <trkpt lat="43.67157" lon="3.89214">
        <ele>106</ele>
        <time>2021-03-21T10:44:14Z</time>
      </trkpt>
      <trkpt lat="43.67156" lon="3.89218">
        <ele>106</ele>
        <time>2021-03-21T10:44:15Z</time>
      </trkpt>
      <trkpt lat="43.67155" lon="3.89221">
        <ele>106</ele>
        <time>2021-03-21T10:44:16Z</time>
      </trkpt>
      <trkpt lat="43.67154" lon="3.89225">
        <ele>106</ele>
        <time>2021-03-21T10:44:17Z</time>
      </trkpt>
      <trkpt lat="43.67153" lon="3.89229">
        <ele>106</ele>
        <time>2021-03-21T10:44:18Z</time>
      </trkpt>
      <trkpt lat="43.67152" lon="3.89233">
        <ele>106</ele>
        <time>2021-03-21T10:44:19Z</time>
      </trkpt>
      <trkpt lat="43.67151" lon="3.89236">
        <ele>106</ele>
        <time>2021-03-21T10:44:20Z</time>
      </trkpt>
      <trkpt lat="43.6715" lon="3.8924">
        <ele>106</ele>
        <time>2021-03-21T10:44:21Z</time>
      </trkpt>
      <trkpt lat="43.67149" lon="3.89243">
        <ele>106</ele>
        <time>2021-03-21T10:44:22Z</time>
      </trkpt>
      <trkpt lat="43.67148" lon="3.89245">
        <ele>106</ele>
        <time>2021-03-21T10:44:23Z</time>
      </trkpt>
      <trkpt lat="43.67146" lon="3.89247">
        <ele>106</ele>
        <time>2021-03-21T10:44:24Z</time>
      </trkpt>
      <trkpt lat="43.67144" lon="3.8925">
        <ele>106</ele>
        <time>2021-03-21T10:44:25Z</time>
      </trkpt>
      <trkpt lat="43.67142" lon="3.89252">
        <ele>106</ele>
        <time>2021-03-21T10:44:26Z</time>
      </trkpt>
      <trkpt lat="43.67139" lon="3.89254">
        <ele>106</ele>
        <time>2021-03-21T10:44:27Z</time>
      </trkpt>
      <trkpt lat="43.67136" lon="3.89255">
        <ele>106</ele>
        <time>2021-03-21T10:44:28Z</time>
      </trkpt>
      <trkpt lat="43.67133" lon="3.89256">
        <ele>106</ele>
        <time>2021-03-21T10:44:29Z</time>
      </trkpt>
      <trkpt lat="43.67129" lon="3.89257">
        <ele>106</ele>
        <time>2021-03-21T10:44:30Z</time>
      </trkpt>
      <trkpt lat="43.67125" lon="3.89258">
        <ele>106</ele>
        <time>2021-03-21T10:44:31Z</time>
      </trkpt>
      <trkpt lat="43.67121" lon="3.89259">
        <ele>106</ele>
        <time>2021-03-21T10:44:32Z</time>
      </trkpt>
      <trkpt lat="43.67118" lon="3.89259">
        <ele>106</ele>
        <time>2021-03-21T10:44:33Z</time>
      </trkpt>
      <trkpt lat="43.67114" lon="3.89259">
        <ele>106</ele>
        <time>2021-03-21T10:44:34Z</time>
      </trkpt>
      <trkpt lat="43.67111" lon="3.89259">
        <ele>106</ele>
        <time>2021-03-21T10:44:35Z</time>
      </trkpt>
      <trkpt lat="43.67108" lon="3.89259">
        <ele>106</ele>
        <time>2021-03-21T10:44:36Z</time>
      </trkpt>
      <trkpt lat="43.67105" lon="3.89258">
        <ele>106</ele>
        <time>2021-03-21T10:44:37Z</time>
      </trkpt>
      <trkpt lat="43.67102" lon="3.89258">
        <ele>106</ele>
        <time>2021-03-21T10:44:38Z</time>
      </trkpt>
      <trkpt lat="43.67099" lon="3.89257">
        <ele>106</ele>
        <time>2021-03-21T10:44:39Z</time>
      </trkpt>
      <trkpt lat="43.67096" lon="3.89257">
        <ele>106</ele>
        <time>2021-03-21T10:44:40Z</time>
      </trkpt>
      <trkpt lat="43.67093" lon="3.89257">
        <ele>104</ele>
        <time>2021-03-21T10:44:41Z</time>
      </trkpt>
      <trkpt lat="43.67091" lon="3.89256">
        <ele>104</ele>
        <time>2021-03-21T10:44:42Z</time>
      </trkpt>
      <trkpt lat="43.67088" lon="3.89256">
        <ele>104</ele>
        <time>2021-03-21T10:44:43Z</time>
      </trkpt>
      <trkpt lat="43.67085" lon="3.89255">
        <ele>104</ele>
        <time>2021-03-21T10:44:44Z</time>
      </trkpt>
      <trkpt lat="43.67083" lon="3.89255">
        <ele>104</ele>
        <time>2021-03-21T10:44:45Z</time>
      </trkpt>
      <trkpt lat="43.6708" lon="3.89255">
        <ele>104</ele>
        <time>2021-03-21T10:44:46Z</time>
      </trkpt>
      <trkpt lat="43.67078" lon="3.89254">
        <ele>104</ele>
        <time>2021-03-21T10:44:47Z</time>
      </trkpt>
      <trkpt lat="43.67076" lon="3.89254">
        <ele>104</ele>
        <time>2021-03-21T10:44:48Z</time>
      </trkpt>
      <trkpt lat="43.67074" lon="3.89253">
        <ele>104</ele>
        <time>2021-03-21T10:44:49Z</time>
      </trkpt>
      <trkpt lat="43.67072" lon="3.89252">
        <ele>104</ele>
        <time>2021-03-21T10:44:50Z</time>
      </trkpt>
      <trkpt lat="43.6707" lon="3.89252">
        <ele>106</ele>
        <time>2021-03-21T10:44:51Z</time>
      </trkpt>
      <trkpt lat="43.67067" lon="3.89251">
        <ele>106</ele>
        <time>2021-03-21T10:44:52Z</time>
      </trkpt>
      <trkpt lat="43.67065" lon="3.8925">
        <ele>106</ele>
        <time>2021-03-21T10:44:53Z</time>
      </trkpt>
      <trkpt lat="43.67063" lon="3.8925">
        <ele>106</ele>
        <time>2021-03-21T10:44:54Z</time>
      </trkpt>
      <trkpt lat="43.6706" lon="3.89249">
        <ele>106</ele>
        <time>2021-03-21T10:44:56Z</time>
      </trkpt>
      <trkpt lat="43.67057" lon="3.89249">
        <ele>106</ele>
        <time>2021-03-21T10:44:58Z</time>
      </trkpt>
      <trkpt lat="43.67055" lon="3.8925">
        <ele>106</ele>
        <time>2021-03-21T10:45:00Z</time>
      </trkpt>
      <trkpt lat="43.67051" lon="3.89251">
        <ele>106</ele>
        <time>2021-03-21T10:45:02Z</time>
      </trkpt>
      <trkpt lat="43.67049" lon="3.89251">
        <ele>106</ele>
        <time>2021-03-21T10:45:03Z</time>
      </trkpt>
      <trkpt lat="43.67046" lon="3.89251">
        <ele>106</ele>
        <time>2021-03-21T10:45:05Z</time>
      </trkpt>
      <trkpt lat="43.67043" lon="3.89252">
        <ele>106</ele>
        <time>2021-03-21T10:45:07Z</time>
      </trkpt>
      <trkpt lat="43.6704" lon="3.89254">
        <ele>106</ele>
        <time>2021-03-21T10:45:08Z</time>
      </trkpt>
      <trkpt lat="43.67038" lon="3.89254">
        <ele>106</ele>
        <time>2021-03-21T10:45:12Z</time>
      </trkpt>
      <trkpt lat="43.67035" lon="3.89255">
        <ele>106</ele>
        <time>2021-03-21T10:45:14Z</time>
      </trkpt>
      <trkpt lat="43.67031" lon="3.89255">
        <ele>106</ele>
        <time>2021-03-21T10:45:16Z</time>
      </trkpt>
      <trkpt lat="43.67025" lon="3.89255">
        <ele>106</ele>
        <time>2021-03-21T10:45:17Z</time>
      </trkpt>
      <trkpt lat="43.6702" lon="3.89252">
        <ele>106</ele>
        <time>2021-03-21T10:45:19Z</time>
      </trkpt>
      <trkpt lat="43.67018" lon="3.89249">
        <ele>109</ele>
        <time>2021-03-21T10:45:21Z</time>
      </trkpt>
      <trkpt lat="43.67017" lon="3.89247">
        <ele>109</ele>
        <time>2021-03-21T10:45:22Z</time>
      </trkpt>
      <trkpt lat="43.67016" lon="3.89244">
        <ele>109</ele>
        <time>2021-03-21T10:45:23Z</time>
      </trkpt>
      <trkpt lat="43.67015" lon="3.89241">
        <ele>109</ele>
        <time>2021-03-21T10:45:24Z</time>
      </trkpt>
      <trkpt lat="43.67014" lon="3.89239">
        <ele>109</ele>
        <time>2021-03-21T10:45:25Z</time>
      </trkpt>
      <trkpt lat="43.67013" lon="3.89236">
        <ele>109</ele>
        <time>2021-03-21T10:45:26Z</time>
      </trkpt>
      <trkpt lat="43.67012" lon="3.89232">
        <ele>109</ele>
        <time>2021-03-21T10:45:28Z</time>
      </trkpt>
      <trkpt lat="43.6701" lon="3.89227">
        <ele>109</ele>
        <time>2021-03-21T10:45:29Z</time>
      </trkpt>
      <trkpt lat="43.67009" lon="3.89224">
        <ele>108</ele>
        <time>2021-03-21T10:45:31Z</time>
      </trkpt>
      <trkpt lat="43.67007" lon="3.89219">
        <ele>108</ele>
        <time>2021-03-21T10:45:32Z</time>
      </trkpt>
      <trkpt lat="43.67006" lon="3.89216">
        <ele>108</ele>
        <time>2021-03-21T10:45:34Z</time>
      </trkpt>
      <trkpt lat="43.67004" lon="3.8921">
        <ele>108</ele>
        <time>2021-03-21T10:45:35Z</time>
      </trkpt>
      <trkpt lat="43.67004" lon="3.89208">
        <ele>108</ele>
        <time>2021-03-21T10:45:37Z</time>
      </trkpt>
      <trkpt lat="43.67002" lon="3.89203">
        <ele>108</ele>
        <time>2021-03-21T10:45:38Z</time>
      </trkpt>
      <trkpt lat="43.67001" lon="3.892">
        <ele>108</ele>
        <time>2021-03-21T10:45:40Z</time>
      </trkpt>
      <trkpt lat="43.67001" lon="3.89197">
        <ele>109</ele>
        <time>2021-03-21T10:45:41Z</time>
      </trkpt>
      <trkpt lat="43.67002" lon="3.89194">
        <ele>109</ele>
        <time>2021-03-21T10:45:42Z</time>
      </trkpt>
      <trkpt lat="43.67001" lon="3.89191">
        <ele>109</ele>
        <time>2021-03-21T10:45:43Z</time>
      </trkpt>
      <trkpt lat="43.67001" lon="3.89187">
        <ele>109</ele>
        <time>2021-03-21T10:45:44Z</time>
      </trkpt>
      <trkpt lat="43.67002" lon="3.89184">
        <ele>109</ele>
        <time>2021-03-21T10:45:45Z</time>
      </trkpt>
      <trkpt lat="43.67001" lon="3.8918">
        <ele>109</ele>
        <time>2021-03-21T10:45:47Z</time>
      </trkpt>
      <trkpt lat="43.67001" lon="3.89177">
        <ele>109</ele>
        <time>2021-03-21T10:45:48Z</time>
      </trkpt>
      <trkpt lat="43.67" lon="3.89175">
        <ele>109</ele>
        <time>2021-03-21T10:45:49Z</time>
      </trkpt>
      <trkpt lat="43.66998" lon="3.89172">
        <ele>109</ele>
        <time>2021-03-21T10:45:50Z</time>
      </trkpt>
      <trkpt lat="43.66997" lon="3.8917">
        <ele>109</ele>
        <time>2021-03-21T10:45:51Z</time>
      </trkpt>
      <trkpt lat="43.66997" lon="3.89165">
        <ele>109</ele>
        <time>2021-03-21T10:45:53Z</time>
      </trkpt>
      <trkpt lat="43.66997" lon="3.89162">
        <ele>109</ele>
        <time>2021-03-21T10:45:54Z</time>
      </trkpt>
      <trkpt lat="43.66997" lon="3.89159">
        <ele>109</ele>
        <time>2021-03-21T10:45:55Z</time>
      </trkpt>
      <trkpt lat="43.66997" lon="3.89155">
        <ele>109</ele>
        <time>2021-03-21T10:45:57Z</time>
      </trkpt>
      <trkpt lat="43.66996" lon="3.89151">
        <ele>109</ele>
        <time>2021-03-21T10:46:04Z</time>
      </trkpt>
      <trkpt lat="43.66995" lon="3.89147">
        <ele>109</ele>
        <time>2021-03-21T10:46:06Z</time>
      </trkpt>
      <trkpt lat="43.66995" lon="3.89143">
        <ele>109</ele>
        <time>2021-03-21T10:46:08Z</time>
      </trkpt>
      <trkpt lat="43.66995" lon="3.8914">
        <ele>109</ele>
        <time>2021-03-21T10:46:09Z</time>
      </trkpt>
      <trkpt lat="43.66995" lon="3.89137">
        <ele>109</ele>
        <time>2021-03-21T10:46:10Z</time>
      </trkpt>
      <trkpt lat="43.66995" lon="3.89134">
        <ele>108</ele>
        <time>2021-03-21T10:46:11Z</time>
      </trkpt>
      <trkpt lat="43.66995" lon="3.89131">
        <ele>108</ele>
        <time>2021-03-21T10:46:12Z</time>
      </trkpt>
      <trkpt lat="43.66995" lon="3.89128">
        <ele>108</ele>
        <time>2021-03-21T10:46:13Z</time>
      </trkpt>
      <trkpt lat="43.66995" lon="3.89126">
        <ele>108</ele>
        <time>2021-03-21T10:46:14Z</time>
      </trkpt>
      <trkpt lat="43.66994" lon="3.89123">
        <ele>108</ele>
        <time>2021-03-21T10:46:15Z</time>
      </trkpt>
      <trkpt lat="43.66994" lon="3.8912">
        <ele>108</ele>
        <time>2021-03-21T10:46:16Z</time>
      </trkpt>
      <trkpt lat="43.66992" lon="3.89116">
        <ele>108</ele>
        <time>2021-03-21T10:46:17Z</time>
      </trkpt>
      <trkpt lat="43.66991" lon="3.89114">
        <ele>108</ele>
        <time>2021-03-21T10:46:18Z</time>
      </trkpt>
      <trkpt lat="43.6699" lon="3.89112">
        <ele>108</ele>
        <time>2021-03-21T10:46:19Z</time>
      </trkpt>
      <trkpt lat="43.66991" lon="3.89106">
        <ele>109</ele>
        <time>2021-03-21T10:46:21Z</time>
      </trkpt>
      <trkpt lat="43.66991" lon="3.89102">
        <ele>109</ele>
        <time>2021-03-21T10:46:23Z</time>
      </trkpt>
      <trkpt lat="43.66991" lon="3.89098">
        <ele>109</ele>
        <time>2021-03-21T10:46:25Z</time>
      </trkpt>
      <trkpt lat="43.66992" lon="3.89095">
        <ele>109</ele>
        <time>2021-03-21T10:46:26Z</time>
      </trkpt>
      <trkpt lat="43.66993" lon="3.89091">
        <ele>109</ele>
        <time>2021-03-21T10:46:27Z</time>
      </trkpt>
      <trkpt lat="43.66994" lon="3.89088">
        <ele>109</ele>
        <time>2021-03-21T10:46:28Z</time>
      </trkpt>
      <trkpt lat="43.66993" lon="3.89085">
        <ele>109</ele>
        <time>2021-03-21T10:46:29Z</time>
      </trkpt>
      <trkpt lat="43.66992" lon="3.89081">
        <ele>109</ele>
        <time>2021-03-21T10:46:30Z</time>
      </trkpt>
      <trkpt lat="43.66991" lon="3.89078">
        <ele>110</ele>
        <time>2021-03-21T10:46:31Z</time>
      </trkpt>
      <trkpt lat="43.6699" lon="3.89075">
        <ele>110</ele>
        <time>2021-03-21T10:46:32Z</time>
      </trkpt>
      <trkpt lat="43.66989" lon="3.89072">
        <ele>110</ele>
        <time>2021-03-21T10:46:33Z</time>
      </trkpt>
      <trkpt lat="43.66989" lon="3.89069">
        <ele>110</ele>
        <time>2021-03-21T10:46:34Z</time>
      </trkpt>
      <trkpt lat="43.66989" lon="3.89066">
        <ele>110</ele>
        <time>2021-03-21T10:46:35Z</time>
      </trkpt>
      <trkpt lat="43.6699" lon="3.89063">
        <ele>110</ele>
        <time>2021-03-21T10:46:36Z</time>
      </trkpt>
      <trkpt lat="43.6699" lon="3.8906">
        <ele>110</ele>
        <time>2021-03-21T10:46:37Z</time>
      </trkpt>
      <trkpt lat="43.66991" lon="3.89058">
        <ele>110</ele>
        <time>2021-03-21T10:46:38Z</time>
      </trkpt>
      <trkpt lat="43.66993" lon="3.89056">
        <ele>110</ele>
        <time>2021-03-21T10:46:39Z</time>
      </trkpt>
      <trkpt lat="43.66994" lon="3.89053">
        <ele>110</ele>
        <time>2021-03-21T10:46:40Z</time>
      </trkpt>
      <trkpt lat="43.66995" lon="3.89051">
        <ele>111</ele>
        <time>2021-03-21T10:46:41Z</time>
      </trkpt>
      <trkpt lat="43.66997" lon="3.89048">
        <ele>111</ele>
        <time>2021-03-21T10:46:42Z</time>
      </trkpt>
      <trkpt lat="43.66998" lon="3.89045">
        <ele>111</ele>
        <time>2021-03-21T10:46:43Z</time>
      </trkpt>
      <trkpt lat="43.66999" lon="3.89042">
        <ele>111</ele>
        <time>2021-03-21T10:46:44Z</time>
      </trkpt>
      <trkpt lat="43.67" lon="3.89039">
        <ele>111</ele>
        <time>2021-03-21T10:46:45Z</time>
      </trkpt>
      <trkpt lat="43.67" lon="3.89036">
        <ele>111</ele>
        <time>2021-03-21T10:46:46Z</time>
      </trkpt>
      <trkpt lat="43.67" lon="3.89033">
        <ele>111</ele>
        <time>2021-03-21T10:46:47Z</time>
      </trkpt>
      <trkpt lat="43.67" lon="3.8903">
        <ele>111</ele>
        <time>2021-03-21T10:46:48Z</time>
      </trkpt>
      <trkpt lat="43.67001" lon="3.89028">
        <ele>111</ele>
        <time>2021-03-21T10:46:49Z</time>
      </trkpt>
      <trkpt lat="43.67001" lon="3.89025">
        <ele>111</ele>
        <time>2021-03-21T10:46:50Z</time>
      </trkpt>
      <trkpt lat="43.67001" lon="3.89022">
        <ele>112</ele>
        <time>2021-03-21T10:46:51Z</time>
      </trkpt>
      <trkpt lat="43.67002" lon="3.89017">
        <ele>112</ele>
        <time>2021-03-21T10:46:53Z</time>
      </trkpt>
      <trkpt lat="43.67002" lon="3.89014">
        <ele>112</ele>
        <time>2021-03-21T10:46:54Z</time>
      </trkpt>
      <trkpt lat="43.67002" lon="3.89011">
        <ele>112</ele>
        <time>2021-03-21T10:46:55Z</time>
      </trkpt>
      <trkpt lat="43.67002" lon="3.89006">
        <ele>112</ele>
        <time>2021-03-21T10:46:57Z</time>
      </trkpt>
      <trkpt lat="43.67002" lon="3.89004">
        <ele>112</ele>
        <time>2021-03-21T10:46:58Z</time>
      </trkpt>
      <trkpt lat="43.67001" lon="3.89001">
        <ele>112</ele>
        <time>2021-03-21T10:46:59Z</time>
      </trkpt>
      <trkpt lat="43.67" lon="3.88999">
        <ele>112</ele>
        <time>2021-03-21T10:47:00Z</time>
      </trkpt>
      <trkpt lat="43.66999" lon="3.88996">
        <ele>114</ele>
        <time>2021-03-21T10:47:01Z</time>
      </trkpt>
      <trkpt lat="43.66998" lon="3.88993">
        <ele>114</ele>
        <time>2021-03-21T10:47:02Z</time>
      </trkpt>
      <trkpt lat="43.66997" lon="3.88988">
        <ele>114</ele>
        <time>2021-03-21T10:47:04Z</time>
      </trkpt>
      <trkpt lat="43.66996" lon="3.88986">
        <ele>114</ele>
        <time>2021-03-21T10:47:05Z</time>
      </trkpt>
      <trkpt lat="43.66996" lon="3.88982">
        <ele>114</ele>
        <time>2021-03-21T10:47:07Z</time>
      </trkpt>
      <trkpt lat="43.66996" lon="3.88978">
        <ele>114</ele>
        <time>2021-03-21T10:47:08Z</time>
      </trkpt>
      <trkpt lat="43.66995" lon="3.88975">
        <ele>114</ele>
        <time>2021-03-21T10:47:09Z</time>
      </trkpt>
      <trkpt lat="43.66995" lon="3.88972">
        <ele>115</ele>
        <time>2021-03-21T10:47:10Z</time>
      </trkpt>
      <trkpt lat="43.66994" lon="3.88969">
        <ele>115</ele>
        <time>2021-03-21T10:47:11Z</time>
      </trkpt>
      <trkpt lat="43.66993" lon="3.88967">
        <ele>115</ele>
        <time>2021-03-21T10:47:12Z</time>
      </trkpt>
      <trkpt lat="43.66993" lon="3.88962">
        <ele>115</ele>
        <time>2021-03-21T10:47:14Z</time>
      </trkpt>
      <trkpt lat="43.66993" lon="3.88959">
        <ele>115</ele>
        <time>2021-03-21T10:47:15Z</time>
      </trkpt>
      <trkpt lat="43.66993" lon="3.88956">
        <ele>115</ele>
        <time>2021-03-21T10:47:16Z</time>
      </trkpt>
      <trkpt lat="43.66993" lon="3.88953">
        <ele>115</ele>
        <time>2021-03-21T10:47:17Z</time>
      </trkpt>
      <trkpt lat="43.66993" lon="3.8895">
        <ele>115</ele>
        <time>2021-03-21T10:47:18Z</time>
      </trkpt>
      <trkpt lat="43.66993" lon="3.88948">
        <ele>115</ele>
        <time>2021-03-21T10:47:19Z</time>
      </trkpt>
      <trkpt lat="43.66992" lon="3.88945">
        <ele>115</ele>
        <time>2021-03-21T10:47:20Z</time>
      </trkpt>
      <trkpt lat="43.66992" lon="3.8894">
        <ele>115</ele>
        <time>2021-03-21T10:47:22Z</time>
      </trkpt>
      <trkpt lat="43.66993" lon="3.88938">
        <ele>115</ele>
        <time>2021-03-21T10:47:23Z</time>
      </trkpt>
      <trkpt lat="43.66993" lon="3.88935">
        <ele>115</ele>
        <time>2021-03-21T10:47:24Z</time>
      </trkpt>
      <trkpt lat="43.66994" lon="3.88933">
        <ele>115</ele>
        <time>2021-03-21T10:47:25Z</time>
      </trkpt>
      <trkpt lat="43.66993" lon="3.88928">
        <ele>115</ele>
        <time>2021-03-21T10:47:27Z</time>
      </trkpt>
      <trkpt lat="43.66994" lon="3.88924">
        <ele>115</ele>
        <time>2021-03-21T10:47:29Z</time>
      </trkpt>
      <trkpt lat="43.66994" lon="3.88919">
        <ele>115</ele>
        <time>2021-03-21T10:47:31Z</time>
      </trkpt>
      <trkpt lat="43.66993" lon="3.88917">
        <ele>115</ele>
        <time>2021-03-21T10:47:32Z</time>
      </trkpt>
      <trkpt lat="43.66993" lon="3.88914">
        <ele>115</ele>
        <time>2021-03-21T10:47:33Z</time>
      </trkpt>
      <trkpt lat="43.66993" lon="3.88911">
        <ele>115</ele>
        <time>2021-03-21T10:47:34Z</time>
      </trkpt>
      <trkpt lat="43.66992" lon="3.88909">
        <ele>115</ele>
        <time>2021-03-21T10:47:35Z</time>
      </trkpt>
      <trkpt lat="43.66991" lon="3.88904">
        <ele>115</ele>
        <time>2021-03-21T10:47:37Z</time>
      </trkpt>
      <trkpt lat="43.66992" lon="3.88901">
        <ele>115</ele>
        <time>2021-03-21T10:47:38Z</time>
      </trkpt>
      <trkpt lat="43.66992" lon="3.88898">
        <ele>115</ele>
        <time>2021-03-21T10:47:39Z</time>
      </trkpt>
      <trkpt lat="43.66991" lon="3.88893">
        <ele>115</ele>
        <time>2021-03-21T10:47:41Z</time>
      </trkpt>
      <trkpt lat="43.6699" lon="3.88891">
        <ele>115</ele>
        <time>2021-03-21T10:47:42Z</time>
      </trkpt>
      <trkpt lat="43.66989" lon="3.88886">
        <ele>115</ele>
        <time>2021-03-21T10:47:44Z</time>
      </trkpt>
      <trkpt lat="43.66989" lon="3.88883">
        <ele>115</ele>
        <time>2021-03-21T10:47:45Z</time>
      </trkpt>
      <trkpt lat="43.66988" lon="3.8888">
        <ele>115</ele>
        <time>2021-03-21T10:47:46Z</time>
      </trkpt>
      <trkpt lat="43.66988" lon="3.88877">
        <ele>115</ele>
        <time>2021-03-21T10:47:47Z</time>
      </trkpt>
      <trkpt lat="43.66987" lon="3.88875">
        <ele>115</ele>
        <time>2021-03-21T10:47:48Z</time>
      </trkpt>
      <trkpt lat="43.66987" lon="3.8887">
        <ele>121</ele>
        <time>2021-03-21T10:47:50Z</time>
      </trkpt>
      <trkpt lat="43.66988" lon="3.88865">
        <ele>121</ele>
        <time>2021-03-21T10:47:52Z</time>
      </trkpt>
      <trkpt lat="43.66985" lon="3.88862">
        <ele>121</ele>
        <time>2021-03-21T10:47:54Z</time>
      </trkpt>
      <trkpt lat="43.66984" lon="3.8886">
        <ele>121</ele>
        <time>2021-03-21T10:47:56Z</time>
      </trkpt>
      <trkpt lat="43.66984" lon="3.8886">
        <ele>122</ele>
        <time>2021-03-21T10:48:04Z</time>
      </trkpt>
      <trkpt lat="43.66976" lon="3.88857">
        <ele>122</ele>
        <time>2021-03-21T10:48:16Z</time>
      </trkpt>
      <trkpt lat="43.66974" lon="3.88855">
        <ele>122</ele>
        <time>2021-03-21T10:48:18Z</time>
      </trkpt>
      <trkpt lat="43.66972" lon="3.88854">
        <ele>122</ele>
        <time>2021-03-21T10:48:19Z</time>
      </trkpt>
      <trkpt lat="43.66969" lon="3.88853">
        <ele>122</ele>
        <time>2021-03-21T10:48:20Z</time>
      </trkpt>
      <trkpt lat="43.66967" lon="3.88852">
        <ele>122</ele>
        <time>2021-03-21T10:48:21Z</time>
      </trkpt>
      <trkpt lat="43.66964" lon="3.8885">
        <ele>122</ele>
        <time>2021-03-21T10:48:22Z</time>
      </trkpt>
      <trkpt lat="43.66963" lon="3.88848">
        <ele>122</ele>
        <time>2021-03-21T10:48:23Z</time>
      </trkpt>
      <trkpt lat="43.66962" lon="3.88845">
        <ele>122</ele>
        <time>2021-03-21T10:48:24Z</time>
      </trkpt>
      <trkpt lat="43.6696" lon="3.88842">
        <ele>122</ele>
        <time>2021-03-21T10:48:25Z</time>
      </trkpt>
      <trkpt lat="43.6696" lon="3.8884">
        <ele>122</ele>
        <time>2021-03-21T10:48:26Z</time>
      </trkpt>
      <trkpt lat="43.66959" lon="3.88838">
        <ele>122</ele>
        <time>2021-03-21T10:48:27Z</time>
      </trkpt>
      <trkpt lat="43.66958" lon="3.88836">
        <ele>122</ele>
        <time>2021-03-21T10:48:28Z</time>
      </trkpt>
      <trkpt lat="43.66956" lon="3.88834">
        <ele>122</ele>
        <time>2021-03-21T10:48:29Z</time>
      </trkpt>
      <trkpt lat="43.66954" lon="3.88833">
        <ele>122</ele>
        <time>2021-03-21T10:48:30Z</time>
      </trkpt>
      <trkpt lat="43.66952" lon="3.88831">
        <ele>122</ele>
        <time>2021-03-21T10:48:31Z</time>
      </trkpt>
      <trkpt lat="43.6695" lon="3.8883">
        <ele>122</ele>
        <time>2021-03-21T10:48:32Z</time>
      </trkpt>
      <trkpt lat="43.66949" lon="3.88829">
        <ele>122</ele>
        <time>2021-03-21T10:48:33Z</time>
      </trkpt>
      <trkpt lat="43.66947" lon="3.88829">
        <ele>122</ele>
        <time>2021-03-21T10:48:34Z</time>
      </trkpt>
      <trkpt lat="43.66944" lon="3.8883">
        <ele>121</ele>
        <time>2021-03-21T10:48:35Z</time>
      </trkpt>
      <trkpt lat="43.66943" lon="3.88832">
        <ele>121</ele>
        <time>2021-03-21T10:48:36Z</time>
      </trkpt>
      <trkpt lat="43.66943" lon="3.88836">
        <ele>121</ele>
        <time>2021-03-21T10:48:37Z</time>
      </trkpt>
      <trkpt lat="43.66944" lon="3.88842">
        <ele>121</ele>
        <time>2021-03-21T10:48:38Z</time>
      </trkpt>
      <trkpt lat="43.66945" lon="3.8885">
        <ele>121</ele>
        <time>2021-03-21T10:48:39Z</time>
      </trkpt>
      <trkpt lat="43.66946" lon="3.88857">
        <ele>121</ele>
        <time>2021-03-21T10:48:40Z</time>
      </trkpt>
      <trkpt lat="43.66947" lon="3.88865">
        <ele>121</ele>
        <time>2021-03-21T10:48:41Z</time>
      </trkpt>
      <trkpt lat="43.66948" lon="3.88874">
        <ele>121</ele>
        <time>2021-03-21T10:48:42Z</time>
      </trkpt>
      <trkpt lat="43.66949" lon="3.88884">
        <ele>121</ele>
        <time>2021-03-21T10:48:43Z</time>
      </trkpt>
      <trkpt lat="43.6695" lon="3.88894">
        <ele>121</ele>
        <time>2021-03-21T10:48:44Z</time>
      </trkpt>
      <trkpt lat="43.6695" lon="3.88905">
        <ele>117</ele>
        <time>2021-03-21T10:48:45Z</time>
      </trkpt>
      <trkpt lat="43.6695" lon="3.88915">
        <ele>117</ele>
        <time>2021-03-21T10:48:46Z</time>
      </trkpt>
      <trkpt lat="43.66949" lon="3.88924">
        <ele>117</ele>
        <time>2021-03-21T10:48:47Z</time>
      </trkpt>
      <trkpt lat="43.66949" lon="3.88934">
        <ele>117</ele>
        <time>2021-03-21T10:48:48Z</time>
      </trkpt>
      <trkpt lat="43.6695" lon="3.88944">
        <ele>117</ele>
        <time>2021-03-21T10:48:49Z</time>
      </trkpt>
      <trkpt lat="43.6695" lon="3.88953">
        <ele>117</ele>
        <time>2021-03-21T10:48:50Z</time>
      </trkpt>
      <trkpt lat="43.66949" lon="3.88961">
        <ele>117</ele>
        <time>2021-03-21T10:48:51Z</time>
      </trkpt>
      <trkpt lat="43.66948" lon="3.88967">
        <ele>117</ele>
        <time>2021-03-21T10:48:52Z</time>
      </trkpt>
      <trkpt lat="43.66948" lon="3.88971">
        <ele>117</ele>
        <time>2021-03-21T10:48:53Z</time>
      </trkpt>
      <trkpt lat="43.66947" lon="3.88974">
        <ele>113</ele>
        <time>2021-03-21T10:48:54Z</time>
      </trkpt>
      <trkpt lat="43.66945" lon="3.88977">
        <ele>113</ele>
        <time>2021-03-21T10:48:55Z</time>
      </trkpt>
      <trkpt lat="43.66942" lon="3.8898">
        <ele>113</ele>
        <time>2021-03-21T10:48:56Z</time>
      </trkpt>
      <trkpt lat="43.66938" lon="3.88983">
        <ele>113</ele>
        <time>2021-03-21T10:48:57Z</time>
      </trkpt>
      <trkpt lat="43.66933" lon="3.88986">
        <ele>113</ele>
        <time>2021-03-21T10:48:58Z</time>
      </trkpt>
      <trkpt lat="43.66929" lon="3.88986">
        <ele>113</ele>
        <time>2021-03-21T10:48:59Z</time>
      </trkpt>
      <trkpt lat="43.66925" lon="3.88985">
        <ele>113</ele>
        <time>2021-03-21T10:49:00Z</time>
      </trkpt>
      <trkpt lat="43.66921" lon="3.88984">
        <ele>113</ele>
        <time>2021-03-21T10:49:01Z</time>
      </trkpt>
      <trkpt lat="43.66916" lon="3.88985">
        <ele>113</ele>
        <time>2021-03-21T10:49:02Z</time>
      </trkpt>
      <trkpt lat="43.66913" lon="3.88987">
        <ele>113</ele>
        <time>2021-03-21T10:49:03Z</time>
      </trkpt>
      <trkpt lat="43.66911" lon="3.8899">
        <ele>109</ele>
        <time>2021-03-21T10:49:04Z</time>
      </trkpt>
      <trkpt lat="43.66909" lon="3.88991">
        <ele>109</ele>
        <time>2021-03-21T10:49:06Z</time>
      </trkpt>
      <trkpt lat="43.6691" lon="3.88994">
        <ele>109</ele>
        <time>2021-03-21T10:49:13Z</time>
      </trkpt>
      <trkpt lat="43.66907" lon="3.88984">
        <ele>105</ele>
        <time>2021-03-21T10:49:25Z</time>
      </trkpt>
      <trkpt lat="43.66905" lon="3.88983">
        <ele>105</ele>
        <time>2021-03-21T10:49:26Z</time>
      </trkpt>
      <trkpt lat="43.66902" lon="3.88981">
        <ele>105</ele>
        <time>2021-03-21T10:49:28Z</time>
      </trkpt>
      <trkpt lat="43.66897" lon="3.88981">
        <ele>105</ele>
        <time>2021-03-21T10:49:29Z</time>
      </trkpt>
      <trkpt lat="43.66894" lon="3.88982">
        <ele>105</ele>
        <time>2021-03-21T10:49:30Z</time>
      </trkpt>
      <trkpt lat="43.66892" lon="3.88984">
        <ele>105</ele>
        <time>2021-03-21T10:49:31Z</time>
      </trkpt>
      <trkpt lat="43.66891" lon="3.88987">
        <ele>105</ele>
        <time>2021-03-21T10:49:32Z</time>
      </trkpt>
      <trkpt lat="43.66889" lon="3.8899">
        <ele>105</ele>
        <time>2021-03-21T10:49:33Z</time>
      </trkpt>
      <trkpt lat="43.66887" lon="3.88994">
        <ele>105</ele>
        <time>2021-03-21T10:49:34Z</time>
      </trkpt>
      <trkpt lat="43.66884" lon="3.88998">
        <ele>104</ele>
        <time>2021-03-21T10:49:35Z</time>
      </trkpt>
      <trkpt lat="43.66882" lon="3.89001">
        <ele>104</ele>
        <time>2021-03-21T10:49:36Z</time>
      </trkpt>
      <trkpt lat="43.66879" lon="3.89003">
        <ele>104</ele>
        <time>2021-03-21T10:49:37Z</time>
      </trkpt>
      <trkpt lat="43.66875" lon="3.89003">
        <ele>104</ele>
        <time>2021-03-21T10:49:38Z</time>
      </trkpt>
      <trkpt lat="43.66872" lon="3.89002">
        <ele>104</ele>
        <time>2021-03-21T10:49:39Z</time>
      </trkpt>
      <trkpt lat="43.66869" lon="3.89001">
        <ele>104</ele>
        <time>2021-03-21T10:49:40Z</time>
      </trkpt>
      <trkpt lat="43.66867" lon="3.89">
        <ele>104</ele>
        <time>2021-03-21T10:49:41Z</time>
      </trkpt>
      <trkpt lat="43.66865" lon="3.89">
        <ele>104</ele>
        <time>2021-03-21T10:49:42Z</time>
      </trkpt>
      <trkpt lat="43.66862" lon="3.89001">
        <ele>104</ele>
        <time>2021-03-21T10:49:43Z</time>
      </trkpt>
      <trkpt lat="43.66859" lon="3.89002">
        <ele>104</ele>
        <time>2021-03-21T10:49:44Z</time>
      </trkpt>
      <trkpt lat="43.66857" lon="3.89003">
        <ele>102</ele>
        <time>2021-03-21T10:49:45Z</time>
      </trkpt>
      <trkpt lat="43.66855" lon="3.89004">
        <ele>102</ele>
        <time>2021-03-21T10:49:46Z</time>
      </trkpt>
      <trkpt lat="43.66853" lon="3.89004">
        <ele>102</ele>
        <time>2021-03-21T10:49:47Z</time>
      </trkpt>
      <trkpt lat="43.6685" lon="3.89004">
        <ele>102</ele>
        <time>2021-03-21T10:49:48Z</time>
      </trkpt>
      <trkpt lat="43.66848" lon="3.89005">
        <ele>102</ele>
        <time>2021-03-21T10:49:49Z</time>
      </trkpt>
      <trkpt lat="43.66845" lon="3.89005">
        <ele>102</ele>
        <time>2021-03-21T10:49:50Z</time>
      </trkpt>
      <trkpt lat="43.66842" lon="3.89008">
        <ele>102</ele>
        <time>2021-03-21T10:49:52Z</time>
      </trkpt>
      <trkpt lat="43.66839" lon="3.89009">
        <ele>102</ele>
        <time>2021-03-21T10:49:53Z</time>
      </trkpt>
      <trkpt lat="43.66836" lon="3.8901">
        <ele>102</ele>
        <time>2021-03-21T10:49:54Z</time>
      </trkpt>
      <trkpt lat="43.66832" lon="3.89012">
        <ele>100</ele>
        <time>2021-03-21T10:49:55Z</time>
      </trkpt>
      <trkpt lat="43.6683" lon="3.89014">
        <ele>100</ele>
        <time>2021-03-21T10:49:56Z</time>
      </trkpt>
      <trkpt lat="43.66828" lon="3.89018">
        <ele>100</ele>
        <time>2021-03-21T10:49:57Z</time>
      </trkpt>
      <trkpt lat="43.66827" lon="3.8902">
        <ele>100</ele>
        <time>2021-03-21T10:49:58Z</time>
      </trkpt>
      <trkpt lat="43.66824" lon="3.8902">
        <ele>100</ele>
        <time>2021-03-21T10:49:59Z</time>
      </trkpt>
      <trkpt lat="43.66822" lon="3.89024">
        <ele>100</ele>
        <time>2021-03-21T10:50:01Z</time>
      </trkpt>
      <trkpt lat="43.6682" lon="3.89027">
        <ele>100</ele>
        <time>2021-03-21T10:50:02Z</time>
      </trkpt>
      <trkpt lat="43.66818" lon="3.8903">
        <ele>100</ele>
        <time>2021-03-21T10:50:03Z</time>
      </trkpt>
      <trkpt lat="43.66816" lon="3.89034">
        <ele>100</ele>
        <time>2021-03-21T10:50:04Z</time>
      </trkpt>
      <trkpt lat="43.66814" lon="3.89038">
        <ele>99</ele>
        <time>2021-03-21T10:50:05Z</time>
      </trkpt>
      <trkpt lat="43.66811" lon="3.89041">
        <ele>99</ele>
        <time>2021-03-21T10:50:06Z</time>
      </trkpt>
      <trkpt lat="43.66808" lon="3.89044">
        <ele>99</ele>
        <time>2021-03-21T10:50:07Z</time>
      </trkpt>
      <trkpt lat="43.668" lon="3.89053">
        <ele>99</ele>
        <time>2021-03-21T10:50:10Z</time>
      </trkpt>
      <trkpt lat="43.66797" lon="3.89057">
        <ele>99</ele>
        <time>2021-03-21T10:50:11Z</time>
      </trkpt>
      <trkpt lat="43.66795" lon="3.89061">
        <ele>99</ele>
        <time>2021-03-21T10:50:12Z</time>
      </trkpt>
      <trkpt lat="43.66792" lon="3.89062">
        <ele>99</ele>
        <time>2021-03-21T10:50:13Z</time>
      </trkpt>
      <trkpt lat="43.66789" lon="3.89064">
        <ele>99</ele>
        <time>2021-03-21T10:50:14Z</time>
      </trkpt>
      <trkpt lat="43.66786" lon="3.89067">
        <ele>96</ele>
        <time>2021-03-21T10:50:15Z</time>
      </trkpt>
      <trkpt lat="43.66783" lon="3.89071">
        <ele>96</ele>
        <time>2021-03-21T10:50:16Z</time>
      </trkpt>
      <trkpt lat="43.66781" lon="3.89074">
        <ele>96</ele>
        <time>2021-03-21T10:50:17Z</time>
      </trkpt>
      <trkpt lat="43.66778" lon="3.89077">
        <ele>96</ele>
        <time>2021-03-21T10:50:18Z</time>
      </trkpt>
      <trkpt lat="43.66776" lon="3.89078">
        <ele>96</ele>
        <time>2021-03-21T10:50:19Z</time>
      </trkpt>
      <trkpt lat="43.66773" lon="3.89079">
        <ele>96</ele>
        <time>2021-03-21T10:50:21Z</time>
      </trkpt>
      <trkpt lat="43.66771" lon="3.8908">
        <ele>96</ele>
        <time>2021-03-21T10:50:22Z</time>
      </trkpt>
      <trkpt lat="43.66768" lon="3.89082">
        <ele>96</ele>
        <time>2021-03-21T10:50:23Z</time>
      </trkpt>
      <trkpt lat="43.66765" lon="3.89084">
        <ele>96</ele>
        <time>2021-03-21T10:50:24Z</time>
      </trkpt>
      <trkpt lat="43.66764" lon="3.89088">
        <ele>94</ele>
        <time>2021-03-21T10:50:25Z</time>
      </trkpt>
      <trkpt lat="43.66763" lon="3.89092">
        <ele>94</ele>
        <time>2021-03-21T10:50:26Z</time>
      </trkpt>
      <trkpt lat="43.66762" lon="3.89097">
        <ele>94</ele>
        <time>2021-03-21T10:50:27Z</time>
      </trkpt>
      <trkpt lat="43.6676" lon="3.89101">
        <ele>94</ele>
        <time>2021-03-21T10:50:28Z</time>
      </trkpt>
      <trkpt lat="43.66759" lon="3.89105">
        <ele>94</ele>
        <time>2021-03-21T10:50:29Z</time>
      </trkpt>
      <trkpt lat="43.66756" lon="3.89108">
        <ele>94</ele>
        <time>2021-03-21T10:50:30Z</time>
      </trkpt>
      <trkpt lat="43.66755" lon="3.89111">
        <ele>94</ele>
        <time>2021-03-21T10:50:31Z</time>
      </trkpt>
      <trkpt lat="43.66752" lon="3.89113">
        <ele>94</ele>
        <time>2021-03-21T10:50:32Z</time>
      </trkpt>
      <trkpt lat="43.6675" lon="3.89114">
        <ele>94</ele>
        <time>2021-03-21T10:50:33Z</time>
      </trkpt>
      <trkpt lat="43.66748" lon="3.89113">
        <ele>94</ele>
        <time>2021-03-21T10:50:34Z</time>
      </trkpt>
      <trkpt lat="43.66745" lon="3.89111">
        <ele>92</ele>
        <time>2021-03-21T10:50:35Z</time>
      </trkpt>
      <trkpt lat="43.66743" lon="3.89109">
        <ele>92</ele>
        <time>2021-03-21T10:50:36Z</time>
      </trkpt>
      <trkpt lat="43.66741" lon="3.89108">
        <ele>92</ele>
        <time>2021-03-21T10:50:37Z</time>
      </trkpt>
      <trkpt lat="43.66738" lon="3.89109">
        <ele>92</ele>
        <time>2021-03-21T10:50:38Z</time>
      </trkpt>
      <trkpt lat="43.66736" lon="3.8911">
        <ele>92</ele>
        <time>2021-03-21T10:50:39Z</time>
      </trkpt>
      <trkpt lat="43.66734" lon="3.89112">
        <ele>92</ele>
        <time>2021-03-21T10:50:40Z</time>
      </trkpt>
      <trkpt lat="43.66732" lon="3.89113">
        <ele>92</ele>
        <time>2021-03-21T10:50:41Z</time>
      </trkpt>
      <trkpt lat="43.66731" lon="3.89114">
        <ele>92</ele>
        <time>2021-03-21T10:50:42Z</time>
      </trkpt>
      <trkpt lat="43.66729" lon="3.89116">
        <ele>92</ele>
        <time>2021-03-21T10:50:43Z</time>
      </trkpt>
      <trkpt lat="43.66727" lon="3.89119">
        <ele>92</ele>
        <time>2021-03-21T10:50:44Z</time>
      </trkpt>
      <trkpt lat="43.66725" lon="3.89121">
        <ele>91</ele>
        <time>2021-03-21T10:50:45Z</time>
      </trkpt>
      <trkpt lat="43.66722" lon="3.89123">
        <ele>91</ele>
        <time>2021-03-21T10:50:46Z</time>
      </trkpt>
      <trkpt lat="43.6672" lon="3.89124">
        <ele>91</ele>
        <time>2021-03-21T10:50:47Z</time>
      </trkpt>
      <trkpt lat="43.66718" lon="3.89124">
        <ele>91</ele>
        <time>2021-03-21T10:50:48Z</time>
      </trkpt>
      <trkpt lat="43.66715" lon="3.89126">
        <ele>91</ele>
        <time>2021-03-21T10:50:49Z</time>
      </trkpt>
      <trkpt lat="43.66712" lon="3.89129">
        <ele>91</ele>
        <time>2021-03-21T10:50:50Z</time>
      </trkpt>
      <trkpt lat="43.66711" lon="3.89133">
        <ele>91</ele>
        <time>2021-03-21T10:50:51Z</time>
      </trkpt>
      <trkpt lat="43.66709" lon="3.89137">
        <ele>91</ele>
        <time>2021-03-21T10:50:52Z</time>
      </trkpt>
      <trkpt lat="43.66707" lon="3.89143">
        <ele>91</ele>
        <time>2021-03-21T10:50:53Z</time>
      </trkpt>
      <trkpt lat="43.66705" lon="3.89147">
        <ele>89</ele>
        <time>2021-03-21T10:50:54Z</time>
      </trkpt>
      <trkpt lat="43.66702" lon="3.8915">
        <ele>89</ele>
        <time>2021-03-21T10:50:55Z</time>
      </trkpt>
      <trkpt lat="43.667" lon="3.89153">
        <ele>89</ele>
        <time>2021-03-21T10:50:56Z</time>
      </trkpt>
      <trkpt lat="43.66697" lon="3.89156">
        <ele>89</ele>
        <time>2021-03-21T10:50:57Z</time>
      </trkpt>
      <trkpt lat="43.66695" lon="3.8916">
        <ele>89</ele>
        <time>2021-03-21T10:50:58Z</time>
      </trkpt>
      <trkpt lat="43.66693" lon="3.89164">
        <ele>89</ele>
        <time>2021-03-21T10:50:59Z</time>
      </trkpt>
      <trkpt lat="43.66691" lon="3.89168">
        <ele>89</ele>
        <time>2021-03-21T10:51:00Z</time>
      </trkpt>
      <trkpt lat="43.66689" lon="3.89171">
        <ele>89</ele>
        <time>2021-03-21T10:51:01Z</time>
      </trkpt>
      <trkpt lat="43.66686" lon="3.89175">
        <ele>89</ele>
        <time>2021-03-21T10:51:02Z</time>
      </trkpt>
      <trkpt lat="43.66683" lon="3.89179">
        <ele>89</ele>
        <time>2021-03-21T10:51:03Z</time>
      </trkpt>
      <trkpt lat="43.6668" lon="3.89182">
        <ele>89</ele>
        <time>2021-03-21T10:51:04Z</time>
      </trkpt>
      <trkpt lat="43.66677" lon="3.89186">
        <ele>88</ele>
        <time>2021-03-21T10:51:05Z</time>
      </trkpt>
      <trkpt lat="43.66675" lon="3.8919">
        <ele>88</ele>
        <time>2021-03-21T10:51:06Z</time>
      </trkpt>
      <trkpt lat="43.66673" lon="3.89194">
        <ele>88</ele>
        <time>2021-03-21T10:51:07Z</time>
      </trkpt>
      <trkpt lat="43.66673" lon="3.892">
        <ele>88</ele>
        <time>2021-03-21T10:51:08Z</time>
      </trkpt>
      <trkpt lat="43.66672" lon="3.89207">
        <ele>88</ele>
        <time>2021-03-21T10:51:09Z</time>
      </trkpt>
      <trkpt lat="43.66671" lon="3.89215">
        <ele>88</ele>
        <time>2021-03-21T10:51:10Z</time>
      </trkpt>
      <trkpt lat="43.6667" lon="3.89223">
        <ele>88</ele>
        <time>2021-03-21T10:51:11Z</time>
      </trkpt>
      <trkpt lat="43.66668" lon="3.89231">
        <ele>88</ele>
        <time>2021-03-21T10:51:12Z</time>
      </trkpt>
      <trkpt lat="43.66666" lon="3.8924">
        <ele>88</ele>
        <time>2021-03-21T10:51:13Z</time>
      </trkpt>
      <trkpt lat="43.66665" lon="3.89249">
        <ele>85</ele>
        <time>2021-03-21T10:51:14Z</time>
      </trkpt>
      <trkpt lat="43.66663" lon="3.89257">
        <ele>85</ele>
        <time>2021-03-21T10:51:15Z</time>
      </trkpt>
      <trkpt lat="43.66661" lon="3.89265">
        <ele>85</ele>
        <time>2021-03-21T10:51:16Z</time>
      </trkpt>
      <trkpt lat="43.66659" lon="3.89274">
        <ele>85</ele>
        <time>2021-03-21T10:51:17Z</time>
      </trkpt>
      <trkpt lat="43.66657" lon="3.89282">
        <ele>85</ele>
        <time>2021-03-21T10:51:18Z</time>
      </trkpt>
      <trkpt lat="43.66656" lon="3.8929">
        <ele>85</ele>
        <time>2021-03-21T10:51:19Z</time>
      </trkpt>
      <trkpt lat="43.66654" lon="3.89299">
        <ele>85</ele>
        <time>2021-03-21T10:51:20Z</time>
      </trkpt>
      <trkpt lat="43.66653" lon="3.89309">
        <ele>85</ele>
        <time>2021-03-21T10:51:21Z</time>
      </trkpt>
      <trkpt lat="43.66651" lon="3.89318">
        <ele>85</ele>
        <time>2021-03-21T10:51:22Z</time>
      </trkpt>
      <trkpt lat="43.6665" lon="3.89328">
        <ele>85</ele>
        <time>2021-03-21T10:51:23Z</time>
      </trkpt>
      <trkpt lat="43.66648" lon="3.89338">
        <ele>85</ele>
        <time>2021-03-21T10:51:24Z</time>
      </trkpt>
      <trkpt lat="43.66647" lon="3.89348">
        <ele>82</ele>
        <time>2021-03-21T10:51:25Z</time>
      </trkpt>
      <trkpt lat="43.66646" lon="3.89358">
        <ele>82</ele>
        <time>2021-03-21T10:51:26Z</time>
      </trkpt>
      <trkpt lat="43.66645" lon="3.89367">
        <ele>82</ele>
        <time>2021-03-21T10:51:27Z</time>
      </trkpt>
      <trkpt lat="43.66645" lon="3.89377">
        <ele>82</ele>
        <time>2021-03-21T10:51:28Z</time>
      </trkpt>
      <trkpt lat="43.66643" lon="3.89386">
        <ele>82</ele>
        <time>2021-03-21T10:51:29Z</time>
      </trkpt>
      <trkpt lat="43.66642" lon="3.89395">
        <ele>82</ele>
        <time>2021-03-21T10:51:30Z</time>
      </trkpt>
      <trkpt lat="43.6664" lon="3.89404">
        <ele>82</ele>
        <time>2021-03-21T10:51:31Z</time>
      </trkpt>
      <trkpt lat="43.66637" lon="3.89412">
        <ele>82</ele>
        <time>2021-03-21T10:51:32Z</time>
      </trkpt>
      <trkpt lat="43.66634" lon="3.89419">
        <ele>82</ele>
        <time>2021-03-21T10:51:33Z</time>
      </trkpt>
      <trkpt lat="43.6663" lon="3.89425">
        <ele>79</ele>
        <time>2021-03-21T10:51:34Z</time>
      </trkpt>
      <trkpt lat="43.66627" lon="3.89429">
        <ele>79</ele>
        <time>2021-03-21T10:51:35Z</time>
      </trkpt>
      <trkpt lat="43.66623" lon="3.89434">
        <ele>79</ele>
        <time>2021-03-21T10:51:36Z</time>
      </trkpt>
      <trkpt lat="43.66619" lon="3.89439">
        <ele>79</ele>
        <time>2021-03-21T10:51:37Z</time>
      </trkpt>
      <trkpt lat="43.66617" lon="3.89444">
        <ele>79</ele>
        <time>2021-03-21T10:51:38Z</time>
      </trkpt>
      <trkpt lat="43.66616" lon="3.89451">
        <ele>79</ele>
        <time>2021-03-21T10:51:39Z</time>
      </trkpt>
      <trkpt lat="43.66616" lon="3.89457">
        <ele>79</ele>
        <time>2021-03-21T10:51:40Z</time>
      </trkpt>
      <trkpt lat="43.66616" lon="3.89464">
        <ele>79</ele>
        <time>2021-03-21T10:51:41Z</time>
      </trkpt>
      <trkpt lat="43.66617" lon="3.89472">
        <ele>79</ele>
        <time>2021-03-21T10:51:42Z</time>
      </trkpt>
      <trkpt lat="43.66618" lon="3.8948">
        <ele>79</ele>
        <time>2021-03-21T10:51:43Z</time>
      </trkpt>
      <trkpt lat="43.66617" lon="3.89488">
        <ele>79</ele>
        <time>2021-03-21T10:51:44Z</time>
      </trkpt>
      <trkpt lat="43.66614" lon="3.89494">
        <ele>77</ele>
        <time>2021-03-21T10:51:45Z</time>
      </trkpt>
      <trkpt lat="43.6661" lon="3.89499">
        <ele>77</ele>
        <time>2021-03-21T10:51:46Z</time>
      </trkpt>
      <trkpt lat="43.66606" lon="3.89501">
        <ele>77</ele>
        <time>2021-03-21T10:51:47Z</time>
      </trkpt>
      <trkpt lat="43.66601" lon="3.895">
        <ele>77</ele>
        <time>2021-03-21T10:51:48Z</time>
      </trkpt>
      <trkpt lat="43.66597" lon="3.89499">
        <ele>77</ele>
        <time>2021-03-21T10:51:49Z</time>
      </trkpt>
      <trkpt lat="43.66593" lon="3.89497">
        <ele>77</ele>
        <time>2021-03-21T10:51:50Z</time>
      </trkpt>
      <trkpt lat="43.6659" lon="3.89496">
        <ele>77</ele>
        <time>2021-03-21T10:51:51Z</time>
      </trkpt>
      <trkpt lat="43.66587" lon="3.89494">
        <ele>77</ele>
        <time>2021-03-21T10:51:52Z</time>
      </trkpt>
      <trkpt lat="43.66584" lon="3.89493">
        <ele>77</ele>
        <time>2021-03-21T10:51:53Z</time>
      </trkpt>
      <trkpt lat="43.66581" lon="3.89493">
        <ele>77</ele>
        <time>2021-03-21T10:51:54Z</time>
      </trkpt>
      <trkpt lat="43.66578" lon="3.89492">
        <ele>77</ele>
        <time>2021-03-21T10:51:55Z</time>
      </trkpt>
      <trkpt lat="43.66576" lon="3.89491">
        <ele>77</ele>
        <time>2021-03-21T10:51:56Z</time>
      </trkpt>
      <trkpt lat="43.66573" lon="3.89491">
        <ele>77</ele>
        <time>2021-03-21T10:51:57Z</time>
      </trkpt>
      <trkpt lat="43.66572" lon="3.8949">
        <ele>77</ele>
        <time>2021-03-21T10:51:58Z</time>
      </trkpt>
      <trkpt lat="43.66568" lon="3.89489">
        <ele>77</ele>
        <time>2021-03-21T10:52:00Z</time>
      </trkpt>
      <trkpt lat="43.66566" lon="3.89486">
        <ele>77</ele>
        <time>2021-03-21T10:52:02Z</time>
      </trkpt>
      <trkpt lat="43.66564" lon="3.89484">
        <ele>77</ele>
        <time>2021-03-21T10:52:04Z</time>
      </trkpt>
      <trkpt lat="43.66561" lon="3.8948">
        <ele>77</ele>
        <time>2021-03-21T10:52:06Z</time>
      </trkpt>
      <trkpt lat="43.6656" lon="3.89476">
        <ele>77</ele>
        <time>2021-03-21T10:52:08Z</time>
      </trkpt>
      <trkpt lat="43.66559" lon="3.89472">
        <ele>77</ele>
        <time>2021-03-21T10:52:10Z</time>
      </trkpt>
      <trkpt lat="43.66558" lon="3.89468">
        <ele>77</ele>
        <time>2021-03-21T10:52:12Z</time>
      </trkpt>
      <trkpt lat="43.66559" lon="3.89463">
        <ele>77</ele>
        <time>2021-03-21T10:52:14Z</time>
      </trkpt>
      <trkpt lat="43.66559" lon="3.89459">
        <ele>77</ele>
        <time>2021-03-21T10:52:16Z</time>
      </trkpt>
      <trkpt lat="43.66559" lon="3.89455">
        <ele>77</ele>
        <time>2021-03-21T10:52:18Z</time>
      </trkpt>
      <trkpt lat="43.66559" lon="3.89452">
        <ele>77</ele>
        <time>2021-03-21T10:52:20Z</time>
      </trkpt>
      <trkpt lat="43.66559" lon="3.89447">
        <ele>77</ele>
        <time>2021-03-21T10:52:22Z</time>
      </trkpt>
      <trkpt lat="43.66558" lon="3.89443">
        <ele>77</ele>
        <time>2021-03-21T10:52:24Z</time>
      </trkpt>
      <trkpt lat="43.66558" lon="3.89439">
        <ele>77</ele>
        <time>2021-03-21T10:52:26Z</time>
      </trkpt>
      <trkpt lat="43.66559" lon="3.89435">
        <ele>77</ele>
        <time>2021-03-21T10:52:28Z</time>
      </trkpt>
      <trkpt lat="43.66559" lon="3.8943">
        <ele>77</ele>
        <time>2021-03-21T10:52:30Z</time>
      </trkpt>
      <trkpt lat="43.66559" lon="3.89426">
        <ele>77</ele>
        <time>2021-03-21T10:52:32Z</time>
      </trkpt>
      <trkpt lat="43.66558" lon="3.89422">
        <ele>77</ele>
        <time>2021-03-21T10:52:34Z</time>
      </trkpt>
      <trkpt lat="43.66557" lon="3.89419">
        <ele>77</ele>
        <time>2021-03-21T10:52:36Z</time>
      </trkpt>
      <trkpt lat="43.66557" lon="3.89415">
        <ele>77</ele>
        <time>2021-03-21T10:52:38Z</time>
      </trkpt>
      <trkpt lat="43.66559" lon="3.89412">
        <ele>77</ele>
        <time>2021-03-21T10:52:40Z</time>
      </trkpt>
      <trkpt lat="43.66559" lon="3.89408">
        <ele>77</ele>
        <time>2021-03-21T10:52:42Z</time>
      </trkpt>
      <trkpt lat="43.66559" lon="3.89404">
        <ele>77</ele>
        <time>2021-03-21T10:52:44Z</time>
      </trkpt>
      <trkpt lat="43.66559" lon="3.894">
        <ele>77</ele>
        <time>2021-03-21T10:52:46Z</time>
      </trkpt>
      <trkpt lat="43.66559" lon="3.89396">
        <ele>77</ele>
        <time>2021-03-21T10:52:48Z</time>
      </trkpt>
      <trkpt lat="43.6656" lon="3.89393">
        <ele>77</ele>
        <time>2021-03-21T10:52:50Z</time>
      </trkpt>
      <trkpt lat="43.6656" lon="3.8939">
        <ele>77</ele>
        <time>2021-03-21T10:52:52Z</time>
      </trkpt>
      <trkpt lat="43.66561" lon="3.89386">
        <ele>77</ele>
        <time>2021-03-21T10:52:54Z</time>
      </trkpt>
      <trkpt lat="43.66561" lon="3.89382">
        <ele>77</ele>
        <time>2021-03-21T10:52:56Z</time>
      </trkpt>
      <trkpt lat="43.66562" lon="3.89379">
        <ele>77</ele>
        <time>2021-03-21T10:52:58Z</time>
      </trkpt>
      <trkpt lat="43.66562" lon="3.89375">
        <ele>77</ele>
        <time>2021-03-21T10:53:00Z</time>
      </trkpt>
      <trkpt lat="43.66562" lon="3.89372">
        <ele>77</ele>
        <time>2021-03-21T10:53:02Z</time>
      </trkpt>
      <trkpt lat="43.66562" lon="3.89368">
        <ele>77</ele>
        <time>2021-03-21T10:53:04Z</time>
      </trkpt>
      <trkpt lat="43.66562" lon="3.89365">
        <ele>77</ele>
        <time>2021-03-21T10:53:06Z</time>
      </trkpt>
      <trkpt lat="43.66562" lon="3.89362">
        <ele>77</ele>
        <time>2021-03-21T10:53:08Z</time>
      </trkpt>
      <trkpt lat="43.66562" lon="3.89358">
        <ele>77</ele>
        <time>2021-03-21T10:53:10Z</time>
      </trkpt>
      <trkpt lat="43.66562" lon="3.89355">
        <ele>77</ele>
        <time>2021-03-21T10:53:12Z</time>
      </trkpt>
      <trkpt lat="43.66563" lon="3.89351">
        <ele>77</ele>
        <time>2021-03-21T10:53:14Z</time>
      </trkpt>
      <trkpt lat="43.66563" lon="3.89347">
        <ele>77</ele>
        <time>2021-03-21T10:53:16Z</time>
      </trkpt>
      <trkpt lat="43.66564" lon="3.89344">
        <ele>77</ele>
        <time>2021-03-21T10:53:18Z</time>
      </trkpt>
      <trkpt lat="43.66567" lon="3.8934">
        <ele>77</ele>
        <time>2021-03-21T10:53:20Z</time>
      </trkpt>
      <trkpt lat="43.66568" lon="3.89337">
        <ele>77</ele>
        <time>2021-03-21T10:53:22Z</time>
      </trkpt>
      <trkpt lat="43.6657" lon="3.89334">
        <ele>77</ele>
        <time>2021-03-21T10:53:24Z</time>
      </trkpt>
      <trkpt lat="43.66571" lon="3.89331">
        <ele>77</ele>
        <time>2021-03-21T10:53:26Z</time>
      </trkpt>
      <trkpt lat="43.66572" lon="3.89327">
        <ele>77</ele>
        <time>2021-03-21T10:53:28Z</time>
      </trkpt>
      <trkpt lat="43.66573" lon="3.89324">
        <ele>77</ele>
        <time>2021-03-21T10:53:30Z</time>
      </trkpt>
      <trkpt lat="43.66575" lon="3.8932">
        <ele>77</ele>
        <time>2021-03-21T10:53:32Z</time>
      </trkpt>
      <trkpt lat="43.66577" lon="3.89317">
        <ele>77</ele>
        <time>2021-03-21T10:53:34Z</time>
      </trkpt>
      <trkpt lat="43.66579" lon="3.89315">
        <ele>93</ele>
        <time>2021-03-21T10:53:35Z</time>
      </trkpt>
      <trkpt lat="43.6658" lon="3.89313">
        <ele>93</ele>
        <time>2021-03-21T10:53:36Z</time>
      </trkpt>
      <trkpt lat="43.66581" lon="3.89311">
        <ele>93</ele>
        <time>2021-03-21T10:53:37Z</time>
      </trkpt>
      <trkpt lat="43.66583" lon="3.89309">
        <ele>93</ele>
        <time>2021-03-21T10:53:38Z</time>
      </trkpt>
      <trkpt lat="43.66584" lon="3.89307">
        <ele>93</ele>
        <time>2021-03-21T10:53:39Z</time>
      </trkpt>
      <trkpt lat="43.66585" lon="3.89304">
        <ele>93</ele>
        <time>2021-03-21T10:53:40Z</time>
      </trkpt>
      <trkpt lat="43.66585" lon="3.89302">
        <ele>93</ele>
        <time>2021-03-21T10:53:41Z</time>
      </trkpt>
      <trkpt lat="43.66587" lon="3.89299">
        <ele>93</ele>
        <time>2021-03-21T10:53:42Z</time>
      </trkpt>
      <trkpt lat="43.66588" lon="3.89296">
        <ele>93</ele>
        <time>2021-03-21T10:53:43Z</time>
      </trkpt>
      <trkpt lat="43.66589" lon="3.89293">
        <ele>93</ele>
        <time>2021-03-21T10:53:44Z</time>
      </trkpt>
      <trkpt lat="43.6659" lon="3.8929">
        <ele>94</ele>
        <time>2021-03-21T10:53:45Z</time>
      </trkpt>
      <trkpt lat="43.66591" lon="3.89287">
        <ele>94</ele>
        <time>2021-03-21T10:53:46Z</time>
      </trkpt>
      <trkpt lat="43.66592" lon="3.89284">
        <ele>94</ele>
        <time>2021-03-21T10:53:47Z</time>
      </trkpt>
      <trkpt lat="43.66593" lon="3.89281">
        <ele>94</ele>
        <time>2021-03-21T10:53:48Z</time>
      </trkpt>
      <trkpt lat="43.66594" lon="3.89277">
        <ele>94</ele>
        <time>2021-03-21T10:53:49Z</time>
      </trkpt>
      <trkpt lat="43.66595" lon="3.89274">
        <ele>94</ele>
        <time>2021-03-21T10:53:50Z</time>
      </trkpt>
      <trkpt lat="43.66596" lon="3.8927">
        <ele>94</ele>
        <time>2021-03-21T10:53:51Z</time>
      </trkpt>
      <trkpt lat="43.66596" lon="3.89266">
        <ele>94</ele>
        <time>2021-03-21T10:53:52Z</time>
      </trkpt>
      <trkpt lat="43.66597" lon="3.89263">
        <ele>94</ele>
        <time>2021-03-21T10:53:53Z</time>
      </trkpt>
      <trkpt lat="43.66597" lon="3.8926">
        <ele>94</ele>
        <time>2021-03-21T10:53:54Z</time>
      </trkpt>
      <trkpt lat="43.66598" lon="3.89257">
        <ele>95</ele>
        <time>2021-03-21T10:53:55Z</time>
      </trkpt>
      <trkpt lat="43.66599" lon="3.89254">
        <ele>95</ele>
        <time>2021-03-21T10:53:56Z</time>
      </trkpt>
      <trkpt lat="43.666" lon="3.89251">
        <ele>95</ele>
        <time>2021-03-21T10:53:57Z</time>
      </trkpt>
      <trkpt lat="43.66601" lon="3.89248">
        <ele>95</ele>
        <time>2021-03-21T10:53:58Z</time>
      </trkpt>
      <trkpt lat="43.66602" lon="3.89245">
        <ele>95</ele>
        <time>2021-03-21T10:53:59Z</time>
      </trkpt>
      <trkpt lat="43.66603" lon="3.89242">
        <ele>95</ele>
        <time>2021-03-21T10:54:00Z</time>
      </trkpt>
      <trkpt lat="43.66604" lon="3.89239">
        <ele>95</ele>
        <time>2021-03-21T10:54:01Z</time>
      </trkpt>
      <trkpt lat="43.66604" lon="3.89236">
        <ele>95</ele>
        <time>2021-03-21T10:54:02Z</time>
      </trkpt>
      <trkpt lat="43.66604" lon="3.89232">
        <ele>95</ele>
        <time>2021-03-21T10:54:03Z</time>
      </trkpt>
      <trkpt lat="43.66604" lon="3.89229">
        <ele>95</ele>
        <time>2021-03-21T10:54:04Z</time>
      </trkpt>
      <trkpt lat="43.66605" lon="3.89226">
        <ele>96</ele>
        <time>2021-03-21T10:54:05Z</time>
      </trkpt>
      <trkpt lat="43.66604" lon="3.89224">
        <ele>96</ele>
        <time>2021-03-21T10:54:06Z</time>
      </trkpt>
      <trkpt lat="43.66605" lon="3.89221">
        <ele>96</ele>
        <time>2021-03-21T10:54:07Z</time>
      </trkpt>
      <trkpt lat="43.66605" lon="3.89219">
        <ele>96</ele>
        <time>2021-03-21T10:54:08Z</time>
      </trkpt>
      <trkpt lat="43.66606" lon="3.89214">
        <ele>96</ele>
        <time>2021-03-21T10:54:10Z</time>
      </trkpt>
      <trkpt lat="43.66609" lon="3.89211">
        <ele>96</ele>
        <time>2021-03-21T10:54:12Z</time>
      </trkpt>
      <trkpt lat="43.66611" lon="3.89207">
        <ele>96</ele>
        <time>2021-03-21T10:54:14Z</time>
      </trkpt>
      <trkpt lat="43.66613" lon="3.89204">
        <ele>96</ele>
        <time>2021-03-21T10:54:16Z</time>
      </trkpt>
      <trkpt lat="43.66615" lon="3.89201">
        <ele>96</ele>
        <time>2021-03-21T10:54:18Z</time>
      </trkpt>
      <trkpt lat="43.66617" lon="3.89198">
        <ele>96</ele>
        <time>2021-03-21T10:54:20Z</time>
      </trkpt>
      <trkpt lat="43.66618" lon="3.89195">
        <ele>96</ele>
        <time>2021-03-21T10:54:22Z</time>
      </trkpt>
      <trkpt lat="43.6662" lon="3.89191">
        <ele>96</ele>
        <time>2021-03-21T10:54:24Z</time>
      </trkpt>
      <trkpt lat="43.66622" lon="3.89187">
        <ele>96</ele>
        <time>2021-03-21T10:54:26Z</time>
      </trkpt>
      <trkpt lat="43.66623" lon="3.89185">
        <ele>96</ele>
        <time>2021-03-21T10:54:27Z</time>
      </trkpt>
      <trkpt lat="43.66624" lon="3.89183">
        <ele>96</ele>
        <time>2021-03-21T10:54:28Z</time>
      </trkpt>
      <trkpt lat="43.66625" lon="3.89178">
        <ele>96</ele>
        <time>2021-03-21T10:54:30Z</time>
      </trkpt>
      <trkpt lat="43.66626" lon="3.89175">
        <ele>96</ele>
        <time>2021-03-21T10:54:31Z</time>
      </trkpt>
      <trkpt lat="43.66627" lon="3.89173">
        <ele>96</ele>
        <time>2021-03-21T10:54:32Z</time>
      </trkpt>
      <trkpt lat="43.66628" lon="3.8917">
        <ele>96</ele>
        <time>2021-03-21T10:54:33Z</time>
      </trkpt>
      <trkpt lat="43.66628" lon="3.89167">
        <ele>96</ele>
        <time>2021-03-21T10:54:34Z</time>
      </trkpt>
      <trkpt lat="43.66629" lon="3.89164">
        <ele>100</ele>
        <time>2021-03-21T10:54:35Z</time>
      </trkpt>
      <trkpt lat="43.6663" lon="3.89161">
        <ele>100</ele>
        <time>2021-03-21T10:54:36Z</time>
      </trkpt>
      <trkpt lat="43.6663" lon="3.89158">
        <ele>100</ele>
        <time>2021-03-21T10:54:37Z</time>
      </trkpt>
      <trkpt lat="43.66631" lon="3.89155">
        <ele>100</ele>
        <time>2021-03-21T10:54:38Z</time>
      </trkpt>
      <trkpt lat="43.66631" lon="3.89152">
        <ele>100</ele>
        <time>2021-03-21T10:54:39Z</time>
      </trkpt>
      <trkpt lat="43.66632" lon="3.89149">
        <ele>100</ele>
        <time>2021-03-21T10:54:40Z</time>
      </trkpt>
      <trkpt lat="43.66633" lon="3.89146">
        <ele>100</ele>
        <time>2021-03-21T10:54:41Z</time>
      </trkpt>
      <trkpt lat="43.66633" lon="3.89142">
        <ele>100</ele>
        <time>2021-03-21T10:54:42Z</time>
      </trkpt>
      <trkpt lat="43.66634" lon="3.89139">
        <ele>100</ele>
        <time>2021-03-21T10:54:43Z</time>
      </trkpt>
      <trkpt lat="43.66634" lon="3.89136">
        <ele>100</ele>
        <time>2021-03-21T10:54:44Z</time>
      </trkpt>
      <trkpt lat="43.66635" lon="3.89132">
        <ele>101</ele>
        <time>2021-03-21T10:54:45Z</time>
      </trkpt>
      <trkpt lat="43.66635" lon="3.89128">
        <ele>101</ele>
        <time>2021-03-21T10:54:46Z</time>
      </trkpt>
      <trkpt lat="43.66636" lon="3.89125">
        <ele>101</ele>
        <time>2021-03-21T10:54:47Z</time>
      </trkpt>
      <trkpt lat="43.66636" lon="3.89121">
        <ele>101</ele>
        <time>2021-03-21T10:54:48Z</time>
      </trkpt>
      <trkpt lat="43.66637" lon="3.89118">
        <ele>101</ele>
        <time>2021-03-21T10:54:49Z</time>
      </trkpt>
      <trkpt lat="43.66638" lon="3.89114">
        <ele>101</ele>
        <time>2021-03-21T10:54:50Z</time>
      </trkpt>
      <trkpt lat="43.66638" lon="3.8911">
        <ele>101</ele>
        <time>2021-03-21T10:54:51Z</time>
      </trkpt>
      <trkpt lat="43.66639" lon="3.89107">
        <ele>101</ele>
        <time>2021-03-21T10:54:52Z</time>
      </trkpt>
      <trkpt lat="43.6664" lon="3.89103">
        <ele>101</ele>
        <time>2021-03-21T10:54:53Z</time>
      </trkpt>
      <trkpt lat="43.6664" lon="3.891">
        <ele>101</ele>
        <time>2021-03-21T10:54:54Z</time>
      </trkpt>
      <trkpt lat="43.66641" lon="3.89097">
        <ele>101</ele>
        <time>2021-03-21T10:54:55Z</time>
      </trkpt>
      <trkpt lat="43.66642" lon="3.89095">
        <ele>101</ele>
        <time>2021-03-21T10:54:56Z</time>
      </trkpt>
      <trkpt lat="43.66643" lon="3.89092">
        <ele>101</ele>
        <time>2021-03-21T10:54:57Z</time>
      </trkpt>
      <trkpt lat="43.66643" lon="3.8909">
        <ele>101</ele>
        <time>2021-03-21T10:54:58Z</time>
      </trkpt>
      <trkpt lat="43.66644" lon="3.89087">
        <ele>101</ele>
        <time>2021-03-21T10:54:59Z</time>
      </trkpt>
      <trkpt lat="43.66644" lon="3.89084">
        <ele>101</ele>
        <time>2021-03-21T10:55:00Z</time>
      </trkpt>
      <trkpt lat="43.66644" lon="3.89081">
        <ele>101</ele>
        <time>2021-03-21T10:55:01Z</time>
      </trkpt>
      <trkpt lat="43.66644" lon="3.89079">
        <ele>101</ele>
        <time>2021-03-21T10:55:02Z</time>
      </trkpt>
      <trkpt lat="43.66644" lon="3.89076">
        <ele>101</ele>
        <time>2021-03-21T10:55:03Z</time>
      </trkpt>
      <trkpt lat="43.66645" lon="3.89074">
        <ele>101</ele>
        <time>2021-03-21T10:55:04Z</time>
      </trkpt>
      <trkpt lat="43.66645" lon="3.89071">
        <ele>101</ele>
        <time>2021-03-21T10:55:05Z</time>
      </trkpt>
      <trkpt lat="43.66646" lon="3.89069">
        <ele>101</ele>
        <time>2021-03-21T10:55:06Z</time>
      </trkpt>
      <trkpt lat="43.66647" lon="3.89066">
        <ele>101</ele>
        <time>2021-03-21T10:55:07Z</time>
      </trkpt>
      <trkpt lat="43.66648" lon="3.89064">
        <ele>101</ele>
        <time>2021-03-21T10:55:08Z</time>
      </trkpt>
      <trkpt lat="43.66649" lon="3.89061">
        <ele>101</ele>
        <time>2021-03-21T10:55:09Z</time>
      </trkpt>
      <trkpt lat="43.66651" lon="3.89059">
        <ele>101</ele>
        <time>2021-03-21T10:55:10Z</time>
      </trkpt>
      <trkpt lat="43.66652" lon="3.89056">
        <ele>101</ele>
        <time>2021-03-21T10:55:11Z</time>
      </trkpt>
      <trkpt lat="43.66653" lon="3.89053">
        <ele>101</ele>
        <time>2021-03-21T10:55:12Z</time>
      </trkpt>
      <trkpt lat="43.66655" lon="3.8905">
        <ele>101</ele>
        <time>2021-03-21T10:55:13Z</time>
      </trkpt>
      <trkpt lat="43.66656" lon="3.89047">
        <ele>101</ele>
        <time>2021-03-21T10:55:14Z</time>
      </trkpt>
      <trkpt lat="43.66656" lon="3.89044">
        <ele>101</ele>
        <time>2021-03-21T10:55:15Z</time>
      </trkpt>
      <trkpt lat="43.66657" lon="3.8904">
        <ele>101</ele>
        <time>2021-03-21T10:55:16Z</time>
      </trkpt>
      <trkpt lat="43.66658" lon="3.89037">
        <ele>101</ele>
        <time>2021-03-21T10:55:17Z</time>
      </trkpt>
      <trkpt lat="43.66658" lon="3.89034">
        <ele>101</ele>
        <time>2021-03-21T10:55:18Z</time>
      </trkpt>
      <trkpt lat="43.66659" lon="3.89031">
        <ele>101</ele>
        <time>2021-03-21T10:55:19Z</time>
      </trkpt>
      <trkpt lat="43.6666" lon="3.89028">
        <ele>101</ele>
        <time>2021-03-21T10:55:20Z</time>
      </trkpt>
      <trkpt lat="43.66661" lon="3.89025">
        <ele>101</ele>
        <time>2021-03-21T10:55:21Z</time>
      </trkpt>
      <trkpt lat="43.66662" lon="3.89023">
        <ele>101</ele>
        <time>2021-03-21T10:55:22Z</time>
      </trkpt>
      <trkpt lat="43.66662" lon="3.8902">
        <ele>101</ele>
        <time>2021-03-21T10:55:23Z</time>
      </trkpt>
      <trkpt lat="43.66663" lon="3.89017">
        <ele>101</ele>
        <time>2021-03-21T10:55:24Z</time>
      </trkpt>
      <trkpt lat="43.66664" lon="3.89014">
        <ele>103</ele>
        <time>2021-03-21T10:55:25Z</time>
      </trkpt>
      <trkpt lat="43.66665" lon="3.89012">
        <ele>103</ele>
        <time>2021-03-21T10:55:26Z</time>
      </trkpt>
      <trkpt lat="43.66666" lon="3.89009">
        <ele>103</ele>
        <time>2021-03-21T10:55:27Z</time>
      </trkpt>
      <trkpt lat="43.66667" lon="3.89007">
        <ele>103</ele>
        <time>2021-03-21T10:55:28Z</time>
      </trkpt>
      <trkpt lat="43.66668" lon="3.89004">
        <ele>103</ele>
        <time>2021-03-21T10:55:29Z</time>
      </trkpt>
      <trkpt lat="43.66669" lon="3.89001">
        <ele>103</ele>
        <time>2021-03-21T10:55:30Z</time>
      </trkpt>
      <trkpt lat="43.66671" lon="3.88999">
        <ele>103</ele>
        <time>2021-03-21T10:55:31Z</time>
      </trkpt>
      <trkpt lat="43.66672" lon="3.88996">
        <ele>103</ele>
        <time>2021-03-21T10:55:32Z</time>
      </trkpt>
      <trkpt lat="43.66674" lon="3.88993">
        <ele>103</ele>
        <time>2021-03-21T10:55:33Z</time>
      </trkpt>
      <trkpt lat="43.66675" lon="3.8899">
        <ele>103</ele>
        <time>2021-03-21T10:55:34Z</time>
      </trkpt>
      <trkpt lat="43.66677" lon="3.88988">
        <ele>103</ele>
        <time>2021-03-21T10:55:35Z</time>
      </trkpt>
      <trkpt lat="43.66679" lon="3.88985">
        <ele>103</ele>
        <time>2021-03-21T10:55:36Z</time>
      </trkpt>
      <trkpt lat="43.6668" lon="3.88982">
        <ele>103</ele>
        <time>2021-03-21T10:55:37Z</time>
      </trkpt>
      <trkpt lat="43.66681" lon="3.8898">
        <ele>103</ele>
        <time>2021-03-21T10:55:38Z</time>
      </trkpt>
      <trkpt lat="43.66682" lon="3.88977">
        <ele>103</ele>
        <time>2021-03-21T10:55:39Z</time>
      </trkpt>
      <trkpt lat="43.66683" lon="3.88975">
        <ele>103</ele>
        <time>2021-03-21T10:55:40Z</time>
      </trkpt>
      <trkpt lat="43.66685" lon="3.8897">
        <ele>103</ele>
        <time>2021-03-21T10:55:42Z</time>
      </trkpt>
      <trkpt lat="43.66686" lon="3.88968">
        <ele>103</ele>
        <time>2021-03-21T10:55:43Z</time>
      </trkpt>
      <trkpt lat="43.66688" lon="3.88965">
        <ele>103</ele>
        <time>2021-03-21T10:55:44Z</time>
      </trkpt>
      <trkpt lat="43.66689" lon="3.88963">
        <ele>105</ele>
        <time>2021-03-21T10:55:45Z</time>
      </trkpt>
      <trkpt lat="43.66691" lon="3.88961">
        <ele>105</ele>
        <time>2021-03-21T10:55:46Z</time>
      </trkpt>
      <trkpt lat="43.66692" lon="3.88959">
        <ele>105</ele>
        <time>2021-03-21T10:55:47Z</time>
      </trkpt>
      <trkpt lat="43.66693" lon="3.88957">
        <ele>105</ele>
        <time>2021-03-21T10:55:48Z</time>
      </trkpt>
      <trkpt lat="43.66694" lon="3.88955">
        <ele>105</ele>
        <time>2021-03-21T10:55:49Z</time>
      </trkpt>
      <trkpt lat="43.66696" lon="3.88952">
        <ele>105</ele>
        <time>2021-03-21T10:55:50Z</time>
      </trkpt>
      <trkpt lat="43.66698" lon="3.8895">
        <ele>105</ele>
        <time>2021-03-21T10:55:51Z</time>
      </trkpt>
      <trkpt lat="43.66699" lon="3.88949">
        <ele>105</ele>
        <time>2021-03-21T10:55:52Z</time>
      </trkpt>
      <trkpt lat="43.66702" lon="3.88946">
        <ele>106</ele>
        <time>2021-03-21T10:55:54Z</time>
      </trkpt>
      <trkpt lat="43.66705" lon="3.88946">
        <ele>106</ele>
        <time>2021-03-21T10:55:56Z</time>
      </trkpt>
      <trkpt lat="43.66707" lon="3.88945">
        <ele>106</ele>
        <time>2021-03-21T10:55:58Z</time>
      </trkpt>
      <trkpt lat="43.6671" lon="3.88943">
        <ele>106</ele>
        <time>2021-03-21T10:56:00Z</time>
      </trkpt>
      <trkpt lat="43.66712" lon="3.88942">
        <ele>106</ele>
        <time>2021-03-21T10:56:02Z</time>
      </trkpt>
      <trkpt lat="43.66715" lon="3.88941">
        <ele>106</ele>
        <time>2021-03-21T10:56:04Z</time>
      </trkpt>
      <trkpt lat="43.66718" lon="3.88941">
        <ele>106</ele>
        <time>2021-03-21T10:56:06Z</time>
      </trkpt>
      <trkpt lat="43.6672" lon="3.8894">
        <ele>106</ele>
        <time>2021-03-21T10:56:08Z</time>
      </trkpt>
      <trkpt lat="43.66722" lon="3.88937">
        <ele>106</ele>
        <time>2021-03-21T10:56:10Z</time>
      </trkpt>
      <trkpt lat="43.66723" lon="3.88934">
        <ele>106</ele>
        <time>2021-03-21T10:56:11Z</time>
      </trkpt>
      <trkpt lat="43.66724" lon="3.88932">
        <ele>106</ele>
        <time>2021-03-21T10:56:12Z</time>
      </trkpt>
      <trkpt lat="43.66725" lon="3.88927">
        <ele>106</ele>
        <time>2021-03-21T10:56:14Z</time>
      </trkpt>
      <trkpt lat="43.66725" lon="3.88925">
        <ele>108</ele>
        <time>2021-03-21T10:56:15Z</time>
      </trkpt>
      <trkpt lat="43.66727" lon="3.8892">
        <ele>108</ele>
        <time>2021-03-21T10:56:17Z</time>
      </trkpt>
      <trkpt lat="43.66728" lon="3.88918">
        <ele>108</ele>
        <time>2021-03-21T10:56:18Z</time>
      </trkpt>
      <trkpt lat="43.66729" lon="3.88915">
        <ele>108</ele>
        <time>2021-03-21T10:56:19Z</time>
      </trkpt>
      <trkpt lat="43.6673" lon="3.88913">
        <ele>108</ele>
        <time>2021-03-21T10:56:20Z</time>
      </trkpt>
      <trkpt lat="43.66731" lon="3.8891">
        <ele>108</ele>
        <time>2021-03-21T10:56:21Z</time>
      </trkpt>
      <trkpt lat="43.66733" lon="3.88907">
        <ele>108</ele>
        <time>2021-03-21T10:56:22Z</time>
      </trkpt>
      <trkpt lat="43.66734" lon="3.88904">
        <ele>108</ele>
        <time>2021-03-21T10:56:23Z</time>
      </trkpt>
      <trkpt lat="43.66735" lon="3.88901">
        <ele>110</ele>
        <time>2021-03-21T10:56:24Z</time>
      </trkpt>
      <trkpt lat="43.66737" lon="3.88898">
        <ele>110</ele>
        <time>2021-03-21T10:56:25Z</time>
      </trkpt>
      <trkpt lat="43.66738" lon="3.88895">
        <ele>110</ele>
        <time>2021-03-21T10:56:26Z</time>
      </trkpt>
      <trkpt lat="43.6674" lon="3.88892">
        <ele>110</ele>
        <time>2021-03-21T10:56:27Z</time>
      </trkpt>
      <trkpt lat="43.66742" lon="3.8889">
        <ele>110</ele>
        <time>2021-03-21T10:56:28Z</time>
      </trkpt>
      <trkpt lat="43.66743" lon="3.88887">
        <ele>110</ele>
        <time>2021-03-21T10:56:29Z</time>
      </trkpt>
      <trkpt lat="43.66745" lon="3.88884">
        <ele>110</ele>
        <time>2021-03-21T10:56:30Z</time>
      </trkpt>
      <trkpt lat="43.66747" lon="3.88881">
        <ele>110</ele>
        <time>2021-03-21T10:56:31Z</time>
      </trkpt>
      <trkpt lat="43.66748" lon="3.88878">
        <ele>110</ele>
        <time>2021-03-21T10:56:32Z</time>
      </trkpt>
      <trkpt lat="43.6675" lon="3.88876">
        <ele>110</ele>
        <time>2021-03-21T10:56:33Z</time>
      </trkpt>
      <trkpt lat="43.66751" lon="3.88873">
        <ele>110</ele>
        <time>2021-03-21T10:56:34Z</time>
      </trkpt>
      <trkpt lat="43.66753" lon="3.8887">
        <ele>111</ele>
        <time>2021-03-21T10:56:35Z</time>
      </trkpt>
      <trkpt lat="43.66755" lon="3.88867">
        <ele>111</ele>
        <time>2021-03-21T10:56:36Z</time>
      </trkpt>
      <trkpt lat="43.66757" lon="3.88864">
        <ele>111</ele>
        <time>2021-03-21T10:56:37Z</time>
      </trkpt>
      <trkpt lat="43.66758" lon="3.88862">
        <ele>111</ele>
        <time>2021-03-21T10:56:38Z</time>
      </trkpt>
      <trkpt lat="43.6676" lon="3.88859">
        <ele>111</ele>
        <time>2021-03-21T10:56:39Z</time>
      </trkpt>
      <trkpt lat="43.66762" lon="3.88857">
        <ele>111</ele>
        <time>2021-03-21T10:56:40Z</time>
      </trkpt>
      <trkpt lat="43.66763" lon="3.88854">
        <ele>111</ele>
        <time>2021-03-21T10:56:41Z</time>
      </trkpt>
      <trkpt lat="43.66764" lon="3.88851">
        <ele>111</ele>
        <time>2021-03-21T10:56:42Z</time>
      </trkpt>
      <trkpt lat="43.66766" lon="3.88848">
        <ele>111</ele>
        <time>2021-03-21T10:56:43Z</time>
      </trkpt>
      <trkpt lat="43.66767" lon="3.88845">
        <ele>111</ele>
        <time>2021-03-21T10:56:44Z</time>
      </trkpt>
      <trkpt lat="43.66768" lon="3.88842">
        <ele>113</ele>
        <time>2021-03-21T10:56:45Z</time>
      </trkpt>
      <trkpt lat="43.66769" lon="3.88838">
        <ele>113</ele>
        <time>2021-03-21T10:56:46Z</time>
      </trkpt>
      <trkpt lat="43.6677" lon="3.88835">
        <ele>113</ele>
        <time>2021-03-21T10:56:47Z</time>
      </trkpt>
      <trkpt lat="43.66772" lon="3.88831">
        <ele>113</ele>
        <time>2021-03-21T10:56:48Z</time>
      </trkpt>
      <trkpt lat="43.66773" lon="3.88828">
        <ele>113</ele>
        <time>2021-03-21T10:56:49Z</time>
      </trkpt>
      <trkpt lat="43.66775" lon="3.88825">
        <ele>113</ele>
        <time>2021-03-21T10:56:50Z</time>
      </trkpt>
      <trkpt lat="43.66777" lon="3.88821">
        <ele>113</ele>
        <time>2021-03-21T10:56:51Z</time>
      </trkpt>
      <trkpt lat="43.66779" lon="3.88817">
        <ele>113</ele>
        <time>2021-03-21T10:56:52Z</time>
      </trkpt>
      <trkpt lat="43.66781" lon="3.88813">
        <ele>113</ele>
        <time>2021-03-21T10:56:53Z</time>
      </trkpt>
      <trkpt lat="43.66783" lon="3.88809">
        <ele>113</ele>
        <time>2021-03-21T10:56:54Z</time>
      </trkpt>
      <trkpt lat="43.66785" lon="3.88805">
        <ele>113</ele>
        <time>2021-03-21T10:56:55Z</time>
      </trkpt>
      <trkpt lat="43.66785" lon="3.88802">
        <ele>113</ele>
        <time>2021-03-21T10:56:56Z</time>
      </trkpt>
      <trkpt lat="43.66786" lon="3.88798">
        <ele>113</ele>
        <time>2021-03-21T10:56:57Z</time>
      </trkpt>
      <trkpt lat="43.66787" lon="3.88795">
        <ele>113</ele>
        <time>2021-03-21T10:56:58Z</time>
      </trkpt>
      <trkpt lat="43.66789" lon="3.88792">
        <ele>113</ele>
        <time>2021-03-21T10:56:59Z</time>
      </trkpt>
      <trkpt lat="43.66789" lon="3.88789">
        <ele>113</ele>
        <time>2021-03-21T10:57:00Z</time>
      </trkpt>
      <trkpt lat="43.6679" lon="3.88785">
        <ele>113</ele>
        <time>2021-03-21T10:57:01Z</time>
      </trkpt>
      <trkpt lat="43.66791" lon="3.88782">
        <ele>113</ele>
        <time>2021-03-21T10:57:02Z</time>
      </trkpt>
      <trkpt lat="43.66792" lon="3.88779">
        <ele>113</ele>
        <time>2021-03-21T10:57:03Z</time>
      </trkpt>
      <trkpt lat="43.66794" lon="3.88775">
        <ele>113</ele>
        <time>2021-03-21T10:57:04Z</time>
      </trkpt>
      <trkpt lat="43.66795" lon="3.88772">
        <ele>113</ele>
        <time>2021-03-21T10:57:05Z</time>
      </trkpt>
      <trkpt lat="43.66796" lon="3.88769">
        <ele>113</ele>
        <time>2021-03-21T10:57:06Z</time>
      </trkpt>
      <trkpt lat="43.66797" lon="3.88766">
        <ele>113</ele>
        <time>2021-03-21T10:57:07Z</time>
      </trkpt>
      <trkpt lat="43.66798" lon="3.88764">
        <ele>113</ele>
        <time>2021-03-21T10:57:08Z</time>
      </trkpt>
      <trkpt lat="43.66799" lon="3.88761">
        <ele>113</ele>
        <time>2021-03-21T10:57:09Z</time>
      </trkpt>
      <trkpt lat="43.668" lon="3.88759">
        <ele>113</ele>
        <time>2021-03-21T10:57:10Z</time>
      </trkpt>
      <trkpt lat="43.66801" lon="3.88756">
        <ele>113</ele>
        <time>2021-03-21T10:57:11Z</time>
      </trkpt>
      <trkpt lat="43.66802" lon="3.88752">
        <ele>113</ele>
        <time>2021-03-21T10:57:13Z</time>
      </trkpt>
      <trkpt lat="43.66803" lon="3.8875">
        <ele>113</ele>
        <time>2021-03-21T10:57:18Z</time>
      </trkpt>
      <trkpt lat="43.66804" lon="3.88747">
        <ele>117</ele>
        <time>2021-03-21T10:57:25Z</time>
      </trkpt>
      <trkpt lat="43.66805" lon="3.88744">
        <ele>117</ele>
        <time>2021-03-21T10:57:31Z</time>
      </trkpt>
      <trkpt lat="43.66805" lon="3.88743">
        <ele>119</ele>
        <time>2021-03-21T10:57:37Z</time>
      </trkpt>
      <trkpt lat="43.66801" lon="3.88756">
        <ele>119</ele>
        <time>2021-03-21T10:57:51Z</time>
      </trkpt>
      <trkpt lat="43.668" lon="3.8876">
        <ele>119</ele>
        <time>2021-03-21T10:57:52Z</time>
      </trkpt>
      <trkpt lat="43.66799" lon="3.88763">
        <ele>119</ele>
        <time>2021-03-21T10:57:53Z</time>
      </trkpt>
      <trkpt lat="43.66798" lon="3.88767">
        <ele>119</ele>
        <time>2021-03-21T10:57:54Z</time>
      </trkpt>
      <trkpt lat="43.66797" lon="3.88772">
        <ele>119</ele>
        <time>2021-03-21T10:57:55Z</time>
      </trkpt>
      <trkpt lat="43.66796" lon="3.88776">
        <ele>119</ele>
        <time>2021-03-21T10:57:56Z</time>
      </trkpt>
      <trkpt lat="43.66795" lon="3.8878">
        <ele>119</ele>
        <time>2021-03-21T10:57:57Z</time>
      </trkpt>
      <trkpt lat="43.66793" lon="3.88784">
        <ele>119</ele>
        <time>2021-03-21T10:57:58Z</time>
      </trkpt>
      <trkpt lat="43.66792" lon="3.88787">
        <ele>119</ele>
        <time>2021-03-21T10:57:59Z</time>
      </trkpt>
      <trkpt lat="43.66791" lon="3.88791">
        <ele>117</ele>
        <time>2021-03-21T10:58:00Z</time>
      </trkpt>
      <trkpt lat="43.66789" lon="3.88794">
        <ele>117</ele>
        <time>2021-03-21T10:58:01Z</time>
      </trkpt>
      <trkpt lat="43.66788" lon="3.88798">
        <ele>117</ele>
        <time>2021-03-21T10:58:02Z</time>
      </trkpt>
      <trkpt lat="43.66787" lon="3.88802">
        <ele>117</ele>
        <time>2021-03-21T10:58:03Z</time>
      </trkpt>
      <trkpt lat="43.66785" lon="3.88805">
        <ele>117</ele>
        <time>2021-03-21T10:58:04Z</time>
      </trkpt>
      <trkpt lat="43.66784" lon="3.88808">
        <ele>117</ele>
        <time>2021-03-21T10:58:05Z</time>
      </trkpt>
      <trkpt lat="43.66783" lon="3.88811">
        <ele>117</ele>
        <time>2021-03-21T10:58:06Z</time>
      </trkpt>
      <trkpt lat="43.66782" lon="3.88814">
        <ele>117</ele>
        <time>2021-03-21T10:58:07Z</time>
      </trkpt>
      <trkpt lat="43.66782" lon="3.88817">
        <ele>117</ele>
        <time>2021-03-21T10:58:08Z</time>
      </trkpt>
      <trkpt lat="43.66781" lon="3.8882">
        <ele>117</ele>
        <time>2021-03-21T10:58:09Z</time>
      </trkpt>
      <trkpt lat="43.6678" lon="3.88823">
        <ele>116</ele>
        <time>2021-03-21T10:58:10Z</time>
      </trkpt>
      <trkpt lat="43.66779" lon="3.88825">
        <ele>116</ele>
        <time>2021-03-21T10:58:11Z</time>
      </trkpt>
      <trkpt lat="43.66777" lon="3.88828">
        <ele>116</ele>
        <time>2021-03-21T10:58:12Z</time>
      </trkpt>
      <trkpt lat="43.66775" lon="3.88832">
        <ele>116</ele>
        <time>2021-03-21T10:58:13Z</time>
      </trkpt>
      <trkpt lat="43.66773" lon="3.88835">
        <ele>116</ele>
        <time>2021-03-21T10:58:14Z</time>
      </trkpt>
      <trkpt lat="43.66771" lon="3.88838">
        <ele>116</ele>
        <time>2021-03-21T10:58:15Z</time>
      </trkpt>
      <trkpt lat="43.66769" lon="3.88841">
        <ele>116</ele>
        <time>2021-03-21T10:58:16Z</time>
      </trkpt>
      <trkpt lat="43.66768" lon="3.88844">
        <ele>116</ele>
        <time>2021-03-21T10:58:17Z</time>
      </trkpt>
      <trkpt lat="43.66766" lon="3.88847">
        <ele>116</ele>
        <time>2021-03-21T10:58:18Z</time>
      </trkpt>
      <trkpt lat="43.66764" lon="3.8885">
        <ele>116</ele>
        <time>2021-03-21T10:58:19Z</time>
      </trkpt>
      <trkpt lat="43.66762" lon="3.88853">
        <ele>114</ele>
        <time>2021-03-21T10:58:20Z</time>
      </trkpt>
      <trkpt lat="43.66761" lon="3.88856">
        <ele>114</ele>
        <time>2021-03-21T10:58:21Z</time>
      </trkpt>
      <trkpt lat="43.6676" lon="3.88858">
        <ele>114</ele>
        <time>2021-03-21T10:58:22Z</time>
      </trkpt>
      <trkpt lat="43.66759" lon="3.88861">
        <ele>114</ele>
        <time>2021-03-21T10:58:25Z</time>
      </trkpt>
      <trkpt lat="43.66762" lon="3.8886">
        <ele>114</ele>
        <time>2021-03-21T10:58:28Z</time>
      </trkpt>
      <trkpt lat="43.66765" lon="3.8886">
        <ele>115</ele>
        <time>2021-03-21T10:58:30Z</time>
      </trkpt>
      <trkpt lat="43.66766" lon="3.88861">
        <ele>115</ele>
        <time>2021-03-21T10:58:32Z</time>
      </trkpt>
      <trkpt lat="43.66769" lon="3.88862">
        <ele>115</ele>
        <time>2021-03-21T10:58:34Z</time>
      </trkpt>
      <trkpt lat="43.66771" lon="3.88863">
        <ele>115</ele>
        <time>2021-03-21T10:58:35Z</time>
      </trkpt>
      <trkpt lat="43.66773" lon="3.88866">
        <ele>115</ele>
        <time>2021-03-21T10:58:37Z</time>
      </trkpt>
      <trkpt lat="43.66775" lon="3.88868">
        <ele>115</ele>
        <time>2021-03-21T10:58:39Z</time>
      </trkpt>
      <trkpt lat="43.66778" lon="3.8887">
        <ele>115</ele>
        <time>2021-03-21T10:58:41Z</time>
      </trkpt>
      <trkpt lat="43.6678" lon="3.88873">
        <ele>115</ele>
        <time>2021-03-21T10:58:43Z</time>
      </trkpt>
      <trkpt lat="43.66782" lon="3.88874">
        <ele>115</ele>
        <time>2021-03-21T10:58:45Z</time>
      </trkpt>
      <trkpt lat="43.66785" lon="3.88875">
        <ele>115</ele>
        <time>2021-03-21T10:58:47Z</time>
      </trkpt>
      <trkpt lat="43.66787" lon="3.88877">
        <ele>115</ele>
        <time>2021-03-21T10:58:49Z</time>
      </trkpt>
      <trkpt lat="43.66789" lon="3.88876">
        <ele>115</ele>
        <time>2021-03-21T10:58:51Z</time>
      </trkpt>
      <trkpt lat="43.6679" lon="3.88874">
        <ele>115</ele>
        <time>2021-03-21T10:58:53Z</time>
      </trkpt>
      <trkpt lat="43.66792" lon="3.88872">
        <ele>115</ele>
        <time>2021-03-21T10:58:55Z</time>
      </trkpt>
      <trkpt lat="43.66793" lon="3.88869">
        <ele>115</ele>
        <time>2021-03-21T10:58:57Z</time>
      </trkpt>
      <trkpt lat="43.66795" lon="3.88866">
        <ele>115</ele>
        <time>2021-03-21T10:58:59Z</time>
      </trkpt>
      <trkpt lat="43.66798" lon="3.88863">
        <ele>115</ele>
        <time>2021-03-21T10:59:01Z</time>
      </trkpt>
      <trkpt lat="43.66799" lon="3.88862">
        <ele>115</ele>
        <time>2021-03-21T10:59:02Z</time>
      </trkpt>
      <trkpt lat="43.66802" lon="3.88859">
        <ele>115</ele>
        <time>2021-03-21T10:59:04Z</time>
      </trkpt>
      <trkpt lat="43.66804" lon="3.88856">
        <ele>115</ele>
        <time>2021-03-21T10:59:06Z</time>
      </trkpt>
      <trkpt lat="43.66806" lon="3.88854">
        <ele>115</ele>
        <time>2021-03-21T10:59:07Z</time>
      </trkpt>
      <trkpt lat="43.66807" lon="3.88853">
        <ele>115</ele>
        <time>2021-03-21T10:59:08Z</time>
      </trkpt>
      <trkpt lat="43.66809" lon="3.88852">
        <ele>115</ele>
        <time>2021-03-21T10:59:09Z</time>
      </trkpt>
      <trkpt lat="43.6681" lon="3.8885">
        <ele>117</ele>
        <time>2021-03-21T10:59:10Z</time>
      </trkpt>
      <trkpt lat="43.66812" lon="3.88848">
        <ele>117</ele>
        <time>2021-03-21T10:59:11Z</time>
      </trkpt>
      <trkpt lat="43.66814" lon="3.88846">
        <ele>117</ele>
        <time>2021-03-21T10:59:12Z</time>
      </trkpt>
      <trkpt lat="43.66816" lon="3.88843">
        <ele>117</ele>
        <time>2021-03-21T10:59:13Z</time>
      </trkpt>
      <trkpt lat="43.66819" lon="3.88841">
        <ele>117</ele>
        <time>2021-03-21T10:59:14Z</time>
      </trkpt>
      <trkpt lat="43.66821" lon="3.88841">
        <ele>117</ele>
        <time>2021-03-21T10:59:15Z</time>
      </trkpt>
      <trkpt lat="43.66824" lon="3.88841">
        <ele>117</ele>
        <time>2021-03-21T10:59:16Z</time>
      </trkpt>
      <trkpt lat="43.66826" lon="3.88841">
        <ele>117</ele>
        <time>2021-03-21T10:59:17Z</time>
      </trkpt>
      <trkpt lat="43.66829" lon="3.8884">
        <ele>117</ele>
        <time>2021-03-21T10:59:18Z</time>
      </trkpt>
      <trkpt lat="43.66831" lon="3.88839">
        <ele>117</ele>
        <time>2021-03-21T10:59:19Z</time>
      </trkpt>
      <trkpt lat="43.66834" lon="3.88837">
        <ele>117</ele>
        <time>2021-03-21T10:59:20Z</time>
      </trkpt>
      <trkpt lat="43.66836" lon="3.88834">
        <ele>117</ele>
        <time>2021-03-21T10:59:21Z</time>
      </trkpt>
      <trkpt lat="43.66838" lon="3.8883">
        <ele>117</ele>
        <time>2021-03-21T10:59:22Z</time>
      </trkpt>
      <trkpt lat="43.6684" lon="3.88826">
        <ele>117</ele>
        <time>2021-03-21T10:59:23Z</time>
      </trkpt>
      <trkpt lat="43.66842" lon="3.88822">
        <ele>117</ele>
        <time>2021-03-21T10:59:24Z</time>
      </trkpt>
      <trkpt lat="43.66844" lon="3.88819">
        <ele>117</ele>
        <time>2021-03-21T10:59:25Z</time>
      </trkpt>
      <trkpt lat="43.66846" lon="3.88815">
        <ele>117</ele>
        <time>2021-03-21T10:59:26Z</time>
      </trkpt>
      <trkpt lat="43.66847" lon="3.88812">
        <ele>117</ele>
        <time>2021-03-21T10:59:27Z</time>
      </trkpt>
      <trkpt lat="43.66848" lon="3.88808">
        <ele>117</ele>
        <time>2021-03-21T10:59:28Z</time>
      </trkpt>
      <trkpt lat="43.66849" lon="3.88804">
        <ele>117</ele>
        <time>2021-03-21T10:59:29Z</time>
      </trkpt>
      <trkpt lat="43.6685" lon="3.88799">
        <ele>117</ele>
        <time>2021-03-21T10:59:30Z</time>
      </trkpt>
      <trkpt lat="43.66852" lon="3.88795">
        <ele>117</ele>
        <time>2021-03-21T10:59:31Z</time>
      </trkpt>
      <trkpt lat="43.66853" lon="3.88791">
        <ele>117</ele>
        <time>2021-03-21T10:59:32Z</time>
      </trkpt>
      <trkpt lat="43.66854" lon="3.88788">
        <ele>117</ele>
        <time>2021-03-21T10:59:33Z</time>
      </trkpt>
      <trkpt lat="43.66855" lon="3.88784">
        <ele>117</ele>
        <time>2021-03-21T10:59:34Z</time>
      </trkpt>
      <trkpt lat="43.66857" lon="3.88781">
        <ele>117</ele>
        <time>2021-03-21T10:59:35Z</time>
      </trkpt>
      <trkpt lat="43.66859" lon="3.88779">
        <ele>117</ele>
        <time>2021-03-21T10:59:36Z</time>
      </trkpt>
      <trkpt lat="43.66862" lon="3.88777">
        <ele>117</ele>
        <time>2021-03-21T10:59:37Z</time>
      </trkpt>
      <trkpt lat="43.66864" lon="3.88777">
        <ele>117</ele>
        <time>2021-03-21T10:59:38Z</time>
      </trkpt>
      <trkpt lat="43.66867" lon="3.88775">
        <ele>117</ele>
        <time>2021-03-21T10:59:40Z</time>
      </trkpt>
      <trkpt lat="43.66869" lon="3.88774">
        <ele>117</ele>
        <time>2021-03-21T10:59:41Z</time>
      </trkpt>
      <trkpt lat="43.6687" lon="3.88771">
        <ele>117</ele>
        <time>2021-03-21T10:59:42Z</time>
      </trkpt>
      <trkpt lat="43.66871" lon="3.88768">
        <ele>117</ele>
        <time>2021-03-21T10:59:43Z</time>
      </trkpt>
      <trkpt lat="43.66873" lon="3.88765">
        <ele>117</ele>
        <time>2021-03-21T10:59:44Z</time>
      </trkpt>
      <trkpt lat="43.66874" lon="3.88762">
        <ele>117</ele>
        <time>2021-03-21T10:59:45Z</time>
      </trkpt>
      <trkpt lat="43.66876" lon="3.88758">
        <ele>117</ele>
        <time>2021-03-21T10:59:46Z</time>
      </trkpt>
      <trkpt lat="43.66877" lon="3.88755">
        <ele>117</ele>
        <time>2021-03-21T10:59:47Z</time>
      </trkpt>
      <trkpt lat="43.66878" lon="3.88751">
        <ele>117</ele>
        <time>2021-03-21T10:59:48Z</time>
      </trkpt>
      <trkpt lat="43.6688" lon="3.88747">
        <ele>117</ele>
        <time>2021-03-21T10:59:49Z</time>
      </trkpt>
      <trkpt lat="43.66881" lon="3.88742">
        <ele>120</ele>
        <time>2021-03-21T10:59:50Z</time>
      </trkpt>
      <trkpt lat="43.66882" lon="3.88738">
        <ele>120</ele>
        <time>2021-03-21T10:59:51Z</time>
      </trkpt>
      <trkpt lat="43.66882" lon="3.88733">
        <ele>120</ele>
        <time>2021-03-21T10:59:52Z</time>
      </trkpt>
      <trkpt lat="43.66882" lon="3.88729">
        <ele>120</ele>
        <time>2021-03-21T10:59:53Z</time>
      </trkpt>
      <trkpt lat="43.66882" lon="3.88725">
        <ele>120</ele>
        <time>2021-03-21T10:59:54Z</time>
      </trkpt>
      <trkpt lat="43.66881" lon="3.8872">
        <ele>120</ele>
        <time>2021-03-21T10:59:55Z</time>
      </trkpt>
      <trkpt lat="43.66881" lon="3.88717">
        <ele>120</ele>
        <time>2021-03-21T10:59:56Z</time>
      </trkpt>
      <trkpt lat="43.66879" lon="3.88715">
        <ele>120</ele>
        <time>2021-03-21T10:59:58Z</time>
      </trkpt>
      <trkpt lat="43.66878" lon="3.88712">
        <ele>120</ele>
        <time>2021-03-21T11:00:00Z</time>
      </trkpt>
      <trkpt lat="43.66879" lon="3.88707">
        <ele>120</ele>
        <time>2021-03-21T11:00:02Z</time>
      </trkpt>
      <trkpt lat="43.66879" lon="3.88704">
        <ele>120</ele>
        <time>2021-03-21T11:00:03Z</time>
      </trkpt>
      <trkpt lat="43.66879" lon="3.88701">
        <ele>120</ele>
        <time>2021-03-21T11:00:04Z</time>
      </trkpt>
      <trkpt lat="43.66878" lon="3.88697">
        <ele>120</ele>
        <time>2021-03-21T11:00:05Z</time>
      </trkpt>
      <trkpt lat="43.66877" lon="3.88693">
        <ele>120</ele>
        <time>2021-03-21T11:00:06Z</time>
      </trkpt>
      <trkpt lat="43.66876" lon="3.88687">
        <ele>120</ele>
        <time>2021-03-21T11:00:07Z</time>
      </trkpt>
      <trkpt lat="43.66875" lon="3.88683">
        <ele>120</ele>
        <time>2021-03-21T11:00:08Z</time>
      </trkpt>
      <trkpt lat="43.66873" lon="3.8868">
        <ele>120</ele>
        <time>2021-03-21T11:00:09Z</time>
      </trkpt>
      <trkpt lat="43.66872" lon="3.88677">
        <ele>119</ele>
        <time>2021-03-21T11:00:10Z</time>
      </trkpt>
      <trkpt lat="43.66871" lon="3.88673">
        <ele>119</ele>
        <time>2021-03-21T11:00:11Z</time>
      </trkpt>
      <trkpt lat="43.66871" lon="3.88668">
        <ele>119</ele>
        <time>2021-03-21T11:00:12Z</time>
      </trkpt>
      <trkpt lat="43.6687" lon="3.88661">
        <ele>119</ele>
        <time>2021-03-21T11:00:13Z</time>
      </trkpt>
      <trkpt lat="43.66869" lon="3.88655">
        <ele>119</ele>
        <time>2021-03-21T11:00:14Z</time>
      </trkpt>
      <trkpt lat="43.66867" lon="3.8865">
        <ele>119</ele>
        <time>2021-03-21T11:00:15Z</time>
      </trkpt>
      <trkpt lat="43.66864" lon="3.88645">
        <ele>119</ele>
        <time>2021-03-21T11:00:16Z</time>
      </trkpt>
      <trkpt lat="43.66862" lon="3.88641">
        <ele>119</ele>
        <time>2021-03-21T11:00:17Z</time>
      </trkpt>
      <trkpt lat="43.66862" lon="3.88637">
        <ele>119</ele>
        <time>2021-03-21T11:00:18Z</time>
      </trkpt>
      <trkpt lat="43.66863" lon="3.8863">
        <ele>119</ele>
        <time>2021-03-21T11:00:19Z</time>
      </trkpt>
      <trkpt lat="43.66864" lon="3.88624">
        <ele>118</ele>
        <time>2021-03-21T11:00:20Z</time>
      </trkpt>
      <trkpt lat="43.66864" lon="3.88618">
        <ele>118</ele>
        <time>2021-03-21T11:00:21Z</time>
      </trkpt>
      <trkpt lat="43.66865" lon="3.88612">
        <ele>118</ele>
        <time>2021-03-21T11:00:22Z</time>
      </trkpt>
      <trkpt lat="43.66866" lon="3.88607">
        <ele>118</ele>
        <time>2021-03-21T11:00:23Z</time>
      </trkpt>
      <trkpt lat="43.66867" lon="3.88605">
        <ele>118</ele>
        <time>2021-03-21T11:00:24Z</time>
      </trkpt>
      <trkpt lat="43.66868" lon="3.88602">
        <ele>118</ele>
        <time>2021-03-21T11:00:26Z</time>
      </trkpt>
      <trkpt lat="43.6687" lon="3.88597">
        <ele>118</ele>
        <time>2021-03-21T11:00:28Z</time>
      </trkpt>
      <trkpt lat="43.66871" lon="3.88595">
        <ele>118</ele>
        <time>2021-03-21T11:00:29Z</time>
      </trkpt>
      <trkpt lat="43.66869" lon="3.88595">
        <ele>118</ele>
        <time>2021-03-21T11:00:36Z</time>
      </trkpt>
      <trkpt lat="43.66876" lon="3.88587">
        <ele>114</ele>
        <time>2021-03-21T11:02:23Z</time>
      </trkpt>
      <trkpt lat="43.66877" lon="3.88587">
        <ele>114</ele>
        <time>2021-03-21T11:02:24Z</time>
      </trkpt>
      <trkpt lat="43.6688" lon="3.88586">
        <ele>114</ele>
        <time>2021-03-21T11:02:25Z</time>
      </trkpt>
      <trkpt lat="43.66882" lon="3.88586">
        <ele>114</ele>
        <time>2021-03-21T11:02:26Z</time>
      </trkpt>
      <trkpt lat="43.66885" lon="3.88585">
        <ele>114</ele>
        <time>2021-03-21T11:02:27Z</time>
      </trkpt>
      <trkpt lat="43.66888" lon="3.88585">
        <ele>114</ele>
        <time>2021-03-21T11:02:28Z</time>
      </trkpt>
      <trkpt lat="43.6689" lon="3.88584">
        <ele>114</ele>
        <time>2021-03-21T11:02:29Z</time>
      </trkpt>
      <trkpt lat="43.66893" lon="3.88583">
        <ele>114</ele>
        <time>2021-03-21T11:02:30Z</time>
      </trkpt>
      <trkpt lat="43.66897" lon="3.88582">
        <ele>114</ele>
        <time>2021-03-21T11:02:31Z</time>
      </trkpt>
      <trkpt lat="43.669" lon="3.8858">
        <ele>113</ele>
        <time>2021-03-21T11:02:32Z</time>
      </trkpt>
      <trkpt lat="43.66903" lon="3.88579">
        <ele>113</ele>
        <time>2021-03-21T11:02:33Z</time>
      </trkpt>
      <trkpt lat="43.66906" lon="3.88577">
        <ele>113</ele>
        <time>2021-03-21T11:02:34Z</time>
      </trkpt>
      <trkpt lat="43.66909" lon="3.88576">
        <ele>113</ele>
        <time>2021-03-21T11:02:35Z</time>
      </trkpt>
      <trkpt lat="43.66912" lon="3.88574">
        <ele>113</ele>
        <time>2021-03-21T11:02:36Z</time>
      </trkpt>
      <trkpt lat="43.66915" lon="3.88573">
        <ele>113</ele>
        <time>2021-03-21T11:02:37Z</time>
      </trkpt>
      <trkpt lat="43.66918" lon="3.88571">
        <ele>113</ele>
        <time>2021-03-21T11:02:38Z</time>
      </trkpt>
      <trkpt lat="43.66921" lon="3.88569">
        <ele>113</ele>
        <time>2021-03-21T11:02:39Z</time>
      </trkpt>
      <trkpt lat="43.66924" lon="3.88567">
        <ele>113</ele>
        <time>2021-03-21T11:02:40Z</time>
      </trkpt>
      <trkpt lat="43.66927" lon="3.88565">
        <ele>113</ele>
        <time>2021-03-21T11:02:41Z</time>
      </trkpt>
      <trkpt lat="43.66929" lon="3.88564">
        <ele>112</ele>
        <time>2021-03-21T11:02:42Z</time>
      </trkpt>
      <trkpt lat="43.66932" lon="3.88562">
        <ele>112</ele>
        <time>2021-03-21T11:02:43Z</time>
      </trkpt>
      <trkpt lat="43.66933" lon="3.88561">
        <ele>112</ele>
        <time>2021-03-21T11:02:44Z</time>
      </trkpt>
      <trkpt lat="43.66933" lon="3.88558">
        <ele>112</ele>
        <time>2021-03-21T11:02:45Z</time>
      </trkpt>
      <trkpt lat="43.66932" lon="3.88555">
        <ele>112</ele>
        <time>2021-03-21T11:02:46Z</time>
      </trkpt>
      <trkpt lat="43.66929" lon="3.88553">
        <ele>112</ele>
        <time>2021-03-21T11:02:47Z</time>
      </trkpt>
      <trkpt lat="43.66924" lon="3.88551">
        <ele>112</ele>
        <time>2021-03-21T11:02:48Z</time>
      </trkpt>
      <trkpt lat="43.66919" lon="3.8855">
        <ele>112</ele>
        <time>2021-03-21T11:02:49Z</time>
      </trkpt>
      <trkpt lat="43.66912" lon="3.88547">
        <ele>112</ele>
        <time>2021-03-21T11:02:50Z</time>
      </trkpt>
      <trkpt lat="43.66906" lon="3.88543">
        <ele>112</ele>
        <time>2021-03-21T11:02:51Z</time>
      </trkpt>
      <trkpt lat="43.669" lon="3.88539">
        <ele>110</ele>
        <time>2021-03-21T11:02:52Z</time>
      </trkpt>
      <trkpt lat="43.66894" lon="3.88535">
        <ele>110</ele>
        <time>2021-03-21T11:02:53Z</time>
      </trkpt>
      <trkpt lat="43.66887" lon="3.8853">
        <ele>110</ele>
        <time>2021-03-21T11:02:54Z</time>
      </trkpt>
      <trkpt lat="43.6688" lon="3.88525">
        <ele>110</ele>
        <time>2021-03-21T11:02:55Z</time>
      </trkpt>
      <trkpt lat="43.66873" lon="3.8852">
        <ele>110</ele>
        <time>2021-03-21T11:02:56Z</time>
      </trkpt>
      <trkpt lat="43.66868" lon="3.88514">
        <ele>110</ele>
        <time>2021-03-21T11:02:57Z</time>
      </trkpt>
      <trkpt lat="43.66863" lon="3.88508">
        <ele>110</ele>
        <time>2021-03-21T11:02:58Z</time>
      </trkpt>
      <trkpt lat="43.66859" lon="3.88502">
        <ele>110</ele>
        <time>2021-03-21T11:02:59Z</time>
      </trkpt>
      <trkpt lat="43.66856" lon="3.88496">
        <ele>110</ele>
        <time>2021-03-21T11:03:00Z</time>
      </trkpt>
      <trkpt lat="43.66854" lon="3.88491">
        <ele>105</ele>
        <time>2021-03-21T11:03:01Z</time>
      </trkpt>
      <trkpt lat="43.66853" lon="3.88486">
        <ele>105</ele>
        <time>2021-03-21T11:03:02Z</time>
      </trkpt>
      <trkpt lat="43.66854" lon="3.88482">
        <ele>105</ele>
        <time>2021-03-21T11:03:03Z</time>
      </trkpt>
      <trkpt lat="43.66855" lon="3.88478">
        <ele>105</ele>
        <time>2021-03-21T11:03:04Z</time>
      </trkpt>
      <trkpt lat="43.66857" lon="3.88475">
        <ele>105</ele>
        <time>2021-03-21T11:03:05Z</time>
      </trkpt>
      <trkpt lat="43.66859" lon="3.88472">
        <ele>105</ele>
        <time>2021-03-21T11:03:06Z</time>
      </trkpt>
      <trkpt lat="43.6686" lon="3.88469">
        <ele>105</ele>
        <time>2021-03-21T11:03:07Z</time>
      </trkpt>
      <trkpt lat="43.66862" lon="3.88466">
        <ele>105</ele>
        <time>2021-03-21T11:03:08Z</time>
      </trkpt>
      <trkpt lat="43.66863" lon="3.88462">
        <ele>105</ele>
        <time>2021-03-21T11:03:09Z</time>
      </trkpt>
      <trkpt lat="43.66865" lon="3.88458">
        <ele>105</ele>
        <time>2021-03-21T11:03:10Z</time>
      </trkpt>
      <trkpt lat="43.66867" lon="3.88453">
        <ele>105</ele>
        <time>2021-03-21T11:03:11Z</time>
      </trkpt>
      <trkpt lat="43.66869" lon="3.88449">
        <ele>101</ele>
        <time>2021-03-21T11:03:12Z</time>
      </trkpt>
      <trkpt lat="43.66872" lon="3.88445">
        <ele>101</ele>
        <time>2021-03-21T11:03:13Z</time>
      </trkpt>
      <trkpt lat="43.66875" lon="3.88442">
        <ele>101</ele>
        <time>2021-03-21T11:03:14Z</time>
      </trkpt>
      <trkpt lat="43.66878" lon="3.88439">
        <ele>101</ele>
        <time>2021-03-21T11:03:15Z</time>
      </trkpt>
      <trkpt lat="43.66882" lon="3.88436">
        <ele>101</ele>
        <time>2021-03-21T11:03:16Z</time>
      </trkpt>
      <trkpt lat="43.66885" lon="3.88434">
        <ele>101</ele>
        <time>2021-03-21T11:03:17Z</time>
      </trkpt>
      <trkpt lat="43.66889" lon="3.88432">
        <ele>101</ele>
        <time>2021-03-21T11:03:18Z</time>
      </trkpt>
      <trkpt lat="43.66892" lon="3.88431">
        <ele>101</ele>
        <time>2021-03-21T11:03:19Z</time>
      </trkpt>
      <trkpt lat="43.66896" lon="3.8843">
        <ele>101</ele>
        <time>2021-03-21T11:03:20Z</time>
      </trkpt>
      <trkpt lat="43.669" lon="3.8843">
        <ele>101</ele>
        <time>2021-03-21T11:03:21Z</time>
      </trkpt>
      <trkpt lat="43.66903" lon="3.88429">
        <ele>98</ele>
        <time>2021-03-21T11:03:22Z</time>
      </trkpt>
      <trkpt lat="43.66907" lon="3.8843">
        <ele>98</ele>
        <time>2021-03-21T11:03:23Z</time>
      </trkpt>
      <trkpt lat="43.6691" lon="3.88431">
        <ele>98</ele>
        <time>2021-03-21T11:03:24Z</time>
      </trkpt>
      <trkpt lat="43.66914" lon="3.88432">
        <ele>98</ele>
        <time>2021-03-21T11:03:25Z</time>
      </trkpt>
      <trkpt lat="43.66917" lon="3.88433">
        <ele>98</ele>
        <time>2021-03-21T11:03:26Z</time>
      </trkpt>
      <trkpt lat="43.6692" lon="3.88434">
        <ele>98</ele>
        <time>2021-03-21T11:03:27Z</time>
      </trkpt>
      <trkpt lat="43.66923" lon="3.88435">
        <ele>98</ele>
        <time>2021-03-21T11:03:28Z</time>
      </trkpt>
      <trkpt lat="43.66926" lon="3.88435">
        <ele>98</ele>
        <time>2021-03-21T11:03:29Z</time>
      </trkpt>
      <trkpt lat="43.66928" lon="3.88435">
        <ele>98</ele>
        <time>2021-03-21T11:03:30Z</time>
      </trkpt>
      <trkpt lat="43.66931" lon="3.88436">
        <ele>98</ele>
        <time>2021-03-21T11:03:31Z</time>
      </trkpt>
      <trkpt lat="43.66934" lon="3.88436">
        <ele>97</ele>
        <time>2021-03-21T11:03:32Z</time>
      </trkpt>
      <trkpt lat="43.66938" lon="3.88436">
        <ele>97</ele>
        <time>2021-03-21T11:03:33Z</time>
      </trkpt>
      <trkpt lat="43.66941" lon="3.88436">
        <ele>97</ele>
        <time>2021-03-21T11:03:34Z</time>
      </trkpt>
      <trkpt lat="43.66944" lon="3.88436">
        <ele>97</ele>
        <time>2021-03-21T11:03:35Z</time>
      </trkpt>
      <trkpt lat="43.66947" lon="3.88436">
        <ele>97</ele>
        <time>2021-03-21T11:03:36Z</time>
      </trkpt>
      <trkpt lat="43.66949" lon="3.88436">
        <ele>97</ele>
        <time>2021-03-21T11:03:37Z</time>
      </trkpt>
      <trkpt lat="43.66952" lon="3.88436">
        <ele>97</ele>
        <time>2021-03-21T11:03:38Z</time>
      </trkpt>
      <trkpt lat="43.66955" lon="3.88436">
        <ele>97</ele>
        <time>2021-03-21T11:03:39Z</time>
      </trkpt>
      <trkpt lat="43.66957" lon="3.88436">
        <ele>97</ele>
        <time>2021-03-21T11:03:40Z</time>
      </trkpt>
      <trkpt lat="43.6696" lon="3.88436">
        <ele>97</ele>
        <time>2021-03-21T11:03:41Z</time>
      </trkpt>
      <trkpt lat="43.66964" lon="3.88435">
        <ele>98</ele>
        <time>2021-03-21T11:03:42Z</time>
      </trkpt>
      <trkpt lat="43.66967" lon="3.88435">
        <ele>98</ele>
        <time>2021-03-21T11:03:43Z</time>
      </trkpt>
      <trkpt lat="43.66969" lon="3.88433">
        <ele>98</ele>
        <time>2021-03-21T11:03:44Z</time>
      </trkpt>
      <trkpt lat="43.66972" lon="3.88432">
        <ele>98</ele>
        <time>2021-03-21T11:03:45Z</time>
      </trkpt>
      <trkpt lat="43.66974" lon="3.8843">
        <ele>98</ele>
        <time>2021-03-21T11:03:46Z</time>
      </trkpt>
      <trkpt lat="43.66977" lon="3.88427">
        <ele>98</ele>
        <time>2021-03-21T11:03:47Z</time>
      </trkpt>
      <trkpt lat="43.66979" lon="3.88424">
        <ele>98</ele>
        <time>2021-03-21T11:03:48Z</time>
      </trkpt>
      <trkpt lat="43.66982" lon="3.88421">
        <ele>98</ele>
        <time>2021-03-21T11:03:49Z</time>
      </trkpt>
      <trkpt lat="43.66984" lon="3.88419">
        <ele>98</ele>
        <time>2021-03-21T11:03:50Z</time>
      </trkpt>
      <trkpt lat="43.66986" lon="3.88417">
        <ele>98</ele>
        <time>2021-03-21T11:03:51Z</time>
      </trkpt>
      <trkpt lat="43.66989" lon="3.88415">
        <ele>98</ele>
        <time>2021-03-21T11:03:52Z</time>
      </trkpt>
      <trkpt lat="43.66991" lon="3.88414">
        <ele>98</ele>
        <time>2021-03-21T11:03:53Z</time>
      </trkpt>
      <trkpt lat="43.66994" lon="3.88414">
        <ele>98</ele>
        <time>2021-03-21T11:03:54Z</time>
      </trkpt>
      <trkpt lat="43.66997" lon="3.88414">
        <ele>98</ele>
        <time>2021-03-21T11:03:56Z</time>
      </trkpt>
      <trkpt lat="43.67" lon="3.88416">
        <ele>98</ele>
        <time>2021-03-21T11:03:58Z</time>
      </trkpt>
      <trkpt lat="43.67002" lon="3.88417">
        <ele>98</ele>
        <time>2021-03-21T11:03:59Z</time>
      </trkpt>
      <trkpt lat="43.67004" lon="3.88419">
        <ele>98</ele>
        <time>2021-03-21T11:04:00Z</time>
      </trkpt>
      <trkpt lat="43.67007" lon="3.88422">
        <ele>99</ele>
        <time>2021-03-21T11:04:02Z</time>
      </trkpt>
      <trkpt lat="43.67009" lon="3.88424">
        <ele>99</ele>
        <time>2021-03-21T11:04:03Z</time>
      </trkpt>
      <trkpt lat="43.67011" lon="3.88426">
        <ele>99</ele>
        <time>2021-03-21T11:04:04Z</time>
      </trkpt>
      <trkpt lat="43.67014" lon="3.88428">
        <ele>99</ele>
        <time>2021-03-21T11:04:05Z</time>
      </trkpt>
      <trkpt lat="43.67016" lon="3.88431">
        <ele>99</ele>
        <time>2021-03-21T11:04:06Z</time>
      </trkpt>
      <trkpt lat="43.67018" lon="3.88434">
        <ele>99</ele>
        <time>2021-03-21T11:04:07Z</time>
      </trkpt>
      <trkpt lat="43.6702" lon="3.88438">
        <ele>99</ele>
        <time>2021-03-21T11:04:08Z</time>
      </trkpt>
      <trkpt lat="43.67022" lon="3.88441">
        <ele>99</ele>
        <time>2021-03-21T11:04:09Z</time>
      </trkpt>
      <trkpt lat="43.67024" lon="3.88446">
        <ele>99</ele>
        <time>2021-03-21T11:04:10Z</time>
      </trkpt>
      <trkpt lat="43.67025" lon="3.8845">
        <ele>99</ele>
        <time>2021-03-21T11:04:11Z</time>
      </trkpt>
      <trkpt lat="43.67026" lon="3.88454">
        <ele>100</ele>
        <time>2021-03-21T11:04:12Z</time>
      </trkpt>
      <trkpt lat="43.67027" lon="3.88458">
        <ele>100</ele>
        <time>2021-03-21T11:04:13Z</time>
      </trkpt>
      <trkpt lat="43.67029" lon="3.88462">
        <ele>100</ele>
        <time>2021-03-21T11:04:14Z</time>
      </trkpt>
      <trkpt lat="43.67031" lon="3.88465">
        <ele>100</ele>
        <time>2021-03-21T11:04:15Z</time>
      </trkpt>
      <trkpt lat="43.67033" lon="3.88468">
        <ele>100</ele>
        <time>2021-03-21T11:04:16Z</time>
      </trkpt>
      <trkpt lat="43.67035" lon="3.88471">
        <ele>100</ele>
        <time>2021-03-21T11:04:17Z</time>
      </trkpt>
      <trkpt lat="43.67037" lon="3.88473">
        <ele>100</ele>
        <time>2021-03-21T11:04:18Z</time>
      </trkpt>
      <trkpt lat="43.67039" lon="3.88474">
        <ele>100</ele>
        <time>2021-03-21T11:04:19Z</time>
      </trkpt>
      <trkpt lat="43.67042" lon="3.88476">
        <ele>100</ele>
        <time>2021-03-21T11:04:20Z</time>
      </trkpt>
      <trkpt lat="43.67045" lon="3.88479">
        <ele>100</ele>
        <time>2021-03-21T11:04:21Z</time>
      </trkpt>
      <trkpt lat="43.67048" lon="3.8848">
        <ele>101</ele>
        <time>2021-03-21T11:04:22Z</time>
      </trkpt>
      <trkpt lat="43.67052" lon="3.88482">
        <ele>101</ele>
        <time>2021-03-21T11:04:23Z</time>
      </trkpt>
      <trkpt lat="43.67055" lon="3.88483">
        <ele>101</ele>
        <time>2021-03-21T11:04:24Z</time>
      </trkpt>
      <trkpt lat="43.67058" lon="3.88485">
        <ele>101</ele>
        <time>2021-03-21T11:04:25Z</time>
      </trkpt>
      <trkpt lat="43.67062" lon="3.88487">
        <ele>101</ele>
        <time>2021-03-21T11:04:26Z</time>
      </trkpt>
      <trkpt lat="43.67065" lon="3.88489">
        <ele>101</ele>
        <time>2021-03-21T11:04:27Z</time>
      </trkpt>
      <trkpt lat="43.67068" lon="3.8849">
        <ele>101</ele>
        <time>2021-03-21T11:04:28Z</time>
      </trkpt>
      <trkpt lat="43.67071" lon="3.88492">
        <ele>101</ele>
        <time>2021-03-21T11:04:29Z</time>
      </trkpt>
      <trkpt lat="43.67075" lon="3.88492">
        <ele>101</ele>
        <time>2021-03-21T11:04:30Z</time>
      </trkpt>
      <trkpt lat="43.67078" lon="3.88492">
        <ele>101</ele>
        <time>2021-03-21T11:04:31Z</time>
      </trkpt>
      <trkpt lat="43.67081" lon="3.88492">
        <ele>101</ele>
        <time>2021-03-21T11:04:32Z</time>
      </trkpt>
      <trkpt lat="43.67084" lon="3.88491">
        <ele>101</ele>
        <time>2021-03-21T11:04:33Z</time>
      </trkpt>
      <trkpt lat="43.67087" lon="3.8849">
        <ele>101</ele>
        <time>2021-03-21T11:04:34Z</time>
      </trkpt>
      <trkpt lat="43.6709" lon="3.88489">
        <ele>101</ele>
        <time>2021-03-21T11:04:35Z</time>
      </trkpt>
      <trkpt lat="43.67093" lon="3.88488">
        <ele>101</ele>
        <time>2021-03-21T11:04:36Z</time>
      </trkpt>
      <trkpt lat="43.67095" lon="3.88488">
        <ele>101</ele>
        <time>2021-03-21T11:04:37Z</time>
      </trkpt>
      <trkpt lat="43.67097" lon="3.88487">
        <ele>101</ele>
        <time>2021-03-21T11:04:38Z</time>
      </trkpt>
      <trkpt lat="43.671" lon="3.88486">
        <ele>101</ele>
        <time>2021-03-21T11:04:40Z</time>
      </trkpt>
      <trkpt lat="43.67101" lon="3.88484">
        <ele>101</ele>
        <time>2021-03-21T11:04:45Z</time>
      </trkpt>
      <trkpt lat="43.67112" lon="3.8848">
        <ele>101</ele>
        <time>2021-03-21T11:05:11Z</time>
      </trkpt>
      <trkpt lat="43.67114" lon="3.8848">
        <ele>101</ele>
        <time>2021-03-21T11:05:12Z</time>
      </trkpt>
      <trkpt lat="43.67117" lon="3.8848">
        <ele>101</ele>
        <time>2021-03-21T11:05:13Z</time>
      </trkpt>
      <trkpt lat="43.67119" lon="3.88479">
        <ele>101</ele>
        <time>2021-03-21T11:05:14Z</time>
      </trkpt>
      <trkpt lat="43.67122" lon="3.88479">
        <ele>101</ele>
        <time>2021-03-21T11:05:15Z</time>
      </trkpt>
      <trkpt lat="43.67125" lon="3.88478">
        <ele>101</ele>
        <time>2021-03-21T11:05:16Z</time>
      </trkpt>
      <trkpt lat="43.67127" lon="3.88476">
        <ele>101</ele>
        <time>2021-03-21T11:05:17Z</time>
      </trkpt>
      <trkpt lat="43.67129" lon="3.88475">
        <ele>101</ele>
        <time>2021-03-21T11:05:18Z</time>
      </trkpt>
      <trkpt lat="43.67131" lon="3.88473">
        <ele>101</ele>
        <time>2021-03-21T11:05:19Z</time>
      </trkpt>
      <trkpt lat="43.67133" lon="3.88471">
        <ele>102</ele>
        <time>2021-03-21T11:05:20Z</time>
      </trkpt>
      <trkpt lat="43.67134" lon="3.88468">
        <ele>102</ele>
        <time>2021-03-21T11:05:21Z</time>
      </trkpt>
      <trkpt lat="43.67136" lon="3.88466">
        <ele>102</ele>
        <time>2021-03-21T11:05:22Z</time>
      </trkpt>
      <trkpt lat="43.67138" lon="3.88465">
        <ele>102</ele>
        <time>2021-03-21T11:05:23Z</time>
      </trkpt>
      <trkpt lat="43.6714" lon="3.88463">
        <ele>102</ele>
        <time>2021-03-21T11:05:24Z</time>
      </trkpt>
      <trkpt lat="43.67143" lon="3.88461">
        <ele>102</ele>
        <time>2021-03-21T11:05:26Z</time>
      </trkpt>
      <trkpt lat="43.67145" lon="3.8846">
        <ele>102</ele>
        <time>2021-03-21T11:05:27Z</time>
      </trkpt>
      <trkpt lat="43.67148" lon="3.88459">
        <ele>102</ele>
        <time>2021-03-21T11:05:28Z</time>
      </trkpt>
      <trkpt lat="43.6715" lon="3.88458">
        <ele>102</ele>
        <time>2021-03-21T11:05:29Z</time>
      </trkpt>
      <trkpt lat="43.67152" lon="3.88457">
        <ele>103</ele>
        <time>2021-03-21T11:05:30Z</time>
      </trkpt>
      <trkpt lat="43.67154" lon="3.88455">
        <ele>103</ele>
        <time>2021-03-21T11:05:31Z</time>
      </trkpt>
      <trkpt lat="43.67156" lon="3.88454">
        <ele>103</ele>
        <time>2021-03-21T11:05:32Z</time>
      </trkpt>
      <trkpt lat="43.67159" lon="3.88452">
        <ele>103</ele>
        <time>2021-03-21T11:05:34Z</time>
      </trkpt>
      <trkpt lat="43.67161" lon="3.8845">
        <ele>103</ele>
        <time>2021-03-21T11:05:35Z</time>
      </trkpt>
      <trkpt lat="43.67162" lon="3.88449">
        <ele>103</ele>
        <time>2021-03-21T11:05:36Z</time>
      </trkpt>
      <trkpt lat="43.67164" lon="3.88448">
        <ele>103</ele>
        <time>2021-03-21T11:05:37Z</time>
      </trkpt>
      <trkpt lat="43.67166" lon="3.88446">
        <ele>103</ele>
        <time>2021-03-21T11:05:39Z</time>
      </trkpt>
      <trkpt lat="43.67169" lon="3.88443">
        <ele>103</ele>
        <time>2021-03-21T11:05:41Z</time>
      </trkpt>
      <trkpt lat="43.67172" lon="3.8844">
        <ele>103</ele>
        <time>2021-03-21T11:05:43Z</time>
      </trkpt>
      <trkpt lat="43.67174" lon="3.88439">
        <ele>103</ele>
        <time>2021-03-21T11:05:44Z</time>
      </trkpt>
      <trkpt lat="43.67176" lon="3.88437">
        <ele>103</ele>
        <time>2021-03-21T11:05:45Z</time>
      </trkpt>
      <trkpt lat="43.67179" lon="3.88436">
        <ele>103</ele>
        <time>2021-03-21T11:05:46Z</time>
      </trkpt>
      <trkpt lat="43.67181" lon="3.88435">
        <ele>103</ele>
        <time>2021-03-21T11:05:47Z</time>
      </trkpt>
      <trkpt lat="43.67184" lon="3.88433">
        <ele>103</ele>
        <time>2021-03-21T11:05:48Z</time>
      </trkpt>
      <trkpt lat="43.67186" lon="3.88431">
        <ele>103</ele>
        <time>2021-03-21T11:05:49Z</time>
      </trkpt>
      <trkpt lat="43.67188" lon="3.88429">
        <ele>103</ele>
        <time>2021-03-21T11:05:50Z</time>
      </trkpt>
      <trkpt lat="43.6719" lon="3.88427">
        <ele>103</ele>
        <time>2021-03-21T11:05:51Z</time>
      </trkpt>
      <trkpt lat="43.67193" lon="3.88425">
        <ele>103</ele>
        <time>2021-03-21T11:05:52Z</time>
      </trkpt>
      <trkpt lat="43.67195" lon="3.88424">
        <ele>103</ele>
        <time>2021-03-21T11:05:53Z</time>
      </trkpt>
      <trkpt lat="43.67197" lon="3.88423">
        <ele>103</ele>
        <time>2021-03-21T11:05:54Z</time>
      </trkpt>
      <trkpt lat="43.67199" lon="3.88421">
        <ele>103</ele>
        <time>2021-03-21T11:05:55Z</time>
      </trkpt>
      <trkpt lat="43.67201" lon="3.8842">
        <ele>103</ele>
        <time>2021-03-21T11:05:56Z</time>
      </trkpt>
      <trkpt lat="43.67203" lon="3.88419">
        <ele>103</ele>
        <time>2021-03-21T11:05:57Z</time>
      </trkpt>
      <trkpt lat="43.67205" lon="3.88418">
        <ele>103</ele>
        <time>2021-03-21T11:05:58Z</time>
      </trkpt>
      <trkpt lat="43.67208" lon="3.88417">
        <ele>104</ele>
        <time>2021-03-21T11:05:59Z</time>
      </trkpt>
      <trkpt lat="43.67211" lon="3.88416">
        <ele>104</ele>
        <time>2021-03-21T11:06:00Z</time>
      </trkpt>
      <trkpt lat="43.67213" lon="3.88415">
        <ele>104</ele>
        <time>2021-03-21T11:06:01Z</time>
      </trkpt>
      <trkpt lat="43.67216" lon="3.88414">
        <ele>104</ele>
        <time>2021-03-21T11:06:02Z</time>
      </trkpt>
      <trkpt lat="43.67218" lon="3.88413">
        <ele>104</ele>
        <time>2021-03-21T11:06:03Z</time>
      </trkpt>
      <trkpt lat="43.67221" lon="3.88411">
        <ele>104</ele>
        <time>2021-03-21T11:06:04Z</time>
      </trkpt>
      <trkpt lat="43.67223" lon="3.8841">
        <ele>104</ele>
        <time>2021-03-21T11:06:05Z</time>
      </trkpt>
      <trkpt lat="43.67225" lon="3.88409">
        <ele>104</ele>
        <time>2021-03-21T11:06:06Z</time>
      </trkpt>
      <trkpt lat="43.67227" lon="3.88408">
        <ele>104</ele>
        <time>2021-03-21T11:06:07Z</time>
      </trkpt>
      <trkpt lat="43.67229" lon="3.88407">
        <ele>104</ele>
        <time>2021-03-21T11:06:08Z</time>
      </trkpt>
      <trkpt lat="43.67232" lon="3.88405">
        <ele>104</ele>
        <time>2021-03-21T11:06:10Z</time>
      </trkpt>
      <trkpt lat="43.67234" lon="3.88404">
        <ele>104</ele>
        <time>2021-03-21T11:06:11Z</time>
      </trkpt>
      <trkpt lat="43.67236" lon="3.88403">
        <ele>104</ele>
        <time>2021-03-21T11:06:12Z</time>
      </trkpt>
      <trkpt lat="43.67238" lon="3.88403">
        <ele>104</ele>
        <time>2021-03-21T11:06:13Z</time>
      </trkpt>
      <trkpt lat="43.6724" lon="3.88403">
        <ele>104</ele>
        <time>2021-03-21T11:06:14Z</time>
      </trkpt>
      <trkpt lat="43.67242" lon="3.88404">
        <ele>104</ele>
        <time>2021-03-21T11:06:15Z</time>
      </trkpt>
      <trkpt lat="43.67244" lon="3.88404">
        <ele>104</ele>
        <time>2021-03-21T11:06:16Z</time>
      </trkpt>
      <trkpt lat="43.67247" lon="3.88404">
        <ele>104</ele>
        <time>2021-03-21T11:06:17Z</time>
      </trkpt>
      <trkpt lat="43.67249" lon="3.88404">
        <ele>104</ele>
        <time>2021-03-21T11:06:18Z</time>
      </trkpt>
      <trkpt lat="43.67251" lon="3.88404">
        <ele>104</ele>
        <time>2021-03-21T11:06:19Z</time>
      </trkpt>
      <trkpt lat="43.67253" lon="3.88404">
        <ele>109</ele>
        <time>2021-03-21T11:06:20Z</time>
      </trkpt>
      <trkpt lat="43.67255" lon="3.88405">
        <ele>109</ele>
        <time>2021-03-21T11:06:21Z</time>
      </trkpt>
      <trkpt lat="43.67257" lon="3.88406">
        <ele>109</ele>
        <time>2021-03-21T11:06:22Z</time>
      </trkpt>
      <trkpt lat="43.6726" lon="3.88406">
        <ele>109</ele>
        <time>2021-03-21T11:06:23Z</time>
      </trkpt>
      <trkpt lat="43.67262" lon="3.88406">
        <ele>109</ele>
        <time>2021-03-21T11:06:24Z</time>
      </trkpt>
      <trkpt lat="43.67265" lon="3.88405">
        <ele>109</ele>
        <time>2021-03-21T11:06:25Z</time>
      </trkpt>
      <trkpt lat="43.67267" lon="3.88405">
        <ele>109</ele>
        <time>2021-03-21T11:06:26Z</time>
      </trkpt>
      <trkpt lat="43.6727" lon="3.88405">
        <ele>109</ele>
        <time>2021-03-21T11:06:27Z</time>
      </trkpt>
      <trkpt lat="43.67273" lon="3.88404">
        <ele>109</ele>
        <time>2021-03-21T11:06:28Z</time>
      </trkpt>
      <trkpt lat="43.67275" lon="3.88403">
        <ele>109</ele>
        <time>2021-03-21T11:06:29Z</time>
      </trkpt>
      <trkpt lat="43.67278" lon="3.88402">
        <ele>111</ele>
        <time>2021-03-21T11:06:30Z</time>
      </trkpt>
      <trkpt lat="43.67281" lon="3.88401">
        <ele>111</ele>
        <time>2021-03-21T11:06:31Z</time>
      </trkpt>
      <trkpt lat="43.67284" lon="3.884">
        <ele>111</ele>
        <time>2021-03-21T11:06:32Z</time>
      </trkpt>
      <trkpt lat="43.67286" lon="3.884">
        <ele>111</ele>
        <time>2021-03-21T11:06:33Z</time>
      </trkpt>
      <trkpt lat="43.67289" lon="3.88399">
        <ele>111</ele>
        <time>2021-03-21T11:06:34Z</time>
      </trkpt>
      <trkpt lat="43.67292" lon="3.88398">
        <ele>111</ele>
        <time>2021-03-21T11:06:35Z</time>
      </trkpt>
      <trkpt lat="43.67295" lon="3.88397">
        <ele>111</ele>
        <time>2021-03-21T11:06:36Z</time>
      </trkpt>
      <trkpt lat="43.67299" lon="3.88396">
        <ele>111</ele>
        <time>2021-03-21T11:06:37Z</time>
      </trkpt>
      <trkpt lat="43.67302" lon="3.88395">
        <ele>111</ele>
        <time>2021-03-21T11:06:38Z</time>
      </trkpt>
      <trkpt lat="43.67305" lon="3.88394">
        <ele>111</ele>
        <time>2021-03-21T11:06:39Z</time>
      </trkpt>
      <trkpt lat="43.67308" lon="3.88392">
        <ele>111</ele>
        <time>2021-03-21T11:06:40Z</time>
      </trkpt>
      <trkpt lat="43.67311" lon="3.8839">
        <ele>111</ele>
        <time>2021-03-21T11:06:41Z</time>
      </trkpt>
      <trkpt lat="43.67314" lon="3.88389">
        <ele>111</ele>
        <time>2021-03-21T11:06:42Z</time>
      </trkpt>
      <trkpt lat="43.67316" lon="3.88387">
        <ele>111</ele>
        <time>2021-03-21T11:06:43Z</time>
      </trkpt>
      <trkpt lat="43.67319" lon="3.88386">
        <ele>111</ele>
        <time>2021-03-21T11:06:44Z</time>
      </trkpt>
      <trkpt lat="43.67321" lon="3.88384">
        <ele>111</ele>
        <time>2021-03-21T11:06:45Z</time>
      </trkpt>
      <trkpt lat="43.67324" lon="3.88382">
        <ele>111</ele>
        <time>2021-03-21T11:06:46Z</time>
      </trkpt>
      <trkpt lat="43.67326" lon="3.8838">
        <ele>111</ele>
        <time>2021-03-21T11:06:47Z</time>
      </trkpt>
      <trkpt lat="43.67328" lon="3.88378">
        <ele>111</ele>
        <time>2021-03-21T11:06:48Z</time>
      </trkpt>
      <trkpt lat="43.6733" lon="3.88377">
        <ele>111</ele>
        <time>2021-03-21T11:06:49Z</time>
      </trkpt>
      <trkpt lat="43.67333" lon="3.88375">
        <ele>112</ele>
        <time>2021-03-21T11:06:50Z</time>
      </trkpt>
      <trkpt lat="43.67335" lon="3.88374">
        <ele>112</ele>
        <time>2021-03-21T11:06:51Z</time>
      </trkpt>
      <trkpt lat="43.67337" lon="3.88372">
        <ele>112</ele>
        <time>2021-03-21T11:06:52Z</time>
      </trkpt>
      <trkpt lat="43.67339" lon="3.88371">
        <ele>112</ele>
        <time>2021-03-21T11:06:53Z</time>
      </trkpt>
      <trkpt lat="43.67341" lon="3.8837">
        <ele>112</ele>
        <time>2021-03-21T11:06:54Z</time>
      </trkpt>
      <trkpt lat="43.67343" lon="3.8837">
        <ele>112</ele>
        <time>2021-03-21T11:06:55Z</time>
      </trkpt>
      <trkpt lat="43.67345" lon="3.88369">
        <ele>112</ele>
        <time>2021-03-21T11:06:56Z</time>
      </trkpt>
      <trkpt lat="43.67347" lon="3.88369">
        <ele>112</ele>
        <time>2021-03-21T11:06:57Z</time>
      </trkpt>
      <trkpt lat="43.67351" lon="3.88369">
        <ele>112</ele>
        <time>2021-03-21T11:06:59Z</time>
      </trkpt>
      <trkpt lat="43.67353" lon="3.88369">
        <ele>114</ele>
        <time>2021-03-21T11:07:00Z</time>
      </trkpt>
      <trkpt lat="43.67355" lon="3.88369">
        <ele>114</ele>
        <time>2021-03-21T11:07:01Z</time>
      </trkpt>
      <trkpt lat="43.67357" lon="3.88369">
        <ele>114</ele>
        <time>2021-03-21T11:07:02Z</time>
      </trkpt>
      <trkpt lat="43.67359" lon="3.88368">
        <ele>114</ele>
        <time>2021-03-21T11:07:03Z</time>
      </trkpt>
      <trkpt lat="43.67361" lon="3.88368">
        <ele>114</ele>
        <time>2021-03-21T11:07:04Z</time>
      </trkpt>
      <trkpt lat="43.67363" lon="3.88368">
        <ele>114</ele>
        <time>2021-03-21T11:07:05Z</time>
      </trkpt>
      <trkpt lat="43.67366" lon="3.88367">
        <ele>114</ele>
        <time>2021-03-21T11:07:06Z</time>
      </trkpt>
      <trkpt lat="43.67368" lon="3.88367">
        <ele>114</ele>
        <time>2021-03-21T11:07:07Z</time>
      </trkpt>
      <trkpt lat="43.67369" lon="3.88366">
        <ele>114</ele>
        <time>2021-03-21T11:07:08Z</time>
      </trkpt>
      <trkpt lat="43.67371" lon="3.88366">
        <ele>114</ele>
        <time>2021-03-21T11:07:09Z</time>
      </trkpt>
      <trkpt lat="43.67373" lon="3.88365">
        <ele>115</ele>
        <time>2021-03-21T11:07:10Z</time>
      </trkpt>
      <trkpt lat="43.67375" lon="3.88365">
        <ele>115</ele>
        <time>2021-03-21T11:07:11Z</time>
      </trkpt>
      <trkpt lat="43.67377" lon="3.88363">
        <ele>115</ele>
        <time>2021-03-21T11:07:12Z</time>
      </trkpt>
      <trkpt lat="43.67379" lon="3.88362">
        <ele>115</ele>
        <time>2021-03-21T11:07:13Z</time>
      </trkpt>
      <trkpt lat="43.67381" lon="3.88361">
        <ele>115</ele>
        <time>2021-03-21T11:07:14Z</time>
      </trkpt>
      <trkpt lat="43.67383" lon="3.88359">
        <ele>115</ele>
        <time>2021-03-21T11:07:15Z</time>
      </trkpt>
      <trkpt lat="43.67385" lon="3.88357">
        <ele>115</ele>
        <time>2021-03-21T11:07:16Z</time>
      </trkpt>
      <trkpt lat="43.67387" lon="3.88356">
        <ele>115</ele>
        <time>2021-03-21T11:07:17Z</time>
      </trkpt>
      <trkpt lat="43.67389" lon="3.88354">
        <ele>115</ele>
        <time>2021-03-21T11:07:18Z</time>
      </trkpt>
      <trkpt lat="43.67391" lon="3.88353">
        <ele>115</ele>
        <time>2021-03-21T11:07:19Z</time>
      </trkpt>
      <trkpt lat="43.67393" lon="3.88351">
        <ele>116</ele>
        <time>2021-03-21T11:07:20Z</time>
      </trkpt>
      <trkpt lat="43.67395" lon="3.8835">
        <ele>116</ele>
        <time>2021-03-21T11:07:21Z</time>
      </trkpt>
      <trkpt lat="43.67397" lon="3.88349">
        <ele>116</ele>
        <time>2021-03-21T11:07:22Z</time>
      </trkpt>
      <trkpt lat="43.674" lon="3.88348">
        <ele>116</ele>
        <time>2021-03-21T11:07:23Z</time>
      </trkpt>
      <trkpt lat="43.67402" lon="3.88348">
        <ele>116</ele>
        <time>2021-03-21T11:07:24Z</time>
      </trkpt>
      <trkpt lat="43.67404" lon="3.88347">
        <ele>116</ele>
        <time>2021-03-21T11:07:25Z</time>
      </trkpt>
      <trkpt lat="43.67406" lon="3.88346">
        <ele>116</ele>
        <time>2021-03-21T11:07:26Z</time>
      </trkpt>
      <trkpt lat="43.67408" lon="3.88345">
        <ele>116</ele>
        <time>2021-03-21T11:07:27Z</time>
      </trkpt>
      <trkpt lat="43.6741" lon="3.88344">
        <ele>116</ele>
        <time>2021-03-21T11:07:28Z</time>
      </trkpt>
      <trkpt lat="43.67412" lon="3.88343">
        <ele>116</ele>
        <time>2021-03-21T11:07:29Z</time>
      </trkpt>
      <trkpt lat="43.67414" lon="3.88342">
        <ele>117</ele>
        <time>2021-03-21T11:07:30Z</time>
      </trkpt>
      <trkpt lat="43.67416" lon="3.88342">
        <ele>117</ele>
        <time>2021-03-21T11:07:31Z</time>
      </trkpt>
      <trkpt lat="43.67419" lon="3.88341">
        <ele>117</ele>
        <time>2021-03-21T11:07:32Z</time>
      </trkpt>
      <trkpt lat="43.67421" lon="3.8834">
        <ele>117</ele>
        <time>2021-03-21T11:07:33Z</time>
      </trkpt>
      <trkpt lat="43.67423" lon="3.88339">
        <ele>117</ele>
        <time>2021-03-21T11:07:34Z</time>
      </trkpt>
      <trkpt lat="43.67425" lon="3.88338">
        <ele>117</ele>
        <time>2021-03-21T11:07:35Z</time>
      </trkpt>
      <trkpt lat="43.67427" lon="3.88338">
        <ele>117</ele>
        <time>2021-03-21T11:07:36Z</time>
      </trkpt>
      <trkpt lat="43.6743" lon="3.88337">
        <ele>117</ele>
        <time>2021-03-21T11:07:37Z</time>
      </trkpt>
      <trkpt lat="43.67432" lon="3.88335">
        <ele>117</ele>
        <time>2021-03-21T11:07:38Z</time>
      </trkpt>
      <trkpt lat="43.67434" lon="3.88334">
        <ele>117</ele>
        <time>2021-03-21T11:07:39Z</time>
      </trkpt>
      <trkpt lat="43.67436" lon="3.88333">
        <ele>118</ele>
        <time>2021-03-21T11:07:40Z</time>
      </trkpt>
      <trkpt lat="43.67439" lon="3.88331">
        <ele>118</ele>
        <time>2021-03-21T11:07:41Z</time>
      </trkpt>
      <trkpt lat="43.67441" lon="3.8833">
        <ele>118</ele>
        <time>2021-03-21T11:07:42Z</time>
      </trkpt>
      <trkpt lat="43.67443" lon="3.88329">
        <ele>118</ele>
        <time>2021-03-21T11:07:43Z</time>
      </trkpt>
      <trkpt lat="43.67445" lon="3.88328">
        <ele>118</ele>
        <time>2021-03-21T11:07:44Z</time>
      </trkpt>
      <trkpt lat="43.67447" lon="3.88326">
        <ele>118</ele>
        <time>2021-03-21T11:07:45Z</time>
      </trkpt>
      <trkpt lat="43.67449" lon="3.88325">
        <ele>118</ele>
        <time>2021-03-21T11:07:46Z</time>
      </trkpt>
      <trkpt lat="43.67451" lon="3.88324">
        <ele>118</ele>
        <time>2021-03-21T11:07:47Z</time>
      </trkpt>
      <trkpt lat="43.67453" lon="3.88323">
        <ele>118</ele>
        <time>2021-03-21T11:07:48Z</time>
      </trkpt>
      <trkpt lat="43.67456" lon="3.88322">
        <ele>118</ele>
        <time>2021-03-21T11:07:49Z</time>
      </trkpt>
      <trkpt lat="43.67458" lon="3.88322">
        <ele>119</ele>
        <time>2021-03-21T11:07:50Z</time>
      </trkpt>
      <trkpt lat="43.6746" lon="3.88321">
        <ele>119</ele>
        <time>2021-03-21T11:07:51Z</time>
      </trkpt>
      <trkpt lat="43.67462" lon="3.8832">
        <ele>119</ele>
        <time>2021-03-21T11:07:52Z</time>
      </trkpt>
      <trkpt lat="43.67465" lon="3.88319">
        <ele>119</ele>
        <time>2021-03-21T11:07:54Z</time>
      </trkpt>
      <trkpt lat="43.67466" lon="3.88318">
        <ele>119</ele>
        <time>2021-03-21T11:07:55Z</time>
      </trkpt>
      <trkpt lat="43.67468" lon="3.88317">
        <ele>119</ele>
        <time>2021-03-21T11:07:56Z</time>
      </trkpt>
      <trkpt lat="43.6747" lon="3.88316">
        <ele>119</ele>
        <time>2021-03-21T11:07:57Z</time>
      </trkpt>
      <trkpt lat="43.67473" lon="3.88313">
        <ele>119</ele>
        <time>2021-03-21T11:07:59Z</time>
      </trkpt>
      <trkpt lat="43.67475" lon="3.88311">
        <ele>119</ele>
        <time>2021-03-21T11:08:01Z</time>
      </trkpt>
      <trkpt lat="43.67477" lon="3.88308">
        <ele>119</ele>
        <time>2021-03-21T11:08:03Z</time>
      </trkpt>
      <trkpt lat="43.67479" lon="3.88304">
        <ele>119</ele>
        <time>2021-03-21T11:08:05Z</time>
      </trkpt>
      <trkpt lat="43.6748" lon="3.88302">
        <ele>119</ele>
        <time>2021-03-21T11:08:06Z</time>
      </trkpt>
      <trkpt lat="43.67479" lon="3.88298">
        <ele>119</ele>
        <time>2021-03-21T11:08:08Z</time>
      </trkpt>
      <trkpt lat="43.67477" lon="3.88296">
        <ele>120</ele>
        <time>2021-03-21T11:08:10Z</time>
      </trkpt>
      <trkpt lat="43.67474" lon="3.88295">
        <ele>120</ele>
        <time>2021-03-21T11:08:12Z</time>
      </trkpt>
      <trkpt lat="43.67472" lon="3.88294">
        <ele>120</ele>
        <time>2021-03-21T11:08:13Z</time>
      </trkpt>
      <trkpt lat="43.6747" lon="3.88294">
        <ele>120</ele>
        <time>2021-03-21T11:08:14Z</time>
      </trkpt>
      <trkpt lat="43.67467" lon="3.88294">
        <ele>120</ele>
        <time>2021-03-21T11:08:15Z</time>
      </trkpt>
      <trkpt lat="43.67464" lon="3.88295">
        <ele>120</ele>
        <time>2021-03-21T11:08:16Z</time>
      </trkpt>
      <trkpt lat="43.67461" lon="3.88296">
        <ele>120</ele>
        <time>2021-03-21T11:08:17Z</time>
      </trkpt>
      <trkpt lat="43.67459" lon="3.88296">
        <ele>120</ele>
        <time>2021-03-21T11:08:18Z</time>
      </trkpt>
      <trkpt lat="43.67456" lon="3.88297">
        <ele>120</ele>
        <time>2021-03-21T11:08:19Z</time>
      </trkpt>
      <trkpt lat="43.67454" lon="3.88297">
        <ele>120</ele>
        <time>2021-03-21T11:08:20Z</time>
      </trkpt>
      <trkpt lat="43.67452" lon="3.88297">
        <ele>120</ele>
        <time>2021-03-21T11:08:21Z</time>
      </trkpt>
      <trkpt lat="43.6745" lon="3.88298">
        <ele>120</ele>
        <time>2021-03-21T11:08:22Z</time>
      </trkpt>
      <trkpt lat="43.67448" lon="3.88298">
        <ele>120</ele>
        <time>2021-03-21T11:08:23Z</time>
      </trkpt>
      <trkpt lat="43.67446" lon="3.88298">
        <ele>120</ele>
        <time>2021-03-21T11:08:24Z</time>
      </trkpt>
      <trkpt lat="43.67444" lon="3.88298">
        <ele>120</ele>
        <time>2021-03-21T11:08:25Z</time>
      </trkpt>
      <trkpt lat="43.67442" lon="3.88298">
        <ele>120</ele>
        <time>2021-03-21T11:08:26Z</time>
      </trkpt>
      <trkpt lat="43.6744" lon="3.88298">
        <ele>120</ele>
        <time>2021-03-21T11:08:27Z</time>
      </trkpt>
      <trkpt lat="43.67437" lon="3.88298">
        <ele>120</ele>
        <time>2021-03-21T11:08:28Z</time>
      </trkpt>
      <trkpt lat="43.67433" lon="3.88299">
        <ele>120</ele>
        <time>2021-03-21T11:08:29Z</time>
      </trkpt>
      <trkpt lat="43.67429" lon="3.88299">
        <ele>122</ele>
        <time>2021-03-21T11:08:30Z</time>
      </trkpt>
      <trkpt lat="43.67425" lon="3.88299">
        <ele>122</ele>
        <time>2021-03-21T11:08:31Z</time>
      </trkpt>
      <trkpt lat="43.67421" lon="3.88299">
        <ele>122</ele>
        <time>2021-03-21T11:08:32Z</time>
      </trkpt>
      <trkpt lat="43.67419" lon="3.883">
        <ele>122</ele>
        <time>2021-03-21T11:08:33Z</time>
      </trkpt>
      <trkpt lat="43.67417" lon="3.883">
        <ele>122</ele>
        <time>2021-03-21T11:08:34Z</time>
      </trkpt>
      <trkpt lat="43.67414" lon="3.883">
        <ele>122</ele>
        <time>2021-03-21T11:08:36Z</time>
      </trkpt>
      <trkpt lat="43.67412" lon="3.883">
        <ele>122</ele>
        <time>2021-03-21T11:08:37Z</time>
      </trkpt>
      <trkpt lat="43.67409" lon="3.88299">
        <ele>122</ele>
        <time>2021-03-21T11:08:39Z</time>
      </trkpt>
      <trkpt lat="43.67406" lon="3.88296">
        <ele>122</ele>
        <time>2021-03-21T11:08:41Z</time>
      </trkpt>
      <trkpt lat="43.67404" lon="3.88294">
        <ele>122</ele>
        <time>2021-03-21T11:08:42Z</time>
      </trkpt>
      <trkpt lat="43.67402" lon="3.88292">
        <ele>122</ele>
        <time>2021-03-21T11:08:43Z</time>
      </trkpt>
      <trkpt lat="43.67401" lon="3.88289">
        <ele>122</ele>
        <time>2021-03-21T11:08:44Z</time>
      </trkpt>
      <trkpt lat="43.67399" lon="3.88287">
        <ele>122</ele>
        <time>2021-03-21T11:08:45Z</time>
      </trkpt>
      <trkpt lat="43.67397" lon="3.88285">
        <ele>122</ele>
        <time>2021-03-21T11:08:46Z</time>
      </trkpt>
      <trkpt lat="43.67396" lon="3.88283">
        <ele>122</ele>
        <time>2021-03-21T11:08:47Z</time>
      </trkpt>
      <trkpt lat="43.67394" lon="3.88282">
        <ele>122</ele>
        <time>2021-03-21T11:08:48Z</time>
      </trkpt>
      <trkpt lat="43.67392" lon="3.88281">
        <ele>122</ele>
        <time>2021-03-21T11:08:49Z</time>
      </trkpt>
      <trkpt lat="43.6739" lon="3.8828">
        <ele>127</ele>
        <time>2021-03-21T11:08:50Z</time>
      </trkpt>
      <trkpt lat="43.67388" lon="3.88279">
        <ele>127</ele>
        <time>2021-03-21T11:08:51Z</time>
      </trkpt>
      <trkpt lat="43.67386" lon="3.88277">
        <ele>127</ele>
        <time>2021-03-21T11:08:52Z</time>
      </trkpt>
      <trkpt lat="43.67383" lon="3.88276">
        <ele>127</ele>
        <time>2021-03-21T11:08:53Z</time>
      </trkpt>
      <trkpt lat="43.67381" lon="3.88275">
        <ele>127</ele>
        <time>2021-03-21T11:08:54Z</time>
      </trkpt>
      <trkpt lat="43.67379" lon="3.88274">
        <ele>127</ele>
        <time>2021-03-21T11:08:55Z</time>
      </trkpt>
      <trkpt lat="43.67377" lon="3.88273">
        <ele>127</ele>
        <time>2021-03-21T11:08:56Z</time>
      </trkpt>
      <trkpt lat="43.67374" lon="3.88273">
        <ele>127</ele>
        <time>2021-03-21T11:08:57Z</time>
      </trkpt>
      <trkpt lat="43.67372" lon="3.88272">
        <ele>127</ele>
        <time>2021-03-21T11:08:58Z</time>
      </trkpt>
      <trkpt lat="43.6737" lon="3.8827">
        <ele>128</ele>
        <time>2021-03-21T11:08:59Z</time>
      </trkpt>
      <trkpt lat="43.67368" lon="3.88268">
        <ele>128</ele>
        <time>2021-03-21T11:09:00Z</time>
      </trkpt>
      <trkpt lat="43.67366" lon="3.88265">
        <ele>128</ele>
        <time>2021-03-21T11:09:01Z</time>
      </trkpt>
      <trkpt lat="43.67364" lon="3.88263">
        <ele>128</ele>
        <time>2021-03-21T11:09:02Z</time>
      </trkpt>
      <trkpt lat="43.67361" lon="3.88261">
        <ele>128</ele>
        <time>2021-03-21T11:09:03Z</time>
      </trkpt>
      <trkpt lat="43.67359" lon="3.8826">
        <ele>128</ele>
        <time>2021-03-21T11:09:04Z</time>
      </trkpt>
      <trkpt lat="43.67357" lon="3.88259">
        <ele>128</ele>
        <time>2021-03-21T11:09:05Z</time>
      </trkpt>
      <trkpt lat="43.67355" lon="3.88257">
        <ele>128</ele>
        <time>2021-03-21T11:09:06Z</time>
      </trkpt>
      <trkpt lat="43.67352" lon="3.88255">
        <ele>128</ele>
        <time>2021-03-21T11:09:07Z</time>
      </trkpt>
      <trkpt lat="43.67351" lon="3.88253">
        <ele>128</ele>
        <time>2021-03-21T11:09:08Z</time>
      </trkpt>
      <trkpt lat="43.67349" lon="3.8825">
        <ele>128</ele>
        <time>2021-03-21T11:09:09Z</time>
      </trkpt>
      <trkpt lat="43.67347" lon="3.88248">
        <ele>129</ele>
        <time>2021-03-21T11:09:10Z</time>
      </trkpt>
      <trkpt lat="43.67345" lon="3.88247">
        <ele>129</ele>
        <time>2021-03-21T11:09:11Z</time>
      </trkpt>
      <trkpt lat="43.67343" lon="3.88245">
        <ele>129</ele>
        <time>2021-03-21T11:09:12Z</time>
      </trkpt>
      <trkpt lat="43.67341" lon="3.88244">
        <ele>129</ele>
        <time>2021-03-21T11:09:13Z</time>
      </trkpt>
      <trkpt lat="43.67339" lon="3.88242">
        <ele>129</ele>
        <time>2021-03-21T11:09:14Z</time>
      </trkpt>
      <trkpt lat="43.67337" lon="3.8824">
        <ele>129</ele>
        <time>2021-03-21T11:09:15Z</time>
      </trkpt>
      <trkpt lat="43.67335" lon="3.88238">
        <ele>129</ele>
        <time>2021-03-21T11:09:16Z</time>
      </trkpt>
      <trkpt lat="43.67333" lon="3.88236">
        <ele>129</ele>
        <time>2021-03-21T11:09:17Z</time>
      </trkpt>
      <trkpt lat="43.67331" lon="3.88235">
        <ele>129</ele>
        <time>2021-03-21T11:09:18Z</time>
      </trkpt>
      <trkpt lat="43.67326" lon="3.88235">
        <ele>130</ele>
        <time>2021-03-21T11:09:20Z</time>
      </trkpt>
      <trkpt lat="43.67324" lon="3.88236">
        <ele>130</ele>
        <time>2021-03-21T11:09:21Z</time>
      </trkpt>
      <trkpt lat="43.67322" lon="3.88237">
        <ele>130</ele>
        <time>2021-03-21T11:09:22Z</time>
      </trkpt>
      <trkpt lat="43.67319" lon="3.88238">
        <ele>130</ele>
        <time>2021-03-21T11:09:23Z</time>
      </trkpt>
      <trkpt lat="43.67317" lon="3.88238">
        <ele>130</ele>
        <time>2021-03-21T11:09:24Z</time>
      </trkpt>
      <trkpt lat="43.67315" lon="3.88237">
        <ele>130</ele>
        <time>2021-03-21T11:09:25Z</time>
      </trkpt>
      <trkpt lat="43.67311" lon="3.88236">
        <ele>130</ele>
        <time>2021-03-21T11:09:27Z</time>
      </trkpt>
      <trkpt lat="43.67309" lon="3.88235">
        <ele>130</ele>
        <time>2021-03-21T11:09:28Z</time>
      </trkpt>
      <trkpt lat="43.67307" lon="3.88234">
        <ele>130</ele>
        <time>2021-03-21T11:09:29Z</time>
      </trkpt>
      <trkpt lat="43.67304" lon="3.88234">
        <ele>132</ele>
        <time>2021-03-21T11:09:30Z</time>
      </trkpt>
      <trkpt lat="43.67301" lon="3.88233">
        <ele>132</ele>
        <time>2021-03-21T11:09:31Z</time>
      </trkpt>
      <trkpt lat="43.67299" lon="3.88231">
        <ele>132</ele>
        <time>2021-03-21T11:09:32Z</time>
      </trkpt>
      <trkpt lat="43.67298" lon="3.88229">
        <ele>132</ele>
        <time>2021-03-21T11:09:33Z</time>
      </trkpt>
      <trkpt lat="43.67296" lon="3.88227">
        <ele>132</ele>
        <time>2021-03-21T11:09:34Z</time>
      </trkpt>
      <trkpt lat="43.67295" lon="3.88225">
        <ele>132</ele>
        <time>2021-03-21T11:09:35Z</time>
      </trkpt>
      <trkpt lat="43.67293" lon="3.88223">
        <ele>132</ele>
        <time>2021-03-21T11:09:36Z</time>
      </trkpt>
      <trkpt lat="43.67291" lon="3.88222">
        <ele>132</ele>
        <time>2021-03-21T11:09:37Z</time>
      </trkpt>
      <trkpt lat="43.67289" lon="3.88221">
        <ele>132</ele>
        <time>2021-03-21T11:09:38Z</time>
      </trkpt>
      <trkpt lat="43.67287" lon="3.88221">
        <ele>132</ele>
        <time>2021-03-21T11:09:39Z</time>
      </trkpt>
      <trkpt lat="43.67285" lon="3.88221">
        <ele>133</ele>
        <time>2021-03-21T11:09:40Z</time>
      </trkpt>
      <trkpt lat="43.67283" lon="3.88222">
        <ele>133</ele>
        <time>2021-03-21T11:09:41Z</time>
      </trkpt>
      <trkpt lat="43.6728" lon="3.88225">
        <ele>133</ele>
        <time>2021-03-21T11:09:43Z</time>
      </trkpt>
      <trkpt lat="43.67277" lon="3.88226">
        <ele>133</ele>
        <time>2021-03-21T11:09:44Z</time>
      </trkpt>
      <trkpt lat="43.67273" lon="3.8823">
        <ele>133</ele>
        <time>2021-03-21T11:09:45Z</time>
      </trkpt>
      <trkpt lat="43.6727" lon="3.88236">
        <ele>133</ele>
        <time>2021-03-21T11:09:46Z</time>
      </trkpt>
      <trkpt lat="43.67267" lon="3.88241">
        <ele>133</ele>
        <time>2021-03-21T11:09:47Z</time>
      </trkpt>
      <trkpt lat="43.67264" lon="3.88245">
        <ele>133</ele>
        <time>2021-03-21T11:09:48Z</time>
      </trkpt>
      <trkpt lat="43.67261" lon="3.88249">
        <ele>133</ele>
        <time>2021-03-21T11:09:49Z</time>
      </trkpt>
      <trkpt lat="43.67259" lon="3.88251">
        <ele>133</ele>
        <time>2021-03-21T11:09:50Z</time>
      </trkpt>
      <trkpt lat="43.67257" lon="3.88254">
        <ele>133</ele>
        <time>2021-03-21T11:09:51Z</time>
      </trkpt>
      <trkpt lat="43.67254" lon="3.88256">
        <ele>133</ele>
        <time>2021-03-21T11:09:52Z</time>
      </trkpt>
      <trkpt lat="43.67251" lon="3.88258">
        <ele>133</ele>
        <time>2021-03-21T11:09:53Z</time>
      </trkpt>
      <trkpt lat="43.67249" lon="3.8826">
        <ele>133</ele>
        <time>2021-03-21T11:09:54Z</time>
      </trkpt>
      <trkpt lat="43.67246" lon="3.88263">
        <ele>133</ele>
        <time>2021-03-21T11:09:55Z</time>
      </trkpt>
      <trkpt lat="43.67244" lon="3.88265">
        <ele>133</ele>
        <time>2021-03-21T11:09:56Z</time>
      </trkpt>
      <trkpt lat="43.67241" lon="3.88267">
        <ele>133</ele>
        <time>2021-03-21T11:09:57Z</time>
      </trkpt>
      <trkpt lat="43.67239" lon="3.88269">
        <ele>133</ele>
        <time>2021-03-21T11:09:58Z</time>
      </trkpt>
      <trkpt lat="43.67236" lon="3.88272">
        <ele>133</ele>
        <time>2021-03-21T11:09:59Z</time>
      </trkpt>
      <trkpt lat="43.67234" lon="3.88275">
        <ele>132</ele>
        <time>2021-03-21T11:10:00Z</time>
      </trkpt>
      <trkpt lat="43.67232" lon="3.88279">
        <ele>132</ele>
        <time>2021-03-21T11:10:01Z</time>
      </trkpt>
      <trkpt lat="43.6723" lon="3.88284">
        <ele>132</ele>
        <time>2021-03-21T11:10:02Z</time>
      </trkpt>
      <trkpt lat="43.67227" lon="3.88289">
        <ele>132</ele>
        <time>2021-03-21T11:10:03Z</time>
      </trkpt>
      <trkpt lat="43.67224" lon="3.88294">
        <ele>132</ele>
        <time>2021-03-21T11:10:04Z</time>
      </trkpt>
      <trkpt lat="43.6722" lon="3.88297">
        <ele>132</ele>
        <time>2021-03-21T11:10:05Z</time>
      </trkpt>
      <trkpt lat="43.67217" lon="3.88299">
        <ele>132</ele>
        <time>2021-03-21T11:10:06Z</time>
      </trkpt>
      <trkpt lat="43.67213" lon="3.88299">
        <ele>132</ele>
        <time>2021-03-21T11:10:07Z</time>
      </trkpt>
      <trkpt lat="43.67209" lon="3.88298">
        <ele>132</ele>
        <time>2021-03-21T11:10:08Z</time>
      </trkpt>
      <trkpt lat="43.67207" lon="3.88297">
        <ele>132</ele>
        <time>2021-03-21T11:10:09Z</time>
      </trkpt>
      <trkpt lat="43.67204" lon="3.88296">
        <ele>131</ele>
        <time>2021-03-21T11:10:10Z</time>
      </trkpt>
      <trkpt lat="43.67202" lon="3.88296">
        <ele>131</ele>
        <time>2021-03-21T11:10:11Z</time>
      </trkpt>
      <trkpt lat="43.672" lon="3.88295">
        <ele>131</ele>
        <time>2021-03-21T11:10:12Z</time>
      </trkpt>
      <trkpt lat="43.67198" lon="3.88293">
        <ele>131</ele>
        <time>2021-03-21T11:10:14Z</time>
      </trkpt>
      <trkpt lat="43.67195" lon="3.88292">
        <ele>131</ele>
        <time>2021-03-21T11:10:16Z</time>
      </trkpt>
      <trkpt lat="43.67193" lon="3.88291">
        <ele>131</ele>
        <time>2021-03-21T11:10:18Z</time>
      </trkpt>
      <trkpt lat="43.67189" lon="3.88289">
        <ele>131</ele>
        <time>2021-03-21T11:10:20Z</time>
      </trkpt>
      <trkpt lat="43.67187" lon="3.88288">
        <ele>131</ele>
        <time>2021-03-21T11:10:21Z</time>
      </trkpt>
      <trkpt lat="43.67186" lon="3.88286">
        <ele>131</ele>
        <time>2021-03-21T11:10:22Z</time>
      </trkpt>
      <trkpt lat="43.67184" lon="3.88285">
        <ele>131</ele>
        <time>2021-03-21T11:10:24Z</time>
      </trkpt>
      <trkpt lat="43.67182" lon="3.88288">
        <ele>131</ele>
        <time>2021-03-21T11:10:26Z</time>
      </trkpt>
      <trkpt lat="43.67183" lon="3.88291">
        <ele>131</ele>
        <time>2021-03-21T11:10:28Z</time>
      </trkpt>
      <trkpt lat="43.67186" lon="3.88294">
        <ele>130</ele>
        <time>2021-03-21T11:10:30Z</time>
      </trkpt>
      <trkpt lat="43.67187" lon="3.88294">
        <ele>130</ele>
        <time>2021-03-21T11:10:31Z</time>
      </trkpt>
      <trkpt lat="43.67189" lon="3.88296">
        <ele>130</ele>
        <time>2021-03-21T11:10:32Z</time>
      </trkpt>
      <trkpt lat="43.6719" lon="3.88299">
        <ele>130</ele>
        <time>2021-03-21T11:10:33Z</time>
      </trkpt>
      <trkpt lat="43.67189" lon="3.88301">
        <ele>130</ele>
        <time>2021-03-21T11:10:34Z</time>
      </trkpt>
      <trkpt lat="43.67189" lon="3.88305">
        <ele>130</ele>
        <time>2021-03-21T11:10:36Z</time>
      </trkpt>
      <trkpt lat="43.6719" lon="3.88305">
        <ele>129</ele>
        <time>2021-03-21T11:10:43Z</time>
      </trkpt>
      <trkpt lat="43.67189" lon="3.88316">
        <ele>129</ele>
        <time>2021-03-21T11:10:55Z</time>
      </trkpt>
      <trkpt lat="43.67189" lon="3.8832">
        <ele>129</ele>
        <time>2021-03-21T11:10:56Z</time>
      </trkpt>
      <trkpt lat="43.67189" lon="3.88324">
        <ele>129</ele>
        <time>2021-03-21T11:10:58Z</time>
      </trkpt>
      <trkpt lat="43.67189" lon="3.88328">
        <ele>129</ele>
        <time>2021-03-21T11:11:00Z</time>
      </trkpt>
      <trkpt lat="43.67189" lon="3.88331">
        <ele>129</ele>
        <time>2021-03-21T11:11:01Z</time>
      </trkpt>
      <trkpt lat="43.6719" lon="3.88333">
        <ele>129</ele>
        <time>2021-03-21T11:11:03Z</time>
      </trkpt>
      <trkpt lat="43.67192" lon="3.88338">
        <ele>129</ele>
        <time>2021-03-21T11:11:05Z</time>
      </trkpt>
      <trkpt lat="43.67193" lon="3.88341">
        <ele>129</ele>
        <time>2021-03-21T11:11:06Z</time>
      </trkpt>
      <trkpt lat="43.67195" lon="3.88343">
        <ele>129</ele>
        <time>2021-03-21T11:11:07Z</time>
      </trkpt>
      <trkpt lat="43.67196" lon="3.88346">
        <ele>129</ele>
        <time>2021-03-21T11:11:08Z</time>
      </trkpt>
      <trkpt lat="43.67198" lon="3.8835">
        <ele>129</ele>
        <time>2021-03-21T11:11:09Z</time>
      </trkpt>
      <trkpt lat="43.672" lon="3.88353">
        <ele>129</ele>
        <time>2021-03-21T11:11:10Z</time>
      </trkpt>
      <trkpt lat="43.67203" lon="3.88357">
        <ele>129</ele>
        <time>2021-03-21T11:11:11Z</time>
      </trkpt>
      <trkpt lat="43.67205" lon="3.88358">
        <ele>129</ele>
        <time>2021-03-21T11:11:12Z</time>
      </trkpt>
      <trkpt lat="43.67208" lon="3.88359">
        <ele>129</ele>
        <time>2021-03-21T11:11:13Z</time>
      </trkpt>
      <trkpt lat="43.6721" lon="3.88358">
        <ele>126</ele>
        <time>2021-03-21T11:11:14Z</time>
      </trkpt>
      <trkpt lat="43.67213" lon="3.88358">
        <ele>126</ele>
        <time>2021-03-21T11:11:15Z</time>
      </trkpt>
      <trkpt lat="43.67216" lon="3.88357">
        <ele>126</ele>
        <time>2021-03-21T11:11:16Z</time>
      </trkpt>
      <trkpt lat="43.67219" lon="3.88358">
        <ele>126</ele>
        <time>2021-03-21T11:11:17Z</time>
      </trkpt>
      <trkpt lat="43.67221" lon="3.88359">
        <ele>126</ele>
        <time>2021-03-21T11:11:18Z</time>
      </trkpt>
      <trkpt lat="43.67222" lon="3.88361">
        <ele>126</ele>
        <time>2021-03-21T11:11:19Z</time>
      </trkpt>
      <trkpt lat="43.67223" lon="3.88364">
        <ele>126</ele>
        <time>2021-03-21T11:11:20Z</time>
      </trkpt>
      <trkpt lat="43.67224" lon="3.88367">
        <ele>126</ele>
        <time>2021-03-21T11:11:22Z</time>
      </trkpt>
      <trkpt lat="43.67225" lon="3.88369">
        <ele>126</ele>
        <time>2021-03-21T11:11:31Z</time>
      </trkpt>
      <trkpt lat="43.67225" lon="3.88386">
        <ele>122</ele>
        <time>2021-03-21T11:11:36Z</time>
      </trkpt>
      <trkpt lat="43.67224" lon="3.88388">
        <ele>122</ele>
        <time>2021-03-21T11:11:37Z</time>
      </trkpt>
      <trkpt lat="43.67224" lon="3.88391">
        <ele>122</ele>
        <time>2021-03-21T11:11:38Z</time>
      </trkpt>
      <trkpt lat="43.67223" lon="3.88393">
        <ele>122</ele>
        <time>2021-03-21T11:11:39Z</time>
      </trkpt>
      <trkpt lat="43.67221" lon="3.88396">
        <ele>122</ele>
        <time>2021-03-21T11:11:41Z</time>
      </trkpt>
      <trkpt lat="43.67219" lon="3.88397">
        <ele>122</ele>
        <time>2021-03-21T11:11:43Z</time>
      </trkpt>
      <trkpt lat="43.67215" lon="3.88399">
        <ele>120</ele>
        <time>2021-03-21T11:11:45Z</time>
      </trkpt>
      <trkpt lat="43.67213" lon="3.88399">
        <ele>120</ele>
        <time>2021-03-21T11:11:46Z</time>
      </trkpt>
      <trkpt lat="43.67211" lon="3.88399">
        <ele>120</ele>
        <time>2021-03-21T11:11:47Z</time>
      </trkpt>
      <trkpt lat="43.67209" lon="3.884">
        <ele>120</ele>
        <time>2021-03-21T11:11:48Z</time>
      </trkpt>
      <trkpt lat="43.67207" lon="3.884">
        <ele>120</ele>
        <time>2021-03-21T11:11:49Z</time>
      </trkpt>
      <trkpt lat="43.67204" lon="3.88404">
        <ele>120</ele>
        <time>2021-03-21T11:11:51Z</time>
      </trkpt>
      <trkpt lat="43.67202" lon="3.88406">
        <ele>120</ele>
        <time>2021-03-21T11:11:52Z</time>
      </trkpt>
      <trkpt lat="43.672" lon="3.88408">
        <ele>120</ele>
        <time>2021-03-21T11:11:53Z</time>
      </trkpt>
      <trkpt lat="43.67197" lon="3.8841">
        <ele>120</ele>
        <time>2021-03-21T11:11:54Z</time>
      </trkpt>
      <trkpt lat="43.67195" lon="3.88411">
        <ele>119</ele>
        <time>2021-03-21T11:11:55Z</time>
      </trkpt>
      <trkpt lat="43.67191" lon="3.88412">
        <ele>119</ele>
        <time>2021-03-21T11:11:56Z</time>
      </trkpt>
      <trkpt lat="43.67189" lon="3.88412">
        <ele>119</ele>
        <time>2021-03-21T11:11:57Z</time>
      </trkpt>
      <trkpt lat="43.67186" lon="3.8841">
        <ele>119</ele>
        <time>2021-03-21T11:11:58Z</time>
      </trkpt>
      <trkpt lat="43.67184" lon="3.88407">
        <ele>119</ele>
        <time>2021-03-21T11:11:59Z</time>
      </trkpt>
      <trkpt lat="43.67183" lon="3.88404">
        <ele>119</ele>
        <time>2021-03-21T11:12:00Z</time>
      </trkpt>
      <trkpt lat="43.67181" lon="3.884">
        <ele>119</ele>
        <time>2021-03-21T11:12:02Z</time>
      </trkpt>
      <trkpt lat="43.67177" lon="3.88397">
        <ele>119</ele>
        <time>2021-03-21T11:12:04Z</time>
      </trkpt>
      <trkpt lat="43.67175" lon="3.88396">
        <ele>118</ele>
        <time>2021-03-21T11:12:05Z</time>
      </trkpt>
      <trkpt lat="43.67173" lon="3.88395">
        <ele>118</ele>
        <time>2021-03-21T11:12:06Z</time>
      </trkpt>
      <trkpt lat="43.67171" lon="3.88394">
        <ele>118</ele>
        <time>2021-03-21T11:12:07Z</time>
      </trkpt>
      <trkpt lat="43.67169" lon="3.88392">
        <ele>118</ele>
        <time>2021-03-21T11:12:08Z</time>
      </trkpt>
      <trkpt lat="43.67167" lon="3.88392">
        <ele>118</ele>
        <time>2021-03-21T11:12:09Z</time>
      </trkpt>
      <trkpt lat="43.67165" lon="3.88392">
        <ele>118</ele>
        <time>2021-03-21T11:12:10Z</time>
      </trkpt>
      <trkpt lat="43.67162" lon="3.88392">
        <ele>118</ele>
        <time>2021-03-21T11:12:11Z</time>
      </trkpt>
      <trkpt lat="43.67159" lon="3.88392">
        <ele>118</ele>
        <time>2021-03-21T11:12:12Z</time>
      </trkpt>
      <trkpt lat="43.67156" lon="3.88392">
        <ele>118</ele>
        <time>2021-03-21T11:12:13Z</time>
      </trkpt>
      <trkpt lat="43.67152" lon="3.88392">
        <ele>118</ele>
        <time>2021-03-21T11:12:14Z</time>
      </trkpt>
      <trkpt lat="43.67149" lon="3.88391">
        <ele>118</ele>
        <time>2021-03-21T11:12:15Z</time>
      </trkpt>
      <trkpt lat="43.67146" lon="3.88389">
        <ele>118</ele>
        <time>2021-03-21T11:12:16Z</time>
      </trkpt>
      <trkpt lat="43.67144" lon="3.88388">
        <ele>118</ele>
        <time>2021-03-21T11:12:17Z</time>
      </trkpt>
      <trkpt lat="43.67141" lon="3.88386">
        <ele>118</ele>
        <time>2021-03-21T11:12:18Z</time>
      </trkpt>
      <trkpt lat="43.67139" lon="3.88384">
        <ele>118</ele>
        <time>2021-03-21T11:12:19Z</time>
      </trkpt>
      <trkpt lat="43.67135" lon="3.88381">
        <ele>118</ele>
        <time>2021-03-21T11:12:20Z</time>
      </trkpt>
      <trkpt lat="43.67132" lon="3.8838">
        <ele>118</ele>
        <time>2021-03-21T11:12:21Z</time>
      </trkpt>
      <trkpt lat="43.67129" lon="3.88379">
        <ele>118</ele>
        <time>2021-03-21T11:12:22Z</time>
      </trkpt>
      <trkpt lat="43.67126" lon="3.88379">
        <ele>118</ele>
        <time>2021-03-21T11:12:23Z</time>
      </trkpt>
      <trkpt lat="43.67124" lon="3.88379">
        <ele>118</ele>
        <time>2021-03-21T11:12:24Z</time>
      </trkpt>
      <trkpt lat="43.67122" lon="3.8838">
        <ele>117</ele>
        <time>2021-03-21T11:12:25Z</time>
      </trkpt>
      <trkpt lat="43.67119" lon="3.8838">
        <ele>117</ele>
        <time>2021-03-21T11:12:26Z</time>
      </trkpt>
      <trkpt lat="43.67115" lon="3.88381">
        <ele>117</ele>
        <time>2021-03-21T11:12:27Z</time>
      </trkpt>
      <trkpt lat="43.6711" lon="3.88383">
        <ele>117</ele>
        <time>2021-03-21T11:12:28Z</time>
      </trkpt>
      <trkpt lat="43.67108" lon="3.88386">
        <ele>117</ele>
        <time>2021-03-21T11:12:29Z</time>
      </trkpt>
      <trkpt lat="43.67106" lon="3.88389">
        <ele>117</ele>
        <time>2021-03-21T11:12:30Z</time>
      </trkpt>
      <trkpt lat="43.67104" lon="3.88394">
        <ele>117</ele>
        <time>2021-03-21T11:12:31Z</time>
      </trkpt>
      <trkpt lat="43.67102" lon="3.88399">
        <ele>117</ele>
        <time>2021-03-21T11:12:32Z</time>
      </trkpt>
      <trkpt lat="43.671" lon="3.88402">
        <ele>117</ele>
        <time>2021-03-21T11:12:33Z</time>
      </trkpt>
      <trkpt lat="43.67098" lon="3.88403">
        <ele>115</ele>
        <time>2021-03-21T11:12:34Z</time>
      </trkpt>
      <trkpt lat="43.67096" lon="3.88399">
        <ele>115</ele>
        <time>2021-03-21T11:12:36Z</time>
      </trkpt>
      <trkpt lat="43.67094" lon="3.88397">
        <ele>115</ele>
        <time>2021-03-21T11:12:37Z</time>
      </trkpt>
      <trkpt lat="43.67093" lon="3.88392">
        <ele>115</ele>
        <time>2021-03-21T11:12:39Z</time>
      </trkpt>
      <trkpt lat="43.67092" lon="3.88389">
        <ele>115</ele>
        <time>2021-03-21T11:12:40Z</time>
      </trkpt>
      <trkpt lat="43.67091" lon="3.88386">
        <ele>115</ele>
        <time>2021-03-21T11:12:41Z</time>
      </trkpt>
      <trkpt lat="43.6709" lon="3.88382">
        <ele>115</ele>
        <time>2021-03-21T11:12:42Z</time>
      </trkpt>
      <trkpt lat="43.67089" lon="3.8838">
        <ele>115</ele>
        <time>2021-03-21T11:12:43Z</time>
      </trkpt>
      <trkpt lat="43.67088" lon="3.88377">
        <ele>115</ele>
        <time>2021-03-21T11:12:44Z</time>
      </trkpt>
      <trkpt lat="43.67087" lon="3.88375">
        <ele>113</ele>
        <time>2021-03-21T11:12:45Z</time>
      </trkpt>
      <trkpt lat="43.67085" lon="3.88372">
        <ele>113</ele>
        <time>2021-03-21T11:12:46Z</time>
      </trkpt>
      <trkpt lat="43.67083" lon="3.8837">
        <ele>113</ele>
        <time>2021-03-21T11:12:47Z</time>
      </trkpt>
      <trkpt lat="43.67081" lon="3.88367">
        <ele>113</ele>
        <time>2021-03-21T11:12:48Z</time>
      </trkpt>
      <trkpt lat="43.67079" lon="3.88364">
        <ele>113</ele>
        <time>2021-03-21T11:12:49Z</time>
      </trkpt>
      <trkpt lat="43.67077" lon="3.88362">
        <ele>113</ele>
        <time>2021-03-21T11:12:50Z</time>
      </trkpt>
      <trkpt lat="43.67075" lon="3.8836">
        <ele>113</ele>
        <time>2021-03-21T11:12:51Z</time>
      </trkpt>
      <trkpt lat="43.67073" lon="3.88358">
        <ele>113</ele>
        <time>2021-03-21T11:12:52Z</time>
      </trkpt>
      <trkpt lat="43.67071" lon="3.88356">
        <ele>113</ele>
        <time>2021-03-21T11:12:53Z</time>
      </trkpt>
      <trkpt lat="43.67069" lon="3.88353">
        <ele>113</ele>
        <time>2021-03-21T11:12:54Z</time>
      </trkpt>
      <trkpt lat="43.67067" lon="3.88351">
        <ele>111</ele>
        <time>2021-03-21T11:12:55Z</time>
      </trkpt>
      <trkpt lat="43.67064" lon="3.88349">
        <ele>111</ele>
        <time>2021-03-21T11:12:56Z</time>
      </trkpt>
      <trkpt lat="43.67061" lon="3.88346">
        <ele>111</ele>
        <time>2021-03-21T11:12:57Z</time>
      </trkpt>
      <trkpt lat="43.67058" lon="3.88344">
        <ele>111</ele>
        <time>2021-03-21T11:12:58Z</time>
      </trkpt>
      <trkpt lat="43.67056" lon="3.8834">
        <ele>111</ele>
        <time>2021-03-21T11:12:59Z</time>
      </trkpt>
      <trkpt lat="43.67053" lon="3.88336">
        <ele>111</ele>
        <time>2021-03-21T11:13:00Z</time>
      </trkpt>
      <trkpt lat="43.67051" lon="3.88332">
        <ele>111</ele>
        <time>2021-03-21T11:13:01Z</time>
      </trkpt>
      <trkpt lat="43.67049" lon="3.88327">
        <ele>111</ele>
        <time>2021-03-21T11:13:02Z</time>
      </trkpt>
      <trkpt lat="43.67047" lon="3.88323">
        <ele>111</ele>
        <time>2021-03-21T11:13:03Z</time>
      </trkpt>
      <trkpt lat="43.67045" lon="3.88319">
        <ele>111</ele>
        <time>2021-03-21T11:13:04Z</time>
      </trkpt>
      <trkpt lat="43.67043" lon="3.88314">
        <ele>110</ele>
        <time>2021-03-21T11:13:05Z</time>
      </trkpt>
      <trkpt lat="43.67043" lon="3.88309">
        <ele>110</ele>
        <time>2021-03-21T11:13:06Z</time>
      </trkpt>
      <trkpt lat="43.67043" lon="3.88304">
        <ele>110</ele>
        <time>2021-03-21T11:13:07Z</time>
      </trkpt>
      <trkpt lat="43.67044" lon="3.883">
        <ele>110</ele>
        <time>2021-03-21T11:13:08Z</time>
      </trkpt>
      <trkpt lat="43.67043" lon="3.88296">
        <ele>110</ele>
        <time>2021-03-21T11:13:09Z</time>
      </trkpt>
      <trkpt lat="43.67042" lon="3.88293">
        <ele>110</ele>
        <time>2021-03-21T11:13:10Z</time>
      </trkpt>
      <trkpt lat="43.67042" lon="3.8829">
        <ele>110</ele>
        <time>2021-03-21T11:13:11Z</time>
      </trkpt>
      <trkpt lat="43.6704" lon="3.88288">
        <ele>110</ele>
        <time>2021-03-21T11:13:12Z</time>
      </trkpt>
      <trkpt lat="43.67039" lon="3.88286">
        <ele>110</ele>
        <time>2021-03-21T11:13:13Z</time>
      </trkpt>
      <trkpt lat="43.67036" lon="3.88286">
        <ele>110</ele>
        <time>2021-03-21T11:13:14Z</time>
      </trkpt>
      <trkpt lat="43.67033" lon="3.88287">
        <ele>110</ele>
        <time>2021-03-21T11:13:15Z</time>
      </trkpt>
      <trkpt lat="43.67031" lon="3.88288">
        <ele>110</ele>
        <time>2021-03-21T11:13:16Z</time>
      </trkpt>
      <trkpt lat="43.67027" lon="3.88287">
        <ele>110</ele>
        <time>2021-03-21T11:13:17Z</time>
      </trkpt>
      <trkpt lat="43.67024" lon="3.88285">
        <ele>110</ele>
        <time>2021-03-21T11:13:18Z</time>
      </trkpt>
      <trkpt lat="43.67022" lon="3.88283">
        <ele>110</ele>
        <time>2021-03-21T11:13:19Z</time>
      </trkpt>
      <trkpt lat="43.6702" lon="3.88281">
        <ele>110</ele>
        <time>2021-03-21T11:13:20Z</time>
      </trkpt>
      <trkpt lat="43.67019" lon="3.88277">
        <ele>110</ele>
        <time>2021-03-21T11:13:21Z</time>
      </trkpt>
      <trkpt lat="43.67017" lon="3.88273">
        <ele>110</ele>
        <time>2021-03-21T11:13:22Z</time>
      </trkpt>
      <trkpt lat="43.67015" lon="3.88269">
        <ele>110</ele>
        <time>2021-03-21T11:13:23Z</time>
      </trkpt>
      <trkpt lat="43.67012" lon="3.88265">
        <ele>110</ele>
        <time>2021-03-21T11:13:24Z</time>
      </trkpt>
      <trkpt lat="43.6701" lon="3.88263">
        <ele>111</ele>
        <time>2021-03-21T11:13:25Z</time>
      </trkpt>
      <trkpt lat="43.67008" lon="3.88262">
        <ele>111</ele>
        <time>2021-03-21T11:13:26Z</time>
      </trkpt>
      <trkpt lat="43.67006" lon="3.8826">
        <ele>111</ele>
        <time>2021-03-21T11:13:27Z</time>
      </trkpt>
      <trkpt lat="43.67003" lon="3.88259">
        <ele>111</ele>
        <time>2021-03-21T11:13:28Z</time>
      </trkpt>
      <trkpt lat="43.67001" lon="3.88257">
        <ele>111</ele>
        <time>2021-03-21T11:13:29Z</time>
      </trkpt>
      <trkpt lat="43.66998" lon="3.88256">
        <ele>111</ele>
        <time>2021-03-21T11:13:30Z</time>
      </trkpt>
      <trkpt lat="43.66995" lon="3.88255">
        <ele>111</ele>
        <time>2021-03-21T11:13:31Z</time>
      </trkpt>
      <trkpt lat="43.66993" lon="3.88254">
        <ele>111</ele>
        <time>2021-03-21T11:13:32Z</time>
      </trkpt>
      <trkpt lat="43.66991" lon="3.88252">
        <ele>111</ele>
        <time>2021-03-21T11:13:33Z</time>
      </trkpt>
      <trkpt lat="43.66988" lon="3.88252">
        <ele>111</ele>
        <time>2021-03-21T11:13:34Z</time>
      </trkpt>
      <trkpt lat="43.66984" lon="3.88252">
        <ele>111</ele>
        <time>2021-03-21T11:13:35Z</time>
      </trkpt>
      <trkpt lat="43.66981" lon="3.88253">
        <ele>111</ele>
        <time>2021-03-21T11:13:36Z</time>
      </trkpt>
      <trkpt lat="43.66978" lon="3.88254">
        <ele>111</ele>
        <time>2021-03-21T11:13:37Z</time>
      </trkpt>
      <trkpt lat="43.66974" lon="3.88255">
        <ele>111</ele>
        <time>2021-03-21T11:13:38Z</time>
      </trkpt>
      <trkpt lat="43.6697" lon="3.88257">
        <ele>111</ele>
        <time>2021-03-21T11:13:39Z</time>
      </trkpt>
      <trkpt lat="43.66967" lon="3.88259">
        <ele>111</ele>
        <time>2021-03-21T11:13:40Z</time>
      </trkpt>
      <trkpt lat="43.66965" lon="3.88261">
        <ele>111</ele>
        <time>2021-03-21T11:13:41Z</time>
      </trkpt>
      <trkpt lat="43.66962" lon="3.88264">
        <ele>111</ele>
        <time>2021-03-21T11:13:42Z</time>
      </trkpt>
      <trkpt lat="43.66959" lon="3.88269">
        <ele>111</ele>
        <time>2021-03-21T11:13:43Z</time>
      </trkpt>
      <trkpt lat="43.66958" lon="3.88276">
        <ele>111</ele>
        <time>2021-03-21T11:13:44Z</time>
      </trkpt>
      <trkpt lat="43.66956" lon="3.88284">
        <ele>111</ele>
        <time>2021-03-21T11:13:45Z</time>
      </trkpt>
      <trkpt lat="43.66955" lon="3.88294">
        <ele>111</ele>
        <time>2021-03-21T11:13:46Z</time>
      </trkpt>
      <trkpt lat="43.66954" lon="3.88304">
        <ele>111</ele>
        <time>2021-03-21T11:13:47Z</time>
      </trkpt>
      <trkpt lat="43.66952" lon="3.88314">
        <ele>111</ele>
        <time>2021-03-21T11:13:48Z</time>
      </trkpt>
      <trkpt lat="43.6695" lon="3.88323">
        <ele>111</ele>
        <time>2021-03-21T11:13:49Z</time>
      </trkpt>
      <trkpt lat="43.66949" lon="3.88331">
        <ele>111</ele>
        <time>2021-03-21T11:13:50Z</time>
      </trkpt>
      <trkpt lat="43.66948" lon="3.88339">
        <ele>111</ele>
        <time>2021-03-21T11:13:51Z</time>
      </trkpt>
      <trkpt lat="43.66946" lon="3.88344">
        <ele>111</ele>
        <time>2021-03-21T11:13:52Z</time>
      </trkpt>
      <trkpt lat="43.66942" lon="3.88347">
        <ele>111</ele>
        <time>2021-03-21T11:13:53Z</time>
      </trkpt>
      <trkpt lat="43.6694" lon="3.88348">
        <ele>111</ele>
        <time>2021-03-21T11:13:54Z</time>
      </trkpt>
      <trkpt lat="43.66938" lon="3.88347">
        <ele>111</ele>
        <time>2021-03-21T11:13:58Z</time>
      </trkpt>
      <trkpt lat="43.66936" lon="3.88347">
        <ele>111</ele>
        <time>2021-03-21T11:13:59Z</time>
      </trkpt>
      <trkpt lat="43.66934" lon="3.88346">
        <ele>111</ele>
        <time>2021-03-21T11:14:00Z</time>
      </trkpt>
      <trkpt lat="43.66931" lon="3.88345">
        <ele>111</ele>
        <time>2021-03-21T11:14:01Z</time>
      </trkpt>
      <trkpt lat="43.66927" lon="3.88344">
        <ele>111</ele>
        <time>2021-03-21T11:14:02Z</time>
      </trkpt>
      <trkpt lat="43.66923" lon="3.88342">
        <ele>111</ele>
        <time>2021-03-21T11:14:03Z</time>
      </trkpt>
      <trkpt lat="43.66921" lon="3.88341">
        <ele>104</ele>
        <time>2021-03-21T11:14:04Z</time>
      </trkpt>
      <trkpt lat="43.66919" lon="3.88342">
        <ele>104</ele>
        <time>2021-03-21T11:14:06Z</time>
      </trkpt>
      <trkpt lat="43.66918" lon="3.88342">
        <ele>104</ele>
        <time>2021-03-21T11:14:15Z</time>
      </trkpt>
      <trkpt lat="43.66917" lon="3.8834">
        <ele>104</ele>
        <time>2021-03-21T11:14:27Z</time>
      </trkpt>
      <trkpt lat="43.66919" lon="3.8834">
        <ele>104</ele>
        <time>2021-03-21T11:14:29Z</time>
      </trkpt>
      <trkpt lat="43.66921" lon="3.8834">
        <ele>104</ele>
        <time>2021-03-21T11:14:30Z</time>
      </trkpt>
      <trkpt lat="43.66924" lon="3.88341">
        <ele>104</ele>
        <time>2021-03-21T11:14:31Z</time>
      </trkpt>
      <trkpt lat="43.66927" lon="3.88343">
        <ele>104</ele>
        <time>2021-03-21T11:14:32Z</time>
      </trkpt>
      <trkpt lat="43.6693" lon="3.88344">
        <ele>104</ele>
        <time>2021-03-21T11:14:33Z</time>
      </trkpt>
      <trkpt lat="43.66933" lon="3.88345">
        <ele>104</ele>
        <time>2021-03-21T11:14:34Z</time>
      </trkpt>
      <trkpt lat="43.66935" lon="3.88345">
        <ele>104</ele>
        <time>2021-03-21T11:14:35Z</time>
      </trkpt>
      <trkpt lat="43.66937" lon="3.88345">
        <ele>103</ele>
        <time>2021-03-21T11:14:37Z</time>
      </trkpt>
      <trkpt lat="43.66937" lon="3.88342">
        <ele>103</ele>
        <time>2021-03-21T11:14:40Z</time>
      </trkpt>
      <trkpt lat="43.66935" lon="3.88342">
        <ele>103</ele>
        <time>2021-03-21T11:14:42Z</time>
      </trkpt>
      <trkpt lat="43.66913" lon="3.88338">
        <ele>102</ele>
        <time>2021-03-21T11:15:07Z</time>
      </trkpt>
      <trkpt lat="43.6691" lon="3.88336">
        <ele>102</ele>
        <time>2021-03-21T11:15:08Z</time>
      </trkpt>
      <trkpt lat="43.66907" lon="3.88334">
        <ele>102</ele>
        <time>2021-03-21T11:15:09Z</time>
      </trkpt>
      <trkpt lat="43.66904" lon="3.88332">
        <ele>102</ele>
        <time>2021-03-21T11:15:10Z</time>
      </trkpt>
      <trkpt lat="43.66903" lon="3.88331">
        <ele>102</ele>
        <time>2021-03-21T11:15:12Z</time>
      </trkpt>
      <trkpt lat="43.669" lon="3.88329">
        <ele>102</ele>
        <time>2021-03-21T11:15:13Z</time>
      </trkpt>
      <trkpt lat="43.66898" lon="3.88327">
        <ele>102</ele>
        <time>2021-03-21T11:15:15Z</time>
      </trkpt>
      <trkpt lat="43.66895" lon="3.88326">
        <ele>102</ele>
        <time>2021-03-21T11:15:17Z</time>
      </trkpt>
      <trkpt lat="43.66893" lon="3.88324">
        <ele>102</ele>
        <time>2021-03-21T11:15:19Z</time>
      </trkpt>
      <trkpt lat="43.66891" lon="3.88321">
        <ele>102</ele>
        <time>2021-03-21T11:15:21Z</time>
      </trkpt>
      <trkpt lat="43.66889" lon="3.88321">
        <ele>102</ele>
        <time>2021-03-21T11:15:23Z</time>
      </trkpt>
      <trkpt lat="43.66885" lon="3.88318">
        <ele>102</ele>
        <time>2021-03-21T11:15:25Z</time>
      </trkpt>
      <trkpt lat="43.66883" lon="3.88315">
        <ele>102</ele>
        <time>2021-03-21T11:15:27Z</time>
      </trkpt>
      <trkpt lat="43.66881" lon="3.88313">
        <ele>102</ele>
        <time>2021-03-21T11:15:28Z</time>
      </trkpt>
      <trkpt lat="43.66878" lon="3.88311">
        <ele>102</ele>
        <time>2021-03-21T11:15:30Z</time>
      </trkpt>
      <trkpt lat="43.66876" lon="3.8831">
        <ele>102</ele>
        <time>2021-03-21T11:15:31Z</time>
      </trkpt>
      <trkpt lat="43.66874" lon="3.88309">
        <ele>102</ele>
        <time>2021-03-21T11:15:33Z</time>
      </trkpt>
      <trkpt lat="43.66871" lon="3.88307">
        <ele>102</ele>
        <time>2021-03-21T11:15:35Z</time>
      </trkpt>
      <trkpt lat="43.66871" lon="3.88308">
        <ele>110</ele>
        <time>2021-03-21T11:15:45Z</time>
      </trkpt>
      <trkpt lat="43.66861" lon="3.88304">
        <ele>111</ele>
        <time>2021-03-21T11:16:23Z</time>
      </trkpt>
      <trkpt lat="43.66859" lon="3.88304">
        <ele>111</ele>
        <time>2021-03-21T11:16:25Z</time>
      </trkpt>
      <trkpt lat="43.66857" lon="3.88302">
        <ele>111</ele>
        <time>2021-03-21T11:16:27Z</time>
      </trkpt>
      <trkpt lat="43.66853" lon="3.883">
        <ele>111</ele>
        <time>2021-03-21T11:16:29Z</time>
      </trkpt>
      <trkpt lat="43.6685" lon="3.88298">
        <ele>111</ele>
        <time>2021-03-21T11:16:31Z</time>
      </trkpt>
      <trkpt lat="43.66849" lon="3.88298">
        <ele>111</ele>
        <time>2021-03-21T11:16:32Z</time>
      </trkpt>
      <trkpt lat="43.66845" lon="3.88296">
        <ele>111</ele>
        <time>2021-03-21T11:16:34Z</time>
      </trkpt>
      <trkpt lat="43.66843" lon="3.88296">
        <ele>111</ele>
        <time>2021-03-21T11:16:35Z</time>
      </trkpt>
      <trkpt lat="43.66841" lon="3.88295">
        <ele>111</ele>
        <time>2021-03-21T11:16:36Z</time>
      </trkpt>
      <trkpt lat="43.66839" lon="3.88294">
        <ele>111</ele>
        <time>2021-03-21T11:16:37Z</time>
      </trkpt>
      <trkpt lat="43.66837" lon="3.88293">
        <ele>111</ele>
        <time>2021-03-21T11:16:38Z</time>
      </trkpt>
      <trkpt lat="43.66835" lon="3.88292">
        <ele>111</ele>
        <time>2021-03-21T11:16:39Z</time>
      </trkpt>
      <trkpt lat="43.66833" lon="3.88291">
        <ele>111</ele>
        <time>2021-03-21T11:16:40Z</time>
      </trkpt>
      <trkpt lat="43.6683" lon="3.8829">
        <ele>111</ele>
        <time>2021-03-21T11:16:41Z</time>
      </trkpt>
      <trkpt lat="43.66829" lon="3.88289">
        <ele>111</ele>
        <time>2021-03-21T11:16:42Z</time>
      </trkpt>
      <trkpt lat="43.66826" lon="3.88287">
        <ele>114</ele>
        <time>2021-03-21T11:16:43Z</time>
      </trkpt>
      <trkpt lat="43.66824" lon="3.88286">
        <ele>114</ele>
        <time>2021-03-21T11:16:44Z</time>
      </trkpt>
      <trkpt lat="43.66821" lon="3.88285">
        <ele>114</ele>
        <time>2021-03-21T11:16:45Z</time>
      </trkpt>
      <trkpt lat="43.66819" lon="3.88283">
        <ele>114</ele>
        <time>2021-03-21T11:16:46Z</time>
      </trkpt>
      <trkpt lat="43.66815" lon="3.88281">
        <ele>114</ele>
        <time>2021-03-21T11:16:48Z</time>
      </trkpt>
      <trkpt lat="43.66813" lon="3.8828">
        <ele>114</ele>
        <time>2021-03-21T11:16:49Z</time>
      </trkpt>
      <trkpt lat="43.66812" lon="3.88279">
        <ele>114</ele>
        <time>2021-03-21T11:16:50Z</time>
      </trkpt>
      <trkpt lat="43.66809" lon="3.88277">
        <ele>114</ele>
        <time>2021-03-21T11:16:52Z</time>
      </trkpt>
      <trkpt lat="43.66807" lon="3.88276">
        <ele>114</ele>
        <time>2021-03-21T11:16:54Z</time>
      </trkpt>
      <trkpt lat="43.66806" lon="3.88274">
        <ele>114</ele>
        <time>2021-03-21T11:16:55Z</time>
      </trkpt>
      <trkpt lat="43.66804" lon="3.88272">
        <ele>114</ele>
        <time>2021-03-21T11:16:56Z</time>
      </trkpt>
      <trkpt lat="43.66802" lon="3.88271">
        <ele>114</ele>
        <time>2021-03-21T11:16:57Z</time>
      </trkpt>
      <trkpt lat="43.668" lon="3.88269">
        <ele>114</ele>
        <time>2021-03-21T11:16:58Z</time>
      </trkpt>
      <trkpt lat="43.66797" lon="3.88267">
        <ele>114</ele>
        <time>2021-03-21T11:17:00Z</time>
      </trkpt>
      <trkpt lat="43.66794" lon="3.88264">
        <ele>114</ele>
        <time>2021-03-21T11:17:02Z</time>
      </trkpt>
      <trkpt lat="43.66791" lon="3.88263">
        <ele>114</ele>
        <time>2021-03-21T11:17:05Z</time>
      </trkpt>
      <trkpt lat="43.6679" lon="3.88261">
        <ele>114</ele>
        <time>2021-03-21T11:17:08Z</time>
      </trkpt>
      <trkpt lat="43.6679" lon="3.88261">
        <ele>116</ele>
        <time>2021-03-21T11:17:16Z</time>
      </trkpt>
      <trkpt lat="43.66775" lon="3.8825">
        <ele>117</ele>
        <time>2021-03-21T11:17:50Z</time>
      </trkpt>
      <trkpt lat="43.6677" lon="3.88248">
        <ele>117</ele>
        <time>2021-03-21T11:17:51Z</time>
      </trkpt>
      <trkpt lat="43.66766" lon="3.88246">
        <ele>117</ele>
        <time>2021-03-21T11:17:52Z</time>
      </trkpt>
      <trkpt lat="43.6676" lon="3.88243">
        <ele>117</ele>
        <time>2021-03-21T11:17:53Z</time>
      </trkpt>
      <trkpt lat="43.66755" lon="3.8824">
        <ele>117</ele>
        <time>2021-03-21T11:17:54Z</time>
      </trkpt>
      <trkpt lat="43.6675" lon="3.88237">
        <ele>117</ele>
        <time>2021-03-21T11:17:55Z</time>
      </trkpt>
      <trkpt lat="43.66746" lon="3.88233">
        <ele>117</ele>
        <time>2021-03-21T11:17:56Z</time>
      </trkpt>
      <trkpt lat="43.66742" lon="3.88231">
        <ele>117</ele>
        <time>2021-03-21T11:17:57Z</time>
      </trkpt>
      <trkpt lat="43.66739" lon="3.88228">
        <ele>117</ele>
        <time>2021-03-21T11:17:58Z</time>
      </trkpt>
      <trkpt lat="43.66737" lon="3.88226">
        <ele>115</ele>
        <time>2021-03-21T11:18:00Z</time>
      </trkpt>
      <trkpt lat="43.66735" lon="3.88225">
        <ele>115</ele>
        <time>2021-03-21T11:18:01Z</time>
      </trkpt>
      <trkpt lat="43.66732" lon="3.88224">
        <ele>115</ele>
        <time>2021-03-21T11:18:02Z</time>
      </trkpt>
      <trkpt lat="43.66728" lon="3.88221">
        <ele>115</ele>
        <time>2021-03-21T11:18:03Z</time>
      </trkpt>
      <trkpt lat="43.66724" lon="3.88219">
        <ele>115</ele>
        <time>2021-03-21T11:18:04Z</time>
      </trkpt>
      <trkpt lat="43.6672" lon="3.88216">
        <ele>115</ele>
        <time>2021-03-21T11:18:05Z</time>
      </trkpt>
      <trkpt lat="43.66716" lon="3.88213">
        <ele>115</ele>
        <time>2021-03-21T11:18:06Z</time>
      </trkpt>
      <trkpt lat="43.66712" lon="3.88209">
        <ele>115</ele>
        <time>2021-03-21T11:18:07Z</time>
      </trkpt>
      <trkpt lat="43.66707" lon="3.88206">
        <ele>115</ele>
        <time>2021-03-21T11:18:08Z</time>
      </trkpt>
      <trkpt lat="43.66703" lon="3.88202">
        <ele>115</ele>
        <time>2021-03-21T11:18:09Z</time>
      </trkpt>
      <trkpt lat="43.66699" lon="3.882">
        <ele>112</ele>
        <time>2021-03-21T11:18:10Z</time>
      </trkpt>
      <trkpt lat="43.66695" lon="3.88198">
        <ele>112</ele>
        <time>2021-03-21T11:18:11Z</time>
      </trkpt>
      <trkpt lat="43.66692" lon="3.88196">
        <ele>112</ele>
        <time>2021-03-21T11:18:12Z</time>
      </trkpt>
      <trkpt lat="43.66689" lon="3.88194">
        <ele>112</ele>
        <time>2021-03-21T11:18:13Z</time>
      </trkpt>
      <trkpt lat="43.66687" lon="3.88192">
        <ele>112</ele>
        <time>2021-03-21T11:18:14Z</time>
      </trkpt>
      <trkpt lat="43.66685" lon="3.88189">
        <ele>112</ele>
        <time>2021-03-21T11:18:15Z</time>
      </trkpt>
      <trkpt lat="43.66684" lon="3.88187">
        <ele>112</ele>
        <time>2021-03-21T11:18:16Z</time>
      </trkpt>
      <trkpt lat="43.66681" lon="3.88187">
        <ele>112</ele>
        <time>2021-03-21T11:18:17Z</time>
      </trkpt>
      <trkpt lat="43.66679" lon="3.88189">
        <ele>112</ele>
        <time>2021-03-21T11:18:18Z</time>
      </trkpt>
      <trkpt lat="43.66678" lon="3.88192">
        <ele>108</ele>
        <time>2021-03-21T11:18:19Z</time>
      </trkpt>
      <trkpt lat="43.66677" lon="3.88196">
        <ele>108</ele>
        <time>2021-03-21T11:18:20Z</time>
      </trkpt>
      <trkpt lat="43.66677" lon="3.88199">
        <ele>108</ele>
        <time>2021-03-21T11:18:21Z</time>
      </trkpt>
      <trkpt lat="43.66677" lon="3.88202">
        <ele>108</ele>
        <time>2021-03-21T11:18:22Z</time>
      </trkpt>
      <trkpt lat="43.66676" lon="3.88207">
        <ele>108</ele>
        <time>2021-03-21T11:18:23Z</time>
      </trkpt>
      <trkpt lat="43.66675" lon="3.88212">
        <ele>108</ele>
        <time>2021-03-21T11:18:24Z</time>
      </trkpt>
      <trkpt lat="43.66673" lon="3.88217">
        <ele>108</ele>
        <time>2021-03-21T11:18:25Z</time>
      </trkpt>
      <trkpt lat="43.66671" lon="3.88221">
        <ele>108</ele>
        <time>2021-03-21T11:18:26Z</time>
      </trkpt>
      <trkpt lat="43.66669" lon="3.88224">
        <ele>108</ele>
        <time>2021-03-21T11:18:27Z</time>
      </trkpt>
      <trkpt lat="43.66667" lon="3.88226">
        <ele>108</ele>
        <time>2021-03-21T11:18:28Z</time>
      </trkpt>
      <trkpt lat="43.66665" lon="3.88227">
        <ele>108</ele>
        <time>2021-03-21T11:18:29Z</time>
      </trkpt>
      <trkpt lat="43.66663" lon="3.88226">
        <ele>104</ele>
        <time>2021-03-21T11:18:30Z</time>
      </trkpt>
      <trkpt lat="43.6666" lon="3.88225">
        <ele>104</ele>
        <time>2021-03-21T11:18:31Z</time>
      </trkpt>
      <trkpt lat="43.66656" lon="3.88222">
        <ele>104</ele>
        <time>2021-03-21T11:18:33Z</time>
      </trkpt>
      <trkpt lat="43.66654" lon="3.88221">
        <ele>104</ele>
        <time>2021-03-21T11:18:34Z</time>
      </trkpt>
      <trkpt lat="43.66652" lon="3.8822">
        <ele>104</ele>
        <time>2021-03-21T11:18:35Z</time>
      </trkpt>
      <trkpt lat="43.66649" lon="3.88219">
        <ele>104</ele>
        <time>2021-03-21T11:18:36Z</time>
      </trkpt>
      <trkpt lat="43.66646" lon="3.88217">
        <ele>104</ele>
        <time>2021-03-21T11:18:37Z</time>
      </trkpt>
      <trkpt lat="43.66643" lon="3.88214">
        <ele>104</ele>
        <time>2021-03-21T11:18:38Z</time>
      </trkpt>
      <trkpt lat="43.6664" lon="3.88212">
        <ele>104</ele>
        <time>2021-03-21T11:18:39Z</time>
      </trkpt>
      <trkpt lat="43.66636" lon="3.8821">
        <ele>102</ele>
        <time>2021-03-21T11:18:40Z</time>
      </trkpt>
      <trkpt lat="43.66633" lon="3.88208">
        <ele>102</ele>
        <time>2021-03-21T11:18:41Z</time>
      </trkpt>
      <trkpt lat="43.66629" lon="3.88206">
        <ele>102</ele>
        <time>2021-03-21T11:18:42Z</time>
      </trkpt>
      <trkpt lat="43.66627" lon="3.88203">
        <ele>102</ele>
        <time>2021-03-21T11:18:43Z</time>
      </trkpt>
      <trkpt lat="43.66626" lon="3.88198">
        <ele>102</ele>
        <time>2021-03-21T11:18:44Z</time>
      </trkpt>
      <trkpt lat="43.66626" lon="3.88193">
        <ele>102</ele>
        <time>2021-03-21T11:18:45Z</time>
      </trkpt>
      <trkpt lat="43.66628" lon="3.88189">
        <ele>102</ele>
        <time>2021-03-21T11:18:46Z</time>
      </trkpt>
      <trkpt lat="43.66629" lon="3.88186">
        <ele>102</ele>
        <time>2021-03-21T11:18:47Z</time>
      </trkpt>
      <trkpt lat="43.66631" lon="3.88183">
        <ele>102</ele>
        <time>2021-03-21T11:18:48Z</time>
      </trkpt>
      <trkpt lat="43.66632" lon="3.8818">
        <ele>98</ele>
        <time>2021-03-21T11:18:49Z</time>
      </trkpt>
      <trkpt lat="43.66633" lon="3.88176">
        <ele>98</ele>
        <time>2021-03-21T11:18:50Z</time>
      </trkpt>
      <trkpt lat="43.66634" lon="3.88173">
        <ele>98</ele>
        <time>2021-03-21T11:18:51Z</time>
      </trkpt>
      <trkpt lat="43.66635" lon="3.8817">
        <ele>98</ele>
        <time>2021-03-21T11:18:52Z</time>
      </trkpt>
      <trkpt lat="43.66636" lon="3.88167">
        <ele>98</ele>
        <time>2021-03-21T11:18:53Z</time>
      </trkpt>
      <trkpt lat="43.66636" lon="3.88164">
        <ele>98</ele>
        <time>2021-03-21T11:18:54Z</time>
      </trkpt>
      <trkpt lat="43.66637" lon="3.88161">
        <ele>98</ele>
        <time>2021-03-21T11:18:55Z</time>
      </trkpt>
      <trkpt lat="43.66637" lon="3.88158">
        <ele>98</ele>
        <time>2021-03-21T11:18:56Z</time>
      </trkpt>
      <trkpt lat="43.66636" lon="3.88155">
        <ele>98</ele>
        <time>2021-03-21T11:18:57Z</time>
      </trkpt>
      <trkpt lat="43.66635" lon="3.88152">
        <ele>98</ele>
        <time>2021-03-21T11:18:58Z</time>
      </trkpt>
      <trkpt lat="43.66633" lon="3.88149">
        <ele>98</ele>
        <time>2021-03-21T11:18:59Z</time>
      </trkpt>
      <trkpt lat="43.66632" lon="3.88145">
        <ele>97</ele>
        <time>2021-03-21T11:19:00Z</time>
      </trkpt>
      <trkpt lat="43.66631" lon="3.88141">
        <ele>97</ele>
        <time>2021-03-21T11:19:01Z</time>
      </trkpt>
      <trkpt lat="43.6663" lon="3.88137">
        <ele>97</ele>
        <time>2021-03-21T11:19:02Z</time>
      </trkpt>
      <trkpt lat="43.66629" lon="3.88133">
        <ele>97</ele>
        <time>2021-03-21T11:19:03Z</time>
      </trkpt>
      <trkpt lat="43.66628" lon="3.88129">
        <ele>97</ele>
        <time>2021-03-21T11:19:04Z</time>
      </trkpt>
      <trkpt lat="43.66626" lon="3.88125">
        <ele>97</ele>
        <time>2021-03-21T11:19:05Z</time>
      </trkpt>
      <trkpt lat="43.66625" lon="3.88122">
        <ele>97</ele>
        <time>2021-03-21T11:19:06Z</time>
      </trkpt>
      <trkpt lat="43.66624" lon="3.88118">
        <ele>97</ele>
        <time>2021-03-21T11:19:07Z</time>
      </trkpt>
      <trkpt lat="43.66622" lon="3.88114">
        <ele>97</ele>
        <time>2021-03-21T11:19:08Z</time>
      </trkpt>
      <trkpt lat="43.66621" lon="3.8811">
        <ele>97</ele>
        <time>2021-03-21T11:19:09Z</time>
      </trkpt>
      <trkpt lat="43.66619" lon="3.88107">
        <ele>98</ele>
        <time>2021-03-21T11:19:10Z</time>
      </trkpt>
      <trkpt lat="43.66618" lon="3.88103">
        <ele>98</ele>
        <time>2021-03-21T11:19:11Z</time>
      </trkpt>
      <trkpt lat="43.66616" lon="3.88099">
        <ele>98</ele>
        <time>2021-03-21T11:19:12Z</time>
      </trkpt>
      <trkpt lat="43.66615" lon="3.88095">
        <ele>98</ele>
        <time>2021-03-21T11:19:13Z</time>
      </trkpt>
      <trkpt lat="43.66613" lon="3.88092">
        <ele>98</ele>
        <time>2021-03-21T11:19:14Z</time>
      </trkpt>
      <trkpt lat="43.66611" lon="3.88089">
        <ele>98</ele>
        <time>2021-03-21T11:19:15Z</time>
      </trkpt>
      <trkpt lat="43.66608" lon="3.88082">
        <ele>98</ele>
        <time>2021-03-21T11:19:17Z</time>
      </trkpt>
      <trkpt lat="43.66607" lon="3.88079">
        <ele>98</ele>
        <time>2021-03-21T11:19:18Z</time>
      </trkpt>
      <trkpt lat="43.66606" lon="3.88075">
        <ele>99</ele>
        <time>2021-03-21T11:19:19Z</time>
      </trkpt>
      <trkpt lat="43.66605" lon="3.88072">
        <ele>99</ele>
        <time>2021-03-21T11:19:20Z</time>
      </trkpt>
      <trkpt lat="43.66603" lon="3.88069">
        <ele>99</ele>
        <time>2021-03-21T11:19:21Z</time>
      </trkpt>
      <trkpt lat="43.66602" lon="3.88066">
        <ele>99</ele>
        <time>2021-03-21T11:19:22Z</time>
      </trkpt>
      <trkpt lat="43.666" lon="3.88063">
        <ele>99</ele>
        <time>2021-03-21T11:19:23Z</time>
      </trkpt>
      <trkpt lat="43.66599" lon="3.8806">
        <ele>99</ele>
        <time>2021-03-21T11:19:24Z</time>
      </trkpt>
      <trkpt lat="43.66597" lon="3.88057">
        <ele>99</ele>
        <time>2021-03-21T11:19:25Z</time>
      </trkpt>
      <trkpt lat="43.66595" lon="3.88054">
        <ele>99</ele>
        <time>2021-03-21T11:19:26Z</time>
      </trkpt>
      <trkpt lat="43.66594" lon="3.88051">
        <ele>99</ele>
        <time>2021-03-21T11:19:27Z</time>
      </trkpt>
      <trkpt lat="43.66592" lon="3.88048">
        <ele>99</ele>
        <time>2021-03-21T11:19:28Z</time>
      </trkpt>
      <trkpt lat="43.6659" lon="3.88045">
        <ele>99</ele>
        <time>2021-03-21T11:19:29Z</time>
      </trkpt>
      <trkpt lat="43.66588" lon="3.88042">
        <ele>100</ele>
        <time>2021-03-21T11:19:30Z</time>
      </trkpt>
      <trkpt lat="43.66585" lon="3.88039">
        <ele>100</ele>
        <time>2021-03-21T11:19:31Z</time>
      </trkpt>
      <trkpt lat="43.66583" lon="3.88037">
        <ele>100</ele>
        <time>2021-03-21T11:19:32Z</time>
      </trkpt>
      <trkpt lat="43.66581" lon="3.88035">
        <ele>100</ele>
        <time>2021-03-21T11:19:33Z</time>
      </trkpt>
      <trkpt lat="43.6658" lon="3.88033">
        <ele>100</ele>
        <time>2021-03-21T11:19:34Z</time>
      </trkpt>
      <trkpt lat="43.66578" lon="3.88031">
        <ele>100</ele>
        <time>2021-03-21T11:19:35Z</time>
      </trkpt>
      <trkpt lat="43.66575" lon="3.88028">
        <ele>100</ele>
        <time>2021-03-21T11:19:37Z</time>
      </trkpt>
      <trkpt lat="43.66573" lon="3.88027">
        <ele>100</ele>
        <time>2021-03-21T11:19:38Z</time>
      </trkpt>
      <trkpt lat="43.66571" lon="3.88024">
        <ele>99</ele>
        <time>2021-03-21T11:19:39Z</time>
      </trkpt>
      <trkpt lat="43.66569" lon="3.88022">
        <ele>99</ele>
        <time>2021-03-21T11:19:40Z</time>
      </trkpt>
      <trkpt lat="43.66567" lon="3.8802">
        <ele>99</ele>
        <time>2021-03-21T11:19:41Z</time>
      </trkpt>
      <trkpt lat="43.66565" lon="3.88018">
        <ele>99</ele>
        <time>2021-03-21T11:19:42Z</time>
      </trkpt>
      <trkpt lat="43.66562" lon="3.88015">
        <ele>99</ele>
        <time>2021-03-21T11:19:43Z</time>
      </trkpt>
      <trkpt lat="43.66559" lon="3.88013">
        <ele>99</ele>
        <time>2021-03-21T11:19:44Z</time>
      </trkpt>
      <trkpt lat="43.66556" lon="3.8801">
        <ele>99</ele>
        <time>2021-03-21T11:19:45Z</time>
      </trkpt>
      <trkpt lat="43.66554" lon="3.88007">
        <ele>99</ele>
        <time>2021-03-21T11:19:46Z</time>
      </trkpt>
      <trkpt lat="43.66551" lon="3.88005">
        <ele>99</ele>
        <time>2021-03-21T11:19:47Z</time>
      </trkpt>
      <trkpt lat="43.66549" lon="3.88003">
        <ele>99</ele>
        <time>2021-03-21T11:19:48Z</time>
      </trkpt>
      <trkpt lat="43.66546" lon="3.88001">
        <ele>99</ele>
        <time>2021-03-21T11:19:49Z</time>
      </trkpt>
      <trkpt lat="43.66544" lon="3.87999">
        <ele>101</ele>
        <time>2021-03-21T11:19:50Z</time>
      </trkpt>
      <trkpt lat="43.66542" lon="3.87997">
        <ele>101</ele>
        <time>2021-03-21T11:19:51Z</time>
      </trkpt>
      <trkpt lat="43.6654" lon="3.87994">
        <ele>101</ele>
        <time>2021-03-21T11:19:52Z</time>
      </trkpt>
      <trkpt lat="43.66538" lon="3.87992">
        <ele>101</ele>
        <time>2021-03-21T11:19:53Z</time>
      </trkpt>
      <trkpt lat="43.66536" lon="3.8799">
        <ele>101</ele>
        <time>2021-03-21T11:19:54Z</time>
      </trkpt>
      <trkpt lat="43.66534" lon="3.87988">
        <ele>101</ele>
        <time>2021-03-21T11:19:55Z</time>
      </trkpt>
      <trkpt lat="43.66532" lon="3.87985">
        <ele>101</ele>
        <time>2021-03-21T11:19:56Z</time>
      </trkpt>
      <trkpt lat="43.66531" lon="3.87983">
        <ele>101</ele>
        <time>2021-03-21T11:19:57Z</time>
      </trkpt>
      <trkpt lat="43.66529" lon="3.87981">
        <ele>101</ele>
        <time>2021-03-21T11:19:58Z</time>
      </trkpt>
      <trkpt lat="43.66526" lon="3.87979">
        <ele>101</ele>
        <time>2021-03-21T11:19:59Z</time>
      </trkpt>
      <trkpt lat="43.66524" lon="3.87977">
        <ele>101</ele>
        <time>2021-03-21T11:20:00Z</time>
      </trkpt>
      <trkpt lat="43.66522" lon="3.87974">
        <ele>101</ele>
        <time>2021-03-21T11:20:01Z</time>
      </trkpt>
      <trkpt lat="43.6652" lon="3.87971">
        <ele>101</ele>
        <time>2021-03-21T11:20:02Z</time>
      </trkpt>
      <trkpt lat="43.66517" lon="3.87968">
        <ele>101</ele>
        <time>2021-03-21T11:20:03Z</time>
      </trkpt>
      <trkpt lat="43.66514" lon="3.87965">
        <ele>101</ele>
        <time>2021-03-21T11:20:04Z</time>
      </trkpt>
      <trkpt lat="43.66512" lon="3.87963">
        <ele>101</ele>
        <time>2021-03-21T11:20:05Z</time>
      </trkpt>
      <trkpt lat="43.66509" lon="3.87961">
        <ele>101</ele>
        <time>2021-03-21T11:20:06Z</time>
      </trkpt>
      <trkpt lat="43.66506" lon="3.8796">
        <ele>101</ele>
        <time>2021-03-21T11:20:07Z</time>
      </trkpt>
      <trkpt lat="43.66504" lon="3.87959">
        <ele>100</ele>
        <time>2021-03-21T11:20:09Z</time>
      </trkpt>
      <trkpt lat="43.66503" lon="3.87956">
        <ele>100</ele>
        <time>2021-03-21T11:20:15Z</time>
      </trkpt>
      <trkpt lat="43.66503" lon="3.87953">
        <ele>100</ele>
        <time>2021-03-21T11:20:18Z</time>
      </trkpt>
      <trkpt lat="43.66501" lon="3.8795">
        <ele>100</ele>
        <time>2021-03-21T11:20:20Z</time>
      </trkpt>
      <trkpt lat="43.66499" lon="3.87949">
        <ele>100</ele>
        <time>2021-03-21T11:20:21Z</time>
      </trkpt>
      <trkpt lat="43.66496" lon="3.87947">
        <ele>100</ele>
        <time>2021-03-21T11:20:23Z</time>
      </trkpt>
      <trkpt lat="43.66493" lon="3.87944">
        <ele>100</ele>
        <time>2021-03-21T11:20:25Z</time>
      </trkpt>
      <trkpt lat="43.66491" lon="3.87941">
        <ele>100</ele>
        <time>2021-03-21T11:20:27Z</time>
      </trkpt>
      <trkpt lat="43.6649" lon="3.87939">
        <ele>100</ele>
        <time>2021-03-21T11:20:28Z</time>
      </trkpt>
      <trkpt lat="43.66489" lon="3.87934">
        <ele>100</ele>
        <time>2021-03-21T11:20:30Z</time>
      </trkpt>
      <trkpt lat="43.66489" lon="3.8793">
        <ele>100</ele>
        <time>2021-03-21T11:20:32Z</time>
      </trkpt>
      <trkpt lat="43.6649" lon="3.87927">
        <ele>100</ele>
        <time>2021-03-21T11:20:33Z</time>
      </trkpt>
      <trkpt lat="43.6649" lon="3.87925">
        <ele>100</ele>
        <time>2021-03-21T11:20:34Z</time>
      </trkpt>
      <trkpt lat="43.66491" lon="3.8792">
        <ele>100</ele>
        <time>2021-03-21T11:20:36Z</time>
      </trkpt>
      <trkpt lat="43.66492" lon="3.87916">
        <ele>100</ele>
        <time>2021-03-21T11:20:38Z</time>
      </trkpt>
      <trkpt lat="43.66493" lon="3.87913">
        <ele>100</ele>
        <time>2021-03-21T11:20:40Z</time>
      </trkpt>
      <trkpt lat="43.66494" lon="3.87909">
        <ele>100</ele>
        <time>2021-03-21T11:20:42Z</time>
      </trkpt>
      <trkpt lat="43.66493" lon="3.87905">
        <ele>100</ele>
        <time>2021-03-21T11:20:44Z</time>
      </trkpt>
      <trkpt lat="43.6649" lon="3.87904">
        <ele>100</ele>
        <time>2021-03-21T11:20:46Z</time>
      </trkpt>
      <trkpt lat="43.66487" lon="3.87903">
        <ele>100</ele>
        <time>2021-03-21T11:20:48Z</time>
      </trkpt>
      <trkpt lat="43.66485" lon="3.87904">
        <ele>100</ele>
        <time>2021-03-21T11:20:49Z</time>
      </trkpt>
      <trkpt lat="43.66483" lon="3.87905">
        <ele>101</ele>
        <time>2021-03-21T11:20:50Z</time>
      </trkpt>
      <trkpt lat="43.66481" lon="3.87908">
        <ele>101</ele>
        <time>2021-03-21T11:20:52Z</time>
      </trkpt>
      <trkpt lat="43.66479" lon="3.87909">
        <ele>101</ele>
        <time>2021-03-21T11:20:53Z</time>
      </trkpt>
      <trkpt lat="43.66477" lon="3.87911">
        <ele>101</ele>
        <time>2021-03-21T11:20:54Z</time>
      </trkpt>
      <trkpt lat="43.66475" lon="3.87912">
        <ele>101</ele>
        <time>2021-03-21T11:20:55Z</time>
      </trkpt>
      <trkpt lat="43.66472" lon="3.87914">
        <ele>101</ele>
        <time>2021-03-21T11:20:56Z</time>
      </trkpt>
      <trkpt lat="43.66469" lon="3.87916">
        <ele>101</ele>
        <time>2021-03-21T11:20:57Z</time>
      </trkpt>
      <trkpt lat="43.66466" lon="3.87918">
        <ele>101</ele>
        <time>2021-03-21T11:20:58Z</time>
      </trkpt>
      <trkpt lat="43.66464" lon="3.8792">
        <ele>101</ele>
        <time>2021-03-21T11:20:59Z</time>
      </trkpt>
      <trkpt lat="43.66461" lon="3.87921">
        <ele>102</ele>
        <time>2021-03-21T11:21:00Z</time>
      </trkpt>
      <trkpt lat="43.66458" lon="3.87921">
        <ele>102</ele>
        <time>2021-03-21T11:21:01Z</time>
      </trkpt>
      <trkpt lat="43.66455" lon="3.87921">
        <ele>102</ele>
        <time>2021-03-21T11:21:02Z</time>
      </trkpt>
      <trkpt lat="43.6645" lon="3.8792">
        <ele>102</ele>
        <time>2021-03-21T11:21:03Z</time>
      </trkpt>
      <trkpt lat="43.66447" lon="3.87919">
        <ele>102</ele>
        <time>2021-03-21T11:21:04Z</time>
      </trkpt>
      <trkpt lat="43.66443" lon="3.87917">
        <ele>102</ele>
        <time>2021-03-21T11:21:05Z</time>
      </trkpt>
      <trkpt lat="43.6644" lon="3.87916">
        <ele>102</ele>
        <time>2021-03-21T11:21:06Z</time>
      </trkpt>
      <trkpt lat="43.66437" lon="3.87915">
        <ele>102</ele>
        <time>2021-03-21T11:21:07Z</time>
      </trkpt>
      <trkpt lat="43.66434" lon="3.87913">
        <ele>102</ele>
        <time>2021-03-21T11:21:08Z</time>
      </trkpt>
      <trkpt lat="43.66431" lon="3.87912">
        <ele>102</ele>
        <time>2021-03-21T11:21:09Z</time>
      </trkpt>
      <trkpt lat="43.66427" lon="3.87911">
        <ele>102</ele>
        <time>2021-03-21T11:21:10Z</time>
      </trkpt>
      <trkpt lat="43.66424" lon="3.8791">
        <ele>102</ele>
        <time>2021-03-21T11:21:11Z</time>
      </trkpt>
      <trkpt lat="43.66421" lon="3.87909">
        <ele>102</ele>
        <time>2021-03-21T11:21:12Z</time>
      </trkpt>
      <trkpt lat="43.66418" lon="3.87908">
        <ele>102</ele>
        <time>2021-03-21T11:21:13Z</time>
      </trkpt>
      <trkpt lat="43.66415" lon="3.87907">
        <ele>102</ele>
        <time>2021-03-21T11:21:14Z</time>
      </trkpt>
      <trkpt lat="43.66411" lon="3.87906">
        <ele>102</ele>
        <time>2021-03-21T11:21:15Z</time>
      </trkpt>
      <trkpt lat="43.66408" lon="3.87904">
        <ele>102</ele>
        <time>2021-03-21T11:21:16Z</time>
      </trkpt>
      <trkpt lat="43.66404" lon="3.87902">
        <ele>102</ele>
        <time>2021-03-21T11:21:17Z</time>
      </trkpt>
      <trkpt lat="43.664" lon="3.879">
        <ele>102</ele>
        <time>2021-03-21T11:21:18Z</time>
      </trkpt>
      <trkpt lat="43.66397" lon="3.87899">
        <ele>102</ele>
        <time>2021-03-21T11:21:19Z</time>
      </trkpt>
      <trkpt lat="43.66393" lon="3.87898">
        <ele>103</ele>
        <time>2021-03-21T11:21:20Z</time>
      </trkpt>
      <trkpt lat="43.66389" lon="3.87897">
        <ele>103</ele>
        <time>2021-03-21T11:21:21Z</time>
      </trkpt>
      <trkpt lat="43.66385" lon="3.87895">
        <ele>103</ele>
        <time>2021-03-21T11:21:22Z</time>
      </trkpt>
      <trkpt lat="43.66381" lon="3.87893">
        <ele>103</ele>
        <time>2021-03-21T11:21:23Z</time>
      </trkpt>
      <trkpt lat="43.66378" lon="3.87891">
        <ele>103</ele>
        <time>2021-03-21T11:21:24Z</time>
      </trkpt>
      <trkpt lat="43.66374" lon="3.87888">
        <ele>103</ele>
        <time>2021-03-21T11:21:25Z</time>
      </trkpt>
      <trkpt lat="43.66372" lon="3.87886">
        <ele>103</ele>
        <time>2021-03-21T11:21:26Z</time>
      </trkpt>
      <trkpt lat="43.66371" lon="3.87881">
        <ele>103</ele>
        <time>2021-03-21T11:21:27Z</time>
      </trkpt>
      <trkpt lat="43.66371" lon="3.87876">
        <ele>103</ele>
        <time>2021-03-21T11:21:28Z</time>
      </trkpt>
      <trkpt lat="43.6637" lon="3.87872">
        <ele>103</ele>
        <time>2021-03-21T11:21:29Z</time>
      </trkpt>
      <trkpt lat="43.66368" lon="3.87869">
        <ele>103</ele>
        <time>2021-03-21T11:21:30Z</time>
      </trkpt>
      <trkpt lat="43.66365" lon="3.87866">
        <ele>103</ele>
        <time>2021-03-21T11:21:31Z</time>
      </trkpt>
      <trkpt lat="43.66362" lon="3.87863">
        <ele>103</ele>
        <time>2021-03-21T11:21:32Z</time>
      </trkpt>
      <trkpt lat="43.66359" lon="3.8786">
        <ele>103</ele>
        <time>2021-03-21T11:21:33Z</time>
      </trkpt>
      <trkpt lat="43.66355" lon="3.87858">
        <ele>103</ele>
        <time>2021-03-21T11:21:34Z</time>
      </trkpt>
      <trkpt lat="43.66352" lon="3.87857">
        <ele>103</ele>
        <time>2021-03-21T11:21:35Z</time>
      </trkpt>
      <trkpt lat="43.6635" lon="3.87855">
        <ele>103</ele>
        <time>2021-03-21T11:21:36Z</time>
      </trkpt>
      <trkpt lat="43.66347" lon="3.87854">
        <ele>103</ele>
        <time>2021-03-21T11:21:37Z</time>
      </trkpt>
      <trkpt lat="43.66343" lon="3.87851">
        <ele>103</ele>
        <time>2021-03-21T11:21:38Z</time>
      </trkpt>
      <trkpt lat="43.6634" lon="3.87849">
        <ele>103</ele>
        <time>2021-03-21T11:21:39Z</time>
      </trkpt>
      <trkpt lat="43.66336" lon="3.87848">
        <ele>102</ele>
        <time>2021-03-21T11:21:40Z</time>
      </trkpt>
      <trkpt lat="43.66333" lon="3.87847">
        <ele>102</ele>
        <time>2021-03-21T11:21:41Z</time>
      </trkpt>
      <trkpt lat="43.66329" lon="3.87845">
        <ele>102</ele>
        <time>2021-03-21T11:21:42Z</time>
      </trkpt>
      <trkpt lat="43.66326" lon="3.87843">
        <ele>102</ele>
        <time>2021-03-21T11:21:43Z</time>
      </trkpt>
      <trkpt lat="43.66321" lon="3.87841">
        <ele>102</ele>
        <time>2021-03-21T11:21:44Z</time>
      </trkpt>
      <trkpt lat="43.66318" lon="3.87839">
        <ele>102</ele>
        <time>2021-03-21T11:21:45Z</time>
      </trkpt>
      <trkpt lat="43.66315" lon="3.87837">
        <ele>102</ele>
        <time>2021-03-21T11:21:46Z</time>
      </trkpt>
      <trkpt lat="43.66312" lon="3.87834">
        <ele>102</ele>
        <time>2021-03-21T11:21:47Z</time>
      </trkpt>
      <trkpt lat="43.66309" lon="3.87831">
        <ele>102</ele>
        <time>2021-03-21T11:21:48Z</time>
      </trkpt>
      <trkpt lat="43.66307" lon="3.87829">
        <ele>102</ele>
        <time>2021-03-21T11:21:49Z</time>
      </trkpt>
      <trkpt lat="43.66304" lon="3.87827">
        <ele>101</ele>
        <time>2021-03-21T11:21:50Z</time>
      </trkpt>
      <trkpt lat="43.66301" lon="3.87828">
        <ele>101</ele>
        <time>2021-03-21T11:21:51Z</time>
      </trkpt>
      <trkpt lat="43.66298" lon="3.87829">
        <ele>101</ele>
        <time>2021-03-21T11:21:52Z</time>
      </trkpt>
      <trkpt lat="43.66294" lon="3.8783">
        <ele>101</ele>
        <time>2021-03-21T11:21:53Z</time>
      </trkpt>
      <trkpt lat="43.66291" lon="3.8783">
        <ele>101</ele>
        <time>2021-03-21T11:21:54Z</time>
      </trkpt>
      <trkpt lat="43.66288" lon="3.87829">
        <ele>101</ele>
        <time>2021-03-21T11:21:55Z</time>
      </trkpt>
      <trkpt lat="43.66284" lon="3.87828">
        <ele>101</ele>
        <time>2021-03-21T11:21:56Z</time>
      </trkpt>
      <trkpt lat="43.66281" lon="3.87826">
        <ele>101</ele>
        <time>2021-03-21T11:21:57Z</time>
      </trkpt>
      <trkpt lat="43.66277" lon="3.87823">
        <ele>101</ele>
        <time>2021-03-21T11:21:58Z</time>
      </trkpt>
      <trkpt lat="43.66273" lon="3.87821">
        <ele>101</ele>
        <time>2021-03-21T11:21:59Z</time>
      </trkpt>
      <trkpt lat="43.66265" lon="3.87818">
        <ele>101</ele>
        <time>2021-03-21T11:22:01Z</time>
      </trkpt>
      <trkpt lat="43.66261" lon="3.87816">
        <ele>101</ele>
        <time>2021-03-21T11:22:02Z</time>
      </trkpt>
      <trkpt lat="43.66258" lon="3.87814">
        <ele>101</ele>
        <time>2021-03-21T11:22:03Z</time>
      </trkpt>
      <trkpt lat="43.66255" lon="3.87812">
        <ele>101</ele>
        <time>2021-03-21T11:22:04Z</time>
      </trkpt>
      <trkpt lat="43.66253" lon="3.87811">
        <ele>101</ele>
        <time>2021-03-21T11:22:05Z</time>
      </trkpt>
      <trkpt lat="43.66249" lon="3.87809">
        <ele>101</ele>
        <time>2021-03-21T11:22:06Z</time>
      </trkpt>
      <trkpt lat="43.66246" lon="3.87808">
        <ele>101</ele>
        <time>2021-03-21T11:22:07Z</time>
      </trkpt>
      <trkpt lat="43.66243" lon="3.87805">
        <ele>101</ele>
        <time>2021-03-21T11:22:08Z</time>
      </trkpt>
      <trkpt lat="43.6624" lon="3.87803">
        <ele>101</ele>
        <time>2021-03-21T11:22:09Z</time>
      </trkpt>
      <trkpt lat="43.66237" lon="3.878">
        <ele>102</ele>
        <time>2021-03-21T11:22:10Z</time>
      </trkpt>
      <trkpt lat="43.66234" lon="3.87799">
        <ele>102</ele>
        <time>2021-03-21T11:22:11Z</time>
      </trkpt>
      <trkpt lat="43.66231" lon="3.87797">
        <ele>102</ele>
        <time>2021-03-21T11:22:12Z</time>
      </trkpt>
      <trkpt lat="43.66228" lon="3.87794">
        <ele>102</ele>
        <time>2021-03-21T11:22:13Z</time>
      </trkpt>
      <trkpt lat="43.66226" lon="3.87791">
        <ele>102</ele>
        <time>2021-03-21T11:22:14Z</time>
      </trkpt>
      <trkpt lat="43.66225" lon="3.87789">
        <ele>102</ele>
        <time>2021-03-21T11:22:15Z</time>
      </trkpt>
      <trkpt lat="43.66224" lon="3.87786">
        <ele>102</ele>
        <time>2021-03-21T11:22:20Z</time>
      </trkpt>
      <trkpt lat="43.66224" lon="3.87783">
        <ele>102</ele>
        <time>2021-03-21T11:22:23Z</time>
      </trkpt>
      <trkpt lat="43.66222" lon="3.87781">
        <ele>102</ele>
        <time>2021-03-21T11:22:27Z</time>
      </trkpt>
      <trkpt lat="43.6622" lon="3.87778">
        <ele>102</ele>
        <time>2021-03-21T11:22:29Z</time>
      </trkpt>
      <trkpt lat="43.66219" lon="3.87775">
        <ele>101</ele>
        <time>2021-03-21T11:22:30Z</time>
      </trkpt>
      <trkpt lat="43.66217" lon="3.87774">
        <ele>101</ele>
        <time>2021-03-21T11:22:31Z</time>
      </trkpt>
      <trkpt lat="43.66215" lon="3.87773">
        <ele>101</ele>
        <time>2021-03-21T11:22:32Z</time>
      </trkpt>
      <trkpt lat="43.66212" lon="3.87772">
        <ele>101</ele>
        <time>2021-03-21T11:22:33Z</time>
      </trkpt>
      <trkpt lat="43.66209" lon="3.87769">
        <ele>101</ele>
        <time>2021-03-21T11:22:34Z</time>
      </trkpt>
      <trkpt lat="43.66207" lon="3.87765">
        <ele>101</ele>
        <time>2021-03-21T11:22:35Z</time>
      </trkpt>
      <trkpt lat="43.66205" lon="3.87762">
        <ele>101</ele>
        <time>2021-03-21T11:22:36Z</time>
      </trkpt>
      <trkpt lat="43.66203" lon="3.87759">
        <ele>101</ele>
        <time>2021-03-21T11:22:37Z</time>
      </trkpt>
      <trkpt lat="43.66201" lon="3.87754">
        <ele>101</ele>
        <time>2021-03-21T11:22:39Z</time>
      </trkpt>
      <trkpt lat="43.662" lon="3.87751">
        <ele>101</ele>
        <time>2021-03-21T11:22:40Z</time>
      </trkpt>
      <trkpt lat="43.66199" lon="3.87748">
        <ele>101</ele>
        <time>2021-03-21T11:22:41Z</time>
      </trkpt>
      <trkpt lat="43.66197" lon="3.87745">
        <ele>101</ele>
        <time>2021-03-21T11:22:42Z</time>
      </trkpt>
      <trkpt lat="43.66196" lon="3.87741">
        <ele>101</ele>
        <time>2021-03-21T11:22:43Z</time>
      </trkpt>
      <trkpt lat="43.66195" lon="3.87738">
        <ele>101</ele>
        <time>2021-03-21T11:22:44Z</time>
      </trkpt>
      <trkpt lat="43.66195" lon="3.87734">
        <ele>101</ele>
        <time>2021-03-21T11:22:45Z</time>
      </trkpt>
      <trkpt lat="43.66194" lon="3.8773">
        <ele>101</ele>
        <time>2021-03-21T11:22:46Z</time>
      </trkpt>
      <trkpt lat="43.66193" lon="3.87727">
        <ele>101</ele>
        <time>2021-03-21T11:22:47Z</time>
      </trkpt>
      <trkpt lat="43.66191" lon="3.87723">
        <ele>101</ele>
        <time>2021-03-21T11:22:48Z</time>
      </trkpt>
      <trkpt lat="43.66188" lon="3.87718">
        <ele>101</ele>
        <time>2021-03-21T11:22:49Z</time>
      </trkpt>
      <trkpt lat="43.66185" lon="3.87713">
        <ele>101</ele>
        <time>2021-03-21T11:22:50Z</time>
      </trkpt>
      <trkpt lat="43.66183" lon="3.87709">
        <ele>101</ele>
        <time>2021-03-21T11:22:51Z</time>
      </trkpt>
      <trkpt lat="43.6618" lon="3.87705">
        <ele>101</ele>
        <time>2021-03-21T11:22:52Z</time>
      </trkpt>
      <trkpt lat="43.66177" lon="3.87701">
        <ele>101</ele>
        <time>2021-03-21T11:22:53Z</time>
      </trkpt>
      <trkpt lat="43.66175" lon="3.87698">
        <ele>101</ele>
        <time>2021-03-21T11:22:54Z</time>
      </trkpt>
      <trkpt lat="43.66173" lon="3.87693">
        <ele>101</ele>
        <time>2021-03-21T11:22:55Z</time>
      </trkpt>
      <trkpt lat="43.66172" lon="3.87689">
        <ele>101</ele>
        <time>2021-03-21T11:22:56Z</time>
      </trkpt>
      <trkpt lat="43.6617" lon="3.87686">
        <ele>101</ele>
        <time>2021-03-21T11:22:57Z</time>
      </trkpt>
      <trkpt lat="43.66168" lon="3.87684">
        <ele>101</ele>
        <time>2021-03-21T11:22:58Z</time>
      </trkpt>
      <trkpt lat="43.66166" lon="3.87681">
        <ele>101</ele>
        <time>2021-03-21T11:22:59Z</time>
      </trkpt>
      <trkpt lat="43.66164" lon="3.87678">
        <ele>100</ele>
        <time>2021-03-21T11:23:00Z</time>
      </trkpt>
      <trkpt lat="43.66162" lon="3.87674">
        <ele>100</ele>
        <time>2021-03-21T11:23:01Z</time>
      </trkpt>
      <trkpt lat="43.6616" lon="3.87669">
        <ele>100</ele>
        <time>2021-03-21T11:23:02Z</time>
      </trkpt>
      <trkpt lat="43.66158" lon="3.87662">
        <ele>100</ele>
        <time>2021-03-21T11:23:03Z</time>
      </trkpt>
      <trkpt lat="43.66158" lon="3.87656">
        <ele>100</ele>
        <time>2021-03-21T11:23:04Z</time>
      </trkpt>
      <trkpt lat="43.66157" lon="3.87651">
        <ele>100</ele>
        <time>2021-03-21T11:23:05Z</time>
      </trkpt>
      <trkpt lat="43.66155" lon="3.87647">
        <ele>100</ele>
        <time>2021-03-21T11:23:06Z</time>
      </trkpt>
      <trkpt lat="43.66154" lon="3.87643">
        <ele>100</ele>
        <time>2021-03-21T11:23:07Z</time>
      </trkpt>
      <trkpt lat="43.66151" lon="3.87639">
        <ele>100</ele>
        <time>2021-03-21T11:23:08Z</time>
      </trkpt>
      <trkpt lat="43.6615" lon="3.87635">
        <ele>100</ele>
        <time>2021-03-21T11:23:09Z</time>
      </trkpt>
      <trkpt lat="43.66147" lon="3.87632">
        <ele>98</ele>
        <time>2021-03-21T11:23:10Z</time>
      </trkpt>
      <trkpt lat="43.66144" lon="3.87628">
        <ele>98</ele>
        <time>2021-03-21T11:23:11Z</time>
      </trkpt>
      <trkpt lat="43.66142" lon="3.87624">
        <ele>98</ele>
        <time>2021-03-21T11:23:12Z</time>
      </trkpt>
      <trkpt lat="43.66139" lon="3.87621">
        <ele>98</ele>
        <time>2021-03-21T11:23:13Z</time>
      </trkpt>
      <trkpt lat="43.66136" lon="3.87616">
        <ele>98</ele>
        <time>2021-03-21T11:23:14Z</time>
      </trkpt>
      <trkpt lat="43.66132" lon="3.87605">
        <ele>98</ele>
        <time>2021-03-21T11:23:16Z</time>
      </trkpt>
      <trkpt lat="43.6613" lon="3.87599">
        <ele>98</ele>
        <time>2021-03-21T11:23:17Z</time>
      </trkpt>
      <trkpt lat="43.66129" lon="3.87594">
        <ele>98</ele>
        <time>2021-03-21T11:23:18Z</time>
      </trkpt>
      <trkpt lat="43.66126" lon="3.87591">
        <ele>97</ele>
        <time>2021-03-21T11:23:19Z</time>
      </trkpt>
      <trkpt lat="43.66124" lon="3.87588">
        <ele>97</ele>
        <time>2021-03-21T11:23:20Z</time>
      </trkpt>
      <trkpt lat="43.66122" lon="3.87583">
        <ele>97</ele>
        <time>2021-03-21T11:23:21Z</time>
      </trkpt>
      <trkpt lat="43.6612" lon="3.87577">
        <ele>97</ele>
        <time>2021-03-21T11:23:22Z</time>
      </trkpt>
      <trkpt lat="43.66118" lon="3.87573">
        <ele>97</ele>
        <time>2021-03-21T11:23:23Z</time>
      </trkpt>
      <trkpt lat="43.66115" lon="3.87569">
        <ele>97</ele>
        <time>2021-03-21T11:23:24Z</time>
      </trkpt>
      <trkpt lat="43.66111" lon="3.87564">
        <ele>97</ele>
        <time>2021-03-21T11:23:25Z</time>
      </trkpt>
      <trkpt lat="43.66108" lon="3.8756">
        <ele>97</ele>
        <time>2021-03-21T11:23:26Z</time>
      </trkpt>
      <trkpt lat="43.66107" lon="3.87556">
        <ele>97</ele>
        <time>2021-03-21T11:23:27Z</time>
      </trkpt>
      <trkpt lat="43.66107" lon="3.87552">
        <ele>97</ele>
        <time>2021-03-21T11:23:28Z</time>
      </trkpt>
      <trkpt lat="43.66108" lon="3.87548">
        <ele>97</ele>
        <time>2021-03-21T11:23:29Z</time>
      </trkpt>
      <trkpt lat="43.66108" lon="3.87544">
        <ele>95</ele>
        <time>2021-03-21T11:23:30Z</time>
      </trkpt>
      <trkpt lat="43.66108" lon="3.87541">
        <ele>95</ele>
        <time>2021-03-21T11:23:31Z</time>
      </trkpt>
      <trkpt lat="43.66109" lon="3.87538">
        <ele>95</ele>
        <time>2021-03-21T11:23:32Z</time>
      </trkpt>
      <trkpt lat="43.66109" lon="3.87535">
        <ele>95</ele>
        <time>2021-03-21T11:23:33Z</time>
      </trkpt>
      <trkpt lat="43.66108" lon="3.87531">
        <ele>95</ele>
        <time>2021-03-21T11:23:34Z</time>
      </trkpt>
      <trkpt lat="43.66107" lon="3.87528">
        <ele>95</ele>
        <time>2021-03-21T11:23:35Z</time>
      </trkpt>
      <trkpt lat="43.66106" lon="3.87525">
        <ele>95</ele>
        <time>2021-03-21T11:23:36Z</time>
      </trkpt>
      <trkpt lat="43.66104" lon="3.87522">
        <ele>95</ele>
        <time>2021-03-21T11:23:37Z</time>
      </trkpt>
      <trkpt lat="43.66104" lon="3.8752">
        <ele>95</ele>
        <time>2021-03-21T11:23:38Z</time>
      </trkpt>
      <trkpt lat="43.66102" lon="3.87518">
        <ele>95</ele>
        <time>2021-03-21T11:23:44Z</time>
      </trkpt>
      <trkpt lat="43.661" lon="3.87517">
        <ele>95</ele>
        <time>2021-03-21T11:23:52Z</time>
      </trkpt>
      <trkpt lat="43.6609" lon="3.87536">
        <ele>95</ele>
        <time>2021-03-21T11:24:02Z</time>
      </trkpt>
      <trkpt lat="43.6609" lon="3.87545">
        <ele>95</ele>
        <time>2021-03-21T11:24:03Z</time>
      </trkpt>
      <trkpt lat="43.66089" lon="3.87553">
        <ele>95</ele>
        <time>2021-03-21T11:24:04Z</time>
      </trkpt>
      <trkpt lat="43.66087" lon="3.87561">
        <ele>95</ele>
        <time>2021-03-21T11:24:05Z</time>
      </trkpt>
      <trkpt lat="43.66084" lon="3.87568">
        <ele>95</ele>
        <time>2021-03-21T11:24:06Z</time>
      </trkpt>
      <trkpt lat="43.6608" lon="3.87575">
        <ele>95</ele>
        <time>2021-03-21T11:24:07Z</time>
      </trkpt>
      <trkpt lat="43.66075" lon="3.87581">
        <ele>95</ele>
        <time>2021-03-21T11:24:08Z</time>
      </trkpt>
      <trkpt lat="43.66071" lon="3.87587">
        <ele>95</ele>
        <time>2021-03-21T11:24:09Z</time>
      </trkpt>
      <trkpt lat="43.66067" lon="3.87593">
        <ele>95</ele>
        <time>2021-03-21T11:24:10Z</time>
      </trkpt>
      <trkpt lat="43.66064" lon="3.87599">
        <ele>91</ele>
        <time>2021-03-21T11:24:11Z</time>
      </trkpt>
      <trkpt lat="43.6606" lon="3.87605">
        <ele>91</ele>
        <time>2021-03-21T11:24:12Z</time>
      </trkpt>
      <trkpt lat="43.66059" lon="3.87611">
        <ele>91</ele>
        <time>2021-03-21T11:24:13Z</time>
      </trkpt>
      <trkpt lat="43.66057" lon="3.87618">
        <ele>91</ele>
        <time>2021-03-21T11:24:14Z</time>
      </trkpt>
      <trkpt lat="43.66055" lon="3.87623">
        <ele>91</ele>
        <time>2021-03-21T11:24:15Z</time>
      </trkpt>
      <trkpt lat="43.66054" lon="3.87629">
        <ele>91</ele>
        <time>2021-03-21T11:24:16Z</time>
      </trkpt>
      <trkpt lat="43.66053" lon="3.87633">
        <ele>91</ele>
        <time>2021-03-21T11:24:17Z</time>
      </trkpt>
      <trkpt lat="43.66051" lon="3.87637">
        <ele>91</ele>
        <time>2021-03-21T11:24:18Z</time>
      </trkpt>
      <trkpt lat="43.6605" lon="3.87642">
        <ele>91</ele>
        <time>2021-03-21T11:24:19Z</time>
      </trkpt>
      <trkpt lat="43.66048" lon="3.87647">
        <ele>91</ele>
        <time>2021-03-21T11:24:20Z</time>
      </trkpt>
      <trkpt lat="43.66047" lon="3.87652">
        <ele>83</ele>
        <time>2021-03-21T11:24:21Z</time>
      </trkpt>
      <trkpt lat="43.66045" lon="3.87656">
        <ele>83</ele>
        <time>2021-03-21T11:24:22Z</time>
      </trkpt>
      <trkpt lat="43.66042" lon="3.8766">
        <ele>83</ele>
        <time>2021-03-21T11:24:23Z</time>
      </trkpt>
      <trkpt lat="43.6604" lon="3.87664">
        <ele>83</ele>
        <time>2021-03-21T11:24:24Z</time>
      </trkpt>
      <trkpt lat="43.66038" lon="3.87669">
        <ele>83</ele>
        <time>2021-03-21T11:24:25Z</time>
      </trkpt>
      <trkpt lat="43.66036" lon="3.87674">
        <ele>83</ele>
        <time>2021-03-21T11:24:26Z</time>
      </trkpt>
      <trkpt lat="43.66034" lon="3.87678">
        <ele>83</ele>
        <time>2021-03-21T11:24:27Z</time>
      </trkpt>
      <trkpt lat="43.66032" lon="3.87682">
        <ele>83</ele>
        <time>2021-03-21T11:24:28Z</time>
      </trkpt>
      <trkpt lat="43.6603" lon="3.87686">
        <ele>83</ele>
        <time>2021-03-21T11:24:29Z</time>
      </trkpt>
      <trkpt lat="43.66027" lon="3.8769">
        <ele>83</ele>
        <time>2021-03-21T11:24:30Z</time>
      </trkpt>
      <trkpt lat="43.66025" lon="3.87694">
        <ele>79</ele>
        <time>2021-03-21T11:24:31Z</time>
      </trkpt>
      <trkpt lat="43.66022" lon="3.87697">
        <ele>79</ele>
        <time>2021-03-21T11:24:32Z</time>
      </trkpt>
      <trkpt lat="43.66019" lon="3.877">
        <ele>79</ele>
        <time>2021-03-21T11:24:33Z</time>
      </trkpt>
      <trkpt lat="43.66016" lon="3.87703">
        <ele>79</ele>
        <time>2021-03-21T11:24:34Z</time>
      </trkpt>
      <trkpt lat="43.66013" lon="3.87705">
        <ele>79</ele>
        <time>2021-03-21T11:24:35Z</time>
      </trkpt>
      <trkpt lat="43.6601" lon="3.87707">
        <ele>79</ele>
        <time>2021-03-21T11:24:36Z</time>
      </trkpt>
      <trkpt lat="43.66007" lon="3.87709">
        <ele>79</ele>
        <time>2021-03-21T11:24:37Z</time>
      </trkpt>
      <trkpt lat="43.66004" lon="3.87712">
        <ele>79</ele>
        <time>2021-03-21T11:24:38Z</time>
      </trkpt>
      <trkpt lat="43.66003" lon="3.87714">
        <ele>79</ele>
        <time>2021-03-21T11:24:39Z</time>
      </trkpt>
      <trkpt lat="43.66001" lon="3.87716">
        <ele>79</ele>
        <time>2021-03-21T11:24:40Z</time>
      </trkpt>
      <trkpt lat="43.66" lon="3.87719">
        <ele>78</ele>
        <time>2021-03-21T11:24:41Z</time>
      </trkpt>
      <trkpt lat="43.65999" lon="3.87723">
        <ele>78</ele>
        <time>2021-03-21T11:24:43Z</time>
      </trkpt>
      <trkpt lat="43.65999" lon="3.87725">
        <ele>78</ele>
        <time>2021-03-21T11:24:44Z</time>
      </trkpt>
      <trkpt lat="43.65999" lon="3.8773">
        <ele>78</ele>
        <time>2021-03-21T11:24:46Z</time>
      </trkpt>
      <trkpt lat="43.65999" lon="3.87733">
        <ele>78</ele>
        <time>2021-03-21T11:24:48Z</time>
      </trkpt>
      <trkpt lat="43.65998" lon="3.87737">
        <ele>77</ele>
        <time>2021-03-21T11:24:50Z</time>
      </trkpt>
      <trkpt lat="43.65997" lon="3.87739">
        <ele>77</ele>
        <time>2021-03-21T11:24:52Z</time>
      </trkpt>
      <trkpt lat="43.65997" lon="3.87742">
        <ele>77</ele>
        <time>2021-03-21T11:25:00Z</time>
      </trkpt>
      <trkpt lat="43.65997" lon="3.87753">
        <ele>77</ele>
        <time>2021-03-21T11:25:24Z</time>
      </trkpt>
      <trkpt lat="43.65997" lon="3.87755">
        <ele>77</ele>
        <time>2021-03-21T11:25:25Z</time>
      </trkpt>
      <trkpt lat="43.65996" lon="3.87758">
        <ele>77</ele>
        <time>2021-03-21T11:25:26Z</time>
      </trkpt>
      <trkpt lat="43.65996" lon="3.87761">
        <ele>77</ele>
        <time>2021-03-21T11:25:31Z</time>
      </trkpt>
      <trkpt lat="43.65994" lon="3.87763">
        <ele>77</ele>
        <time>2021-03-21T11:25:36Z</time>
      </trkpt>
      <trkpt lat="43.65993" lon="3.87764">
        <ele>77</ele>
        <time>2021-03-21T11:25:44Z</time>
      </trkpt>
      <trkpt lat="43.65992" lon="3.87765">
        <ele>80</ele>
        <time>2021-03-21T11:25:53Z</time>
      </trkpt>
      <trkpt lat="43.65991" lon="3.87772">
        <ele>81</ele>
        <time>2021-03-21T11:26:07Z</time>
      </trkpt>
      <trkpt lat="43.65991" lon="3.87773">
        <ele>81</ele>
        <time>2021-03-21T11:26:08Z</time>
      </trkpt>
      <trkpt lat="43.65992" lon="3.87776">
        <ele>81</ele>
        <time>2021-03-21T11:26:13Z</time>
      </trkpt>
      <trkpt lat="43.65991" lon="3.87779">
        <ele>81</ele>
        <time>2021-03-21T11:26:15Z</time>
      </trkpt>
      <trkpt lat="43.6599" lon="3.87782">
        <ele>81</ele>
        <time>2021-03-21T11:26:18Z</time>
      </trkpt>
      <trkpt lat="43.65988" lon="3.87784">
        <ele>81</ele>
        <time>2021-03-21T11:26:20Z</time>
      </trkpt>
      <trkpt lat="43.65987" lon="3.87785">
        <ele>81</ele>
        <time>2021-03-21T11:26:28Z</time>
      </trkpt>
      <trkpt lat="43.65979" lon="3.87785">
        <ele>82</ele>
        <time>2021-03-21T11:26:36Z</time>
      </trkpt>
      <trkpt lat="43.65977" lon="3.87784">
        <ele>82</ele>
        <time>2021-03-21T11:26:37Z</time>
      </trkpt>
      <trkpt lat="43.65974" lon="3.87783">
        <ele>82</ele>
        <time>2021-03-21T11:26:39Z</time>
      </trkpt>
      <trkpt lat="43.65972" lon="3.87783">
        <ele>82</ele>
        <time>2021-03-21T11:26:41Z</time>
      </trkpt>
      <trkpt lat="43.65969" lon="3.87783">
        <ele>82</ele>
        <time>2021-03-21T11:26:43Z</time>
      </trkpt>
      <trkpt lat="43.65966" lon="3.87783">
        <ele>82</ele>
        <time>2021-03-21T11:26:45Z</time>
      </trkpt>
      <trkpt lat="43.65964" lon="3.87783">
        <ele>82</ele>
        <time>2021-03-21T11:26:47Z</time>
      </trkpt>
      <trkpt lat="43.65961" lon="3.87784">
        <ele>82</ele>
        <time>2021-03-21T11:26:49Z</time>
      </trkpt>
      <trkpt lat="43.65958" lon="3.87786">
        <ele>82</ele>
        <time>2021-03-21T11:26:51Z</time>
      </trkpt>
      <trkpt lat="43.65956" lon="3.87786">
        <ele>82</ele>
        <time>2021-03-21T11:26:52Z</time>
      </trkpt>
      <trkpt lat="43.65954" lon="3.87786">
        <ele>82</ele>
        <time>2021-03-21T11:26:53Z</time>
      </trkpt>
      <trkpt lat="43.65952" lon="3.87786">
        <ele>82</ele>
        <time>2021-03-21T11:26:54Z</time>
      </trkpt>
      <trkpt lat="43.65949" lon="3.87786">
        <ele>86</ele>
        <time>2021-03-21T11:26:56Z</time>
      </trkpt>
      <trkpt lat="43.65946" lon="3.87786">
        <ele>86</ele>
        <time>2021-03-21T11:26:58Z</time>
      </trkpt>
      <trkpt lat="43.65943" lon="3.87788">
        <ele>86</ele>
        <time>2021-03-21T11:27:00Z</time>
      </trkpt>
      <trkpt lat="43.65941" lon="3.8779">
        <ele>86</ele>
        <time>2021-03-21T11:27:02Z</time>
      </trkpt>
      <trkpt lat="43.65939" lon="3.87791">
        <ele>86</ele>
        <time>2021-03-21T11:27:04Z</time>
      </trkpt>
      <trkpt lat="43.65936" lon="3.87792">
        <ele>88</ele>
        <time>2021-03-21T11:27:06Z</time>
      </trkpt>
      <trkpt lat="43.65934" lon="3.87794">
        <ele>88</ele>
        <time>2021-03-21T11:27:08Z</time>
      </trkpt>
      <trkpt lat="43.65932" lon="3.87795">
        <ele>88</ele>
        <time>2021-03-21T11:27:10Z</time>
      </trkpt>
      <trkpt lat="43.6593" lon="3.87797">
        <ele>88</ele>
        <time>2021-03-21T11:27:13Z</time>
      </trkpt>
      <trkpt lat="43.6593" lon="3.87796">
        <ele>90</ele>
        <time>2021-03-21T11:27:21Z</time>
      </trkpt>
      <trkpt lat="43.65926" lon="3.8781">
        <ele>90</ele>
        <time>2021-03-21T11:27:53Z</time>
      </trkpt>
      <trkpt lat="43.65926" lon="3.87813">
        <ele>90</ele>
        <time>2021-03-21T11:27:54Z</time>
      </trkpt>
      <trkpt lat="43.65925" lon="3.87816">
        <ele>90</ele>
        <time>2021-03-21T11:27:55Z</time>
      </trkpt>
      <trkpt lat="43.65925" lon="3.87818">
        <ele>90</ele>
        <time>2021-03-21T11:27:56Z</time>
      </trkpt>
      <trkpt lat="43.65924" lon="3.87821">
        <ele>90</ele>
        <time>2021-03-21T11:27:57Z</time>
      </trkpt>
      <trkpt lat="43.65923" lon="3.87824">
        <ele>90</ele>
        <time>2021-03-21T11:27:58Z</time>
      </trkpt>
      <trkpt lat="43.65922" lon="3.87827">
        <ele>90</ele>
        <time>2021-03-21T11:27:59Z</time>
      </trkpt>
      <trkpt lat="43.6592" lon="3.8783">
        <ele>90</ele>
        <time>2021-03-21T11:28:00Z</time>
      </trkpt>
      <trkpt lat="43.65918" lon="3.87832">
        <ele>90</ele>
        <time>2021-03-21T11:28:01Z</time>
      </trkpt>
      <trkpt lat="43.65916" lon="3.87835">
        <ele>90</ele>
        <time>2021-03-21T11:28:02Z</time>
      </trkpt>
      <trkpt lat="43.65915" lon="3.87838">
        <ele>90</ele>
        <time>2021-03-21T11:28:03Z</time>
      </trkpt>
      <trkpt lat="43.65913" lon="3.8784">
        <ele>90</ele>
        <time>2021-03-21T11:28:04Z</time>
      </trkpt>
      <trkpt lat="43.6591" lon="3.87841">
        <ele>90</ele>
        <time>2021-03-21T11:28:05Z</time>
      </trkpt>
      <trkpt lat="43.65907" lon="3.87841">
        <ele>90</ele>
        <time>2021-03-21T11:28:06Z</time>
      </trkpt>
      <trkpt lat="43.65905" lon="3.87839">
        <ele>90</ele>
        <time>2021-03-21T11:28:07Z</time>
      </trkpt>
      <trkpt lat="43.65903" lon="3.87837">
        <ele>90</ele>
        <time>2021-03-21T11:28:08Z</time>
      </trkpt>
      <trkpt lat="43.65902" lon="3.87834">
        <ele>90</ele>
        <time>2021-03-21T11:28:09Z</time>
      </trkpt>
      <trkpt lat="43.65901" lon="3.87831">
        <ele>90</ele>
        <time>2021-03-21T11:28:10Z</time>
      </trkpt>
      <trkpt lat="43.659" lon="3.87827">
        <ele>90</ele>
        <time>2021-03-21T11:28:11Z</time>
      </trkpt>
      <trkpt lat="43.659" lon="3.87823">
        <ele>90</ele>
        <time>2021-03-21T11:28:12Z</time>
      </trkpt>
      <trkpt lat="43.65899" lon="3.87819">
        <ele>89</ele>
        <time>2021-03-21T11:28:13Z</time>
      </trkpt>
      <trkpt lat="43.65898" lon="3.87815">
        <ele>89</ele>
        <time>2021-03-21T11:28:14Z</time>
      </trkpt>
      <trkpt lat="43.65897" lon="3.87811">
        <ele>89</ele>
        <time>2021-03-21T11:28:15Z</time>
      </trkpt>
      <trkpt lat="43.65896" lon="3.87807">
        <ele>89</ele>
        <time>2021-03-21T11:28:16Z</time>
      </trkpt>
      <trkpt lat="43.65896" lon="3.87803">
        <ele>89</ele>
        <time>2021-03-21T11:28:17Z</time>
      </trkpt>
      <trkpt lat="43.65895" lon="3.87799">
        <ele>89</ele>
        <time>2021-03-21T11:28:18Z</time>
      </trkpt>
      <trkpt lat="43.65894" lon="3.87795">
        <ele>89</ele>
        <time>2021-03-21T11:28:19Z</time>
      </trkpt>
      <trkpt lat="43.65893" lon="3.87791">
        <ele>89</ele>
        <time>2021-03-21T11:28:20Z</time>
      </trkpt>
      <trkpt lat="43.65893" lon="3.87788">
        <ele>89</ele>
        <time>2021-03-21T11:28:21Z</time>
      </trkpt>
      <trkpt lat="43.65892" lon="3.87785">
        <ele>89</ele>
        <time>2021-03-21T11:28:22Z</time>
      </trkpt>
      <trkpt lat="43.65892" lon="3.87782">
        <ele>88</ele>
        <time>2021-03-21T11:28:23Z</time>
      </trkpt>
      <trkpt lat="43.65892" lon="3.87777">
        <ele>88</ele>
        <time>2021-03-21T11:28:24Z</time>
      </trkpt>
      <trkpt lat="43.65891" lon="3.87773">
        <ele>88</ele>
        <time>2021-03-21T11:28:25Z</time>
      </trkpt>
      <trkpt lat="43.6589" lon="3.87768">
        <ele>88</ele>
        <time>2021-03-21T11:28:26Z</time>
      </trkpt>
      <trkpt lat="43.65889" lon="3.87764">
        <ele>88</ele>
        <time>2021-03-21T11:28:27Z</time>
      </trkpt>
      <trkpt lat="43.65886" lon="3.87762">
        <ele>88</ele>
        <time>2021-03-21T11:28:28Z</time>
      </trkpt>
      <trkpt lat="43.65884" lon="3.87759">
        <ele>88</ele>
        <time>2021-03-21T11:28:29Z</time>
      </trkpt>
      <trkpt lat="43.65882" lon="3.87755">
        <ele>88</ele>
        <time>2021-03-21T11:28:30Z</time>
      </trkpt>
      <trkpt lat="43.6588" lon="3.87752">
        <ele>88</ele>
        <time>2021-03-21T11:28:31Z</time>
      </trkpt>
      <trkpt lat="43.65878" lon="3.87748">
        <ele>89</ele>
        <time>2021-03-21T11:28:32Z</time>
      </trkpt>
      <trkpt lat="43.65878" lon="3.87744">
        <ele>89</ele>
        <time>2021-03-21T11:28:33Z</time>
      </trkpt>
      <trkpt lat="43.65877" lon="3.8774">
        <ele>89</ele>
        <time>2021-03-21T11:28:34Z</time>
      </trkpt>
      <trkpt lat="43.65877" lon="3.87736">
        <ele>89</ele>
        <time>2021-03-21T11:28:35Z</time>
      </trkpt>
      <trkpt lat="43.65876" lon="3.87732">
        <ele>89</ele>
        <time>2021-03-21T11:28:36Z</time>
      </trkpt>
      <trkpt lat="43.65875" lon="3.87727">
        <ele>89</ele>
        <time>2021-03-21T11:28:37Z</time>
      </trkpt>
      <trkpt lat="43.65874" lon="3.87722">
        <ele>89</ele>
        <time>2021-03-21T11:28:38Z</time>
      </trkpt>
      <trkpt lat="43.65873" lon="3.87716">
        <ele>89</ele>
        <time>2021-03-21T11:28:39Z</time>
      </trkpt>
      <trkpt lat="43.65872" lon="3.87711">
        <ele>89</ele>
        <time>2021-03-21T11:28:40Z</time>
      </trkpt>
      <trkpt lat="43.65871" lon="3.87706">
        <ele>89</ele>
        <time>2021-03-21T11:28:41Z</time>
      </trkpt>
      <trkpt lat="43.6587" lon="3.87702">
        <ele>89</ele>
        <time>2021-03-21T11:28:42Z</time>
      </trkpt>
      <trkpt lat="43.6587" lon="3.87698">
        <ele>89</ele>
        <time>2021-03-21T11:28:43Z</time>
      </trkpt>
      <trkpt lat="43.65869" lon="3.87694">
        <ele>89</ele>
        <time>2021-03-21T11:28:44Z</time>
      </trkpt>
      <trkpt lat="43.65868" lon="3.87689">
        <ele>89</ele>
        <time>2021-03-21T11:28:45Z</time>
      </trkpt>
      <trkpt lat="43.65867" lon="3.87685">
        <ele>89</ele>
        <time>2021-03-21T11:28:46Z</time>
      </trkpt>
      <trkpt lat="43.65866" lon="3.8768">
        <ele>89</ele>
        <time>2021-03-21T11:28:47Z</time>
      </trkpt>
      <trkpt lat="43.65865" lon="3.87676">
        <ele>89</ele>
        <time>2021-03-21T11:28:48Z</time>
      </trkpt>
      <trkpt lat="43.65864" lon="3.87672">
        <ele>89</ele>
        <time>2021-03-21T11:28:49Z</time>
      </trkpt>
      <trkpt lat="43.65862" lon="3.87668">
        <ele>89</ele>
        <time>2021-03-21T11:28:50Z</time>
      </trkpt>
      <trkpt lat="43.6586" lon="3.87665">
        <ele>89</ele>
        <time>2021-03-21T11:28:51Z</time>
      </trkpt>
      <trkpt lat="43.65858" lon="3.87661">
        <ele>89</ele>
        <time>2021-03-21T11:28:52Z</time>
      </trkpt>
      <trkpt lat="43.65856" lon="3.87657">
        <ele>90</ele>
        <time>2021-03-21T11:28:53Z</time>
      </trkpt>
      <trkpt lat="43.65854" lon="3.87653">
        <ele>90</ele>
        <time>2021-03-21T11:28:54Z</time>
      </trkpt>
      <trkpt lat="43.65853" lon="3.87649">
        <ele>90</ele>
        <time>2021-03-21T11:28:55Z</time>
      </trkpt>
      <trkpt lat="43.65851" lon="3.87645">
        <ele>90</ele>
        <time>2021-03-21T11:28:56Z</time>
      </trkpt>
      <trkpt lat="43.65849" lon="3.87641">
        <ele>90</ele>
        <time>2021-03-21T11:28:57Z</time>
      </trkpt>
      <trkpt lat="43.65848" lon="3.87637">
        <ele>90</ele>
        <time>2021-03-21T11:28:58Z</time>
      </trkpt>
      <trkpt lat="43.65846" lon="3.87634">
        <ele>90</ele>
        <time>2021-03-21T11:28:59Z</time>
      </trkpt>
      <trkpt lat="43.65844" lon="3.8763">
        <ele>90</ele>
        <time>2021-03-21T11:29:00Z</time>
      </trkpt>
      <trkpt lat="43.65843" lon="3.87626">
        <ele>90</ele>
        <time>2021-03-21T11:29:01Z</time>
      </trkpt>
      <trkpt lat="43.65842" lon="3.87622">
        <ele>90</ele>
        <time>2021-03-21T11:29:02Z</time>
      </trkpt>
      <trkpt lat="43.6584" lon="3.87617">
        <ele>90</ele>
        <time>2021-03-21T11:29:03Z</time>
      </trkpt>
      <trkpt lat="43.65839" lon="3.87614">
        <ele>90</ele>
        <time>2021-03-21T11:29:04Z</time>
      </trkpt>
      <trkpt lat="43.65836" lon="3.87611">
        <ele>90</ele>
        <time>2021-03-21T11:29:05Z</time>
      </trkpt>
      <trkpt lat="43.65835" lon="3.87608">
        <ele>90</ele>
        <time>2021-03-21T11:29:06Z</time>
      </trkpt>
      <trkpt lat="43.65833" lon="3.87605">
        <ele>90</ele>
        <time>2021-03-21T11:29:07Z</time>
      </trkpt>
      <trkpt lat="43.65831" lon="3.87604">
        <ele>90</ele>
        <time>2021-03-21T11:29:08Z</time>
      </trkpt>
      <trkpt lat="43.65829" lon="3.87604">
        <ele>90</ele>
        <time>2021-03-21T11:29:09Z</time>
      </trkpt>
      <trkpt lat="43.65827" lon="3.87604">
        <ele>90</ele>
        <time>2021-03-21T11:29:10Z</time>
      </trkpt>
      <trkpt lat="43.65825" lon="3.87603">
        <ele>90</ele>
        <time>2021-03-21T11:29:11Z</time>
      </trkpt>
      <trkpt lat="43.65822" lon="3.87603">
        <ele>92</ele>
        <time>2021-03-21T11:29:13Z</time>
      </trkpt>
      <trkpt lat="43.6582" lon="3.87601">
        <ele>92</ele>
        <time>2021-03-21T11:29:15Z</time>
      </trkpt>
      <trkpt lat="43.65818" lon="3.876">
        <ele>92</ele>
        <time>2021-03-21T11:29:19Z</time>
      </trkpt>
      <trkpt lat="43.65816" lon="3.87601">
        <ele>92</ele>
        <time>2021-03-21T11:29:21Z</time>
      </trkpt>
      <trkpt lat="43.65812" lon="3.87598">
        <ele>92</ele>
        <time>2021-03-21T11:29:23Z</time>
      </trkpt>
      <trkpt lat="43.6581" lon="3.87596">
        <ele>92</ele>
        <time>2021-03-21T11:29:24Z</time>
      </trkpt>
      <trkpt lat="43.65808" lon="3.87593">
        <ele>92</ele>
        <time>2021-03-21T11:29:25Z</time>
      </trkpt>
      <trkpt lat="43.65807" lon="3.87589">
        <ele>92</ele>
        <time>2021-03-21T11:29:26Z</time>
      </trkpt>
      <trkpt lat="43.65807" lon="3.87585">
        <ele>92</ele>
        <time>2021-03-21T11:29:27Z</time>
      </trkpt>
      <trkpt lat="43.65806" lon="3.87581">
        <ele>92</ele>
        <time>2021-03-21T11:29:28Z</time>
      </trkpt>
      <trkpt lat="43.65804" lon="3.87578">
        <ele>92</ele>
        <time>2021-03-21T11:29:29Z</time>
      </trkpt>
      <trkpt lat="43.65803" lon="3.87575">
        <ele>92</ele>
        <time>2021-03-21T11:29:30Z</time>
      </trkpt>
      <trkpt lat="43.65802" lon="3.87573">
        <ele>92</ele>
        <time>2021-03-21T11:29:31Z</time>
      </trkpt>
      <trkpt lat="43.658" lon="3.87568">
        <ele>94</ele>
        <time>2021-03-21T11:29:33Z</time>
      </trkpt>
      <trkpt lat="43.65798" lon="3.87566">
        <ele>94</ele>
        <time>2021-03-21T11:29:34Z</time>
      </trkpt>
      <trkpt lat="43.65797" lon="3.87564">
        <ele>94</ele>
        <time>2021-03-21T11:29:35Z</time>
      </trkpt>
      <trkpt lat="43.65794" lon="3.87562">
        <ele>94</ele>
        <time>2021-03-21T11:29:37Z</time>
      </trkpt>
      <trkpt lat="43.65792" lon="3.87564">
        <ele>94</ele>
        <time>2021-03-21T11:29:39Z</time>
      </trkpt>
      <trkpt lat="43.65788" lon="3.87563">
        <ele>94</ele>
        <time>2021-03-21T11:29:41Z</time>
      </trkpt>
      <trkpt lat="43.65785" lon="3.87562">
        <ele>94</ele>
        <time>2021-03-21T11:29:43Z</time>
      </trkpt>
      <trkpt lat="43.65784" lon="3.8756">
        <ele>94</ele>
        <time>2021-03-21T11:29:44Z</time>
      </trkpt>
      <trkpt lat="43.65782" lon="3.87558">
        <ele>94</ele>
        <time>2021-03-21T11:29:45Z</time>
      </trkpt>
      <trkpt lat="43.6578" lon="3.87557">
        <ele>94</ele>
        <time>2021-03-21T11:29:46Z</time>
      </trkpt>
      <trkpt lat="43.65778" lon="3.87556">
        <ele>94</ele>
        <time>2021-03-21T11:29:47Z</time>
      </trkpt>
      <trkpt lat="43.65776" lon="3.87554">
        <ele>94</ele>
        <time>2021-03-21T11:29:48Z</time>
      </trkpt>
      <trkpt lat="43.65774" lon="3.87553">
        <ele>94</ele>
        <time>2021-03-21T11:29:49Z</time>
      </trkpt>
      <trkpt lat="43.65772" lon="3.87552">
        <ele>94</ele>
        <time>2021-03-21T11:29:50Z</time>
      </trkpt>
      <trkpt lat="43.6577" lon="3.87551">
        <ele>94</ele>
        <time>2021-03-21T11:29:51Z</time>
      </trkpt>
      <trkpt lat="43.65768" lon="3.87549">
        <ele>94</ele>
        <time>2021-03-21T11:29:52Z</time>
      </trkpt>
      <trkpt lat="43.65766" lon="3.87548">
        <ele>94</ele>
        <time>2021-03-21T11:29:53Z</time>
      </trkpt>
      <trkpt lat="43.65764" lon="3.87546">
        <ele>94</ele>
        <time>2021-03-21T11:29:54Z</time>
      </trkpt>
      <trkpt lat="43.65762" lon="3.87543">
        <ele>94</ele>
        <time>2021-03-21T11:29:55Z</time>
      </trkpt>
      <trkpt lat="43.65761" lon="3.8754">
        <ele>94</ele>
        <time>2021-03-21T11:29:56Z</time>
      </trkpt>
      <trkpt lat="43.65758" lon="3.87532">
        <ele>94</ele>
        <time>2021-03-21T11:29:58Z</time>
      </trkpt>
      <trkpt lat="43.65756" lon="3.87528">
        <ele>94</ele>
        <time>2021-03-21T11:29:59Z</time>
      </trkpt>
      <trkpt lat="43.65755" lon="3.87522">
        <ele>94</ele>
        <time>2021-03-21T11:30:00Z</time>
      </trkpt>
      <trkpt lat="43.65752" lon="3.87518">
        <ele>94</ele>
        <time>2021-03-21T11:30:01Z</time>
      </trkpt>
      <trkpt lat="43.65749" lon="3.87514">
        <ele>94</ele>
        <time>2021-03-21T11:30:02Z</time>
      </trkpt>
      <trkpt lat="43.65746" lon="3.8751">
        <ele>94</ele>
        <time>2021-03-21T11:30:03Z</time>
      </trkpt>
      <trkpt lat="43.65742" lon="3.87507">
        <ele>94</ele>
        <time>2021-03-21T11:30:04Z</time>
      </trkpt>
      <trkpt lat="43.65739" lon="3.87503">
        <ele>94</ele>
        <time>2021-03-21T11:30:05Z</time>
      </trkpt>
      <trkpt lat="43.65735" lon="3.875">
        <ele>94</ele>
        <time>2021-03-21T11:30:06Z</time>
      </trkpt>
      <trkpt lat="43.65732" lon="3.87496">
        <ele>94</ele>
        <time>2021-03-21T11:30:07Z</time>
      </trkpt>
      <trkpt lat="43.65729" lon="3.87492">
        <ele>94</ele>
        <time>2021-03-21T11:30:08Z</time>
      </trkpt>
      <trkpt lat="43.65725" lon="3.87489">
        <ele>94</ele>
        <time>2021-03-21T11:30:09Z</time>
      </trkpt>
      <trkpt lat="43.6572" lon="3.87486">
        <ele>94</ele>
        <time>2021-03-21T11:30:10Z</time>
      </trkpt>
      <trkpt lat="43.65716" lon="3.87482">
        <ele>94</ele>
        <time>2021-03-21T11:30:11Z</time>
      </trkpt>
      <trkpt lat="43.65713" lon="3.87479">
        <ele>94</ele>
        <time>2021-03-21T11:30:12Z</time>
      </trkpt>
      <trkpt lat="43.65708" lon="3.87477">
        <ele>94</ele>
        <time>2021-03-21T11:30:13Z</time>
      </trkpt>
      <trkpt lat="43.65701" lon="3.87472">
        <ele>94</ele>
        <time>2021-03-21T11:30:15Z</time>
      </trkpt>
      <trkpt lat="43.65699" lon="3.87468">
        <ele>94</ele>
        <time>2021-03-21T11:30:16Z</time>
      </trkpt>
      <trkpt lat="43.65689" lon="3.87455">
        <ele>94</ele>
        <time>2021-03-21T11:30:19Z</time>
      </trkpt>
      <trkpt lat="43.65686" lon="3.87452">
        <ele>94</ele>
        <time>2021-03-21T11:30:20Z</time>
      </trkpt>
      <trkpt lat="43.65679" lon="3.87441">
        <ele>94</ele>
        <time>2021-03-21T11:30:22Z</time>
      </trkpt>
      <trkpt lat="43.65673" lon="3.87427">
        <ele>94</ele>
        <time>2021-03-21T11:30:24Z</time>
      </trkpt>
      <trkpt lat="43.65672" lon="3.8742">
        <ele>94</ele>
        <time>2021-03-21T11:30:25Z</time>
      </trkpt>
      <trkpt lat="43.65671" lon="3.87413">
        <ele>94</ele>
        <time>2021-03-21T11:30:26Z</time>
      </trkpt>
      <trkpt lat="43.6567" lon="3.87408">
        <ele>94</ele>
        <time>2021-03-21T11:30:27Z</time>
      </trkpt>
      <trkpt lat="43.65669" lon="3.87404">
        <ele>94</ele>
        <time>2021-03-21T11:30:28Z</time>
      </trkpt>
      <trkpt lat="43.65668" lon="3.87401">
        <ele>94</ele>
        <time>2021-03-21T11:30:29Z</time>
      </trkpt>
      <trkpt lat="43.65666" lon="3.87398">
        <ele>94</ele>
        <time>2021-03-21T11:30:30Z</time>
      </trkpt>
      <trkpt lat="43.65664" lon="3.87396">
        <ele>94</ele>
        <time>2021-03-21T11:30:31Z</time>
      </trkpt>
      <trkpt lat="43.65662" lon="3.87393">
        <ele>94</ele>
        <time>2021-03-21T11:30:32Z</time>
      </trkpt>
      <trkpt lat="43.65661" lon="3.87389">
        <ele>93</ele>
        <time>2021-03-21T11:30:33Z</time>
      </trkpt>
      <trkpt lat="43.6566" lon="3.87387">
        <ele>93</ele>
        <time>2021-03-21T11:30:34Z</time>
      </trkpt>
      <trkpt lat="43.65658" lon="3.87385">
        <ele>93</ele>
        <time>2021-03-21T11:30:35Z</time>
      </trkpt>
      <trkpt lat="43.65656" lon="3.87383">
        <ele>93</ele>
        <time>2021-03-21T11:30:36Z</time>
      </trkpt>
      <trkpt lat="43.65654" lon="3.8738">
        <ele>93</ele>
        <time>2021-03-21T11:30:37Z</time>
      </trkpt>
      <trkpt lat="43.65652" lon="3.87377">
        <ele>93</ele>
        <time>2021-03-21T11:30:38Z</time>
      </trkpt>
      <trkpt lat="43.65649" lon="3.87374">
        <ele>93</ele>
        <time>2021-03-21T11:30:39Z</time>
      </trkpt>
      <trkpt lat="43.65647" lon="3.8737">
        <ele>93</ele>
        <time>2021-03-21T11:30:40Z</time>
      </trkpt>
      <trkpt lat="43.65645" lon="3.87365">
        <ele>93</ele>
        <time>2021-03-21T11:30:41Z</time>
      </trkpt>
      <trkpt lat="43.65642" lon="3.8736">
        <ele>92</ele>
        <time>2021-03-21T11:30:42Z</time>
      </trkpt>
      <trkpt lat="43.6564" lon="3.87355">
        <ele>92</ele>
        <time>2021-03-21T11:30:43Z</time>
      </trkpt>
      <trkpt lat="43.65638" lon="3.87351">
        <ele>92</ele>
        <time>2021-03-21T11:30:44Z</time>
      </trkpt>
      <trkpt lat="43.65635" lon="3.87346">
        <ele>92</ele>
        <time>2021-03-21T11:30:45Z</time>
      </trkpt>
      <trkpt lat="43.65632" lon="3.87341">
        <ele>92</ele>
        <time>2021-03-21T11:30:46Z</time>
      </trkpt>
      <trkpt lat="43.6563" lon="3.87337">
        <ele>92</ele>
        <time>2021-03-21T11:30:47Z</time>
      </trkpt>
      <trkpt lat="43.65627" lon="3.87333">
        <ele>92</ele>
        <time>2021-03-21T11:30:48Z</time>
      </trkpt>
      <trkpt lat="43.65626" lon="3.87329">
        <ele>92</ele>
        <time>2021-03-21T11:30:49Z</time>
      </trkpt>
      <trkpt lat="43.65623" lon="3.87321">
        <ele>92</ele>
        <time>2021-03-21T11:30:51Z</time>
      </trkpt>
      <trkpt lat="43.65616" lon="3.87312">
        <ele>92</ele>
        <time>2021-03-21T11:30:54Z</time>
      </trkpt>
      <trkpt lat="43.6561" lon="3.87302">
        <ele>92</ele>
        <time>2021-03-21T11:30:56Z</time>
      </trkpt>
      <trkpt lat="43.65607" lon="3.87297">
        <ele>92</ele>
        <time>2021-03-21T11:30:57Z</time>
      </trkpt>
      <trkpt lat="43.65605" lon="3.87293">
        <ele>92</ele>
        <time>2021-03-21T11:30:58Z</time>
      </trkpt>
      <trkpt lat="43.65603" lon="3.87289">
        <ele>92</ele>
        <time>2021-03-21T11:30:59Z</time>
      </trkpt>
      <trkpt lat="43.65602" lon="3.87287">
        <ele>92</ele>
        <time>2021-03-21T11:31:00Z</time>
      </trkpt>
      <trkpt lat="43.656" lon="3.87285">
        <ele>92</ele>
        <time>2021-03-21T11:31:01Z</time>
      </trkpt>
      <trkpt lat="43.65598" lon="3.87284">
        <ele>92</ele>
        <time>2021-03-21T11:31:02Z</time>
      </trkpt>
      <trkpt lat="43.65596" lon="3.87282">
        <ele>89</ele>
        <time>2021-03-21T11:31:03Z</time>
      </trkpt>
      <trkpt lat="43.65594" lon="3.87279">
        <ele>89</ele>
        <time>2021-03-21T11:31:04Z</time>
      </trkpt>
      <trkpt lat="43.65591" lon="3.87276">
        <ele>89</ele>
        <time>2021-03-21T11:31:05Z</time>
      </trkpt>
      <trkpt lat="43.65589" lon="3.87272">
        <ele>89</ele>
        <time>2021-03-21T11:31:06Z</time>
      </trkpt>
      <trkpt lat="43.65587" lon="3.87268">
        <ele>89</ele>
        <time>2021-03-21T11:31:07Z</time>
      </trkpt>
      <trkpt lat="43.65585" lon="3.87263">
        <ele>89</ele>
        <time>2021-03-21T11:31:08Z</time>
      </trkpt>
      <trkpt lat="43.65584" lon="3.87259">
        <ele>89</ele>
        <time>2021-03-21T11:31:09Z</time>
      </trkpt>
      <trkpt lat="43.65582" lon="3.87256">
        <ele>89</ele>
        <time>2021-03-21T11:31:10Z</time>
      </trkpt>
      <trkpt lat="43.65581" lon="3.87253">
        <ele>89</ele>
        <time>2021-03-21T11:31:11Z</time>
      </trkpt>
      <trkpt lat="43.6558" lon="3.8725">
        <ele>89</ele>
        <time>2021-03-21T11:31:12Z</time>
      </trkpt>
      <trkpt lat="43.6558" lon="3.87248">
        <ele>87</ele>
        <time>2021-03-21T11:31:13Z</time>
      </trkpt>
      <trkpt lat="43.65579" lon="3.87245">
        <ele>87</ele>
        <time>2021-03-21T11:31:14Z</time>
      </trkpt>
      <trkpt lat="43.65579" lon="3.87243">
        <ele>87</ele>
        <time>2021-03-21T11:31:15Z</time>
      </trkpt>
      <trkpt lat="43.65579" lon="3.8724">
        <ele>87</ele>
        <time>2021-03-21T11:31:16Z</time>
      </trkpt>
      <trkpt lat="43.65578" lon="3.87237">
        <ele>87</ele>
        <time>2021-03-21T11:31:17Z</time>
      </trkpt>
      <trkpt lat="43.65577" lon="3.87234">
        <ele>87</ele>
        <time>2021-03-21T11:31:18Z</time>
      </trkpt>
      <trkpt lat="43.65575" lon="3.87231">
        <ele>87</ele>
        <time>2021-03-21T11:31:20Z</time>
      </trkpt>
      <trkpt lat="43.65573" lon="3.87229">
        <ele>87</ele>
        <time>2021-03-21T11:31:21Z</time>
      </trkpt>
      <trkpt lat="43.6557" lon="3.87227">
        <ele>87</ele>
        <time>2021-03-21T11:31:22Z</time>
      </trkpt>
      <trkpt lat="43.65568" lon="3.87226">
        <ele>84</ele>
        <time>2021-03-21T11:31:23Z</time>
      </trkpt>
      <trkpt lat="43.65566" lon="3.87225">
        <ele>84</ele>
        <time>2021-03-21T11:31:24Z</time>
      </trkpt>
      <trkpt lat="43.65564" lon="3.87223">
        <ele>84</ele>
        <time>2021-03-21T11:31:25Z</time>
      </trkpt>
      <trkpt lat="43.65562" lon="3.87223">
        <ele>84</ele>
        <time>2021-03-21T11:31:26Z</time>
      </trkpt>
      <trkpt lat="43.65559" lon="3.87224">
        <ele>84</ele>
        <time>2021-03-21T11:31:28Z</time>
      </trkpt>
      <trkpt lat="43.65557" lon="3.87223">
        <ele>84</ele>
        <time>2021-03-21T11:31:29Z</time>
      </trkpt>
      <trkpt lat="43.65555" lon="3.87222">
        <ele>84</ele>
        <time>2021-03-21T11:31:30Z</time>
      </trkpt>
      <trkpt lat="43.65553" lon="3.8722">
        <ele>84</ele>
        <time>2021-03-21T11:31:31Z</time>
      </trkpt>
      <trkpt lat="43.65552" lon="3.87217">
        <ele>84</ele>
        <time>2021-03-21T11:31:32Z</time>
      </trkpt>
      <trkpt lat="43.65553" lon="3.87213">
        <ele>79</ele>
        <time>2021-03-21T11:31:33Z</time>
      </trkpt>
      <trkpt lat="43.65554" lon="3.8721">
        <ele>79</ele>
        <time>2021-03-21T11:31:34Z</time>
      </trkpt>
      <trkpt lat="43.65555" lon="3.87207">
        <ele>79</ele>
        <time>2021-03-21T11:31:35Z</time>
      </trkpt>
      <trkpt lat="43.65557" lon="3.87205">
        <ele>79</ele>
        <time>2021-03-21T11:31:36Z</time>
      </trkpt>
      <trkpt lat="43.65559" lon="3.87203">
        <ele>79</ele>
        <time>2021-03-21T11:31:37Z</time>
      </trkpt>
      <trkpt lat="43.65561" lon="3.87201">
        <ele>79</ele>
        <time>2021-03-21T11:31:38Z</time>
      </trkpt>
      <trkpt lat="43.65563" lon="3.872">
        <ele>79</ele>
        <time>2021-03-21T11:31:40Z</time>
      </trkpt>
      <trkpt lat="43.65569" lon="3.87196">
        <ele>75</ele>
        <time>2021-03-21T11:31:54Z</time>
      </trkpt>
      <trkpt lat="43.6557" lon="3.87196">
        <ele>75</ele>
        <time>2021-03-21T11:31:56Z</time>
      </trkpt>
      <trkpt lat="43.65572" lon="3.87196">
        <ele>73</ele>
        <time>2021-03-21T11:32:07Z</time>
      </trkpt>
      <trkpt lat="43.65579" lon="3.87193">
        <ele>68</ele>
        <time>2021-03-21T11:33:08Z</time>
      </trkpt>
      <trkpt lat="43.65576" lon="3.87195">
        <ele>68</ele>
        <time>2021-03-21T11:33:11Z</time>
      </trkpt>
      <trkpt lat="43.65574" lon="3.87196">
        <ele>68</ele>
        <time>2021-03-21T11:33:13Z</time>
      </trkpt>
      <trkpt lat="43.65571" lon="3.87196">
        <ele>68</ele>
        <time>2021-03-21T11:33:20Z</time>
      </trkpt>
      <trkpt lat="43.6557" lon="3.87196">
        <ele>68</ele>
        <time>2021-03-21T11:33:24Z</time>
      </trkpt>
      <trkpt lat="43.65562" lon="3.87188">
        <ele>65</ele>
        <time>2021-03-21T11:33:59Z</time>
      </trkpt>
      <trkpt lat="43.65561" lon="3.87189">
        <ele>64</ele>
        <time>2021-03-21T11:34:07Z</time>
      </trkpt>
      <trkpt lat="43.65567" lon="3.87176">
        <ele>55</ele>
        <time>2021-03-21T11:37:32Z</time>
      </trkpt>
      <trkpt lat="43.6557" lon="3.87178">
        <ele>55</ele>
        <time>2021-03-21T11:37:33Z</time>
      </trkpt>
      <trkpt lat="43.65573" lon="3.8718">
        <ele>55</ele>
        <time>2021-03-21T11:37:35Z</time>
      </trkpt>
      <trkpt lat="43.65576" lon="3.87182">
        <ele>55</ele>
        <time>2021-03-21T11:37:37Z</time>
      </trkpt>
      <trkpt lat="43.65578" lon="3.87183">
        <ele>55</ele>
        <time>2021-03-21T11:37:38Z</time>
      </trkpt>
      <trkpt lat="43.6558" lon="3.87184">
        <ele>55</ele>
        <time>2021-03-21T11:37:39Z</time>
      </trkpt>
      <trkpt lat="43.65582" lon="3.87186">
        <ele>55</ele>
        <time>2021-03-21T11:37:40Z</time>
      </trkpt>
      <trkpt lat="43.65584" lon="3.87188">
        <ele>55</ele>
        <time>2021-03-21T11:37:41Z</time>
      </trkpt>
      <trkpt lat="43.65586" lon="3.87189">
        <ele>55</ele>
        <time>2021-03-21T11:37:42Z</time>
      </trkpt>
      <trkpt lat="43.65589" lon="3.87191">
        <ele>55</ele>
        <time>2021-03-21T11:37:43Z</time>
      </trkpt>
      <trkpt lat="43.65592" lon="3.87193">
        <ele>55</ele>
        <time>2021-03-21T11:37:44Z</time>
      </trkpt>
      <trkpt lat="43.65594" lon="3.87195">
        <ele>55</ele>
        <time>2021-03-21T11:37:45Z</time>
      </trkpt>
      <trkpt lat="43.65597" lon="3.87197">
        <ele>55</ele>
        <time>2021-03-21T11:37:46Z</time>
      </trkpt>
      <trkpt lat="43.65599" lon="3.87198">
        <ele>55</ele>
        <time>2021-03-21T11:37:47Z</time>
      </trkpt>
      <trkpt lat="43.65602" lon="3.872">
        <ele>55</ele>
        <time>2021-03-21T11:37:48Z</time>
      </trkpt>
      <trkpt lat="43.65605" lon="3.87202">
        <ele>55</ele>
        <time>2021-03-21T11:37:49Z</time>
      </trkpt>
      <trkpt lat="43.65609" lon="3.87205">
        <ele>55</ele>
        <time>2021-03-21T11:37:50Z</time>
      </trkpt>
      <trkpt lat="43.65612" lon="3.87208">
        <ele>54</ele>
        <time>2021-03-21T11:37:51Z</time>
      </trkpt>
      <trkpt lat="43.65615" lon="3.8721">
        <ele>54</ele>
        <time>2021-03-21T11:37:52Z</time>
      </trkpt>
      <trkpt lat="43.65618" lon="3.87211">
        <ele>54</ele>
        <time>2021-03-21T11:37:53Z</time>
      </trkpt>
      <trkpt lat="43.65621" lon="3.87211">
        <ele>54</ele>
        <time>2021-03-21T11:37:54Z</time>
      </trkpt>
      <trkpt lat="43.65624" lon="3.87212">
        <ele>54</ele>
        <time>2021-03-21T11:37:55Z</time>
      </trkpt>
      <trkpt lat="43.65628" lon="3.87211">
        <ele>54</ele>
        <time>2021-03-21T11:37:56Z</time>
      </trkpt>
      <trkpt lat="43.65633" lon="3.87211">
        <ele>54</ele>
        <time>2021-03-21T11:37:57Z</time>
      </trkpt>
      <trkpt lat="43.65637" lon="3.87213">
        <ele>54</ele>
        <time>2021-03-21T11:37:58Z</time>
      </trkpt>
      <trkpt lat="43.65642" lon="3.87214">
        <ele>54</ele>
        <time>2021-03-21T11:37:59Z</time>
      </trkpt>
      <trkpt lat="43.65646" lon="3.87216">
        <ele>54</ele>
        <time>2021-03-21T11:38:00Z</time>
      </trkpt>
      <trkpt lat="43.65649" lon="3.87218">
        <ele>54</ele>
        <time>2021-03-21T11:38:01Z</time>
      </trkpt>
      <trkpt lat="43.65651" lon="3.8722">
        <ele>54</ele>
        <time>2021-03-21T11:38:02Z</time>
      </trkpt>
      <trkpt lat="43.65654" lon="3.87222">
        <ele>54</ele>
        <time>2021-03-21T11:38:03Z</time>
      </trkpt>
      <trkpt lat="43.65656" lon="3.87222">
        <ele>54</ele>
        <time>2021-03-21T11:38:04Z</time>
      </trkpt>
      <trkpt lat="43.65658" lon="3.87224">
        <ele>54</ele>
        <time>2021-03-21T11:38:05Z</time>
      </trkpt>
      <trkpt lat="43.6566" lon="3.87225">
        <ele>54</ele>
        <time>2021-03-21T11:38:06Z</time>
      </trkpt>
      <trkpt lat="43.65661" lon="3.87227">
        <ele>54</ele>
        <time>2021-03-21T11:38:07Z</time>
      </trkpt>
      <trkpt lat="43.65662" lon="3.87229">
        <ele>54</ele>
        <time>2021-03-21T11:38:08Z</time>
      </trkpt>
      <trkpt lat="43.65664" lon="3.87232">
        <ele>54</ele>
        <time>2021-03-21T11:38:09Z</time>
      </trkpt>
      <trkpt lat="43.65665" lon="3.87234">
        <ele>54</ele>
        <time>2021-03-21T11:38:10Z</time>
      </trkpt>
      <trkpt lat="43.65667" lon="3.87238">
        <ele>54</ele>
        <time>2021-03-21T11:38:12Z</time>
      </trkpt>
      <trkpt lat="43.65668" lon="3.87241">
        <ele>54</ele>
        <time>2021-03-21T11:38:13Z</time>
      </trkpt>
      <trkpt lat="43.65669" lon="3.87244">
        <ele>54</ele>
        <time>2021-03-21T11:38:14Z</time>
      </trkpt>
      <trkpt lat="43.6567" lon="3.87247">
        <ele>54</ele>
        <time>2021-03-21T11:38:15Z</time>
      </trkpt>
      <trkpt lat="43.65672" lon="3.87249">
        <ele>54</ele>
        <time>2021-03-21T11:38:16Z</time>
      </trkpt>
      <trkpt lat="43.65673" lon="3.87252">
        <ele>54</ele>
        <time>2021-03-21T11:38:17Z</time>
      </trkpt>
      <trkpt lat="43.65675" lon="3.87255">
        <ele>54</ele>
        <time>2021-03-21T11:38:18Z</time>
      </trkpt>
      <trkpt lat="43.65676" lon="3.87258">
        <ele>54</ele>
        <time>2021-03-21T11:38:19Z</time>
      </trkpt>
      <trkpt lat="43.65678" lon="3.87262">
        <ele>57</ele>
        <time>2021-03-21T11:38:21Z</time>
      </trkpt>
      <trkpt lat="43.65679" lon="3.87263">
        <ele>57</ele>
        <time>2021-03-21T11:38:22Z</time>
      </trkpt>
      <trkpt lat="43.65681" lon="3.87265">
        <ele>57</ele>
        <time>2021-03-21T11:38:23Z</time>
      </trkpt>
      <trkpt lat="43.65682" lon="3.87267">
        <ele>57</ele>
        <time>2021-03-21T11:38:24Z</time>
      </trkpt>
      <trkpt lat="43.65684" lon="3.87268">
        <ele>57</ele>
        <time>2021-03-21T11:38:25Z</time>
      </trkpt>
      <trkpt lat="43.65687" lon="3.87271">
        <ele>57</ele>
        <time>2021-03-21T11:38:27Z</time>
      </trkpt>
      <trkpt lat="43.65689" lon="3.87274">
        <ele>57</ele>
        <time>2021-03-21T11:38:29Z</time>
      </trkpt>
      <trkpt lat="43.65691" lon="3.87276">
        <ele>57</ele>
        <time>2021-03-21T11:38:31Z</time>
      </trkpt>
      <trkpt lat="43.65692" lon="3.87277">
        <ele>57</ele>
        <time>2021-03-21T11:38:32Z</time>
      </trkpt>
      <trkpt lat="43.65696" lon="3.87279">
        <ele>57</ele>
        <time>2021-03-21T11:38:34Z</time>
      </trkpt>
      <trkpt lat="43.65697" lon="3.8728">
        <ele>57</ele>
        <time>2021-03-21T11:38:35Z</time>
      </trkpt>
      <trkpt lat="43.657" lon="3.87283">
        <ele>57</ele>
        <time>2021-03-21T11:38:37Z</time>
      </trkpt>
      <trkpt lat="43.65702" lon="3.87284">
        <ele>57</ele>
        <time>2021-03-21T11:38:38Z</time>
      </trkpt>
      <trkpt lat="43.65704" lon="3.87287">
        <ele>57</ele>
        <time>2021-03-21T11:38:40Z</time>
      </trkpt>
      <trkpt lat="43.65707" lon="3.87289">
        <ele>57</ele>
        <time>2021-03-21T11:38:42Z</time>
      </trkpt>
      <trkpt lat="43.65709" lon="3.8729">
        <ele>57</ele>
        <time>2021-03-21T11:38:43Z</time>
      </trkpt>
      <trkpt lat="43.6571" lon="3.87292">
        <ele>57</ele>
        <time>2021-03-21T11:38:44Z</time>
      </trkpt>
      <trkpt lat="43.65712" lon="3.87293">
        <ele>57</ele>
        <time>2021-03-21T11:38:45Z</time>
      </trkpt>
      <trkpt lat="43.65713" lon="3.87295">
        <ele>57</ele>
        <time>2021-03-21T11:38:46Z</time>
      </trkpt>
      <trkpt lat="43.65715" lon="3.87296">
        <ele>57</ele>
        <time>2021-03-21T11:38:47Z</time>
      </trkpt>
      <trkpt lat="43.65716" lon="3.87298">
        <ele>57</ele>
        <time>2021-03-21T11:38:48Z</time>
      </trkpt>
      <trkpt lat="43.65717" lon="3.873">
        <ele>57</ele>
        <time>2021-03-21T11:38:49Z</time>
      </trkpt>
      <trkpt lat="43.65719" lon="3.87302">
        <ele>57</ele>
        <time>2021-03-21T11:38:50Z</time>
      </trkpt>
      <trkpt lat="43.6572" lon="3.87303">
        <ele>59</ele>
        <time>2021-03-21T11:38:51Z</time>
      </trkpt>
      <trkpt lat="43.65722" lon="3.87307">
        <ele>59</ele>
        <time>2021-03-21T11:38:53Z</time>
      </trkpt>
      <trkpt lat="43.65724" lon="3.87308">
        <ele>59</ele>
        <time>2021-03-21T11:38:54Z</time>
      </trkpt>
      <trkpt lat="43.65726" lon="3.87311">
        <ele>59</ele>
        <time>2021-03-21T11:38:56Z</time>
      </trkpt>
      <trkpt lat="43.65728" lon="3.87313">
        <ele>59</ele>
        <time>2021-03-21T11:38:57Z</time>
      </trkpt>
      <trkpt lat="43.65729" lon="3.87315">
        <ele>59</ele>
        <time>2021-03-21T11:38:58Z</time>
      </trkpt>
      <trkpt lat="43.65731" lon="3.87317">
        <ele>59</ele>
        <time>2021-03-21T11:38:59Z</time>
      </trkpt>
      <trkpt lat="43.65732" lon="3.87319">
        <ele>60</ele>
        <time>2021-03-21T11:39:00Z</time>
      </trkpt>
      <trkpt lat="43.65733" lon="3.87321">
        <ele>60</ele>
        <time>2021-03-21T11:39:01Z</time>
      </trkpt>
      <trkpt lat="43.65734" lon="3.87323">
        <ele>60</ele>
        <time>2021-03-21T11:39:02Z</time>
      </trkpt>
      <trkpt lat="43.65736" lon="3.87325">
        <ele>60</ele>
        <time>2021-03-21T11:39:03Z</time>
      </trkpt>
      <trkpt lat="43.65738" lon="3.87328">
        <ele>60</ele>
        <time>2021-03-21T11:39:04Z</time>
      </trkpt>
      <trkpt lat="43.65739" lon="3.8733">
        <ele>60</ele>
        <time>2021-03-21T11:39:05Z</time>
      </trkpt>
      <trkpt lat="43.65741" lon="3.87334">
        <ele>60</ele>
        <time>2021-03-21T11:39:06Z</time>
      </trkpt>
      <trkpt lat="43.65742" lon="3.87337">
        <ele>60</ele>
        <time>2021-03-21T11:39:07Z</time>
      </trkpt>
      <trkpt lat="43.65743" lon="3.8734">
        <ele>60</ele>
        <time>2021-03-21T11:39:08Z</time>
      </trkpt>
      <trkpt lat="43.65744" lon="3.87342">
        <ele>60</ele>
        <time>2021-03-21T11:39:09Z</time>
      </trkpt>
      <trkpt lat="43.65745" lon="3.87346">
        <ele>61</ele>
        <time>2021-03-21T11:39:11Z</time>
      </trkpt>
      <trkpt lat="43.65746" lon="3.87342">
        <ele>61</ele>
        <time>2021-03-21T11:39:16Z</time>
      </trkpt>
      <trkpt lat="43.65745" lon="3.8734">
        <ele>61</ele>
        <time>2021-03-21T11:39:17Z</time>
      </trkpt>
      <trkpt lat="43.65744" lon="3.87338">
        <ele>61</ele>
        <time>2021-03-21T11:39:18Z</time>
      </trkpt>
      <trkpt lat="43.65742" lon="3.87335">
        <ele>61</ele>
        <time>2021-03-21T11:39:20Z</time>
      </trkpt>
      <trkpt lat="43.65739" lon="3.87332">
        <ele>61</ele>
        <time>2021-03-21T11:39:22Z</time>
      </trkpt>
      <trkpt lat="43.65737" lon="3.87329">
        <ele>61</ele>
        <time>2021-03-21T11:39:24Z</time>
      </trkpt>
      <trkpt lat="43.65736" lon="3.87327">
        <ele>61</ele>
        <time>2021-03-21T11:39:26Z</time>
      </trkpt>
      <trkpt lat="43.65734" lon="3.87326">
        <ele>61</ele>
        <time>2021-03-21T11:39:28Z</time>
      </trkpt>
      <trkpt lat="43.65732" lon="3.87323">
        <ele>61</ele>
        <time>2021-03-21T11:39:30Z</time>
      </trkpt>
      <trkpt lat="43.65731" lon="3.87322">
        <ele>61</ele>
        <time>2021-03-21T11:39:32Z</time>
      </trkpt>
      <trkpt lat="43.65729" lon="3.87319">
        <ele>61</ele>
        <time>2021-03-21T11:39:34Z</time>
      </trkpt>
      <trkpt lat="43.65727" lon="3.87318">
        <ele>61</ele>
        <time>2021-03-21T11:39:36Z</time>
      </trkpt>
      <trkpt lat="43.65724" lon="3.87315">
        <ele>61</ele>
        <time>2021-03-21T11:39:38Z</time>
      </trkpt>
      <trkpt lat="43.65723" lon="3.87313">
        <ele>61</ele>
        <time>2021-03-21T11:39:39Z</time>
      </trkpt>
      <trkpt lat="43.65721" lon="3.87309">
        <ele>62</ele>
        <time>2021-03-21T11:39:41Z</time>
      </trkpt>
      <trkpt lat="43.65718" lon="3.87308">
        <ele>62</ele>
        <time>2021-03-21T11:39:42Z</time>
      </trkpt>
      <trkpt lat="43.65715" lon="3.87306">
        <ele>62</ele>
        <time>2021-03-21T11:39:43Z</time>
      </trkpt>
      <trkpt lat="43.65713" lon="3.87302">
        <ele>62</ele>
        <time>2021-03-21T11:39:44Z</time>
      </trkpt>
      <trkpt lat="43.6571" lon="3.87299">
        <ele>62</ele>
        <time>2021-03-21T11:39:45Z</time>
      </trkpt>
      <trkpt lat="43.65707" lon="3.87296">
        <ele>62</ele>
        <time>2021-03-21T11:39:46Z</time>
      </trkpt>
      <trkpt lat="43.65704" lon="3.87293">
        <ele>62</ele>
        <time>2021-03-21T11:39:47Z</time>
      </trkpt>
      <trkpt lat="43.65701" lon="3.8729">
        <ele>62</ele>
        <time>2021-03-21T11:39:48Z</time>
      </trkpt>
      <trkpt lat="43.65698" lon="3.87286">
        <ele>62</ele>
        <time>2021-03-21T11:39:49Z</time>
      </trkpt>
      <trkpt lat="43.65695" lon="3.87283">
        <ele>62</ele>
        <time>2021-03-21T11:39:50Z</time>
      </trkpt>
      <trkpt lat="43.65693" lon="3.8728">
        <ele>60</ele>
        <time>2021-03-21T11:39:51Z</time>
      </trkpt>
      <trkpt lat="43.6569" lon="3.87276">
        <ele>60</ele>
        <time>2021-03-21T11:39:52Z</time>
      </trkpt>
      <trkpt lat="43.65687" lon="3.87273">
        <ele>60</ele>
        <time>2021-03-21T11:39:53Z</time>
      </trkpt>
      <trkpt lat="43.65686" lon="3.87269">
        <ele>60</ele>
        <time>2021-03-21T11:39:54Z</time>
      </trkpt>
      <trkpt lat="43.65684" lon="3.87265">
        <ele>60</ele>
        <time>2021-03-21T11:39:55Z</time>
      </trkpt>
      <trkpt lat="43.6568" lon="3.8726">
        <ele>60</ele>
        <time>2021-03-21T11:39:56Z</time>
      </trkpt>
      <trkpt lat="43.65676" lon="3.87255">
        <ele>60</ele>
        <time>2021-03-21T11:39:57Z</time>
      </trkpt>
      <trkpt lat="43.65673" lon="3.87248">
        <ele>60</ele>
        <time>2021-03-21T11:39:58Z</time>
      </trkpt>
      <trkpt lat="43.65671" lon="3.87242">
        <ele>60</ele>
        <time>2021-03-21T11:39:59Z</time>
      </trkpt>
      <trkpt lat="43.65668" lon="3.87236">
        <ele>60</ele>
        <time>2021-03-21T11:40:00Z</time>
      </trkpt>
      <trkpt lat="43.65664" lon="3.87231">
        <ele>59</ele>
        <time>2021-03-21T11:40:01Z</time>
      </trkpt>
      <trkpt lat="43.6566" lon="3.87226">
        <ele>59</ele>
        <time>2021-03-21T11:40:02Z</time>
      </trkpt>
      <trkpt lat="43.65656" lon="3.87221">
        <ele>59</ele>
        <time>2021-03-21T11:40:03Z</time>
      </trkpt>
      <trkpt lat="43.65652" lon="3.87217">
        <ele>59</ele>
        <time>2021-03-21T11:40:04Z</time>
      </trkpt>
      <trkpt lat="43.65648" lon="3.87214">
        <ele>59</ele>
        <time>2021-03-21T11:40:05Z</time>
      </trkpt>
      <trkpt lat="43.65643" lon="3.87211">
        <ele>59</ele>
        <time>2021-03-21T11:40:06Z</time>
      </trkpt>
      <trkpt lat="43.65638" lon="3.87209">
        <ele>59</ele>
        <time>2021-03-21T11:40:07Z</time>
      </trkpt>
      <trkpt lat="43.65634" lon="3.87207">
        <ele>59</ele>
        <time>2021-03-21T11:40:08Z</time>
      </trkpt>
      <trkpt lat="43.65629" lon="3.87206">
        <ele>59</ele>
        <time>2021-03-21T11:40:09Z</time>
      </trkpt>
      <trkpt lat="43.65625" lon="3.87205">
        <ele>59</ele>
        <time>2021-03-21T11:40:10Z</time>
      </trkpt>
      <trkpt lat="43.65622" lon="3.87204">
        <ele>58</ele>
        <time>2021-03-21T11:40:11Z</time>
      </trkpt>
      <trkpt lat="43.65618" lon="3.87203">
        <ele>58</ele>
        <time>2021-03-21T11:40:12Z</time>
      </trkpt>
      <trkpt lat="43.65614" lon="3.87203">
        <ele>58</ele>
        <time>2021-03-21T11:40:13Z</time>
      </trkpt>
      <trkpt lat="43.65611" lon="3.87202">
        <ele>58</ele>
        <time>2021-03-21T11:40:14Z</time>
      </trkpt>
      <trkpt lat="43.65608" lon="3.87202">
        <ele>58</ele>
        <time>2021-03-21T11:40:15Z</time>
      </trkpt>
      <trkpt lat="43.65605" lon="3.87201">
        <ele>58</ele>
        <time>2021-03-21T11:40:16Z</time>
      </trkpt>
      <trkpt lat="43.65602" lon="3.872">
        <ele>58</ele>
        <time>2021-03-21T11:40:17Z</time>
      </trkpt>
      <trkpt lat="43.65599" lon="3.87199">
        <ele>58</ele>
        <time>2021-03-21T11:40:18Z</time>
      </trkpt>
      <trkpt lat="43.65597" lon="3.87197">
        <ele>58</ele>
        <time>2021-03-21T11:40:19Z</time>
      </trkpt>
      <trkpt lat="43.65594" lon="3.87195">
        <ele>58</ele>
        <time>2021-03-21T11:40:20Z</time>
      </trkpt>
      <trkpt lat="43.65591" lon="3.87193">
        <ele>57</ele>
        <time>2021-03-21T11:40:21Z</time>
      </trkpt>
      <trkpt lat="43.65589" lon="3.87191">
        <ele>57</ele>
        <time>2021-03-21T11:40:22Z</time>
      </trkpt>
      <trkpt lat="43.65586" lon="3.87189">
        <ele>57</ele>
        <time>2021-03-21T11:40:23Z</time>
      </trkpt>
      <trkpt lat="43.65583" lon="3.87188">
        <ele>57</ele>
        <time>2021-03-21T11:40:24Z</time>
      </trkpt>
      <trkpt lat="43.65581" lon="3.87186">
        <ele>57</ele>
        <time>2021-03-21T11:40:25Z</time>
      </trkpt>
      <trkpt lat="43.65579" lon="3.87185">
        <ele>57</ele>
        <time>2021-03-21T11:40:26Z</time>
      </trkpt>
      <trkpt lat="43.65577" lon="3.87184">
        <ele>57</ele>
        <time>2021-03-21T11:40:27Z</time>
      </trkpt>
      <trkpt lat="43.65575" lon="3.87183">
        <ele>57</ele>
        <time>2021-03-21T11:40:28Z</time>
      </trkpt>
      <trkpt lat="43.65573" lon="3.87182">
        <ele>57</ele>
        <time>2021-03-21T11:40:29Z</time>
      </trkpt>
      <trkpt lat="43.65571" lon="3.8718">
        <ele>57</ele>
        <time>2021-03-21T11:40:30Z</time>
      </trkpt>
      <trkpt lat="43.65568" lon="3.87179">
        <ele>57</ele>
        <time>2021-03-21T11:40:31Z</time>
      </trkpt>
      <trkpt lat="43.65566" lon="3.87178">
        <ele>57</ele>
        <time>2021-03-21T11:40:32Z</time>
      </trkpt>
      <trkpt lat="43.65562" lon="3.87177">
        <ele>57</ele>
        <time>2021-03-21T11:40:33Z</time>
      </trkpt>
      <trkpt lat="43.6556" lon="3.87175">
        <ele>57</ele>
        <time>2021-03-21T11:40:34Z</time>
      </trkpt>
      <trkpt lat="43.65558" lon="3.87172">
        <ele>57</ele>
        <time>2021-03-21T11:40:35Z</time>
      </trkpt>
      <trkpt lat="43.65556" lon="3.8717">
        <ele>57</ele>
        <time>2021-03-21T11:40:36Z</time>
      </trkpt>
      <trkpt lat="43.65554" lon="3.87168">
        <ele>57</ele>
        <time>2021-03-21T11:40:37Z</time>
      </trkpt>
      <trkpt lat="43.65556" lon="3.87159">
        <ele>57</ele>
        <time>2021-03-21T11:40:39Z</time>
      </trkpt>
      <trkpt lat="43.65557" lon="3.87156">
        <ele>57</ele>
        <time>2021-03-21T11:40:40Z</time>
      </trkpt>
      <trkpt lat="43.6556" lon="3.87152">
        <ele>55</ele>
        <time>2021-03-21T11:40:41Z</time>
      </trkpt>
      <trkpt lat="43.65562" lon="3.87147">
        <ele>55</ele>
        <time>2021-03-21T11:40:42Z</time>
      </trkpt>
      <trkpt lat="43.65564" lon="3.87143">
        <ele>55</ele>
        <time>2021-03-21T11:40:43Z</time>
      </trkpt>
      <trkpt lat="43.65567" lon="3.87138">
        <ele>55</ele>
        <time>2021-03-21T11:40:44Z</time>
      </trkpt>
      <trkpt lat="43.6557" lon="3.87134">
        <ele>55</ele>
        <time>2021-03-21T11:40:45Z</time>
      </trkpt>
      <trkpt lat="43.65573" lon="3.8713">
        <ele>55</ele>
        <time>2021-03-21T11:40:46Z</time>
      </trkpt>
      <trkpt lat="43.65576" lon="3.87125">
        <ele>55</ele>
        <time>2021-03-21T11:40:47Z</time>
      </trkpt>
      <trkpt lat="43.65579" lon="3.87121">
        <ele>55</ele>
        <time>2021-03-21T11:40:48Z</time>
      </trkpt>
      <trkpt lat="43.65581" lon="3.87116">
        <ele>55</ele>
        <time>2021-03-21T11:40:49Z</time>
      </trkpt>
      <trkpt lat="43.65582" lon="3.87111">
        <ele>55</ele>
        <time>2021-03-21T11:40:50Z</time>
      </trkpt>
      <trkpt lat="43.65583" lon="3.87106">
        <ele>54</ele>
        <time>2021-03-21T11:40:51Z</time>
      </trkpt>
      <trkpt lat="43.65585" lon="3.87101">
        <ele>54</ele>
        <time>2021-03-21T11:40:52Z</time>
      </trkpt>
      <trkpt lat="43.65587" lon="3.87097">
        <ele>54</ele>
        <time>2021-03-21T11:40:53Z</time>
      </trkpt>
      <trkpt lat="43.6559" lon="3.87094">
        <ele>54</ele>
        <time>2021-03-21T11:40:54Z</time>
      </trkpt>
      <trkpt lat="43.65592" lon="3.87091">
        <ele>54</ele>
        <time>2021-03-21T11:40:55Z</time>
      </trkpt>
      <trkpt lat="43.65595" lon="3.87088">
        <ele>54</ele>
        <time>2021-03-21T11:40:56Z</time>
      </trkpt>
      <trkpt lat="43.65597" lon="3.87084">
        <ele>54</ele>
        <time>2021-03-21T11:40:57Z</time>
      </trkpt>
      <trkpt lat="43.656" lon="3.87081">
        <ele>54</ele>
        <time>2021-03-21T11:40:58Z</time>
      </trkpt>
      <trkpt lat="43.65603" lon="3.87078">
        <ele>54</ele>
        <time>2021-03-21T11:40:59Z</time>
      </trkpt>
      <trkpt lat="43.65605" lon="3.87074">
        <ele>54</ele>
        <time>2021-03-21T11:41:00Z</time>
      </trkpt>
      <trkpt lat="43.65609" lon="3.87071">
        <ele>51</ele>
        <time>2021-03-21T11:41:01Z</time>
      </trkpt>
      <trkpt lat="43.65612" lon="3.87069">
        <ele>51</ele>
        <time>2021-03-21T11:41:02Z</time>
      </trkpt>
      <trkpt lat="43.65615" lon="3.87066">
        <ele>51</ele>
        <time>2021-03-21T11:41:03Z</time>
      </trkpt>
      <trkpt lat="43.65618" lon="3.87063">
        <ele>51</ele>
        <time>2021-03-21T11:41:04Z</time>
      </trkpt>
      <trkpt lat="43.65622" lon="3.87061">
        <ele>51</ele>
        <time>2021-03-21T11:41:05Z</time>
      </trkpt>
      <trkpt lat="43.65625" lon="3.87058">
        <ele>51</ele>
        <time>2021-03-21T11:41:06Z</time>
      </trkpt>
      <trkpt lat="43.65628" lon="3.87055">
        <ele>51</ele>
        <time>2021-03-21T11:41:07Z</time>
      </trkpt>
      <trkpt lat="43.65632" lon="3.87052">
        <ele>51</ele>
        <time>2021-03-21T11:41:08Z</time>
      </trkpt>
      <trkpt lat="43.65635" lon="3.87049">
        <ele>51</ele>
        <time>2021-03-21T11:41:09Z</time>
      </trkpt>
      <trkpt lat="43.65639" lon="3.87046">
        <ele>51</ele>
        <time>2021-03-21T11:41:10Z</time>
      </trkpt>
      <trkpt lat="43.65642" lon="3.87043">
        <ele>47</ele>
        <time>2021-03-21T11:41:11Z</time>
      </trkpt>
      <trkpt lat="43.65645" lon="3.8704">
        <ele>47</ele>
        <time>2021-03-21T11:41:12Z</time>
      </trkpt>
      <trkpt lat="43.65648" lon="3.87037">
        <ele>47</ele>
        <time>2021-03-21T11:41:13Z</time>
      </trkpt>
      <trkpt lat="43.65651" lon="3.87034">
        <ele>47</ele>
        <time>2021-03-21T11:41:14Z</time>
      </trkpt>
      <trkpt lat="43.65654" lon="3.87032">
        <ele>47</ele>
        <time>2021-03-21T11:41:15Z</time>
      </trkpt>
      <trkpt lat="43.65658" lon="3.87029">
        <ele>47</ele>
        <time>2021-03-21T11:41:16Z</time>
      </trkpt>
      <trkpt lat="43.65661" lon="3.87026">
        <ele>47</ele>
        <time>2021-03-21T11:41:17Z</time>
      </trkpt>
      <trkpt lat="43.65664" lon="3.87023">
        <ele>47</ele>
        <time>2021-03-21T11:41:18Z</time>
      </trkpt>
      <trkpt lat="43.65668" lon="3.8702">
        <ele>47</ele>
        <time>2021-03-21T11:41:19Z</time>
      </trkpt>
      <trkpt lat="43.65671" lon="3.87018">
        <ele>47</ele>
        <time>2021-03-21T11:41:20Z</time>
      </trkpt>
      <trkpt lat="43.65674" lon="3.87015">
        <ele>46</ele>
        <time>2021-03-21T11:41:21Z</time>
      </trkpt>
      <trkpt lat="43.65677" lon="3.87012">
        <ele>46</ele>
        <time>2021-03-21T11:41:22Z</time>
      </trkpt>
      <trkpt lat="43.65678" lon="3.87008">
        <ele>46</ele>
        <time>2021-03-21T11:41:23Z</time>
      </trkpt>
      <trkpt lat="43.65678" lon="3.87004">
        <ele>46</ele>
        <time>2021-03-21T11:41:24Z</time>
      </trkpt>
      <trkpt lat="43.65677" lon="3.86998">
        <ele>46</ele>
        <time>2021-03-21T11:41:25Z</time>
      </trkpt>
      <trkpt lat="43.65676" lon="3.86993">
        <ele>46</ele>
        <time>2021-03-21T11:41:26Z</time>
      </trkpt>
      <trkpt lat="43.65673" lon="3.86987">
        <ele>46</ele>
        <time>2021-03-21T11:41:27Z</time>
      </trkpt>
      <trkpt lat="43.6567" lon="3.86981">
        <ele>46</ele>
        <time>2021-03-21T11:41:28Z</time>
      </trkpt>
      <trkpt lat="43.65668" lon="3.86975">
        <ele>46</ele>
        <time>2021-03-21T11:41:29Z</time>
      </trkpt>
      <trkpt lat="43.65665" lon="3.8697">
        <ele>46</ele>
        <time>2021-03-21T11:41:30Z</time>
      </trkpt>
      <trkpt lat="43.65663" lon="3.86964">
        <ele>44</ele>
        <time>2021-03-21T11:41:31Z</time>
      </trkpt>
      <trkpt lat="43.65661" lon="3.86959">
        <ele>44</ele>
        <time>2021-03-21T11:41:32Z</time>
      </trkpt>
      <trkpt lat="43.6566" lon="3.86955">
        <ele>44</ele>
        <time>2021-03-21T11:41:33Z</time>
      </trkpt>
      <trkpt lat="43.65658" lon="3.8695">
        <ele>44</ele>
        <time>2021-03-21T11:41:34Z</time>
      </trkpt>
      <trkpt lat="43.65657" lon="3.86945">
        <ele>44</ele>
        <time>2021-03-21T11:41:35Z</time>
      </trkpt>
      <trkpt lat="43.65655" lon="3.86941">
        <ele>44</ele>
        <time>2021-03-21T11:41:36Z</time>
      </trkpt>
      <trkpt lat="43.65654" lon="3.86937">
        <ele>44</ele>
        <time>2021-03-21T11:41:37Z</time>
      </trkpt>
      <trkpt lat="43.65652" lon="3.86934">
        <ele>44</ele>
        <time>2021-03-21T11:41:38Z</time>
      </trkpt>
      <trkpt lat="43.65651" lon="3.8693">
        <ele>44</ele>
        <time>2021-03-21T11:41:39Z</time>
      </trkpt>
      <trkpt lat="43.65649" lon="3.86927">
        <ele>44</ele>
        <time>2021-03-21T11:41:40Z</time>
      </trkpt>
      <trkpt lat="43.65648" lon="3.86924">
        <ele>43</ele>
        <time>2021-03-21T11:41:41Z</time>
      </trkpt>
      <trkpt lat="43.65647" lon="3.86921">
        <ele>43</ele>
        <time>2021-03-21T11:41:42Z</time>
      </trkpt>
      <trkpt lat="43.65646" lon="3.86918">
        <ele>43</ele>
        <time>2021-03-21T11:41:43Z</time>
      </trkpt>
      <trkpt lat="43.65644" lon="3.86915">
        <ele>43</ele>
        <time>2021-03-21T11:41:44Z</time>
      </trkpt>
      <trkpt lat="43.65643" lon="3.86911">
        <ele>43</ele>
        <time>2021-03-21T11:41:45Z</time>
      </trkpt>
      <trkpt lat="43.65642" lon="3.86908">
        <ele>43</ele>
        <time>2021-03-21T11:41:46Z</time>
      </trkpt>
      <trkpt lat="43.6564" lon="3.86904">
        <ele>43</ele>
        <time>2021-03-21T11:41:47Z</time>
      </trkpt>
      <trkpt lat="43.65639" lon="3.86899">
        <ele>43</ele>
        <time>2021-03-21T11:41:48Z</time>
      </trkpt>
      <trkpt lat="43.65639" lon="3.86895">
        <ele>43</ele>
        <time>2021-03-21T11:41:49Z</time>
      </trkpt>
      <trkpt lat="43.65638" lon="3.8689">
        <ele>43</ele>
        <time>2021-03-21T11:41:50Z</time>
      </trkpt>
      <trkpt lat="43.65636" lon="3.86885">
        <ele>43</ele>
        <time>2021-03-21T11:41:51Z</time>
      </trkpt>
      <trkpt lat="43.65635" lon="3.86881">
        <ele>43</ele>
        <time>2021-03-21T11:41:52Z</time>
      </trkpt>
      <trkpt lat="43.65633" lon="3.86877">
        <ele>43</ele>
        <time>2021-03-21T11:41:53Z</time>
      </trkpt>
      <trkpt lat="43.65631" lon="3.86872">
        <ele>43</ele>
        <time>2021-03-21T11:41:54Z</time>
      </trkpt>
      <trkpt lat="43.65629" lon="3.86869">
        <ele>43</ele>
        <time>2021-03-21T11:41:55Z</time>
      </trkpt>
      <trkpt lat="43.65627" lon="3.86865">
        <ele>43</ele>
        <time>2021-03-21T11:41:56Z</time>
      </trkpt>
      <trkpt lat="43.65625" lon="3.86861">
        <ele>43</ele>
        <time>2021-03-21T11:41:57Z</time>
      </trkpt>
      <trkpt lat="43.65623" lon="3.86857">
        <ele>43</ele>
        <time>2021-03-21T11:41:58Z</time>
      </trkpt>
      <trkpt lat="43.65621" lon="3.86854">
        <ele>43</ele>
        <time>2021-03-21T11:41:59Z</time>
      </trkpt>
      <trkpt lat="43.6562" lon="3.86852">
        <ele>43</ele>
        <time>2021-03-21T11:42:00Z</time>
      </trkpt>
      <trkpt lat="43.65616" lon="3.86854">
        <ele>43</ele>
        <time>2021-03-21T11:42:02Z</time>
      </trkpt>
      <trkpt lat="43.65614" lon="3.86856">
        <ele>43</ele>
        <time>2021-03-21T11:42:03Z</time>
      </trkpt>
      <trkpt lat="43.65611" lon="3.86858">
        <ele>43</ele>
        <time>2021-03-21T11:42:04Z</time>
      </trkpt>
      <trkpt lat="43.65608" lon="3.8686">
        <ele>43</ele>
        <time>2021-03-21T11:42:05Z</time>
      </trkpt>
      <trkpt lat="43.65605" lon="3.86862">
        <ele>43</ele>
        <time>2021-03-21T11:42:06Z</time>
      </trkpt>
      <trkpt lat="43.65602" lon="3.86864">
        <ele>43</ele>
        <time>2021-03-21T11:42:07Z</time>
      </trkpt>
      <trkpt lat="43.65599" lon="3.86866">
        <ele>43</ele>
        <time>2021-03-21T11:42:08Z</time>
      </trkpt>
      <trkpt lat="43.65595" lon="3.86869">
        <ele>43</ele>
        <time>2021-03-21T11:42:09Z</time>
      </trkpt>
      <trkpt lat="43.65592" lon="3.86871">
        <ele>43</ele>
        <time>2021-03-21T11:42:10Z</time>
      </trkpt>
      <trkpt lat="43.65589" lon="3.86873">
        <ele>43</ele>
        <time>2021-03-21T11:42:11Z</time>
      </trkpt>
      <trkpt lat="43.65586" lon="3.86875">
        <ele>43</ele>
        <time>2021-03-21T11:42:12Z</time>
      </trkpt>
      <trkpt lat="43.65584" lon="3.86876">
        <ele>43</ele>
        <time>2021-03-21T11:42:13Z</time>
      </trkpt>
      <trkpt lat="43.65582" lon="3.86878">
        <ele>43</ele>
        <time>2021-03-21T11:42:14Z</time>
      </trkpt>
      <trkpt lat="43.6558" lon="3.8688">
        <ele>43</ele>
        <time>2021-03-21T11:42:16Z</time>
      </trkpt>
      <trkpt lat="43.65577" lon="3.86883">
        <ele>43</ele>
        <time>2021-03-21T11:42:18Z</time>
      </trkpt>
      <trkpt lat="43.65575" lon="3.86885">
        <ele>43</ele>
        <time>2021-03-21T11:42:19Z</time>
      </trkpt>
      <trkpt lat="43.65573" lon="3.86886">
        <ele>43</ele>
        <time>2021-03-21T11:42:20Z</time>
      </trkpt>
      <trkpt lat="43.65571" lon="3.86887">
        <ele>44</ele>
        <time>2021-03-21T11:42:21Z</time>
      </trkpt>
      <trkpt lat="43.65569" lon="3.86888">
        <ele>44</ele>
        <time>2021-03-21T11:42:22Z</time>
      </trkpt>
      <trkpt lat="43.65566" lon="3.8689">
        <ele>44</ele>
        <time>2021-03-21T11:42:23Z</time>
      </trkpt>
      <trkpt lat="43.65564" lon="3.86892">
        <ele>44</ele>
        <time>2021-03-21T11:42:24Z</time>
      </trkpt>
      <trkpt lat="43.65561" lon="3.86894">
        <ele>44</ele>
        <time>2021-03-21T11:42:25Z</time>
      </trkpt>
      <trkpt lat="43.65558" lon="3.86896">
        <ele>44</ele>
        <time>2021-03-21T11:42:26Z</time>
      </trkpt>
      <trkpt lat="43.65555" lon="3.86899">
        <ele>44</ele>
        <time>2021-03-21T11:42:27Z</time>
      </trkpt>
      <trkpt lat="43.65552" lon="3.86901">
        <ele>44</ele>
        <time>2021-03-21T11:42:28Z</time>
      </trkpt>
      <trkpt lat="43.65548" lon="3.86902">
        <ele>44</ele>
        <time>2021-03-21T11:42:29Z</time>
      </trkpt>
      <trkpt lat="43.65545" lon="3.86901">
        <ele>44</ele>
        <time>2021-03-21T11:42:30Z</time>
      </trkpt>
      <trkpt lat="43.65542" lon="3.86899">
        <ele>44</ele>
        <time>2021-03-21T11:42:31Z</time>
      </trkpt>
      <trkpt lat="43.6554" lon="3.86895">
        <ele>44</ele>
        <time>2021-03-21T11:42:32Z</time>
      </trkpt>
      <trkpt lat="43.65539" lon="3.8689">
        <ele>44</ele>
        <time>2021-03-21T11:42:33Z</time>
      </trkpt>
      <trkpt lat="43.65537" lon="3.86886">
        <ele>44</ele>
        <time>2021-03-21T11:42:34Z</time>
      </trkpt>
      <trkpt lat="43.65536" lon="3.86881">
        <ele>44</ele>
        <time>2021-03-21T11:42:35Z</time>
      </trkpt>
      <trkpt lat="43.65535" lon="3.86876">
        <ele>44</ele>
        <time>2021-03-21T11:42:36Z</time>
      </trkpt>
      <trkpt lat="43.65533" lon="3.86871">
        <ele>44</ele>
        <time>2021-03-21T11:42:37Z</time>
      </trkpt>
      <trkpt lat="43.65532" lon="3.86865">
        <ele>44</ele>
        <time>2021-03-21T11:42:38Z</time>
      </trkpt>
      <trkpt lat="43.65531" lon="3.8686">
        <ele>44</ele>
        <time>2021-03-21T11:42:39Z</time>
      </trkpt>
      <trkpt lat="43.65529" lon="3.86855">
        <ele>44</ele>
        <time>2021-03-21T11:42:40Z</time>
      </trkpt>
      <trkpt lat="43.65528" lon="3.86851">
        <ele>43</ele>
        <time>2021-03-21T11:42:41Z</time>
      </trkpt>
      <trkpt lat="43.65526" lon="3.86847">
        <ele>43</ele>
        <time>2021-03-21T11:42:42Z</time>
      </trkpt>
      <trkpt lat="43.65523" lon="3.86847">
        <ele>43</ele>
        <time>2021-03-21T11:42:43Z</time>
      </trkpt>
      <trkpt lat="43.6552" lon="3.86847">
        <ele>43</ele>
        <time>2021-03-21T11:42:44Z</time>
      </trkpt>
      <trkpt lat="43.65517" lon="3.86849">
        <ele>43</ele>
        <time>2021-03-21T11:42:45Z</time>
      </trkpt>
      <trkpt lat="43.65514" lon="3.86852">
        <ele>43</ele>
        <time>2021-03-21T11:42:46Z</time>
      </trkpt>
      <trkpt lat="43.6551" lon="3.86853">
        <ele>43</ele>
        <time>2021-03-21T11:42:47Z</time>
      </trkpt>
      <trkpt lat="43.65506" lon="3.86851">
        <ele>43</ele>
        <time>2021-03-21T11:42:48Z</time>
      </trkpt>
      <trkpt lat="43.65503" lon="3.86849">
        <ele>43</ele>
        <time>2021-03-21T11:42:49Z</time>
      </trkpt>
      <trkpt lat="43.655" lon="3.86847">
        <ele>44</ele>
        <time>2021-03-21T11:42:50Z</time>
      </trkpt>
      <trkpt lat="43.65499" lon="3.86844">
        <ele>44</ele>
        <time>2021-03-21T11:42:51Z</time>
      </trkpt>
      <trkpt lat="43.65496" lon="3.86841">
        <ele>44</ele>
        <time>2021-03-21T11:42:52Z</time>
      </trkpt>
      <trkpt lat="43.65493" lon="3.8684">
        <ele>44</ele>
        <time>2021-03-21T11:42:53Z</time>
      </trkpt>
      <trkpt lat="43.65488" lon="3.86839">
        <ele>44</ele>
        <time>2021-03-21T11:42:54Z</time>
      </trkpt>
      <trkpt lat="43.65484" lon="3.86836">
        <ele>44</ele>
        <time>2021-03-21T11:42:55Z</time>
      </trkpt>
      <trkpt lat="43.65481" lon="3.86834">
        <ele>44</ele>
        <time>2021-03-21T11:42:56Z</time>
      </trkpt>
      <trkpt lat="43.65478" lon="3.86831">
        <ele>44</ele>
        <time>2021-03-21T11:42:57Z</time>
      </trkpt>
      <trkpt lat="43.65477" lon="3.86827">
        <ele>44</ele>
        <time>2021-03-21T11:42:58Z</time>
      </trkpt>
      <trkpt lat="43.65476" lon="3.86823">
        <ele>44</ele>
        <time>2021-03-21T11:42:59Z</time>
      </trkpt>
      <trkpt lat="43.65475" lon="3.86819">
        <ele>44</ele>
        <time>2021-03-21T11:43:00Z</time>
      </trkpt>
      <trkpt lat="43.65475" lon="3.86815">
        <ele>44</ele>
        <time>2021-03-21T11:43:01Z</time>
      </trkpt>
      <trkpt lat="43.65474" lon="3.86812">
        <ele>44</ele>
        <time>2021-03-21T11:43:02Z</time>
      </trkpt>
      <trkpt lat="43.65472" lon="3.86809">
        <ele>44</ele>
        <time>2021-03-21T11:43:03Z</time>
      </trkpt>
      <trkpt lat="43.65469" lon="3.86807">
        <ele>44</ele>
        <time>2021-03-21T11:43:04Z</time>
      </trkpt>
      <trkpt lat="43.65466" lon="3.86805">
        <ele>44</ele>
        <time>2021-03-21T11:43:05Z</time>
      </trkpt>
      <trkpt lat="43.65464" lon="3.86802">
        <ele>44</ele>
        <time>2021-03-21T11:43:06Z</time>
      </trkpt>
      <trkpt lat="43.65462" lon="3.86799">
        <ele>44</ele>
        <time>2021-03-21T11:43:07Z</time>
      </trkpt>
      <trkpt lat="43.6546" lon="3.86795">
        <ele>44</ele>
        <time>2021-03-21T11:43:08Z</time>
      </trkpt>
      <trkpt lat="43.65459" lon="3.86791">
        <ele>44</ele>
        <time>2021-03-21T11:43:09Z</time>
      </trkpt>
      <trkpt lat="43.65458" lon="3.86787">
        <ele>44</ele>
        <time>2021-03-21T11:43:10Z</time>
      </trkpt>
      <trkpt lat="43.65456" lon="3.86784">
        <ele>44</ele>
        <time>2021-03-21T11:43:11Z</time>
      </trkpt>
      <trkpt lat="43.65453" lon="3.86782">
        <ele>44</ele>
        <time>2021-03-21T11:43:12Z</time>
      </trkpt>
      <trkpt lat="43.6545" lon="3.8678">
        <ele>44</ele>
        <time>2021-03-21T11:43:13Z</time>
      </trkpt>
      <trkpt lat="43.65448" lon="3.86779">
        <ele>44</ele>
        <time>2021-03-21T11:43:14Z</time>
      </trkpt>
      <trkpt lat="43.65445" lon="3.86776">
        <ele>44</ele>
        <time>2021-03-21T11:43:15Z</time>
      </trkpt>
      <trkpt lat="43.65441" lon="3.86774">
        <ele>44</ele>
        <time>2021-03-21T11:43:16Z</time>
      </trkpt>
      <trkpt lat="43.65437" lon="3.86771">
        <ele>44</ele>
        <time>2021-03-21T11:43:17Z</time>
      </trkpt>
      <trkpt lat="43.65435" lon="3.86768">
        <ele>44</ele>
        <time>2021-03-21T11:43:18Z</time>
      </trkpt>
      <trkpt lat="43.65432" lon="3.86765">
        <ele>44</ele>
        <time>2021-03-21T11:43:19Z</time>
      </trkpt>
      <trkpt lat="43.65429" lon="3.86764">
        <ele>44</ele>
        <time>2021-03-21T11:43:20Z</time>
      </trkpt>
      <trkpt lat="43.65426" lon="3.86762">
        <ele>44</ele>
        <time>2021-03-21T11:43:21Z</time>
      </trkpt>
      <trkpt lat="43.65424" lon="3.86761">
        <ele>44</ele>
        <time>2021-03-21T11:43:22Z</time>
      </trkpt>
      <trkpt lat="43.65421" lon="3.86759">
        <ele>44</ele>
        <time>2021-03-21T11:43:23Z</time>
      </trkpt>
      <trkpt lat="43.65417" lon="3.86757">
        <ele>44</ele>
        <time>2021-03-21T11:43:24Z</time>
      </trkpt>
      <trkpt lat="43.65414" lon="3.86755">
        <ele>44</ele>
        <time>2021-03-21T11:43:25Z</time>
      </trkpt>
      <trkpt lat="43.65409" lon="3.86752">
        <ele>44</ele>
        <time>2021-03-21T11:43:26Z</time>
      </trkpt>
      <trkpt lat="43.65405" lon="3.86751">
        <ele>44</ele>
        <time>2021-03-21T11:43:27Z</time>
      </trkpt>
      <trkpt lat="43.65401" lon="3.86749">
        <ele>44</ele>
        <time>2021-03-21T11:43:28Z</time>
      </trkpt>
      <trkpt lat="43.65396" lon="3.86747">
        <ele>44</ele>
        <time>2021-03-21T11:43:29Z</time>
      </trkpt>
      <trkpt lat="43.65393" lon="3.86745">
        <ele>44</ele>
        <time>2021-03-21T11:43:30Z</time>
      </trkpt>
      <trkpt lat="43.65389" lon="3.86743">
        <ele>44</ele>
        <time>2021-03-21T11:43:31Z</time>
      </trkpt>
      <trkpt lat="43.65385" lon="3.86743">
        <ele>44</ele>
        <time>2021-03-21T11:43:32Z</time>
      </trkpt>
      <trkpt lat="43.65382" lon="3.86743">
        <ele>44</ele>
        <time>2021-03-21T11:43:33Z</time>
      </trkpt>
      <trkpt lat="43.65379" lon="3.86743">
        <ele>44</ele>
        <time>2021-03-21T11:43:34Z</time>
      </trkpt>
      <trkpt lat="43.65376" lon="3.86743">
        <ele>44</ele>
        <time>2021-03-21T11:43:35Z</time>
      </trkpt>
      <trkpt lat="43.65368" lon="3.86743">
        <ele>44</ele>
        <time>2021-03-21T11:43:37Z</time>
      </trkpt>
      <trkpt lat="43.65359" lon="3.86743">
        <ele>44</ele>
        <time>2021-03-21T11:43:39Z</time>
      </trkpt>
      <trkpt lat="43.65347" lon="3.86745">
        <ele>44</ele>
        <time>2021-03-21T11:43:42Z</time>
      </trkpt>
      <trkpt lat="43.6534" lon="3.86757">
        <ele>44</ele>
        <time>2021-03-21T11:43:46Z</time>
      </trkpt>
      <trkpt lat="43.65339" lon="3.8676">
        <ele>44</ele>
        <time>2021-03-21T11:43:47Z</time>
      </trkpt>
      <trkpt lat="43.65338" lon="3.86763">
        <ele>44</ele>
        <time>2021-03-21T11:43:48Z</time>
      </trkpt>
      <trkpt lat="43.65337" lon="3.86765">
        <ele>44</ele>
        <time>2021-03-21T11:43:49Z</time>
      </trkpt>
      <trkpt lat="43.65336" lon="3.86768">
        <ele>44</ele>
        <time>2021-03-21T11:43:50Z</time>
      </trkpt>
      <trkpt lat="43.65335" lon="3.86771">
        <ele>43</ele>
        <time>2021-03-21T11:43:51Z</time>
      </trkpt>
      <trkpt lat="43.65334" lon="3.86774">
        <ele>43</ele>
        <time>2021-03-21T11:43:52Z</time>
      </trkpt>
      <trkpt lat="43.65332" lon="3.86778">
        <ele>43</ele>
        <time>2021-03-21T11:43:53Z</time>
      </trkpt>
      <trkpt lat="43.6533" lon="3.86781">
        <ele>43</ele>
        <time>2021-03-21T11:43:54Z</time>
      </trkpt>
      <trkpt lat="43.65328" lon="3.86784">
        <ele>43</ele>
        <time>2021-03-21T11:43:55Z</time>
      </trkpt>
      <trkpt lat="43.65326" lon="3.86786">
        <ele>43</ele>
        <time>2021-03-21T11:43:56Z</time>
      </trkpt>
      <trkpt lat="43.65323" lon="3.86789">
        <ele>43</ele>
        <time>2021-03-21T11:43:57Z</time>
      </trkpt>
      <trkpt lat="43.6532" lon="3.86791">
        <ele>43</ele>
        <time>2021-03-21T11:43:58Z</time>
      </trkpt>
      <trkpt lat="43.65317" lon="3.86792">
        <ele>43</ele>
        <time>2021-03-21T11:43:59Z</time>
      </trkpt>
      <trkpt lat="43.65314" lon="3.86793">
        <ele>43</ele>
        <time>2021-03-21T11:44:00Z</time>
      </trkpt>
      <trkpt lat="43.65312" lon="3.86794">
        <ele>43</ele>
        <time>2021-03-21T11:44:01Z</time>
      </trkpt>
      <trkpt lat="43.65309" lon="3.86797">
        <ele>43</ele>
        <time>2021-03-21T11:44:03Z</time>
      </trkpt>
      <trkpt lat="43.65307" lon="3.868">
        <ele>43</ele>
        <time>2021-03-21T11:44:04Z</time>
      </trkpt>
      <trkpt lat="43.65304" lon="3.86803">
        <ele>43</ele>
        <time>2021-03-21T11:44:05Z</time>
      </trkpt>
      <trkpt lat="43.65301" lon="3.86804">
        <ele>43</ele>
        <time>2021-03-21T11:44:06Z</time>
      </trkpt>
      <trkpt lat="43.65298" lon="3.86805">
        <ele>43</ele>
        <time>2021-03-21T11:44:07Z</time>
      </trkpt>
      <trkpt lat="43.65295" lon="3.86806">
        <ele>43</ele>
        <time>2021-03-21T11:44:08Z</time>
      </trkpt>
      <trkpt lat="43.65292" lon="3.86808">
        <ele>43</ele>
        <time>2021-03-21T11:44:09Z</time>
      </trkpt>
      <trkpt lat="43.65289" lon="3.86811">
        <ele>43</ele>
        <time>2021-03-21T11:44:10Z</time>
      </trkpt>
      <trkpt lat="43.65286" lon="3.86815">
        <ele>43</ele>
        <time>2021-03-21T11:44:11Z</time>
      </trkpt>
      <trkpt lat="43.65282" lon="3.8682">
        <ele>43</ele>
        <time>2021-03-21T11:44:12Z</time>
      </trkpt>
      <trkpt lat="43.6528" lon="3.86824">
        <ele>43</ele>
        <time>2021-03-21T11:44:13Z</time>
      </trkpt>
      <trkpt lat="43.65277" lon="3.86829">
        <ele>43</ele>
        <time>2021-03-21T11:44:14Z</time>
      </trkpt>
      <trkpt lat="43.65276" lon="3.86834">
        <ele>43</ele>
        <time>2021-03-21T11:44:15Z</time>
      </trkpt>
      <trkpt lat="43.65274" lon="3.86839">
        <ele>43</ele>
        <time>2021-03-21T11:44:16Z</time>
      </trkpt>
      <trkpt lat="43.65272" lon="3.86844">
        <ele>43</ele>
        <time>2021-03-21T11:44:17Z</time>
      </trkpt>
      <trkpt lat="43.65271" lon="3.86849">
        <ele>43</ele>
        <time>2021-03-21T11:44:18Z</time>
      </trkpt>
      <trkpt lat="43.65271" lon="3.86854">
        <ele>43</ele>
        <time>2021-03-21T11:44:19Z</time>
      </trkpt>
      <trkpt lat="43.6527" lon="3.8686">
        <ele>43</ele>
        <time>2021-03-21T11:44:20Z</time>
      </trkpt>
      <trkpt lat="43.6527" lon="3.86866">
        <ele>43</ele>
        <time>2021-03-21T11:44:21Z</time>
      </trkpt>
      <trkpt lat="43.6527" lon="3.86872">
        <ele>43</ele>
        <time>2021-03-21T11:44:22Z</time>
      </trkpt>
      <trkpt lat="43.6527" lon="3.86878">
        <ele>43</ele>
        <time>2021-03-21T11:44:23Z</time>
      </trkpt>
      <trkpt lat="43.65271" lon="3.86884">
        <ele>43</ele>
        <time>2021-03-21T11:44:24Z</time>
      </trkpt>
      <trkpt lat="43.65271" lon="3.86889">
        <ele>43</ele>
        <time>2021-03-21T11:44:25Z</time>
      </trkpt>
      <trkpt lat="43.65272" lon="3.86895">
        <ele>43</ele>
        <time>2021-03-21T11:44:26Z</time>
      </trkpt>
      <trkpt lat="43.65272" lon="3.869">
        <ele>43</ele>
        <time>2021-03-21T11:44:27Z</time>
      </trkpt>
      <trkpt lat="43.65272" lon="3.86906">
        <ele>43</ele>
        <time>2021-03-21T11:44:28Z</time>
      </trkpt>
      <trkpt lat="43.65272" lon="3.86912">
        <ele>43</ele>
        <time>2021-03-21T11:44:29Z</time>
      </trkpt>
      <trkpt lat="43.65272" lon="3.86918">
        <ele>43</ele>
        <time>2021-03-21T11:44:30Z</time>
      </trkpt>
      <trkpt lat="43.65272" lon="3.86924">
        <ele>43</ele>
        <time>2021-03-21T11:44:31Z</time>
      </trkpt>
      <trkpt lat="43.65272" lon="3.8693">
        <ele>43</ele>
        <time>2021-03-21T11:44:32Z</time>
      </trkpt>
      <trkpt lat="43.65272" lon="3.86936">
        <ele>43</ele>
        <time>2021-03-21T11:44:33Z</time>
      </trkpt>
      <trkpt lat="43.65272" lon="3.86943">
        <ele>43</ele>
        <time>2021-03-21T11:44:34Z</time>
      </trkpt>
      <trkpt lat="43.65271" lon="3.86949">
        <ele>43</ele>
        <time>2021-03-21T11:44:35Z</time>
      </trkpt>
      <trkpt lat="43.6527" lon="3.86955">
        <ele>43</ele>
        <time>2021-03-21T11:44:36Z</time>
      </trkpt>
      <trkpt lat="43.65269" lon="3.86961">
        <ele>43</ele>
        <time>2021-03-21T11:44:37Z</time>
      </trkpt>
      <trkpt lat="43.65268" lon="3.86967">
        <ele>43</ele>
        <time>2021-03-21T11:44:38Z</time>
      </trkpt>
      <trkpt lat="43.65267" lon="3.86973">
        <ele>43</ele>
        <time>2021-03-21T11:44:39Z</time>
      </trkpt>
      <trkpt lat="43.65265" lon="3.86979">
        <ele>43</ele>
        <time>2021-03-21T11:44:40Z</time>
      </trkpt>
      <trkpt lat="43.65263" lon="3.86984">
        <ele>43</ele>
        <time>2021-03-21T11:44:41Z</time>
      </trkpt>
      <trkpt lat="43.65261" lon="3.8699">
        <ele>43</ele>
        <time>2021-03-21T11:44:42Z</time>
      </trkpt>
      <trkpt lat="43.65259" lon="3.86995">
        <ele>43</ele>
        <time>2021-03-21T11:44:43Z</time>
      </trkpt>
      <trkpt lat="43.65256" lon="3.86999">
        <ele>43</ele>
        <time>2021-03-21T11:44:44Z</time>
      </trkpt>
      <trkpt lat="43.65253" lon="3.87004">
        <ele>43</ele>
        <time>2021-03-21T11:44:45Z</time>
      </trkpt>
      <trkpt lat="43.6525" lon="3.87009">
        <ele>43</ele>
        <time>2021-03-21T11:44:46Z</time>
      </trkpt>
      <trkpt lat="43.65247" lon="3.87013">
        <ele>43</ele>
        <time>2021-03-21T11:44:47Z</time>
      </trkpt>
      <trkpt lat="43.65244" lon="3.87017">
        <ele>43</ele>
        <time>2021-03-21T11:44:48Z</time>
      </trkpt>
      <trkpt lat="43.65241" lon="3.87021">
        <ele>43</ele>
        <time>2021-03-21T11:44:49Z</time>
      </trkpt>
      <trkpt lat="43.65238" lon="3.87025">
        <ele>43</ele>
        <time>2021-03-21T11:44:50Z</time>
      </trkpt>
      <trkpt lat="43.65235" lon="3.87029">
        <ele>43</ele>
        <time>2021-03-21T11:44:51Z</time>
      </trkpt>
      <trkpt lat="43.65232" lon="3.87033">
        <ele>43</ele>
        <time>2021-03-21T11:44:52Z</time>
      </trkpt>
      <trkpt lat="43.6523" lon="3.87036">
        <ele>43</ele>
        <time>2021-03-21T11:44:53Z</time>
      </trkpt>
      <trkpt lat="43.65227" lon="3.8704">
        <ele>43</ele>
        <time>2021-03-21T11:44:54Z</time>
      </trkpt>
      <trkpt lat="43.65224" lon="3.87043">
        <ele>43</ele>
        <time>2021-03-21T11:44:55Z</time>
      </trkpt>
      <trkpt lat="43.65221" lon="3.87046">
        <ele>43</ele>
        <time>2021-03-21T11:44:56Z</time>
      </trkpt>
      <trkpt lat="43.65218" lon="3.87049">
        <ele>43</ele>
        <time>2021-03-21T11:44:57Z</time>
      </trkpt>
      <trkpt lat="43.65215" lon="3.87052">
        <ele>43</ele>
        <time>2021-03-21T11:44:58Z</time>
      </trkpt>
      <trkpt lat="43.65212" lon="3.87055">
        <ele>43</ele>
        <time>2021-03-21T11:44:59Z</time>
      </trkpt>
      <trkpt lat="43.65209" lon="3.87057">
        <ele>43</ele>
        <time>2021-03-21T11:45:00Z</time>
      </trkpt>
      <trkpt lat="43.65205" lon="3.87059">
        <ele>43</ele>
        <time>2021-03-21T11:45:01Z</time>
      </trkpt>
      <trkpt lat="43.65202" lon="3.87062">
        <ele>43</ele>
        <time>2021-03-21T11:45:02Z</time>
      </trkpt>
      <trkpt lat="43.65199" lon="3.87065">
        <ele>43</ele>
        <time>2021-03-21T11:45:03Z</time>
      </trkpt>
      <trkpt lat="43.65197" lon="3.87068">
        <ele>43</ele>
        <time>2021-03-21T11:45:04Z</time>
      </trkpt>
      <trkpt lat="43.65187" lon="3.87071">
        <ele>43</ele>
        <time>2021-03-21T11:45:07Z</time>
      </trkpt>
      <trkpt lat="43.65176" lon="3.8708">
        <ele>43</ele>
        <time>2021-03-21T11:45:10Z</time>
      </trkpt>
      <trkpt lat="43.65168" lon="3.87089">
        <ele>43</ele>
        <time>2021-03-21T11:45:12Z</time>
      </trkpt>
      <trkpt lat="43.65164" lon="3.87093">
        <ele>43</ele>
        <time>2021-03-21T11:45:13Z</time>
      </trkpt>
      <trkpt lat="43.65161" lon="3.87097">
        <ele>43</ele>
        <time>2021-03-21T11:45:14Z</time>
      </trkpt>
      <trkpt lat="43.65159" lon="3.87103">
        <ele>43</ele>
        <time>2021-03-21T11:45:15Z</time>
      </trkpt>
      <trkpt lat="43.65157" lon="3.87108">
        <ele>43</ele>
        <time>2021-03-21T11:45:16Z</time>
      </trkpt>
      <trkpt lat="43.65156" lon="3.87113">
        <ele>43</ele>
        <time>2021-03-21T11:45:17Z</time>
      </trkpt>
      <trkpt lat="43.65156" lon="3.87118">
        <ele>43</ele>
        <time>2021-03-21T11:45:18Z</time>
      </trkpt>
      <trkpt lat="43.65155" lon="3.87124">
        <ele>43</ele>
        <time>2021-03-21T11:45:19Z</time>
      </trkpt>
      <trkpt lat="43.65156" lon="3.87129">
        <ele>43</ele>
        <time>2021-03-21T11:45:20Z</time>
      </trkpt>
      <trkpt lat="43.65156" lon="3.87134">
        <ele>44</ele>
        <time>2021-03-21T11:45:21Z</time>
      </trkpt>
      <trkpt lat="43.65157" lon="3.87139">
        <ele>44</ele>
        <time>2021-03-21T11:45:22Z</time>
      </trkpt>
      <trkpt lat="43.65158" lon="3.87145">
        <ele>44</ele>
        <time>2021-03-21T11:45:23Z</time>
      </trkpt>
      <trkpt lat="43.65159" lon="3.8715">
        <ele>44</ele>
        <time>2021-03-21T11:45:24Z</time>
      </trkpt>
      <trkpt lat="43.6516" lon="3.87155">
        <ele>44</ele>
        <time>2021-03-21T11:45:25Z</time>
      </trkpt>
      <trkpt lat="43.65161" lon="3.87159">
        <ele>44</ele>
        <time>2021-03-21T11:45:26Z</time>
      </trkpt>
      <trkpt lat="43.65162" lon="3.87163">
        <ele>44</ele>
        <time>2021-03-21T11:45:27Z</time>
      </trkpt>
      <trkpt lat="43.65163" lon="3.87166">
        <ele>44</ele>
        <time>2021-03-21T11:45:28Z</time>
      </trkpt>
      <trkpt lat="43.65164" lon="3.87169">
        <ele>44</ele>
        <time>2021-03-21T11:45:29Z</time>
      </trkpt>
      <trkpt lat="43.65164" lon="3.87174">
        <ele>44</ele>
        <time>2021-03-21T11:45:30Z</time>
      </trkpt>
      <trkpt lat="43.65165" lon="3.87179">
        <ele>43</ele>
        <time>2021-03-21T11:45:31Z</time>
      </trkpt>
      <trkpt lat="43.65166" lon="3.87184">
        <ele>43</ele>
        <time>2021-03-21T11:45:32Z</time>
      </trkpt>
      <trkpt lat="43.65167" lon="3.8719">
        <ele>43</ele>
        <time>2021-03-21T11:45:33Z</time>
      </trkpt>
      <trkpt lat="43.65169" lon="3.87195">
        <ele>43</ele>
        <time>2021-03-21T11:45:34Z</time>
      </trkpt>
      <trkpt lat="43.65171" lon="3.872">
        <ele>43</ele>
        <time>2021-03-21T11:45:35Z</time>
      </trkpt>
      <trkpt lat="43.65173" lon="3.87205">
        <ele>43</ele>
        <time>2021-03-21T11:45:36Z</time>
      </trkpt>
      <trkpt lat="43.65175" lon="3.8721">
        <ele>43</ele>
        <time>2021-03-21T11:45:37Z</time>
      </trkpt>
      <trkpt lat="43.65178" lon="3.87216">
        <ele>43</ele>
        <time>2021-03-21T11:45:38Z</time>
      </trkpt>
      <trkpt lat="43.6518" lon="3.87221">
        <ele>43</ele>
        <time>2021-03-21T11:45:39Z</time>
      </trkpt>
      <trkpt lat="43.65183" lon="3.87225">
        <ele>43</ele>
        <time>2021-03-21T11:45:40Z</time>
      </trkpt>
      <trkpt lat="43.65186" lon="3.8723">
        <ele>43</ele>
        <time>2021-03-21T11:45:41Z</time>
      </trkpt>
      <trkpt lat="43.65189" lon="3.87234">
        <ele>43</ele>
        <time>2021-03-21T11:45:42Z</time>
      </trkpt>
      <trkpt lat="43.65192" lon="3.87239">
        <ele>43</ele>
        <time>2021-03-21T11:45:43Z</time>
      </trkpt>
      <trkpt lat="43.65195" lon="3.87243">
        <ele>43</ele>
        <time>2021-03-21T11:45:44Z</time>
      </trkpt>
      <trkpt lat="43.65198" lon="3.87246">
        <ele>43</ele>
        <time>2021-03-21T11:45:45Z</time>
      </trkpt>
      <trkpt lat="43.65201" lon="3.8725">
        <ele>43</ele>
        <time>2021-03-21T11:45:46Z</time>
      </trkpt>
      <trkpt lat="43.65204" lon="3.87253">
        <ele>43</ele>
        <time>2021-03-21T11:45:47Z</time>
      </trkpt>
      <trkpt lat="43.65207" lon="3.87256">
        <ele>43</ele>
        <time>2021-03-21T11:45:48Z</time>
      </trkpt>
      <trkpt lat="43.6521" lon="3.87258">
        <ele>43</ele>
        <time>2021-03-21T11:45:49Z</time>
      </trkpt>
      <trkpt lat="43.65213" lon="3.87261">
        <ele>43</ele>
        <time>2021-03-21T11:45:50Z</time>
      </trkpt>
      <trkpt lat="43.65215" lon="3.87262">
        <ele>42</ele>
        <time>2021-03-21T11:45:51Z</time>
      </trkpt>
      <trkpt lat="43.65218" lon="3.87263">
        <ele>42</ele>
        <time>2021-03-21T11:45:52Z</time>
      </trkpt>
      <trkpt lat="43.65221" lon="3.87264">
        <ele>42</ele>
        <time>2021-03-21T11:45:53Z</time>
      </trkpt>
      <trkpt lat="43.65224" lon="3.87263">
        <ele>42</ele>
        <time>2021-03-21T11:45:54Z</time>
      </trkpt>
      <trkpt lat="43.65227" lon="3.87263">
        <ele>42</ele>
        <time>2021-03-21T11:45:55Z</time>
      </trkpt>
      <trkpt lat="43.6523" lon="3.87262">
        <ele>42</ele>
        <time>2021-03-21T11:45:56Z</time>
      </trkpt>
      <trkpt lat="43.65233" lon="3.8726">
        <ele>42</ele>
        <time>2021-03-21T11:45:57Z</time>
      </trkpt>
      <trkpt lat="43.65235" lon="3.87258">
        <ele>42</ele>
        <time>2021-03-21T11:45:58Z</time>
      </trkpt>
      <trkpt lat="43.65237" lon="3.87255">
        <ele>42</ele>
        <time>2021-03-21T11:45:59Z</time>
      </trkpt>
      <trkpt lat="43.65239" lon="3.87252">
        <ele>42</ele>
        <time>2021-03-21T11:46:00Z</time>
      </trkpt>
      <trkpt lat="43.65241" lon="3.87249">
        <ele>41</ele>
        <time>2021-03-21T11:46:01Z</time>
      </trkpt>
      <trkpt lat="43.65242" lon="3.87246">
        <ele>41</ele>
        <time>2021-03-21T11:46:02Z</time>
      </trkpt>
      <trkpt lat="43.65243" lon="3.87242">
        <ele>41</ele>
        <time>2021-03-21T11:46:03Z</time>
      </trkpt>
      <trkpt lat="43.65244" lon="3.87238">
        <ele>41</ele>
        <time>2021-03-21T11:46:04Z</time>
      </trkpt>
      <trkpt lat="43.65244" lon="3.87234">
        <ele>41</ele>
        <time>2021-03-21T11:46:05Z</time>
      </trkpt>
      <trkpt lat="43.65244" lon="3.8723">
        <ele>41</ele>
        <time>2021-03-21T11:46:06Z</time>
      </trkpt>
      <trkpt lat="43.65243" lon="3.87226">
        <ele>41</ele>
        <time>2021-03-21T11:46:07Z</time>
      </trkpt>
      <trkpt lat="43.65242" lon="3.87222">
        <ele>41</ele>
        <time>2021-03-21T11:46:08Z</time>
      </trkpt>
      <trkpt lat="43.6524" lon="3.87218">
        <ele>41</ele>
        <time>2021-03-21T11:46:09Z</time>
      </trkpt>
      <trkpt lat="43.65238" lon="3.87214">
        <ele>41</ele>
        <time>2021-03-21T11:46:10Z</time>
      </trkpt>
      <trkpt lat="43.65235" lon="3.8721">
        <ele>41</ele>
        <time>2021-03-21T11:46:11Z</time>
      </trkpt>
      <trkpt lat="43.65233" lon="3.87206">
        <ele>41</ele>
        <time>2021-03-21T11:46:12Z</time>
      </trkpt>
      <trkpt lat="43.6523" lon="3.87203">
        <ele>41</ele>
        <time>2021-03-21T11:46:13Z</time>
      </trkpt>
      <trkpt lat="43.65228" lon="3.87199">
        <ele>41</ele>
        <time>2021-03-21T11:46:14Z</time>
      </trkpt>
      <trkpt lat="43.65225" lon="3.87196">
        <ele>41</ele>
        <time>2021-03-21T11:46:15Z</time>
      </trkpt>
      <trkpt lat="43.65222" lon="3.87193">
        <ele>41</ele>
        <time>2021-03-21T11:46:16Z</time>
      </trkpt>
      <trkpt lat="43.6522" lon="3.87189">
        <ele>41</ele>
        <time>2021-03-21T11:46:17Z</time>
      </trkpt>
      <trkpt lat="43.65218" lon="3.87185">
        <ele>41</ele>
        <time>2021-03-21T11:46:18Z</time>
      </trkpt>
      <trkpt lat="43.65215" lon="3.87182">
        <ele>41</ele>
        <time>2021-03-21T11:46:19Z</time>
      </trkpt>
      <trkpt lat="43.65213" lon="3.87178">
        <ele>41</ele>
        <time>2021-03-21T11:46:20Z</time>
      </trkpt>
      <trkpt lat="43.65211" lon="3.87174">
        <ele>42</ele>
        <time>2021-03-21T11:46:21Z</time>
      </trkpt>
      <trkpt lat="43.6521" lon="3.87171">
        <ele>42</ele>
        <time>2021-03-21T11:46:22Z</time>
      </trkpt>
      <trkpt lat="43.65208" lon="3.87167">
        <ele>42</ele>
        <time>2021-03-21T11:46:23Z</time>
      </trkpt>
      <trkpt lat="43.65206" lon="3.87163">
        <ele>42</ele>
        <time>2021-03-21T11:46:24Z</time>
      </trkpt>
      <trkpt lat="43.65204" lon="3.87159">
        <ele>42</ele>
        <time>2021-03-21T11:46:25Z</time>
      </trkpt>
      <trkpt lat="43.65203" lon="3.87155">
        <ele>42</ele>
        <time>2021-03-21T11:46:26Z</time>
      </trkpt>
      <trkpt lat="43.65202" lon="3.87151">
        <ele>42</ele>
        <time>2021-03-21T11:46:27Z</time>
      </trkpt>
      <trkpt lat="43.65202" lon="3.87147">
        <ele>42</ele>
        <time>2021-03-21T11:46:28Z</time>
      </trkpt>
      <trkpt lat="43.65203" lon="3.87144">
        <ele>42</ele>
        <time>2021-03-21T11:46:29Z</time>
      </trkpt>
      <trkpt lat="43.65205" lon="3.87141">
        <ele>42</ele>
        <time>2021-03-21T11:46:30Z</time>
      </trkpt>
      <trkpt lat="43.65206" lon="3.87139">
        <ele>42</ele>
        <time>2021-03-21T11:46:31Z</time>
      </trkpt>
      <trkpt lat="43.65206" lon="3.87136">
        <ele>42</ele>
        <time>2021-03-21T11:46:32Z</time>
      </trkpt>
      <trkpt lat="43.65206" lon="3.87133">
        <ele>42</ele>
        <time>2021-03-21T11:46:33Z</time>
      </trkpt>
      <trkpt lat="43.65205" lon="3.8713">
        <ele>42</ele>
        <time>2021-03-21T11:46:34Z</time>
      </trkpt>
      <trkpt lat="43.65203" lon="3.87127">
        <ele>42</ele>
        <time>2021-03-21T11:46:35Z</time>
      </trkpt>
      <trkpt lat="43.65202" lon="3.87124">
        <ele>42</ele>
        <time>2021-03-21T11:46:36Z</time>
      </trkpt>
      <trkpt lat="43.652" lon="3.87121">
        <ele>42</ele>
        <time>2021-03-21T11:46:37Z</time>
      </trkpt>
      <trkpt lat="43.65198" lon="3.87118">
        <ele>42</ele>
        <time>2021-03-21T11:46:38Z</time>
      </trkpt>
      <trkpt lat="43.65195" lon="3.87114">
        <ele>42</ele>
        <time>2021-03-21T11:46:39Z</time>
      </trkpt>
      <trkpt lat="43.65193" lon="3.8711">
        <ele>42</ele>
        <time>2021-03-21T11:46:40Z</time>
      </trkpt>
      <trkpt lat="43.65191" lon="3.87105">
        <ele>43</ele>
        <time>2021-03-21T11:46:41Z</time>
      </trkpt>
      <trkpt lat="43.65188" lon="3.871">
        <ele>43</ele>
        <time>2021-03-21T11:46:42Z</time>
      </trkpt>
      <trkpt lat="43.65186" lon="3.87093">
        <ele>43</ele>
        <time>2021-03-21T11:46:43Z</time>
      </trkpt>
      <trkpt lat="43.65183" lon="3.87087">
        <ele>43</ele>
        <time>2021-03-21T11:46:44Z</time>
      </trkpt>
      <trkpt lat="43.6518" lon="3.87081">
        <ele>43</ele>
        <time>2021-03-21T11:46:45Z</time>
      </trkpt>
      <trkpt lat="43.65178" lon="3.87076">
        <ele>43</ele>
        <time>2021-03-21T11:46:46Z</time>
      </trkpt>
      <trkpt lat="43.65176" lon="3.8707">
        <ele>43</ele>
        <time>2021-03-21T11:46:47Z</time>
      </trkpt>
      <trkpt lat="43.65174" lon="3.87065">
        <ele>43</ele>
        <time>2021-03-21T11:46:48Z</time>
      </trkpt>
      <trkpt lat="43.65172" lon="3.8706">
        <ele>43</ele>
        <time>2021-03-21T11:46:49Z</time>
      </trkpt>
      <trkpt lat="43.6517" lon="3.87055">
        <ele>43</ele>
        <time>2021-03-21T11:46:50Z</time>
      </trkpt>
      <trkpt lat="43.65168" lon="3.87051">
        <ele>43</ele>
        <time>2021-03-21T11:46:51Z</time>
      </trkpt>
      <trkpt lat="43.65166" lon="3.87047">
        <ele>43</ele>
        <time>2021-03-21T11:46:52Z</time>
      </trkpt>
      <trkpt lat="43.65164" lon="3.87042">
        <ele>43</ele>
        <time>2021-03-21T11:46:53Z</time>
      </trkpt>
      <trkpt lat="43.65163" lon="3.87037">
        <ele>43</ele>
        <time>2021-03-21T11:46:54Z</time>
      </trkpt>
      <trkpt lat="43.65161" lon="3.87032">
        <ele>43</ele>
        <time>2021-03-21T11:46:55Z</time>
      </trkpt>
      <trkpt lat="43.65158" lon="3.87027">
        <ele>43</ele>
        <time>2021-03-21T11:46:56Z</time>
      </trkpt>
      <trkpt lat="43.65157" lon="3.87022">
        <ele>43</ele>
        <time>2021-03-21T11:46:57Z</time>
      </trkpt>
      <trkpt lat="43.65155" lon="3.87016">
        <ele>43</ele>
        <time>2021-03-21T11:46:58Z</time>
      </trkpt>
      <trkpt lat="43.65153" lon="3.87011">
        <ele>43</ele>
        <time>2021-03-21T11:46:59Z</time>
      </trkpt>
      <trkpt lat="43.65151" lon="3.87006">
        <ele>43</ele>
        <time>2021-03-21T11:47:00Z</time>
      </trkpt>
      <trkpt lat="43.65149" lon="3.87001">
        <ele>44</ele>
        <time>2021-03-21T11:47:01Z</time>
      </trkpt>
      <trkpt lat="43.65147" lon="3.86997">
        <ele>44</ele>
        <time>2021-03-21T11:47:02Z</time>
      </trkpt>
      <trkpt lat="43.65145" lon="3.86993">
        <ele>44</ele>
        <time>2021-03-21T11:47:03Z</time>
      </trkpt>
      <trkpt lat="43.65144" lon="3.86989">
        <ele>44</ele>
        <time>2021-03-21T11:47:04Z</time>
      </trkpt>
      <trkpt lat="43.65142" lon="3.86984">
        <ele>44</ele>
        <time>2021-03-21T11:47:05Z</time>
      </trkpt>
      <trkpt lat="43.65141" lon="3.86979">
        <ele>44</ele>
        <time>2021-03-21T11:47:06Z</time>
      </trkpt>
      <trkpt lat="43.65139" lon="3.86974">
        <ele>44</ele>
        <time>2021-03-21T11:47:07Z</time>
      </trkpt>
      <trkpt lat="43.65137" lon="3.86969">
        <ele>44</ele>
        <time>2021-03-21T11:47:08Z</time>
      </trkpt>
      <trkpt lat="43.65135" lon="3.86965">
        <ele>44</ele>
        <time>2021-03-21T11:47:09Z</time>
      </trkpt>
      <trkpt lat="43.65133" lon="3.86959">
        <ele>44</ele>
        <time>2021-03-21T11:47:10Z</time>
      </trkpt>
      <trkpt lat="43.65131" lon="3.86954">
        <ele>44</ele>
        <time>2021-03-21T11:47:11Z</time>
      </trkpt>
      <trkpt lat="43.65129" lon="3.86949">
        <ele>44</ele>
        <time>2021-03-21T11:47:12Z</time>
      </trkpt>
      <trkpt lat="43.65127" lon="3.86944">
        <ele>44</ele>
        <time>2021-03-21T11:47:13Z</time>
      </trkpt>
      <trkpt lat="43.65125" lon="3.86939">
        <ele>44</ele>
        <time>2021-03-21T11:47:14Z</time>
      </trkpt>
      <trkpt lat="43.65123" lon="3.86933">
        <ele>44</ele>
        <time>2021-03-21T11:47:15Z</time>
      </trkpt>
      <trkpt lat="43.65122" lon="3.86928">
        <ele>44</ele>
        <time>2021-03-21T11:47:16Z</time>
      </trkpt>
      <trkpt lat="43.6512" lon="3.86922">
        <ele>44</ele>
        <time>2021-03-21T11:47:17Z</time>
      </trkpt>
      <trkpt lat="43.65119" lon="3.86917">
        <ele>44</ele>
        <time>2021-03-21T11:47:18Z</time>
      </trkpt>
      <trkpt lat="43.65117" lon="3.86911">
        <ele>44</ele>
        <time>2021-03-21T11:47:19Z</time>
      </trkpt>
      <trkpt lat="43.65116" lon="3.86906">
        <ele>44</ele>
        <time>2021-03-21T11:47:20Z</time>
      </trkpt>
      <trkpt lat="43.65114" lon="3.869">
        <ele>45</ele>
        <time>2021-03-21T11:47:21Z</time>
      </trkpt>
      <trkpt lat="43.65113" lon="3.86895">
        <ele>45</ele>
        <time>2021-03-21T11:47:22Z</time>
      </trkpt>
      <trkpt lat="43.65111" lon="3.86889">
        <ele>45</ele>
        <time>2021-03-21T11:47:23Z</time>
      </trkpt>
      <trkpt lat="43.6511" lon="3.86884">
        <ele>45</ele>
        <time>2021-03-21T11:47:24Z</time>
      </trkpt>
      <trkpt lat="43.65109" lon="3.86878">
        <ele>45</ele>
        <time>2021-03-21T11:47:25Z</time>
      </trkpt>
      <trkpt lat="43.65108" lon="3.86872">
        <ele>45</ele>
        <time>2021-03-21T11:47:26Z</time>
      </trkpt>
      <trkpt lat="43.65107" lon="3.86866">
        <ele>45</ele>
        <time>2021-03-21T11:47:27Z</time>
      </trkpt>
      <trkpt lat="43.65106" lon="3.86861">
        <ele>45</ele>
        <time>2021-03-21T11:47:28Z</time>
      </trkpt>
      <trkpt lat="43.65104" lon="3.86855">
        <ele>45</ele>
        <time>2021-03-21T11:47:29Z</time>
      </trkpt>
      <trkpt lat="43.65102" lon="3.86849">
        <ele>45</ele>
        <time>2021-03-21T11:47:30Z</time>
      </trkpt>
      <trkpt lat="43.65101" lon="3.86844">
        <ele>46</ele>
        <time>2021-03-21T11:47:31Z</time>
      </trkpt>
      <trkpt lat="43.65099" lon="3.86838">
        <ele>46</ele>
        <time>2021-03-21T11:47:32Z</time>
      </trkpt>
      <trkpt lat="43.65097" lon="3.86832">
        <ele>46</ele>
        <time>2021-03-21T11:47:33Z</time>
      </trkpt>
      <trkpt lat="43.65096" lon="3.86827">
        <ele>46</ele>
        <time>2021-03-21T11:47:34Z</time>
      </trkpt>
      <trkpt lat="43.65095" lon="3.86822">
        <ele>46</ele>
        <time>2021-03-21T11:47:35Z</time>
      </trkpt>
      <trkpt lat="43.65093" lon="3.86817">
        <ele>46</ele>
        <time>2021-03-21T11:47:36Z</time>
      </trkpt>
      <trkpt lat="43.65092" lon="3.86811">
        <ele>46</ele>
        <time>2021-03-21T11:47:37Z</time>
      </trkpt>
      <trkpt lat="43.65091" lon="3.86806">
        <ele>46</ele>
        <time>2021-03-21T11:47:38Z</time>
      </trkpt>
      <trkpt lat="43.6509" lon="3.868">
        <ele>46</ele>
        <time>2021-03-21T11:47:39Z</time>
      </trkpt>
      <trkpt lat="43.6509" lon="3.86795">
        <ele>47</ele>
        <time>2021-03-21T11:47:40Z</time>
      </trkpt>
      <trkpt lat="43.65089" lon="3.86789">
        <ele>47</ele>
        <time>2021-03-21T11:47:41Z</time>
      </trkpt>
      <trkpt lat="43.65088" lon="3.86784">
        <ele>47</ele>
        <time>2021-03-21T11:47:42Z</time>
      </trkpt>
      <trkpt lat="43.65087" lon="3.86778">
        <ele>47</ele>
        <time>2021-03-21T11:47:43Z</time>
      </trkpt>
      <trkpt lat="43.65087" lon="3.86772">
        <ele>47</ele>
        <time>2021-03-21T11:47:44Z</time>
      </trkpt>
      <trkpt lat="43.65086" lon="3.86767">
        <ele>47</ele>
        <time>2021-03-21T11:47:45Z</time>
      </trkpt>
      <trkpt lat="43.65085" lon="3.86761">
        <ele>47</ele>
        <time>2021-03-21T11:47:46Z</time>
      </trkpt>
      <trkpt lat="43.65085" lon="3.86755">
        <ele>47</ele>
        <time>2021-03-21T11:47:47Z</time>
      </trkpt>
      <trkpt lat="43.65084" lon="3.86749">
        <ele>47</ele>
        <time>2021-03-21T11:47:48Z</time>
      </trkpt>
      <trkpt lat="43.65083" lon="3.86743">
        <ele>47</ele>
        <time>2021-03-21T11:47:49Z</time>
      </trkpt>
      <trkpt lat="43.65083" lon="3.86737">
        <ele>47</ele>
        <time>2021-03-21T11:47:50Z</time>
      </trkpt>
      <trkpt lat="43.65082" lon="3.86731">
        <ele>47</ele>
        <time>2021-03-21T11:47:51Z</time>
      </trkpt>
      <trkpt lat="43.65082" lon="3.86725">
        <ele>47</ele>
        <time>2021-03-21T11:47:52Z</time>
      </trkpt>
      <trkpt lat="43.65081" lon="3.86719">
        <ele>47</ele>
        <time>2021-03-21T11:47:53Z</time>
      </trkpt>
      <trkpt lat="43.6508" lon="3.86713">
        <ele>47</ele>
        <time>2021-03-21T11:47:54Z</time>
      </trkpt>
      <trkpt lat="43.6508" lon="3.86708">
        <ele>47</ele>
        <time>2021-03-21T11:47:55Z</time>
      </trkpt>
      <trkpt lat="43.65079" lon="3.86702">
        <ele>47</ele>
        <time>2021-03-21T11:47:56Z</time>
      </trkpt>
      <trkpt lat="43.65079" lon="3.86696">
        <ele>47</ele>
        <time>2021-03-21T11:47:57Z</time>
      </trkpt>
      <trkpt lat="43.65078" lon="3.8669">
        <ele>47</ele>
        <time>2021-03-21T11:47:58Z</time>
      </trkpt>
      <trkpt lat="43.65077" lon="3.86684">
        <ele>47</ele>
        <time>2021-03-21T11:47:59Z</time>
      </trkpt>
      <trkpt lat="43.65076" lon="3.86677">
        <ele>47</ele>
        <time>2021-03-21T11:48:00Z</time>
      </trkpt>
      <trkpt lat="43.65074" lon="3.86671">
        <ele>48</ele>
        <time>2021-03-21T11:48:01Z</time>
      </trkpt>
      <trkpt lat="43.65073" lon="3.86665">
        <ele>48</ele>
        <time>2021-03-21T11:48:02Z</time>
      </trkpt>
      <trkpt lat="43.65071" lon="3.8666">
        <ele>48</ele>
        <time>2021-03-21T11:48:03Z</time>
      </trkpt>
      <trkpt lat="43.65068" lon="3.86655">
        <ele>48</ele>
        <time>2021-03-21T11:48:04Z</time>
      </trkpt>
      <trkpt lat="43.65066" lon="3.86651">
        <ele>48</ele>
        <time>2021-03-21T11:48:05Z</time>
      </trkpt>
      <trkpt lat="43.65062" lon="3.86648">
        <ele>48</ele>
        <time>2021-03-21T11:48:06Z</time>
      </trkpt>
      <trkpt lat="43.65059" lon="3.86646">
        <ele>48</ele>
        <time>2021-03-21T11:48:07Z</time>
      </trkpt>
      <trkpt lat="43.65057" lon="3.86645">
        <ele>48</ele>
        <time>2021-03-21T11:48:08Z</time>
      </trkpt>
      <trkpt lat="43.65055" lon="3.86644">
        <ele>48</ele>
        <time>2021-03-21T11:48:10Z</time>
      </trkpt>
      <trkpt lat="43.65051" lon="3.86644">
        <ele>48</ele>
        <time>2021-03-21T11:48:12Z</time>
      </trkpt>
      <trkpt lat="43.65049" lon="3.86641">
        <ele>48</ele>
        <time>2021-03-21T11:48:13Z</time>
      </trkpt>
      <trkpt lat="43.65048" lon="3.86637">
        <ele>48</ele>
        <time>2021-03-21T11:48:14Z</time>
      </trkpt>
      <trkpt lat="43.65046" lon="3.86633">
        <ele>48</ele>
        <time>2021-03-21T11:48:15Z</time>
      </trkpt>
      <trkpt lat="43.65044" lon="3.8663">
        <ele>48</ele>
        <time>2021-03-21T11:48:16Z</time>
      </trkpt>
      <trkpt lat="43.65042" lon="3.86628">
        <ele>48</ele>
        <time>2021-03-21T11:48:17Z</time>
      </trkpt>
      <trkpt lat="43.65039" lon="3.86627">
        <ele>48</ele>
        <time>2021-03-21T11:48:18Z</time>
      </trkpt>
      <trkpt lat="43.65037" lon="3.86625">
        <ele>48</ele>
        <time>2021-03-21T11:48:19Z</time>
      </trkpt>
      <trkpt lat="43.65034" lon="3.86622">
        <ele>48</ele>
        <time>2021-03-21T11:48:20Z</time>
      </trkpt>
      <trkpt lat="43.6503" lon="3.86618">
        <ele>47</ele>
        <time>2021-03-21T11:48:21Z</time>
      </trkpt>
      <trkpt lat="43.65027" lon="3.86615">
        <ele>47</ele>
        <time>2021-03-21T11:48:22Z</time>
      </trkpt>
      <trkpt lat="43.65024" lon="3.8661">
        <ele>47</ele>
        <time>2021-03-21T11:48:23Z</time>
      </trkpt>
      <trkpt lat="43.65021" lon="3.86607">
        <ele>47</ele>
        <time>2021-03-21T11:48:24Z</time>
      </trkpt>
      <trkpt lat="43.65018" lon="3.86603">
        <ele>47</ele>
        <time>2021-03-21T11:48:25Z</time>
      </trkpt>
      <trkpt lat="43.65014" lon="3.866">
        <ele>47</ele>
        <time>2021-03-21T11:48:26Z</time>
      </trkpt>
      <trkpt lat="43.65009" lon="3.86597">
        <ele>47</ele>
        <time>2021-03-21T11:48:27Z</time>
      </trkpt>
      <trkpt lat="43.65005" lon="3.86594">
        <ele>47</ele>
        <time>2021-03-21T11:48:28Z</time>
      </trkpt>
      <trkpt lat="43.65001" lon="3.86591">
        <ele>47</ele>
        <time>2021-03-21T11:48:29Z</time>
      </trkpt>
      <trkpt lat="43.64997" lon="3.86588">
        <ele>47</ele>
        <time>2021-03-21T11:48:30Z</time>
      </trkpt>
      <trkpt lat="43.64993" lon="3.86585">
        <ele>45</ele>
        <time>2021-03-21T11:48:31Z</time>
      </trkpt>
      <trkpt lat="43.64989" lon="3.86582">
        <ele>45</ele>
        <time>2021-03-21T11:48:32Z</time>
      </trkpt>
      <trkpt lat="43.64985" lon="3.86579">
        <ele>45</ele>
        <time>2021-03-21T11:48:33Z</time>
      </trkpt>
      <trkpt lat="43.64982" lon="3.86576">
        <ele>45</ele>
        <time>2021-03-21T11:48:34Z</time>
      </trkpt>
      <trkpt lat="43.64978" lon="3.86573">
        <ele>45</ele>
        <time>2021-03-21T11:48:35Z</time>
      </trkpt>
      <trkpt lat="43.64975" lon="3.86571">
        <ele>45</ele>
        <time>2021-03-21T11:48:36Z</time>
      </trkpt>
      <trkpt lat="43.64972" lon="3.86569">
        <ele>45</ele>
        <time>2021-03-21T11:48:37Z</time>
      </trkpt>
      <trkpt lat="43.64968" lon="3.86566">
        <ele>45</ele>
        <time>2021-03-21T11:48:38Z</time>
      </trkpt>
      <trkpt lat="43.64965" lon="3.86564">
        <ele>45</ele>
        <time>2021-03-21T11:48:39Z</time>
      </trkpt>
      <trkpt lat="43.64962" lon="3.86561">
        <ele>45</ele>
        <time>2021-03-21T11:48:40Z</time>
      </trkpt>
      <trkpt lat="43.64958" lon="3.86558">
        <ele>46</ele>
        <time>2021-03-21T11:48:41Z</time>
      </trkpt>
      <trkpt lat="43.64955" lon="3.86555">
        <ele>46</ele>
        <time>2021-03-21T11:48:42Z</time>
      </trkpt>
      <trkpt lat="43.64952" lon="3.86553">
        <ele>46</ele>
        <time>2021-03-21T11:48:43Z</time>
      </trkpt>
      <trkpt lat="43.64948" lon="3.86551">
        <ele>46</ele>
        <time>2021-03-21T11:48:44Z</time>
      </trkpt>
      <trkpt lat="43.64945" lon="3.86549">
        <ele>46</ele>
        <time>2021-03-21T11:48:45Z</time>
      </trkpt>
      <trkpt lat="43.64941" lon="3.86546">
        <ele>46</ele>
        <time>2021-03-21T11:48:46Z</time>
      </trkpt>
      <trkpt lat="43.64938" lon="3.86544">
        <ele>46</ele>
        <time>2021-03-21T11:48:47Z</time>
      </trkpt>
      <trkpt lat="43.64935" lon="3.86542">
        <ele>46</ele>
        <time>2021-03-21T11:48:48Z</time>
      </trkpt>
      <trkpt lat="43.64932" lon="3.86539">
        <ele>46</ele>
        <time>2021-03-21T11:48:49Z</time>
      </trkpt>
      <trkpt lat="43.64929" lon="3.86537">
        <ele>46</ele>
        <time>2021-03-21T11:48:50Z</time>
      </trkpt>
      <trkpt lat="43.64926" lon="3.86534">
        <ele>46</ele>
        <time>2021-03-21T11:48:51Z</time>
      </trkpt>
      <trkpt lat="43.64923" lon="3.86532">
        <ele>46</ele>
        <time>2021-03-21T11:48:52Z</time>
      </trkpt>
      <trkpt lat="43.6492" lon="3.86529">
        <ele>46</ele>
        <time>2021-03-21T11:48:53Z</time>
      </trkpt>
      <trkpt lat="43.64917" lon="3.86526">
        <ele>46</ele>
        <time>2021-03-21T11:48:54Z</time>
      </trkpt>
      <trkpt lat="43.64914" lon="3.86524">
        <ele>46</ele>
        <time>2021-03-21T11:48:55Z</time>
      </trkpt>
      <trkpt lat="43.64911" lon="3.86521">
        <ele>46</ele>
        <time>2021-03-21T11:48:56Z</time>
      </trkpt>
      <trkpt lat="43.64908" lon="3.86519">
        <ele>46</ele>
        <time>2021-03-21T11:48:57Z</time>
      </trkpt>
      <trkpt lat="43.64905" lon="3.86517">
        <ele>46</ele>
        <time>2021-03-21T11:48:58Z</time>
      </trkpt>
      <trkpt lat="43.64902" lon="3.86514">
        <ele>46</ele>
        <time>2021-03-21T11:48:59Z</time>
      </trkpt>
      <trkpt lat="43.64898" lon="3.86512">
        <ele>46</ele>
        <time>2021-03-21T11:49:00Z</time>
      </trkpt>
      <trkpt lat="43.64896" lon="3.86509">
        <ele>46</ele>
        <time>2021-03-21T11:49:01Z</time>
      </trkpt>
      <trkpt lat="43.64893" lon="3.86507">
        <ele>46</ele>
        <time>2021-03-21T11:49:02Z</time>
      </trkpt>
      <trkpt lat="43.6489" lon="3.86505">
        <ele>46</ele>
        <time>2021-03-21T11:49:03Z</time>
      </trkpt>
      <trkpt lat="43.64887" lon="3.86503">
        <ele>46</ele>
        <time>2021-03-21T11:49:04Z</time>
      </trkpt>
      <trkpt lat="43.64883" lon="3.86501">
        <ele>46</ele>
        <time>2021-03-21T11:49:05Z</time>
      </trkpt>
      <trkpt lat="43.6488" lon="3.86499">
        <ele>46</ele>
        <time>2021-03-21T11:49:06Z</time>
      </trkpt>
      <trkpt lat="43.64878" lon="3.86496">
        <ele>46</ele>
        <time>2021-03-21T11:49:07Z</time>
      </trkpt>
      <trkpt lat="43.64875" lon="3.86493">
        <ele>46</ele>
        <time>2021-03-21T11:49:08Z</time>
      </trkpt>
      <trkpt lat="43.64873" lon="3.86491">
        <ele>46</ele>
        <time>2021-03-21T11:49:09Z</time>
      </trkpt>
      <trkpt lat="43.6487" lon="3.86489">
        <ele>47</ele>
        <time>2021-03-21T11:49:10Z</time>
      </trkpt>
      <trkpt lat="43.64867" lon="3.86486">
        <ele>47</ele>
        <time>2021-03-21T11:49:11Z</time>
      </trkpt>
      <trkpt lat="43.64864" lon="3.86484">
        <ele>47</ele>
        <time>2021-03-21T11:49:12Z</time>
      </trkpt>
      <trkpt lat="43.64861" lon="3.86481">
        <ele>47</ele>
        <time>2021-03-21T11:49:13Z</time>
      </trkpt>
      <trkpt lat="43.64858" lon="3.86478">
        <ele>47</ele>
        <time>2021-03-21T11:49:14Z</time>
      </trkpt>
      <trkpt lat="43.64856" lon="3.86476">
        <ele>47</ele>
        <time>2021-03-21T11:49:15Z</time>
      </trkpt>
      <trkpt lat="43.64853" lon="3.86473">
        <ele>47</ele>
        <time>2021-03-21T11:49:16Z</time>
      </trkpt>
      <trkpt lat="43.64849" lon="3.8647">
        <ele>47</ele>
        <time>2021-03-21T11:49:17Z</time>
      </trkpt>
      <trkpt lat="43.64846" lon="3.86467">
        <ele>47</ele>
        <time>2021-03-21T11:49:18Z</time>
      </trkpt>
      <trkpt lat="43.64843" lon="3.86465">
        <ele>47</ele>
        <time>2021-03-21T11:49:19Z</time>
      </trkpt>
      <trkpt lat="43.6484" lon="3.86462">
        <ele>47</ele>
        <time>2021-03-21T11:49:20Z</time>
      </trkpt>
      <trkpt lat="43.64837" lon="3.8646">
        <ele>48</ele>
        <time>2021-03-21T11:49:21Z</time>
      </trkpt>
      <trkpt lat="43.64833" lon="3.86458">
        <ele>48</ele>
        <time>2021-03-21T11:49:22Z</time>
      </trkpt>
      <trkpt lat="43.6483" lon="3.86455">
        <ele>48</ele>
        <time>2021-03-21T11:49:23Z</time>
      </trkpt>
      <trkpt lat="43.64827" lon="3.86453">
        <ele>48</ele>
        <time>2021-03-21T11:49:24Z</time>
      </trkpt>
      <trkpt lat="43.64824" lon="3.86451">
        <ele>48</ele>
        <time>2021-03-21T11:49:25Z</time>
      </trkpt>
      <trkpt lat="43.64821" lon="3.86449">
        <ele>48</ele>
        <time>2021-03-21T11:49:26Z</time>
      </trkpt>
      <trkpt lat="43.64817" lon="3.86447">
        <ele>48</ele>
        <time>2021-03-21T11:49:27Z</time>
      </trkpt>
      <trkpt lat="43.64814" lon="3.86445">
        <ele>48</ele>
        <time>2021-03-21T11:49:28Z</time>
      </trkpt>
      <trkpt lat="43.64811" lon="3.86443">
        <ele>48</ele>
        <time>2021-03-21T11:49:29Z</time>
      </trkpt>
      <trkpt lat="43.64807" lon="3.86441">
        <ele>48</ele>
        <time>2021-03-21T11:49:30Z</time>
      </trkpt>
      <trkpt lat="43.64804" lon="3.86439">
        <ele>49</ele>
        <time>2021-03-21T11:49:31Z</time>
      </trkpt>
      <trkpt lat="43.64801" lon="3.86436">
        <ele>49</ele>
        <time>2021-03-21T11:49:32Z</time>
      </trkpt>
      <trkpt lat="43.64798" lon="3.86433">
        <ele>49</ele>
        <time>2021-03-21T11:49:33Z</time>
      </trkpt>
      <trkpt lat="43.64794" lon="3.86431">
        <ele>49</ele>
        <time>2021-03-21T11:49:34Z</time>
      </trkpt>
      <trkpt lat="43.64791" lon="3.86429">
        <ele>49</ele>
        <time>2021-03-21T11:49:35Z</time>
      </trkpt>
      <trkpt lat="43.64788" lon="3.86426">
        <ele>49</ele>
        <time>2021-03-21T11:49:36Z</time>
      </trkpt>
      <trkpt lat="43.64785" lon="3.86424">
        <ele>49</ele>
        <time>2021-03-21T11:49:37Z</time>
      </trkpt>
      <trkpt lat="43.64782" lon="3.86422">
        <ele>49</ele>
        <time>2021-03-21T11:49:38Z</time>
      </trkpt>
      <trkpt lat="43.64779" lon="3.86419">
        <ele>49</ele>
        <time>2021-03-21T11:49:39Z</time>
      </trkpt>
      <trkpt lat="43.64776" lon="3.86417">
        <ele>49</ele>
        <time>2021-03-21T11:49:40Z</time>
      </trkpt>
      <trkpt lat="43.64773" lon="3.86415">
        <ele>51</ele>
        <time>2021-03-21T11:49:41Z</time>
      </trkpt>
      <trkpt lat="43.6477" lon="3.86413">
        <ele>51</ele>
        <time>2021-03-21T11:49:42Z</time>
      </trkpt>
      <trkpt lat="43.64767" lon="3.86411">
        <ele>51</ele>
        <time>2021-03-21T11:49:43Z</time>
      </trkpt>
      <trkpt lat="43.64764" lon="3.86408">
        <ele>51</ele>
        <time>2021-03-21T11:49:44Z</time>
      </trkpt>
      <trkpt lat="43.64761" lon="3.86406">
        <ele>51</ele>
        <time>2021-03-21T11:49:45Z</time>
      </trkpt>
      <trkpt lat="43.64758" lon="3.86404">
        <ele>51</ele>
        <time>2021-03-21T11:49:46Z</time>
      </trkpt>
      <trkpt lat="43.64755" lon="3.86401">
        <ele>51</ele>
        <time>2021-03-21T11:49:47Z</time>
      </trkpt>
      <trkpt lat="43.64751" lon="3.86399">
        <ele>51</ele>
        <time>2021-03-21T11:49:48Z</time>
      </trkpt>
      <trkpt lat="43.64748" lon="3.86396">
        <ele>51</ele>
        <time>2021-03-21T11:49:49Z</time>
      </trkpt>
      <trkpt lat="43.64745" lon="3.86394">
        <ele>53</ele>
        <time>2021-03-21T11:49:50Z</time>
      </trkpt>
      <trkpt lat="43.64742" lon="3.86391">
        <ele>53</ele>
        <time>2021-03-21T11:49:51Z</time>
      </trkpt>
      <trkpt lat="43.64739" lon="3.86389">
        <ele>53</ele>
        <time>2021-03-21T11:49:52Z</time>
      </trkpt>
      <trkpt lat="43.64736" lon="3.86387">
        <ele>53</ele>
        <time>2021-03-21T11:49:53Z</time>
      </trkpt>
      <trkpt lat="43.64733" lon="3.86384">
        <ele>53</ele>
        <time>2021-03-21T11:49:54Z</time>
      </trkpt>
      <trkpt lat="43.6473" lon="3.86382">
        <ele>53</ele>
        <time>2021-03-21T11:49:55Z</time>
      </trkpt>
      <trkpt lat="43.64727" lon="3.86379">
        <ele>53</ele>
        <time>2021-03-21T11:49:56Z</time>
      </trkpt>
      <trkpt lat="43.64724" lon="3.86377">
        <ele>53</ele>
        <time>2021-03-21T11:49:57Z</time>
      </trkpt>
      <trkpt lat="43.64721" lon="3.86375">
        <ele>53</ele>
        <time>2021-03-21T11:49:58Z</time>
      </trkpt>
      <trkpt lat="43.64718" lon="3.86372">
        <ele>53</ele>
        <time>2021-03-21T11:49:59Z</time>
      </trkpt>
      <trkpt lat="43.64714" lon="3.86369">
        <ele>53</ele>
        <time>2021-03-21T11:50:00Z</time>
      </trkpt>
      <trkpt lat="43.64711" lon="3.86367">
        <ele>54</ele>
        <time>2021-03-21T11:50:01Z</time>
      </trkpt>
      <trkpt lat="43.64708" lon="3.86364">
        <ele>54</ele>
        <time>2021-03-21T11:50:02Z</time>
      </trkpt>
      <trkpt lat="43.64706" lon="3.86362">
        <ele>54</ele>
        <time>2021-03-21T11:50:03Z</time>
      </trkpt>
      <trkpt lat="43.64703" lon="3.8636">
        <ele>54</ele>
        <time>2021-03-21T11:50:04Z</time>
      </trkpt>
      <trkpt lat="43.64699" lon="3.86358">
        <ele>54</ele>
        <time>2021-03-21T11:50:05Z</time>
      </trkpt>
      <trkpt lat="43.64696" lon="3.86355">
        <ele>54</ele>
        <time>2021-03-21T11:50:06Z</time>
      </trkpt>
      <trkpt lat="43.64693" lon="3.86353">
        <ele>54</ele>
        <time>2021-03-21T11:50:07Z</time>
      </trkpt>
      <trkpt lat="43.6469" lon="3.8635">
        <ele>54</ele>
        <time>2021-03-21T11:50:08Z</time>
      </trkpt>
      <trkpt lat="43.64687" lon="3.86348">
        <ele>54</ele>
        <time>2021-03-21T11:50:09Z</time>
      </trkpt>
      <trkpt lat="43.64683" lon="3.86346">
        <ele>54</ele>
        <time>2021-03-21T11:50:10Z</time>
      </trkpt>
      <trkpt lat="43.6468" lon="3.86344">
        <ele>54</ele>
        <time>2021-03-21T11:50:11Z</time>
      </trkpt>
      <trkpt lat="43.64677" lon="3.86341">
        <ele>54</ele>
        <time>2021-03-21T11:50:12Z</time>
      </trkpt>
      <trkpt lat="43.64674" lon="3.86339">
        <ele>54</ele>
        <time>2021-03-21T11:50:13Z</time>
      </trkpt>
      <trkpt lat="43.64671" lon="3.86337">
        <ele>54</ele>
        <time>2021-03-21T11:50:14Z</time>
      </trkpt>
      <trkpt lat="43.64668" lon="3.86334">
        <ele>54</ele>
        <time>2021-03-21T11:50:15Z</time>
      </trkpt>
      <trkpt lat="43.64665" lon="3.86332">
        <ele>54</ele>
        <time>2021-03-21T11:50:16Z</time>
      </trkpt>
      <trkpt lat="43.64662" lon="3.8633">
        <ele>54</ele>
        <time>2021-03-21T11:50:17Z</time>
      </trkpt>
      <trkpt lat="43.64658" lon="3.86327">
        <ele>54</ele>
        <time>2021-03-21T11:50:18Z</time>
      </trkpt>
      <trkpt lat="43.64655" lon="3.86325">
        <ele>54</ele>
        <time>2021-03-21T11:50:19Z</time>
      </trkpt>
      <trkpt lat="43.64652" lon="3.86323">
        <ele>55</ele>
        <time>2021-03-21T11:50:20Z</time>
      </trkpt>
      <trkpt lat="43.64649" lon="3.8632">
        <ele>55</ele>
        <time>2021-03-21T11:50:21Z</time>
      </trkpt>
      <trkpt lat="43.64646" lon="3.86318">
        <ele>55</ele>
        <time>2021-03-21T11:50:22Z</time>
      </trkpt>
      <trkpt lat="43.64643" lon="3.86316">
        <ele>55</ele>
        <time>2021-03-21T11:50:23Z</time>
      </trkpt>
      <trkpt lat="43.6464" lon="3.86314">
        <ele>55</ele>
        <time>2021-03-21T11:50:24Z</time>
      </trkpt>
      <trkpt lat="43.64637" lon="3.86311">
        <ele>55</ele>
        <time>2021-03-21T11:50:25Z</time>
      </trkpt>
      <trkpt lat="43.64634" lon="3.86309">
        <ele>55</ele>
        <time>2021-03-21T11:50:26Z</time>
      </trkpt>
      <trkpt lat="43.64631" lon="3.86307">
        <ele>55</ele>
        <time>2021-03-21T11:50:27Z</time>
      </trkpt>
      <trkpt lat="43.64627" lon="3.86305">
        <ele>55</ele>
        <time>2021-03-21T11:50:28Z</time>
      </trkpt>
      <trkpt lat="43.64624" lon="3.86303">
        <ele>55</ele>
        <time>2021-03-21T11:50:29Z</time>
      </trkpt>
      <trkpt lat="43.64621" lon="3.863">
        <ele>55</ele>
        <time>2021-03-21T11:50:30Z</time>
      </trkpt>
      <trkpt lat="43.64619" lon="3.86297">
        <ele>57</ele>
        <time>2021-03-21T11:50:31Z</time>
      </trkpt>
      <trkpt lat="43.64616" lon="3.86295">
        <ele>57</ele>
        <time>2021-03-21T11:50:32Z</time>
      </trkpt>
      <trkpt lat="43.64612" lon="3.86292">
        <ele>57</ele>
        <time>2021-03-21T11:50:33Z</time>
      </trkpt>
      <trkpt lat="43.64609" lon="3.8629">
        <ele>57</ele>
        <time>2021-03-21T11:50:34Z</time>
      </trkpt>
      <trkpt lat="43.64606" lon="3.86288">
        <ele>57</ele>
        <time>2021-03-21T11:50:35Z</time>
      </trkpt>
      <trkpt lat="43.64603" lon="3.86285">
        <ele>57</ele>
        <time>2021-03-21T11:50:36Z</time>
      </trkpt>
      <trkpt lat="43.646" lon="3.86282">
        <ele>57</ele>
        <time>2021-03-21T11:50:37Z</time>
      </trkpt>
      <trkpt lat="43.64597" lon="3.8628">
        <ele>57</ele>
        <time>2021-03-21T11:50:38Z</time>
      </trkpt>
      <trkpt lat="43.64594" lon="3.86278">
        <ele>57</ele>
        <time>2021-03-21T11:50:39Z</time>
      </trkpt>
      <trkpt lat="43.64591" lon="3.86275">
        <ele>57</ele>
        <time>2021-03-21T11:50:40Z</time>
      </trkpt>
      <trkpt lat="43.64588" lon="3.86273">
        <ele>59</ele>
        <time>2021-03-21T11:50:41Z</time>
      </trkpt>
      <trkpt lat="43.64585" lon="3.86271">
        <ele>59</ele>
        <time>2021-03-21T11:50:42Z</time>
      </trkpt>
      <trkpt lat="43.64582" lon="3.86268">
        <ele>59</ele>
        <time>2021-03-21T11:50:43Z</time>
      </trkpt>
      <trkpt lat="43.64579" lon="3.86266">
        <ele>59</ele>
        <time>2021-03-21T11:50:44Z</time>
      </trkpt>
      <trkpt lat="43.64575" lon="3.86263">
        <ele>59</ele>
        <time>2021-03-21T11:50:45Z</time>
      </trkpt>
      <trkpt lat="43.64572" lon="3.86261">
        <ele>59</ele>
        <time>2021-03-21T11:50:46Z</time>
      </trkpt>
      <trkpt lat="43.64569" lon="3.86259">
        <ele>59</ele>
        <time>2021-03-21T11:50:47Z</time>
      </trkpt>
      <trkpt lat="43.64566" lon="3.86257">
        <ele>59</ele>
        <time>2021-03-21T11:50:48Z</time>
      </trkpt>
      <trkpt lat="43.64563" lon="3.86254">
        <ele>59</ele>
        <time>2021-03-21T11:50:49Z</time>
      </trkpt>
      <trkpt lat="43.6456" lon="3.86251">
        <ele>59</ele>
        <time>2021-03-21T11:50:50Z</time>
      </trkpt>
      <trkpt lat="43.64557" lon="3.86249">
        <ele>60</ele>
        <time>2021-03-21T11:50:51Z</time>
      </trkpt>
      <trkpt lat="43.64555" lon="3.86246">
        <ele>60</ele>
        <time>2021-03-21T11:50:52Z</time>
      </trkpt>
      <trkpt lat="43.64552" lon="3.86244">
        <ele>60</ele>
        <time>2021-03-21T11:50:53Z</time>
      </trkpt>
      <trkpt lat="43.64549" lon="3.86241">
        <ele>60</ele>
        <time>2021-03-21T11:50:54Z</time>
      </trkpt>
      <trkpt lat="43.64546" lon="3.86239">
        <ele>60</ele>
        <time>2021-03-21T11:50:55Z</time>
      </trkpt>
      <trkpt lat="43.64543" lon="3.86236">
        <ele>60</ele>
        <time>2021-03-21T11:50:56Z</time>
      </trkpt>
      <trkpt lat="43.6454" lon="3.86234">
        <ele>60</ele>
        <time>2021-03-21T11:50:57Z</time>
      </trkpt>
      <trkpt lat="43.64538" lon="3.86231">
        <ele>60</ele>
        <time>2021-03-21T11:50:58Z</time>
      </trkpt>
      <trkpt lat="43.64535" lon="3.86228">
        <ele>60</ele>
        <time>2021-03-21T11:50:59Z</time>
      </trkpt>
      <trkpt lat="43.64533" lon="3.86225">
        <ele>60</ele>
        <time>2021-03-21T11:51:00Z</time>
      </trkpt>
      <trkpt lat="43.6453" lon="3.86223">
        <ele>60</ele>
        <time>2021-03-21T11:51:01Z</time>
      </trkpt>
      <trkpt lat="43.64528" lon="3.86221">
        <ele>60</ele>
        <time>2021-03-21T11:51:02Z</time>
      </trkpt>
      <trkpt lat="43.64525" lon="3.86219">
        <ele>60</ele>
        <time>2021-03-21T11:51:03Z</time>
      </trkpt>
      <trkpt lat="43.64522" lon="3.86217">
        <ele>60</ele>
        <time>2021-03-21T11:51:04Z</time>
      </trkpt>
      <trkpt lat="43.6452" lon="3.86215">
        <ele>60</ele>
        <time>2021-03-21T11:51:05Z</time>
      </trkpt>
      <trkpt lat="43.64517" lon="3.86214">
        <ele>60</ele>
        <time>2021-03-21T11:51:06Z</time>
      </trkpt>
      <trkpt lat="43.64514" lon="3.86212">
        <ele>60</ele>
        <time>2021-03-21T11:51:07Z</time>
      </trkpt>
      <trkpt lat="43.64511" lon="3.86211">
        <ele>60</ele>
        <time>2021-03-21T11:51:08Z</time>
      </trkpt>
      <trkpt lat="43.64509" lon="3.86209">
        <ele>60</ele>
        <time>2021-03-21T11:51:09Z</time>
      </trkpt>
      <trkpt lat="43.64506" lon="3.86207">
        <ele>60</ele>
        <time>2021-03-21T11:51:10Z</time>
      </trkpt>
      <trkpt lat="43.64504" lon="3.86205">
        <ele>62</ele>
        <time>2021-03-21T11:51:11Z</time>
      </trkpt>
      <trkpt lat="43.64502" lon="3.86202">
        <ele>62</ele>
        <time>2021-03-21T11:51:12Z</time>
      </trkpt>
      <trkpt lat="43.645" lon="3.86199">
        <ele>62</ele>
        <time>2021-03-21T11:51:13Z</time>
      </trkpt>
      <trkpt lat="43.64499" lon="3.86196">
        <ele>62</ele>
        <time>2021-03-21T11:51:14Z</time>
      </trkpt>
      <trkpt lat="43.64498" lon="3.86193">
        <ele>62</ele>
        <time>2021-03-21T11:51:15Z</time>
      </trkpt>
      <trkpt lat="43.64497" lon="3.86191">
        <ele>62</ele>
        <time>2021-03-21T11:51:16Z</time>
      </trkpt>
      <trkpt lat="43.64495" lon="3.86189">
        <ele>62</ele>
        <time>2021-03-21T11:51:17Z</time>
      </trkpt>
      <trkpt lat="43.64494" lon="3.86186">
        <ele>62</ele>
        <time>2021-03-21T11:51:19Z</time>
      </trkpt>
      <trkpt lat="43.64494" lon="3.86184">
        <ele>62</ele>
        <time>2021-03-21T11:51:22Z</time>
      </trkpt>
      <trkpt lat="43.64489" lon="3.86163">
        <ele>64</ele>
        <time>2021-03-21T11:51:39Z</time>
      </trkpt>
      <trkpt lat="43.64486" lon="3.8616">
        <ele>64</ele>
        <time>2021-03-21T11:51:40Z</time>
      </trkpt>
      <trkpt lat="43.64483" lon="3.86157">
        <ele>64</ele>
        <time>2021-03-21T11:51:41Z</time>
      </trkpt>
      <trkpt lat="43.6448" lon="3.86154">
        <ele>64</ele>
        <time>2021-03-21T11:51:42Z</time>
      </trkpt>
      <trkpt lat="43.64477" lon="3.8615">
        <ele>64</ele>
        <time>2021-03-21T11:51:43Z</time>
      </trkpt>
      <trkpt lat="43.64474" lon="3.86147">
        <ele>64</ele>
        <time>2021-03-21T11:51:44Z</time>
      </trkpt>
      <trkpt lat="43.6447" lon="3.86143">
        <ele>64</ele>
        <time>2021-03-21T11:51:45Z</time>
      </trkpt>
      <trkpt lat="43.64467" lon="3.8614">
        <ele>64</ele>
        <time>2021-03-21T11:51:46Z</time>
      </trkpt>
      <trkpt lat="43.64464" lon="3.86136">
        <ele>64</ele>
        <time>2021-03-21T11:51:47Z</time>
      </trkpt>
      <trkpt lat="43.64461" lon="3.86133">
        <ele>64</ele>
        <time>2021-03-21T11:51:48Z</time>
      </trkpt>
      <trkpt lat="43.64458" lon="3.8613">
        <ele>64</ele>
        <time>2021-03-21T11:51:49Z</time>
      </trkpt>
      <trkpt lat="43.64455" lon="3.86126">
        <ele>64</ele>
        <time>2021-03-21T11:51:50Z</time>
      </trkpt>
      <trkpt lat="43.64453" lon="3.86123">
        <ele>64</ele>
        <time>2021-03-21T11:51:51Z</time>
      </trkpt>
      <trkpt lat="43.6445" lon="3.8612">
        <ele>64</ele>
        <time>2021-03-21T11:51:52Z</time>
      </trkpt>
      <trkpt lat="43.64447" lon="3.86116">
        <ele>64</ele>
        <time>2021-03-21T11:51:53Z</time>
      </trkpt>
      <trkpt lat="43.64445" lon="3.86113">
        <ele>64</ele>
        <time>2021-03-21T11:51:54Z</time>
      </trkpt>
      <trkpt lat="43.64442" lon="3.8611">
        <ele>64</ele>
        <time>2021-03-21T11:51:55Z</time>
      </trkpt>
      <trkpt lat="43.64439" lon="3.86107">
        <ele>64</ele>
        <time>2021-03-21T11:51:56Z</time>
      </trkpt>
      <trkpt lat="43.64437" lon="3.86104">
        <ele>64</ele>
        <time>2021-03-21T11:51:57Z</time>
      </trkpt>
      <trkpt lat="43.64434" lon="3.86101">
        <ele>64</ele>
        <time>2021-03-21T11:51:58Z</time>
      </trkpt>
      <trkpt lat="43.64431" lon="3.86098">
        <ele>65</ele>
        <time>2021-03-21T11:51:59Z</time>
      </trkpt>
      <trkpt lat="43.64429" lon="3.86095">
        <ele>65</ele>
        <time>2021-03-21T11:52:00Z</time>
      </trkpt>
      <trkpt lat="43.64426" lon="3.86092">
        <ele>65</ele>
        <time>2021-03-21T11:52:01Z</time>
      </trkpt>
      <trkpt lat="43.64424" lon="3.86089">
        <ele>65</ele>
        <time>2021-03-21T11:52:02Z</time>
      </trkpt>
      <trkpt lat="43.64421" lon="3.86086">
        <ele>65</ele>
        <time>2021-03-21T11:52:03Z</time>
      </trkpt>
      <trkpt lat="43.64418" lon="3.86084">
        <ele>65</ele>
        <time>2021-03-21T11:52:04Z</time>
      </trkpt>
      <trkpt lat="43.64416" lon="3.86081">
        <ele>65</ele>
        <time>2021-03-21T11:52:05Z</time>
      </trkpt>
      <trkpt lat="43.64413" lon="3.86078">
        <ele>65</ele>
        <time>2021-03-21T11:52:06Z</time>
      </trkpt>
      <trkpt lat="43.6441" lon="3.86075">
        <ele>65</ele>
        <time>2021-03-21T11:52:07Z</time>
      </trkpt>
      <trkpt lat="43.64407" lon="3.86073">
        <ele>66</ele>
        <time>2021-03-21T11:52:08Z</time>
      </trkpt>
      <trkpt lat="43.64404" lon="3.8607">
        <ele>66</ele>
        <time>2021-03-21T11:52:09Z</time>
      </trkpt>
      <trkpt lat="43.64402" lon="3.86068">
        <ele>66</ele>
        <time>2021-03-21T11:52:10Z</time>
      </trkpt>
      <trkpt lat="43.64399" lon="3.86065">
        <ele>66</ele>
        <time>2021-03-21T11:52:11Z</time>
      </trkpt>
      <trkpt lat="43.64395" lon="3.86064">
        <ele>66</ele>
        <time>2021-03-21T11:52:12Z</time>
      </trkpt>
      <trkpt lat="43.64392" lon="3.86062">
        <ele>66</ele>
        <time>2021-03-21T11:52:13Z</time>
      </trkpt>
      <trkpt lat="43.64389" lon="3.8606">
        <ele>66</ele>
        <time>2021-03-21T11:52:14Z</time>
      </trkpt>
      <trkpt lat="43.64387" lon="3.86058">
        <ele>66</ele>
        <time>2021-03-21T11:52:15Z</time>
      </trkpt>
      <trkpt lat="43.64384" lon="3.86057">
        <ele>66</ele>
        <time>2021-03-21T11:52:16Z</time>
      </trkpt>
      <trkpt lat="43.64381" lon="3.86055">
        <ele>66</ele>
        <time>2021-03-21T11:52:17Z</time>
      </trkpt>
      <trkpt lat="43.64378" lon="3.86054">
        <ele>66</ele>
        <time>2021-03-21T11:52:18Z</time>
      </trkpt>
      <trkpt lat="43.64374" lon="3.86053">
        <ele>67</ele>
        <time>2021-03-21T11:52:19Z</time>
      </trkpt>
      <trkpt lat="43.64371" lon="3.86051">
        <ele>67</ele>
        <time>2021-03-21T11:52:20Z</time>
      </trkpt>
      <trkpt lat="43.64368" lon="3.8605">
        <ele>67</ele>
        <time>2021-03-21T11:52:21Z</time>
      </trkpt>
      <trkpt lat="43.64365" lon="3.86048">
        <ele>67</ele>
        <time>2021-03-21T11:52:22Z</time>
      </trkpt>
      <trkpt lat="43.64362" lon="3.86047">
        <ele>67</ele>
        <time>2021-03-21T11:52:23Z</time>
      </trkpt>
      <trkpt lat="43.64358" lon="3.86046">
        <ele>67</ele>
        <time>2021-03-21T11:52:24Z</time>
      </trkpt>
      <trkpt lat="43.64355" lon="3.86045">
        <ele>67</ele>
        <time>2021-03-21T11:52:25Z</time>
      </trkpt>
      <trkpt lat="43.64351" lon="3.86045">
        <ele>67</ele>
        <time>2021-03-21T11:52:26Z</time>
      </trkpt>
      <trkpt lat="43.64348" lon="3.86045">
        <ele>67</ele>
        <time>2021-03-21T11:52:27Z</time>
      </trkpt>
      <trkpt lat="43.64345" lon="3.86046">
        <ele>67</ele>
        <time>2021-03-21T11:52:28Z</time>
      </trkpt>
      <trkpt lat="43.64342" lon="3.86048">
        <ele>68</ele>
        <time>2021-03-21T11:52:29Z</time>
      </trkpt>
      <trkpt lat="43.6434" lon="3.86051">
        <ele>68</ele>
        <time>2021-03-21T11:52:30Z</time>
      </trkpt>
      <trkpt lat="43.64339" lon="3.86055">
        <ele>68</ele>
        <time>2021-03-21T11:52:31Z</time>
      </trkpt>
      <trkpt lat="43.64338" lon="3.86058">
        <ele>68</ele>
        <time>2021-03-21T11:52:32Z</time>
      </trkpt>
      <trkpt lat="43.64337" lon="3.86062">
        <ele>68</ele>
        <time>2021-03-21T11:52:33Z</time>
      </trkpt>
      <trkpt lat="43.64336" lon="3.86065">
        <ele>68</ele>
        <time>2021-03-21T11:52:34Z</time>
      </trkpt>
      <trkpt lat="43.64334" lon="3.86069">
        <ele>68</ele>
        <time>2021-03-21T11:52:35Z</time>
      </trkpt>
      <trkpt lat="43.64331" lon="3.86071">
        <ele>68</ele>
        <time>2021-03-21T11:52:36Z</time>
      </trkpt>
      <trkpt lat="43.64329" lon="3.86073">
        <ele>68</ele>
        <time>2021-03-21T11:52:37Z</time>
      </trkpt>
      <trkpt lat="43.64327" lon="3.86074">
        <ele>68</ele>
        <time>2021-03-21T11:52:38Z</time>
      </trkpt>
      <trkpt lat="43.64325" lon="3.86075">
        <ele>68</ele>
        <time>2021-03-21T11:52:39Z</time>
      </trkpt>
      <trkpt lat="43.64322" lon="3.86076">
        <ele>68</ele>
        <time>2021-03-21T11:52:41Z</time>
      </trkpt>
      <trkpt lat="43.64319" lon="3.86078">
        <ele>68</ele>
        <time>2021-03-21T11:52:43Z</time>
      </trkpt>
      <trkpt lat="43.64317" lon="3.8608">
        <ele>68</ele>
        <time>2021-03-21T11:52:45Z</time>
      </trkpt>
      <trkpt lat="43.64315" lon="3.86081">
        <ele>68</ele>
        <time>2021-03-21T11:52:47Z</time>
      </trkpt>
      <trkpt lat="43.64312" lon="3.86085">
        <ele>69</ele>
        <time>2021-03-21T11:52:49Z</time>
      </trkpt>
      <trkpt lat="43.6431" lon="3.86086">
        <ele>69</ele>
        <time>2021-03-21T11:52:50Z</time>
      </trkpt>
      <trkpt lat="43.64308" lon="3.86087">
        <ele>69</ele>
        <time>2021-03-21T11:52:51Z</time>
      </trkpt>
      <trkpt lat="43.64306" lon="3.86089">
        <ele>69</ele>
        <time>2021-03-21T11:52:52Z</time>
      </trkpt>
      <trkpt lat="43.64305" lon="3.8609">
        <ele>69</ele>
        <time>2021-03-21T11:52:53Z</time>
      </trkpt>
      <trkpt lat="43.64302" lon="3.86092">
        <ele>69</ele>
        <time>2021-03-21T11:52:54Z</time>
      </trkpt>
      <trkpt lat="43.643" lon="3.86093">
        <ele>69</ele>
        <time>2021-03-21T11:52:55Z</time>
      </trkpt>
      <trkpt lat="43.64297" lon="3.86094">
        <ele>69</ele>
        <time>2021-03-21T11:52:56Z</time>
      </trkpt>
      <trkpt lat="43.64294" lon="3.86096">
        <ele>69</ele>
        <time>2021-03-21T11:52:57Z</time>
      </trkpt>
      <trkpt lat="43.64292" lon="3.86097">
        <ele>69</ele>
        <time>2021-03-21T11:52:58Z</time>
      </trkpt>
      <trkpt lat="43.64289" lon="3.86099">
        <ele>69</ele>
        <time>2021-03-21T11:52:59Z</time>
      </trkpt>
      <trkpt lat="43.64286" lon="3.86101">
        <ele>69</ele>
        <time>2021-03-21T11:53:00Z</time>
      </trkpt>
      <trkpt lat="43.64284" lon="3.86103">
        <ele>69</ele>
        <time>2021-03-21T11:53:01Z</time>
      </trkpt>
      <trkpt lat="43.64281" lon="3.86105">
        <ele>69</ele>
        <time>2021-03-21T11:53:02Z</time>
      </trkpt>
      <trkpt lat="43.64279" lon="3.86107">
        <ele>69</ele>
        <time>2021-03-21T11:53:03Z</time>
      </trkpt>
      <trkpt lat="43.64277" lon="3.86109">
        <ele>69</ele>
        <time>2021-03-21T11:53:04Z</time>
      </trkpt>
      <trkpt lat="43.64274" lon="3.86111">
        <ele>69</ele>
        <time>2021-03-21T11:53:05Z</time>
      </trkpt>
      <trkpt lat="43.64272" lon="3.86113">
        <ele>69</ele>
        <time>2021-03-21T11:53:06Z</time>
      </trkpt>
      <trkpt lat="43.64269" lon="3.86115">
        <ele>69</ele>
        <time>2021-03-21T11:53:07Z</time>
      </trkpt>
      <trkpt lat="43.64267" lon="3.86117">
        <ele>69</ele>
        <time>2021-03-21T11:53:08Z</time>
      </trkpt>
      <trkpt lat="43.64264" lon="3.86119">
        <ele>70</ele>
        <time>2021-03-21T11:53:09Z</time>
      </trkpt>
      <trkpt lat="43.64262" lon="3.86121">
        <ele>70</ele>
        <time>2021-03-21T11:53:10Z</time>
      </trkpt>
      <trkpt lat="43.64259" lon="3.86122">
        <ele>70</ele>
        <time>2021-03-21T11:53:11Z</time>
      </trkpt>
      <trkpt lat="43.64257" lon="3.86124">
        <ele>70</ele>
        <time>2021-03-21T11:53:12Z</time>
      </trkpt>
      <trkpt lat="43.64254" lon="3.86126">
        <ele>70</ele>
        <time>2021-03-21T11:53:13Z</time>
      </trkpt>
      <trkpt lat="43.64252" lon="3.86128">
        <ele>70</ele>
        <time>2021-03-21T11:53:14Z</time>
      </trkpt>
      <trkpt lat="43.64249" lon="3.8613">
        <ele>70</ele>
        <time>2021-03-21T11:53:15Z</time>
      </trkpt>
      <trkpt lat="43.64247" lon="3.86133">
        <ele>70</ele>
        <time>2021-03-21T11:53:16Z</time>
      </trkpt>
      <trkpt lat="43.64244" lon="3.86135">
        <ele>70</ele>
        <time>2021-03-21T11:53:17Z</time>
      </trkpt>
      <trkpt lat="43.64242" lon="3.86137">
        <ele>70</ele>
        <time>2021-03-21T11:53:18Z</time>
      </trkpt>
      <trkpt lat="43.64239" lon="3.86139">
        <ele>70</ele>
        <time>2021-03-21T11:53:19Z</time>
      </trkpt>
      <trkpt lat="43.64236" lon="3.8614">
        <ele>70</ele>
        <time>2021-03-21T11:53:20Z</time>
      </trkpt>
      <trkpt lat="43.64234" lon="3.86142">
        <ele>70</ele>
        <time>2021-03-21T11:53:21Z</time>
      </trkpt>
      <trkpt lat="43.64231" lon="3.86145">
        <ele>70</ele>
        <time>2021-03-21T11:53:22Z</time>
      </trkpt>
      <trkpt lat="43.64229" lon="3.86148">
        <ele>70</ele>
        <time>2021-03-21T11:53:23Z</time>
      </trkpt>
      <trkpt lat="43.64227" lon="3.86151">
        <ele>70</ele>
        <time>2021-03-21T11:53:24Z</time>
      </trkpt>
      <trkpt lat="43.64224" lon="3.86153">
        <ele>70</ele>
        <time>2021-03-21T11:53:25Z</time>
      </trkpt>
      <trkpt lat="43.64222" lon="3.86155">
        <ele>70</ele>
        <time>2021-03-21T11:53:26Z</time>
      </trkpt>
      <trkpt lat="43.64219" lon="3.86157">
        <ele>70</ele>
        <time>2021-03-21T11:53:27Z</time>
      </trkpt>
      <trkpt lat="43.64216" lon="3.86159">
        <ele>71</ele>
        <time>2021-03-21T11:53:28Z</time>
      </trkpt>
      <trkpt lat="43.64214" lon="3.86161">
        <ele>71</ele>
        <time>2021-03-21T11:53:29Z</time>
      </trkpt>
      <trkpt lat="43.64212" lon="3.86162">
        <ele>71</ele>
        <time>2021-03-21T11:53:30Z</time>
      </trkpt>
      <trkpt lat="43.64209" lon="3.86164">
        <ele>71</ele>
        <time>2021-03-21T11:53:31Z</time>
      </trkpt>
      <trkpt lat="43.64206" lon="3.86164">
        <ele>71</ele>
        <time>2021-03-21T11:53:32Z</time>
      </trkpt>
      <trkpt lat="43.64203" lon="3.86163">
        <ele>71</ele>
        <time>2021-03-21T11:53:33Z</time>
      </trkpt>
      <trkpt lat="43.642" lon="3.86161">
        <ele>71</ele>
        <time>2021-03-21T11:53:34Z</time>
      </trkpt>
      <trkpt lat="43.64198" lon="3.86159">
        <ele>71</ele>
        <time>2021-03-21T11:53:35Z</time>
      </trkpt>
      <trkpt lat="43.64196" lon="3.86158">
        <ele>71</ele>
        <time>2021-03-21T11:53:36Z</time>
      </trkpt>
      <trkpt lat="43.64193" lon="3.86158">
        <ele>71</ele>
        <time>2021-03-21T11:53:37Z</time>
      </trkpt>
      <trkpt lat="43.6419" lon="3.8616">
        <ele>73</ele>
        <time>2021-03-21T11:53:38Z</time>
      </trkpt>
      <trkpt lat="43.64187" lon="3.86162">
        <ele>73</ele>
        <time>2021-03-21T11:53:39Z</time>
      </trkpt>
      <trkpt lat="43.64185" lon="3.86164">
        <ele>73</ele>
        <time>2021-03-21T11:53:40Z</time>
      </trkpt>
      <trkpt lat="43.64182" lon="3.86166">
        <ele>73</ele>
        <time>2021-03-21T11:53:41Z</time>
      </trkpt>
      <trkpt lat="43.64179" lon="3.86168">
        <ele>73</ele>
        <time>2021-03-21T11:53:42Z</time>
      </trkpt>
      <trkpt lat="43.64176" lon="3.8617">
        <ele>73</ele>
        <time>2021-03-21T11:53:43Z</time>
      </trkpt>
      <trkpt lat="43.64174" lon="3.86173">
        <ele>73</ele>
        <time>2021-03-21T11:53:44Z</time>
      </trkpt>
      <trkpt lat="43.64171" lon="3.86175">
        <ele>73</ele>
        <time>2021-03-21T11:53:45Z</time>
      </trkpt>
      <trkpt lat="43.64168" lon="3.86177">
        <ele>73</ele>
        <time>2021-03-21T11:53:46Z</time>
      </trkpt>
      <trkpt lat="43.64166" lon="3.8618">
        <ele>73</ele>
        <time>2021-03-21T11:53:47Z</time>
      </trkpt>
      <trkpt lat="43.64163" lon="3.86182">
        <ele>73</ele>
        <time>2021-03-21T11:53:48Z</time>
      </trkpt>
      <trkpt lat="43.6416" lon="3.86185">
        <ele>75</ele>
        <time>2021-03-21T11:53:49Z</time>
      </trkpt>
      <trkpt lat="43.64157" lon="3.86187">
        <ele>75</ele>
        <time>2021-03-21T11:53:50Z</time>
      </trkpt>
      <trkpt lat="43.64155" lon="3.8619">
        <ele>75</ele>
        <time>2021-03-21T11:53:51Z</time>
      </trkpt>
      <trkpt lat="43.64152" lon="3.86193">
        <ele>75</ele>
        <time>2021-03-21T11:53:52Z</time>
      </trkpt>
      <trkpt lat="43.6415" lon="3.86196">
        <ele>75</ele>
        <time>2021-03-21T11:53:53Z</time>
      </trkpt>
      <trkpt lat="43.64148" lon="3.86198">
        <ele>75</ele>
        <time>2021-03-21T11:53:54Z</time>
      </trkpt>
      <trkpt lat="43.64146" lon="3.86202">
        <ele>75</ele>
        <time>2021-03-21T11:53:55Z</time>
      </trkpt>
      <trkpt lat="43.64144" lon="3.86205">
        <ele>75</ele>
        <time>2021-03-21T11:53:56Z</time>
      </trkpt>
      <trkpt lat="43.64142" lon="3.86208">
        <ele>75</ele>
        <time>2021-03-21T11:53:57Z</time>
      </trkpt>
      <trkpt lat="43.6414" lon="3.86211">
        <ele>75</ele>
        <time>2021-03-21T11:53:58Z</time>
      </trkpt>
      <trkpt lat="43.64139" lon="3.86214">
        <ele>77</ele>
        <time>2021-03-21T11:53:59Z</time>
      </trkpt>
      <trkpt lat="43.64137" lon="3.86218">
        <ele>77</ele>
        <time>2021-03-21T11:54:00Z</time>
      </trkpt>
      <trkpt lat="43.64136" lon="3.86221">
        <ele>77</ele>
        <time>2021-03-21T11:54:01Z</time>
      </trkpt>
      <trkpt lat="43.64134" lon="3.86224">
        <ele>77</ele>
        <time>2021-03-21T11:54:02Z</time>
      </trkpt>
      <trkpt lat="43.64133" lon="3.86228">
        <ele>77</ele>
        <time>2021-03-21T11:54:03Z</time>
      </trkpt>
      <trkpt lat="43.64132" lon="3.86232">
        <ele>77</ele>
        <time>2021-03-21T11:54:04Z</time>
      </trkpt>
      <trkpt lat="43.6413" lon="3.86235">
        <ele>77</ele>
        <time>2021-03-21T11:54:05Z</time>
      </trkpt>
      <trkpt lat="43.64129" lon="3.86239">
        <ele>77</ele>
        <time>2021-03-21T11:54:06Z</time>
      </trkpt>
      <trkpt lat="43.64128" lon="3.86244">
        <ele>77</ele>
        <time>2021-03-21T11:54:07Z</time>
      </trkpt>
      <trkpt lat="43.64128" lon="3.86248">
        <ele>77</ele>
        <time>2021-03-21T11:54:08Z</time>
      </trkpt>
      <trkpt lat="43.64127" lon="3.86252">
        <ele>77</ele>
        <time>2021-03-21T11:54:09Z</time>
      </trkpt>
      <trkpt lat="43.64126" lon="3.86257">
        <ele>77</ele>
        <time>2021-03-21T11:54:10Z</time>
      </trkpt>
      <trkpt lat="43.64125" lon="3.86261">
        <ele>77</ele>
        <time>2021-03-21T11:54:11Z</time>
      </trkpt>
      <trkpt lat="43.64124" lon="3.86266">
        <ele>77</ele>
        <time>2021-03-21T11:54:12Z</time>
      </trkpt>
      <trkpt lat="43.64122" lon="3.8627">
        <ele>77</ele>
        <time>2021-03-21T11:54:13Z</time>
      </trkpt>
      <trkpt lat="43.64122" lon="3.86274">
        <ele>77</ele>
        <time>2021-03-21T11:54:14Z</time>
      </trkpt>
      <trkpt lat="43.64121" lon="3.86278">
        <ele>77</ele>
        <time>2021-03-21T11:54:15Z</time>
      </trkpt>
      <trkpt lat="43.6412" lon="3.86282">
        <ele>77</ele>
        <time>2021-03-21T11:54:16Z</time>
      </trkpt>
      <trkpt lat="43.64119" lon="3.86286">
        <ele>77</ele>
        <time>2021-03-21T11:54:17Z</time>
      </trkpt>
      <trkpt lat="43.64118" lon="3.8629">
        <ele>77</ele>
        <time>2021-03-21T11:54:18Z</time>
      </trkpt>
      <trkpt lat="43.64117" lon="3.86294">
        <ele>77</ele>
        <time>2021-03-21T11:54:19Z</time>
      </trkpt>
      <trkpt lat="43.64116" lon="3.86299">
        <ele>77</ele>
        <time>2021-03-21T11:54:20Z</time>
      </trkpt>
      <trkpt lat="43.64115" lon="3.86303">
        <ele>77</ele>
        <time>2021-03-21T11:54:21Z</time>
      </trkpt>
      <trkpt lat="43.64115" lon="3.86307">
        <ele>77</ele>
        <time>2021-03-21T11:54:22Z</time>
      </trkpt>
      <trkpt lat="43.64115" lon="3.86311">
        <ele>77</ele>
        <time>2021-03-21T11:54:23Z</time>
      </trkpt>
      <trkpt lat="43.64114" lon="3.86316">
        <ele>77</ele>
        <time>2021-03-21T11:54:24Z</time>
      </trkpt>
      <trkpt lat="43.64113" lon="3.8632">
        <ele>77</ele>
        <time>2021-03-21T11:54:25Z</time>
      </trkpt>
      <trkpt lat="43.64111" lon="3.86324">
        <ele>77</ele>
        <time>2021-03-21T11:54:26Z</time>
      </trkpt>
      <trkpt lat="43.64109" lon="3.86327">
        <ele>77</ele>
        <time>2021-03-21T11:54:27Z</time>
      </trkpt>
      <trkpt lat="43.64106" lon="3.86328">
        <ele>77</ele>
        <time>2021-03-21T11:54:28Z</time>
      </trkpt>
      <trkpt lat="43.64104" lon="3.86331">
        <ele>76</ele>
        <time>2021-03-21T11:54:29Z</time>
      </trkpt>
      <trkpt lat="43.64102" lon="3.86335">
        <ele>76</ele>
        <time>2021-03-21T11:54:30Z</time>
      </trkpt>
      <trkpt lat="43.641" lon="3.86339">
        <ele>76</ele>
        <time>2021-03-21T11:54:31Z</time>
      </trkpt>
      <trkpt lat="43.64098" lon="3.86343">
        <ele>76</ele>
        <time>2021-03-21T11:54:32Z</time>
      </trkpt>
      <trkpt lat="43.64095" lon="3.86347">
        <ele>76</ele>
        <time>2021-03-21T11:54:33Z</time>
      </trkpt>
      <trkpt lat="43.64093" lon="3.86351">
        <ele>76</ele>
        <time>2021-03-21T11:54:34Z</time>
      </trkpt>
      <trkpt lat="43.6409" lon="3.86355">
        <ele>76</ele>
        <time>2021-03-21T11:54:35Z</time>
      </trkpt>
      <trkpt lat="43.64086" lon="3.86358">
        <ele>76</ele>
        <time>2021-03-21T11:54:36Z</time>
      </trkpt>
      <trkpt lat="43.64082" lon="3.86361">
        <ele>76</ele>
        <time>2021-03-21T11:54:37Z</time>
      </trkpt>
      <trkpt lat="43.64077" lon="3.86363">
        <ele>76</ele>
        <time>2021-03-21T11:54:38Z</time>
      </trkpt>
      <trkpt lat="43.64073" lon="3.86366">
        <ele>76</ele>
        <time>2021-03-21T11:54:39Z</time>
      </trkpt>
      <trkpt lat="43.64068" lon="3.86368">
        <ele>76</ele>
        <time>2021-03-21T11:54:40Z</time>
      </trkpt>
      <trkpt lat="43.64064" lon="3.86371">
        <ele>76</ele>
        <time>2021-03-21T11:54:41Z</time>
      </trkpt>
      <trkpt lat="43.64061" lon="3.86375">
        <ele>76</ele>
        <time>2021-03-21T11:54:42Z</time>
      </trkpt>
      <trkpt lat="43.64057" lon="3.86378">
        <ele>76</ele>
        <time>2021-03-21T11:54:43Z</time>
      </trkpt>
      <trkpt lat="43.64053" lon="3.86383">
        <ele>76</ele>
        <time>2021-03-21T11:54:44Z</time>
      </trkpt>
      <trkpt lat="43.6405" lon="3.86387">
        <ele>76</ele>
        <time>2021-03-21T11:54:45Z</time>
      </trkpt>
      <trkpt lat="43.64045" lon="3.86391">
        <ele>76</ele>
        <time>2021-03-21T11:54:46Z</time>
      </trkpt>
      <trkpt lat="43.64041" lon="3.86395">
        <ele>76</ele>
        <time>2021-03-21T11:54:47Z</time>
      </trkpt>
      <trkpt lat="43.64036" lon="3.86399">
        <ele>76</ele>
        <time>2021-03-21T11:54:48Z</time>
      </trkpt>
      <trkpt lat="43.64031" lon="3.86403">
        <ele>76</ele>
        <time>2021-03-21T11:54:49Z</time>
      </trkpt>
      <trkpt lat="43.64027" lon="3.86406">
        <ele>76</ele>
        <time>2021-03-21T11:54:50Z</time>
      </trkpt>
      <trkpt lat="43.64022" lon="3.8641">
        <ele>76</ele>
        <time>2021-03-21T11:54:51Z</time>
      </trkpt>
      <trkpt lat="43.64017" lon="3.86413">
        <ele>76</ele>
        <time>2021-03-21T11:54:52Z</time>
      </trkpt>
      <trkpt lat="43.64013" lon="3.86417">
        <ele>76</ele>
        <time>2021-03-21T11:54:53Z</time>
      </trkpt>
      <trkpt lat="43.64008" lon="3.86421">
        <ele>76</ele>
        <time>2021-03-21T11:54:54Z</time>
      </trkpt>
      <trkpt lat="43.64004" lon="3.86425">
        <ele>76</ele>
        <time>2021-03-21T11:54:55Z</time>
      </trkpt>
      <trkpt lat="43.64" lon="3.86429">
        <ele>76</ele>
        <time>2021-03-21T11:54:56Z</time>
      </trkpt>
      <trkpt lat="43.63995" lon="3.86433">
        <ele>76</ele>
        <time>2021-03-21T11:54:57Z</time>
      </trkpt>
      <trkpt lat="43.63991" lon="3.86437">
        <ele>76</ele>
        <time>2021-03-21T11:54:58Z</time>
      </trkpt>
      <trkpt lat="43.63986" lon="3.86441">
        <ele>76</ele>
        <time>2021-03-21T11:54:59Z</time>
      </trkpt>
      <trkpt lat="43.63982" lon="3.86444">
        <ele>76</ele>
        <time>2021-03-21T11:55:00Z</time>
      </trkpt>
      <trkpt lat="43.63978" lon="3.86448">
        <ele>76</ele>
        <time>2021-03-21T11:55:01Z</time>
      </trkpt>
      <trkpt lat="43.63973" lon="3.86452">
        <ele>76</ele>
        <time>2021-03-21T11:55:02Z</time>
      </trkpt>
      <trkpt lat="43.63968" lon="3.86456">
        <ele>76</ele>
        <time>2021-03-21T11:55:03Z</time>
      </trkpt>
      <trkpt lat="43.63964" lon="3.8646">
        <ele>76</ele>
        <time>2021-03-21T11:55:04Z</time>
      </trkpt>
      <trkpt lat="43.63959" lon="3.86464">
        <ele>76</ele>
        <time>2021-03-21T11:55:05Z</time>
      </trkpt>
      <trkpt lat="43.63954" lon="3.86468">
        <ele>76</ele>
        <time>2021-03-21T11:55:06Z</time>
      </trkpt>
      <trkpt lat="43.63949" lon="3.86473">
        <ele>76</ele>
        <time>2021-03-21T11:55:07Z</time>
      </trkpt>
      <trkpt lat="43.63944" lon="3.86477">
        <ele>76</ele>
        <time>2021-03-21T11:55:08Z</time>
      </trkpt>
      <trkpt lat="43.63939" lon="3.86482">
        <ele>75</ele>
        <time>2021-03-21T11:55:09Z</time>
      </trkpt>
      <trkpt lat="43.63935" lon="3.86487">
        <ele>75</ele>
        <time>2021-03-21T11:55:10Z</time>
      </trkpt>
      <trkpt lat="43.6393" lon="3.86492">
        <ele>75</ele>
        <time>2021-03-21T11:55:11Z</time>
      </trkpt>
      <trkpt lat="43.63925" lon="3.86496">
        <ele>75</ele>
        <time>2021-03-21T11:55:12Z</time>
      </trkpt>
      <trkpt lat="43.63919" lon="3.86501">
        <ele>75</ele>
        <time>2021-03-21T11:55:13Z</time>
      </trkpt>
      <trkpt lat="43.63914" lon="3.86505">
        <ele>75</ele>
        <time>2021-03-21T11:55:14Z</time>
      </trkpt>
      <trkpt lat="43.6391" lon="3.8651">
        <ele>75</ele>
        <time>2021-03-21T11:55:15Z</time>
      </trkpt>
      <trkpt lat="43.63905" lon="3.86515">
        <ele>75</ele>
        <time>2021-03-21T11:55:16Z</time>
      </trkpt>
      <trkpt lat="43.639" lon="3.86519">
        <ele>75</ele>
        <time>2021-03-21T11:55:17Z</time>
      </trkpt>
      <trkpt lat="43.63895" lon="3.86524">
        <ele>75</ele>
        <time>2021-03-21T11:55:18Z</time>
      </trkpt>
      <trkpt lat="43.63889" lon="3.86529">
        <ele>74</ele>
        <time>2021-03-21T11:55:19Z</time>
      </trkpt>
      <trkpt lat="43.63884" lon="3.86533">
        <ele>74</ele>
        <time>2021-03-21T11:55:20Z</time>
      </trkpt>
      <trkpt lat="43.63879" lon="3.86538">
        <ele>74</ele>
        <time>2021-03-21T11:55:21Z</time>
      </trkpt>
      <trkpt lat="43.63873" lon="3.86543">
        <ele>74</ele>
        <time>2021-03-21T11:55:22Z</time>
      </trkpt>
      <trkpt lat="43.63868" lon="3.86547">
        <ele>74</ele>
        <time>2021-03-21T11:55:23Z</time>
      </trkpt>
      <trkpt lat="43.63863" lon="3.86552">
        <ele>74</ele>
        <time>2021-03-21T11:55:24Z</time>
      </trkpt>
      <trkpt lat="43.63858" lon="3.86556">
        <ele>74</ele>
        <time>2021-03-21T11:55:25Z</time>
      </trkpt>
      <trkpt lat="43.63853" lon="3.8656">
        <ele>74</ele>
        <time>2021-03-21T11:55:26Z</time>
      </trkpt>
      <trkpt lat="43.63847" lon="3.86564">
        <ele>74</ele>
        <time>2021-03-21T11:55:27Z</time>
      </trkpt>
      <trkpt lat="43.63842" lon="3.86569">
        <ele>74</ele>
        <time>2021-03-21T11:55:28Z</time>
      </trkpt>
      <trkpt lat="43.63837" lon="3.86573">
        <ele>73</ele>
        <time>2021-03-21T11:55:29Z</time>
      </trkpt>
      <trkpt lat="43.63832" lon="3.86578">
        <ele>73</ele>
        <time>2021-03-21T11:55:30Z</time>
      </trkpt>
      <trkpt lat="43.63827" lon="3.86582">
        <ele>73</ele>
        <time>2021-03-21T11:55:31Z</time>
      </trkpt>
      <trkpt lat="43.63823" lon="3.86587">
        <ele>73</ele>
        <time>2021-03-21T11:55:32Z</time>
      </trkpt>
      <trkpt lat="43.63818" lon="3.86592">
        <ele>73</ele>
        <time>2021-03-21T11:55:33Z</time>
      </trkpt>
      <trkpt lat="43.63813" lon="3.86596">
        <ele>73</ele>
        <time>2021-03-21T11:55:34Z</time>
      </trkpt>
      <trkpt lat="43.63809" lon="3.86601">
        <ele>73</ele>
        <time>2021-03-21T11:55:35Z</time>
      </trkpt>
      <trkpt lat="43.63804" lon="3.86605">
        <ele>73</ele>
        <time>2021-03-21T11:55:36Z</time>
      </trkpt>
      <trkpt lat="43.63799" lon="3.86609">
        <ele>73</ele>
        <time>2021-03-21T11:55:37Z</time>
      </trkpt>
      <trkpt lat="43.63795" lon="3.86613">
        <ele>73</ele>
        <time>2021-03-21T11:55:38Z</time>
      </trkpt>
      <trkpt lat="43.6379" lon="3.86617">
        <ele>71</ele>
        <time>2021-03-21T11:55:39Z</time>
      </trkpt>
      <trkpt lat="43.63785" lon="3.86621">
        <ele>71</ele>
        <time>2021-03-21T11:55:40Z</time>
      </trkpt>
      <trkpt lat="43.6378" lon="3.86625">
        <ele>71</ele>
        <time>2021-03-21T11:55:41Z</time>
      </trkpt>
      <trkpt lat="43.63774" lon="3.8663">
        <ele>71</ele>
        <time>2021-03-21T11:55:42Z</time>
      </trkpt>
      <trkpt lat="43.63769" lon="3.86634">
        <ele>71</ele>
        <time>2021-03-21T11:55:43Z</time>
      </trkpt>
      <trkpt lat="43.63764" lon="3.86639">
        <ele>71</ele>
        <time>2021-03-21T11:55:44Z</time>
      </trkpt>
      <trkpt lat="43.63758" lon="3.86645">
        <ele>71</ele>
        <time>2021-03-21T11:55:45Z</time>
      </trkpt>
      <trkpt lat="43.63752" lon="3.86652">
        <ele>71</ele>
        <time>2021-03-21T11:55:46Z</time>
      </trkpt>
      <trkpt lat="43.63747" lon="3.86656">
        <ele>71</ele>
        <time>2021-03-21T11:55:47Z</time>
      </trkpt>
      <trkpt lat="43.63742" lon="3.86661">
        <ele>71</ele>
        <time>2021-03-21T11:55:48Z</time>
      </trkpt>
      <trkpt lat="43.63736" lon="3.86667">
        <ele>71</ele>
        <time>2021-03-21T11:55:49Z</time>
      </trkpt>
      <trkpt lat="43.63731" lon="3.86674">
        <ele>71</ele>
        <time>2021-03-21T11:55:50Z</time>
      </trkpt>
      <trkpt lat="43.63726" lon="3.86679">
        <ele>71</ele>
        <time>2021-03-21T11:55:51Z</time>
      </trkpt>
      <trkpt lat="43.6372" lon="3.86684">
        <ele>71</ele>
        <time>2021-03-21T11:55:52Z</time>
      </trkpt>
      <trkpt lat="43.63715" lon="3.86689">
        <ele>71</ele>
        <time>2021-03-21T11:55:53Z</time>
      </trkpt>
      <trkpt lat="43.63709" lon="3.86693">
        <ele>71</ele>
        <time>2021-03-21T11:55:54Z</time>
      </trkpt>
      <trkpt lat="43.63704" lon="3.86697">
        <ele>71</ele>
        <time>2021-03-21T11:55:55Z</time>
      </trkpt>
      <trkpt lat="43.63699" lon="3.86701">
        <ele>71</ele>
        <time>2021-03-21T11:55:56Z</time>
      </trkpt>
      <trkpt lat="43.63694" lon="3.86706">
        <ele>71</ele>
        <time>2021-03-21T11:55:57Z</time>
      </trkpt>
      <trkpt lat="43.6369" lon="3.8671">
        <ele>71</ele>
        <time>2021-03-21T11:55:58Z</time>
      </trkpt>
      <trkpt lat="43.63686" lon="3.86715">
        <ele>68</ele>
        <time>2021-03-21T11:55:59Z</time>
      </trkpt>
      <trkpt lat="43.63682" lon="3.86718">
        <ele>68</ele>
        <time>2021-03-21T11:56:00Z</time>
      </trkpt>
      <trkpt lat="43.63678" lon="3.86721">
        <ele>68</ele>
        <time>2021-03-21T11:56:01Z</time>
      </trkpt>
      <trkpt lat="43.63676" lon="3.86723">
        <ele>68</ele>
        <time>2021-03-21T11:56:02Z</time>
      </trkpt>
      <trkpt lat="43.63674" lon="3.86725">
        <ele>68</ele>
        <time>2021-03-21T11:56:03Z</time>
      </trkpt>
      <trkpt lat="43.63672" lon="3.86728">
        <ele>68</ele>
        <time>2021-03-21T11:56:04Z</time>
      </trkpt>
      <trkpt lat="43.6367" lon="3.8673">
        <ele>68</ele>
        <time>2021-03-21T11:56:05Z</time>
      </trkpt>
      <trkpt lat="43.63668" lon="3.86732">
        <ele>68</ele>
        <time>2021-03-21T11:56:06Z</time>
      </trkpt>
      <trkpt lat="43.63666" lon="3.86733">
        <ele>68</ele>
        <time>2021-03-21T11:56:07Z</time>
      </trkpt>
      <trkpt lat="43.63663" lon="3.86735">
        <ele>65</ele>
        <time>2021-03-21T11:56:09Z</time>
      </trkpt>
      <trkpt lat="43.63661" lon="3.86737">
        <ele>65</ele>
        <time>2021-03-21T11:56:11Z</time>
      </trkpt>
      <trkpt lat="43.63659" lon="3.8674">
        <ele>65</ele>
        <time>2021-03-21T11:56:13Z</time>
      </trkpt>
      <trkpt lat="43.63657" lon="3.86742">
        <ele>65</ele>
        <time>2021-03-21T11:56:16Z</time>
      </trkpt>
      <trkpt lat="43.63655" lon="3.86744">
        <ele>63</ele>
        <time>2021-03-21T11:56:19Z</time>
      </trkpt>
      <trkpt lat="43.63654" lon="3.86745">
        <ele>63</ele>
        <time>2021-03-21T11:56:31Z</time>
      </trkpt>
      <trkpt lat="43.63641" lon="3.86754">
        <ele>63</ele>
        <time>2021-03-21T11:56:54Z</time>
      </trkpt>
      <trkpt lat="43.63639" lon="3.86756">
        <ele>63</ele>
        <time>2021-03-21T11:56:55Z</time>
      </trkpt>
      <trkpt lat="43.63637" lon="3.86758">
        <ele>63</ele>
        <time>2021-03-21T11:56:56Z</time>
      </trkpt>
      <trkpt lat="43.63634" lon="3.8676">
        <ele>63</ele>
        <time>2021-03-21T11:56:57Z</time>
      </trkpt>
      <trkpt lat="43.63632" lon="3.86762">
        <ele>63</ele>
        <time>2021-03-21T11:56:58Z</time>
      </trkpt>
      <trkpt lat="43.63629" lon="3.86765">
        <ele>63</ele>
        <time>2021-03-21T11:56:59Z</time>
      </trkpt>
      <trkpt lat="43.63626" lon="3.86768">
        <ele>63</ele>
        <time>2021-03-21T11:57:00Z</time>
      </trkpt>
      <trkpt lat="43.63623" lon="3.86769">
        <ele>63</ele>
        <time>2021-03-21T11:57:01Z</time>
      </trkpt>
      <trkpt lat="43.63619" lon="3.86771">
        <ele>63</ele>
        <time>2021-03-21T11:57:02Z</time>
      </trkpt>
      <trkpt lat="43.63617" lon="3.86773">
        <ele>63</ele>
        <time>2021-03-21T11:57:03Z</time>
      </trkpt>
      <trkpt lat="43.63614" lon="3.86776">
        <ele>64</ele>
        <time>2021-03-21T11:57:04Z</time>
      </trkpt>
      <trkpt lat="43.63611" lon="3.86779">
        <ele>64</ele>
        <time>2021-03-21T11:57:05Z</time>
      </trkpt>
      <trkpt lat="43.63608" lon="3.86781">
        <ele>64</ele>
        <time>2021-03-21T11:57:06Z</time>
      </trkpt>
      <trkpt lat="43.63605" lon="3.86784">
        <ele>64</ele>
        <time>2021-03-21T11:57:07Z</time>
      </trkpt>
      <trkpt lat="43.63601" lon="3.86787">
        <ele>64</ele>
        <time>2021-03-21T11:57:08Z</time>
      </trkpt>
      <trkpt lat="43.63598" lon="3.86789">
        <ele>64</ele>
        <time>2021-03-21T11:57:09Z</time>
      </trkpt>
      <trkpt lat="43.63595" lon="3.86791">
        <ele>64</ele>
        <time>2021-03-21T11:57:10Z</time>
      </trkpt>
      <trkpt lat="43.63592" lon="3.86792">
        <ele>64</ele>
        <time>2021-03-21T11:57:11Z</time>
      </trkpt>
      <trkpt lat="43.63589" lon="3.86794">
        <ele>64</ele>
        <time>2021-03-21T11:57:12Z</time>
      </trkpt>
      <trkpt lat="43.63586" lon="3.86795">
        <ele>64</ele>
        <time>2021-03-21T11:57:13Z</time>
      </trkpt>
      <trkpt lat="43.63583" lon="3.86797">
        <ele>63</ele>
        <time>2021-03-21T11:57:14Z</time>
      </trkpt>
      <trkpt lat="43.6358" lon="3.86799">
        <ele>63</ele>
        <time>2021-03-21T11:57:15Z</time>
      </trkpt>
      <trkpt lat="43.63576" lon="3.86801">
        <ele>63</ele>
        <time>2021-03-21T11:57:16Z</time>
      </trkpt>
      <trkpt lat="43.63573" lon="3.86803">
        <ele>63</ele>
        <time>2021-03-21T11:57:17Z</time>
      </trkpt>
      <trkpt lat="43.6357" lon="3.86806">
        <ele>63</ele>
        <time>2021-03-21T11:57:18Z</time>
      </trkpt>
      <trkpt lat="43.63566" lon="3.86808">
        <ele>63</ele>
        <time>2021-03-21T11:57:19Z</time>
      </trkpt>
      <trkpt lat="43.63563" lon="3.8681">
        <ele>63</ele>
        <time>2021-03-21T11:57:20Z</time>
      </trkpt>
      <trkpt lat="43.6356" lon="3.86812">
        <ele>63</ele>
        <time>2021-03-21T11:57:21Z</time>
      </trkpt>
      <trkpt lat="43.63557" lon="3.86813">
        <ele>63</ele>
        <time>2021-03-21T11:57:22Z</time>
      </trkpt>
      <trkpt lat="43.63553" lon="3.86815">
        <ele>63</ele>
        <time>2021-03-21T11:57:23Z</time>
      </trkpt>
      <trkpt lat="43.6355" lon="3.86816">
        <ele>64</ele>
        <time>2021-03-21T11:57:24Z</time>
      </trkpt>
      <trkpt lat="43.63547" lon="3.86818">
        <ele>64</ele>
        <time>2021-03-21T11:57:25Z</time>
      </trkpt>
      <trkpt lat="43.63544" lon="3.86819">
        <ele>64</ele>
        <time>2021-03-21T11:57:26Z</time>
      </trkpt>
      <trkpt lat="43.6354" lon="3.86819">
        <ele>64</ele>
        <time>2021-03-21T11:57:27Z</time>
      </trkpt>
      <trkpt lat="43.63537" lon="3.86819">
        <ele>64</ele>
        <time>2021-03-21T11:57:28Z</time>
      </trkpt>
      <trkpt lat="43.63533" lon="3.8682">
        <ele>64</ele>
        <time>2021-03-21T11:57:29Z</time>
      </trkpt>
      <trkpt lat="43.6353" lon="3.8682">
        <ele>64</ele>
        <time>2021-03-21T11:57:30Z</time>
      </trkpt>
      <trkpt lat="43.63527" lon="3.8682">
        <ele>64</ele>
        <time>2021-03-21T11:57:31Z</time>
      </trkpt>
      <trkpt lat="43.63524" lon="3.8682">
        <ele>64</ele>
        <time>2021-03-21T11:57:32Z</time>
      </trkpt>
      <trkpt lat="43.63521" lon="3.8682">
        <ele>64</ele>
        <time>2021-03-21T11:57:33Z</time>
      </trkpt>
      <trkpt lat="43.63518" lon="3.86819">
        <ele>64</ele>
        <time>2021-03-21T11:57:34Z</time>
      </trkpt>
      <trkpt lat="43.63515" lon="3.86819">
        <ele>64</ele>
        <time>2021-03-21T11:57:35Z</time>
      </trkpt>
      <trkpt lat="43.63512" lon="3.86818">
        <ele>64</ele>
        <time>2021-03-21T11:57:36Z</time>
      </trkpt>
      <trkpt lat="43.63508" lon="3.86818">
        <ele>64</ele>
        <time>2021-03-21T11:57:37Z</time>
      </trkpt>
      <trkpt lat="43.63505" lon="3.86818">
        <ele>64</ele>
        <time>2021-03-21T11:57:38Z</time>
      </trkpt>
      <trkpt lat="43.63502" lon="3.86818">
        <ele>64</ele>
        <time>2021-03-21T11:57:39Z</time>
      </trkpt>
      <trkpt lat="43.63499" lon="3.86817">
        <ele>64</ele>
        <time>2021-03-21T11:57:40Z</time>
      </trkpt>
      <trkpt lat="43.63495" lon="3.86816">
        <ele>64</ele>
        <time>2021-03-21T11:57:41Z</time>
      </trkpt>
      <trkpt lat="43.63492" lon="3.86816">
        <ele>64</ele>
        <time>2021-03-21T11:57:42Z</time>
      </trkpt>
      <trkpt lat="43.63489" lon="3.86815">
        <ele>62</ele>
        <time>2021-03-21T11:57:43Z</time>
      </trkpt>
      <trkpt lat="43.63485" lon="3.86813">
        <ele>62</ele>
        <time>2021-03-21T11:57:44Z</time>
      </trkpt>
      <trkpt lat="43.63481" lon="3.86811">
        <ele>62</ele>
        <time>2021-03-21T11:57:45Z</time>
      </trkpt>
      <trkpt lat="43.63478" lon="3.86809">
        <ele>62</ele>
        <time>2021-03-21T11:57:46Z</time>
      </trkpt>
      <trkpt lat="43.63475" lon="3.86806">
        <ele>62</ele>
        <time>2021-03-21T11:57:47Z</time>
      </trkpt>
      <trkpt lat="43.63471" lon="3.86804">
        <ele>62</ele>
        <time>2021-03-21T11:57:48Z</time>
      </trkpt>
      <trkpt lat="43.63467" lon="3.86804">
        <ele>62</ele>
        <time>2021-03-21T11:57:49Z</time>
      </trkpt>
      <trkpt lat="43.63463" lon="3.86806">
        <ele>62</ele>
        <time>2021-03-21T11:57:50Z</time>
      </trkpt>
      <trkpt lat="43.6346" lon="3.86808">
        <ele>62</ele>
        <time>2021-03-21T11:57:51Z</time>
      </trkpt>
      <trkpt lat="43.63456" lon="3.86811">
        <ele>62</ele>
        <time>2021-03-21T11:57:52Z</time>
      </trkpt>
      <trkpt lat="43.63452" lon="3.86813">
        <ele>61</ele>
        <time>2021-03-21T11:57:53Z</time>
      </trkpt>
      <trkpt lat="43.63448" lon="3.86813">
        <ele>61</ele>
        <time>2021-03-21T11:57:54Z</time>
      </trkpt>
      <trkpt lat="43.63444" lon="3.86813">
        <ele>61</ele>
        <time>2021-03-21T11:57:55Z</time>
      </trkpt>
      <trkpt lat="43.6344" lon="3.86812">
        <ele>61</ele>
        <time>2021-03-21T11:57:56Z</time>
      </trkpt>
      <trkpt lat="43.63436" lon="3.86811">
        <ele>61</ele>
        <time>2021-03-21T11:57:57Z</time>
      </trkpt>
      <trkpt lat="43.63432" lon="3.8681">
        <ele>61</ele>
        <time>2021-03-21T11:57:58Z</time>
      </trkpt>
      <trkpt lat="43.63428" lon="3.86809">
        <ele>61</ele>
        <time>2021-03-21T11:57:59Z</time>
      </trkpt>
      <trkpt lat="43.63424" lon="3.86808">
        <ele>61</ele>
        <time>2021-03-21T11:58:00Z</time>
      </trkpt>
      <trkpt lat="43.6342" lon="3.86806">
        <ele>61</ele>
        <time>2021-03-21T11:58:01Z</time>
      </trkpt>
      <trkpt lat="43.63415" lon="3.86805">
        <ele>61</ele>
        <time>2021-03-21T11:58:02Z</time>
      </trkpt>
      <trkpt lat="43.63411" lon="3.86804">
        <ele>61</ele>
        <time>2021-03-21T11:58:03Z</time>
      </trkpt>
      <trkpt lat="43.63408" lon="3.86803">
        <ele>62</ele>
        <time>2021-03-21T11:58:04Z</time>
      </trkpt>
      <trkpt lat="43.63404" lon="3.86803">
        <ele>62</ele>
        <time>2021-03-21T11:58:05Z</time>
      </trkpt>
      <trkpt lat="43.634" lon="3.86802">
        <ele>62</ele>
        <time>2021-03-21T11:58:06Z</time>
      </trkpt>
      <trkpt lat="43.63396" lon="3.86801">
        <ele>62</ele>
        <time>2021-03-21T11:58:07Z</time>
      </trkpt>
      <trkpt lat="43.63392" lon="3.868">
        <ele>62</ele>
        <time>2021-03-21T11:58:08Z</time>
      </trkpt>
      <trkpt lat="43.63388" lon="3.86799">
        <ele>62</ele>
        <time>2021-03-21T11:58:09Z</time>
      </trkpt>
      <trkpt lat="43.63385" lon="3.86798">
        <ele>62</ele>
        <time>2021-03-21T11:58:10Z</time>
      </trkpt>
      <trkpt lat="43.63381" lon="3.86798">
        <ele>62</ele>
        <time>2021-03-21T11:58:11Z</time>
      </trkpt>
      <trkpt lat="43.63378" lon="3.86797">
        <ele>62</ele>
        <time>2021-03-21T11:58:12Z</time>
      </trkpt>
      <trkpt lat="43.63375" lon="3.86795">
        <ele>62</ele>
        <time>2021-03-21T11:58:13Z</time>
      </trkpt>
      <trkpt lat="43.63371" lon="3.86793">
        <ele>62</ele>
        <time>2021-03-21T11:58:14Z</time>
      </trkpt>
      <trkpt lat="43.63368" lon="3.86791">
        <ele>62</ele>
        <time>2021-03-21T11:58:15Z</time>
      </trkpt>
      <trkpt lat="43.63365" lon="3.86789">
        <ele>62</ele>
        <time>2021-03-21T11:58:16Z</time>
      </trkpt>
      <trkpt lat="43.63362" lon="3.86788">
        <ele>62</ele>
        <time>2021-03-21T11:58:17Z</time>
      </trkpt>
      <trkpt lat="43.63358" lon="3.86787">
        <ele>62</ele>
        <time>2021-03-21T11:58:18Z</time>
      </trkpt>
      <trkpt lat="43.63355" lon="3.86786">
        <ele>62</ele>
        <time>2021-03-21T11:58:19Z</time>
      </trkpt>
      <trkpt lat="43.63351" lon="3.86786">
        <ele>62</ele>
        <time>2021-03-21T11:58:20Z</time>
      </trkpt>
      <trkpt lat="43.63347" lon="3.86785">
        <ele>62</ele>
        <time>2021-03-21T11:58:21Z</time>
      </trkpt>
      <trkpt lat="43.63343" lon="3.86785">
        <ele>62</ele>
        <time>2021-03-21T11:58:22Z</time>
      </trkpt>
      <trkpt lat="43.63339" lon="3.86785">
        <ele>61</ele>
        <time>2021-03-21T11:58:23Z</time>
      </trkpt>
      <trkpt lat="43.63335" lon="3.86785">
        <ele>61</ele>
        <time>2021-03-21T11:58:24Z</time>
      </trkpt>
      <trkpt lat="43.63331" lon="3.86785">
        <ele>61</ele>
        <time>2021-03-21T11:58:25Z</time>
      </trkpt>
      <trkpt lat="43.63327" lon="3.86785">
        <ele>61</ele>
        <time>2021-03-21T11:58:26Z</time>
      </trkpt>
      <trkpt lat="43.63322" lon="3.86785">
        <ele>61</ele>
        <time>2021-03-21T11:58:28Z</time>
      </trkpt>
      <trkpt lat="43.63313" lon="3.86785">
        <ele>61</ele>
        <time>2021-03-21T11:58:29Z</time>
      </trkpt>
      <trkpt lat="43.63308" lon="3.86786">
        <ele>61</ele>
        <time>2021-03-21T11:58:31Z</time>
      </trkpt>
      <trkpt lat="43.63298" lon="3.86787">
        <ele>61</ele>
        <time>2021-03-21T11:58:32Z</time>
      </trkpt>
      <trkpt lat="43.63293" lon="3.86787">
        <ele>61</ele>
        <time>2021-03-21T11:58:33Z</time>
      </trkpt>
      <trkpt lat="43.63288" lon="3.86788">
        <ele>60</ele>
        <time>2021-03-21T11:58:34Z</time>
      </trkpt>
      <trkpt lat="43.63282" lon="3.86789">
        <ele>60</ele>
        <time>2021-03-21T11:58:35Z</time>
      </trkpt>
      <trkpt lat="43.63277" lon="3.86791">
        <ele>60</ele>
        <time>2021-03-21T11:58:36Z</time>
      </trkpt>
      <trkpt lat="43.63272" lon="3.86792">
        <ele>60</ele>
        <time>2021-03-21T11:58:37Z</time>
      </trkpt>
      <trkpt lat="43.63266" lon="3.86794">
        <ele>60</ele>
        <time>2021-03-21T11:58:38Z</time>
      </trkpt>
      <trkpt lat="43.6326" lon="3.86796">
        <ele>60</ele>
        <time>2021-03-21T11:58:39Z</time>
      </trkpt>
      <trkpt lat="43.63254" lon="3.86799">
        <ele>60</ele>
        <time>2021-03-21T11:58:40Z</time>
      </trkpt>
      <trkpt lat="43.63248" lon="3.86801">
        <ele>60</ele>
        <time>2021-03-21T11:58:41Z</time>
      </trkpt>
      <trkpt lat="43.63242" lon="3.86804">
        <ele>60</ele>
        <time>2021-03-21T11:58:42Z</time>
      </trkpt>
      <trkpt lat="43.63236" lon="3.86807">
        <ele>60</ele>
        <time>2021-03-21T11:58:43Z</time>
      </trkpt>
      <trkpt lat="43.6323" lon="3.8681">
        <ele>59</ele>
        <time>2021-03-21T11:58:44Z</time>
      </trkpt>
      <trkpt lat="43.63225" lon="3.86813">
        <ele>59</ele>
        <time>2021-03-21T11:58:45Z</time>
      </trkpt>
      <trkpt lat="43.63219" lon="3.86816">
        <ele>59</ele>
        <time>2021-03-21T11:58:46Z</time>
      </trkpt>
      <trkpt lat="43.63214" lon="3.86819">
        <ele>59</ele>
        <time>2021-03-21T11:58:47Z</time>
      </trkpt>
      <trkpt lat="43.63209" lon="3.86822">
        <ele>59</ele>
        <time>2021-03-21T11:58:48Z</time>
      </trkpt>
      <trkpt lat="43.63203" lon="3.86826">
        <ele>59</ele>
        <time>2021-03-21T11:58:49Z</time>
      </trkpt>
      <trkpt lat="43.63198" lon="3.8683">
        <ele>59</ele>
        <time>2021-03-21T11:58:50Z</time>
      </trkpt>
      <trkpt lat="43.63194" lon="3.86833">
        <ele>59</ele>
        <time>2021-03-21T11:58:51Z</time>
      </trkpt>
      <trkpt lat="43.63189" lon="3.86837">
        <ele>59</ele>
        <time>2021-03-21T11:58:52Z</time>
      </trkpt>
      <trkpt lat="43.63184" lon="3.86841">
        <ele>59</ele>
        <time>2021-03-21T11:58:53Z</time>
      </trkpt>
      <trkpt lat="43.6318" lon="3.86844">
        <ele>59</ele>
        <time>2021-03-21T11:58:54Z</time>
      </trkpt>
      <trkpt lat="43.63175" lon="3.86848">
        <ele>59</ele>
        <time>2021-03-21T11:58:55Z</time>
      </trkpt>
      <trkpt lat="43.63171" lon="3.86851">
        <ele>59</ele>
        <time>2021-03-21T11:58:56Z</time>
      </trkpt>
      <trkpt lat="43.63167" lon="3.86854">
        <ele>59</ele>
        <time>2021-03-21T11:58:57Z</time>
      </trkpt>
      <trkpt lat="43.63163" lon="3.86857">
        <ele>59</ele>
        <time>2021-03-21T11:58:58Z</time>
      </trkpt>
      <trkpt lat="43.63159" lon="3.8686">
        <ele>59</ele>
        <time>2021-03-21T11:58:59Z</time>
      </trkpt>
      <trkpt lat="43.63155" lon="3.86863">
        <ele>59</ele>
        <time>2021-03-21T11:59:00Z</time>
      </trkpt>
      <trkpt lat="43.63151" lon="3.86866">
        <ele>59</ele>
        <time>2021-03-21T11:59:01Z</time>
      </trkpt>
      <trkpt lat="43.63147" lon="3.86869">
        <ele>59</ele>
        <time>2021-03-21T11:59:02Z</time>
      </trkpt>
      <trkpt lat="43.63143" lon="3.86872">
        <ele>59</ele>
        <time>2021-03-21T11:59:03Z</time>
      </trkpt>
      <trkpt lat="43.63139" lon="3.86875">
        <ele>58</ele>
        <time>2021-03-21T11:59:04Z</time>
      </trkpt>
      <trkpt lat="43.63135" lon="3.86878">
        <ele>58</ele>
        <time>2021-03-21T11:59:05Z</time>
      </trkpt>
      <trkpt lat="43.63131" lon="3.86881">
        <ele>58</ele>
        <time>2021-03-21T11:59:06Z</time>
      </trkpt>
      <trkpt lat="43.63127" lon="3.86883">
        <ele>58</ele>
        <time>2021-03-21T11:59:07Z</time>
      </trkpt>
      <trkpt lat="43.63123" lon="3.86886">
        <ele>58</ele>
        <time>2021-03-21T11:59:08Z</time>
      </trkpt>
      <trkpt lat="43.63119" lon="3.86889">
        <ele>58</ele>
        <time>2021-03-21T11:59:09Z</time>
      </trkpt>
      <trkpt lat="43.63115" lon="3.86892">
        <ele>58</ele>
        <time>2021-03-21T11:59:10Z</time>
      </trkpt>
      <trkpt lat="43.63111" lon="3.86895">
        <ele>58</ele>
        <time>2021-03-21T11:59:11Z</time>
      </trkpt>
      <trkpt lat="43.63107" lon="3.86898">
        <ele>58</ele>
        <time>2021-03-21T11:59:12Z</time>
      </trkpt>
      <trkpt lat="43.63103" lon="3.869">
        <ele>58</ele>
        <time>2021-03-21T11:59:13Z</time>
      </trkpt>
      <trkpt lat="43.63099" lon="3.86903">
        <ele>57</ele>
        <time>2021-03-21T11:59:14Z</time>
      </trkpt>
      <trkpt lat="43.63095" lon="3.86906">
        <ele>57</ele>
        <time>2021-03-21T11:59:15Z</time>
      </trkpt>
      <trkpt lat="43.63091" lon="3.86909">
        <ele>57</ele>
        <time>2021-03-21T11:59:16Z</time>
      </trkpt>
      <trkpt lat="43.63087" lon="3.86912">
        <ele>57</ele>
        <time>2021-03-21T11:59:17Z</time>
      </trkpt>
      <trkpt lat="43.63083" lon="3.86915">
        <ele>57</ele>
        <time>2021-03-21T11:59:18Z</time>
      </trkpt>
      <trkpt lat="43.63079" lon="3.86918">
        <ele>57</ele>
        <time>2021-03-21T11:59:19Z</time>
      </trkpt>
      <trkpt lat="43.63074" lon="3.86921">
        <ele>57</ele>
        <time>2021-03-21T11:59:20Z</time>
      </trkpt>
      <trkpt lat="43.6307" lon="3.86924">
        <ele>57</ele>
        <time>2021-03-21T11:59:21Z</time>
      </trkpt>
      <trkpt lat="43.63066" lon="3.86927">
        <ele>57</ele>
        <time>2021-03-21T11:59:22Z</time>
      </trkpt>
      <trkpt lat="43.63062" lon="3.86929">
        <ele>58</ele>
        <time>2021-03-21T11:59:23Z</time>
      </trkpt>
      <trkpt lat="43.63058" lon="3.86932">
        <ele>58</ele>
        <time>2021-03-21T11:59:24Z</time>
      </trkpt>
      <trkpt lat="43.63054" lon="3.86935">
        <ele>58</ele>
        <time>2021-03-21T11:59:25Z</time>
      </trkpt>
      <trkpt lat="43.63049" lon="3.86937">
        <ele>58</ele>
        <time>2021-03-21T11:59:26Z</time>
      </trkpt>
      <trkpt lat="43.63045" lon="3.8694">
        <ele>58</ele>
        <time>2021-03-21T11:59:27Z</time>
      </trkpt>
      <trkpt lat="43.63041" lon="3.86942">
        <ele>58</ele>
        <time>2021-03-21T11:59:28Z</time>
      </trkpt>
      <trkpt lat="43.63037" lon="3.86945">
        <ele>58</ele>
        <time>2021-03-21T11:59:29Z</time>
      </trkpt>
      <trkpt lat="43.63033" lon="3.86947">
        <ele>58</ele>
        <time>2021-03-21T11:59:30Z</time>
      </trkpt>
      <trkpt lat="43.63029" lon="3.86949">
        <ele>58</ele>
        <time>2021-03-21T11:59:31Z</time>
      </trkpt>
      <trkpt lat="43.63025" lon="3.86951">
        <ele>58</ele>
        <time>2021-03-21T11:59:32Z</time>
      </trkpt>
      <trkpt lat="43.63021" lon="3.86953">
        <ele>58</ele>
        <time>2021-03-21T11:59:33Z</time>
      </trkpt>
      <trkpt lat="43.63018" lon="3.86955">
        <ele>59</ele>
        <time>2021-03-21T11:59:34Z</time>
      </trkpt>
      <trkpt lat="43.63014" lon="3.86957">
        <ele>59</ele>
        <time>2021-03-21T11:59:35Z</time>
      </trkpt>
      <trkpt lat="43.63011" lon="3.86959">
        <ele>59</ele>
        <time>2021-03-21T11:59:36Z</time>
      </trkpt>
      <trkpt lat="43.63007" lon="3.86961">
        <ele>59</ele>
        <time>2021-03-21T11:59:37Z</time>
      </trkpt>
      <trkpt lat="43.63003" lon="3.86962">
        <ele>59</ele>
        <time>2021-03-21T11:59:38Z</time>
      </trkpt>
      <trkpt lat="43.63" lon="3.86964">
        <ele>59</ele>
        <time>2021-03-21T11:59:39Z</time>
      </trkpt>
      <trkpt lat="43.62996" lon="3.86966">
        <ele>59</ele>
        <time>2021-03-21T11:59:40Z</time>
      </trkpt>
      <trkpt lat="43.62992" lon="3.86967">
        <ele>59</ele>
        <time>2021-03-21T11:59:41Z</time>
      </trkpt>
      <trkpt lat="43.62988" lon="3.86969">
        <ele>59</ele>
        <time>2021-03-21T11:59:42Z</time>
      </trkpt>
      <trkpt lat="43.62985" lon="3.8697">
        <ele>60</ele>
        <time>2021-03-21T11:59:43Z</time>
      </trkpt>
      <trkpt lat="43.62981" lon="3.86971">
        <ele>60</ele>
        <time>2021-03-21T11:59:44Z</time>
      </trkpt>
      <trkpt lat="43.62978" lon="3.86973">
        <ele>60</ele>
        <time>2021-03-21T11:59:45Z</time>
      </trkpt>
      <trkpt lat="43.62975" lon="3.86975">
        <ele>60</ele>
        <time>2021-03-21T11:59:46Z</time>
      </trkpt>
      <trkpt lat="43.62971" lon="3.86977">
        <ele>60</ele>
        <time>2021-03-21T11:59:47Z</time>
      </trkpt>
      <trkpt lat="43.62968" lon="3.86979">
        <ele>60</ele>
        <time>2021-03-21T11:59:48Z</time>
      </trkpt>
      <trkpt lat="43.62964" lon="3.86981">
        <ele>60</ele>
        <time>2021-03-21T11:59:49Z</time>
      </trkpt>
      <trkpt lat="43.62961" lon="3.86983">
        <ele>60</ele>
        <time>2021-03-21T11:59:50Z</time>
      </trkpt>
      <trkpt lat="43.62957" lon="3.86984">
        <ele>60</ele>
        <time>2021-03-21T11:59:51Z</time>
      </trkpt>
      <trkpt lat="43.62953" lon="3.86985">
        <ele>60</ele>
        <time>2021-03-21T11:59:52Z</time>
      </trkpt>
      <trkpt lat="43.62949" lon="3.86986">
        <ele>59</ele>
        <time>2021-03-21T11:59:53Z</time>
      </trkpt>
      <trkpt lat="43.62946" lon="3.86986">
        <ele>59</ele>
        <time>2021-03-21T11:59:54Z</time>
      </trkpt>
      <trkpt lat="43.62942" lon="3.86986">
        <ele>59</ele>
        <time>2021-03-21T11:59:55Z</time>
      </trkpt>
      <trkpt lat="43.62938" lon="3.86984">
        <ele>59</ele>
        <time>2021-03-21T11:59:56Z</time>
      </trkpt>
      <trkpt lat="43.62935" lon="3.86982">
        <ele>59</ele>
        <time>2021-03-21T11:59:57Z</time>
      </trkpt>
      <trkpt lat="43.62932" lon="3.86979">
        <ele>59</ele>
        <time>2021-03-21T11:59:58Z</time>
      </trkpt>
      <trkpt lat="43.6293" lon="3.86976">
        <ele>59</ele>
        <time>2021-03-21T11:59:59Z</time>
      </trkpt>
      <trkpt lat="43.62927" lon="3.86972">
        <ele>59</ele>
        <time>2021-03-21T12:00:00Z</time>
      </trkpt>
      <trkpt lat="43.62925" lon="3.86969">
        <ele>59</ele>
        <time>2021-03-21T12:00:01Z</time>
      </trkpt>
      <trkpt lat="43.62922" lon="3.86966">
        <ele>59</ele>
        <time>2021-03-21T12:00:02Z</time>
      </trkpt>
      <trkpt lat="43.6292" lon="3.86962">
        <ele>58</ele>
        <time>2021-03-21T12:00:03Z</time>
      </trkpt>
      <trkpt lat="43.62918" lon="3.86959">
        <ele>58</ele>
        <time>2021-03-21T12:00:04Z</time>
      </trkpt>
      <trkpt lat="43.62916" lon="3.86955">
        <ele>58</ele>
        <time>2021-03-21T12:00:05Z</time>
      </trkpt>
      <trkpt lat="43.62914" lon="3.86952">
        <ele>58</ele>
        <time>2021-03-21T12:00:06Z</time>
      </trkpt>
      <trkpt lat="43.62912" lon="3.8695">
        <ele>58</ele>
        <time>2021-03-21T12:00:07Z</time>
      </trkpt>
      <trkpt lat="43.62911" lon="3.86948">
        <ele>58</ele>
        <time>2021-03-21T12:00:08Z</time>
      </trkpt>
      <trkpt lat="43.62909" lon="3.86947">
        <ele>58</ele>
        <time>2021-03-21T12:00:09Z</time>
      </trkpt>
      <trkpt lat="43.62907" lon="3.86944">
        <ele>58</ele>
        <time>2021-03-21T12:00:11Z</time>
      </trkpt>
      <trkpt lat="43.62906" lon="3.86942">
        <ele>58</ele>
        <time>2021-03-21T12:00:16Z</time>
      </trkpt>
      <trkpt lat="43.62904" lon="3.86938">
        <ele>56</ele>
        <time>2021-03-21T12:00:21Z</time>
      </trkpt>
      <trkpt lat="43.62904" lon="3.86938">
        <ele>56</ele>
        <time>2021-03-21T12:00:24Z</time>
      </trkpt>
      <trkpt lat="43.62897" lon="3.86928">
        <ele>56</ele>
        <time>2021-03-21T12:00:43Z</time>
      </trkpt>
      <trkpt lat="43.62895" lon="3.86924">
        <ele>56</ele>
        <time>2021-03-21T12:00:44Z</time>
      </trkpt>
      <trkpt lat="43.62892" lon="3.8692">
        <ele>56</ele>
        <time>2021-03-21T12:00:45Z</time>
      </trkpt>
      <trkpt lat="43.62889" lon="3.86916">
        <ele>56</ele>
        <time>2021-03-21T12:00:46Z</time>
      </trkpt>
      <trkpt lat="43.62887" lon="3.86912">
        <ele>56</ele>
        <time>2021-03-21T12:00:47Z</time>
      </trkpt>
      <trkpt lat="43.62884" lon="3.86908">
        <ele>56</ele>
        <time>2021-03-21T12:00:48Z</time>
      </trkpt>
      <trkpt lat="43.62881" lon="3.86904">
        <ele>56</ele>
        <time>2021-03-21T12:00:49Z</time>
      </trkpt>
      <trkpt lat="43.62878" lon="3.869">
        <ele>56</ele>
        <time>2021-03-21T12:00:50Z</time>
      </trkpt>
      <trkpt lat="43.62875" lon="3.86896">
        <ele>56</ele>
        <time>2021-03-21T12:00:51Z</time>
      </trkpt>
      <trkpt lat="43.62872" lon="3.86892">
        <ele>55</ele>
        <time>2021-03-21T12:00:52Z</time>
      </trkpt>
      <trkpt lat="43.6287" lon="3.86888">
        <ele>55</ele>
        <time>2021-03-21T12:00:53Z</time>
      </trkpt>
      <trkpt lat="43.62867" lon="3.86883">
        <ele>55</ele>
        <time>2021-03-21T12:00:54Z</time>
      </trkpt>
      <trkpt lat="43.62864" lon="3.86879">
        <ele>55</ele>
        <time>2021-03-21T12:00:55Z</time>
      </trkpt>
      <trkpt lat="43.62861" lon="3.86875">
        <ele>55</ele>
        <time>2021-03-21T12:00:56Z</time>
      </trkpt>
      <trkpt lat="43.62858" lon="3.86872">
        <ele>55</ele>
        <time>2021-03-21T12:00:57Z</time>
      </trkpt>
      <trkpt lat="43.62856" lon="3.86868">
        <ele>55</ele>
        <time>2021-03-21T12:00:58Z</time>
      </trkpt>
      <trkpt lat="43.62853" lon="3.86864">
        <ele>55</ele>
        <time>2021-03-21T12:00:59Z</time>
      </trkpt>
      <trkpt lat="43.6285" lon="3.8686">
        <ele>55</ele>
        <time>2021-03-21T12:01:00Z</time>
      </trkpt>
      <trkpt lat="43.62847" lon="3.86857">
        <ele>55</ele>
        <time>2021-03-21T12:01:01Z</time>
      </trkpt>
      <trkpt lat="43.62844" lon="3.86853">
        <ele>55</ele>
        <time>2021-03-21T12:01:02Z</time>
      </trkpt>
      <trkpt lat="43.62842" lon="3.86848">
        <ele>54</ele>
        <time>2021-03-21T12:01:03Z</time>
      </trkpt>
      <trkpt lat="43.62839" lon="3.86844">
        <ele>54</ele>
        <time>2021-03-21T12:01:04Z</time>
      </trkpt>
      <trkpt lat="43.62837" lon="3.8684">
        <ele>54</ele>
        <time>2021-03-21T12:01:05Z</time>
      </trkpt>
      <trkpt lat="43.62835" lon="3.86837">
        <ele>54</ele>
        <time>2021-03-21T12:01:06Z</time>
      </trkpt>
      <trkpt lat="43.62832" lon="3.86835">
        <ele>54</ele>
        <time>2021-03-21T12:01:07Z</time>
      </trkpt>
      <trkpt lat="43.62828" lon="3.86835">
        <ele>54</ele>
        <time>2021-03-21T12:01:08Z</time>
      </trkpt>
      <trkpt lat="43.62825" lon="3.86836">
        <ele>54</ele>
        <time>2021-03-21T12:01:09Z</time>
      </trkpt>
      <trkpt lat="43.62822" lon="3.86834">
        <ele>54</ele>
        <time>2021-03-21T12:01:10Z</time>
      </trkpt>
      <trkpt lat="43.6282" lon="3.86831">
        <ele>54</ele>
        <time>2021-03-21T12:01:11Z</time>
      </trkpt>
      <trkpt lat="43.62818" lon="3.86827">
        <ele>52</ele>
        <time>2021-03-21T12:01:12Z</time>
      </trkpt>
      <trkpt lat="43.62816" lon="3.86822">
        <ele>52</ele>
        <time>2021-03-21T12:01:13Z</time>
      </trkpt>
      <trkpt lat="43.62814" lon="3.86818">
        <ele>52</ele>
        <time>2021-03-21T12:01:14Z</time>
      </trkpt>
      <trkpt lat="43.62811" lon="3.86814">
        <ele>52</ele>
        <time>2021-03-21T12:01:15Z</time>
      </trkpt>
      <trkpt lat="43.62808" lon="3.8681">
        <ele>52</ele>
        <time>2021-03-21T12:01:16Z</time>
      </trkpt>
      <trkpt lat="43.62806" lon="3.86806">
        <ele>52</ele>
        <time>2021-03-21T12:01:17Z</time>
      </trkpt>
      <trkpt lat="43.62803" lon="3.86803">
        <ele>52</ele>
        <time>2021-03-21T12:01:18Z</time>
      </trkpt>
      <trkpt lat="43.62801" lon="3.86799">
        <ele>52</ele>
        <time>2021-03-21T12:01:19Z</time>
      </trkpt>
      <trkpt lat="43.62798" lon="3.86796">
        <ele>52</ele>
        <time>2021-03-21T12:01:20Z</time>
      </trkpt>
      <trkpt lat="43.62796" lon="3.86792">
        <ele>52</ele>
        <time>2021-03-21T12:01:21Z</time>
      </trkpt>
      <trkpt lat="43.62793" lon="3.86789">
        <ele>52</ele>
        <time>2021-03-21T12:01:22Z</time>
      </trkpt>
      <trkpt lat="43.6279" lon="3.86786">
        <ele>52</ele>
        <time>2021-03-21T12:01:23Z</time>
      </trkpt>
      <trkpt lat="43.62787" lon="3.86783">
        <ele>52</ele>
        <time>2021-03-21T12:01:24Z</time>
      </trkpt>
      <trkpt lat="43.62784" lon="3.8678">
        <ele>52</ele>
        <time>2021-03-21T12:01:25Z</time>
      </trkpt>
      <trkpt lat="43.62782" lon="3.86776">
        <ele>52</ele>
        <time>2021-03-21T12:01:26Z</time>
      </trkpt>
      <trkpt lat="43.62779" lon="3.86772">
        <ele>52</ele>
        <time>2021-03-21T12:01:27Z</time>
      </trkpt>
      <trkpt lat="43.62776" lon="3.86769">
        <ele>52</ele>
        <time>2021-03-21T12:01:28Z</time>
      </trkpt>
      <trkpt lat="43.62774" lon="3.86765">
        <ele>52</ele>
        <time>2021-03-21T12:01:29Z</time>
      </trkpt>
      <trkpt lat="43.62771" lon="3.86762">
        <ele>52</ele>
        <time>2021-03-21T12:01:30Z</time>
      </trkpt>
      <trkpt lat="43.62767" lon="3.86758">
        <ele>52</ele>
        <time>2021-03-21T12:01:31Z</time>
      </trkpt>
      <trkpt lat="43.62764" lon="3.86754">
        <ele>50</ele>
        <time>2021-03-21T12:01:32Z</time>
      </trkpt>
      <trkpt lat="43.62762" lon="3.8675">
        <ele>50</ele>
        <time>2021-03-21T12:01:33Z</time>
      </trkpt>
      <trkpt lat="43.62759" lon="3.86746">
        <ele>50</ele>
        <time>2021-03-21T12:01:34Z</time>
      </trkpt>
      <trkpt lat="43.62756" lon="3.86742">
        <ele>50</ele>
        <time>2021-03-21T12:01:35Z</time>
      </trkpt>
      <trkpt lat="43.62753" lon="3.86739">
        <ele>50</ele>
        <time>2021-03-21T12:01:36Z</time>
      </trkpt>
      <trkpt lat="43.6275" lon="3.86735">
        <ele>50</ele>
        <time>2021-03-21T12:01:37Z</time>
      </trkpt>
      <trkpt lat="43.62747" lon="3.86731">
        <ele>50</ele>
        <time>2021-03-21T12:01:38Z</time>
      </trkpt>
      <trkpt lat="43.62744" lon="3.86728">
        <ele>50</ele>
        <time>2021-03-21T12:01:39Z</time>
      </trkpt>
      <trkpt lat="43.62742" lon="3.86724">
        <ele>50</ele>
        <time>2021-03-21T12:01:40Z</time>
      </trkpt>
      <trkpt lat="43.62739" lon="3.8672">
        <ele>50</ele>
        <time>2021-03-21T12:01:41Z</time>
      </trkpt>
      <trkpt lat="43.62736" lon="3.86717">
        <ele>50</ele>
        <time>2021-03-21T12:01:42Z</time>
      </trkpt>
      <trkpt lat="43.62734" lon="3.86714">
        <ele>50</ele>
        <time>2021-03-21T12:01:43Z</time>
      </trkpt>
      <trkpt lat="43.62731" lon="3.8671">
        <ele>50</ele>
        <time>2021-03-21T12:01:44Z</time>
      </trkpt>
      <trkpt lat="43.62729" lon="3.86706">
        <ele>50</ele>
        <time>2021-03-21T12:01:45Z</time>
      </trkpt>
      <trkpt lat="43.62726" lon="3.86702">
        <ele>50</ele>
        <time>2021-03-21T12:01:46Z</time>
      </trkpt>
      <trkpt lat="43.62724" lon="3.86698">
        <ele>50</ele>
        <time>2021-03-21T12:01:47Z</time>
      </trkpt>
      <trkpt lat="43.62721" lon="3.86694">
        <ele>50</ele>
        <time>2021-03-21T12:01:48Z</time>
      </trkpt>
      <trkpt lat="43.62719" lon="3.8669">
        <ele>50</ele>
        <time>2021-03-21T12:01:49Z</time>
      </trkpt>
      <trkpt lat="43.62716" lon="3.86686">
        <ele>50</ele>
        <time>2021-03-21T12:01:50Z</time>
      </trkpt>
      <trkpt lat="43.62713" lon="3.86683">
        <ele>50</ele>
        <time>2021-03-21T12:01:51Z</time>
      </trkpt>
      <trkpt lat="43.62711" lon="3.86679">
        <ele>48</ele>
        <time>2021-03-21T12:01:52Z</time>
      </trkpt>
      <trkpt lat="43.62708" lon="3.86676">
        <ele>48</ele>
        <time>2021-03-21T12:01:53Z</time>
      </trkpt>
      <trkpt lat="43.62706" lon="3.86672">
        <ele>48</ele>
        <time>2021-03-21T12:01:54Z</time>
      </trkpt>
      <trkpt lat="43.62704" lon="3.86668">
        <ele>48</ele>
        <time>2021-03-21T12:01:55Z</time>
      </trkpt>
      <trkpt lat="43.62702" lon="3.86665">
        <ele>48</ele>
        <time>2021-03-21T12:01:56Z</time>
      </trkpt>
      <trkpt lat="43.627" lon="3.86662">
        <ele>48</ele>
        <time>2021-03-21T12:01:57Z</time>
      </trkpt>
      <trkpt lat="43.62698" lon="3.86659">
        <ele>48</ele>
        <time>2021-03-21T12:01:58Z</time>
      </trkpt>
      <trkpt lat="43.62695" lon="3.86657">
        <ele>48</ele>
        <time>2021-03-21T12:01:59Z</time>
      </trkpt>
      <trkpt lat="43.62693" lon="3.86654">
        <ele>48</ele>
        <time>2021-03-21T12:02:00Z</time>
      </trkpt>
      <trkpt lat="43.62691" lon="3.86651">
        <ele>48</ele>
        <time>2021-03-21T12:02:01Z</time>
      </trkpt>
      <trkpt lat="43.62689" lon="3.86648">
        <ele>46</ele>
        <time>2021-03-21T12:02:02Z</time>
      </trkpt>
      <trkpt lat="43.62687" lon="3.86645">
        <ele>46</ele>
        <time>2021-03-21T12:02:03Z</time>
      </trkpt>
      <trkpt lat="43.62685" lon="3.86642">
        <ele>46</ele>
        <time>2021-03-21T12:02:04Z</time>
      </trkpt>
      <trkpt lat="43.62683" lon="3.86639">
        <ele>46</ele>
        <time>2021-03-21T12:02:05Z</time>
      </trkpt>
      <trkpt lat="43.62682" lon="3.86636">
        <ele>46</ele>
        <time>2021-03-21T12:02:06Z</time>
      </trkpt>
      <trkpt lat="43.6268" lon="3.86634">
        <ele>46</ele>
        <time>2021-03-21T12:02:07Z</time>
      </trkpt>
      <trkpt lat="43.62678" lon="3.86633">
        <ele>46</ele>
        <time>2021-03-21T12:02:08Z</time>
      </trkpt>
      <trkpt lat="43.62676" lon="3.8663">
        <ele>46</ele>
        <time>2021-03-21T12:02:09Z</time>
      </trkpt>
      <trkpt lat="43.62674" lon="3.86626">
        <ele>46</ele>
        <time>2021-03-21T12:02:10Z</time>
      </trkpt>
      <trkpt lat="43.62674" lon="3.86622">
        <ele>46</ele>
        <time>2021-03-21T12:02:11Z</time>
      </trkpt>
      <trkpt lat="43.62676" lon="3.86618">
        <ele>44</ele>
        <time>2021-03-21T12:02:12Z</time>
      </trkpt>
      <trkpt lat="43.62677" lon="3.86615">
        <ele>44</ele>
        <time>2021-03-21T12:02:13Z</time>
      </trkpt>
      <trkpt lat="43.62677" lon="3.86612">
        <ele>44</ele>
        <time>2021-03-21T12:02:14Z</time>
      </trkpt>
      <trkpt lat="43.62674" lon="3.86609">
        <ele>44</ele>
        <time>2021-03-21T12:02:15Z</time>
      </trkpt>
      <trkpt lat="43.62671" lon="3.86608">
        <ele>44</ele>
        <time>2021-03-21T12:02:16Z</time>
      </trkpt>
      <trkpt lat="43.62667" lon="3.86607">
        <ele>44</ele>
        <time>2021-03-21T12:02:17Z</time>
      </trkpt>
      <trkpt lat="43.62663" lon="3.86607">
        <ele>44</ele>
        <time>2021-03-21T12:02:18Z</time>
      </trkpt>
      <trkpt lat="43.62659" lon="3.86608">
        <ele>44</ele>
        <time>2021-03-21T12:02:19Z</time>
      </trkpt>
      <trkpt lat="43.62655" lon="3.86608">
        <ele>44</ele>
        <time>2021-03-21T12:02:20Z</time>
      </trkpt>
      <trkpt lat="43.62651" lon="3.86609">
        <ele>44</ele>
        <time>2021-03-21T12:02:21Z</time>
      </trkpt>
      <trkpt lat="43.62647" lon="3.86608">
        <ele>44</ele>
        <time>2021-03-21T12:02:22Z</time>
      </trkpt>
      <trkpt lat="43.62643" lon="3.86606">
        <ele>44</ele>
        <time>2021-03-21T12:02:23Z</time>
      </trkpt>
      <trkpt lat="43.62641" lon="3.86603">
        <ele>44</ele>
        <time>2021-03-21T12:02:24Z</time>
      </trkpt>
      <trkpt lat="43.62639" lon="3.86599">
        <ele>44</ele>
        <time>2021-03-21T12:02:25Z</time>
      </trkpt>
      <trkpt lat="43.62636" lon="3.86596">
        <ele>44</ele>
        <time>2021-03-21T12:02:26Z</time>
      </trkpt>
      <trkpt lat="43.62635" lon="3.86591">
        <ele>44</ele>
        <time>2021-03-21T12:02:27Z</time>
      </trkpt>
      <trkpt lat="43.62633" lon="3.86586">
        <ele>44</ele>
        <time>2021-03-21T12:02:28Z</time>
      </trkpt>
      <trkpt lat="43.62631" lon="3.86581">
        <ele>44</ele>
        <time>2021-03-21T12:02:29Z</time>
      </trkpt>
      <trkpt lat="43.62628" lon="3.86577">
        <ele>44</ele>
        <time>2021-03-21T12:02:30Z</time>
      </trkpt>
      <trkpt lat="43.62626" lon="3.86573">
        <ele>44</ele>
        <time>2021-03-21T12:02:31Z</time>
      </trkpt>
      <trkpt lat="43.62624" lon="3.86569">
        <ele>44</ele>
        <time>2021-03-21T12:02:32Z</time>
      </trkpt>
      <trkpt lat="43.62622" lon="3.86564">
        <ele>45</ele>
        <time>2021-03-21T12:02:33Z</time>
      </trkpt>
      <trkpt lat="43.62619" lon="3.8656">
        <ele>45</ele>
        <time>2021-03-21T12:02:34Z</time>
      </trkpt>
      <trkpt lat="43.62617" lon="3.86556">
        <ele>45</ele>
        <time>2021-03-21T12:02:35Z</time>
      </trkpt>
      <trkpt lat="43.62614" lon="3.86552">
        <ele>45</ele>
        <time>2021-03-21T12:02:36Z</time>
      </trkpt>
      <trkpt lat="43.62612" lon="3.86548">
        <ele>45</ele>
        <time>2021-03-21T12:02:37Z</time>
      </trkpt>
      <trkpt lat="43.6261" lon="3.86545">
        <ele>45</ele>
        <time>2021-03-21T12:02:38Z</time>
      </trkpt>
      <trkpt lat="43.62608" lon="3.86542">
        <ele>45</ele>
        <time>2021-03-21T12:02:39Z</time>
      </trkpt>
      <trkpt lat="43.62607" lon="3.8654">
        <ele>45</ele>
        <time>2021-03-21T12:02:40Z</time>
      </trkpt>
      <trkpt lat="43.62606" lon="3.86538">
        <ele>45</ele>
        <time>2021-03-21T12:02:41Z</time>
      </trkpt>
      <trkpt lat="43.62604" lon="3.86535">
        <ele>45</ele>
        <time>2021-03-21T12:02:42Z</time>
      </trkpt>
      <trkpt lat="43.62602" lon="3.86532">
        <ele>45</ele>
        <time>2021-03-21T12:02:43Z</time>
      </trkpt>
      <trkpt lat="43.626" lon="3.86529">
        <ele>45</ele>
        <time>2021-03-21T12:02:44Z</time>
      </trkpt>
      <trkpt lat="43.62598" lon="3.86524">
        <ele>45</ele>
        <time>2021-03-21T12:02:45Z</time>
      </trkpt>
      <trkpt lat="43.62596" lon="3.8652">
        <ele>45</ele>
        <time>2021-03-21T12:02:46Z</time>
      </trkpt>
      <trkpt lat="43.62594" lon="3.86516">
        <ele>45</ele>
        <time>2021-03-21T12:02:47Z</time>
      </trkpt>
      <trkpt lat="43.62592" lon="3.86512">
        <ele>45</ele>
        <time>2021-03-21T12:02:48Z</time>
      </trkpt>
      <trkpt lat="43.6259" lon="3.86507">
        <ele>45</ele>
        <time>2021-03-21T12:02:49Z</time>
      </trkpt>
      <trkpt lat="43.62588" lon="3.86503">
        <ele>45</ele>
        <time>2021-03-21T12:02:50Z</time>
      </trkpt>
      <trkpt lat="43.62586" lon="3.86499">
        <ele>45</ele>
        <time>2021-03-21T12:02:51Z</time>
      </trkpt>
      <trkpt lat="43.62583" lon="3.86496">
        <ele>45</ele>
        <time>2021-03-21T12:02:52Z</time>
      </trkpt>
      <trkpt lat="43.62581" lon="3.86492">
        <ele>45</ele>
        <time>2021-03-21T12:02:53Z</time>
      </trkpt>
      <trkpt lat="43.6258" lon="3.86488">
        <ele>45</ele>
        <time>2021-03-21T12:02:54Z</time>
      </trkpt>
      <trkpt lat="43.62577" lon="3.86485">
        <ele>45</ele>
        <time>2021-03-21T12:02:55Z</time>
      </trkpt>
      <trkpt lat="43.62575" lon="3.86482">
        <ele>45</ele>
        <time>2021-03-21T12:02:56Z</time>
      </trkpt>
      <trkpt lat="43.62573" lon="3.86478">
        <ele>45</ele>
        <time>2021-03-21T12:02:57Z</time>
      </trkpt>
      <trkpt lat="43.6257" lon="3.86475">
        <ele>45</ele>
        <time>2021-03-21T12:02:58Z</time>
      </trkpt>
      <trkpt lat="43.62568" lon="3.86471">
        <ele>45</ele>
        <time>2021-03-21T12:02:59Z</time>
      </trkpt>
      <trkpt lat="43.62566" lon="3.86467">
        <ele>45</ele>
        <time>2021-03-21T12:03:00Z</time>
      </trkpt>
      <trkpt lat="43.62565" lon="3.86463">
        <ele>45</ele>
        <time>2021-03-21T12:03:01Z</time>
      </trkpt>
      <trkpt lat="43.62563" lon="3.86459">
        <ele>44</ele>
        <time>2021-03-21T12:03:02Z</time>
      </trkpt>
      <trkpt lat="43.62561" lon="3.86456">
        <ele>44</ele>
        <time>2021-03-21T12:03:03Z</time>
      </trkpt>
      <trkpt lat="43.62559" lon="3.86454">
        <ele>44</ele>
        <time>2021-03-21T12:03:04Z</time>
      </trkpt>
      <trkpt lat="43.62557" lon="3.86451">
        <ele>44</ele>
        <time>2021-03-21T12:03:05Z</time>
      </trkpt>
      <trkpt lat="43.62555" lon="3.86449">
        <ele>44</ele>
        <time>2021-03-21T12:03:06Z</time>
      </trkpt>
      <trkpt lat="43.62554" lon="3.86446">
        <ele>44</ele>
        <time>2021-03-21T12:03:07Z</time>
      </trkpt>
      <trkpt lat="43.62552" lon="3.86443">
        <ele>44</ele>
        <time>2021-03-21T12:03:08Z</time>
      </trkpt>
      <trkpt lat="43.6255" lon="3.8644">
        <ele>44</ele>
        <time>2021-03-21T12:03:09Z</time>
      </trkpt>
      <trkpt lat="43.62547" lon="3.86437">
        <ele>44</ele>
        <time>2021-03-21T12:03:10Z</time>
      </trkpt>
      <trkpt lat="43.62544" lon="3.86434">
        <ele>44</ele>
        <time>2021-03-21T12:03:11Z</time>
      </trkpt>
      <trkpt lat="43.62541" lon="3.8643">
        <ele>44</ele>
        <time>2021-03-21T12:03:12Z</time>
      </trkpt>
      <trkpt lat="43.62538" lon="3.86425">
        <ele>44</ele>
        <time>2021-03-21T12:03:13Z</time>
      </trkpt>
      <trkpt lat="43.62535" lon="3.86421">
        <ele>44</ele>
        <time>2021-03-21T12:03:14Z</time>
      </trkpt>
      <trkpt lat="43.62532" lon="3.86417">
        <ele>44</ele>
        <time>2021-03-21T12:03:15Z</time>
      </trkpt>
      <trkpt lat="43.62529" lon="3.86412">
        <ele>44</ele>
        <time>2021-03-21T12:03:16Z</time>
      </trkpt>
      <trkpt lat="43.62526" lon="3.86408">
        <ele>44</ele>
        <time>2021-03-21T12:03:17Z</time>
      </trkpt>
      <trkpt lat="43.62523" lon="3.86403">
        <ele>44</ele>
        <time>2021-03-21T12:03:18Z</time>
      </trkpt>
      <trkpt lat="43.6252" lon="3.86399">
        <ele>44</ele>
        <time>2021-03-21T12:03:19Z</time>
      </trkpt>
      <trkpt lat="43.62517" lon="3.86394">
        <ele>44</ele>
        <time>2021-03-21T12:03:20Z</time>
      </trkpt>
      <trkpt lat="43.62514" lon="3.8639">
        <ele>44</ele>
        <time>2021-03-21T12:03:21Z</time>
      </trkpt>
      <trkpt lat="43.6251" lon="3.86385">
        <ele>43</ele>
        <time>2021-03-21T12:03:22Z</time>
      </trkpt>
      <trkpt lat="43.62507" lon="3.8638">
        <ele>43</ele>
        <time>2021-03-21T12:03:23Z</time>
      </trkpt>
      <trkpt lat="43.62503" lon="3.86376">
        <ele>43</ele>
        <time>2021-03-21T12:03:24Z</time>
      </trkpt>
      <trkpt lat="43.62499" lon="3.86372">
        <ele>43</ele>
        <time>2021-03-21T12:03:25Z</time>
      </trkpt>
      <trkpt lat="43.62496" lon="3.86367">
        <ele>43</ele>
        <time>2021-03-21T12:03:26Z</time>
      </trkpt>
      <trkpt lat="43.62493" lon="3.86362">
        <ele>43</ele>
        <time>2021-03-21T12:03:27Z</time>
      </trkpt>
      <trkpt lat="43.6249" lon="3.86356">
        <ele>43</ele>
        <time>2021-03-21T12:03:28Z</time>
      </trkpt>
      <trkpt lat="43.62487" lon="3.86351">
        <ele>43</ele>
        <time>2021-03-21T12:03:29Z</time>
      </trkpt>
      <trkpt lat="43.62483" lon="3.86346">
        <ele>43</ele>
        <time>2021-03-21T12:03:30Z</time>
      </trkpt>
      <trkpt lat="43.6248" lon="3.86341">
        <ele>43</ele>
        <time>2021-03-21T12:03:31Z</time>
      </trkpt>
      <trkpt lat="43.62477" lon="3.86336">
        <ele>44</ele>
        <time>2021-03-21T12:03:32Z</time>
      </trkpt>
      <trkpt lat="43.62474" lon="3.8633">
        <ele>44</ele>
        <time>2021-03-21T12:03:33Z</time>
      </trkpt>
      <trkpt lat="43.62471" lon="3.86325">
        <ele>44</ele>
        <time>2021-03-21T12:03:34Z</time>
      </trkpt>
      <trkpt lat="43.62468" lon="3.86321">
        <ele>44</ele>
        <time>2021-03-21T12:03:35Z</time>
      </trkpt>
      <trkpt lat="43.62466" lon="3.86317">
        <ele>44</ele>
        <time>2021-03-21T12:03:36Z</time>
      </trkpt>
      <trkpt lat="43.62463" lon="3.86313">
        <ele>44</ele>
        <time>2021-03-21T12:03:37Z</time>
      </trkpt>
      <trkpt lat="43.6246" lon="3.8631">
        <ele>44</ele>
        <time>2021-03-21T12:03:38Z</time>
      </trkpt>
      <trkpt lat="43.62458" lon="3.86305">
        <ele>44</ele>
        <time>2021-03-21T12:03:39Z</time>
      </trkpt>
      <trkpt lat="43.62455" lon="3.86302">
        <ele>44</ele>
        <time>2021-03-21T12:03:40Z</time>
      </trkpt>
      <trkpt lat="43.62452" lon="3.86298">
        <ele>44</ele>
        <time>2021-03-21T12:03:41Z</time>
      </trkpt>
      <trkpt lat="43.62449" lon="3.86294">
        <ele>43</ele>
        <time>2021-03-21T12:03:42Z</time>
      </trkpt>
      <trkpt lat="43.62446" lon="3.8629">
        <ele>43</ele>
        <time>2021-03-21T12:03:43Z</time>
      </trkpt>
      <trkpt lat="43.62443" lon="3.86286">
        <ele>43</ele>
        <time>2021-03-21T12:03:44Z</time>
      </trkpt>
      <trkpt lat="43.6244" lon="3.8628">
        <ele>43</ele>
        <time>2021-03-21T12:03:45Z</time>
      </trkpt>
      <trkpt lat="43.62438" lon="3.86274">
        <ele>43</ele>
        <time>2021-03-21T12:03:46Z</time>
      </trkpt>
      <trkpt lat="43.62435" lon="3.86269">
        <ele>43</ele>
        <time>2021-03-21T12:03:47Z</time>
      </trkpt>
      <trkpt lat="43.62432" lon="3.86263">
        <ele>43</ele>
        <time>2021-03-21T12:03:48Z</time>
      </trkpt>
      <trkpt lat="43.62428" lon="3.86259">
        <ele>43</ele>
        <time>2021-03-21T12:03:49Z</time>
      </trkpt>
      <trkpt lat="43.62425" lon="3.86255">
        <ele>43</ele>
        <time>2021-03-21T12:03:50Z</time>
      </trkpt>
      <trkpt lat="43.62422" lon="3.86249">
        <ele>43</ele>
        <time>2021-03-21T12:03:51Z</time>
      </trkpt>
      <trkpt lat="43.62419" lon="3.86244">
        <ele>40</ele>
        <time>2021-03-21T12:03:52Z</time>
      </trkpt>
      <trkpt lat="43.62415" lon="3.8624">
        <ele>40</ele>
        <time>2021-03-21T12:03:53Z</time>
      </trkpt>
      <trkpt lat="43.62412" lon="3.86235">
        <ele>40</ele>
        <time>2021-03-21T12:03:54Z</time>
      </trkpt>
      <trkpt lat="43.6241" lon="3.86231">
        <ele>40</ele>
        <time>2021-03-21T12:03:55Z</time>
      </trkpt>
      <trkpt lat="43.62407" lon="3.86227">
        <ele>40</ele>
        <time>2021-03-21T12:03:56Z</time>
      </trkpt>
      <trkpt lat="43.62405" lon="3.86223">
        <ele>40</ele>
        <time>2021-03-21T12:03:57Z</time>
      </trkpt>
      <trkpt lat="43.62402" lon="3.86219">
        <ele>40</ele>
        <time>2021-03-21T12:03:58Z</time>
      </trkpt>
      <trkpt lat="43.62399" lon="3.86216">
        <ele>40</ele>
        <time>2021-03-21T12:03:59Z</time>
      </trkpt>
      <trkpt lat="43.62396" lon="3.86212">
        <ele>40</ele>
        <time>2021-03-21T12:04:00Z</time>
      </trkpt>
      <trkpt lat="43.62393" lon="3.86208">
        <ele>40</ele>
        <time>2021-03-21T12:04:01Z</time>
      </trkpt>
      <trkpt lat="43.62389" lon="3.86205">
        <ele>38</ele>
        <time>2021-03-21T12:04:02Z</time>
      </trkpt>
      <trkpt lat="43.62385" lon="3.862">
        <ele>38</ele>
        <time>2021-03-21T12:04:03Z</time>
      </trkpt>
      <trkpt lat="43.62382" lon="3.86196">
        <ele>38</ele>
        <time>2021-03-21T12:04:04Z</time>
      </trkpt>
      <trkpt lat="43.62379" lon="3.86191">
        <ele>38</ele>
        <time>2021-03-21T12:04:05Z</time>
      </trkpt>
      <trkpt lat="43.62375" lon="3.86187">
        <ele>38</ele>
        <time>2021-03-21T12:04:06Z</time>
      </trkpt>
      <trkpt lat="43.62372" lon="3.86183">
        <ele>38</ele>
        <time>2021-03-21T12:04:07Z</time>
      </trkpt>
      <trkpt lat="43.62369" lon="3.86178">
        <ele>38</ele>
        <time>2021-03-21T12:04:08Z</time>
      </trkpt>
      <trkpt lat="43.62366" lon="3.86174">
        <ele>38</ele>
        <time>2021-03-21T12:04:09Z</time>
      </trkpt>
      <trkpt lat="43.62363" lon="3.86169">
        <ele>38</ele>
        <time>2021-03-21T12:04:10Z</time>
      </trkpt>
      <trkpt lat="43.6236" lon="3.86164">
        <ele>38</ele>
        <time>2021-03-21T12:04:11Z</time>
      </trkpt>
      <trkpt lat="43.62356" lon="3.8616">
        <ele>38</ele>
        <time>2021-03-21T12:04:12Z</time>
      </trkpt>
      <trkpt lat="43.62352" lon="3.86155">
        <ele>37</ele>
        <time>2021-03-21T12:04:13Z</time>
      </trkpt>
      <trkpt lat="43.62349" lon="3.8615">
        <ele>37</ele>
        <time>2021-03-21T12:04:14Z</time>
      </trkpt>
      <trkpt lat="43.62345" lon="3.86145">
        <ele>37</ele>
        <time>2021-03-21T12:04:15Z</time>
      </trkpt>
      <trkpt lat="43.62341" lon="3.86141">
        <ele>37</ele>
        <time>2021-03-21T12:04:16Z</time>
      </trkpt>
      <trkpt lat="43.62338" lon="3.86136">
        <ele>37</ele>
        <time>2021-03-21T12:04:17Z</time>
      </trkpt>
      <trkpt lat="43.62335" lon="3.86131">
        <ele>37</ele>
        <time>2021-03-21T12:04:18Z</time>
      </trkpt>
      <trkpt lat="43.62331" lon="3.86126">
        <ele>37</ele>
        <time>2021-03-21T12:04:19Z</time>
      </trkpt>
      <trkpt lat="43.62328" lon="3.86122">
        <ele>37</ele>
        <time>2021-03-21T12:04:20Z</time>
      </trkpt>
      <trkpt lat="43.62325" lon="3.86117">
        <ele>37</ele>
        <time>2021-03-21T12:04:21Z</time>
      </trkpt>
      <trkpt lat="43.62321" lon="3.86112">
        <ele>36</ele>
        <time>2021-03-21T12:04:22Z</time>
      </trkpt>
      <trkpt lat="43.62318" lon="3.86107">
        <ele>36</ele>
        <time>2021-03-21T12:04:23Z</time>
      </trkpt>
      <trkpt lat="43.62315" lon="3.86102">
        <ele>36</ele>
        <time>2021-03-21T12:04:24Z</time>
      </trkpt>
      <trkpt lat="43.62312" lon="3.86096">
        <ele>36</ele>
        <time>2021-03-21T12:04:25Z</time>
      </trkpt>
      <trkpt lat="43.62309" lon="3.86091">
        <ele>36</ele>
        <time>2021-03-21T12:04:26Z</time>
      </trkpt>
      <trkpt lat="43.62306" lon="3.86085">
        <ele>36</ele>
        <time>2021-03-21T12:04:27Z</time>
      </trkpt>
      <trkpt lat="43.62303" lon="3.8608">
        <ele>36</ele>
        <time>2021-03-21T12:04:28Z</time>
      </trkpt>
      <trkpt lat="43.62301" lon="3.86075">
        <ele>36</ele>
        <time>2021-03-21T12:04:29Z</time>
      </trkpt>
      <trkpt lat="43.62297" lon="3.8607">
        <ele>36</ele>
        <time>2021-03-21T12:04:30Z</time>
      </trkpt>
      <trkpt lat="43.62294" lon="3.86065">
        <ele>36</ele>
        <time>2021-03-21T12:04:31Z</time>
      </trkpt>
      <trkpt lat="43.62291" lon="3.8606">
        <ele>35</ele>
        <time>2021-03-21T12:04:32Z</time>
      </trkpt>
      <trkpt lat="43.62287" lon="3.86055">
        <ele>35</ele>
        <time>2021-03-21T12:04:33Z</time>
      </trkpt>
      <trkpt lat="43.62284" lon="3.8605">
        <ele>35</ele>
        <time>2021-03-21T12:04:34Z</time>
      </trkpt>
      <trkpt lat="43.62281" lon="3.86045">
        <ele>35</ele>
        <time>2021-03-21T12:04:35Z</time>
      </trkpt>
      <trkpt lat="43.62277" lon="3.8604">
        <ele>35</ele>
        <time>2021-03-21T12:04:36Z</time>
      </trkpt>
      <trkpt lat="43.62274" lon="3.86036">
        <ele>35</ele>
        <time>2021-03-21T12:04:37Z</time>
      </trkpt>
      <trkpt lat="43.62271" lon="3.86031">
        <ele>35</ele>
        <time>2021-03-21T12:04:38Z</time>
      </trkpt>
      <trkpt lat="43.62268" lon="3.86027">
        <ele>35</ele>
        <time>2021-03-21T12:04:39Z</time>
      </trkpt>
      <trkpt lat="43.62264" lon="3.86022">
        <ele>35</ele>
        <time>2021-03-21T12:04:40Z</time>
      </trkpt>
      <trkpt lat="43.62261" lon="3.86017">
        <ele>35</ele>
        <time>2021-03-21T12:04:41Z</time>
      </trkpt>
      <trkpt lat="43.62257" lon="3.86012">
        <ele>35</ele>
        <time>2021-03-21T12:04:42Z</time>
      </trkpt>
      <trkpt lat="43.62254" lon="3.86007">
        <ele>35</ele>
        <time>2021-03-21T12:04:43Z</time>
      </trkpt>
      <trkpt lat="43.6225" lon="3.86002">
        <ele>35</ele>
        <time>2021-03-21T12:04:44Z</time>
      </trkpt>
      <trkpt lat="43.62247" lon="3.85997">
        <ele>35</ele>
        <time>2021-03-21T12:04:45Z</time>
      </trkpt>
      <trkpt lat="43.62244" lon="3.85992">
        <ele>35</ele>
        <time>2021-03-21T12:04:46Z</time>
      </trkpt>
      <trkpt lat="43.6224" lon="3.85987">
        <ele>35</ele>
        <time>2021-03-21T12:04:47Z</time>
      </trkpt>
      <trkpt lat="43.62237" lon="3.85982">
        <ele>35</ele>
        <time>2021-03-21T12:04:48Z</time>
      </trkpt>
      <trkpt lat="43.62234" lon="3.85978">
        <ele>35</ele>
        <time>2021-03-21T12:04:49Z</time>
      </trkpt>
      <trkpt lat="43.6223" lon="3.85973">
        <ele>35</ele>
        <time>2021-03-21T12:04:50Z</time>
      </trkpt>
      <trkpt lat="43.62227" lon="3.85969">
        <ele>35</ele>
        <time>2021-03-21T12:04:51Z</time>
      </trkpt>
      <trkpt lat="43.62224" lon="3.85964">
        <ele>35</ele>
        <time>2021-03-21T12:04:52Z</time>
      </trkpt>
      <trkpt lat="43.6222" lon="3.8596">
        <ele>35</ele>
        <time>2021-03-21T12:04:53Z</time>
      </trkpt>
      <trkpt lat="43.62217" lon="3.85956">
        <ele>35</ele>
        <time>2021-03-21T12:04:54Z</time>
      </trkpt>
      <trkpt lat="43.62214" lon="3.85951">
        <ele>35</ele>
        <time>2021-03-21T12:04:55Z</time>
      </trkpt>
      <trkpt lat="43.6221" lon="3.85947">
        <ele>35</ele>
        <time>2021-03-21T12:04:56Z</time>
      </trkpt>
      <trkpt lat="43.62207" lon="3.85943">
        <ele>35</ele>
        <time>2021-03-21T12:04:57Z</time>
      </trkpt>
      <trkpt lat="43.62204" lon="3.85939">
        <ele>35</ele>
        <time>2021-03-21T12:04:58Z</time>
      </trkpt>
      <trkpt lat="43.622" lon="3.85934">
        <ele>35</ele>
        <time>2021-03-21T12:04:59Z</time>
      </trkpt>
      <trkpt lat="43.62197" lon="3.8593">
        <ele>35</ele>
        <time>2021-03-21T12:05:00Z</time>
      </trkpt>
      <trkpt lat="43.62193" lon="3.85925">
        <ele>35</ele>
        <time>2021-03-21T12:05:01Z</time>
      </trkpt>
      <trkpt lat="43.6219" lon="3.8592">
        <ele>35</ele>
        <time>2021-03-21T12:05:02Z</time>
      </trkpt>
      <trkpt lat="43.62186" lon="3.85916">
        <ele>35</ele>
        <time>2021-03-21T12:05:03Z</time>
      </trkpt>
      <trkpt lat="43.62183" lon="3.85911">
        <ele>35</ele>
        <time>2021-03-21T12:05:04Z</time>
      </trkpt>
      <trkpt lat="43.6218" lon="3.85907">
        <ele>35</ele>
        <time>2021-03-21T12:05:05Z</time>
      </trkpt>
      <trkpt lat="43.62177" lon="3.85903">
        <ele>35</ele>
        <time>2021-03-21T12:05:06Z</time>
      </trkpt>
      <trkpt lat="43.62173" lon="3.85898">
        <ele>35</ele>
        <time>2021-03-21T12:05:07Z</time>
      </trkpt>
      <trkpt lat="43.6217" lon="3.85894">
        <ele>35</ele>
        <time>2021-03-21T12:05:08Z</time>
      </trkpt>
      <trkpt lat="43.62167" lon="3.8589">
        <ele>35</ele>
        <time>2021-03-21T12:05:09Z</time>
      </trkpt>
      <trkpt lat="43.62163" lon="3.85885">
        <ele>35</ele>
        <time>2021-03-21T12:05:10Z</time>
      </trkpt>
      <trkpt lat="43.6216" lon="3.85881">
        <ele>35</ele>
        <time>2021-03-21T12:05:11Z</time>
      </trkpt>
      <trkpt lat="43.62156" lon="3.85876">
        <ele>35</ele>
        <time>2021-03-21T12:05:12Z</time>
      </trkpt>
      <trkpt lat="43.62152" lon="3.85871">
        <ele>35</ele>
        <time>2021-03-21T12:05:13Z</time>
      </trkpt>
      <trkpt lat="43.62148" lon="3.85867">
        <ele>35</ele>
        <time>2021-03-21T12:05:14Z</time>
      </trkpt>
      <trkpt lat="43.62144" lon="3.85863">
        <ele>35</ele>
        <time>2021-03-21T12:05:15Z</time>
      </trkpt>
      <trkpt lat="43.62139" lon="3.8586">
        <ele>35</ele>
        <time>2021-03-21T12:05:16Z</time>
      </trkpt>
      <trkpt lat="43.62135" lon="3.85856">
        <ele>35</ele>
        <time>2021-03-21T12:05:17Z</time>
      </trkpt>
      <trkpt lat="43.62131" lon="3.85852">
        <ele>35</ele>
        <time>2021-03-21T12:05:18Z</time>
      </trkpt>
      <trkpt lat="43.62126" lon="3.85848">
        <ele>35</ele>
        <time>2021-03-21T12:05:19Z</time>
      </trkpt>
      <trkpt lat="43.62122" lon="3.85844">
        <ele>35</ele>
        <time>2021-03-21T12:05:20Z</time>
      </trkpt>
      <trkpt lat="43.62118" lon="3.8584">
        <ele>35</ele>
        <time>2021-03-21T12:05:21Z</time>
      </trkpt>
      <trkpt lat="43.62114" lon="3.85836">
        <ele>35</ele>
        <time>2021-03-21T12:05:22Z</time>
      </trkpt>
      <trkpt lat="43.62111" lon="3.85832">
        <ele>35</ele>
        <time>2021-03-21T12:05:23Z</time>
      </trkpt>
      <trkpt lat="43.62108" lon="3.85828">
        <ele>35</ele>
        <time>2021-03-21T12:05:24Z</time>
      </trkpt>
      <trkpt lat="43.62105" lon="3.85824">
        <ele>35</ele>
        <time>2021-03-21T12:05:25Z</time>
      </trkpt>
      <trkpt lat="43.62102" lon="3.85821">
        <ele>35</ele>
        <time>2021-03-21T12:05:26Z</time>
      </trkpt>
      <trkpt lat="43.62099" lon="3.85819">
        <ele>35</ele>
        <time>2021-03-21T12:05:27Z</time>
      </trkpt>
      <trkpt lat="43.62096" lon="3.85816">
        <ele>35</ele>
        <time>2021-03-21T12:05:28Z</time>
      </trkpt>
      <trkpt lat="43.62093" lon="3.85814">
        <ele>35</ele>
        <time>2021-03-21T12:05:29Z</time>
      </trkpt>
      <trkpt lat="43.6209" lon="3.85812">
        <ele>35</ele>
        <time>2021-03-21T12:05:30Z</time>
      </trkpt>
      <trkpt lat="43.62088" lon="3.85808">
        <ele>35</ele>
        <time>2021-03-21T12:05:31Z</time>
      </trkpt>
      <trkpt lat="43.62086" lon="3.85805">
        <ele>35</ele>
        <time>2021-03-21T12:05:32Z</time>
      </trkpt>
      <trkpt lat="43.62085" lon="3.85801">
        <ele>34</ele>
        <time>2021-03-21T12:05:33Z</time>
      </trkpt>
      <trkpt lat="43.62083" lon="3.85798">
        <ele>34</ele>
        <time>2021-03-21T12:05:34Z</time>
      </trkpt>
      <trkpt lat="43.62082" lon="3.85794">
        <ele>34</ele>
        <time>2021-03-21T12:05:35Z</time>
      </trkpt>
      <trkpt lat="43.62081" lon="3.85791">
        <ele>34</ele>
        <time>2021-03-21T12:05:36Z</time>
      </trkpt>
      <trkpt lat="43.62081" lon="3.85787">
        <ele>34</ele>
        <time>2021-03-21T12:05:37Z</time>
      </trkpt>
      <trkpt lat="43.6208" lon="3.85783">
        <ele>34</ele>
        <time>2021-03-21T12:05:38Z</time>
      </trkpt>
      <trkpt lat="43.6208" lon="3.8578">
        <ele>34</ele>
        <time>2021-03-21T12:05:39Z</time>
      </trkpt>
      <trkpt lat="43.6208" lon="3.85777">
        <ele>34</ele>
        <time>2021-03-21T12:05:40Z</time>
      </trkpt>
      <trkpt lat="43.62082" lon="3.85775">
        <ele>35</ele>
        <time>2021-03-21T12:05:48Z</time>
      </trkpt>
    </trkseg>
  </trk>
</gpx>